<?xml version="1.0" encoding="UTF-8" standalone="no" ?>
<gpx xmlns="http://www.topografix.com/GPX/1/1" xmlns:xsi="http://www.w3.org/2001/XMLSchema-instance" xsi:schemaLocation="http://www.topografix.com/GPX/1/1 http://www.topografix.com/GPX/1/1/gpx.xsd" version="1.1" creator="VisuGPX - https://www.visugpx.com">
  <metadata>
    <name>Rando des Coteaux de la Voie Romaine 2023</name>
  </metadata>
  <trk>
    <name><![CDATA[Rando des Coteaux de la Voie Romaine 2023_1]]></name>
    <trkseg>
      <trkpt lat="44.92515" lon="0.68273">
        <ele>125.7</ele>
        <time>2023-04-10T06:43:16Z</time>
      </trkpt>
      <trkpt lat="44.92512" lon="0.68272">
        <ele>125.4</ele>
        <time>2023-04-10T06:43:17Z</time>
      </trkpt>
      <trkpt lat="44.92507" lon="0.68276">
        <ele>124.8</ele>
        <time>2023-04-10T06:43:19Z</time>
      </trkpt>
      <trkpt lat="44.92504" lon="0.6828">
        <ele>124.4</ele>
        <time>2023-04-10T06:43:20Z</time>
      </trkpt>
      <trkpt lat="44.92501" lon="0.68283">
        <ele>124</ele>
        <time>2023-04-10T06:43:21Z</time>
      </trkpt>
      <trkpt lat="44.92498" lon="0.68287">
        <ele>123.5</ele>
        <time>2023-04-10T06:43:22Z</time>
      </trkpt>
      <trkpt lat="44.92491" lon="0.68292">
        <ele>122.6</ele>
        <time>2023-04-10T06:43:24Z</time>
      </trkpt>
      <trkpt lat="44.92483" lon="0.68298">
        <ele>121.5</ele>
        <time>2023-04-10T06:43:26Z</time>
      </trkpt>
      <trkpt lat="44.92479" lon="0.683">
        <ele>120.9</ele>
        <time>2023-04-10T06:43:27Z</time>
      </trkpt>
      <trkpt lat="44.92473" lon="0.68302">
        <ele>120.2</ele>
        <time>2023-04-10T06:43:28Z</time>
      </trkpt>
      <trkpt lat="44.92468" lon="0.68305">
        <ele>119.4</ele>
        <time>2023-04-10T06:43:29Z</time>
      </trkpt>
      <trkpt lat="44.92462" lon="0.68307">
        <ele>118.7</ele>
        <time>2023-04-10T06:43:30Z</time>
      </trkpt>
      <trkpt lat="44.92458" lon="0.68309">
        <ele>118.1</ele>
        <time>2023-04-10T06:43:31Z</time>
      </trkpt>
      <trkpt lat="44.92454" lon="0.68312">
        <ele>117.5</ele>
        <time>2023-04-10T06:43:32Z</time>
      </trkpt>
      <trkpt lat="44.92451" lon="0.68315">
        <ele>117.3</ele>
        <time>2023-04-10T06:43:33Z</time>
      </trkpt>
      <trkpt lat="44.92449" lon="0.6832">
        <ele>117.3</ele>
        <time>2023-04-10T06:43:34Z</time>
      </trkpt>
      <trkpt lat="44.92445" lon="0.68333">
        <ele>117.1</ele>
        <time>2023-04-10T06:43:36Z</time>
      </trkpt>
      <trkpt lat="44.92443" lon="0.6834">
        <ele>117</ele>
        <time>2023-04-10T06:43:37Z</time>
      </trkpt>
      <trkpt lat="44.9244" lon="0.68346">
        <ele>116.9</ele>
        <time>2023-04-10T06:43:38Z</time>
      </trkpt>
      <trkpt lat="44.92432" lon="0.68356">
        <ele>116.6</ele>
        <time>2023-04-10T06:43:40Z</time>
      </trkpt>
      <trkpt lat="44.92422" lon="0.6836">
        <ele>116.3</ele>
        <time>2023-04-10T06:43:42Z</time>
      </trkpt>
      <trkpt lat="44.92413" lon="0.68363">
        <ele>116.1</ele>
        <time>2023-04-10T06:43:44Z</time>
      </trkpt>
      <trkpt lat="44.92408" lon="0.68365">
        <ele>116</ele>
        <time>2023-04-10T06:43:45Z</time>
      </trkpt>
      <trkpt lat="44.92403" lon="0.68367">
        <ele>115.9</ele>
        <time>2023-04-10T06:43:46Z</time>
      </trkpt>
      <trkpt lat="44.92393" lon="0.68372">
        <ele>115.2</ele>
        <time>2023-04-10T06:43:48Z</time>
      </trkpt>
      <trkpt lat="44.92382" lon="0.68379">
        <ele>113.9</ele>
        <time>2023-04-10T06:43:50Z</time>
      </trkpt>
      <trkpt lat="44.9237" lon="0.68387">
        <ele>112.3</ele>
        <time>2023-04-10T06:43:52Z</time>
      </trkpt>
      <trkpt lat="44.92359" lon="0.68396">
        <ele>110.6</ele>
        <time>2023-04-10T06:43:54Z</time>
      </trkpt>
      <trkpt lat="44.92354" lon="0.684">
        <ele>109.9</ele>
        <time>2023-04-10T06:43:55Z</time>
      </trkpt>
      <trkpt lat="44.92348" lon="0.68405">
        <ele>109.1</ele>
        <time>2023-04-10T06:43:56Z</time>
      </trkpt>
      <trkpt lat="44.92344" lon="0.68411">
        <ele>108.4</ele>
        <time>2023-04-10T06:43:57Z</time>
      </trkpt>
      <trkpt lat="44.92339" lon="0.68417">
        <ele>107.5</ele>
        <time>2023-04-10T06:43:58Z</time>
      </trkpt>
      <trkpt lat="44.92336" lon="0.68423">
        <ele>106.6</ele>
        <time>2023-04-10T06:43:59Z</time>
      </trkpt>
      <trkpt lat="44.92333" lon="0.68431">
        <ele>105.9</ele>
        <time>2023-04-10T06:44:00Z</time>
      </trkpt>
      <trkpt lat="44.92333" lon="0.68439">
        <ele>105.3</ele>
        <time>2023-04-10T06:44:01Z</time>
      </trkpt>
      <trkpt lat="44.92334" lon="0.68447">
        <ele>104.7</ele>
        <time>2023-04-10T06:44:02Z</time>
      </trkpt>
      <trkpt lat="44.92337" lon="0.68455">
        <ele>104.6</ele>
        <time>2023-04-10T06:44:03Z</time>
      </trkpt>
      <trkpt lat="44.92341" lon="0.68462">
        <ele>104.6</ele>
        <time>2023-04-10T06:44:04Z</time>
      </trkpt>
      <trkpt lat="44.92346" lon="0.68477">
        <ele>104.5</ele>
        <time>2023-04-10T06:44:06Z</time>
      </trkpt>
      <trkpt lat="44.92342" lon="0.68493">
        <ele>104.1</ele>
        <time>2023-04-10T06:44:08Z</time>
      </trkpt>
      <trkpt lat="44.92335" lon="0.68506">
        <ele>103.3</ele>
        <time>2023-04-10T06:44:10Z</time>
      </trkpt>
      <trkpt lat="44.92333" lon="0.68521">
        <ele>102.6</ele>
        <time>2023-04-10T06:44:12Z</time>
      </trkpt>
      <trkpt lat="44.92335" lon="0.68535">
        <ele>101.9</ele>
        <time>2023-04-10T06:44:14Z</time>
      </trkpt>
      <trkpt lat="44.92336" lon="0.68548">
        <ele>101.3</ele>
        <time>2023-04-10T06:44:16Z</time>
      </trkpt>
      <trkpt lat="44.92334" lon="0.68562">
        <ele>100.7</ele>
        <time>2023-04-10T06:44:18Z</time>
      </trkpt>
      <trkpt lat="44.9233" lon="0.68568">
        <ele>100.4</ele>
        <time>2023-04-10T06:44:19Z</time>
      </trkpt>
      <trkpt lat="44.92324" lon="0.68573">
        <ele>100.1</ele>
        <time>2023-04-10T06:44:20Z</time>
      </trkpt>
      <trkpt lat="44.92313" lon="0.68581">
        <ele>99.7</ele>
        <time>2023-04-10T06:44:22Z</time>
      </trkpt>
      <trkpt lat="44.92303" lon="0.68589">
        <ele>99.4</ele>
        <time>2023-04-10T06:44:24Z</time>
      </trkpt>
      <trkpt lat="44.92292" lon="0.68598">
        <ele>99.2</ele>
        <time>2023-04-10T06:44:26Z</time>
      </trkpt>
      <trkpt lat="44.9228" lon="0.68607">
        <ele>99</ele>
        <time>2023-04-10T06:44:28Z</time>
      </trkpt>
      <trkpt lat="44.92269" lon="0.68615">
        <ele>98.9</ele>
        <time>2023-04-10T06:44:30Z</time>
      </trkpt>
      <trkpt lat="44.92259" lon="0.68621">
        <ele>98.8</ele>
        <time>2023-04-10T06:44:32Z</time>
      </trkpt>
      <trkpt lat="44.92249" lon="0.68629">
        <ele>98.9</ele>
        <time>2023-04-10T06:44:34Z</time>
      </trkpt>
      <trkpt lat="44.92244" lon="0.68634">
        <ele>99</ele>
        <time>2023-04-10T06:44:35Z</time>
      </trkpt>
      <trkpt lat="44.92239" lon="0.68639">
        <ele>99.1</ele>
        <time>2023-04-10T06:44:36Z</time>
      </trkpt>
      <trkpt lat="44.92229" lon="0.68648">
        <ele>99.5</ele>
        <time>2023-04-10T06:44:38Z</time>
      </trkpt>
      <trkpt lat="44.92219" lon="0.68656">
        <ele>99.8</ele>
        <time>2023-04-10T06:44:40Z</time>
      </trkpt>
      <trkpt lat="44.92208" lon="0.68662">
        <ele>100.2</ele>
        <time>2023-04-10T06:44:42Z</time>
      </trkpt>
      <trkpt lat="44.92198" lon="0.68669">
        <ele>100.5</ele>
        <time>2023-04-10T06:44:44Z</time>
      </trkpt>
      <trkpt lat="44.92193" lon="0.68673">
        <ele>100.6</ele>
        <time>2023-04-10T06:44:45Z</time>
      </trkpt>
      <trkpt lat="44.92188" lon="0.68676">
        <ele>100.8</ele>
        <time>2023-04-10T06:44:46Z</time>
      </trkpt>
      <trkpt lat="44.92178" lon="0.68684">
        <ele>101.1</ele>
        <time>2023-04-10T06:44:48Z</time>
      </trkpt>
      <trkpt lat="44.92168" lon="0.6869">
        <ele>101.5</ele>
        <time>2023-04-10T06:44:50Z</time>
      </trkpt>
      <trkpt lat="44.92163" lon="0.68693">
        <ele>101.7</ele>
        <time>2023-04-10T06:44:51Z</time>
      </trkpt>
      <trkpt lat="44.92158" lon="0.68695">
        <ele>101.9</ele>
        <time>2023-04-10T06:44:52Z</time>
      </trkpt>
      <trkpt lat="44.92153" lon="0.68698">
        <ele>102.1</ele>
        <time>2023-04-10T06:44:53Z</time>
      </trkpt>
      <trkpt lat="44.92148" lon="0.68701">
        <ele>102.3</ele>
        <time>2023-04-10T06:44:54Z</time>
      </trkpt>
      <trkpt lat="44.92137" lon="0.68706">
        <ele>102.7</ele>
        <time>2023-04-10T06:44:56Z</time>
      </trkpt>
      <trkpt lat="44.92127" lon="0.68711">
        <ele>103.4</ele>
        <time>2023-04-10T06:44:58Z</time>
      </trkpt>
      <trkpt lat="44.92119" lon="0.68715">
        <ele>104</ele>
        <time>2023-04-10T06:45:00Z</time>
      </trkpt>
      <trkpt lat="44.92112" lon="0.6872">
        <ele>104.8</ele>
        <time>2023-04-10T06:45:02Z</time>
      </trkpt>
      <trkpt lat="44.92108" lon="0.68721">
        <ele>105.3</ele>
        <time>2023-04-10T06:45:04Z</time>
      </trkpt>
      <trkpt lat="44.92105" lon="0.68725">
        <ele>105.8</ele>
        <time>2023-04-10T06:45:06Z</time>
      </trkpt>
      <trkpt lat="44.92103" lon="0.68731">
        <ele>106.3</ele>
        <time>2023-04-10T06:45:08Z</time>
      </trkpt>
      <trkpt lat="44.92104" lon="0.68738">
        <ele>106.3</ele>
        <time>2023-04-10T06:45:10Z</time>
      </trkpt>
      <trkpt lat="44.92105" lon="0.68744">
        <ele>106.2</ele>
        <time>2023-04-10T06:45:12Z</time>
      </trkpt>
      <trkpt lat="44.92105" lon="0.68747">
        <ele>106.2</ele>
        <time>2023-04-10T06:45:13Z</time>
      </trkpt>
      <trkpt lat="44.92106" lon="0.68749">
        <ele>106.2</ele>
        <time>2023-04-10T06:45:14Z</time>
      </trkpt>
      <trkpt lat="44.92107" lon="0.68755">
        <ele>106.1</ele>
        <time>2023-04-10T06:45:16Z</time>
      </trkpt>
      <trkpt lat="44.92107" lon="0.6876">
        <ele>106.1</ele>
        <time>2023-04-10T06:45:18Z</time>
      </trkpt>
      <trkpt lat="44.92108" lon="0.68763">
        <ele>106.1</ele>
        <time>2023-04-10T06:45:19Z</time>
      </trkpt>
      <trkpt lat="44.92108" lon="0.68766">
        <ele>106</ele>
        <time>2023-04-10T06:45:20Z</time>
      </trkpt>
      <trkpt lat="44.9211" lon="0.68771">
        <ele>106</ele>
        <time>2023-04-10T06:45:22Z</time>
      </trkpt>
      <trkpt lat="44.92111" lon="0.68776">
        <ele>105.9</ele>
        <time>2023-04-10T06:45:24Z</time>
      </trkpt>
      <trkpt lat="44.92111" lon="0.68779">
        <ele>105.9</ele>
        <time>2023-04-10T06:45:25Z</time>
      </trkpt>
      <trkpt lat="44.92111" lon="0.68781">
        <ele>105.8</ele>
        <time>2023-04-10T06:45:26Z</time>
      </trkpt>
      <trkpt lat="44.92111" lon="0.68785">
        <ele>106.9</ele>
        <time>2023-04-10T06:45:28Z</time>
      </trkpt>
      <trkpt lat="44.92109" lon="0.68787">
        <ele>106.8</ele>
        <time>2023-04-10T06:45:30Z</time>
      </trkpt>
      <trkpt lat="44.92108" lon="0.68788">
        <ele>106.8</ele>
        <time>2023-04-10T06:45:31Z</time>
      </trkpt>
      <trkpt lat="44.92107" lon="0.68787">
        <ele>106.7</ele>
        <time>2023-04-10T06:45:32Z</time>
      </trkpt>
      <trkpt lat="44.92106" lon="0.68787">
        <ele>109.2</ele>
        <time>2023-04-10T06:45:33Z</time>
      </trkpt>
      <trkpt lat="44.92104" lon="0.68788">
        <ele>109.2</ele>
        <time>2023-04-10T06:45:34Z</time>
      </trkpt>
      <trkpt lat="44.92103" lon="0.68789">
        <ele>109.1</ele>
        <time>2023-04-10T06:45:35Z</time>
      </trkpt>
      <trkpt lat="44.92103" lon="0.6879">
        <ele>109.1</ele>
        <time>2023-04-10T06:45:36Z</time>
      </trkpt>
      <trkpt lat="44.92102" lon="0.68794">
        <ele>109</ele>
        <time>2023-04-10T06:45:38Z</time>
      </trkpt>
      <trkpt lat="44.92102" lon="0.68797">
        <ele>109</ele>
        <time>2023-04-10T06:45:40Z</time>
      </trkpt>
      <trkpt lat="44.92102" lon="0.68801">
        <ele>108.9</ele>
        <time>2023-04-10T06:45:42Z</time>
      </trkpt>
      <trkpt lat="44.92102" lon="0.68805">
        <ele>109.5</ele>
        <time>2023-04-10T06:45:44Z</time>
      </trkpt>
      <trkpt lat="44.92101" lon="0.68809">
        <ele>110.1</ele>
        <time>2023-04-10T06:45:46Z</time>
      </trkpt>
      <trkpt lat="44.92101" lon="0.68813">
        <ele>110.7</ele>
        <time>2023-04-10T06:45:48Z</time>
      </trkpt>
      <trkpt lat="44.92101" lon="0.68817">
        <ele>111.3</ele>
        <time>2023-04-10T06:45:50Z</time>
      </trkpt>
      <trkpt lat="44.92101" lon="0.68822">
        <ele>112.1</ele>
        <time>2023-04-10T06:45:52Z</time>
      </trkpt>
      <trkpt lat="44.92101" lon="0.68825">
        <ele>112.5</ele>
        <time>2023-04-10T06:45:53Z</time>
      </trkpt>
      <trkpt lat="44.92101" lon="0.68828">
        <ele>112.9</ele>
        <time>2023-04-10T06:45:54Z</time>
      </trkpt>
      <trkpt lat="44.92101" lon="0.68833">
        <ele>113.6</ele>
        <time>2023-04-10T06:45:56Z</time>
      </trkpt>
      <trkpt lat="44.921" lon="0.68837">
        <ele>114.1</ele>
        <time>2023-04-10T06:45:58Z</time>
      </trkpt>
      <trkpt lat="44.921" lon="0.68839">
        <ele>114.4</ele>
        <time>2023-04-10T06:45:59Z</time>
      </trkpt>
      <trkpt lat="44.921" lon="0.68841">
        <ele>114.6</ele>
        <time>2023-04-10T06:46:00Z</time>
      </trkpt>
      <trkpt lat="44.92099" lon="0.68843">
        <ele>114.9</ele>
        <time>2023-04-10T06:46:01Z</time>
      </trkpt>
      <trkpt lat="44.92099" lon="0.68844">
        <ele>115.1</ele>
        <time>2023-04-10T06:46:02Z</time>
      </trkpt>
      <trkpt lat="44.92097" lon="0.68848">
        <ele>115.6</ele>
        <time>2023-04-10T06:46:04Z</time>
      </trkpt>
      <trkpt lat="44.92096" lon="0.6885">
        <ele>116</ele>
        <time>2023-04-10T06:46:05Z</time>
      </trkpt>
      <trkpt lat="44.92096" lon="0.68852">
        <ele>116.2</ele>
        <time>2023-04-10T06:46:06Z</time>
      </trkpt>
      <trkpt lat="44.92095" lon="0.68854">
        <ele>116.6</ele>
        <time>2023-04-10T06:46:08Z</time>
      </trkpt>
      <trkpt lat="44.92094" lon="0.68856">
        <ele>116.8</ele>
        <time>2023-04-10T06:46:09Z</time>
      </trkpt>
      <trkpt lat="44.92094" lon="0.68858">
        <ele>117.1</ele>
        <time>2023-04-10T06:46:10Z</time>
      </trkpt>
      <trkpt lat="44.92093" lon="0.6886">
        <ele>117.4</ele>
        <time>2023-04-10T06:46:11Z</time>
      </trkpt>
      <trkpt lat="44.92092" lon="0.68862">
        <ele>117.7</ele>
        <time>2023-04-10T06:46:12Z</time>
      </trkpt>
      <trkpt lat="44.92091" lon="0.68867">
        <ele>118.4</ele>
        <time>2023-04-10T06:46:14Z</time>
      </trkpt>
      <trkpt lat="44.92089" lon="0.6887">
        <ele>119</ele>
        <time>2023-04-10T06:46:16Z</time>
      </trkpt>
      <trkpt lat="44.92088" lon="0.68873">
        <ele>119.5</ele>
        <time>2023-04-10T06:46:18Z</time>
      </trkpt>
      <trkpt lat="44.92088" lon="0.68875">
        <ele>119.7</ele>
        <time>2023-04-10T06:46:19Z</time>
      </trkpt>
      <trkpt lat="44.92088" lon="0.68878">
        <ele>120.1</ele>
        <time>2023-04-10T06:46:20Z</time>
      </trkpt>
      <trkpt lat="44.92088" lon="0.68879">
        <ele>120.2</ele>
        <time>2023-04-10T06:46:21Z</time>
      </trkpt>
      <trkpt lat="44.92088" lon="0.6888">
        <ele>120.4</ele>
        <time>2023-04-10T06:46:22Z</time>
      </trkpt>
      <trkpt lat="44.92087" lon="0.68883">
        <ele>120.8</ele>
        <time>2023-04-10T06:46:24Z</time>
      </trkpt>
      <trkpt lat="44.92086" lon="0.68886">
        <ele>121.1</ele>
        <time>2023-04-10T06:46:25Z</time>
      </trkpt>
      <trkpt lat="44.92086" lon="0.68887">
        <ele>121.3</ele>
        <time>2023-04-10T06:46:26Z</time>
      </trkpt>
      <trkpt lat="44.92086" lon="0.6889">
        <ele>121.6</ele>
        <time>2023-04-10T06:46:27Z</time>
      </trkpt>
      <trkpt lat="44.92086" lon="0.68891">
        <ele>121.7</ele>
        <time>2023-04-10T06:46:28Z</time>
      </trkpt>
      <trkpt lat="44.92087" lon="0.68896">
        <ele>122.2</ele>
        <time>2023-04-10T06:46:30Z</time>
      </trkpt>
      <trkpt lat="44.92088" lon="0.689">
        <ele>122.7</ele>
        <time>2023-04-10T06:46:32Z</time>
      </trkpt>
      <trkpt lat="44.92088" lon="0.68904">
        <ele>123</ele>
        <time>2023-04-10T06:46:34Z</time>
      </trkpt>
      <trkpt lat="44.92089" lon="0.68907">
        <ele>123.3</ele>
        <time>2023-04-10T06:46:36Z</time>
      </trkpt>
      <trkpt lat="44.9209" lon="0.6891">
        <ele>123.6</ele>
        <time>2023-04-10T06:46:38Z</time>
      </trkpt>
      <trkpt lat="44.92092" lon="0.68913">
        <ele>124</ele>
        <time>2023-04-10T06:46:40Z</time>
      </trkpt>
      <trkpt lat="44.92094" lon="0.68917">
        <ele>124.4</ele>
        <time>2023-04-10T06:46:42Z</time>
      </trkpt>
      <trkpt lat="44.92096" lon="0.6892">
        <ele>124.8</ele>
        <time>2023-04-10T06:46:44Z</time>
      </trkpt>
      <trkpt lat="44.92097" lon="0.68923">
        <ele>125.2</ele>
        <time>2023-04-10T06:46:46Z</time>
      </trkpt>
      <trkpt lat="44.92098" lon="0.68927">
        <ele>125.5</ele>
        <time>2023-04-10T06:46:48Z</time>
      </trkpt>
      <trkpt lat="44.921" lon="0.6893">
        <ele>125.9</ele>
        <time>2023-04-10T06:46:50Z</time>
      </trkpt>
      <trkpt lat="44.92102" lon="0.68934">
        <ele>126.3</ele>
        <time>2023-04-10T06:46:52Z</time>
      </trkpt>
      <trkpt lat="44.92102" lon="0.68939">
        <ele>126.8</ele>
        <time>2023-04-10T06:46:54Z</time>
      </trkpt>
      <trkpt lat="44.92101" lon="0.68944">
        <ele>127.2</ele>
        <time>2023-04-10T06:46:56Z</time>
      </trkpt>
      <trkpt lat="44.92101" lon="0.68948">
        <ele>127.6</ele>
        <time>2023-04-10T06:46:58Z</time>
      </trkpt>
      <trkpt lat="44.92101" lon="0.6895">
        <ele>127.8</ele>
        <time>2023-04-10T06:46:59Z</time>
      </trkpt>
      <trkpt lat="44.92101" lon="0.68952">
        <ele>127.9</ele>
        <time>2023-04-10T06:47:00Z</time>
      </trkpt>
      <trkpt lat="44.92101" lon="0.68953">
        <ele>128.1</ele>
        <time>2023-04-10T06:47:01Z</time>
      </trkpt>
      <trkpt lat="44.92101" lon="0.68955">
        <ele>128.3</ele>
        <time>2023-04-10T06:47:02Z</time>
      </trkpt>
      <trkpt lat="44.92101" lon="0.68958">
        <ele>128.6</ele>
        <time>2023-04-10T06:47:04Z</time>
      </trkpt>
      <trkpt lat="44.921" lon="0.68963">
        <ele>129</ele>
        <time>2023-04-10T06:47:06Z</time>
      </trkpt>
      <trkpt lat="44.921" lon="0.68965">
        <ele>129.2</ele>
        <time>2023-04-10T06:47:07Z</time>
      </trkpt>
      <trkpt lat="44.92099" lon="0.68966">
        <ele>129.3</ele>
        <time>2023-04-10T06:47:08Z</time>
      </trkpt>
      <trkpt lat="44.92099" lon="0.6897">
        <ele>129.7</ele>
        <time>2023-04-10T06:47:10Z</time>
      </trkpt>
      <trkpt lat="44.92099" lon="0.68974">
        <ele>130.1</ele>
        <time>2023-04-10T06:47:12Z</time>
      </trkpt>
      <trkpt lat="44.92097" lon="0.68977">
        <ele>130.5</ele>
        <time>2023-04-10T06:47:14Z</time>
      </trkpt>
      <trkpt lat="44.92096" lon="0.68981">
        <ele>130.9</ele>
        <time>2023-04-10T06:47:16Z</time>
      </trkpt>
      <trkpt lat="44.92095" lon="0.68985">
        <ele>131.2</ele>
        <time>2023-04-10T06:47:18Z</time>
      </trkpt>
      <trkpt lat="44.92095" lon="0.68988">
        <ele>131.6</ele>
        <time>2023-04-10T06:47:20Z</time>
      </trkpt>
      <trkpt lat="44.92094" lon="0.68991">
        <ele>131.9</ele>
        <time>2023-04-10T06:47:22Z</time>
      </trkpt>
      <trkpt lat="44.92094" lon="0.68995">
        <ele>132.3</ele>
        <time>2023-04-10T06:47:24Z</time>
      </trkpt>
      <trkpt lat="44.92093" lon="0.68999">
        <ele>132.7</ele>
        <time>2023-04-10T06:47:26Z</time>
      </trkpt>
      <trkpt lat="44.92092" lon="0.69003">
        <ele>133.1</ele>
        <time>2023-04-10T06:47:28Z</time>
      </trkpt>
      <trkpt lat="44.92092" lon="0.69005">
        <ele>133.3</ele>
        <time>2023-04-10T06:47:29Z</time>
      </trkpt>
      <trkpt lat="44.92091" lon="0.69007">
        <ele>133.5</ele>
        <time>2023-04-10T06:47:30Z</time>
      </trkpt>
      <trkpt lat="44.92091" lon="0.69011">
        <ele>133.9</ele>
        <time>2023-04-10T06:47:32Z</time>
      </trkpt>
      <trkpt lat="44.92091" lon="0.69015">
        <ele>134.3</ele>
        <time>2023-04-10T06:47:34Z</time>
      </trkpt>
      <trkpt lat="44.92091" lon="0.69017">
        <ele>134.5</ele>
        <time>2023-04-10T06:47:35Z</time>
      </trkpt>
      <trkpt lat="44.9209" lon="0.69019">
        <ele>134.7</ele>
        <time>2023-04-10T06:47:36Z</time>
      </trkpt>
      <trkpt lat="44.9209" lon="0.69021">
        <ele>134.9</ele>
        <time>2023-04-10T06:47:37Z</time>
      </trkpt>
      <trkpt lat="44.9209" lon="0.69023">
        <ele>135.1</ele>
        <time>2023-04-10T06:47:38Z</time>
      </trkpt>
      <trkpt lat="44.92089" lon="0.69027">
        <ele>135.4</ele>
        <time>2023-04-10T06:47:40Z</time>
      </trkpt>
      <trkpt lat="44.92089" lon="0.69028">
        <ele>135.6</ele>
        <time>2023-04-10T06:47:41Z</time>
      </trkpt>
      <trkpt lat="44.92088" lon="0.69031">
        <ele>135.8</ele>
        <time>2023-04-10T06:47:42Z</time>
      </trkpt>
      <trkpt lat="44.92088" lon="0.69035">
        <ele>136.2</ele>
        <time>2023-04-10T06:47:44Z</time>
      </trkpt>
      <trkpt lat="44.92087" lon="0.69037">
        <ele>136.3</ele>
        <time>2023-04-10T06:47:45Z</time>
      </trkpt>
      <trkpt lat="44.92087" lon="0.69039">
        <ele>136.5</ele>
        <time>2023-04-10T06:47:46Z</time>
      </trkpt>
      <trkpt lat="44.92086" lon="0.69043">
        <ele>136.8</ele>
        <time>2023-04-10T06:47:48Z</time>
      </trkpt>
      <trkpt lat="44.92084" lon="0.69048">
        <ele>137.2</ele>
        <time>2023-04-10T06:47:50Z</time>
      </trkpt>
      <trkpt lat="44.92083" lon="0.69052">
        <ele>137.6</ele>
        <time>2023-04-10T06:47:52Z</time>
      </trkpt>
      <trkpt lat="44.92082" lon="0.69056">
        <ele>137.9</ele>
        <time>2023-04-10T06:47:54Z</time>
      </trkpt>
      <trkpt lat="44.92081" lon="0.6906">
        <ele>138.1</ele>
        <time>2023-04-10T06:47:56Z</time>
      </trkpt>
      <trkpt lat="44.92081" lon="0.69061">
        <ele>138.2</ele>
        <time>2023-04-10T06:47:57Z</time>
      </trkpt>
      <trkpt lat="44.9208" lon="0.69064">
        <ele>138.4</ele>
        <time>2023-04-10T06:47:58Z</time>
      </trkpt>
      <trkpt lat="44.92079" lon="0.69068">
        <ele>138.7</ele>
        <time>2023-04-10T06:48:00Z</time>
      </trkpt>
      <trkpt lat="44.92078" lon="0.69074">
        <ele>139</ele>
        <time>2023-04-10T06:48:02Z</time>
      </trkpt>
      <trkpt lat="44.92077" lon="0.69079">
        <ele>139.3</ele>
        <time>2023-04-10T06:48:04Z</time>
      </trkpt>
      <trkpt lat="44.92077" lon="0.69081">
        <ele>139.5</ele>
        <time>2023-04-10T06:48:05Z</time>
      </trkpt>
      <trkpt lat="44.92076" lon="0.69085">
        <ele>139.6</ele>
        <time>2023-04-10T06:48:06Z</time>
      </trkpt>
      <trkpt lat="44.92077" lon="0.69091">
        <ele>139.9</ele>
        <time>2023-04-10T06:48:08Z</time>
      </trkpt>
      <trkpt lat="44.92076" lon="0.69094">
        <ele>140</ele>
        <time>2023-04-10T06:48:09Z</time>
      </trkpt>
      <trkpt lat="44.92075" lon="0.69099">
        <ele>140.1</ele>
        <time>2023-04-10T06:48:10Z</time>
      </trkpt>
      <trkpt lat="44.92074" lon="0.69105">
        <ele>140.2</ele>
        <time>2023-04-10T06:48:12Z</time>
      </trkpt>
      <trkpt lat="44.92073" lon="0.69112">
        <ele>140.2</ele>
        <time>2023-04-10T06:48:14Z</time>
      </trkpt>
      <trkpt lat="44.9207" lon="0.69121">
        <ele>140.2</ele>
        <time>2023-04-10T06:48:16Z</time>
      </trkpt>
      <trkpt lat="44.92069" lon="0.69131">
        <ele>143.3</ele>
        <time>2023-04-10T06:48:18Z</time>
      </trkpt>
      <trkpt lat="44.92068" lon="0.69135">
        <ele>143.2</ele>
        <time>2023-04-10T06:48:19Z</time>
      </trkpt>
      <trkpt lat="44.92067" lon="0.69139">
        <ele>143.2</ele>
        <time>2023-04-10T06:48:20Z</time>
      </trkpt>
      <trkpt lat="44.92067" lon="0.69142">
        <ele>143.1</ele>
        <time>2023-04-10T06:48:21Z</time>
      </trkpt>
      <trkpt lat="44.92067" lon="0.69146">
        <ele>143.3</ele>
        <time>2023-04-10T06:48:22Z</time>
      </trkpt>
      <trkpt lat="44.92067" lon="0.69151">
        <ele>143.2</ele>
        <time>2023-04-10T06:48:23Z</time>
      </trkpt>
      <trkpt lat="44.92066" lon="0.69154">
        <ele>143.1</ele>
        <time>2023-04-10T06:48:24Z</time>
      </trkpt>
      <trkpt lat="44.92063" lon="0.6916">
        <ele>143.1</ele>
        <time>2023-04-10T06:48:26Z</time>
      </trkpt>
      <trkpt lat="44.92062" lon="0.69167">
        <ele>143</ele>
        <time>2023-04-10T06:48:28Z</time>
      </trkpt>
      <trkpt lat="44.92061" lon="0.69172">
        <ele>142.9</ele>
        <time>2023-04-10T06:48:30Z</time>
      </trkpt>
      <trkpt lat="44.92061" lon="0.69175">
        <ele>142.9</ele>
        <time>2023-04-10T06:48:31Z</time>
      </trkpt>
      <trkpt lat="44.9206" lon="0.69178">
        <ele>142.8</ele>
        <time>2023-04-10T06:48:32Z</time>
      </trkpt>
      <trkpt lat="44.92059" lon="0.69184">
        <ele>142.6</ele>
        <time>2023-04-10T06:48:34Z</time>
      </trkpt>
      <trkpt lat="44.92058" lon="0.69187">
        <ele>142.5</ele>
        <time>2023-04-10T06:48:35Z</time>
      </trkpt>
      <trkpt lat="44.92057" lon="0.69189">
        <ele>142.5</ele>
        <time>2023-04-10T06:48:36Z</time>
      </trkpt>
      <trkpt lat="44.92056" lon="0.69193">
        <ele>146.1</ele>
        <time>2023-04-10T06:48:37Z</time>
      </trkpt>
      <trkpt lat="44.92055" lon="0.69194">
        <ele>146.1</ele>
        <time>2023-04-10T06:48:38Z</time>
      </trkpt>
      <trkpt lat="44.92054" lon="0.69199">
        <ele>145.6</ele>
        <time>2023-04-10T06:48:40Z</time>
      </trkpt>
      <trkpt lat="44.92052" lon="0.69204">
        <ele>145.6</ele>
        <time>2023-04-10T06:48:42Z</time>
      </trkpt>
      <trkpt lat="44.92051" lon="0.69208">
        <ele>145.5</ele>
        <time>2023-04-10T06:48:44Z</time>
      </trkpt>
      <trkpt lat="44.92049" lon="0.69213">
        <ele>145.4</ele>
        <time>2023-04-10T06:48:46Z</time>
      </trkpt>
      <trkpt lat="44.92049" lon="0.69217">
        <ele>144.6</ele>
        <time>2023-04-10T06:48:48Z</time>
      </trkpt>
      <trkpt lat="44.92048" lon="0.69222">
        <ele>144.5</ele>
        <time>2023-04-10T06:48:50Z</time>
      </trkpt>
      <trkpt lat="44.92046" lon="0.69228">
        <ele>144.5</ele>
        <time>2023-04-10T06:48:52Z</time>
      </trkpt>
      <trkpt lat="44.92045" lon="0.6923">
        <ele>144.4</ele>
        <time>2023-04-10T06:48:53Z</time>
      </trkpt>
      <trkpt lat="44.92045" lon="0.69233">
        <ele>143.1</ele>
        <time>2023-04-10T06:48:54Z</time>
      </trkpt>
      <trkpt lat="44.92044" lon="0.69235">
        <ele>146.5</ele>
        <time>2023-04-10T06:48:55Z</time>
      </trkpt>
      <trkpt lat="44.92043" lon="0.69237">
        <ele>146.4</ele>
        <time>2023-04-10T06:48:56Z</time>
      </trkpt>
      <trkpt lat="44.92042" lon="0.69242">
        <ele>146.4</ele>
        <time>2023-04-10T06:48:58Z</time>
      </trkpt>
      <trkpt lat="44.92041" lon="0.69246">
        <ele>146.3</ele>
        <time>2023-04-10T06:49:00Z</time>
      </trkpt>
      <trkpt lat="44.9204" lon="0.69251">
        <ele>144.4</ele>
        <time>2023-04-10T06:49:02Z</time>
      </trkpt>
      <trkpt lat="44.92038" lon="0.69256">
        <ele>144.3</ele>
        <time>2023-04-10T06:49:04Z</time>
      </trkpt>
      <trkpt lat="44.92038" lon="0.69259">
        <ele>144.3</ele>
        <time>2023-04-10T06:49:05Z</time>
      </trkpt>
      <trkpt lat="44.92037" lon="0.69262">
        <ele>144.2</ele>
        <time>2023-04-10T06:49:06Z</time>
      </trkpt>
      <trkpt lat="44.92036" lon="0.69268">
        <ele>142.1</ele>
        <time>2023-04-10T06:49:08Z</time>
      </trkpt>
      <trkpt lat="44.92035" lon="0.69274">
        <ele>142.1</ele>
        <time>2023-04-10T06:49:10Z</time>
      </trkpt>
      <trkpt lat="44.92034" lon="0.6928">
        <ele>142</ele>
        <time>2023-04-10T06:49:12Z</time>
      </trkpt>
      <trkpt lat="44.92034" lon="0.69284">
        <ele>140</ele>
        <time>2023-04-10T06:49:13Z</time>
      </trkpt>
      <trkpt lat="44.92033" lon="0.69288">
        <ele>139.9</ele>
        <time>2023-04-10T06:49:14Z</time>
      </trkpt>
      <trkpt lat="44.9203" lon="0.69294">
        <ele>143.6</ele>
        <time>2023-04-10T06:49:16Z</time>
      </trkpt>
      <trkpt lat="44.92026" lon="0.69301">
        <ele>141.8</ele>
        <time>2023-04-10T06:49:18Z</time>
      </trkpt>
      <trkpt lat="44.92022" lon="0.69307">
        <ele>141.7</ele>
        <time>2023-04-10T06:49:20Z</time>
      </trkpt>
      <trkpt lat="44.92017" lon="0.69312">
        <ele>144.8</ele>
        <time>2023-04-10T06:49:22Z</time>
      </trkpt>
      <trkpt lat="44.92013" lon="0.69317">
        <ele>144.7</ele>
        <time>2023-04-10T06:49:24Z</time>
      </trkpt>
      <trkpt lat="44.92009" lon="0.6932">
        <ele>142.8</ele>
        <time>2023-04-10T06:49:26Z</time>
      </trkpt>
      <trkpt lat="44.92004" lon="0.69323">
        <ele>145.3</ele>
        <time>2023-04-10T06:49:28Z</time>
      </trkpt>
      <trkpt lat="44.92" lon="0.69327">
        <ele>145.2</ele>
        <time>2023-04-10T06:49:30Z</time>
      </trkpt>
      <trkpt lat="44.91995" lon="0.69331">
        <ele>147.9</ele>
        <time>2023-04-10T06:49:32Z</time>
      </trkpt>
      <trkpt lat="44.9199" lon="0.69334">
        <ele>147.8</ele>
        <time>2023-04-10T06:49:34Z</time>
      </trkpt>
      <trkpt lat="44.91989" lon="0.69334">
        <ele>145.7</ele>
        <time>2023-04-10T06:49:35Z</time>
      </trkpt>
      <trkpt lat="44.91986" lon="0.69337">
        <ele>145.6</ele>
        <time>2023-04-10T06:49:36Z</time>
      </trkpt>
      <trkpt lat="44.91982" lon="0.69339">
        <ele>147.9</ele>
        <time>2023-04-10T06:49:38Z</time>
      </trkpt>
      <trkpt lat="44.91978" lon="0.69341">
        <ele>147.8</ele>
        <time>2023-04-10T06:49:40Z</time>
      </trkpt>
      <trkpt lat="44.91974" lon="0.69344">
        <ele>147.8</ele>
        <time>2023-04-10T06:49:42Z</time>
      </trkpt>
      <trkpt lat="44.91971" lon="0.69345">
        <ele>150.6</ele>
        <time>2023-04-10T06:49:44Z</time>
      </trkpt>
      <trkpt lat="44.91966" lon="0.69348">
        <ele>150.5</ele>
        <time>2023-04-10T06:49:46Z</time>
      </trkpt>
      <trkpt lat="44.91964" lon="0.69351">
        <ele>150.5</ele>
        <time>2023-04-10T06:49:47Z</time>
      </trkpt>
      <trkpt lat="44.91962" lon="0.69352">
        <ele>148.9</ele>
        <time>2023-04-10T06:49:48Z</time>
      </trkpt>
      <trkpt lat="44.91959" lon="0.69353">
        <ele>151.3</ele>
        <time>2023-04-10T06:49:50Z</time>
      </trkpt>
      <trkpt lat="44.91957" lon="0.69356">
        <ele>151.2</ele>
        <time>2023-04-10T06:49:52Z</time>
      </trkpt>
      <trkpt lat="44.91954" lon="0.69358">
        <ele>151.2</ele>
        <time>2023-04-10T06:49:54Z</time>
      </trkpt>
      <trkpt lat="44.91951" lon="0.69362">
        <ele>151.1</ele>
        <time>2023-04-10T06:49:56Z</time>
      </trkpt>
      <trkpt lat="44.91949" lon="0.69364">
        <ele>151</ele>
        <time>2023-04-10T06:49:57Z</time>
      </trkpt>
      <trkpt lat="44.91948" lon="0.69364">
        <ele>151</ele>
        <time>2023-04-10T06:49:58Z</time>
      </trkpt>
      <trkpt lat="44.91944" lon="0.6937">
        <ele>152.1</ele>
        <time>2023-04-10T06:50:00Z</time>
      </trkpt>
      <trkpt lat="44.91943" lon="0.69371">
        <ele>152</ele>
        <time>2023-04-10T06:50:01Z</time>
      </trkpt>
      <trkpt lat="44.91941" lon="0.69372">
        <ele>151.9</ele>
        <time>2023-04-10T06:50:02Z</time>
      </trkpt>
      <trkpt lat="44.91937" lon="0.69375">
        <ele>151.9</ele>
        <time>2023-04-10T06:50:04Z</time>
      </trkpt>
      <trkpt lat="44.91934" lon="0.69379">
        <ele>154.2</ele>
        <time>2023-04-10T06:50:06Z</time>
      </trkpt>
      <trkpt lat="44.91932" lon="0.69382">
        <ele>154.1</ele>
        <time>2023-04-10T06:50:08Z</time>
      </trkpt>
      <trkpt lat="44.91929" lon="0.69386">
        <ele>152.8</ele>
        <time>2023-04-10T06:50:10Z</time>
      </trkpt>
      <trkpt lat="44.91926" lon="0.6939">
        <ele>152.8</ele>
        <time>2023-04-10T06:50:12Z</time>
      </trkpt>
      <trkpt lat="44.91924" lon="0.69392">
        <ele>152.7</ele>
        <time>2023-04-10T06:50:14Z</time>
      </trkpt>
      <trkpt lat="44.91922" lon="0.69394">
        <ele>155.2</ele>
        <time>2023-04-10T06:50:16Z</time>
      </trkpt>
      <trkpt lat="44.91876" lon="0.69446">
        <ele>160</ele>
        <time>2023-04-10T06:53:19Z</time>
      </trkpt>
      <trkpt lat="44.91876" lon="0.69443">
        <ele>159.9</ele>
        <time>2023-04-10T06:53:20Z</time>
      </trkpt>
      <trkpt lat="44.91875" lon="0.69441">
        <ele>161.4</ele>
        <time>2023-04-10T06:53:21Z</time>
      </trkpt>
      <trkpt lat="44.91873" lon="0.6944">
        <ele>161.4</ele>
        <time>2023-04-10T06:53:22Z</time>
      </trkpt>
      <trkpt lat="44.91869" lon="0.6944">
        <ele>161.3</ele>
        <time>2023-04-10T06:53:24Z</time>
      </trkpt>
      <trkpt lat="44.91867" lon="0.6944">
        <ele>161.2</ele>
        <time>2023-04-10T06:53:25Z</time>
      </trkpt>
      <trkpt lat="44.91865" lon="0.6944">
        <ele>161.2</ele>
        <time>2023-04-10T06:53:26Z</time>
      </trkpt>
      <trkpt lat="44.91862" lon="0.6944">
        <ele>163</ele>
        <time>2023-04-10T06:53:28Z</time>
      </trkpt>
      <trkpt lat="44.91858" lon="0.6944">
        <ele>163</ele>
        <time>2023-04-10T06:53:30Z</time>
      </trkpt>
      <trkpt lat="44.91855" lon="0.6944">
        <ele>162.9</ele>
        <time>2023-04-10T06:53:32Z</time>
      </trkpt>
      <trkpt lat="44.9185" lon="0.69439">
        <ele>162.8</ele>
        <time>2023-04-10T06:53:34Z</time>
      </trkpt>
      <trkpt lat="44.91847" lon="0.69439">
        <ele>164.5</ele>
        <time>2023-04-10T06:53:36Z</time>
      </trkpt>
      <trkpt lat="44.91843" lon="0.69439">
        <ele>164.5</ele>
        <time>2023-04-10T06:53:38Z</time>
      </trkpt>
      <trkpt lat="44.91838" lon="0.69438">
        <ele>166.1</ele>
        <time>2023-04-10T06:53:40Z</time>
      </trkpt>
      <trkpt lat="44.91833" lon="0.69438">
        <ele>166.1</ele>
        <time>2023-04-10T06:53:42Z</time>
      </trkpt>
      <trkpt lat="44.91829" lon="0.69437">
        <ele>166.1</ele>
        <time>2023-04-10T06:53:44Z</time>
      </trkpt>
      <trkpt lat="44.91825" lon="0.69434">
        <ele>167.3</ele>
        <time>2023-04-10T06:53:46Z</time>
      </trkpt>
      <trkpt lat="44.91823" lon="0.69432">
        <ele>167.3</ele>
        <time>2023-04-10T06:53:47Z</time>
      </trkpt>
      <trkpt lat="44.91822" lon="0.69431">
        <ele>167.2</ele>
        <time>2023-04-10T06:53:48Z</time>
      </trkpt>
      <trkpt lat="44.91817" lon="0.69431">
        <ele>167.2</ele>
        <time>2023-04-10T06:53:50Z</time>
      </trkpt>
      <trkpt lat="44.91814" lon="0.69432">
        <ele>167.8</ele>
        <time>2023-04-10T06:53:51Z</time>
      </trkpt>
      <trkpt lat="44.9181" lon="0.69433">
        <ele>167.8</ele>
        <time>2023-04-10T06:53:52Z</time>
      </trkpt>
      <trkpt lat="44.91805" lon="0.69433">
        <ele>167.7</ele>
        <time>2023-04-10T06:53:54Z</time>
      </trkpt>
      <trkpt lat="44.91799" lon="0.69435">
        <ele>167.8</ele>
        <time>2023-04-10T06:53:56Z</time>
      </trkpt>
      <trkpt lat="44.91792" lon="0.69434">
        <ele>167.7</ele>
        <time>2023-04-10T06:53:58Z</time>
      </trkpt>
      <trkpt lat="44.91787" lon="0.69434">
        <ele>167.4</ele>
        <time>2023-04-10T06:53:59Z</time>
      </trkpt>
      <trkpt lat="44.91783" lon="0.69435">
        <ele>167.3</ele>
        <time>2023-04-10T06:54:00Z</time>
      </trkpt>
      <trkpt lat="44.91777" lon="0.69436">
        <ele>166.6</ele>
        <time>2023-04-10T06:54:01Z</time>
      </trkpt>
      <trkpt lat="44.91771" lon="0.69437">
        <ele>166.3</ele>
        <time>2023-04-10T06:54:02Z</time>
      </trkpt>
      <trkpt lat="44.91759" lon="0.69439">
        <ele>165.6</ele>
        <time>2023-04-10T06:54:04Z</time>
      </trkpt>
      <trkpt lat="44.91752" lon="0.69438">
        <ele>164.8</ele>
        <time>2023-04-10T06:54:05Z</time>
      </trkpt>
      <trkpt lat="44.91744" lon="0.69437">
        <ele>164.7</ele>
        <time>2023-04-10T06:54:06Z</time>
      </trkpt>
      <trkpt lat="44.91729" lon="0.69438">
        <ele>164</ele>
        <time>2023-04-10T06:54:08Z</time>
      </trkpt>
      <trkpt lat="44.91722" lon="0.69436">
        <ele>163.3</ele>
        <time>2023-04-10T06:54:09Z</time>
      </trkpt>
      <trkpt lat="44.91715" lon="0.69432">
        <ele>162.3</ele>
        <time>2023-04-10T06:54:10Z</time>
      </trkpt>
      <trkpt lat="44.91707" lon="0.69428">
        <ele>162.3</ele>
        <time>2023-04-10T06:54:11Z</time>
      </trkpt>
      <trkpt lat="44.917" lon="0.69424">
        <ele>161.3</ele>
        <time>2023-04-10T06:54:12Z</time>
      </trkpt>
      <trkpt lat="44.91685" lon="0.69414">
        <ele>160.3</ele>
        <time>2023-04-10T06:54:14Z</time>
      </trkpt>
      <trkpt lat="44.91676" lon="0.6941">
        <ele>159.5</ele>
        <time>2023-04-10T06:54:15Z</time>
      </trkpt>
      <trkpt lat="44.91667" lon="0.69405">
        <ele>158.7</ele>
        <time>2023-04-10T06:54:16Z</time>
      </trkpt>
      <trkpt lat="44.91649" lon="0.69395">
        <ele>158.3</ele>
        <time>2023-04-10T06:54:18Z</time>
      </trkpt>
      <trkpt lat="44.9164" lon="0.6939">
        <ele>158.2</ele>
        <time>2023-04-10T06:54:19Z</time>
      </trkpt>
      <trkpt lat="44.9163" lon="0.69385">
        <ele>159.2</ele>
        <time>2023-04-10T06:54:20Z</time>
      </trkpt>
      <trkpt lat="44.91612" lon="0.69378">
        <ele>159.7</ele>
        <time>2023-04-10T06:54:22Z</time>
      </trkpt>
      <trkpt lat="44.91603" lon="0.69374">
        <ele>159.9</ele>
        <time>2023-04-10T06:54:23Z</time>
      </trkpt>
      <trkpt lat="44.91594" lon="0.69369">
        <ele>159.8</ele>
        <time>2023-04-10T06:54:24Z</time>
      </trkpt>
      <trkpt lat="44.91586" lon="0.69365">
        <ele>160.3</ele>
        <time>2023-04-10T06:54:25Z</time>
      </trkpt>
      <trkpt lat="44.91579" lon="0.69359">
        <ele>159.6</ele>
        <time>2023-04-10T06:54:26Z</time>
      </trkpt>
      <trkpt lat="44.91572" lon="0.69354">
        <ele>159.6</ele>
        <time>2023-04-10T06:54:27Z</time>
      </trkpt>
      <trkpt lat="44.91566" lon="0.6935">
        <ele>158.8</ele>
        <time>2023-04-10T06:54:28Z</time>
      </trkpt>
      <trkpt lat="44.91555" lon="0.69341">
        <ele>157.1</ele>
        <time>2023-04-10T06:54:30Z</time>
      </trkpt>
      <trkpt lat="44.91544" lon="0.69333">
        <ele>155.1</ele>
        <time>2023-04-10T06:54:32Z</time>
      </trkpt>
      <trkpt lat="44.91541" lon="0.6933">
        <ele>155</ele>
        <time>2023-04-10T06:54:33Z</time>
      </trkpt>
      <trkpt lat="44.91538" lon="0.69329">
        <ele>154.9</ele>
        <time>2023-04-10T06:54:34Z</time>
      </trkpt>
      <trkpt lat="44.91535" lon="0.69328">
        <ele>154.9</ele>
        <time>2023-04-10T06:54:35Z</time>
      </trkpt>
      <trkpt lat="44.9153" lon="0.69329">
        <ele>153.1</ele>
        <time>2023-04-10T06:54:36Z</time>
      </trkpt>
      <trkpt lat="44.91518" lon="0.69329">
        <ele>151.1</ele>
        <time>2023-04-10T06:54:38Z</time>
      </trkpt>
      <trkpt lat="44.9151" lon="0.69325">
        <ele>151.1</ele>
        <time>2023-04-10T06:54:39Z</time>
      </trkpt>
      <trkpt lat="44.91503" lon="0.6932">
        <ele>148.9</ele>
        <time>2023-04-10T06:54:40Z</time>
      </trkpt>
      <trkpt lat="44.91491" lon="0.69311">
        <ele>145.5</ele>
        <time>2023-04-10T06:54:42Z</time>
      </trkpt>
      <trkpt lat="44.91485" lon="0.69306">
        <ele>142.6</ele>
        <time>2023-04-10T06:54:43Z</time>
      </trkpt>
      <trkpt lat="44.9148" lon="0.69302">
        <ele>142.5</ele>
        <time>2023-04-10T06:54:44Z</time>
      </trkpt>
      <trkpt lat="44.91469" lon="0.69296">
        <ele>138.8</ele>
        <time>2023-04-10T06:54:46Z</time>
      </trkpt>
      <trkpt lat="44.91463" lon="0.69292">
        <ele>138.7</ele>
        <time>2023-04-10T06:54:47Z</time>
      </trkpt>
      <trkpt lat="44.91457" lon="0.6929">
        <ele>135.3</ele>
        <time>2023-04-10T06:54:48Z</time>
      </trkpt>
      <trkpt lat="44.91451" lon="0.6929">
        <ele>135.3</ele>
        <time>2023-04-10T06:54:49Z</time>
      </trkpt>
      <trkpt lat="44.91444" lon="0.69289">
        <ele>131.6</ele>
        <time>2023-04-10T06:54:50Z</time>
      </trkpt>
      <trkpt lat="44.91432" lon="0.69289">
        <ele>128</ele>
        <time>2023-04-10T06:54:52Z</time>
      </trkpt>
      <trkpt lat="44.91425" lon="0.69289">
        <ele>124.6</ele>
        <time>2023-04-10T06:54:53Z</time>
      </trkpt>
      <trkpt lat="44.91417" lon="0.6929">
        <ele>124.5</ele>
        <time>2023-04-10T06:54:54Z</time>
      </trkpt>
      <trkpt lat="44.91411" lon="0.6929">
        <ele>121.1</ele>
        <time>2023-04-10T06:54:55Z</time>
      </trkpt>
      <trkpt lat="44.91404" lon="0.69293">
        <ele>121</ele>
        <time>2023-04-10T06:54:56Z</time>
      </trkpt>
      <trkpt lat="44.91397" lon="0.69295">
        <ele>118.1</ele>
        <time>2023-04-10T06:54:57Z</time>
      </trkpt>
      <trkpt lat="44.9139" lon="0.69298">
        <ele>118</ele>
        <time>2023-04-10T06:54:58Z</time>
      </trkpt>
      <trkpt lat="44.91375" lon="0.69304">
        <ele>112.5</ele>
        <time>2023-04-10T06:55:00Z</time>
      </trkpt>
      <trkpt lat="44.91368" lon="0.69306">
        <ele>112.4</ele>
        <time>2023-04-10T06:55:01Z</time>
      </trkpt>
      <trkpt lat="44.9136" lon="0.69309">
        <ele>110.8</ele>
        <time>2023-04-10T06:55:02Z</time>
      </trkpt>
      <trkpt lat="44.91344" lon="0.69319">
        <ele>109.4</ele>
        <time>2023-04-10T06:55:04Z</time>
      </trkpt>
      <trkpt lat="44.91328" lon="0.69329">
        <ele>108.4</ele>
        <time>2023-04-10T06:55:06Z</time>
      </trkpt>
      <trkpt lat="44.91313" lon="0.69338">
        <ele>106.9</ele>
        <time>2023-04-10T06:55:08Z</time>
      </trkpt>
      <trkpt lat="44.91306" lon="0.6934">
        <ele>106.8</ele>
        <time>2023-04-10T06:55:09Z</time>
      </trkpt>
      <trkpt lat="44.91299" lon="0.69342">
        <ele>106.1</ele>
        <time>2023-04-10T06:55:10Z</time>
      </trkpt>
      <trkpt lat="44.91287" lon="0.69347">
        <ele>105.5</ele>
        <time>2023-04-10T06:55:12Z</time>
      </trkpt>
      <trkpt lat="44.91271" lon="0.69356">
        <ele>105.3</ele>
        <time>2023-04-10T06:55:14Z</time>
      </trkpt>
      <trkpt lat="44.91265" lon="0.69359">
        <ele>105.8</ele>
        <time>2023-04-10T06:55:15Z</time>
      </trkpt>
      <trkpt lat="44.91259" lon="0.69363">
        <ele>105.7</ele>
        <time>2023-04-10T06:55:16Z</time>
      </trkpt>
      <trkpt lat="44.91249" lon="0.69369">
        <ele>107</ele>
        <time>2023-04-10T06:55:18Z</time>
      </trkpt>
      <trkpt lat="44.91242" lon="0.69376">
        <ele>108.1</ele>
        <time>2023-04-10T06:55:20Z</time>
      </trkpt>
      <trkpt lat="44.91237" lon="0.69383">
        <ele>108</ele>
        <time>2023-04-10T06:55:22Z</time>
      </trkpt>
      <trkpt lat="44.91235" lon="0.69391">
        <ele>107.9</ele>
        <time>2023-04-10T06:55:24Z</time>
      </trkpt>
      <trkpt lat="44.91234" lon="0.69395">
        <ele>107.9</ele>
        <time>2023-04-10T06:55:25Z</time>
      </trkpt>
      <trkpt lat="44.91234" lon="0.694">
        <ele>107.8</ele>
        <time>2023-04-10T06:55:26Z</time>
      </trkpt>
      <trkpt lat="44.91234" lon="0.69412">
        <ele>107.6</ele>
        <time>2023-04-10T06:55:28Z</time>
      </trkpt>
      <trkpt lat="44.91236" lon="0.69422">
        <ele>107</ele>
        <time>2023-04-10T06:55:30Z</time>
      </trkpt>
      <trkpt lat="44.91237" lon="0.69428">
        <ele>106.8</ele>
        <time>2023-04-10T06:55:31Z</time>
      </trkpt>
      <trkpt lat="44.91239" lon="0.69433">
        <ele>106.7</ele>
        <time>2023-04-10T06:55:32Z</time>
      </trkpt>
      <trkpt lat="44.91242" lon="0.69444">
        <ele>106.6</ele>
        <time>2023-04-10T06:55:34Z</time>
      </trkpt>
      <trkpt lat="44.91244" lon="0.69453">
        <ele>106.7</ele>
        <time>2023-04-10T06:55:36Z</time>
      </trkpt>
      <trkpt lat="44.91245" lon="0.69459">
        <ele>106.8</ele>
        <time>2023-04-10T06:55:37Z</time>
      </trkpt>
      <trkpt lat="44.91246" lon="0.69464">
        <ele>106.9</ele>
        <time>2023-04-10T06:55:38Z</time>
      </trkpt>
      <trkpt lat="44.91247" lon="0.69474">
        <ele>107.2</ele>
        <time>2023-04-10T06:55:40Z</time>
      </trkpt>
      <trkpt lat="44.91248" lon="0.69484">
        <ele>107.7</ele>
        <time>2023-04-10T06:55:42Z</time>
      </trkpt>
      <trkpt lat="44.91249" lon="0.69494">
        <ele>108.2</ele>
        <time>2023-04-10T06:55:44Z</time>
      </trkpt>
      <trkpt lat="44.9125" lon="0.69504">
        <ele>108.5</ele>
        <time>2023-04-10T06:55:46Z</time>
      </trkpt>
      <trkpt lat="44.9125" lon="0.6951">
        <ele>108.6</ele>
        <time>2023-04-10T06:55:47Z</time>
      </trkpt>
      <trkpt lat="44.91252" lon="0.69515">
        <ele>108.7</ele>
        <time>2023-04-10T06:55:48Z</time>
      </trkpt>
      <trkpt lat="44.91254" lon="0.69527">
        <ele>108.7</ele>
        <time>2023-04-10T06:55:50Z</time>
      </trkpt>
      <trkpt lat="44.91257" lon="0.69538">
        <ele>108.8</ele>
        <time>2023-04-10T06:55:52Z</time>
      </trkpt>
      <trkpt lat="44.9126" lon="0.6955">
        <ele>108.8</ele>
        <time>2023-04-10T06:55:54Z</time>
      </trkpt>
      <trkpt lat="44.91262" lon="0.69562">
        <ele>108.9</ele>
        <time>2023-04-10T06:55:56Z</time>
      </trkpt>
      <trkpt lat="44.91263" lon="0.69568">
        <ele>109</ele>
        <time>2023-04-10T06:55:57Z</time>
      </trkpt>
      <trkpt lat="44.91263" lon="0.69575">
        <ele>109</ele>
        <time>2023-04-10T06:55:58Z</time>
      </trkpt>
      <trkpt lat="44.91263" lon="0.6958">
        <ele>109.1</ele>
        <time>2023-04-10T06:55:59Z</time>
      </trkpt>
      <trkpt lat="44.91263" lon="0.69586">
        <ele>109.1</ele>
        <time>2023-04-10T06:56:00Z</time>
      </trkpt>
      <trkpt lat="44.91263" lon="0.69599">
        <ele>109.2</ele>
        <time>2023-04-10T06:56:02Z</time>
      </trkpt>
      <trkpt lat="44.91263" lon="0.69611">
        <ele>109.4</ele>
        <time>2023-04-10T06:56:04Z</time>
      </trkpt>
      <trkpt lat="44.91262" lon="0.69617">
        <ele>109.4</ele>
        <time>2023-04-10T06:56:05Z</time>
      </trkpt>
      <trkpt lat="44.91261" lon="0.69623">
        <ele>109.5</ele>
        <time>2023-04-10T06:56:06Z</time>
      </trkpt>
      <trkpt lat="44.9126" lon="0.69635">
        <ele>109.7</ele>
        <time>2023-04-10T06:56:08Z</time>
      </trkpt>
      <trkpt lat="44.91261" lon="0.69647">
        <ele>109.8</ele>
        <time>2023-04-10T06:56:10Z</time>
      </trkpt>
      <trkpt lat="44.91262" lon="0.69659">
        <ele>109.9</ele>
        <time>2023-04-10T06:56:12Z</time>
      </trkpt>
      <trkpt lat="44.91263" lon="0.69672">
        <ele>110.1</ele>
        <time>2023-04-10T06:56:14Z</time>
      </trkpt>
      <trkpt lat="44.91262" lon="0.6968">
        <ele>110.2</ele>
        <time>2023-04-10T06:56:15Z</time>
      </trkpt>
      <trkpt lat="44.91263" lon="0.69687">
        <ele>110.3</ele>
        <time>2023-04-10T06:56:16Z</time>
      </trkpt>
      <trkpt lat="44.91265" lon="0.69698">
        <ele>110.5</ele>
        <time>2023-04-10T06:56:18Z</time>
      </trkpt>
      <trkpt lat="44.91263" lon="0.69704">
        <ele>110.6</ele>
        <time>2023-04-10T06:56:19Z</time>
      </trkpt>
      <trkpt lat="44.91262" lon="0.6971">
        <ele>110.7</ele>
        <time>2023-04-10T06:56:20Z</time>
      </trkpt>
      <trkpt lat="44.9126" lon="0.69717">
        <ele>110.7</ele>
        <time>2023-04-10T06:56:21Z</time>
      </trkpt>
      <trkpt lat="44.91261" lon="0.69722">
        <ele>110.8</ele>
        <time>2023-04-10T06:56:22Z</time>
      </trkpt>
      <trkpt lat="44.91262" lon="0.69728">
        <ele>110.8</ele>
        <time>2023-04-10T06:56:23Z</time>
      </trkpt>
      <trkpt lat="44.91263" lon="0.69734">
        <ele>110.9</ele>
        <time>2023-04-10T06:56:24Z</time>
      </trkpt>
      <trkpt lat="44.91262" lon="0.69747">
        <ele>110.9</ele>
        <time>2023-04-10T06:56:26Z</time>
      </trkpt>
      <trkpt lat="44.91263" lon="0.69759">
        <ele>111</ele>
        <time>2023-04-10T06:56:28Z</time>
      </trkpt>
      <trkpt lat="44.91263" lon="0.69765">
        <ele>111.1</ele>
        <time>2023-04-10T06:56:29Z</time>
      </trkpt>
      <trkpt lat="44.91264" lon="0.69771">
        <ele>111.1</ele>
        <time>2023-04-10T06:56:30Z</time>
      </trkpt>
      <trkpt lat="44.91267" lon="0.69782">
        <ele>111.2</ele>
        <time>2023-04-10T06:56:32Z</time>
      </trkpt>
      <trkpt lat="44.91269" lon="0.69795">
        <ele>111.3</ele>
        <time>2023-04-10T06:56:34Z</time>
      </trkpt>
      <trkpt lat="44.91269" lon="0.69808">
        <ele>111.4</ele>
        <time>2023-04-10T06:56:36Z</time>
      </trkpt>
      <trkpt lat="44.91269" lon="0.69815">
        <ele>111.4</ele>
        <time>2023-04-10T06:56:37Z</time>
      </trkpt>
      <trkpt lat="44.9127" lon="0.6982">
        <ele>111.4</ele>
        <time>2023-04-10T06:56:38Z</time>
      </trkpt>
      <trkpt lat="44.91272" lon="0.69831">
        <ele>111.4</ele>
        <time>2023-04-10T06:56:40Z</time>
      </trkpt>
      <trkpt lat="44.91273" lon="0.69842">
        <ele>111.3</ele>
        <time>2023-04-10T06:56:42Z</time>
      </trkpt>
      <trkpt lat="44.91273" lon="0.69848">
        <ele>111.4</ele>
        <time>2023-04-10T06:56:43Z</time>
      </trkpt>
      <trkpt lat="44.91274" lon="0.69854">
        <ele>111.5</ele>
        <time>2023-04-10T06:56:44Z</time>
      </trkpt>
      <trkpt lat="44.91274" lon="0.69865">
        <ele>111.7</ele>
        <time>2023-04-10T06:56:46Z</time>
      </trkpt>
      <trkpt lat="44.91275" lon="0.69871">
        <ele>111.9</ele>
        <time>2023-04-10T06:56:47Z</time>
      </trkpt>
      <trkpt lat="44.91276" lon="0.69876">
        <ele>112.1</ele>
        <time>2023-04-10T06:56:48Z</time>
      </trkpt>
      <trkpt lat="44.91277" lon="0.69888">
        <ele>112.6</ele>
        <time>2023-04-10T06:56:50Z</time>
      </trkpt>
      <trkpt lat="44.91279" lon="0.69899">
        <ele>113.2</ele>
        <time>2023-04-10T06:56:52Z</time>
      </trkpt>
      <trkpt lat="44.91281" lon="0.6991">
        <ele>113.7</ele>
        <time>2023-04-10T06:56:54Z</time>
      </trkpt>
      <trkpt lat="44.91284" lon="0.69921">
        <ele>114.1</ele>
        <time>2023-04-10T06:56:56Z</time>
      </trkpt>
      <trkpt lat="44.91285" lon="0.69926">
        <ele>114.2</ele>
        <time>2023-04-10T06:56:57Z</time>
      </trkpt>
      <trkpt lat="44.91286" lon="0.69932">
        <ele>114.3</ele>
        <time>2023-04-10T06:56:58Z</time>
      </trkpt>
      <trkpt lat="44.91287" lon="0.69943">
        <ele>114.4</ele>
        <time>2023-04-10T06:57:00Z</time>
      </trkpt>
      <trkpt lat="44.91288" lon="0.69949">
        <ele>114.5</ele>
        <time>2023-04-10T06:57:01Z</time>
      </trkpt>
      <trkpt lat="44.91289" lon="0.69955">
        <ele>114.6</ele>
        <time>2023-04-10T06:57:02Z</time>
      </trkpt>
      <trkpt lat="44.91292" lon="0.69967">
        <ele>114.9</ele>
        <time>2023-04-10T06:57:04Z</time>
      </trkpt>
      <trkpt lat="44.91293" lon="0.69973">
        <ele>115</ele>
        <time>2023-04-10T06:57:05Z</time>
      </trkpt>
      <trkpt lat="44.91295" lon="0.69978">
        <ele>115.1</ele>
        <time>2023-04-10T06:57:06Z</time>
      </trkpt>
      <trkpt lat="44.91298" lon="0.69989">
        <ele>115.4</ele>
        <time>2023-04-10T06:57:08Z</time>
      </trkpt>
      <trkpt lat="44.913" lon="0.7">
        <ele>115.5</ele>
        <time>2023-04-10T06:57:10Z</time>
      </trkpt>
      <trkpt lat="44.91302" lon="0.70005">
        <ele>115.5</ele>
        <time>2023-04-10T06:57:11Z</time>
      </trkpt>
      <trkpt lat="44.91305" lon="0.70011">
        <ele>115.5</ele>
        <time>2023-04-10T06:57:12Z</time>
      </trkpt>
      <trkpt lat="44.91308" lon="0.70022">
        <ele>115.4</ele>
        <time>2023-04-10T06:57:14Z</time>
      </trkpt>
      <trkpt lat="44.91311" lon="0.70035">
        <ele>115.2</ele>
        <time>2023-04-10T06:57:16Z</time>
      </trkpt>
      <trkpt lat="44.91316" lon="0.70047">
        <ele>115.1</ele>
        <time>2023-04-10T06:57:18Z</time>
      </trkpt>
      <trkpt lat="44.91321" lon="0.70058">
        <ele>115.1</ele>
        <time>2023-04-10T06:57:20Z</time>
      </trkpt>
      <trkpt lat="44.91325" lon="0.70063">
        <ele>115.2</ele>
        <time>2023-04-10T06:57:21Z</time>
      </trkpt>
      <trkpt lat="44.91326" lon="0.70069">
        <ele>115.3</ele>
        <time>2023-04-10T06:57:22Z</time>
      </trkpt>
      <trkpt lat="44.91331" lon="0.70079">
        <ele>115.4</ele>
        <time>2023-04-10T06:57:24Z</time>
      </trkpt>
      <trkpt lat="44.91337" lon="0.70091">
        <ele>115.6</ele>
        <time>2023-04-10T06:57:26Z</time>
      </trkpt>
      <trkpt lat="44.91341" lon="0.70103">
        <ele>115.7</ele>
        <time>2023-04-10T06:57:28Z</time>
      </trkpt>
      <trkpt lat="44.91345" lon="0.70115">
        <ele>115.9</ele>
        <time>2023-04-10T06:57:30Z</time>
      </trkpt>
      <trkpt lat="44.91348" lon="0.70125">
        <ele>116.1</ele>
        <time>2023-04-10T06:57:32Z</time>
      </trkpt>
      <trkpt lat="44.91351" lon="0.70134">
        <ele>116.3</ele>
        <time>2023-04-10T06:57:34Z</time>
      </trkpt>
      <trkpt lat="44.91354" lon="0.70145">
        <ele>116.4</ele>
        <time>2023-04-10T06:57:36Z</time>
      </trkpt>
      <trkpt lat="44.91357" lon="0.70156">
        <ele>116.4</ele>
        <time>2023-04-10T06:57:38Z</time>
      </trkpt>
      <trkpt lat="44.91365" lon="0.70163">
        <ele>116.4</ele>
        <time>2023-04-10T06:57:40Z</time>
      </trkpt>
      <trkpt lat="44.91376" lon="0.70165">
        <ele>116.3</ele>
        <time>2023-04-10T06:57:42Z</time>
      </trkpt>
      <trkpt lat="44.91385" lon="0.70166">
        <ele>116.1</ele>
        <time>2023-04-10T06:57:44Z</time>
      </trkpt>
      <trkpt lat="44.91394" lon="0.70166">
        <ele>115.8</ele>
        <time>2023-04-10T06:57:46Z</time>
      </trkpt>
      <trkpt lat="44.91399" lon="0.70165">
        <ele>115.7</ele>
        <time>2023-04-10T06:57:47Z</time>
      </trkpt>
      <trkpt lat="44.91404" lon="0.70163">
        <ele>115.6</ele>
        <time>2023-04-10T06:57:48Z</time>
      </trkpt>
      <trkpt lat="44.91414" lon="0.70159">
        <ele>115.4</ele>
        <time>2023-04-10T06:57:50Z</time>
      </trkpt>
      <trkpt lat="44.91425" lon="0.70156">
        <ele>115.1</ele>
        <time>2023-04-10T06:57:52Z</time>
      </trkpt>
      <trkpt lat="44.9143" lon="0.70156">
        <ele>115</ele>
        <time>2023-04-10T06:57:53Z</time>
      </trkpt>
      <trkpt lat="44.91435" lon="0.70159">
        <ele>114.9</ele>
        <time>2023-04-10T06:57:54Z</time>
      </trkpt>
      <trkpt lat="44.91444" lon="0.70167">
        <ele>114.9</ele>
        <time>2023-04-10T06:57:56Z</time>
      </trkpt>
      <trkpt lat="44.91447" lon="0.70171">
        <ele>114.9</ele>
        <time>2023-04-10T06:57:57Z</time>
      </trkpt>
      <trkpt lat="44.9145" lon="0.70175">
        <ele>114.9</ele>
        <time>2023-04-10T06:57:58Z</time>
      </trkpt>
      <trkpt lat="44.91456" lon="0.70184">
        <ele>114.9</ele>
        <time>2023-04-10T06:58:00Z</time>
      </trkpt>
      <trkpt lat="44.9146" lon="0.70194">
        <ele>115</ele>
        <time>2023-04-10T06:58:02Z</time>
      </trkpt>
      <trkpt lat="44.91465" lon="0.70204">
        <ele>115.2</ele>
        <time>2023-04-10T06:58:04Z</time>
      </trkpt>
      <trkpt lat="44.91468" lon="0.70214">
        <ele>115.4</ele>
        <time>2023-04-10T06:58:06Z</time>
      </trkpt>
      <trkpt lat="44.91472" lon="0.70223">
        <ele>115.8</ele>
        <time>2023-04-10T06:58:08Z</time>
      </trkpt>
      <trkpt lat="44.91474" lon="0.70227">
        <ele>116</ele>
        <time>2023-04-10T06:58:09Z</time>
      </trkpt>
      <trkpt lat="44.91476" lon="0.70231">
        <ele>116.2</ele>
        <time>2023-04-10T06:58:10Z</time>
      </trkpt>
      <trkpt lat="44.91479" lon="0.70236">
        <ele>116.5</ele>
        <time>2023-04-10T06:58:12Z</time>
      </trkpt>
      <trkpt lat="44.91481" lon="0.70243">
        <ele>116.7</ele>
        <time>2023-04-10T06:58:14Z</time>
      </trkpt>
      <trkpt lat="44.91481" lon="0.7025">
        <ele>117</ele>
        <time>2023-04-10T06:58:16Z</time>
      </trkpt>
      <trkpt lat="44.91481" lon="0.70258">
        <ele>117.3</ele>
        <time>2023-04-10T06:58:18Z</time>
      </trkpt>
      <trkpt lat="44.9148" lon="0.70266">
        <ele>117.6</ele>
        <time>2023-04-10T06:58:20Z</time>
      </trkpt>
      <trkpt lat="44.91479" lon="0.70274">
        <ele>118.1</ele>
        <time>2023-04-10T06:58:22Z</time>
      </trkpt>
      <trkpt lat="44.91479" lon="0.70282">
        <ele>118.5</ele>
        <time>2023-04-10T06:58:24Z</time>
      </trkpt>
      <trkpt lat="44.91478" lon="0.7029">
        <ele>118.9</ele>
        <time>2023-04-10T06:58:26Z</time>
      </trkpt>
      <trkpt lat="44.91478" lon="0.70296">
        <ele>119.2</ele>
        <time>2023-04-10T06:58:28Z</time>
      </trkpt>
      <trkpt lat="44.91477" lon="0.70302">
        <ele>119.5</ele>
        <time>2023-04-10T06:58:30Z</time>
      </trkpt>
      <trkpt lat="44.91476" lon="0.70308">
        <ele>119.8</ele>
        <time>2023-04-10T06:58:32Z</time>
      </trkpt>
      <trkpt lat="44.91475" lon="0.70315">
        <ele>120.1</ele>
        <time>2023-04-10T06:58:34Z</time>
      </trkpt>
      <trkpt lat="44.91474" lon="0.70319">
        <ele>120.2</ele>
        <time>2023-04-10T06:58:35Z</time>
      </trkpt>
      <trkpt lat="44.91473" lon="0.70322">
        <ele>120.3</ele>
        <time>2023-04-10T06:58:36Z</time>
      </trkpt>
      <trkpt lat="44.9147" lon="0.70331">
        <ele>120.6</ele>
        <time>2023-04-10T06:58:38Z</time>
      </trkpt>
      <trkpt lat="44.91468" lon="0.70338">
        <ele>120.8</ele>
        <time>2023-04-10T06:58:40Z</time>
      </trkpt>
      <trkpt lat="44.91467" lon="0.70346">
        <ele>121</ele>
        <time>2023-04-10T06:58:42Z</time>
      </trkpt>
      <trkpt lat="44.91465" lon="0.70353">
        <ele>121.2</ele>
        <time>2023-04-10T06:58:44Z</time>
      </trkpt>
      <trkpt lat="44.91463" lon="0.70361">
        <ele>121.4</ele>
        <time>2023-04-10T06:58:46Z</time>
      </trkpt>
      <trkpt lat="44.91462" lon="0.70369">
        <ele>121.5</ele>
        <time>2023-04-10T06:58:48Z</time>
      </trkpt>
      <trkpt lat="44.9146" lon="0.70379">
        <ele>121.6</ele>
        <time>2023-04-10T06:58:50Z</time>
      </trkpt>
      <trkpt lat="44.91458" lon="0.70389">
        <ele>121.7</ele>
        <time>2023-04-10T06:58:52Z</time>
      </trkpt>
      <trkpt lat="44.91457" lon="0.70393">
        <ele>121.7</ele>
        <time>2023-04-10T06:58:53Z</time>
      </trkpt>
      <trkpt lat="44.91456" lon="0.70398">
        <ele>121.8</ele>
        <time>2023-04-10T06:58:54Z</time>
      </trkpt>
      <trkpt lat="44.91456" lon="0.70408">
        <ele>121.8</ele>
        <time>2023-04-10T06:58:56Z</time>
      </trkpt>
      <trkpt lat="44.91456" lon="0.70413">
        <ele>121.8</ele>
        <time>2023-04-10T06:58:57Z</time>
      </trkpt>
      <trkpt lat="44.91456" lon="0.70418">
        <ele>121.8</ele>
        <time>2023-04-10T06:58:58Z</time>
      </trkpt>
      <trkpt lat="44.91456" lon="0.70428">
        <ele>121.8</ele>
        <time>2023-04-10T06:59:00Z</time>
      </trkpt>
      <trkpt lat="44.91456" lon="0.70433">
        <ele>121.8</ele>
        <time>2023-04-10T06:59:01Z</time>
      </trkpt>
      <trkpt lat="44.91456" lon="0.70437">
        <ele>121.8</ele>
        <time>2023-04-10T06:59:02Z</time>
      </trkpt>
      <trkpt lat="44.91456" lon="0.70447">
        <ele>121.9</ele>
        <time>2023-04-10T06:59:04Z</time>
      </trkpt>
      <trkpt lat="44.91456" lon="0.70458">
        <ele>121.9</ele>
        <time>2023-04-10T06:59:06Z</time>
      </trkpt>
      <trkpt lat="44.91455" lon="0.7047">
        <ele>122</ele>
        <time>2023-04-10T06:59:08Z</time>
      </trkpt>
      <trkpt lat="44.91455" lon="0.70484">
        <ele>122.1</ele>
        <time>2023-04-10T06:59:10Z</time>
      </trkpt>
      <trkpt lat="44.91455" lon="0.7049">
        <ele>122.2</ele>
        <time>2023-04-10T06:59:11Z</time>
      </trkpt>
      <trkpt lat="44.91455" lon="0.70496">
        <ele>122.3</ele>
        <time>2023-04-10T06:59:12Z</time>
      </trkpt>
      <trkpt lat="44.91455" lon="0.70506">
        <ele>122.5</ele>
        <time>2023-04-10T06:59:14Z</time>
      </trkpt>
      <trkpt lat="44.91454" lon="0.70514">
        <ele>122.7</ele>
        <time>2023-04-10T06:59:16Z</time>
      </trkpt>
      <trkpt lat="44.91453" lon="0.70526">
        <ele>123</ele>
        <time>2023-04-10T06:59:18Z</time>
      </trkpt>
      <trkpt lat="44.91453" lon="0.70537">
        <ele>123.1</ele>
        <time>2023-04-10T06:59:20Z</time>
      </trkpt>
      <trkpt lat="44.91453" lon="0.70548">
        <ele>123.3</ele>
        <time>2023-04-10T06:59:22Z</time>
      </trkpt>
      <trkpt lat="44.91453" lon="0.70559">
        <ele>123.5</ele>
        <time>2023-04-10T06:59:24Z</time>
      </trkpt>
      <trkpt lat="44.91453" lon="0.70563">
        <ele>123.6</ele>
        <time>2023-04-10T06:59:25Z</time>
      </trkpt>
      <trkpt lat="44.91453" lon="0.70568">
        <ele>123.7</ele>
        <time>2023-04-10T06:59:26Z</time>
      </trkpt>
      <trkpt lat="44.91453" lon="0.70576">
        <ele>124</ele>
        <time>2023-04-10T06:59:28Z</time>
      </trkpt>
      <trkpt lat="44.91453" lon="0.70581">
        <ele>124.1</ele>
        <time>2023-04-10T06:59:29Z</time>
      </trkpt>
      <trkpt lat="44.91454" lon="0.70585">
        <ele>124.3</ele>
        <time>2023-04-10T06:59:30Z</time>
      </trkpt>
      <trkpt lat="44.91455" lon="0.70589">
        <ele>124.4</ele>
        <time>2023-04-10T06:59:31Z</time>
      </trkpt>
      <trkpt lat="44.91454" lon="0.70594">
        <ele>124.5</ele>
        <time>2023-04-10T06:59:32Z</time>
      </trkpt>
      <trkpt lat="44.91455" lon="0.70604">
        <ele>124.8</ele>
        <time>2023-04-10T06:59:34Z</time>
      </trkpt>
      <trkpt lat="44.91457" lon="0.70613">
        <ele>125.2</ele>
        <time>2023-04-10T06:59:36Z</time>
      </trkpt>
      <trkpt lat="44.91457" lon="0.70618">
        <ele>125.3</ele>
        <time>2023-04-10T06:59:37Z</time>
      </trkpt>
      <trkpt lat="44.91457" lon="0.70623">
        <ele>125.5</ele>
        <time>2023-04-10T06:59:38Z</time>
      </trkpt>
      <trkpt lat="44.91458" lon="0.70634">
        <ele>126</ele>
        <time>2023-04-10T06:59:40Z</time>
      </trkpt>
      <trkpt lat="44.91459" lon="0.70642">
        <ele>126.3</ele>
        <time>2023-04-10T06:59:42Z</time>
      </trkpt>
      <trkpt lat="44.9146" lon="0.7065">
        <ele>126.7</ele>
        <time>2023-04-10T06:59:44Z</time>
      </trkpt>
      <trkpt lat="44.91461" lon="0.70656">
        <ele>127</ele>
        <time>2023-04-10T06:59:46Z</time>
      </trkpt>
      <trkpt lat="44.91462" lon="0.70659">
        <ele>127.1</ele>
        <time>2023-04-10T06:59:47Z</time>
      </trkpt>
      <trkpt lat="44.9146" lon="0.70666">
        <ele>127.4</ele>
        <time>2023-04-10T06:59:48Z</time>
      </trkpt>
      <trkpt lat="44.9146" lon="0.70674">
        <ele>127.6</ele>
        <time>2023-04-10T06:59:50Z</time>
      </trkpt>
      <trkpt lat="44.91459" lon="0.70683">
        <ele>127.9</ele>
        <time>2023-04-10T06:59:52Z</time>
      </trkpt>
      <trkpt lat="44.91458" lon="0.70693">
        <ele>128.2</ele>
        <time>2023-04-10T06:59:54Z</time>
      </trkpt>
      <trkpt lat="44.91459" lon="0.70701">
        <ele>128.5</ele>
        <time>2023-04-10T06:59:56Z</time>
      </trkpt>
      <trkpt lat="44.91461" lon="0.70707">
        <ele>128.7</ele>
        <time>2023-04-10T06:59:58Z</time>
      </trkpt>
      <trkpt lat="44.91461" lon="0.70715">
        <ele>129</ele>
        <time>2023-04-10T07:00:00Z</time>
      </trkpt>
      <trkpt lat="44.91461" lon="0.7072">
        <ele>129.1</ele>
        <time>2023-04-10T07:00:01Z</time>
      </trkpt>
      <trkpt lat="44.91462" lon="0.70723">
        <ele>129.3</ele>
        <time>2023-04-10T07:00:02Z</time>
      </trkpt>
      <trkpt lat="44.91462" lon="0.7073">
        <ele>129.6</ele>
        <time>2023-04-10T07:00:04Z</time>
      </trkpt>
      <trkpt lat="44.91462" lon="0.70737">
        <ele>129.9</ele>
        <time>2023-04-10T07:00:06Z</time>
      </trkpt>
      <trkpt lat="44.91462" lon="0.7074">
        <ele>130.1</ele>
        <time>2023-04-10T07:00:07Z</time>
      </trkpt>
      <trkpt lat="44.91462" lon="0.70745">
        <ele>130.2</ele>
        <time>2023-04-10T07:00:08Z</time>
      </trkpt>
      <trkpt lat="44.91462" lon="0.70751">
        <ele>130.5</ele>
        <time>2023-04-10T07:00:10Z</time>
      </trkpt>
      <trkpt lat="44.91463" lon="0.70759">
        <ele>130.8</ele>
        <time>2023-04-10T07:00:12Z</time>
      </trkpt>
      <trkpt lat="44.91462" lon="0.70763">
        <ele>131</ele>
        <time>2023-04-10T07:00:13Z</time>
      </trkpt>
      <trkpt lat="44.91463" lon="0.70767">
        <ele>131.1</ele>
        <time>2023-04-10T07:00:14Z</time>
      </trkpt>
      <trkpt lat="44.91464" lon="0.70773">
        <ele>131.3</ele>
        <time>2023-04-10T07:00:16Z</time>
      </trkpt>
      <trkpt lat="44.91466" lon="0.7078">
        <ele>131.6</ele>
        <time>2023-04-10T07:00:18Z</time>
      </trkpt>
      <trkpt lat="44.91466" lon="0.70787">
        <ele>131.8</ele>
        <time>2023-04-10T07:00:20Z</time>
      </trkpt>
      <trkpt lat="44.91468" lon="0.70793">
        <ele>132</ele>
        <time>2023-04-10T07:00:22Z</time>
      </trkpt>
      <trkpt lat="44.91469" lon="0.70797">
        <ele>132.1</ele>
        <time>2023-04-10T07:00:23Z</time>
      </trkpt>
      <trkpt lat="44.91469" lon="0.708">
        <ele>132.2</ele>
        <time>2023-04-10T07:00:24Z</time>
      </trkpt>
      <trkpt lat="44.91471" lon="0.70807">
        <ele>132.3</ele>
        <time>2023-04-10T07:00:26Z</time>
      </trkpt>
      <trkpt lat="44.91472" lon="0.70813">
        <ele>132.5</ele>
        <time>2023-04-10T07:00:28Z</time>
      </trkpt>
      <trkpt lat="44.91473" lon="0.70817">
        <ele>132.5</ele>
        <time>2023-04-10T07:00:29Z</time>
      </trkpt>
      <trkpt lat="44.91473" lon="0.70821">
        <ele>132.6</ele>
        <time>2023-04-10T07:00:30Z</time>
      </trkpt>
      <trkpt lat="44.91474" lon="0.70827">
        <ele>132.7</ele>
        <time>2023-04-10T07:00:32Z</time>
      </trkpt>
      <trkpt lat="44.91475" lon="0.70835">
        <ele>132.8</ele>
        <time>2023-04-10T07:00:34Z</time>
      </trkpt>
      <trkpt lat="44.91476" lon="0.70843">
        <ele>133</ele>
        <time>2023-04-10T07:00:36Z</time>
      </trkpt>
      <trkpt lat="44.91478" lon="0.70851">
        <ele>133.1</ele>
        <time>2023-04-10T07:00:38Z</time>
      </trkpt>
      <trkpt lat="44.91481" lon="0.7086">
        <ele>133.2</ele>
        <time>2023-04-10T07:00:40Z</time>
      </trkpt>
      <trkpt lat="44.91484" lon="0.70868">
        <ele>133.4</ele>
        <time>2023-04-10T07:00:42Z</time>
      </trkpt>
      <trkpt lat="44.91487" lon="0.70874">
        <ele>133.6</ele>
        <time>2023-04-10T07:00:44Z</time>
      </trkpt>
      <trkpt lat="44.91489" lon="0.70881">
        <ele>133.7</ele>
        <time>2023-04-10T07:00:46Z</time>
      </trkpt>
      <trkpt lat="44.91491" lon="0.70888">
        <ele>133.9</ele>
        <time>2023-04-10T07:00:48Z</time>
      </trkpt>
      <trkpt lat="44.91493" lon="0.70895">
        <ele>134.1</ele>
        <time>2023-04-10T07:00:50Z</time>
      </trkpt>
      <trkpt lat="44.91495" lon="0.70899">
        <ele>134.2</ele>
        <time>2023-04-10T07:00:51Z</time>
      </trkpt>
      <trkpt lat="44.91496" lon="0.70902">
        <ele>134.3</ele>
        <time>2023-04-10T07:00:52Z</time>
      </trkpt>
      <trkpt lat="44.91498" lon="0.7091">
        <ele>134.6</ele>
        <time>2023-04-10T07:00:54Z</time>
      </trkpt>
      <trkpt lat="44.915" lon="0.70917">
        <ele>134.9</ele>
        <time>2023-04-10T07:00:56Z</time>
      </trkpt>
      <trkpt lat="44.91502" lon="0.70921">
        <ele>135</ele>
        <time>2023-04-10T07:00:57Z</time>
      </trkpt>
      <trkpt lat="44.91503" lon="0.70924">
        <ele>135.2</ele>
        <time>2023-04-10T07:00:58Z</time>
      </trkpt>
      <trkpt lat="44.91506" lon="0.7093">
        <ele>135.5</ele>
        <time>2023-04-10T07:01:00Z</time>
      </trkpt>
      <trkpt lat="44.91509" lon="0.70937">
        <ele>135.8</ele>
        <time>2023-04-10T07:01:02Z</time>
      </trkpt>
      <trkpt lat="44.9151" lon="0.7094">
        <ele>135.9</ele>
        <time>2023-04-10T07:01:03Z</time>
      </trkpt>
      <trkpt lat="44.91512" lon="0.70943">
        <ele>136.2</ele>
        <time>2023-04-10T07:01:04Z</time>
      </trkpt>
      <trkpt lat="44.91516" lon="0.7095">
        <ele>136.6</ele>
        <time>2023-04-10T07:01:06Z</time>
      </trkpt>
      <trkpt lat="44.9152" lon="0.70956">
        <ele>136.5</ele>
        <time>2023-04-10T07:01:08Z</time>
      </trkpt>
      <trkpt lat="44.91523" lon="0.70963">
        <ele>136.4</ele>
        <time>2023-04-10T07:01:10Z</time>
      </trkpt>
      <trkpt lat="44.91526" lon="0.70969">
        <ele>136.4</ele>
        <time>2023-04-10T07:01:12Z</time>
      </trkpt>
      <trkpt lat="44.9153" lon="0.70976">
        <ele>136.2</ele>
        <time>2023-04-10T07:01:14Z</time>
      </trkpt>
      <trkpt lat="44.91533" lon="0.70985">
        <ele>136</ele>
        <time>2023-04-10T07:01:16Z</time>
      </trkpt>
      <trkpt lat="44.91536" lon="0.70994">
        <ele>135.4</ele>
        <time>2023-04-10T07:01:18Z</time>
      </trkpt>
      <trkpt lat="44.9154" lon="0.71003">
        <ele>134.6</ele>
        <time>2023-04-10T07:01:20Z</time>
      </trkpt>
      <trkpt lat="44.91541" lon="0.7101">
        <ele>134</ele>
        <time>2023-04-10T07:01:21Z</time>
      </trkpt>
      <trkpt lat="44.91542" lon="0.71016">
        <ele>133.5</ele>
        <time>2023-04-10T07:01:22Z</time>
      </trkpt>
      <trkpt lat="44.91542" lon="0.71022">
        <ele>133</ele>
        <time>2023-04-10T07:01:23Z</time>
      </trkpt>
      <trkpt lat="44.91543" lon="0.71029">
        <ele>132.4</ele>
        <time>2023-04-10T07:01:24Z</time>
      </trkpt>
      <trkpt lat="44.91545" lon="0.71046">
        <ele>131.1</ele>
        <time>2023-04-10T07:01:26Z</time>
      </trkpt>
      <trkpt lat="44.91549" lon="0.71068">
        <ele>129.5</ele>
        <time>2023-04-10T07:01:28Z</time>
      </trkpt>
      <trkpt lat="44.91552" lon="0.71091">
        <ele>128.3</ele>
        <time>2023-04-10T07:01:30Z</time>
      </trkpt>
      <trkpt lat="44.91554" lon="0.71103">
        <ele>128</ele>
        <time>2023-04-10T07:01:31Z</time>
      </trkpt>
      <trkpt lat="44.91556" lon="0.71114">
        <ele>127.8</ele>
        <time>2023-04-10T07:01:32Z</time>
      </trkpt>
      <trkpt lat="44.91561" lon="0.71133">
        <ele>127.7</ele>
        <time>2023-04-10T07:01:34Z</time>
      </trkpt>
      <trkpt lat="44.91562" lon="0.71147">
        <ele>127.4</ele>
        <time>2023-04-10T07:01:36Z</time>
      </trkpt>
      <trkpt lat="44.91562" lon="0.71152">
        <ele>127.3</ele>
        <time>2023-04-10T07:01:37Z</time>
      </trkpt>
      <trkpt lat="44.91562" lon="0.71159">
        <ele>127.1</ele>
        <time>2023-04-10T07:01:38Z</time>
      </trkpt>
      <trkpt lat="44.91562" lon="0.71172">
        <ele>126.7</ele>
        <time>2023-04-10T07:01:40Z</time>
      </trkpt>
      <trkpt lat="44.91563" lon="0.71186">
        <ele>126.4</ele>
        <time>2023-04-10T07:01:42Z</time>
      </trkpt>
      <trkpt lat="44.91564" lon="0.71193">
        <ele>126.3</ele>
        <time>2023-04-10T07:01:43Z</time>
      </trkpt>
      <trkpt lat="44.91566" lon="0.71198">
        <ele>126.2</ele>
        <time>2023-04-10T07:01:44Z</time>
      </trkpt>
      <trkpt lat="44.91569" lon="0.71209">
        <ele>126.2</ele>
        <time>2023-04-10T07:01:46Z</time>
      </trkpt>
      <trkpt lat="44.9157" lon="0.71219">
        <ele>126.2</ele>
        <time>2023-04-10T07:01:48Z</time>
      </trkpt>
      <trkpt lat="44.91568" lon="0.71228">
        <ele>126.1</ele>
        <time>2023-04-10T07:01:50Z</time>
      </trkpt>
      <trkpt lat="44.91567" lon="0.71231">
        <ele>126.1</ele>
        <time>2023-04-10T07:01:51Z</time>
      </trkpt>
      <trkpt lat="44.91563" lon="0.71233">
        <ele>126.1</ele>
        <time>2023-04-10T07:01:52Z</time>
      </trkpt>
      <trkpt lat="44.91558" lon="0.71232">
        <ele>125.6</ele>
        <time>2023-04-10T07:01:53Z</time>
      </trkpt>
      <trkpt lat="44.91553" lon="0.71231">
        <ele>125.2</ele>
        <time>2023-04-10T07:01:54Z</time>
      </trkpt>
      <trkpt lat="44.91543" lon="0.71228">
        <ele>124.4</ele>
        <time>2023-04-10T07:01:56Z</time>
      </trkpt>
      <trkpt lat="44.91531" lon="0.71224">
        <ele>123.7</ele>
        <time>2023-04-10T07:01:58Z</time>
      </trkpt>
      <trkpt lat="44.91518" lon="0.71221">
        <ele>123.4</ele>
        <time>2023-04-10T07:02:00Z</time>
      </trkpt>
      <trkpt lat="44.91506" lon="0.71218">
        <ele>123.2</ele>
        <time>2023-04-10T07:02:02Z</time>
      </trkpt>
      <trkpt lat="44.91494" lon="0.71215">
        <ele>123.1</ele>
        <time>2023-04-10T07:02:04Z</time>
      </trkpt>
      <trkpt lat="44.91489" lon="0.71212">
        <ele>123</ele>
        <time>2023-04-10T07:02:05Z</time>
      </trkpt>
      <trkpt lat="44.91483" lon="0.71209">
        <ele>123</ele>
        <time>2023-04-10T07:02:06Z</time>
      </trkpt>
      <trkpt lat="44.91479" lon="0.71206">
        <ele>123.1</ele>
        <time>2023-04-10T07:02:07Z</time>
      </trkpt>
      <trkpt lat="44.91474" lon="0.71202">
        <ele>123.2</ele>
        <time>2023-04-10T07:02:08Z</time>
      </trkpt>
      <trkpt lat="44.91466" lon="0.71195">
        <ele>123.3</ele>
        <time>2023-04-10T07:02:10Z</time>
      </trkpt>
      <trkpt lat="44.91459" lon="0.71188">
        <ele>123.6</ele>
        <time>2023-04-10T07:02:12Z</time>
      </trkpt>
      <trkpt lat="44.91452" lon="0.71183">
        <ele>123.9</ele>
        <time>2023-04-10T07:02:14Z</time>
      </trkpt>
      <trkpt lat="44.91446" lon="0.71179">
        <ele>124.2</ele>
        <time>2023-04-10T07:02:16Z</time>
      </trkpt>
      <trkpt lat="44.91439" lon="0.71178">
        <ele>124.4</ele>
        <time>2023-04-10T07:02:18Z</time>
      </trkpt>
      <trkpt lat="44.91432" lon="0.71182">
        <ele>124.6</ele>
        <time>2023-04-10T07:02:20Z</time>
      </trkpt>
      <trkpt lat="44.91425" lon="0.7119">
        <ele>124.9</ele>
        <time>2023-04-10T07:02:22Z</time>
      </trkpt>
      <trkpt lat="44.91422" lon="0.71192">
        <ele>125.1</ele>
        <time>2023-04-10T07:02:23Z</time>
      </trkpt>
      <trkpt lat="44.91418" lon="0.71194">
        <ele>125.3</ele>
        <time>2023-04-10T07:02:24Z</time>
      </trkpt>
      <trkpt lat="44.91413" lon="0.71196">
        <ele>125.5</ele>
        <time>2023-04-10T07:02:26Z</time>
      </trkpt>
      <trkpt lat="44.91409" lon="0.71199">
        <ele>125.7</ele>
        <time>2023-04-10T07:02:28Z</time>
      </trkpt>
      <trkpt lat="44.914" lon="0.71216">
        <ele>126.5</ele>
        <time>2023-04-10T07:02:36Z</time>
      </trkpt>
      <trkpt lat="44.91399" lon="0.71217">
        <ele>126.6</ele>
        <time>2023-04-10T07:02:37Z</time>
      </trkpt>
      <trkpt lat="44.91398" lon="0.71218">
        <ele>126.7</ele>
        <time>2023-04-10T07:02:38Z</time>
      </trkpt>
      <trkpt lat="44.91335" lon="0.71254">
        <ele>130.6</ele>
        <time>2023-04-10T07:03:20Z</time>
      </trkpt>
      <trkpt lat="44.91334" lon="0.71254">
        <ele>130.7</ele>
        <time>2023-04-10T07:03:21Z</time>
      </trkpt>
      <trkpt lat="44.91332" lon="0.71255">
        <ele>130.8</ele>
        <time>2023-04-10T07:03:22Z</time>
      </trkpt>
      <trkpt lat="44.91329" lon="0.71257">
        <ele>131</ele>
        <time>2023-04-10T07:03:24Z</time>
      </trkpt>
      <trkpt lat="44.91326" lon="0.71258">
        <ele>131.1</ele>
        <time>2023-04-10T07:03:26Z</time>
      </trkpt>
      <trkpt lat="44.91325" lon="0.71258">
        <ele>131.2</ele>
        <time>2023-04-10T07:03:27Z</time>
      </trkpt>
      <trkpt lat="44.91324" lon="0.71257">
        <ele>131.2</ele>
        <time>2023-04-10T07:03:28Z</time>
      </trkpt>
      <trkpt lat="44.9132" lon="0.71258">
        <ele>131.2</ele>
        <time>2023-04-10T07:03:30Z</time>
      </trkpt>
      <trkpt lat="44.91316" lon="0.7126">
        <ele>131.2</ele>
        <time>2023-04-10T07:03:32Z</time>
      </trkpt>
      <trkpt lat="44.91109" lon="0.71346">
        <ele>159.7</ele>
        <time>2023-04-10T07:05:44Z</time>
      </trkpt>
      <trkpt lat="44.91108" lon="0.71347">
        <ele>158.9</ele>
        <time>2023-04-10T07:05:45Z</time>
      </trkpt>
      <trkpt lat="44.91106" lon="0.71347">
        <ele>158.9</ele>
        <time>2023-04-10T07:05:46Z</time>
      </trkpt>
      <trkpt lat="44.91102" lon="0.71349">
        <ele>158.9</ele>
        <time>2023-04-10T07:05:48Z</time>
      </trkpt>
      <trkpt lat="44.91098" lon="0.71351">
        <ele>159</ele>
        <time>2023-04-10T07:05:50Z</time>
      </trkpt>
      <trkpt lat="44.91095" lon="0.71354">
        <ele>158.2</ele>
        <time>2023-04-10T07:05:52Z</time>
      </trkpt>
      <trkpt lat="44.91091" lon="0.71356">
        <ele>158.2</ele>
        <time>2023-04-10T07:05:54Z</time>
      </trkpt>
      <trkpt lat="44.91087" lon="0.71358">
        <ele>158.3</ele>
        <time>2023-04-10T07:05:56Z</time>
      </trkpt>
      <trkpt lat="44.91083" lon="0.71361">
        <ele>160.5</ele>
        <time>2023-04-10T07:05:58Z</time>
      </trkpt>
      <trkpt lat="44.91081" lon="0.71365">
        <ele>160.6</ele>
        <time>2023-04-10T07:06:00Z</time>
      </trkpt>
      <trkpt lat="44.91077" lon="0.71368">
        <ele>160.6</ele>
        <time>2023-04-10T07:06:02Z</time>
      </trkpt>
      <trkpt lat="44.90946" lon="0.71428">
        <ele>168.6</ele>
        <time>2023-04-10T07:07:11Z</time>
      </trkpt>
      <trkpt lat="44.90944" lon="0.71429">
        <ele>168.6</ele>
        <time>2023-04-10T07:07:12Z</time>
      </trkpt>
      <trkpt lat="44.9094" lon="0.7143">
        <ele>168.6</ele>
        <time>2023-04-10T07:07:14Z</time>
      </trkpt>
      <trkpt lat="44.90935" lon="0.7143">
        <ele>168.9</ele>
        <time>2023-04-10T07:07:16Z</time>
      </trkpt>
      <trkpt lat="44.90931" lon="0.71431">
        <ele>168.9</ele>
        <time>2023-04-10T07:07:18Z</time>
      </trkpt>
      <trkpt lat="44.90926" lon="0.71431">
        <ele>169.3</ele>
        <time>2023-04-10T07:07:20Z</time>
      </trkpt>
      <trkpt lat="44.90924" lon="0.71431">
        <ele>169.3</ele>
        <time>2023-04-10T07:07:21Z</time>
      </trkpt>
      <trkpt lat="44.90922" lon="0.71431">
        <ele>169.3</ele>
        <time>2023-04-10T07:07:22Z</time>
      </trkpt>
      <trkpt lat="44.90917" lon="0.71433">
        <ele>169.3</ele>
        <time>2023-04-10T07:07:24Z</time>
      </trkpt>
      <trkpt lat="44.90911" lon="0.71434">
        <ele>169.8</ele>
        <time>2023-04-10T07:07:26Z</time>
      </trkpt>
      <trkpt lat="44.90906" lon="0.71436">
        <ele>169.8</ele>
        <time>2023-04-10T07:07:28Z</time>
      </trkpt>
      <trkpt lat="44.909" lon="0.71436">
        <ele>170</ele>
        <time>2023-04-10T07:07:30Z</time>
      </trkpt>
      <trkpt lat="44.90893" lon="0.71437">
        <ele>170.1</ele>
        <time>2023-04-10T07:07:32Z</time>
      </trkpt>
      <trkpt lat="44.90889" lon="0.71439">
        <ele>170.2</ele>
        <time>2023-04-10T07:07:34Z</time>
      </trkpt>
      <trkpt lat="44.90883" lon="0.71439">
        <ele>170.3</ele>
        <time>2023-04-10T07:07:36Z</time>
      </trkpt>
      <trkpt lat="44.90878" lon="0.71439">
        <ele>170.3</ele>
        <time>2023-04-10T07:07:38Z</time>
      </trkpt>
      <trkpt lat="44.90873" lon="0.71441">
        <ele>170.5</ele>
        <time>2023-04-10T07:07:40Z</time>
      </trkpt>
      <trkpt lat="44.9087" lon="0.71441">
        <ele>170.5</ele>
        <time>2023-04-10T07:07:41Z</time>
      </trkpt>
      <trkpt lat="44.90867" lon="0.7144">
        <ele>170.5</ele>
        <time>2023-04-10T07:07:42Z</time>
      </trkpt>
      <trkpt lat="44.90862" lon="0.71441">
        <ele>170.9</ele>
        <time>2023-04-10T07:07:44Z</time>
      </trkpt>
      <trkpt lat="44.90855" lon="0.71444">
        <ele>170.9</ele>
        <time>2023-04-10T07:07:46Z</time>
      </trkpt>
      <trkpt lat="44.90851" lon="0.71444">
        <ele>171.3</ele>
        <time>2023-04-10T07:07:47Z</time>
      </trkpt>
      <trkpt lat="44.90847" lon="0.71445">
        <ele>171.4</ele>
        <time>2023-04-10T07:07:48Z</time>
      </trkpt>
      <trkpt lat="44.90841" lon="0.71449">
        <ele>172.3</ele>
        <time>2023-04-10T07:07:50Z</time>
      </trkpt>
      <trkpt lat="44.90838" lon="0.71451">
        <ele>172.3</ele>
        <time>2023-04-10T07:07:51Z</time>
      </trkpt>
      <trkpt lat="44.90835" lon="0.71451">
        <ele>172.4</ele>
        <time>2023-04-10T07:07:52Z</time>
      </trkpt>
      <trkpt lat="44.90829" lon="0.71452">
        <ele>173</ele>
        <time>2023-04-10T07:07:54Z</time>
      </trkpt>
      <trkpt lat="44.90822" lon="0.71454">
        <ele>173</ele>
        <time>2023-04-10T07:07:56Z</time>
      </trkpt>
      <trkpt lat="44.9082" lon="0.71455">
        <ele>173</ele>
        <time>2023-04-10T07:07:57Z</time>
      </trkpt>
      <trkpt lat="44.90817" lon="0.71456">
        <ele>173.6</ele>
        <time>2023-04-10T07:07:58Z</time>
      </trkpt>
      <trkpt lat="44.90809" lon="0.71457">
        <ele>173.6</ele>
        <time>2023-04-10T07:08:00Z</time>
      </trkpt>
      <trkpt lat="44.90801" lon="0.71458">
        <ele>174.2</ele>
        <time>2023-04-10T07:08:02Z</time>
      </trkpt>
      <trkpt lat="44.90793" lon="0.71459">
        <ele>174.2</ele>
        <time>2023-04-10T07:08:04Z</time>
      </trkpt>
      <trkpt lat="44.90788" lon="0.71461">
        <ele>174.6</ele>
        <time>2023-04-10T07:08:06Z</time>
      </trkpt>
      <trkpt lat="44.90782" lon="0.71463">
        <ele>175</ele>
        <time>2023-04-10T07:08:08Z</time>
      </trkpt>
      <trkpt lat="44.90775" lon="0.71465">
        <ele>175.3</ele>
        <time>2023-04-10T07:08:10Z</time>
      </trkpt>
      <trkpt lat="44.90767" lon="0.71466">
        <ele>175.5</ele>
        <time>2023-04-10T07:08:12Z</time>
      </trkpt>
      <trkpt lat="44.90763" lon="0.71467">
        <ele>175.5</ele>
        <time>2023-04-10T07:08:13Z</time>
      </trkpt>
      <trkpt lat="44.90759" lon="0.71467">
        <ele>175.5</ele>
        <time>2023-04-10T07:08:14Z</time>
      </trkpt>
      <trkpt lat="44.90752" lon="0.71467">
        <ele>175.8</ele>
        <time>2023-04-10T07:08:16Z</time>
      </trkpt>
      <trkpt lat="44.90747" lon="0.71467">
        <ele>175.8</ele>
        <time>2023-04-10T07:08:17Z</time>
      </trkpt>
      <trkpt lat="44.90743" lon="0.71467">
        <ele>176</ele>
        <time>2023-04-10T07:08:18Z</time>
      </trkpt>
      <trkpt lat="44.90736" lon="0.71466">
        <ele>176.1</ele>
        <time>2023-04-10T07:08:20Z</time>
      </trkpt>
      <trkpt lat="44.90729" lon="0.71466">
        <ele>176.2</ele>
        <time>2023-04-10T07:08:22Z</time>
      </trkpt>
      <trkpt lat="44.90719" lon="0.71466">
        <ele>176.3</ele>
        <time>2023-04-10T07:08:24Z</time>
      </trkpt>
      <trkpt lat="44.90711" lon="0.71468">
        <ele>176.3</ele>
        <time>2023-04-10T07:08:26Z</time>
      </trkpt>
      <trkpt lat="44.90706" lon="0.71468">
        <ele>176.4</ele>
        <time>2023-04-10T07:08:27Z</time>
      </trkpt>
      <trkpt lat="44.90702" lon="0.71469">
        <ele>176.5</ele>
        <time>2023-04-10T07:08:28Z</time>
      </trkpt>
      <trkpt lat="44.90692" lon="0.71468">
        <ele>176.6</ele>
        <time>2023-04-10T07:08:30Z</time>
      </trkpt>
      <trkpt lat="44.90684" lon="0.7147">
        <ele>176.6</ele>
        <time>2023-04-10T07:08:32Z</time>
      </trkpt>
      <trkpt lat="44.90674" lon="0.71472">
        <ele>176.6</ele>
        <time>2023-04-10T07:08:34Z</time>
      </trkpt>
      <trkpt lat="44.90666" lon="0.71474">
        <ele>176.4</ele>
        <time>2023-04-10T07:08:36Z</time>
      </trkpt>
      <trkpt lat="44.90663" lon="0.71475">
        <ele>176.4</ele>
        <time>2023-04-10T07:08:37Z</time>
      </trkpt>
      <trkpt lat="44.90659" lon="0.71477">
        <ele>176.4</ele>
        <time>2023-04-10T07:08:38Z</time>
      </trkpt>
      <trkpt lat="44.90652" lon="0.71482">
        <ele>177.3</ele>
        <time>2023-04-10T07:08:40Z</time>
      </trkpt>
      <trkpt lat="44.90649" lon="0.71484">
        <ele>177.3</ele>
        <time>2023-04-10T07:08:41Z</time>
      </trkpt>
      <trkpt lat="44.90646" lon="0.71485">
        <ele>177.1</ele>
        <time>2023-04-10T07:08:42Z</time>
      </trkpt>
      <trkpt lat="44.90638" lon="0.71488">
        <ele>177.1</ele>
        <time>2023-04-10T07:08:44Z</time>
      </trkpt>
      <trkpt lat="44.90628" lon="0.71489">
        <ele>176.9</ele>
        <time>2023-04-10T07:08:46Z</time>
      </trkpt>
      <trkpt lat="44.90623" lon="0.71491">
        <ele>176.9</ele>
        <time>2023-04-10T07:08:47Z</time>
      </trkpt>
      <trkpt lat="44.90619" lon="0.71493">
        <ele>176.6</ele>
        <time>2023-04-10T07:08:48Z</time>
      </trkpt>
      <trkpt lat="44.90611" lon="0.71498">
        <ele>177.6</ele>
        <time>2023-04-10T07:08:50Z</time>
      </trkpt>
      <trkpt lat="44.90603" lon="0.71502">
        <ele>177.4</ele>
        <time>2023-04-10T07:08:52Z</time>
      </trkpt>
      <trkpt lat="44.90595" lon="0.71506">
        <ele>177.2</ele>
        <time>2023-04-10T07:08:54Z</time>
      </trkpt>
      <trkpt lat="44.90589" lon="0.7151">
        <ele>177.3</ele>
        <time>2023-04-10T07:08:56Z</time>
      </trkpt>
      <trkpt lat="44.90582" lon="0.71515">
        <ele>178</ele>
        <time>2023-04-10T07:08:58Z</time>
      </trkpt>
      <trkpt lat="44.90575" lon="0.7152">
        <ele>178</ele>
        <time>2023-04-10T07:09:00Z</time>
      </trkpt>
      <trkpt lat="44.90568" lon="0.71524">
        <ele>178</ele>
        <time>2023-04-10T07:09:02Z</time>
      </trkpt>
      <trkpt lat="44.90561" lon="0.7153">
        <ele>178.2</ele>
        <time>2023-04-10T07:09:04Z</time>
      </trkpt>
      <trkpt lat="44.90553" lon="0.71534">
        <ele>179.5</ele>
        <time>2023-04-10T07:09:06Z</time>
      </trkpt>
      <trkpt lat="44.90548" lon="0.71537">
        <ele>179.9</ele>
        <time>2023-04-10T07:09:08Z</time>
      </trkpt>
      <trkpt lat="44.90538" lon="0.71541">
        <ele>179.9</ele>
        <time>2023-04-10T07:09:10Z</time>
      </trkpt>
      <trkpt lat="44.90531" lon="0.71541">
        <ele>180.3</ele>
        <time>2023-04-10T07:09:12Z</time>
      </trkpt>
      <trkpt lat="44.90527" lon="0.71541">
        <ele>180.3</ele>
        <time>2023-04-10T07:09:13Z</time>
      </trkpt>
      <trkpt lat="44.90522" lon="0.71543">
        <ele>180.5</ele>
        <time>2023-04-10T07:09:14Z</time>
      </trkpt>
      <trkpt lat="44.90511" lon="0.71545">
        <ele>180.7</ele>
        <time>2023-04-10T07:09:16Z</time>
      </trkpt>
      <trkpt lat="44.90503" lon="0.71544">
        <ele>180.7</ele>
        <time>2023-04-10T07:09:18Z</time>
      </trkpt>
      <trkpt lat="44.90499" lon="0.71543">
        <ele>180.7</ele>
        <time>2023-04-10T07:09:19Z</time>
      </trkpt>
      <trkpt lat="44.90494" lon="0.71543">
        <ele>180.7</ele>
        <time>2023-04-10T07:09:20Z</time>
      </trkpt>
      <trkpt lat="44.90487" lon="0.71539">
        <ele>180.7</ele>
        <time>2023-04-10T07:09:22Z</time>
      </trkpt>
      <trkpt lat="44.90484" lon="0.71535">
        <ele>180.7</ele>
        <time>2023-04-10T07:09:24Z</time>
      </trkpt>
      <trkpt lat="44.90478" lon="0.71537">
        <ele>180.7</ele>
        <time>2023-04-10T07:09:26Z</time>
      </trkpt>
      <trkpt lat="44.90473" lon="0.71538">
        <ele>180.6</ele>
        <time>2023-04-10T07:09:27Z</time>
      </trkpt>
      <trkpt lat="44.90468" lon="0.7154">
        <ele>180.6</ele>
        <time>2023-04-10T07:09:28Z</time>
      </trkpt>
      <trkpt lat="44.90462" lon="0.71544">
        <ele>180.3</ele>
        <time>2023-04-10T07:09:30Z</time>
      </trkpt>
      <trkpt lat="44.90454" lon="0.71548">
        <ele>180.3</ele>
        <time>2023-04-10T07:09:32Z</time>
      </trkpt>
      <trkpt lat="44.90452" lon="0.71551">
        <ele>181.1</ele>
        <time>2023-04-10T07:09:33Z</time>
      </trkpt>
      <trkpt lat="44.90449" lon="0.71553">
        <ele>181.1</ele>
        <time>2023-04-10T07:09:34Z</time>
      </trkpt>
      <trkpt lat="44.90444" lon="0.71557">
        <ele>181.1</ele>
        <time>2023-04-10T07:09:36Z</time>
      </trkpt>
      <trkpt lat="44.90438" lon="0.71563">
        <ele>180.2</ele>
        <time>2023-04-10T07:09:38Z</time>
      </trkpt>
      <trkpt lat="44.90432" lon="0.71568">
        <ele>181.2</ele>
        <time>2023-04-10T07:09:40Z</time>
      </trkpt>
      <trkpt lat="44.90425" lon="0.71572">
        <ele>180</ele>
        <time>2023-04-10T07:09:42Z</time>
      </trkpt>
      <trkpt lat="44.9042" lon="0.71576">
        <ele>180</ele>
        <time>2023-04-10T07:09:44Z</time>
      </trkpt>
      <trkpt lat="44.90415" lon="0.71581">
        <ele>178.7</ele>
        <time>2023-04-10T07:09:46Z</time>
      </trkpt>
      <trkpt lat="44.90409" lon="0.71585">
        <ele>179.8</ele>
        <time>2023-04-10T07:09:48Z</time>
      </trkpt>
      <trkpt lat="44.90403" lon="0.7159">
        <ele>178.8</ele>
        <time>2023-04-10T07:09:50Z</time>
      </trkpt>
      <trkpt lat="44.90397" lon="0.71595">
        <ele>178.8</ele>
        <time>2023-04-10T07:09:52Z</time>
      </trkpt>
      <trkpt lat="44.90394" lon="0.71598">
        <ele>178.9</ele>
        <time>2023-04-10T07:09:53Z</time>
      </trkpt>
      <trkpt lat="44.90391" lon="0.716">
        <ele>179.3</ele>
        <time>2023-04-10T07:09:54Z</time>
      </trkpt>
      <trkpt lat="44.90386" lon="0.71607">
        <ele>179.3</ele>
        <time>2023-04-10T07:09:56Z</time>
      </trkpt>
      <trkpt lat="44.90385" lon="0.71612">
        <ele>179.3</ele>
        <time>2023-04-10T07:09:57Z</time>
      </trkpt>
      <trkpt lat="44.90386" lon="0.71616">
        <ele>179.4</ele>
        <time>2023-04-10T07:09:58Z</time>
      </trkpt>
      <trkpt lat="44.90388" lon="0.71621">
        <ele>180.7</ele>
        <time>2023-04-10T07:10:00Z</time>
      </trkpt>
      <trkpt lat="44.90389" lon="0.71624">
        <ele>180.7</ele>
        <time>2023-04-10T07:10:01Z</time>
      </trkpt>
      <trkpt lat="44.90389" lon="0.71626">
        <ele>180.8</ele>
        <time>2023-04-10T07:10:02Z</time>
      </trkpt>
      <trkpt lat="44.90391" lon="0.71631">
        <ele>180.8</ele>
        <time>2023-04-10T07:10:04Z</time>
      </trkpt>
      <trkpt lat="44.90392" lon="0.71637">
        <ele>183</ele>
        <time>2023-04-10T07:10:06Z</time>
      </trkpt>
      <trkpt lat="44.90393" lon="0.71639">
        <ele>183</ele>
        <time>2023-04-10T07:10:07Z</time>
      </trkpt>
      <trkpt lat="44.90393" lon="0.71642">
        <ele>183</ele>
        <time>2023-04-10T07:10:08Z</time>
      </trkpt>
      <trkpt lat="44.90393" lon="0.71647">
        <ele>183</ele>
        <time>2023-04-10T07:10:10Z</time>
      </trkpt>
      <trkpt lat="44.90394" lon="0.71651">
        <ele>183.1</ele>
        <time>2023-04-10T07:10:12Z</time>
      </trkpt>
      <trkpt lat="44.90394" lon="0.71652">
        <ele>184.3</ele>
        <time>2023-04-10T07:10:13Z</time>
      </trkpt>
      <trkpt lat="44.90399" lon="0.71664">
        <ele>184.3</ele>
        <time>2023-04-10T07:10:19Z</time>
      </trkpt>
      <trkpt lat="44.90399" lon="0.71668">
        <ele>184.4</ele>
        <time>2023-04-10T07:10:20Z</time>
      </trkpt>
      <trkpt lat="44.904" lon="0.71673">
        <ele>185.7</ele>
        <time>2023-04-10T07:10:22Z</time>
      </trkpt>
      <trkpt lat="44.90401" lon="0.71677">
        <ele>185.8</ele>
        <time>2023-04-10T07:10:24Z</time>
      </trkpt>
      <trkpt lat="44.90401" lon="0.71679">
        <ele>185.8</ele>
        <time>2023-04-10T07:10:25Z</time>
      </trkpt>
      <trkpt lat="44.90402" lon="0.71681">
        <ele>185.8</ele>
        <time>2023-04-10T07:10:26Z</time>
      </trkpt>
      <trkpt lat="44.90405" lon="0.71686">
        <ele>186.4</ele>
        <time>2023-04-10T07:10:28Z</time>
      </trkpt>
      <trkpt lat="44.90406" lon="0.7169">
        <ele>187.7</ele>
        <time>2023-04-10T07:10:30Z</time>
      </trkpt>
      <trkpt lat="44.90406" lon="0.71696">
        <ele>187.7</ele>
        <time>2023-04-10T07:10:32Z</time>
      </trkpt>
      <trkpt lat="44.90407" lon="0.71701">
        <ele>187.7</ele>
        <time>2023-04-10T07:10:34Z</time>
      </trkpt>
      <trkpt lat="44.90409" lon="0.71704">
        <ele>188.9</ele>
        <time>2023-04-10T07:10:36Z</time>
      </trkpt>
      <trkpt lat="44.90411" lon="0.71708">
        <ele>188.9</ele>
        <time>2023-04-10T07:10:38Z</time>
      </trkpt>
      <trkpt lat="44.90413" lon="0.71712">
        <ele>188.9</ele>
        <time>2023-04-10T07:10:40Z</time>
      </trkpt>
      <trkpt lat="44.90413" lon="0.71714">
        <ele>189</ele>
        <time>2023-04-10T07:10:41Z</time>
      </trkpt>
      <trkpt lat="44.90414" lon="0.71715">
        <ele>189</ele>
        <time>2023-04-10T07:10:42Z</time>
      </trkpt>
      <trkpt lat="44.90416" lon="0.7172">
        <ele>189.9</ele>
        <time>2023-04-10T07:10:44Z</time>
      </trkpt>
      <trkpt lat="44.90417" lon="0.71723">
        <ele>190.4</ele>
        <time>2023-04-10T07:10:45Z</time>
      </trkpt>
      <trkpt lat="44.90418" lon="0.71725">
        <ele>190.4</ele>
        <time>2023-04-10T07:10:46Z</time>
      </trkpt>
      <trkpt lat="44.9042" lon="0.7173">
        <ele>190.4</ele>
        <time>2023-04-10T07:10:48Z</time>
      </trkpt>
      <trkpt lat="44.9042" lon="0.71737">
        <ele>190.5</ele>
        <time>2023-04-10T07:10:50Z</time>
      </trkpt>
      <trkpt lat="44.90421" lon="0.71742">
        <ele>191</ele>
        <time>2023-04-10T07:10:52Z</time>
      </trkpt>
      <trkpt lat="44.90423" lon="0.71747">
        <ele>191</ele>
        <time>2023-04-10T07:10:54Z</time>
      </trkpt>
      <trkpt lat="44.90424" lon="0.71753">
        <ele>191.1</ele>
        <time>2023-04-10T07:10:56Z</time>
      </trkpt>
      <trkpt lat="44.90426" lon="0.71757">
        <ele>191.6</ele>
        <time>2023-04-10T07:10:58Z</time>
      </trkpt>
      <trkpt lat="44.90431" lon="0.7176">
        <ele>191.8</ele>
        <time>2023-04-10T07:11:00Z</time>
      </trkpt>
      <trkpt lat="44.90435" lon="0.71763">
        <ele>191.8</ele>
        <time>2023-04-10T07:11:02Z</time>
      </trkpt>
      <trkpt lat="44.90437" lon="0.71767">
        <ele>191.8</ele>
        <time>2023-04-10T07:11:04Z</time>
      </trkpt>
      <trkpt lat="44.9044" lon="0.7177">
        <ele>192.1</ele>
        <time>2023-04-10T07:11:06Z</time>
      </trkpt>
      <trkpt lat="44.9044" lon="0.71776">
        <ele>192.2</ele>
        <time>2023-04-10T07:11:08Z</time>
      </trkpt>
      <trkpt lat="44.9044" lon="0.71782">
        <ele>192.2</ele>
        <time>2023-04-10T07:11:10Z</time>
      </trkpt>
      <trkpt lat="44.90441" lon="0.71785">
        <ele>192.3</ele>
        <time>2023-04-10T07:11:11Z</time>
      </trkpt>
      <trkpt lat="44.90442" lon="0.71788">
        <ele>192.3</ele>
        <time>2023-04-10T07:11:12Z</time>
      </trkpt>
      <trkpt lat="44.90443" lon="0.71791">
        <ele>192.3</ele>
        <time>2023-04-10T07:11:13Z</time>
      </trkpt>
      <trkpt lat="44.90444" lon="0.71793">
        <ele>192.4</ele>
        <time>2023-04-10T07:11:14Z</time>
      </trkpt>
      <trkpt lat="44.90442" lon="0.71796">
        <ele>192.4</ele>
        <time>2023-04-10T07:11:16Z</time>
      </trkpt>
      <trkpt lat="44.90444" lon="0.71797">
        <ele>192.4</ele>
        <time>2023-04-10T07:11:17Z</time>
      </trkpt>
      <trkpt lat="44.90444" lon="0.71799">
        <ele>192.4</ele>
        <time>2023-04-10T07:11:18Z</time>
      </trkpt>
      <trkpt lat="44.90447" lon="0.718">
        <ele>192.5</ele>
        <time>2023-04-10T07:11:19Z</time>
      </trkpt>
      <trkpt lat="44.90447" lon="0.71803">
        <ele>192.5</ele>
        <time>2023-04-10T07:11:20Z</time>
      </trkpt>
      <trkpt lat="44.90448" lon="0.71807">
        <ele>192.7</ele>
        <time>2023-04-10T07:11:22Z</time>
      </trkpt>
      <trkpt lat="44.90448" lon="0.7181">
        <ele>192.7</ele>
        <time>2023-04-10T07:11:23Z</time>
      </trkpt>
      <trkpt lat="44.90448" lon="0.71812">
        <ele>192.8</ele>
        <time>2023-04-10T07:11:24Z</time>
      </trkpt>
      <trkpt lat="44.90446" lon="0.71819">
        <ele>192.8</ele>
        <time>2023-04-10T07:11:26Z</time>
      </trkpt>
      <trkpt lat="44.90445" lon="0.71824">
        <ele>193.3</ele>
        <time>2023-04-10T07:11:28Z</time>
      </trkpt>
      <trkpt lat="44.90444" lon="0.7183">
        <ele>193.3</ele>
        <time>2023-04-10T07:11:30Z</time>
      </trkpt>
      <trkpt lat="44.90439" lon="0.71839">
        <ele>194.5</ele>
        <time>2023-04-10T07:11:32Z</time>
      </trkpt>
      <trkpt lat="44.90438" lon="0.71843">
        <ele>194.6</ele>
        <time>2023-04-10T07:11:33Z</time>
      </trkpt>
      <trkpt lat="44.90437" lon="0.71846">
        <ele>194.7</ele>
        <time>2023-04-10T07:11:34Z</time>
      </trkpt>
      <trkpt lat="44.90433" lon="0.71853">
        <ele>195</ele>
        <time>2023-04-10T07:11:36Z</time>
      </trkpt>
      <trkpt lat="44.90429" lon="0.71858">
        <ele>195.2</ele>
        <time>2023-04-10T07:11:38Z</time>
      </trkpt>
      <trkpt lat="44.90427" lon="0.71859">
        <ele>195.3</ele>
        <time>2023-04-10T07:11:39Z</time>
      </trkpt>
      <trkpt lat="44.90425" lon="0.7186">
        <ele>195.4</ele>
        <time>2023-04-10T07:11:40Z</time>
      </trkpt>
      <trkpt lat="44.90423" lon="0.7186">
        <ele>195.5</ele>
        <time>2023-04-10T07:11:41Z</time>
      </trkpt>
      <trkpt lat="44.90422" lon="0.71859">
        <ele>195.5</ele>
        <time>2023-04-10T07:11:42Z</time>
      </trkpt>
      <trkpt lat="44.90415" lon="0.71866">
        <ele>195.9</ele>
        <time>2023-04-10T07:11:44Z</time>
      </trkpt>
      <trkpt lat="44.90412" lon="0.71868">
        <ele>196</ele>
        <time>2023-04-10T07:11:45Z</time>
      </trkpt>
      <trkpt lat="44.9041" lon="0.71871">
        <ele>196.1</ele>
        <time>2023-04-10T07:11:46Z</time>
      </trkpt>
      <trkpt lat="44.90403" lon="0.71876">
        <ele>196.3</ele>
        <time>2023-04-10T07:11:48Z</time>
      </trkpt>
      <trkpt lat="44.90397" lon="0.71879">
        <ele>196.5</ele>
        <time>2023-04-10T07:11:50Z</time>
      </trkpt>
      <trkpt lat="44.90395" lon="0.7188">
        <ele>196.6</ele>
        <time>2023-04-10T07:11:51Z</time>
      </trkpt>
      <trkpt lat="44.90393" lon="0.71882">
        <ele>196.6</ele>
        <time>2023-04-10T07:11:52Z</time>
      </trkpt>
      <trkpt lat="44.90386" lon="0.71886">
        <ele>196.5</ele>
        <time>2023-04-10T07:11:54Z</time>
      </trkpt>
      <trkpt lat="44.90381" lon="0.71891">
        <ele>196.4</ele>
        <time>2023-04-10T07:11:56Z</time>
      </trkpt>
      <trkpt lat="44.90379" lon="0.71894">
        <ele>196.3</ele>
        <time>2023-04-10T07:11:57Z</time>
      </trkpt>
      <trkpt lat="44.90375" lon="0.71896">
        <ele>196.2</ele>
        <time>2023-04-10T07:11:58Z</time>
      </trkpt>
      <trkpt lat="44.90369" lon="0.71902">
        <ele>195.9</ele>
        <time>2023-04-10T07:12:00Z</time>
      </trkpt>
      <trkpt lat="44.90365" lon="0.71906">
        <ele>195.8</ele>
        <time>2023-04-10T07:12:01Z</time>
      </trkpt>
      <trkpt lat="44.9036" lon="0.7191">
        <ele>195.7</ele>
        <time>2023-04-10T07:12:02Z</time>
      </trkpt>
      <trkpt lat="44.90352" lon="0.71919">
        <ele>195.4</ele>
        <time>2023-04-10T07:12:04Z</time>
      </trkpt>
      <trkpt lat="44.90344" lon="0.71929">
        <ele>195.3</ele>
        <time>2023-04-10T07:12:06Z</time>
      </trkpt>
      <trkpt lat="44.9034" lon="0.71934">
        <ele>195.2</ele>
        <time>2023-04-10T07:12:07Z</time>
      </trkpt>
      <trkpt lat="44.90336" lon="0.71939">
        <ele>195.2</ele>
        <time>2023-04-10T07:12:08Z</time>
      </trkpt>
      <trkpt lat="44.90328" lon="0.71948">
        <ele>195</ele>
        <time>2023-04-10T07:12:10Z</time>
      </trkpt>
      <trkpt lat="44.90324" lon="0.71953">
        <ele>194.9</ele>
        <time>2023-04-10T07:12:11Z</time>
      </trkpt>
      <trkpt lat="44.9032" lon="0.71958">
        <ele>194.9</ele>
        <time>2023-04-10T07:12:12Z</time>
      </trkpt>
      <trkpt lat="44.90311" lon="0.71968">
        <ele>194.8</ele>
        <time>2023-04-10T07:12:14Z</time>
      </trkpt>
      <trkpt lat="44.90305" lon="0.71977">
        <ele>194.7</ele>
        <time>2023-04-10T07:12:16Z</time>
      </trkpt>
      <trkpt lat="44.90297" lon="0.71986">
        <ele>194.6</ele>
        <time>2023-04-10T07:12:18Z</time>
      </trkpt>
      <trkpt lat="44.90289" lon="0.71996">
        <ele>194.5</ele>
        <time>2023-04-10T07:12:20Z</time>
      </trkpt>
      <trkpt lat="44.90281" lon="0.72005">
        <ele>194.4</ele>
        <time>2023-04-10T07:12:22Z</time>
      </trkpt>
      <trkpt lat="44.90274" lon="0.72012">
        <ele>194.5</ele>
        <time>2023-04-10T07:12:24Z</time>
      </trkpt>
      <trkpt lat="44.9027" lon="0.72016">
        <ele>194.5</ele>
        <time>2023-04-10T07:12:25Z</time>
      </trkpt>
      <trkpt lat="44.90266" lon="0.72022">
        <ele>194.4</ele>
        <time>2023-04-10T07:12:26Z</time>
      </trkpt>
      <trkpt lat="44.90263" lon="0.72028">
        <ele>194.4</ele>
        <time>2023-04-10T07:12:27Z</time>
      </trkpt>
      <trkpt lat="44.90262" lon="0.72032">
        <ele>194.4</ele>
        <time>2023-04-10T07:12:28Z</time>
      </trkpt>
      <trkpt lat="44.90259" lon="0.72039">
        <ele>194.3</ele>
        <time>2023-04-10T07:12:30Z</time>
      </trkpt>
      <trkpt lat="44.90255" lon="0.72046">
        <ele>194.2</ele>
        <time>2023-04-10T07:12:32Z</time>
      </trkpt>
      <trkpt lat="44.90257" lon="0.72052">
        <ele>194.2</ele>
        <time>2023-04-10T07:12:34Z</time>
      </trkpt>
      <trkpt lat="44.90259" lon="0.72053">
        <ele>194.9</ele>
        <time>2023-04-10T07:12:36Z</time>
      </trkpt>
      <trkpt lat="44.9026" lon="0.72054">
        <ele>194.9</ele>
        <time>2023-04-10T07:12:38Z</time>
      </trkpt>
      <trkpt lat="44.9026" lon="0.72054">
        <ele>194.9</ele>
        <time>2023-04-10T07:12:40Z</time>
      </trkpt>
      <trkpt lat="44.90262" lon="0.72053">
        <ele>194.9</ele>
        <time>2023-04-10T07:12:41Z</time>
      </trkpt>
      <trkpt lat="44.90263" lon="0.72052">
        <ele>194.9</ele>
        <time>2023-04-10T07:12:42Z</time>
      </trkpt>
      <trkpt lat="44.9027" lon="0.72048">
        <ele>195.4</ele>
        <time>2023-04-10T07:12:44Z</time>
      </trkpt>
      <trkpt lat="44.90273" lon="0.72046">
        <ele>195.4</ele>
        <time>2023-04-10T07:12:45Z</time>
      </trkpt>
      <trkpt lat="44.90275" lon="0.72046">
        <ele>194.5</ele>
        <time>2023-04-10T07:12:46Z</time>
      </trkpt>
      <trkpt lat="44.90276" lon="0.72046">
        <ele>194.5</ele>
        <time>2023-04-10T07:12:47Z</time>
      </trkpt>
      <trkpt lat="44.90278" lon="0.72046">
        <ele>194.5</ele>
        <time>2023-04-10T07:12:48Z</time>
      </trkpt>
      <trkpt lat="44.90282" lon="0.72045">
        <ele>194.5</ele>
        <time>2023-04-10T07:12:50Z</time>
      </trkpt>
      <trkpt lat="44.90284" lon="0.72045">
        <ele>195.2</ele>
        <time>2023-04-10T07:12:52Z</time>
      </trkpt>
      <trkpt lat="44.90288" lon="0.72047">
        <ele>196.2</ele>
        <time>2023-04-10T07:12:54Z</time>
      </trkpt>
      <trkpt lat="44.90289" lon="0.72047">
        <ele>196.2</ele>
        <time>2023-04-10T07:12:55Z</time>
      </trkpt>
      <trkpt lat="44.90317" lon="0.72045">
        <ele>197.7</ele>
        <time>2023-04-10T07:13:06Z</time>
      </trkpt>
      <trkpt lat="44.9032" lon="0.72047">
        <ele>199.9</ele>
        <time>2023-04-10T07:13:08Z</time>
      </trkpt>
      <trkpt lat="44.90325" lon="0.72049">
        <ele>199.9</ele>
        <time>2023-04-10T07:13:10Z</time>
      </trkpt>
      <trkpt lat="44.90329" lon="0.7205">
        <ele>199.9</ele>
        <time>2023-04-10T07:13:12Z</time>
      </trkpt>
      <trkpt lat="44.90336" lon="0.72049">
        <ele>201</ele>
        <time>2023-04-10T07:13:14Z</time>
      </trkpt>
      <trkpt lat="44.90341" lon="0.7205">
        <ele>201</ele>
        <time>2023-04-10T07:13:16Z</time>
      </trkpt>
      <trkpt lat="44.90344" lon="0.72053">
        <ele>201.7</ele>
        <time>2023-04-10T07:13:18Z</time>
      </trkpt>
      <trkpt lat="44.90347" lon="0.72055">
        <ele>201.7</ele>
        <time>2023-04-10T07:13:20Z</time>
      </trkpt>
      <trkpt lat="44.90353" lon="0.72055">
        <ele>201.7</ele>
        <time>2023-04-10T07:13:22Z</time>
      </trkpt>
      <trkpt lat="44.90358" lon="0.72056">
        <ele>202</ele>
        <time>2023-04-10T07:13:24Z</time>
      </trkpt>
      <trkpt lat="44.9036" lon="0.72058">
        <ele>202</ele>
        <time>2023-04-10T07:13:25Z</time>
      </trkpt>
      <trkpt lat="44.90365" lon="0.72058">
        <ele>202</ele>
        <time>2023-04-10T07:13:26Z</time>
      </trkpt>
      <trkpt lat="44.9037" lon="0.72061">
        <ele>202.1</ele>
        <time>2023-04-10T07:13:28Z</time>
      </trkpt>
      <trkpt lat="44.90372" lon="0.72062">
        <ele>202.1</ele>
        <time>2023-04-10T07:13:29Z</time>
      </trkpt>
      <trkpt lat="44.90377" lon="0.72064">
        <ele>202.6</ele>
        <time>2023-04-10T07:13:30Z</time>
      </trkpt>
      <trkpt lat="44.90384" lon="0.72067">
        <ele>202.5</ele>
        <time>2023-04-10T07:13:32Z</time>
      </trkpt>
      <trkpt lat="44.90387" lon="0.72069">
        <ele>202.5</ele>
        <time>2023-04-10T07:13:33Z</time>
      </trkpt>
      <trkpt lat="44.90392" lon="0.7207">
        <ele>202.3</ele>
        <time>2023-04-10T07:13:34Z</time>
      </trkpt>
      <trkpt lat="44.90396" lon="0.7207">
        <ele>202.3</ele>
        <time>2023-04-10T07:13:35Z</time>
      </trkpt>
      <trkpt lat="44.904" lon="0.72074">
        <ele>202.3</ele>
        <time>2023-04-10T07:13:36Z</time>
      </trkpt>
      <trkpt lat="44.90402" lon="0.72079">
        <ele>202.3</ele>
        <time>2023-04-10T07:13:37Z</time>
      </trkpt>
      <trkpt lat="44.90405" lon="0.72084">
        <ele>202.4</ele>
        <time>2023-04-10T07:13:38Z</time>
      </trkpt>
      <trkpt lat="44.90409" lon="0.72093">
        <ele>202.4</ele>
        <time>2023-04-10T07:13:40Z</time>
      </trkpt>
      <trkpt lat="44.90417" lon="0.72102">
        <ele>202.1</ele>
        <time>2023-04-10T07:13:42Z</time>
      </trkpt>
      <trkpt lat="44.90426" lon="0.72112">
        <ele>202.1</ele>
        <time>2023-04-10T07:13:44Z</time>
      </trkpt>
      <trkpt lat="44.90432" lon="0.72123">
        <ele>202</ele>
        <time>2023-04-10T07:13:46Z</time>
      </trkpt>
      <trkpt lat="44.90438" lon="0.7213">
        <ele>202</ele>
        <time>2023-04-10T07:13:48Z</time>
      </trkpt>
      <trkpt lat="44.9044" lon="0.72134">
        <ele>201.9</ele>
        <time>2023-04-10T07:13:49Z</time>
      </trkpt>
      <trkpt lat="44.90441" lon="0.72137">
        <ele>201.8</ele>
        <time>2023-04-10T07:13:50Z</time>
      </trkpt>
      <trkpt lat="44.90441" lon="0.72141">
        <ele>201.8</ele>
        <time>2023-04-10T07:13:51Z</time>
      </trkpt>
      <trkpt lat="44.90442" lon="0.72144">
        <ele>201.8</ele>
        <time>2023-04-10T07:13:52Z</time>
      </trkpt>
      <trkpt lat="44.90442" lon="0.72149">
        <ele>201.9</ele>
        <time>2023-04-10T07:13:54Z</time>
      </trkpt>
      <trkpt lat="44.9044" lon="0.72155">
        <ele>201.9</ele>
        <time>2023-04-10T07:13:56Z</time>
      </trkpt>
      <trkpt lat="44.90437" lon="0.72163">
        <ele>201.9</ele>
        <time>2023-04-10T07:13:58Z</time>
      </trkpt>
      <trkpt lat="44.90434" lon="0.72169">
        <ele>201.6</ele>
        <time>2023-04-10T07:14:00Z</time>
      </trkpt>
      <trkpt lat="44.9043" lon="0.72173">
        <ele>201.6</ele>
        <time>2023-04-10T07:14:01Z</time>
      </trkpt>
      <trkpt lat="44.90428" lon="0.72177">
        <ele>201.7</ele>
        <time>2023-04-10T07:14:02Z</time>
      </trkpt>
      <trkpt lat="44.90421" lon="0.72185">
        <ele>201</ele>
        <time>2023-04-10T07:14:04Z</time>
      </trkpt>
      <trkpt lat="44.90417" lon="0.72189">
        <ele>201</ele>
        <time>2023-04-10T07:14:06Z</time>
      </trkpt>
      <trkpt lat="44.90417" lon="0.7219">
        <ele>201</ele>
        <time>2023-04-10T07:14:07Z</time>
      </trkpt>
      <trkpt lat="44.90415" lon="0.7219">
        <ele>201</ele>
        <time>2023-04-10T07:14:08Z</time>
      </trkpt>
      <trkpt lat="44.90426" lon="0.72184">
        <ele>201.7</ele>
        <time>2023-04-10T07:14:10Z</time>
      </trkpt>
      <trkpt lat="44.90423" lon="0.72182">
        <ele>201.7</ele>
        <time>2023-04-10T07:14:12Z</time>
      </trkpt>
      <trkpt lat="44.90417" lon="0.72182">
        <ele>201.7</ele>
        <time>2023-04-10T07:14:14Z</time>
      </trkpt>
      <trkpt lat="44.90414" lon="0.72181">
        <ele>201.9</ele>
        <time>2023-04-10T07:14:15Z</time>
      </trkpt>
      <trkpt lat="44.90412" lon="0.72181">
        <ele>201.9</ele>
        <time>2023-04-10T07:14:16Z</time>
      </trkpt>
      <trkpt lat="44.90407" lon="0.72181">
        <ele>201.9</ele>
        <time>2023-04-10T07:14:18Z</time>
      </trkpt>
      <trkpt lat="44.90405" lon="0.7218">
        <ele>201.9</ele>
        <time>2023-04-10T07:14:19Z</time>
      </trkpt>
      <trkpt lat="44.90401" lon="0.72181">
        <ele>202.1</ele>
        <time>2023-04-10T07:14:20Z</time>
      </trkpt>
      <trkpt lat="44.90393" lon="0.72185">
        <ele>201.1</ele>
        <time>2023-04-10T07:14:22Z</time>
      </trkpt>
      <trkpt lat="44.90384" lon="0.72189">
        <ele>201.4</ele>
        <time>2023-04-10T07:14:24Z</time>
      </trkpt>
      <trkpt lat="44.90378" lon="0.72192">
        <ele>201.9</ele>
        <time>2023-04-10T07:14:25Z</time>
      </trkpt>
      <trkpt lat="44.90374" lon="0.72194">
        <ele>201.9</ele>
        <time>2023-04-10T07:14:26Z</time>
      </trkpt>
      <trkpt lat="44.90366" lon="0.72199">
        <ele>202.6</ele>
        <time>2023-04-10T07:14:28Z</time>
      </trkpt>
      <trkpt lat="44.90363" lon="0.72201">
        <ele>201.4</ele>
        <time>2023-04-10T07:14:29Z</time>
      </trkpt>
      <trkpt lat="44.90361" lon="0.72204">
        <ele>201.4</ele>
        <time>2023-04-10T07:14:30Z</time>
      </trkpt>
      <trkpt lat="44.90357" lon="0.72209">
        <ele>201.4</ele>
        <time>2023-04-10T07:14:32Z</time>
      </trkpt>
      <trkpt lat="44.90354" lon="0.72214">
        <ele>202.2</ele>
        <time>2023-04-10T07:14:34Z</time>
      </trkpt>
      <trkpt lat="44.9035" lon="0.72221">
        <ele>201</ele>
        <time>2023-04-10T07:14:36Z</time>
      </trkpt>
      <trkpt lat="44.90347" lon="0.72228">
        <ele>201.1</ele>
        <time>2023-04-10T07:14:38Z</time>
      </trkpt>
      <trkpt lat="44.90345" lon="0.72237">
        <ele>199.9</ele>
        <time>2023-04-10T07:14:40Z</time>
      </trkpt>
      <trkpt lat="44.90343" lon="0.72246">
        <ele>199.9</ele>
        <time>2023-04-10T07:14:42Z</time>
      </trkpt>
      <trkpt lat="44.90342" lon="0.72254">
        <ele>200.1</ele>
        <time>2023-04-10T07:14:44Z</time>
      </trkpt>
      <trkpt lat="44.9034" lon="0.72262">
        <ele>200.1</ele>
        <time>2023-04-10T07:14:46Z</time>
      </trkpt>
      <trkpt lat="44.90339" lon="0.72268">
        <ele>200.1</ele>
        <time>2023-04-10T07:14:48Z</time>
      </trkpt>
      <trkpt lat="44.90337" lon="0.72273">
        <ele>199.3</ele>
        <time>2023-04-10T07:14:49Z</time>
      </trkpt>
      <trkpt lat="44.90335" lon="0.72278">
        <ele>199.3</ele>
        <time>2023-04-10T07:14:50Z</time>
      </trkpt>
      <trkpt lat="44.90331" lon="0.72284">
        <ele>199.3</ele>
        <time>2023-04-10T07:14:52Z</time>
      </trkpt>
      <trkpt lat="44.90329" lon="0.72287">
        <ele>200.1</ele>
        <time>2023-04-10T07:14:53Z</time>
      </trkpt>
      <trkpt lat="44.90326" lon="0.72291">
        <ele>200.1</ele>
        <time>2023-04-10T07:14:54Z</time>
      </trkpt>
      <trkpt lat="44.90321" lon="0.72298">
        <ele>200.2</ele>
        <time>2023-04-10T07:14:56Z</time>
      </trkpt>
      <trkpt lat="44.90318" lon="0.72302">
        <ele>201.1</ele>
        <time>2023-04-10T07:14:57Z</time>
      </trkpt>
      <trkpt lat="44.90316" lon="0.72306">
        <ele>200.7</ele>
        <time>2023-04-10T07:14:58Z</time>
      </trkpt>
      <trkpt lat="44.90312" lon="0.72315">
        <ele>200.7</ele>
        <time>2023-04-10T07:15:00Z</time>
      </trkpt>
      <trkpt lat="44.90311" lon="0.7232">
        <ele>200.7</ele>
        <time>2023-04-10T07:15:01Z</time>
      </trkpt>
      <trkpt lat="44.9031" lon="0.72325">
        <ele>200.3</ele>
        <time>2023-04-10T07:15:02Z</time>
      </trkpt>
      <trkpt lat="44.9031" lon="0.72333">
        <ele>200.3</ele>
        <time>2023-04-10T07:15:03Z</time>
      </trkpt>
      <trkpt lat="44.9031" lon="0.72339">
        <ele>199.8</ele>
        <time>2023-04-10T07:15:04Z</time>
      </trkpt>
      <trkpt lat="44.90309" lon="0.72353">
        <ele>199.9</ele>
        <time>2023-04-10T07:15:06Z</time>
      </trkpt>
      <trkpt lat="44.90308" lon="0.72361">
        <ele>199.3</ele>
        <time>2023-04-10T07:15:07Z</time>
      </trkpt>
      <trkpt lat="44.90308" lon="0.72369">
        <ele>199.3</ele>
        <time>2023-04-10T07:15:08Z</time>
      </trkpt>
      <trkpt lat="44.90308" lon="0.72383">
        <ele>198.6</ele>
        <time>2023-04-10T07:15:10Z</time>
      </trkpt>
      <trkpt lat="44.90309" lon="0.7239">
        <ele>197.9</ele>
        <time>2023-04-10T07:15:11Z</time>
      </trkpt>
      <trkpt lat="44.90309" lon="0.72397">
        <ele>197.9</ele>
        <time>2023-04-10T07:15:12Z</time>
      </trkpt>
      <trkpt lat="44.90309" lon="0.72405">
        <ele>197.9</ele>
        <time>2023-04-10T07:15:13Z</time>
      </trkpt>
      <trkpt lat="44.90308" lon="0.72412">
        <ele>197.4</ele>
        <time>2023-04-10T07:15:14Z</time>
      </trkpt>
      <trkpt lat="44.90306" lon="0.72428">
        <ele>198.1</ele>
        <time>2023-04-10T07:15:16Z</time>
      </trkpt>
      <trkpt lat="44.90307" lon="0.72442">
        <ele>197.5</ele>
        <time>2023-04-10T07:15:18Z</time>
      </trkpt>
      <trkpt lat="44.9031" lon="0.72447">
        <ele>197.7</ele>
        <time>2023-04-10T07:15:19Z</time>
      </trkpt>
      <trkpt lat="44.90312" lon="0.72452">
        <ele>197.8</ele>
        <time>2023-04-10T07:15:20Z</time>
      </trkpt>
      <trkpt lat="44.90317" lon="0.72456">
        <ele>198</ele>
        <time>2023-04-10T07:15:21Z</time>
      </trkpt>
      <trkpt lat="44.90322" lon="0.72461">
        <ele>197.9</ele>
        <time>2023-04-10T07:15:22Z</time>
      </trkpt>
      <trkpt lat="44.90327" lon="0.72467">
        <ele>197.7</ele>
        <time>2023-04-10T07:15:23Z</time>
      </trkpt>
      <trkpt lat="44.90332" lon="0.72473">
        <ele>197.5</ele>
        <time>2023-04-10T07:15:24Z</time>
      </trkpt>
      <trkpt lat="44.90336" lon="0.72481">
        <ele>197.2</ele>
        <time>2023-04-10T07:15:25Z</time>
      </trkpt>
      <trkpt lat="44.90339" lon="0.7249">
        <ele>196.8</ele>
        <time>2023-04-10T07:15:26Z</time>
      </trkpt>
      <trkpt lat="44.90344" lon="0.72498">
        <ele>196.3</ele>
        <time>2023-04-10T07:15:27Z</time>
      </trkpt>
      <trkpt lat="44.90349" lon="0.72507">
        <ele>195.7</ele>
        <time>2023-04-10T07:15:28Z</time>
      </trkpt>
      <trkpt lat="44.90353" lon="0.72517">
        <ele>194.9</ele>
        <time>2023-04-10T07:15:29Z</time>
      </trkpt>
      <trkpt lat="44.90359" lon="0.72527">
        <ele>193.9</ele>
        <time>2023-04-10T07:15:30Z</time>
      </trkpt>
      <trkpt lat="44.90374" lon="0.72546">
        <ele>191.2</ele>
        <time>2023-04-10T07:15:32Z</time>
      </trkpt>
      <trkpt lat="44.90382" lon="0.72556">
        <ele>189.9</ele>
        <time>2023-04-10T07:15:33Z</time>
      </trkpt>
      <trkpt lat="44.90391" lon="0.72565">
        <ele>188.6</ele>
        <time>2023-04-10T07:15:34Z</time>
      </trkpt>
      <trkpt lat="44.90407" lon="0.72582">
        <ele>186.4</ele>
        <time>2023-04-10T07:15:36Z</time>
      </trkpt>
      <trkpt lat="44.90416" lon="0.7259">
        <ele>185.3</ele>
        <time>2023-04-10T07:15:37Z</time>
      </trkpt>
      <trkpt lat="44.90425" lon="0.72598">
        <ele>184.3</ele>
        <time>2023-04-10T07:15:38Z</time>
      </trkpt>
      <trkpt lat="44.90441" lon="0.72614">
        <ele>183</ele>
        <time>2023-04-10T07:15:40Z</time>
      </trkpt>
      <trkpt lat="44.90457" lon="0.72629">
        <ele>182.1</ele>
        <time>2023-04-10T07:15:42Z</time>
      </trkpt>
      <trkpt lat="44.90473" lon="0.72646">
        <ele>180.7</ele>
        <time>2023-04-10T07:15:44Z</time>
      </trkpt>
      <trkpt lat="44.90493" lon="0.72663">
        <ele>178</ele>
        <time>2023-04-10T07:15:46Z</time>
      </trkpt>
      <trkpt lat="44.90511" lon="0.72682">
        <ele>175.7</ele>
        <time>2023-04-10T07:15:48Z</time>
      </trkpt>
      <trkpt lat="44.9053" lon="0.72698">
        <ele>174.4</ele>
        <time>2023-04-10T07:15:50Z</time>
      </trkpt>
      <trkpt lat="44.90549" lon="0.72713">
        <ele>172.9</ele>
        <time>2023-04-10T07:15:52Z</time>
      </trkpt>
      <trkpt lat="44.90567" lon="0.72727">
        <ele>171.6</ele>
        <time>2023-04-10T07:15:54Z</time>
      </trkpt>
      <trkpt lat="44.90576" lon="0.72733">
        <ele>171</ele>
        <time>2023-04-10T07:15:55Z</time>
      </trkpt>
      <trkpt lat="44.90587" lon="0.72737">
        <ele>170.4</ele>
        <time>2023-04-10T07:15:56Z</time>
      </trkpt>
      <trkpt lat="44.90608" lon="0.72743">
        <ele>169.1</ele>
        <time>2023-04-10T07:15:58Z</time>
      </trkpt>
      <trkpt lat="44.90627" lon="0.72754">
        <ele>167.7</ele>
        <time>2023-04-10T07:16:00Z</time>
      </trkpt>
      <trkpt lat="44.90645" lon="0.72765">
        <ele>166.3</ele>
        <time>2023-04-10T07:16:02Z</time>
      </trkpt>
      <trkpt lat="44.90663" lon="0.72775">
        <ele>165</ele>
        <time>2023-04-10T07:16:04Z</time>
      </trkpt>
      <trkpt lat="44.90672" lon="0.72779">
        <ele>164.5</ele>
        <time>2023-04-10T07:16:05Z</time>
      </trkpt>
      <trkpt lat="44.90682" lon="0.72783">
        <ele>164.1</ele>
        <time>2023-04-10T07:16:06Z</time>
      </trkpt>
      <trkpt lat="44.907" lon="0.72789">
        <ele>163.5</ele>
        <time>2023-04-10T07:16:08Z</time>
      </trkpt>
      <trkpt lat="44.90716" lon="0.72797">
        <ele>163.1</ele>
        <time>2023-04-10T07:16:10Z</time>
      </trkpt>
      <trkpt lat="44.90724" lon="0.72801">
        <ele>162.9</ele>
        <time>2023-04-10T07:16:11Z</time>
      </trkpt>
      <trkpt lat="44.90732" lon="0.72803">
        <ele>162.8</ele>
        <time>2023-04-10T07:16:12Z</time>
      </trkpt>
      <trkpt lat="44.90748" lon="0.72802">
        <ele>162.4</ele>
        <time>2023-04-10T07:16:14Z</time>
      </trkpt>
      <trkpt lat="44.90766" lon="0.72795">
        <ele>161.7</ele>
        <time>2023-04-10T07:16:16Z</time>
      </trkpt>
      <trkpt lat="44.90782" lon="0.72787">
        <ele>160.7</ele>
        <time>2023-04-10T07:16:18Z</time>
      </trkpt>
      <trkpt lat="44.9079" lon="0.72783">
        <ele>160.3</ele>
        <time>2023-04-10T07:16:19Z</time>
      </trkpt>
      <trkpt lat="44.90798" lon="0.72781">
        <ele>159.8</ele>
        <time>2023-04-10T07:16:20Z</time>
      </trkpt>
      <trkpt lat="44.90807" lon="0.72779">
        <ele>159.3</ele>
        <time>2023-04-10T07:16:21Z</time>
      </trkpt>
      <trkpt lat="44.90815" lon="0.72778">
        <ele>158.8</ele>
        <time>2023-04-10T07:16:22Z</time>
      </trkpt>
      <trkpt lat="44.90824" lon="0.72778">
        <ele>158.3</ele>
        <time>2023-04-10T07:16:23Z</time>
      </trkpt>
      <trkpt lat="44.90832" lon="0.7278">
        <ele>158</ele>
        <time>2023-04-10T07:16:24Z</time>
      </trkpt>
      <trkpt lat="44.90848" lon="0.72786">
        <ele>157.3</ele>
        <time>2023-04-10T07:16:26Z</time>
      </trkpt>
      <trkpt lat="44.90856" lon="0.7279">
        <ele>157</ele>
        <time>2023-04-10T07:16:27Z</time>
      </trkpt>
      <trkpt lat="44.90864" lon="0.72794">
        <ele>156.7</ele>
        <time>2023-04-10T07:16:28Z</time>
      </trkpt>
      <trkpt lat="44.90878" lon="0.72803">
        <ele>156.2</ele>
        <time>2023-04-10T07:16:30Z</time>
      </trkpt>
      <trkpt lat="44.90893" lon="0.72813">
        <ele>155.9</ele>
        <time>2023-04-10T07:16:32Z</time>
      </trkpt>
      <trkpt lat="44.909" lon="0.72817">
        <ele>155.8</ele>
        <time>2023-04-10T07:16:33Z</time>
      </trkpt>
      <trkpt lat="44.90908" lon="0.72821">
        <ele>155.6</ele>
        <time>2023-04-10T07:16:34Z</time>
      </trkpt>
      <trkpt lat="44.90924" lon="0.72827">
        <ele>155.1</ele>
        <time>2023-04-10T07:16:36Z</time>
      </trkpt>
      <trkpt lat="44.90941" lon="0.72832">
        <ele>154.3</ele>
        <time>2023-04-10T07:16:38Z</time>
      </trkpt>
      <trkpt lat="44.90949" lon="0.72834">
        <ele>153.9</ele>
        <time>2023-04-10T07:16:39Z</time>
      </trkpt>
      <trkpt lat="44.90957" lon="0.72835">
        <ele>153.6</ele>
        <time>2023-04-10T07:16:40Z</time>
      </trkpt>
      <trkpt lat="44.90966" lon="0.72836">
        <ele>153.2</ele>
        <time>2023-04-10T07:16:41Z</time>
      </trkpt>
      <trkpt lat="44.90974" lon="0.72835">
        <ele>152.9</ele>
        <time>2023-04-10T07:16:42Z</time>
      </trkpt>
      <trkpt lat="44.90983" lon="0.72831">
        <ele>152.6</ele>
        <time>2023-04-10T07:16:43Z</time>
      </trkpt>
      <trkpt lat="44.90991" lon="0.72827">
        <ele>152.3</ele>
        <time>2023-04-10T07:16:44Z</time>
      </trkpt>
      <trkpt lat="44.91005" lon="0.72818">
        <ele>151.8</ele>
        <time>2023-04-10T07:16:46Z</time>
      </trkpt>
      <trkpt lat="44.91012" lon="0.72815">
        <ele>151.6</ele>
        <time>2023-04-10T07:16:47Z</time>
      </trkpt>
      <trkpt lat="44.91019" lon="0.72816">
        <ele>151.4</ele>
        <time>2023-04-10T07:16:48Z</time>
      </trkpt>
      <trkpt lat="44.91026" lon="0.72819">
        <ele>151.1</ele>
        <time>2023-04-10T07:16:49Z</time>
      </trkpt>
      <trkpt lat="44.91032" lon="0.72823">
        <ele>150.9</ele>
        <time>2023-04-10T07:16:50Z</time>
      </trkpt>
      <trkpt lat="44.91044" lon="0.72834">
        <ele>150.1</ele>
        <time>2023-04-10T07:16:52Z</time>
      </trkpt>
      <trkpt lat="44.91058" lon="0.72838">
        <ele>149.3</ele>
        <time>2023-04-10T07:16:54Z</time>
      </trkpt>
      <trkpt lat="44.91066" lon="0.72841">
        <ele>148.8</ele>
        <time>2023-04-10T07:16:55Z</time>
      </trkpt>
      <trkpt lat="44.91074" lon="0.72844">
        <ele>148.2</ele>
        <time>2023-04-10T07:16:56Z</time>
      </trkpt>
      <trkpt lat="44.9109" lon="0.72847">
        <ele>147.2</ele>
        <time>2023-04-10T07:16:58Z</time>
      </trkpt>
      <trkpt lat="44.91098" lon="0.72849">
        <ele>146.8</ele>
        <time>2023-04-10T07:16:59Z</time>
      </trkpt>
      <trkpt lat="44.91106" lon="0.72852">
        <ele>146.4</ele>
        <time>2023-04-10T07:17:00Z</time>
      </trkpt>
      <trkpt lat="44.91121" lon="0.72858">
        <ele>145.5</ele>
        <time>2023-04-10T07:17:02Z</time>
      </trkpt>
      <trkpt lat="44.91136" lon="0.72864">
        <ele>144.4</ele>
        <time>2023-04-10T07:17:04Z</time>
      </trkpt>
      <trkpt lat="44.91141" lon="0.72868">
        <ele>144</ele>
        <time>2023-04-10T07:17:05Z</time>
      </trkpt>
      <trkpt lat="44.91143" lon="0.72874">
        <ele>143.6</ele>
        <time>2023-04-10T07:17:06Z</time>
      </trkpt>
      <trkpt lat="44.91144" lon="0.72886">
        <ele>142.9</ele>
        <time>2023-04-10T07:17:08Z</time>
      </trkpt>
      <trkpt lat="44.91139" lon="0.729">
        <ele>142</ele>
        <time>2023-04-10T07:17:10Z</time>
      </trkpt>
      <trkpt lat="44.91133" lon="0.72915">
        <ele>141.4</ele>
        <time>2023-04-10T07:17:12Z</time>
      </trkpt>
      <trkpt lat="44.91132" lon="0.72932">
        <ele>141.2</ele>
        <time>2023-04-10T07:17:14Z</time>
      </trkpt>
      <trkpt lat="44.91133" lon="0.7294">
        <ele>141.2</ele>
        <time>2023-04-10T07:17:15Z</time>
      </trkpt>
      <trkpt lat="44.91136" lon="0.72946">
        <ele>141.2</ele>
        <time>2023-04-10T07:17:16Z</time>
      </trkpt>
      <trkpt lat="44.91142" lon="0.72957">
        <ele>141.2</ele>
        <time>2023-04-10T07:17:18Z</time>
      </trkpt>
      <trkpt lat="44.91144" lon="0.72962">
        <ele>141.2</ele>
        <time>2023-04-10T07:17:19Z</time>
      </trkpt>
      <trkpt lat="44.91147" lon="0.72969">
        <ele>141.3</ele>
        <time>2023-04-10T07:17:20Z</time>
      </trkpt>
      <trkpt lat="44.91153" lon="0.72985">
        <ele>141.4</ele>
        <time>2023-04-10T07:17:22Z</time>
      </trkpt>
      <trkpt lat="44.91155" lon="0.72995">
        <ele>141.4</ele>
        <time>2023-04-10T07:17:23Z</time>
      </trkpt>
      <trkpt lat="44.91156" lon="0.73004">
        <ele>141.2</ele>
        <time>2023-04-10T07:17:24Z</time>
      </trkpt>
      <trkpt lat="44.91159" lon="0.73025">
        <ele>140.4</ele>
        <time>2023-04-10T07:17:26Z</time>
      </trkpt>
      <trkpt lat="44.91163" lon="0.73044">
        <ele>139.4</ele>
        <time>2023-04-10T07:17:28Z</time>
      </trkpt>
      <trkpt lat="44.91167" lon="0.73054">
        <ele>138.9</ele>
        <time>2023-04-10T07:17:29Z</time>
      </trkpt>
      <trkpt lat="44.91172" lon="0.73064">
        <ele>138.3</ele>
        <time>2023-04-10T07:17:30Z</time>
      </trkpt>
      <trkpt lat="44.91178" lon="0.73074">
        <ele>137.9</ele>
        <time>2023-04-10T07:17:31Z</time>
      </trkpt>
      <trkpt lat="44.91184" lon="0.73083">
        <ele>137.6</ele>
        <time>2023-04-10T07:17:32Z</time>
      </trkpt>
      <trkpt lat="44.91194" lon="0.73102">
        <ele>137.2</ele>
        <time>2023-04-10T07:17:34Z</time>
      </trkpt>
      <trkpt lat="44.91199" lon="0.73108">
        <ele>137.2</ele>
        <time>2023-04-10T07:17:35Z</time>
      </trkpt>
      <trkpt lat="44.91205" lon="0.73112">
        <ele>137.1</ele>
        <time>2023-04-10T07:17:36Z</time>
      </trkpt>
      <trkpt lat="44.91219" lon="0.73115">
        <ele>137</ele>
        <time>2023-04-10T07:17:38Z</time>
      </trkpt>
      <trkpt lat="44.91226" lon="0.73115">
        <ele>137</ele>
        <time>2023-04-10T07:17:39Z</time>
      </trkpt>
      <trkpt lat="44.91234" lon="0.73114">
        <ele>137.1</ele>
        <time>2023-04-10T07:17:40Z</time>
      </trkpt>
      <trkpt lat="44.91246" lon="0.73114">
        <ele>137.3</ele>
        <time>2023-04-10T07:17:42Z</time>
      </trkpt>
      <trkpt lat="44.91251" lon="0.73115">
        <ele>137.4</ele>
        <time>2023-04-10T07:17:43Z</time>
      </trkpt>
      <trkpt lat="44.91256" lon="0.73116">
        <ele>137.5</ele>
        <time>2023-04-10T07:17:44Z</time>
      </trkpt>
      <trkpt lat="44.9126" lon="0.73116">
        <ele>137.7</ele>
        <time>2023-04-10T07:17:45Z</time>
      </trkpt>
      <trkpt lat="44.91265" lon="0.73118">
        <ele>137.8</ele>
        <time>2023-04-10T07:17:46Z</time>
      </trkpt>
      <trkpt lat="44.9127" lon="0.73119">
        <ele>137.9</ele>
        <time>2023-04-10T07:17:47Z</time>
      </trkpt>
      <trkpt lat="44.91274" lon="0.73121">
        <ele>138.1</ele>
        <time>2023-04-10T07:17:48Z</time>
      </trkpt>
      <trkpt lat="44.91281" lon="0.73125">
        <ele>138.3</ele>
        <time>2023-04-10T07:17:50Z</time>
      </trkpt>
      <trkpt lat="44.91289" lon="0.73128">
        <ele>138.5</ele>
        <time>2023-04-10T07:17:52Z</time>
      </trkpt>
      <trkpt lat="44.91295" lon="0.73131">
        <ele>138.6</ele>
        <time>2023-04-10T07:17:54Z</time>
      </trkpt>
      <trkpt lat="44.913" lon="0.73135">
        <ele>138.8</ele>
        <time>2023-04-10T07:17:56Z</time>
      </trkpt>
      <trkpt lat="44.91302" lon="0.73138">
        <ele>138.9</ele>
        <time>2023-04-10T07:17:57Z</time>
      </trkpt>
      <trkpt lat="44.91304" lon="0.73141">
        <ele>139</ele>
        <time>2023-04-10T07:17:58Z</time>
      </trkpt>
      <trkpt lat="44.91308" lon="0.73143">
        <ele>139.2</ele>
        <time>2023-04-10T07:18:00Z</time>
      </trkpt>
      <trkpt lat="44.91311" lon="0.73144">
        <ele>139.5</ele>
        <time>2023-04-10T07:18:01Z</time>
      </trkpt>
      <trkpt lat="44.91313" lon="0.73143">
        <ele>139.7</ele>
        <time>2023-04-10T07:18:02Z</time>
      </trkpt>
      <trkpt lat="44.91315" lon="0.73143">
        <ele>139.9</ele>
        <time>2023-04-10T07:18:03Z</time>
      </trkpt>
      <trkpt lat="44.91316" lon="0.73143">
        <ele>140</ele>
        <time>2023-04-10T07:18:04Z</time>
      </trkpt>
      <trkpt lat="44.91319" lon="0.73143">
        <ele>140.3</ele>
        <time>2023-04-10T07:18:05Z</time>
      </trkpt>
      <trkpt lat="44.9132" lon="0.73142">
        <ele>140.4</ele>
        <time>2023-04-10T07:18:06Z</time>
      </trkpt>
      <trkpt lat="44.91325" lon="0.7314">
        <ele>140.8</ele>
        <time>2023-04-10T07:18:08Z</time>
      </trkpt>
      <trkpt lat="44.91327" lon="0.73138">
        <ele>141</ele>
        <time>2023-04-10T07:18:09Z</time>
      </trkpt>
      <trkpt lat="44.91328" lon="0.73137">
        <ele>141.2</ele>
        <time>2023-04-10T07:18:10Z</time>
      </trkpt>
      <trkpt lat="44.9133" lon="0.73137">
        <ele>141.3</ele>
        <time>2023-04-10T07:18:11Z</time>
      </trkpt>
      <trkpt lat="44.91333" lon="0.73135">
        <ele>141.6</ele>
        <time>2023-04-10T07:18:13Z</time>
      </trkpt>
      <trkpt lat="44.91335" lon="0.73134">
        <ele>141.7</ele>
        <time>2023-04-10T07:18:14Z</time>
      </trkpt>
      <trkpt lat="44.91339" lon="0.73133">
        <ele>142</ele>
        <time>2023-04-10T07:18:16Z</time>
      </trkpt>
      <trkpt lat="44.91342" lon="0.73132">
        <ele>142.3</ele>
        <time>2023-04-10T07:18:18Z</time>
      </trkpt>
      <trkpt lat="44.91345" lon="0.73132">
        <ele>142.5</ele>
        <time>2023-04-10T07:18:20Z</time>
      </trkpt>
      <trkpt lat="44.9135" lon="0.73132">
        <ele>142.8</ele>
        <time>2023-04-10T07:18:22Z</time>
      </trkpt>
      <trkpt lat="44.91354" lon="0.73133">
        <ele>143.1</ele>
        <time>2023-04-10T07:18:24Z</time>
      </trkpt>
      <trkpt lat="44.91357" lon="0.73134">
        <ele>143.4</ele>
        <time>2023-04-10T07:18:26Z</time>
      </trkpt>
      <trkpt lat="44.91361" lon="0.73136">
        <ele>143.6</ele>
        <time>2023-04-10T07:18:28Z</time>
      </trkpt>
      <trkpt lat="44.91365" lon="0.73136">
        <ele>143.9</ele>
        <time>2023-04-10T07:18:30Z</time>
      </trkpt>
      <trkpt lat="44.91366" lon="0.73137">
        <ele>144</ele>
        <time>2023-04-10T07:18:31Z</time>
      </trkpt>
      <trkpt lat="44.91368" lon="0.73138">
        <ele>144.2</ele>
        <time>2023-04-10T07:18:32Z</time>
      </trkpt>
      <trkpt lat="44.9137" lon="0.73139">
        <ele>144.4</ele>
        <time>2023-04-10T07:18:33Z</time>
      </trkpt>
      <trkpt lat="44.91373" lon="0.7314">
        <ele>144.6</ele>
        <time>2023-04-10T07:18:34Z</time>
      </trkpt>
      <trkpt lat="44.91375" lon="0.73142">
        <ele>144.8</ele>
        <time>2023-04-10T07:18:36Z</time>
      </trkpt>
      <trkpt lat="44.91379" lon="0.73144">
        <ele>145.1</ele>
        <time>2023-04-10T07:18:38Z</time>
      </trkpt>
      <trkpt lat="44.91382" lon="0.73147">
        <ele>145.4</ele>
        <time>2023-04-10T07:18:40Z</time>
      </trkpt>
      <trkpt lat="44.91382" lon="0.73149">
        <ele>145.5</ele>
        <time>2023-04-10T07:18:41Z</time>
      </trkpt>
      <trkpt lat="44.91384" lon="0.73151">
        <ele>145.6</ele>
        <time>2023-04-10T07:18:42Z</time>
      </trkpt>
      <trkpt lat="44.91386" lon="0.73155">
        <ele>145.9</ele>
        <time>2023-04-10T07:18:44Z</time>
      </trkpt>
      <trkpt lat="44.91385" lon="0.73159">
        <ele>146.1</ele>
        <time>2023-04-10T07:18:45Z</time>
      </trkpt>
      <trkpt lat="44.91388" lon="0.7316">
        <ele>146.3</ele>
        <time>2023-04-10T07:18:46Z</time>
      </trkpt>
      <trkpt lat="44.91387" lon="0.73164">
        <ele>146.5</ele>
        <time>2023-04-10T07:18:47Z</time>
      </trkpt>
      <trkpt lat="44.91387" lon="0.73166">
        <ele>146.7</ele>
        <time>2023-04-10T07:18:48Z</time>
      </trkpt>
      <trkpt lat="44.91388" lon="0.73171">
        <ele>146.9</ele>
        <time>2023-04-10T07:18:50Z</time>
      </trkpt>
      <trkpt lat="44.91389" lon="0.73174">
        <ele>147.1</ele>
        <time>2023-04-10T07:18:52Z</time>
      </trkpt>
      <trkpt lat="44.91388" lon="0.73179">
        <ele>147.4</ele>
        <time>2023-04-10T07:18:54Z</time>
      </trkpt>
      <trkpt lat="44.91388" lon="0.73181">
        <ele>147.5</ele>
        <time>2023-04-10T07:18:55Z</time>
      </trkpt>
      <trkpt lat="44.91389" lon="0.73183">
        <ele>147.6</ele>
        <time>2023-04-10T07:18:56Z</time>
      </trkpt>
      <trkpt lat="44.9139" lon="0.73187">
        <ele>147.9</ele>
        <time>2023-04-10T07:18:58Z</time>
      </trkpt>
      <trkpt lat="44.91391" lon="0.73191">
        <ele>148.1</ele>
        <time>2023-04-10T07:19:00Z</time>
      </trkpt>
      <trkpt lat="44.9139" lon="0.73196">
        <ele>148.4</ele>
        <time>2023-04-10T07:19:02Z</time>
      </trkpt>
      <trkpt lat="44.9139" lon="0.73202">
        <ele>148.7</ele>
        <time>2023-04-10T07:19:04Z</time>
      </trkpt>
      <trkpt lat="44.9139" lon="0.73208">
        <ele>149</ele>
        <time>2023-04-10T07:19:06Z</time>
      </trkpt>
      <trkpt lat="44.91391" lon="0.73214">
        <ele>149.2</ele>
        <time>2023-04-10T07:19:08Z</time>
      </trkpt>
      <trkpt lat="44.91391" lon="0.73219">
        <ele>149.5</ele>
        <time>2023-04-10T07:19:10Z</time>
      </trkpt>
      <trkpt lat="44.91392" lon="0.73223">
        <ele>149.7</ele>
        <time>2023-04-10T07:19:12Z</time>
      </trkpt>
      <trkpt lat="44.91394" lon="0.73228">
        <ele>150</ele>
        <time>2023-04-10T07:19:14Z</time>
      </trkpt>
      <trkpt lat="44.91396" lon="0.73233">
        <ele>150.2</ele>
        <time>2023-04-10T07:19:16Z</time>
      </trkpt>
      <trkpt lat="44.91396" lon="0.73235">
        <ele>150.4</ele>
        <time>2023-04-10T07:19:17Z</time>
      </trkpt>
      <trkpt lat="44.91396" lon="0.73237">
        <ele>150.5</ele>
        <time>2023-04-10T07:19:18Z</time>
      </trkpt>
      <trkpt lat="44.91397" lon="0.73241">
        <ele>150.7</ele>
        <time>2023-04-10T07:19:20Z</time>
      </trkpt>
      <trkpt lat="44.914" lon="0.73245">
        <ele>151</ele>
        <time>2023-04-10T07:19:22Z</time>
      </trkpt>
      <trkpt lat="44.91401" lon="0.73249">
        <ele>151.2</ele>
        <time>2023-04-10T07:19:24Z</time>
      </trkpt>
      <trkpt lat="44.91401" lon="0.73254">
        <ele>151.5</ele>
        <time>2023-04-10T07:19:26Z</time>
      </trkpt>
      <trkpt lat="44.914" lon="0.73259">
        <ele>151.7</ele>
        <time>2023-04-10T07:19:28Z</time>
      </trkpt>
      <trkpt lat="44.91401" lon="0.73262">
        <ele>151.9</ele>
        <time>2023-04-10T07:19:30Z</time>
      </trkpt>
      <trkpt lat="44.914" lon="0.73268">
        <ele>152.3</ele>
        <time>2023-04-10T07:19:32Z</time>
      </trkpt>
      <trkpt lat="44.91402" lon="0.73272">
        <ele>152.6</ele>
        <time>2023-04-10T07:19:34Z</time>
      </trkpt>
      <trkpt lat="44.91404" lon="0.73276">
        <ele>152.9</ele>
        <time>2023-04-10T07:19:36Z</time>
      </trkpt>
      <trkpt lat="44.91406" lon="0.73279">
        <ele>153.1</ele>
        <time>2023-04-10T07:19:38Z</time>
      </trkpt>
      <trkpt lat="44.91406" lon="0.73284">
        <ele>153.4</ele>
        <time>2023-04-10T07:19:40Z</time>
      </trkpt>
      <trkpt lat="44.91406" lon="0.73286">
        <ele>153.6</ele>
        <time>2023-04-10T07:19:41Z</time>
      </trkpt>
      <trkpt lat="44.91404" lon="0.73291">
        <ele>153.9</ele>
        <time>2023-04-10T07:19:42Z</time>
      </trkpt>
      <trkpt lat="44.914" lon="0.73299">
        <ele>154.6</ele>
        <time>2023-04-10T07:19:44Z</time>
      </trkpt>
      <trkpt lat="44.91398" lon="0.73302">
        <ele>154.8</ele>
        <time>2023-04-10T07:19:45Z</time>
      </trkpt>
      <trkpt lat="44.91401" lon="0.73303">
        <ele>155.1</ele>
        <time>2023-04-10T07:19:46Z</time>
      </trkpt>
      <trkpt lat="44.91403" lon="0.73307">
        <ele>155.5</ele>
        <time>2023-04-10T07:19:48Z</time>
      </trkpt>
      <trkpt lat="44.91408" lon="0.7331">
        <ele>155.9</ele>
        <time>2023-04-10T07:19:50Z</time>
      </trkpt>
      <trkpt lat="44.91413" lon="0.73312">
        <ele>156.4</ele>
        <time>2023-04-10T07:19:52Z</time>
      </trkpt>
      <trkpt lat="44.91417" lon="0.73315">
        <ele>156.8</ele>
        <time>2023-04-10T07:19:54Z</time>
      </trkpt>
      <trkpt lat="44.91419" lon="0.73318">
        <ele>157.1</ele>
        <time>2023-04-10T07:19:56Z</time>
      </trkpt>
      <trkpt lat="44.91421" lon="0.7332">
        <ele>157.3</ele>
        <time>2023-04-10T07:19:58Z</time>
      </trkpt>
      <trkpt lat="44.91423" lon="0.73324">
        <ele>157.6</ele>
        <time>2023-04-10T07:20:00Z</time>
      </trkpt>
      <trkpt lat="44.91425" lon="0.73327">
        <ele>157.9</ele>
        <time>2023-04-10T07:20:02Z</time>
      </trkpt>
      <trkpt lat="44.91427" lon="0.73331">
        <ele>158.2</ele>
        <time>2023-04-10T07:20:04Z</time>
      </trkpt>
      <trkpt lat="44.91429" lon="0.73335">
        <ele>158.5</ele>
        <time>2023-04-10T07:20:06Z</time>
      </trkpt>
      <trkpt lat="44.91431" lon="0.73338">
        <ele>158.9</ele>
        <time>2023-04-10T07:20:08Z</time>
      </trkpt>
      <trkpt lat="44.91431" lon="0.7334">
        <ele>159</ele>
        <time>2023-04-10T07:20:09Z</time>
      </trkpt>
      <trkpt lat="44.91432" lon="0.73342">
        <ele>159.2</ele>
        <time>2023-04-10T07:20:10Z</time>
      </trkpt>
      <trkpt lat="44.91434" lon="0.73345">
        <ele>159.4</ele>
        <time>2023-04-10T07:20:12Z</time>
      </trkpt>
      <trkpt lat="44.91435" lon="0.73349">
        <ele>159.8</ele>
        <time>2023-04-10T07:20:14Z</time>
      </trkpt>
      <trkpt lat="44.91436" lon="0.73351">
        <ele>159.9</ele>
        <time>2023-04-10T07:20:15Z</time>
      </trkpt>
      <trkpt lat="44.91437" lon="0.73352">
        <ele>160.1</ele>
        <time>2023-04-10T07:20:16Z</time>
      </trkpt>
      <trkpt lat="44.9144" lon="0.73354">
        <ele>160.4</ele>
        <time>2023-04-10T07:20:18Z</time>
      </trkpt>
      <trkpt lat="44.91443" lon="0.73357">
        <ele>160.7</ele>
        <time>2023-04-10T07:20:20Z</time>
      </trkpt>
      <trkpt lat="44.91446" lon="0.73361">
        <ele>161.2</ele>
        <time>2023-04-10T07:20:22Z</time>
      </trkpt>
      <trkpt lat="44.91449" lon="0.73363">
        <ele>161.6</ele>
        <time>2023-04-10T07:20:24Z</time>
      </trkpt>
      <trkpt lat="44.91452" lon="0.73365">
        <ele>161.9</ele>
        <time>2023-04-10T07:20:26Z</time>
      </trkpt>
      <trkpt lat="44.91454" lon="0.73367">
        <ele>162.2</ele>
        <time>2023-04-10T07:20:28Z</time>
      </trkpt>
      <trkpt lat="44.91465" lon="0.73376">
        <ele>163.5</ele>
        <time>2023-04-10T07:20:41Z</time>
      </trkpt>
      <trkpt lat="44.91465" lon="0.73379">
        <ele>163.7</ele>
        <time>2023-04-10T07:20:42Z</time>
      </trkpt>
      <trkpt lat="44.91465" lon="0.73381">
        <ele>163.9</ele>
        <time>2023-04-10T07:20:43Z</time>
      </trkpt>
      <trkpt lat="44.91465" lon="0.73383">
        <ele>164</ele>
        <time>2023-04-10T07:20:44Z</time>
      </trkpt>
      <trkpt lat="44.91467" lon="0.73385">
        <ele>164.3</ele>
        <time>2023-04-10T07:20:46Z</time>
      </trkpt>
      <trkpt lat="44.91471" lon="0.73386">
        <ele>164.9</ele>
        <time>2023-04-10T07:20:48Z</time>
      </trkpt>
      <trkpt lat="44.91473" lon="0.73385">
        <ele>165.1</ele>
        <time>2023-04-10T07:20:49Z</time>
      </trkpt>
      <trkpt lat="44.91475" lon="0.73385">
        <ele>165.3</ele>
        <time>2023-04-10T07:20:50Z</time>
      </trkpt>
      <trkpt lat="44.91478" lon="0.73386">
        <ele>165.8</ele>
        <time>2023-04-10T07:20:51Z</time>
      </trkpt>
      <trkpt lat="44.9148" lon="0.73386">
        <ele>166</ele>
        <time>2023-04-10T07:20:52Z</time>
      </trkpt>
      <trkpt lat="44.91488" lon="0.73389">
        <ele>167</ele>
        <time>2023-04-10T07:20:54Z</time>
      </trkpt>
      <trkpt lat="44.91491" lon="0.73389">
        <ele>167.3</ele>
        <time>2023-04-10T07:20:55Z</time>
      </trkpt>
      <trkpt lat="44.91493" lon="0.7339">
        <ele>167.6</ele>
        <time>2023-04-10T07:20:56Z</time>
      </trkpt>
      <trkpt lat="44.91498" lon="0.7339">
        <ele>168.2</ele>
        <time>2023-04-10T07:20:58Z</time>
      </trkpt>
      <trkpt lat="44.91503" lon="0.7339">
        <ele>168.7</ele>
        <time>2023-04-10T07:21:00Z</time>
      </trkpt>
      <trkpt lat="44.91509" lon="0.73388">
        <ele>169.3</ele>
        <time>2023-04-10T07:21:02Z</time>
      </trkpt>
      <trkpt lat="44.91514" lon="0.73386">
        <ele>169.8</ele>
        <time>2023-04-10T07:21:04Z</time>
      </trkpt>
      <trkpt lat="44.91519" lon="0.73386">
        <ele>170.2</ele>
        <time>2023-04-10T07:21:06Z</time>
      </trkpt>
      <trkpt lat="44.9152" lon="0.73386">
        <ele>170.4</ele>
        <time>2023-04-10T07:21:07Z</time>
      </trkpt>
      <trkpt lat="44.91522" lon="0.73386">
        <ele>170.6</ele>
        <time>2023-04-10T07:21:08Z</time>
      </trkpt>
      <trkpt lat="44.91526" lon="0.73387">
        <ele>170.9</ele>
        <time>2023-04-10T07:21:10Z</time>
      </trkpt>
      <trkpt lat="44.91527" lon="0.73388">
        <ele>171</ele>
        <time>2023-04-10T07:21:11Z</time>
      </trkpt>
      <trkpt lat="44.91528" lon="0.73389">
        <ele>171.2</ele>
        <time>2023-04-10T07:21:12Z</time>
      </trkpt>
      <trkpt lat="44.9153" lon="0.73389">
        <ele>171.3</ele>
        <time>2023-04-10T07:21:13Z</time>
      </trkpt>
      <trkpt lat="44.91558" lon="0.73404">
        <ele>174.1</ele>
        <time>2023-04-10T07:21:28Z</time>
      </trkpt>
      <trkpt lat="44.91563" lon="0.73406">
        <ele>174.4</ele>
        <time>2023-04-10T07:21:30Z</time>
      </trkpt>
      <trkpt lat="44.91566" lon="0.73409">
        <ele>174.7</ele>
        <time>2023-04-10T07:21:32Z</time>
      </trkpt>
      <trkpt lat="44.91567" lon="0.73411">
        <ele>174.9</ele>
        <time>2023-04-10T07:21:33Z</time>
      </trkpt>
      <trkpt lat="44.91594" lon="0.73426">
        <ele>177.1</ele>
        <time>2023-04-10T07:21:48Z</time>
      </trkpt>
      <trkpt lat="44.91596" lon="0.73427">
        <ele>177.3</ele>
        <time>2023-04-10T07:21:49Z</time>
      </trkpt>
      <trkpt lat="44.91598" lon="0.73428">
        <ele>177.5</ele>
        <time>2023-04-10T07:21:50Z</time>
      </trkpt>
      <trkpt lat="44.91601" lon="0.7343">
        <ele>177.9</ele>
        <time>2023-04-10T07:21:52Z</time>
      </trkpt>
      <trkpt lat="44.91604" lon="0.73434">
        <ele>178.3</ele>
        <time>2023-04-10T07:21:54Z</time>
      </trkpt>
      <trkpt lat="44.91608" lon="0.73436">
        <ele>178.7</ele>
        <time>2023-04-10T07:21:56Z</time>
      </trkpt>
      <trkpt lat="44.91608" lon="0.73438">
        <ele>178.9</ele>
        <time>2023-04-10T07:21:57Z</time>
      </trkpt>
      <trkpt lat="44.9161" lon="0.73439">
        <ele>179</ele>
        <time>2023-04-10T07:21:58Z</time>
      </trkpt>
      <trkpt lat="44.91612" lon="0.73439">
        <ele>179.2</ele>
        <time>2023-04-10T07:21:59Z</time>
      </trkpt>
      <trkpt lat="44.91613" lon="0.7344">
        <ele>179.3</ele>
        <time>2023-04-10T07:22:00Z</time>
      </trkpt>
      <trkpt lat="44.91616" lon="0.73442">
        <ele>179.7</ele>
        <time>2023-04-10T07:22:02Z</time>
      </trkpt>
      <trkpt lat="44.9162" lon="0.73445">
        <ele>180</ele>
        <time>2023-04-10T07:22:04Z</time>
      </trkpt>
      <trkpt lat="44.91623" lon="0.73446">
        <ele>180.3</ele>
        <time>2023-04-10T07:22:06Z</time>
      </trkpt>
      <trkpt lat="44.91627" lon="0.73447">
        <ele>180.6</ele>
        <time>2023-04-10T07:22:08Z</time>
      </trkpt>
      <trkpt lat="44.91628" lon="0.73447">
        <ele>180.7</ele>
        <time>2023-04-10T07:22:09Z</time>
      </trkpt>
      <trkpt lat="44.91629" lon="0.73448">
        <ele>180.9</ele>
        <time>2023-04-10T07:22:10Z</time>
      </trkpt>
      <trkpt lat="44.91629" lon="0.73448">
        <ele>180.9</ele>
        <time>2023-04-10T07:22:11Z</time>
      </trkpt>
      <trkpt lat="44.91638" lon="0.73449">
        <ele>181.5</ele>
        <time>2023-04-10T07:22:15Z</time>
      </trkpt>
      <trkpt lat="44.9164" lon="0.73449">
        <ele>181.6</ele>
        <time>2023-04-10T07:22:16Z</time>
      </trkpt>
      <trkpt lat="44.91643" lon="0.73445">
        <ele>181.9</ele>
        <time>2023-04-10T07:22:18Z</time>
      </trkpt>
      <trkpt lat="44.91649" lon="0.73439">
        <ele>182.3</ele>
        <time>2023-04-10T07:22:20Z</time>
      </trkpt>
      <trkpt lat="44.91653" lon="0.73433">
        <ele>182.3</ele>
        <time>2023-04-10T07:22:22Z</time>
      </trkpt>
      <trkpt lat="44.91654" lon="0.73426">
        <ele>182.4</ele>
        <time>2023-04-10T07:22:24Z</time>
      </trkpt>
      <trkpt lat="44.91655" lon="0.73424">
        <ele>182.4</ele>
        <time>2023-04-10T07:22:25Z</time>
      </trkpt>
      <trkpt lat="44.91655" lon="0.73421">
        <ele>182.4</ele>
        <time>2023-04-10T07:22:26Z</time>
      </trkpt>
      <trkpt lat="44.91654" lon="0.73414">
        <ele>182.4</ele>
        <time>2023-04-10T07:22:28Z</time>
      </trkpt>
      <trkpt lat="44.91654" lon="0.73411">
        <ele>182.4</ele>
        <time>2023-04-10T07:22:29Z</time>
      </trkpt>
      <trkpt lat="44.91654" lon="0.73408">
        <ele>182.5</ele>
        <time>2023-04-10T07:22:30Z</time>
      </trkpt>
      <trkpt lat="44.91654" lon="0.73402">
        <ele>182.5</ele>
        <time>2023-04-10T07:22:32Z</time>
      </trkpt>
      <trkpt lat="44.91654" lon="0.73396">
        <ele>182.6</ele>
        <time>2023-04-10T07:22:34Z</time>
      </trkpt>
      <trkpt lat="44.91655" lon="0.73388">
        <ele>182.7</ele>
        <time>2023-04-10T07:22:36Z</time>
      </trkpt>
      <trkpt lat="44.91655" lon="0.73384">
        <ele>182.7</ele>
        <time>2023-04-10T07:22:37Z</time>
      </trkpt>
      <trkpt lat="44.91655" lon="0.73381">
        <ele>182.8</ele>
        <time>2023-04-10T07:22:38Z</time>
      </trkpt>
      <trkpt lat="44.91655" lon="0.73373">
        <ele>183</ele>
        <time>2023-04-10T07:22:40Z</time>
      </trkpt>
      <trkpt lat="44.91655" lon="0.73366">
        <ele>183.1</ele>
        <time>2023-04-10T07:22:42Z</time>
      </trkpt>
      <trkpt lat="44.91655" lon="0.73358">
        <ele>183.4</ele>
        <time>2023-04-10T07:22:44Z</time>
      </trkpt>
      <trkpt lat="44.91656" lon="0.7335">
        <ele>183.6</ele>
        <time>2023-04-10T07:22:46Z</time>
      </trkpt>
      <trkpt lat="44.91656" lon="0.73342">
        <ele>183.9</ele>
        <time>2023-04-10T07:22:48Z</time>
      </trkpt>
      <trkpt lat="44.91654" lon="0.73335">
        <ele>184.2</ele>
        <time>2023-04-10T07:22:50Z</time>
      </trkpt>
      <trkpt lat="44.91653" lon="0.73327">
        <ele>184.5</ele>
        <time>2023-04-10T07:22:52Z</time>
      </trkpt>
      <trkpt lat="44.91653" lon="0.7332">
        <ele>184.7</ele>
        <time>2023-04-10T07:22:54Z</time>
      </trkpt>
      <trkpt lat="44.91653" lon="0.73312">
        <ele>185</ele>
        <time>2023-04-10T07:22:56Z</time>
      </trkpt>
      <trkpt lat="44.91654" lon="0.73309">
        <ele>185.1</ele>
        <time>2023-04-10T07:22:57Z</time>
      </trkpt>
      <trkpt lat="44.91653" lon="0.73305">
        <ele>185.2</ele>
        <time>2023-04-10T07:22:58Z</time>
      </trkpt>
      <trkpt lat="44.91652" lon="0.73298">
        <ele>185.3</ele>
        <time>2023-04-10T07:23:00Z</time>
      </trkpt>
      <trkpt lat="44.91652" lon="0.73291">
        <ele>185.5</ele>
        <time>2023-04-10T07:23:02Z</time>
      </trkpt>
      <trkpt lat="44.91651" lon="0.73284">
        <ele>185.7</ele>
        <time>2023-04-10T07:23:04Z</time>
      </trkpt>
      <trkpt lat="44.91652" lon="0.7328">
        <ele>185.7</ele>
        <time>2023-04-10T07:23:05Z</time>
      </trkpt>
      <trkpt lat="44.91652" lon="0.73277">
        <ele>185.8</ele>
        <time>2023-04-10T07:23:06Z</time>
      </trkpt>
      <trkpt lat="44.91653" lon="0.73273">
        <ele>185.8</ele>
        <time>2023-04-10T07:23:07Z</time>
      </trkpt>
      <trkpt lat="44.91653" lon="0.73269">
        <ele>185.9</ele>
        <time>2023-04-10T07:23:08Z</time>
      </trkpt>
      <trkpt lat="44.91652" lon="0.73262">
        <ele>186</ele>
        <time>2023-04-10T07:23:10Z</time>
      </trkpt>
      <trkpt lat="44.9165" lon="0.73254">
        <ele>186.1</ele>
        <time>2023-04-10T07:23:12Z</time>
      </trkpt>
      <trkpt lat="44.91647" lon="0.73247">
        <ele>186.2</ele>
        <time>2023-04-10T07:23:14Z</time>
      </trkpt>
      <trkpt lat="44.91645" lon="0.73243">
        <ele>186.3</ele>
        <time>2023-04-10T07:23:15Z</time>
      </trkpt>
      <trkpt lat="44.91644" lon="0.73238">
        <ele>186.3</ele>
        <time>2023-04-10T07:23:16Z</time>
      </trkpt>
      <trkpt lat="44.91641" lon="0.73229">
        <ele>186.5</ele>
        <time>2023-04-10T07:23:18Z</time>
      </trkpt>
      <trkpt lat="44.9164" lon="0.73221">
        <ele>186.6</ele>
        <time>2023-04-10T07:23:20Z</time>
      </trkpt>
      <trkpt lat="44.91639" lon="0.73212">
        <ele>186.7</ele>
        <time>2023-04-10T07:23:22Z</time>
      </trkpt>
      <trkpt lat="44.91638" lon="0.73204">
        <ele>186.8</ele>
        <time>2023-04-10T07:23:24Z</time>
      </trkpt>
      <trkpt lat="44.91637" lon="0.73195">
        <ele>186.8</ele>
        <time>2023-04-10T07:23:26Z</time>
      </trkpt>
      <trkpt lat="44.91635" lon="0.73184">
        <ele>186.9</ele>
        <time>2023-04-10T07:23:28Z</time>
      </trkpt>
      <trkpt lat="44.91633" lon="0.73179">
        <ele>186.9</ele>
        <time>2023-04-10T07:23:29Z</time>
      </trkpt>
      <trkpt lat="44.91631" lon="0.73173">
        <ele>186.9</ele>
        <time>2023-04-10T07:23:30Z</time>
      </trkpt>
      <trkpt lat="44.91627" lon="0.73163">
        <ele>186.9</ele>
        <time>2023-04-10T07:23:32Z</time>
      </trkpt>
      <trkpt lat="44.91624" lon="0.73153">
        <ele>187</ele>
        <time>2023-04-10T07:23:34Z</time>
      </trkpt>
      <trkpt lat="44.91624" lon="0.73148">
        <ele>187</ele>
        <time>2023-04-10T07:23:35Z</time>
      </trkpt>
      <trkpt lat="44.91623" lon="0.73143">
        <ele>187</ele>
        <time>2023-04-10T07:23:36Z</time>
      </trkpt>
      <trkpt lat="44.91622" lon="0.73131">
        <ele>187</ele>
        <time>2023-04-10T07:23:38Z</time>
      </trkpt>
      <trkpt lat="44.91621" lon="0.7312">
        <ele>186.9</ele>
        <time>2023-04-10T07:23:40Z</time>
      </trkpt>
      <trkpt lat="44.91621" lon="0.73115">
        <ele>186.9</ele>
        <time>2023-04-10T07:23:41Z</time>
      </trkpt>
      <trkpt lat="44.91621" lon="0.7311">
        <ele>186.9</ele>
        <time>2023-04-10T07:23:42Z</time>
      </trkpt>
      <trkpt lat="44.9162" lon="0.731">
        <ele>186.9</ele>
        <time>2023-04-10T07:23:44Z</time>
      </trkpt>
      <trkpt lat="44.9162" lon="0.73095">
        <ele>186.9</ele>
        <time>2023-04-10T07:23:45Z</time>
      </trkpt>
      <trkpt lat="44.91619" lon="0.73089">
        <ele>186.8</ele>
        <time>2023-04-10T07:23:46Z</time>
      </trkpt>
      <trkpt lat="44.91619" lon="0.73077">
        <ele>186.7</ele>
        <time>2023-04-10T07:23:48Z</time>
      </trkpt>
      <trkpt lat="44.91619" lon="0.73071">
        <ele>186.6</ele>
        <time>2023-04-10T07:23:49Z</time>
      </trkpt>
      <trkpt lat="44.91618" lon="0.73064">
        <ele>186.5</ele>
        <time>2023-04-10T07:23:50Z</time>
      </trkpt>
      <trkpt lat="44.91615" lon="0.7305">
        <ele>186.3</ele>
        <time>2023-04-10T07:23:52Z</time>
      </trkpt>
      <trkpt lat="44.91615" lon="0.73043">
        <ele>186.2</ele>
        <time>2023-04-10T07:23:53Z</time>
      </trkpt>
      <trkpt lat="44.91614" lon="0.73037">
        <ele>186.1</ele>
        <time>2023-04-10T07:23:54Z</time>
      </trkpt>
      <trkpt lat="44.91613" lon="0.73029">
        <ele>186.1</ele>
        <time>2023-04-10T07:23:55Z</time>
      </trkpt>
      <trkpt lat="44.91613" lon="0.73022">
        <ele>186.1</ele>
        <time>2023-04-10T07:23:56Z</time>
      </trkpt>
      <trkpt lat="44.91613" lon="0.7301">
        <ele>186.1</ele>
        <time>2023-04-10T07:23:58Z</time>
      </trkpt>
      <trkpt lat="44.91613" lon="0.72997">
        <ele>186.3</ele>
        <time>2023-04-10T07:24:00Z</time>
      </trkpt>
      <trkpt lat="44.91613" lon="0.7299">
        <ele>186.3</ele>
        <time>2023-04-10T07:24:01Z</time>
      </trkpt>
      <trkpt lat="44.91611" lon="0.72983">
        <ele>186.4</ele>
        <time>2023-04-10T07:24:02Z</time>
      </trkpt>
      <trkpt lat="44.91611" lon="0.72977">
        <ele>186.4</ele>
        <time>2023-04-10T07:24:03Z</time>
      </trkpt>
      <trkpt lat="44.91612" lon="0.72972">
        <ele>186.5</ele>
        <time>2023-04-10T07:24:04Z</time>
      </trkpt>
      <trkpt lat="44.91611" lon="0.72967">
        <ele>186.6</ele>
        <time>2023-04-10T07:24:05Z</time>
      </trkpt>
      <trkpt lat="44.91611" lon="0.72962">
        <ele>186.7</ele>
        <time>2023-04-10T07:24:06Z</time>
      </trkpt>
      <trkpt lat="44.9161" lon="0.72957">
        <ele>186.8</ele>
        <time>2023-04-10T07:24:07Z</time>
      </trkpt>
      <trkpt lat="44.91611" lon="0.72952">
        <ele>186.9</ele>
        <time>2023-04-10T07:24:08Z</time>
      </trkpt>
      <trkpt lat="44.91611" lon="0.72947">
        <ele>187</ele>
        <time>2023-04-10T07:24:09Z</time>
      </trkpt>
      <trkpt lat="44.9161" lon="0.72942">
        <ele>187</ele>
        <time>2023-04-10T07:24:10Z</time>
      </trkpt>
      <trkpt lat="44.91611" lon="0.72937">
        <ele>187.1</ele>
        <time>2023-04-10T07:24:11Z</time>
      </trkpt>
      <trkpt lat="44.91613" lon="0.72933">
        <ele>187.2</ele>
        <time>2023-04-10T07:24:12Z</time>
      </trkpt>
      <trkpt lat="44.91614" lon="0.72923">
        <ele>187.4</ele>
        <time>2023-04-10T07:24:14Z</time>
      </trkpt>
      <trkpt lat="44.91614" lon="0.72919">
        <ele>187.5</ele>
        <time>2023-04-10T07:24:15Z</time>
      </trkpt>
      <trkpt lat="44.91615" lon="0.72914">
        <ele>187.6</ele>
        <time>2023-04-10T07:24:16Z</time>
      </trkpt>
      <trkpt lat="44.91613" lon="0.72904">
        <ele>187.8</ele>
        <time>2023-04-10T07:24:18Z</time>
      </trkpt>
      <trkpt lat="44.91613" lon="0.729">
        <ele>187.9</ele>
        <time>2023-04-10T07:24:19Z</time>
      </trkpt>
      <trkpt lat="44.91614" lon="0.72895">
        <ele>188</ele>
        <time>2023-04-10T07:24:20Z</time>
      </trkpt>
      <trkpt lat="44.91613" lon="0.72887">
        <ele>188.2</ele>
        <time>2023-04-10T07:24:22Z</time>
      </trkpt>
      <trkpt lat="44.91613" lon="0.72882">
        <ele>188.4</ele>
        <time>2023-04-10T07:24:23Z</time>
      </trkpt>
      <trkpt lat="44.91613" lon="0.72877">
        <ele>188.5</ele>
        <time>2023-04-10T07:24:24Z</time>
      </trkpt>
      <trkpt lat="44.91613" lon="0.72868">
        <ele>188.7</ele>
        <time>2023-04-10T07:24:26Z</time>
      </trkpt>
      <trkpt lat="44.91613" lon="0.72863">
        <ele>188.9</ele>
        <time>2023-04-10T07:24:27Z</time>
      </trkpt>
      <trkpt lat="44.91614" lon="0.72857">
        <ele>189</ele>
        <time>2023-04-10T07:24:28Z</time>
      </trkpt>
      <trkpt lat="44.91616" lon="0.72847">
        <ele>189.2</ele>
        <time>2023-04-10T07:24:30Z</time>
      </trkpt>
      <trkpt lat="44.91616" lon="0.72837">
        <ele>189.3</ele>
        <time>2023-04-10T07:24:32Z</time>
      </trkpt>
      <trkpt lat="44.91613" lon="0.72833">
        <ele>189.4</ele>
        <time>2023-04-10T07:24:33Z</time>
      </trkpt>
      <trkpt lat="44.91613" lon="0.72828">
        <ele>189.4</ele>
        <time>2023-04-10T07:24:34Z</time>
      </trkpt>
      <trkpt lat="44.91614" lon="0.72823">
        <ele>189.5</ele>
        <time>2023-04-10T07:24:35Z</time>
      </trkpt>
      <trkpt lat="44.91614" lon="0.72818">
        <ele>189.5</ele>
        <time>2023-04-10T07:24:36Z</time>
      </trkpt>
      <trkpt lat="44.91613" lon="0.72808">
        <ele>189.5</ele>
        <time>2023-04-10T07:24:38Z</time>
      </trkpt>
      <trkpt lat="44.91612" lon="0.72798">
        <ele>189.5</ele>
        <time>2023-04-10T07:24:40Z</time>
      </trkpt>
      <trkpt lat="44.9161" lon="0.72793">
        <ele>189.5</ele>
        <time>2023-04-10T07:24:41Z</time>
      </trkpt>
      <trkpt lat="44.91609" lon="0.72788">
        <ele>189.5</ele>
        <time>2023-04-10T07:24:42Z</time>
      </trkpt>
      <trkpt lat="44.91608" lon="0.72782">
        <ele>189.4</ele>
        <time>2023-04-10T07:24:43Z</time>
      </trkpt>
      <trkpt lat="44.91607" lon="0.72775">
        <ele>189.3</ele>
        <time>2023-04-10T07:24:44Z</time>
      </trkpt>
      <trkpt lat="44.91607" lon="0.7276">
        <ele>189</ele>
        <time>2023-04-10T07:24:46Z</time>
      </trkpt>
      <trkpt lat="44.91608" lon="0.72745">
        <ele>188.6</ele>
        <time>2023-04-10T07:24:48Z</time>
      </trkpt>
      <trkpt lat="44.91609" lon="0.7273">
        <ele>188.2</ele>
        <time>2023-04-10T07:24:50Z</time>
      </trkpt>
      <trkpt lat="44.91611" lon="0.72713">
        <ele>187.6</ele>
        <time>2023-04-10T07:24:52Z</time>
      </trkpt>
      <trkpt lat="44.91612" lon="0.72696">
        <ele>187</ele>
        <time>2023-04-10T07:24:54Z</time>
      </trkpt>
      <trkpt lat="44.91614" lon="0.72677">
        <ele>186.4</ele>
        <time>2023-04-10T07:24:56Z</time>
      </trkpt>
      <trkpt lat="44.91618" lon="0.72658">
        <ele>185.6</ele>
        <time>2023-04-10T07:24:58Z</time>
      </trkpt>
      <trkpt lat="44.91619" lon="0.72643">
        <ele>184.9</ele>
        <time>2023-04-10T07:25:00Z</time>
      </trkpt>
      <trkpt lat="44.91616" lon="0.7264">
        <ele>184.6</ele>
        <time>2023-04-10T07:25:01Z</time>
      </trkpt>
      <trkpt lat="44.91611" lon="0.72637">
        <ele>184.5</ele>
        <time>2023-04-10T07:25:02Z</time>
      </trkpt>
      <trkpt lat="44.91605" lon="0.72633">
        <ele>184.2</ele>
        <time>2023-04-10T07:25:03Z</time>
      </trkpt>
      <trkpt lat="44.91599" lon="0.7263">
        <ele>183.9</ele>
        <time>2023-04-10T07:25:04Z</time>
      </trkpt>
      <trkpt lat="44.91593" lon="0.72626">
        <ele>183.6</ele>
        <time>2023-04-10T07:25:05Z</time>
      </trkpt>
      <trkpt lat="44.91587" lon="0.72622">
        <ele>183.2</ele>
        <time>2023-04-10T07:25:06Z</time>
      </trkpt>
      <trkpt lat="44.91573" lon="0.72613">
        <ele>182.3</ele>
        <time>2023-04-10T07:25:08Z</time>
      </trkpt>
      <trkpt lat="44.91565" lon="0.72608">
        <ele>181.7</ele>
        <time>2023-04-10T07:25:09Z</time>
      </trkpt>
      <trkpt lat="44.91556" lon="0.72602">
        <ele>181</ele>
        <time>2023-04-10T07:25:10Z</time>
      </trkpt>
      <trkpt lat="44.91538" lon="0.72591">
        <ele>178.9</ele>
        <time>2023-04-10T07:25:12Z</time>
      </trkpt>
      <trkpt lat="44.91524" lon="0.72579">
        <ele>177.9</ele>
        <time>2023-04-10T07:25:14Z</time>
      </trkpt>
      <trkpt lat="44.91517" lon="0.72566">
        <ele>177.7</ele>
        <time>2023-04-10T07:25:16Z</time>
      </trkpt>
      <trkpt lat="44.91519" lon="0.72559">
        <ele>177.5</ele>
        <time>2023-04-10T07:25:17Z</time>
      </trkpt>
      <trkpt lat="44.91523" lon="0.72551">
        <ele>177.2</ele>
        <time>2023-04-10T07:25:18Z</time>
      </trkpt>
      <trkpt lat="44.91529" lon="0.72535">
        <ele>176.5</ele>
        <time>2023-04-10T07:25:20Z</time>
      </trkpt>
      <trkpt lat="44.91529" lon="0.72525">
        <ele>176</ele>
        <time>2023-04-10T07:25:21Z</time>
      </trkpt>
      <trkpt lat="44.91529" lon="0.72514">
        <ele>175.3</ele>
        <time>2023-04-10T07:25:22Z</time>
      </trkpt>
      <trkpt lat="44.91527" lon="0.72491">
        <ele>173.4</ele>
        <time>2023-04-10T07:25:24Z</time>
      </trkpt>
      <trkpt lat="44.91527" lon="0.72478">
        <ele>172.5</ele>
        <time>2023-04-10T07:25:25Z</time>
      </trkpt>
      <trkpt lat="44.91527" lon="0.72465">
        <ele>171.5</ele>
        <time>2023-04-10T07:25:26Z</time>
      </trkpt>
      <trkpt lat="44.91528" lon="0.72452">
        <ele>170.5</ele>
        <time>2023-04-10T07:25:27Z</time>
      </trkpt>
      <trkpt lat="44.91532" lon="0.7244">
        <ele>169.6</ele>
        <time>2023-04-10T07:25:28Z</time>
      </trkpt>
      <trkpt lat="44.91542" lon="0.72416">
        <ele>167.7</ele>
        <time>2023-04-10T07:25:30Z</time>
      </trkpt>
      <trkpt lat="44.91553" lon="0.72394">
        <ele>166.7</ele>
        <time>2023-04-10T07:25:32Z</time>
      </trkpt>
      <trkpt lat="44.91563" lon="0.72375">
        <ele>166.9</ele>
        <time>2023-04-10T07:25:34Z</time>
      </trkpt>
      <trkpt lat="44.91567" lon="0.72366">
        <ele>167.3</ele>
        <time>2023-04-10T07:25:35Z</time>
      </trkpt>
      <trkpt lat="44.91571" lon="0.72358">
        <ele>167.8</ele>
        <time>2023-04-10T07:25:36Z</time>
      </trkpt>
      <trkpt lat="44.91575" lon="0.72344">
        <ele>169</ele>
        <time>2023-04-10T07:25:38Z</time>
      </trkpt>
      <trkpt lat="44.91577" lon="0.72333">
        <ele>170.3</ele>
        <time>2023-04-10T07:25:40Z</time>
      </trkpt>
      <trkpt lat="44.91578" lon="0.7233">
        <ele>170.8</ele>
        <time>2023-04-10T07:25:41Z</time>
      </trkpt>
      <trkpt lat="44.91577" lon="0.72326">
        <ele>171.2</ele>
        <time>2023-04-10T07:25:42Z</time>
      </trkpt>
      <trkpt lat="44.91575" lon="0.72323">
        <ele>171.8</ele>
        <time>2023-04-10T07:25:44Z</time>
      </trkpt>
      <trkpt lat="44.91576" lon="0.72318">
        <ele>172.4</ele>
        <time>2023-04-10T07:25:45Z</time>
      </trkpt>
      <trkpt lat="44.91578" lon="0.72314">
        <ele>172.9</ele>
        <time>2023-04-10T07:25:46Z</time>
      </trkpt>
      <trkpt lat="44.91581" lon="0.72305">
        <ele>173.8</ele>
        <time>2023-04-10T07:25:48Z</time>
      </trkpt>
      <trkpt lat="44.91585" lon="0.72296">
        <ele>174.5</ele>
        <time>2023-04-10T07:25:50Z</time>
      </trkpt>
      <trkpt lat="44.91586" lon="0.72292">
        <ele>174.9</ele>
        <time>2023-04-10T07:25:51Z</time>
      </trkpt>
      <trkpt lat="44.91588" lon="0.72288">
        <ele>175.2</ele>
        <time>2023-04-10T07:25:52Z</time>
      </trkpt>
      <trkpt lat="44.91591" lon="0.72279">
        <ele>175.7</ele>
        <time>2023-04-10T07:25:54Z</time>
      </trkpt>
      <trkpt lat="44.91592" lon="0.72275">
        <ele>175.8</ele>
        <time>2023-04-10T07:25:55Z</time>
      </trkpt>
      <trkpt lat="44.91594" lon="0.7227">
        <ele>176</ele>
        <time>2023-04-10T07:25:56Z</time>
      </trkpt>
      <trkpt lat="44.91596" lon="0.72262">
        <ele>176.3</ele>
        <time>2023-04-10T07:25:58Z</time>
      </trkpt>
      <trkpt lat="44.91599" lon="0.72253">
        <ele>176.6</ele>
        <time>2023-04-10T07:26:00Z</time>
      </trkpt>
      <trkpt lat="44.91602" lon="0.72244">
        <ele>176.8</ele>
        <time>2023-04-10T07:26:02Z</time>
      </trkpt>
      <trkpt lat="44.91604" lon="0.72235">
        <ele>176.9</ele>
        <time>2023-04-10T07:26:04Z</time>
      </trkpt>
      <trkpt lat="44.91606" lon="0.7223">
        <ele>176.9</ele>
        <time>2023-04-10T07:26:05Z</time>
      </trkpt>
      <trkpt lat="44.91607" lon="0.72226">
        <ele>176.9</ele>
        <time>2023-04-10T07:26:06Z</time>
      </trkpt>
      <trkpt lat="44.91609" lon="0.72217">
        <ele>176.8</ele>
        <time>2023-04-10T07:26:08Z</time>
      </trkpt>
      <trkpt lat="44.91611" lon="0.72212">
        <ele>176.7</ele>
        <time>2023-04-10T07:26:09Z</time>
      </trkpt>
      <trkpt lat="44.91613" lon="0.72206">
        <ele>176.5</ele>
        <time>2023-04-10T07:26:10Z</time>
      </trkpt>
      <trkpt lat="44.91614" lon="0.722">
        <ele>176.4</ele>
        <time>2023-04-10T07:26:11Z</time>
      </trkpt>
      <trkpt lat="44.91616" lon="0.72194">
        <ele>176.2</ele>
        <time>2023-04-10T07:26:12Z</time>
      </trkpt>
      <trkpt lat="44.91617" lon="0.72189">
        <ele>175.9</ele>
        <time>2023-04-10T07:26:13Z</time>
      </trkpt>
      <trkpt lat="44.91617" lon="0.72185">
        <ele>175.7</ele>
        <time>2023-04-10T07:26:14Z</time>
      </trkpt>
      <trkpt lat="44.9162" lon="0.72176">
        <ele>175.2</ele>
        <time>2023-04-10T07:26:16Z</time>
      </trkpt>
      <trkpt lat="44.91622" lon="0.7217">
        <ele>174.9</ele>
        <time>2023-04-10T07:26:17Z</time>
      </trkpt>
      <trkpt lat="44.91622" lon="0.72165">
        <ele>174.7</ele>
        <time>2023-04-10T07:26:18Z</time>
      </trkpt>
      <trkpt lat="44.91624" lon="0.72154">
        <ele>173.9</ele>
        <time>2023-04-10T07:26:20Z</time>
      </trkpt>
      <trkpt lat="44.91626" lon="0.72146">
        <ele>173.4</ele>
        <time>2023-04-10T07:26:21Z</time>
      </trkpt>
      <trkpt lat="44.91628" lon="0.72138">
        <ele>172.7</ele>
        <time>2023-04-10T07:26:22Z</time>
      </trkpt>
      <trkpt lat="44.91631" lon="0.72124">
        <ele>171.2</ele>
        <time>2023-04-10T07:26:24Z</time>
      </trkpt>
      <trkpt lat="44.91633" lon="0.72116">
        <ele>170.2</ele>
        <time>2023-04-10T07:26:25Z</time>
      </trkpt>
      <trkpt lat="44.91635" lon="0.72109">
        <ele>169.1</ele>
        <time>2023-04-10T07:26:26Z</time>
      </trkpt>
      <trkpt lat="44.91639" lon="0.72092">
        <ele>166.8</ele>
        <time>2023-04-10T07:26:28Z</time>
      </trkpt>
      <trkpt lat="44.91643" lon="0.72074">
        <ele>164.1</ele>
        <time>2023-04-10T07:26:30Z</time>
      </trkpt>
      <trkpt lat="44.91649" lon="0.72058">
        <ele>162</ele>
        <time>2023-04-10T07:26:32Z</time>
      </trkpt>
      <trkpt lat="44.9165" lon="0.72052">
        <ele>161.4</ele>
        <time>2023-04-10T07:26:33Z</time>
      </trkpt>
      <trkpt lat="44.91649" lon="0.72047">
        <ele>160.9</ele>
        <time>2023-04-10T07:26:34Z</time>
      </trkpt>
      <trkpt lat="44.91643" lon="0.72039">
        <ele>159.7</ele>
        <time>2023-04-10T07:26:36Z</time>
      </trkpt>
      <trkpt lat="44.91636" lon="0.72028">
        <ele>158.3</ele>
        <time>2023-04-10T07:26:38Z</time>
      </trkpt>
      <trkpt lat="44.91629" lon="0.72013">
        <ele>156.8</ele>
        <time>2023-04-10T07:26:40Z</time>
      </trkpt>
      <trkpt lat="44.9162" lon="0.71996">
        <ele>155.1</ele>
        <time>2023-04-10T07:26:42Z</time>
      </trkpt>
      <trkpt lat="44.91611" lon="0.71979">
        <ele>153</ele>
        <time>2023-04-10T07:26:44Z</time>
      </trkpt>
      <trkpt lat="44.91606" lon="0.7197">
        <ele>152</ele>
        <time>2023-04-10T07:26:45Z</time>
      </trkpt>
      <trkpt lat="44.91601" lon="0.71962">
        <ele>151.2</ele>
        <time>2023-04-10T07:26:46Z</time>
      </trkpt>
      <trkpt lat="44.91594" lon="0.71955">
        <ele>150.2</ele>
        <time>2023-04-10T07:26:47Z</time>
      </trkpt>
      <trkpt lat="44.91586" lon="0.71951">
        <ele>149.1</ele>
        <time>2023-04-10T07:26:48Z</time>
      </trkpt>
      <trkpt lat="44.91567" lon="0.71947">
        <ele>147.2</ele>
        <time>2023-04-10T07:26:50Z</time>
      </trkpt>
      <trkpt lat="44.91558" lon="0.71947">
        <ele>146.2</ele>
        <time>2023-04-10T07:26:51Z</time>
      </trkpt>
      <trkpt lat="44.91549" lon="0.71947">
        <ele>145.2</ele>
        <time>2023-04-10T07:26:52Z</time>
      </trkpt>
      <trkpt lat="44.9153" lon="0.71946">
        <ele>142.9</ele>
        <time>2023-04-10T07:26:54Z</time>
      </trkpt>
      <trkpt lat="44.91521" lon="0.71945">
        <ele>141.7</ele>
        <time>2023-04-10T07:26:55Z</time>
      </trkpt>
      <trkpt lat="44.91512" lon="0.71945">
        <ele>140.6</ele>
        <time>2023-04-10T07:26:56Z</time>
      </trkpt>
      <trkpt lat="44.91504" lon="0.71944">
        <ele>139.7</ele>
        <time>2023-04-10T07:26:57Z</time>
      </trkpt>
      <trkpt lat="44.91498" lon="0.71942">
        <ele>138.9</ele>
        <time>2023-04-10T07:26:58Z</time>
      </trkpt>
      <trkpt lat="44.91493" lon="0.71936">
        <ele>138.3</ele>
        <time>2023-04-10T07:26:59Z</time>
      </trkpt>
      <trkpt lat="44.91488" lon="0.71929">
        <ele>137.6</ele>
        <time>2023-04-10T07:27:00Z</time>
      </trkpt>
      <trkpt lat="44.91481" lon="0.71913">
        <ele>136.7</ele>
        <time>2023-04-10T07:27:02Z</time>
      </trkpt>
      <trkpt lat="44.91477" lon="0.71905">
        <ele>136.4</ele>
        <time>2023-04-10T07:27:03Z</time>
      </trkpt>
      <trkpt lat="44.91475" lon="0.71898">
        <ele>136.3</ele>
        <time>2023-04-10T07:27:04Z</time>
      </trkpt>
      <trkpt lat="44.91474" lon="0.71892">
        <ele>136.2</ele>
        <time>2023-04-10T07:27:05Z</time>
      </trkpt>
      <trkpt lat="44.9147" lon="0.71886">
        <ele>136.1</ele>
        <time>2023-04-10T07:27:06Z</time>
      </trkpt>
      <trkpt lat="44.91467" lon="0.71879">
        <ele>136.1</ele>
        <time>2023-04-10T07:27:07Z</time>
      </trkpt>
      <trkpt lat="44.91464" lon="0.71872">
        <ele>136</ele>
        <time>2023-04-10T07:27:08Z</time>
      </trkpt>
      <trkpt lat="44.9146" lon="0.71865">
        <ele>136</ele>
        <time>2023-04-10T07:27:09Z</time>
      </trkpt>
      <trkpt lat="44.91459" lon="0.71859">
        <ele>136.1</ele>
        <time>2023-04-10T07:27:10Z</time>
      </trkpt>
      <trkpt lat="44.91461" lon="0.71846">
        <ele>136.2</ele>
        <time>2023-04-10T07:27:12Z</time>
      </trkpt>
      <trkpt lat="44.91467" lon="0.71833">
        <ele>136</ele>
        <time>2023-04-10T07:27:14Z</time>
      </trkpt>
      <trkpt lat="44.91473" lon="0.71821">
        <ele>135.5</ele>
        <time>2023-04-10T07:27:16Z</time>
      </trkpt>
      <trkpt lat="44.91479" lon="0.71807">
        <ele>135</ele>
        <time>2023-04-10T07:27:18Z</time>
      </trkpt>
      <trkpt lat="44.91486" lon="0.71793">
        <ele>134.5</ele>
        <time>2023-04-10T07:27:20Z</time>
      </trkpt>
      <trkpt lat="44.91488" lon="0.71785">
        <ele>134.2</ele>
        <time>2023-04-10T07:27:21Z</time>
      </trkpt>
      <trkpt lat="44.91491" lon="0.71778">
        <ele>133.9</ele>
        <time>2023-04-10T07:27:22Z</time>
      </trkpt>
      <trkpt lat="44.91493" lon="0.7177">
        <ele>133.5</ele>
        <time>2023-04-10T07:27:23Z</time>
      </trkpt>
      <trkpt lat="44.91493" lon="0.71761">
        <ele>133.2</ele>
        <time>2023-04-10T07:27:24Z</time>
      </trkpt>
      <trkpt lat="44.91492" lon="0.71753">
        <ele>133</ele>
        <time>2023-04-10T07:27:25Z</time>
      </trkpt>
      <trkpt lat="44.9149" lon="0.71745">
        <ele>132.7</ele>
        <time>2023-04-10T07:27:26Z</time>
      </trkpt>
      <trkpt lat="44.91488" lon="0.71728">
        <ele>132.2</ele>
        <time>2023-04-10T07:27:28Z</time>
      </trkpt>
      <trkpt lat="44.9149" lon="0.71712">
        <ele>131.8</ele>
        <time>2023-04-10T07:27:30Z</time>
      </trkpt>
      <trkpt lat="44.91494" lon="0.71697">
        <ele>131.4</ele>
        <time>2023-04-10T07:27:32Z</time>
      </trkpt>
      <trkpt lat="44.91496" lon="0.7169">
        <ele>131.3</ele>
        <time>2023-04-10T07:27:33Z</time>
      </trkpt>
      <trkpt lat="44.91498" lon="0.71682">
        <ele>131.1</ele>
        <time>2023-04-10T07:27:34Z</time>
      </trkpt>
      <trkpt lat="44.91499" lon="0.71674">
        <ele>130.9</ele>
        <time>2023-04-10T07:27:35Z</time>
      </trkpt>
      <trkpt lat="44.915" lon="0.71666">
        <ele>130.7</ele>
        <time>2023-04-10T07:27:36Z</time>
      </trkpt>
      <trkpt lat="44.91501" lon="0.7165">
        <ele>130.4</ele>
        <time>2023-04-10T07:27:38Z</time>
      </trkpt>
      <trkpt lat="44.91501" lon="0.71634">
        <ele>130</ele>
        <time>2023-04-10T07:27:40Z</time>
      </trkpt>
      <trkpt lat="44.91501" lon="0.71626">
        <ele>129.9</ele>
        <time>2023-04-10T07:27:41Z</time>
      </trkpt>
      <trkpt lat="44.915" lon="0.71619">
        <ele>129.8</ele>
        <time>2023-04-10T07:27:42Z</time>
      </trkpt>
      <trkpt lat="44.91498" lon="0.71611">
        <ele>129.7</ele>
        <time>2023-04-10T07:27:43Z</time>
      </trkpt>
      <trkpt lat="44.91497" lon="0.71603">
        <ele>129.6</ele>
        <time>2023-04-10T07:27:44Z</time>
      </trkpt>
      <trkpt lat="44.91494" lon="0.71588">
        <ele>129.4</ele>
        <time>2023-04-10T07:27:46Z</time>
      </trkpt>
      <trkpt lat="44.91493" lon="0.7158">
        <ele>129.4</ele>
        <time>2023-04-10T07:27:47Z</time>
      </trkpt>
      <trkpt lat="44.91492" lon="0.71573">
        <ele>129.3</ele>
        <time>2023-04-10T07:27:48Z</time>
      </trkpt>
      <trkpt lat="44.91489" lon="0.71558">
        <ele>129.1</ele>
        <time>2023-04-10T07:27:50Z</time>
      </trkpt>
      <trkpt lat="44.91487" lon="0.71543">
        <ele>129</ele>
        <time>2023-04-10T07:27:52Z</time>
      </trkpt>
      <trkpt lat="44.91485" lon="0.71528">
        <ele>129</ele>
        <time>2023-04-10T07:27:54Z</time>
      </trkpt>
      <trkpt lat="44.91483" lon="0.71514">
        <ele>128.9</ele>
        <time>2023-04-10T07:27:56Z</time>
      </trkpt>
      <trkpt lat="44.9148" lon="0.71501">
        <ele>128.9</ele>
        <time>2023-04-10T07:27:58Z</time>
      </trkpt>
      <trkpt lat="44.91478" lon="0.71494">
        <ele>128.9</ele>
        <time>2023-04-10T07:27:59Z</time>
      </trkpt>
      <trkpt lat="44.91478" lon="0.71487">
        <ele>129</ele>
        <time>2023-04-10T07:28:00Z</time>
      </trkpt>
      <trkpt lat="44.91478" lon="0.71475">
        <ele>129.1</ele>
        <time>2023-04-10T07:28:02Z</time>
      </trkpt>
      <trkpt lat="44.9148" lon="0.71469">
        <ele>129.3</ele>
        <time>2023-04-10T07:28:03Z</time>
      </trkpt>
      <trkpt lat="44.91482" lon="0.71464">
        <ele>129.4</ele>
        <time>2023-04-10T07:28:04Z</time>
      </trkpt>
      <trkpt lat="44.91486" lon="0.71455">
        <ele>129.7</ele>
        <time>2023-04-10T07:28:06Z</time>
      </trkpt>
      <trkpt lat="44.91487" lon="0.71452">
        <ele>129.9</ele>
        <time>2023-04-10T07:28:07Z</time>
      </trkpt>
      <trkpt lat="44.91489" lon="0.71448">
        <ele>130</ele>
        <time>2023-04-10T07:28:08Z</time>
      </trkpt>
      <trkpt lat="44.91493" lon="0.71439">
        <ele>130.5</ele>
        <time>2023-04-10T07:28:10Z</time>
      </trkpt>
      <trkpt lat="44.91498" lon="0.71429">
        <ele>131</ele>
        <time>2023-04-10T07:28:12Z</time>
      </trkpt>
      <trkpt lat="44.915" lon="0.71421">
        <ele>131.3</ele>
        <time>2023-04-10T07:28:14Z</time>
      </trkpt>
      <trkpt lat="44.91503" lon="0.71411">
        <ele>131.6</ele>
        <time>2023-04-10T07:28:16Z</time>
      </trkpt>
      <trkpt lat="44.91504" lon="0.71406">
        <ele>131.7</ele>
        <time>2023-04-10T07:28:17Z</time>
      </trkpt>
      <trkpt lat="44.91505" lon="0.71401">
        <ele>131.8</ele>
        <time>2023-04-10T07:28:18Z</time>
      </trkpt>
      <trkpt lat="44.91507" lon="0.71392">
        <ele>131.9</ele>
        <time>2023-04-10T07:28:20Z</time>
      </trkpt>
      <trkpt lat="44.9151" lon="0.71383">
        <ele>131.9</ele>
        <time>2023-04-10T07:28:22Z</time>
      </trkpt>
      <trkpt lat="44.91514" lon="0.71374">
        <ele>131.7</ele>
        <time>2023-04-10T07:28:24Z</time>
      </trkpt>
      <trkpt lat="44.91518" lon="0.71366">
        <ele>131.6</ele>
        <time>2023-04-10T07:28:26Z</time>
      </trkpt>
      <trkpt lat="44.91523" lon="0.71358">
        <ele>131.5</ele>
        <time>2023-04-10T07:28:28Z</time>
      </trkpt>
      <trkpt lat="44.91527" lon="0.7135">
        <ele>131.4</ele>
        <time>2023-04-10T07:28:30Z</time>
      </trkpt>
      <trkpt lat="44.91532" lon="0.71341">
        <ele>131.1</ele>
        <time>2023-04-10T07:28:32Z</time>
      </trkpt>
      <trkpt lat="44.91534" lon="0.71337">
        <ele>130.9</ele>
        <time>2023-04-10T07:28:33Z</time>
      </trkpt>
      <trkpt lat="44.91537" lon="0.71332">
        <ele>130.7</ele>
        <time>2023-04-10T07:28:34Z</time>
      </trkpt>
      <trkpt lat="44.91541" lon="0.7132">
        <ele>129.9</ele>
        <time>2023-04-10T07:28:36Z</time>
      </trkpt>
      <trkpt lat="44.91544" lon="0.71314">
        <ele>129.5</ele>
        <time>2023-04-10T07:28:37Z</time>
      </trkpt>
      <trkpt lat="44.91547" lon="0.71306">
        <ele>128.9</ele>
        <time>2023-04-10T07:28:38Z</time>
      </trkpt>
      <trkpt lat="44.91553" lon="0.71291">
        <ele>128</ele>
        <time>2023-04-10T07:28:40Z</time>
      </trkpt>
      <trkpt lat="44.91557" lon="0.71276">
        <ele>127.2</ele>
        <time>2023-04-10T07:28:42Z</time>
      </trkpt>
      <trkpt lat="44.91559" lon="0.71268">
        <ele>126.9</ele>
        <time>2023-04-10T07:28:43Z</time>
      </trkpt>
      <trkpt lat="44.9156" lon="0.71261">
        <ele>126.6</ele>
        <time>2023-04-10T07:28:44Z</time>
      </trkpt>
      <trkpt lat="44.91562" lon="0.71253">
        <ele>126.4</ele>
        <time>2023-04-10T07:28:45Z</time>
      </trkpt>
      <trkpt lat="44.91563" lon="0.71247">
        <ele>126.3</ele>
        <time>2023-04-10T07:28:46Z</time>
      </trkpt>
      <trkpt lat="44.91563" lon="0.71243">
        <ele>126.2</ele>
        <time>2023-04-10T07:28:47Z</time>
      </trkpt>
      <trkpt lat="44.91564" lon="0.7124">
        <ele>126.2</ele>
        <time>2023-04-10T07:28:48Z</time>
      </trkpt>
      <trkpt lat="44.91565" lon="0.71237">
        <ele>126.1</ele>
        <time>2023-04-10T07:28:50Z</time>
      </trkpt>
      <trkpt lat="44.91565" lon="0.71237">
        <ele>126.1</ele>
        <time>2023-04-10T07:28:51Z</time>
      </trkpt>
      <trkpt lat="44.91567" lon="0.71234">
        <ele>126.1</ele>
        <time>2023-04-10T07:28:53Z</time>
      </trkpt>
      <trkpt lat="44.9157" lon="0.71233">
        <ele>126.2</ele>
        <time>2023-04-10T07:28:54Z</time>
      </trkpt>
      <trkpt lat="44.91572" lon="0.71231">
        <ele>126.2</ele>
        <time>2023-04-10T07:28:55Z</time>
      </trkpt>
      <trkpt lat="44.91574" lon="0.71228">
        <ele>126.4</ele>
        <time>2023-04-10T07:28:56Z</time>
      </trkpt>
      <trkpt lat="44.91577" lon="0.71223">
        <ele>126.9</ele>
        <time>2023-04-10T07:28:58Z</time>
      </trkpt>
      <trkpt lat="44.91579" lon="0.71219">
        <ele>127.5</ele>
        <time>2023-04-10T07:29:00Z</time>
      </trkpt>
      <trkpt lat="44.91581" lon="0.71216">
        <ele>127.9</ele>
        <time>2023-04-10T07:29:02Z</time>
      </trkpt>
      <trkpt lat="44.91583" lon="0.71215">
        <ele>128.3</ele>
        <time>2023-04-10T07:29:04Z</time>
      </trkpt>
      <trkpt lat="44.91581" lon="0.71214">
        <ele>128.7</ele>
        <time>2023-04-10T07:32:42Z</time>
      </trkpt>
      <trkpt lat="44.91581" lon="0.71209">
        <ele>129.2</ele>
        <time>2023-04-10T07:32:44Z</time>
      </trkpt>
      <trkpt lat="44.91582" lon="0.71203">
        <ele>130.2</ele>
        <time>2023-04-10T07:32:46Z</time>
      </trkpt>
      <trkpt lat="44.91582" lon="0.71198">
        <ele>130.6</ele>
        <time>2023-04-10T07:32:48Z</time>
      </trkpt>
      <trkpt lat="44.91583" lon="0.71192">
        <ele>131</ele>
        <time>2023-04-10T07:32:50Z</time>
      </trkpt>
      <trkpt lat="44.91583" lon="0.71189">
        <ele>133.3</ele>
        <time>2023-04-10T07:32:51Z</time>
      </trkpt>
      <trkpt lat="44.91584" lon="0.71187">
        <ele>134.4</ele>
        <time>2023-04-10T07:32:52Z</time>
      </trkpt>
      <trkpt lat="44.91586" lon="0.71187">
        <ele>134.8</ele>
        <time>2023-04-10T07:32:53Z</time>
      </trkpt>
      <trkpt lat="44.91587" lon="0.71186">
        <ele>135.2</ele>
        <time>2023-04-10T07:32:54Z</time>
      </trkpt>
      <trkpt lat="44.91589" lon="0.71184">
        <ele>135.6</ele>
        <time>2023-04-10T07:32:56Z</time>
      </trkpt>
      <trkpt lat="44.91589" lon="0.71183">
        <ele>136</ele>
        <time>2023-04-10T07:32:57Z</time>
      </trkpt>
      <trkpt lat="44.9159" lon="0.71181">
        <ele>136.5</ele>
        <time>2023-04-10T07:32:58Z</time>
      </trkpt>
      <trkpt lat="44.91589" lon="0.71179">
        <ele>136.9</ele>
        <time>2023-04-10T07:33:00Z</time>
      </trkpt>
      <trkpt lat="44.91602" lon="0.71154">
        <ele>139.1</ele>
        <time>2023-04-10T07:33:38Z</time>
      </trkpt>
      <trkpt lat="44.91601" lon="0.71149">
        <ele>139.5</ele>
        <time>2023-04-10T07:33:40Z</time>
      </trkpt>
      <trkpt lat="44.91601" lon="0.71143">
        <ele>139.8</ele>
        <time>2023-04-10T07:33:42Z</time>
      </trkpt>
      <trkpt lat="44.91601" lon="0.71139">
        <ele>140.1</ele>
        <time>2023-04-10T07:33:44Z</time>
      </trkpt>
      <trkpt lat="44.916" lon="0.71134">
        <ele>140.4</ele>
        <time>2023-04-10T07:33:46Z</time>
      </trkpt>
      <trkpt lat="44.91601" lon="0.71132">
        <ele>140.5</ele>
        <time>2023-04-10T07:33:47Z</time>
      </trkpt>
      <trkpt lat="44.91601" lon="0.7113">
        <ele>140.7</ele>
        <time>2023-04-10T07:33:48Z</time>
      </trkpt>
      <trkpt lat="44.91599" lon="0.71125">
        <ele>141</ele>
        <time>2023-04-10T07:33:50Z</time>
      </trkpt>
      <trkpt lat="44.91599" lon="0.71124">
        <ele>141.1</ele>
        <time>2023-04-10T07:33:51Z</time>
      </trkpt>
      <trkpt lat="44.91599" lon="0.71121">
        <ele>141.2</ele>
        <time>2023-04-10T07:33:52Z</time>
      </trkpt>
      <trkpt lat="44.91599" lon="0.71116">
        <ele>141.6</ele>
        <time>2023-04-10T07:33:54Z</time>
      </trkpt>
      <trkpt lat="44.916" lon="0.71112">
        <ele>141.9</ele>
        <time>2023-04-10T07:33:56Z</time>
      </trkpt>
      <trkpt lat="44.916" lon="0.71108">
        <ele>142.2</ele>
        <time>2023-04-10T07:33:58Z</time>
      </trkpt>
      <trkpt lat="44.916" lon="0.71106">
        <ele>142.3</ele>
        <time>2023-04-10T07:33:59Z</time>
      </trkpt>
      <trkpt lat="44.916" lon="0.71104">
        <ele>142.5</ele>
        <time>2023-04-10T07:34:00Z</time>
      </trkpt>
      <trkpt lat="44.916" lon="0.71101">
        <ele>142.7</ele>
        <time>2023-04-10T07:34:01Z</time>
      </trkpt>
      <trkpt lat="44.916" lon="0.711">
        <ele>142.8</ele>
        <time>2023-04-10T07:34:02Z</time>
      </trkpt>
      <trkpt lat="44.916" lon="0.71098">
        <ele>142.9</ele>
        <time>2023-04-10T07:34:03Z</time>
      </trkpt>
      <trkpt lat="44.916" lon="0.71096">
        <ele>143.1</ele>
        <time>2023-04-10T07:34:04Z</time>
      </trkpt>
      <trkpt lat="44.91599" lon="0.71094">
        <ele>143.3</ele>
        <time>2023-04-10T07:34:05Z</time>
      </trkpt>
      <trkpt lat="44.91599" lon="0.71092">
        <ele>143.5</ele>
        <time>2023-04-10T07:34:06Z</time>
      </trkpt>
      <trkpt lat="44.91598" lon="0.71088">
        <ele>143.8</ele>
        <time>2023-04-10T07:34:07Z</time>
      </trkpt>
      <trkpt lat="44.91595" lon="0.71085">
        <ele>144.2</ele>
        <time>2023-04-10T07:34:08Z</time>
      </trkpt>
      <trkpt lat="44.91593" lon="0.71079">
        <ele>144.7</ele>
        <time>2023-04-10T07:34:10Z</time>
      </trkpt>
      <trkpt lat="44.91593" lon="0.71077">
        <ele>144.9</ele>
        <time>2023-04-10T07:34:11Z</time>
      </trkpt>
      <trkpt lat="44.91594" lon="0.71075">
        <ele>145.2</ele>
        <time>2023-04-10T07:34:12Z</time>
      </trkpt>
      <trkpt lat="44.91593" lon="0.7107">
        <ele>145.6</ele>
        <time>2023-04-10T07:34:14Z</time>
      </trkpt>
      <trkpt lat="44.91592" lon="0.71065">
        <ele>146.1</ele>
        <time>2023-04-10T07:34:16Z</time>
      </trkpt>
      <trkpt lat="44.91592" lon="0.7106">
        <ele>146.6</ele>
        <time>2023-04-10T07:34:18Z</time>
      </trkpt>
      <trkpt lat="44.91594" lon="0.71058">
        <ele>146.8</ele>
        <time>2023-04-10T07:34:19Z</time>
      </trkpt>
      <trkpt lat="44.91594" lon="0.71056">
        <ele>147.1</ele>
        <time>2023-04-10T07:34:20Z</time>
      </trkpt>
      <trkpt lat="44.91593" lon="0.7105">
        <ele>147.6</ele>
        <time>2023-04-10T07:34:22Z</time>
      </trkpt>
      <trkpt lat="44.91593" lon="0.71048">
        <ele>147.8</ele>
        <time>2023-04-10T07:34:23Z</time>
      </trkpt>
      <trkpt lat="44.91594" lon="0.71046">
        <ele>148</ele>
        <time>2023-04-10T07:34:24Z</time>
      </trkpt>
      <trkpt lat="44.91594" lon="0.71044">
        <ele>148.2</ele>
        <time>2023-04-10T07:34:25Z</time>
      </trkpt>
      <trkpt lat="44.91594" lon="0.71043">
        <ele>148.4</ele>
        <time>2023-04-10T07:34:26Z</time>
      </trkpt>
      <trkpt lat="44.91593" lon="0.71038">
        <ele>148.8</ele>
        <time>2023-04-10T07:34:28Z</time>
      </trkpt>
      <trkpt lat="44.91591" lon="0.71034">
        <ele>149.3</ele>
        <time>2023-04-10T07:34:30Z</time>
      </trkpt>
      <trkpt lat="44.91589" lon="0.71029">
        <ele>149.8</ele>
        <time>2023-04-10T07:34:32Z</time>
      </trkpt>
      <trkpt lat="44.91588" lon="0.71027">
        <ele>150</ele>
        <time>2023-04-10T07:34:33Z</time>
      </trkpt>
      <trkpt lat="44.91588" lon="0.71025">
        <ele>150.3</ele>
        <time>2023-04-10T07:34:34Z</time>
      </trkpt>
      <trkpt lat="44.91586" lon="0.71021">
        <ele>150.7</ele>
        <time>2023-04-10T07:34:36Z</time>
      </trkpt>
      <trkpt lat="44.91587" lon="0.71017">
        <ele>151.1</ele>
        <time>2023-04-10T07:34:38Z</time>
      </trkpt>
      <trkpt lat="44.91587" lon="0.71014">
        <ele>151.4</ele>
        <time>2023-04-10T07:34:39Z</time>
      </trkpt>
      <trkpt lat="44.91586" lon="0.71012">
        <ele>151.6</ele>
        <time>2023-04-10T07:34:40Z</time>
      </trkpt>
      <trkpt lat="44.91585" lon="0.71009">
        <ele>152</ele>
        <time>2023-04-10T07:34:41Z</time>
      </trkpt>
      <trkpt lat="44.91584" lon="0.71006">
        <ele>152.3</ele>
        <time>2023-04-10T07:34:42Z</time>
      </trkpt>
      <trkpt lat="44.91584" lon="0.71001">
        <ele>152.8</ele>
        <time>2023-04-10T07:34:44Z</time>
      </trkpt>
      <trkpt lat="44.91583" lon="0.70995">
        <ele>153.4</ele>
        <time>2023-04-10T07:34:46Z</time>
      </trkpt>
      <trkpt lat="44.91583" lon="0.7099">
        <ele>153.9</ele>
        <time>2023-04-10T07:34:48Z</time>
      </trkpt>
      <trkpt lat="44.91583" lon="0.70986">
        <ele>154.3</ele>
        <time>2023-04-10T07:34:50Z</time>
      </trkpt>
      <trkpt lat="44.91583" lon="0.70982">
        <ele>154.7</ele>
        <time>2023-04-10T07:34:52Z</time>
      </trkpt>
      <trkpt lat="44.91584" lon="0.70979">
        <ele>154.9</ele>
        <time>2023-04-10T07:34:53Z</time>
      </trkpt>
      <trkpt lat="44.91584" lon="0.70978">
        <ele>155</ele>
        <time>2023-04-10T07:34:54Z</time>
      </trkpt>
      <trkpt lat="44.91586" lon="0.70974">
        <ele>155.4</ele>
        <time>2023-04-10T07:34:56Z</time>
      </trkpt>
      <trkpt lat="44.91587" lon="0.70972">
        <ele>155.6</ele>
        <time>2023-04-10T07:34:57Z</time>
      </trkpt>
      <trkpt lat="44.91587" lon="0.7097">
        <ele>155.8</ele>
        <time>2023-04-10T07:34:58Z</time>
      </trkpt>
      <trkpt lat="44.91588" lon="0.70967">
        <ele>156.1</ele>
        <time>2023-04-10T07:35:00Z</time>
      </trkpt>
      <trkpt lat="44.91589" lon="0.70963">
        <ele>156.5</ele>
        <time>2023-04-10T07:35:02Z</time>
      </trkpt>
      <trkpt lat="44.91591" lon="0.70959">
        <ele>156.8</ele>
        <time>2023-04-10T07:35:04Z</time>
      </trkpt>
      <trkpt lat="44.91592" lon="0.70954">
        <ele>157.3</ele>
        <time>2023-04-10T07:35:06Z</time>
      </trkpt>
      <trkpt lat="44.91593" lon="0.70949">
        <ele>157.7</ele>
        <time>2023-04-10T07:35:08Z</time>
      </trkpt>
      <trkpt lat="44.91594" lon="0.70945">
        <ele>158.1</ele>
        <time>2023-04-10T07:35:10Z</time>
      </trkpt>
      <trkpt lat="44.91595" lon="0.70942">
        <ele>158.4</ele>
        <time>2023-04-10T07:35:12Z</time>
      </trkpt>
      <trkpt lat="44.91597" lon="0.70938">
        <ele>158.7</ele>
        <time>2023-04-10T07:35:14Z</time>
      </trkpt>
      <trkpt lat="44.91598" lon="0.70934">
        <ele>159.2</ele>
        <time>2023-04-10T07:35:16Z</time>
      </trkpt>
      <trkpt lat="44.91599" lon="0.70932">
        <ele>159.4</ele>
        <time>2023-04-10T07:35:17Z</time>
      </trkpt>
      <trkpt lat="44.916" lon="0.70931">
        <ele>159.5</ele>
        <time>2023-04-10T07:35:18Z</time>
      </trkpt>
      <trkpt lat="44.91602" lon="0.70928">
        <ele>159.8</ele>
        <time>2023-04-10T07:35:20Z</time>
      </trkpt>
      <trkpt lat="44.91605" lon="0.70924">
        <ele>160.2</ele>
        <time>2023-04-10T07:35:22Z</time>
      </trkpt>
      <trkpt lat="44.91606" lon="0.7092">
        <ele>160.5</ele>
        <time>2023-04-10T07:35:24Z</time>
      </trkpt>
      <trkpt lat="44.91608" lon="0.70916">
        <ele>160.8</ele>
        <time>2023-04-10T07:35:26Z</time>
      </trkpt>
      <trkpt lat="44.91609" lon="0.70915">
        <ele>160.9</ele>
        <time>2023-04-10T07:35:27Z</time>
      </trkpt>
      <trkpt lat="44.9161" lon="0.70913">
        <ele>161</ele>
        <time>2023-04-10T07:35:28Z</time>
      </trkpt>
      <trkpt lat="44.9161" lon="0.70911">
        <ele>161.1</ele>
        <time>2023-04-10T07:35:29Z</time>
      </trkpt>
      <trkpt lat="44.91614" lon="0.70906">
        <ele>161.5</ele>
        <time>2023-04-10T07:35:32Z</time>
      </trkpt>
      <trkpt lat="44.91616" lon="0.70905">
        <ele>161.7</ele>
        <time>2023-04-10T07:35:33Z</time>
      </trkpt>
      <trkpt lat="44.91617" lon="0.70903">
        <ele>161.8</ele>
        <time>2023-04-10T07:35:34Z</time>
      </trkpt>
      <trkpt lat="44.91621" lon="0.70901">
        <ele>162.1</ele>
        <time>2023-04-10T07:35:36Z</time>
      </trkpt>
      <trkpt lat="44.91624" lon="0.70897">
        <ele>162.3</ele>
        <time>2023-04-10T07:35:38Z</time>
      </trkpt>
      <trkpt lat="44.91626" lon="0.70893">
        <ele>162.5</ele>
        <time>2023-04-10T07:35:40Z</time>
      </trkpt>
      <trkpt lat="44.91627" lon="0.70892">
        <ele>162.6</ele>
        <time>2023-04-10T07:35:41Z</time>
      </trkpt>
      <trkpt lat="44.91629" lon="0.7089">
        <ele>162.7</ele>
        <time>2023-04-10T07:35:42Z</time>
      </trkpt>
      <trkpt lat="44.91633" lon="0.70886">
        <ele>163</ele>
        <time>2023-04-10T07:35:44Z</time>
      </trkpt>
      <trkpt lat="44.91635" lon="0.70885">
        <ele>163.1</ele>
        <time>2023-04-10T07:35:45Z</time>
      </trkpt>
      <trkpt lat="44.91636" lon="0.70883">
        <ele>163.2</ele>
        <time>2023-04-10T07:35:46Z</time>
      </trkpt>
      <trkpt lat="44.91638" lon="0.70879">
        <ele>163.5</ele>
        <time>2023-04-10T07:35:48Z</time>
      </trkpt>
      <trkpt lat="44.91641" lon="0.70874">
        <ele>163.7</ele>
        <time>2023-04-10T07:35:50Z</time>
      </trkpt>
      <trkpt lat="44.91645" lon="0.7087">
        <ele>164.1</ele>
        <time>2023-04-10T07:35:52Z</time>
      </trkpt>
      <trkpt lat="44.91647" lon="0.70866">
        <ele>164.4</ele>
        <time>2023-04-10T07:35:54Z</time>
      </trkpt>
      <trkpt lat="44.91649" lon="0.70864">
        <ele>164.5</ele>
        <time>2023-04-10T07:35:55Z</time>
      </trkpt>
      <trkpt lat="44.9165" lon="0.70862">
        <ele>164.6</ele>
        <time>2023-04-10T07:35:56Z</time>
      </trkpt>
      <trkpt lat="44.91652" lon="0.70858">
        <ele>164.9</ele>
        <time>2023-04-10T07:35:58Z</time>
      </trkpt>
      <trkpt lat="44.91653" lon="0.70855">
        <ele>165</ele>
        <time>2023-04-10T07:35:59Z</time>
      </trkpt>
      <trkpt lat="44.91655" lon="0.70852">
        <ele>165.2</ele>
        <time>2023-04-10T07:36:00Z</time>
      </trkpt>
      <trkpt lat="44.91657" lon="0.70847">
        <ele>165.4</ele>
        <time>2023-04-10T07:36:02Z</time>
      </trkpt>
      <trkpt lat="44.91659" lon="0.70844">
        <ele>165.6</ele>
        <time>2023-04-10T07:36:03Z</time>
      </trkpt>
      <trkpt lat="44.91661" lon="0.70841">
        <ele>165.8</ele>
        <time>2023-04-10T07:36:04Z</time>
      </trkpt>
      <trkpt lat="44.91663" lon="0.70836">
        <ele>166</ele>
        <time>2023-04-10T07:36:06Z</time>
      </trkpt>
      <trkpt lat="44.91666" lon="0.7083">
        <ele>166.3</ele>
        <time>2023-04-10T07:36:08Z</time>
      </trkpt>
      <trkpt lat="44.91666" lon="0.70827">
        <ele>166.4</ele>
        <time>2023-04-10T07:36:09Z</time>
      </trkpt>
      <trkpt lat="44.91667" lon="0.70824">
        <ele>166.5</ele>
        <time>2023-04-10T07:36:10Z</time>
      </trkpt>
      <trkpt lat="44.91668" lon="0.70818">
        <ele>166.7</ele>
        <time>2023-04-10T07:36:12Z</time>
      </trkpt>
      <trkpt lat="44.91668" lon="0.70815">
        <ele>166.8</ele>
        <time>2023-04-10T07:36:13Z</time>
      </trkpt>
      <trkpt lat="44.91669" lon="0.70812">
        <ele>167</ele>
        <time>2023-04-10T07:36:14Z</time>
      </trkpt>
      <trkpt lat="44.9167" lon="0.70806">
        <ele>167.1</ele>
        <time>2023-04-10T07:36:16Z</time>
      </trkpt>
      <trkpt lat="44.91671" lon="0.708">
        <ele>167.4</ele>
        <time>2023-04-10T07:36:18Z</time>
      </trkpt>
      <trkpt lat="44.91672" lon="0.70794">
        <ele>167.6</ele>
        <time>2023-04-10T07:36:20Z</time>
      </trkpt>
      <trkpt lat="44.91673" lon="0.70788">
        <ele>167.7</ele>
        <time>2023-04-10T07:36:22Z</time>
      </trkpt>
      <trkpt lat="44.91675" lon="0.70781">
        <ele>167.9</ele>
        <time>2023-04-10T07:36:24Z</time>
      </trkpt>
      <trkpt lat="44.91676" lon="0.70774">
        <ele>168.2</ele>
        <time>2023-04-10T07:36:26Z</time>
      </trkpt>
      <trkpt lat="44.91678" lon="0.70768">
        <ele>168.4</ele>
        <time>2023-04-10T07:36:28Z</time>
      </trkpt>
      <trkpt lat="44.9168" lon="0.70765">
        <ele>168.5</ele>
        <time>2023-04-10T07:36:29Z</time>
      </trkpt>
      <trkpt lat="44.9168" lon="0.70762">
        <ele>168.6</ele>
        <time>2023-04-10T07:36:30Z</time>
      </trkpt>
      <trkpt lat="44.91682" lon="0.70756">
        <ele>168.8</ele>
        <time>2023-04-10T07:36:32Z</time>
      </trkpt>
      <trkpt lat="44.91683" lon="0.70751">
        <ele>169</ele>
        <time>2023-04-10T07:36:34Z</time>
      </trkpt>
      <trkpt lat="44.91684" lon="0.70746">
        <ele>169.2</ele>
        <time>2023-04-10T07:36:36Z</time>
      </trkpt>
      <trkpt lat="44.91684" lon="0.70743">
        <ele>169.3</ele>
        <time>2023-04-10T07:36:37Z</time>
      </trkpt>
      <trkpt lat="44.91684" lon="0.7074">
        <ele>169.5</ele>
        <time>2023-04-10T07:36:38Z</time>
      </trkpt>
      <trkpt lat="44.91685" lon="0.70733">
        <ele>169.8</ele>
        <time>2023-04-10T07:36:40Z</time>
      </trkpt>
      <trkpt lat="44.91686" lon="0.70726">
        <ele>170.1</ele>
        <time>2023-04-10T07:36:42Z</time>
      </trkpt>
      <trkpt lat="44.91687" lon="0.7072">
        <ele>170.4</ele>
        <time>2023-04-10T07:36:44Z</time>
      </trkpt>
      <trkpt lat="44.91688" lon="0.70714">
        <ele>170.7</ele>
        <time>2023-04-10T07:36:46Z</time>
      </trkpt>
      <trkpt lat="44.91689" lon="0.70707">
        <ele>171.1</ele>
        <time>2023-04-10T07:36:48Z</time>
      </trkpt>
      <trkpt lat="44.9169" lon="0.70704">
        <ele>171.2</ele>
        <time>2023-04-10T07:36:49Z</time>
      </trkpt>
      <trkpt lat="44.9169" lon="0.70701">
        <ele>171.4</ele>
        <time>2023-04-10T07:36:50Z</time>
      </trkpt>
      <trkpt lat="44.9169" lon="0.70699">
        <ele>171.5</ele>
        <time>2023-04-10T07:36:51Z</time>
      </trkpt>
      <trkpt lat="44.9169" lon="0.70696">
        <ele>171.6</ele>
        <time>2023-04-10T07:36:52Z</time>
      </trkpt>
      <trkpt lat="44.91691" lon="0.70688">
        <ele>172</ele>
        <time>2023-04-10T07:36:54Z</time>
      </trkpt>
      <trkpt lat="44.91692" lon="0.70684">
        <ele>172.1</ele>
        <time>2023-04-10T07:36:55Z</time>
      </trkpt>
      <trkpt lat="44.91692" lon="0.70681">
        <ele>172.2</ele>
        <time>2023-04-10T07:36:56Z</time>
      </trkpt>
      <trkpt lat="44.91692" lon="0.70678">
        <ele>172.3</ele>
        <time>2023-04-10T07:36:57Z</time>
      </trkpt>
      <trkpt lat="44.91693" lon="0.70674">
        <ele>172.4</ele>
        <time>2023-04-10T07:36:58Z</time>
      </trkpt>
      <trkpt lat="44.91695" lon="0.70668">
        <ele>172.7</ele>
        <time>2023-04-10T07:37:00Z</time>
      </trkpt>
      <trkpt lat="44.91697" lon="0.70661">
        <ele>173</ele>
        <time>2023-04-10T07:37:02Z</time>
      </trkpt>
      <trkpt lat="44.91699" lon="0.70654">
        <ele>173.3</ele>
        <time>2023-04-10T07:37:04Z</time>
      </trkpt>
      <trkpt lat="44.917" lon="0.70651">
        <ele>173.5</ele>
        <time>2023-04-10T07:37:05Z</time>
      </trkpt>
      <trkpt lat="44.91701" lon="0.70648">
        <ele>173.6</ele>
        <time>2023-04-10T07:37:06Z</time>
      </trkpt>
      <trkpt lat="44.91704" lon="0.70642">
        <ele>173.9</ele>
        <time>2023-04-10T07:37:08Z</time>
      </trkpt>
      <trkpt lat="44.91707" lon="0.70635">
        <ele>174.1</ele>
        <time>2023-04-10T07:37:10Z</time>
      </trkpt>
      <trkpt lat="44.91708" lon="0.70632">
        <ele>174.2</ele>
        <time>2023-04-10T07:37:11Z</time>
      </trkpt>
      <trkpt lat="44.91708" lon="0.70628">
        <ele>174.3</ele>
        <time>2023-04-10T07:37:12Z</time>
      </trkpt>
      <trkpt lat="44.91708" lon="0.70625">
        <ele>174.4</ele>
        <time>2023-04-10T07:37:13Z</time>
      </trkpt>
      <trkpt lat="44.91709" lon="0.70622">
        <ele>174.5</ele>
        <time>2023-04-10T07:37:14Z</time>
      </trkpt>
      <trkpt lat="44.91709" lon="0.70614">
        <ele>174.8</ele>
        <time>2023-04-10T07:37:16Z</time>
      </trkpt>
      <trkpt lat="44.91711" lon="0.70605">
        <ele>175</ele>
        <time>2023-04-10T07:37:18Z</time>
      </trkpt>
      <trkpt lat="44.9171" lon="0.70597">
        <ele>175.1</ele>
        <time>2023-04-10T07:37:20Z</time>
      </trkpt>
      <trkpt lat="44.91712" lon="0.70588">
        <ele>175.1</ele>
        <time>2023-04-10T07:37:22Z</time>
      </trkpt>
      <trkpt lat="44.91714" lon="0.70584">
        <ele>175.1</ele>
        <time>2023-04-10T07:37:23Z</time>
      </trkpt>
      <trkpt lat="44.91715" lon="0.70579">
        <ele>175.1</ele>
        <time>2023-04-10T07:37:24Z</time>
      </trkpt>
      <trkpt lat="44.91716" lon="0.70575">
        <ele>175</ele>
        <time>2023-04-10T07:37:25Z</time>
      </trkpt>
      <trkpt lat="44.91716" lon="0.7057">
        <ele>175</ele>
        <time>2023-04-10T07:37:26Z</time>
      </trkpt>
      <trkpt lat="44.91718" lon="0.7056">
        <ele>174.9</ele>
        <time>2023-04-10T07:37:28Z</time>
      </trkpt>
      <trkpt lat="44.9172" lon="0.70555">
        <ele>174.8</ele>
        <time>2023-04-10T07:37:29Z</time>
      </trkpt>
      <trkpt lat="44.91722" lon="0.70549">
        <ele>174.7</ele>
        <time>2023-04-10T07:37:30Z</time>
      </trkpt>
      <trkpt lat="44.91726" lon="0.70537">
        <ele>174.4</ele>
        <time>2023-04-10T07:37:32Z</time>
      </trkpt>
      <trkpt lat="44.91729" lon="0.70523">
        <ele>173.9</ele>
        <time>2023-04-10T07:37:34Z</time>
      </trkpt>
      <trkpt lat="44.91733" lon="0.70507">
        <ele>173.3</ele>
        <time>2023-04-10T07:37:36Z</time>
      </trkpt>
      <trkpt lat="44.91735" lon="0.70499">
        <ele>172.9</ele>
        <time>2023-04-10T07:37:37Z</time>
      </trkpt>
      <trkpt lat="44.91735" lon="0.7049">
        <ele>172.5</ele>
        <time>2023-04-10T07:37:38Z</time>
      </trkpt>
      <trkpt lat="44.91735" lon="0.70483">
        <ele>172.2</ele>
        <time>2023-04-10T07:37:39Z</time>
      </trkpt>
      <trkpt lat="44.91736" lon="0.70475">
        <ele>172.1</ele>
        <time>2023-04-10T07:37:40Z</time>
      </trkpt>
      <trkpt lat="44.91739" lon="0.70466">
        <ele>171.9</ele>
        <time>2023-04-10T07:37:41Z</time>
      </trkpt>
      <trkpt lat="44.9174" lon="0.70457">
        <ele>171.9</ele>
        <time>2023-04-10T07:37:42Z</time>
      </trkpt>
      <trkpt lat="44.91745" lon="0.70439">
        <ele>171.7</ele>
        <time>2023-04-10T07:37:44Z</time>
      </trkpt>
      <trkpt lat="44.91748" lon="0.70422">
        <ele>171.6</ele>
        <time>2023-04-10T07:37:46Z</time>
      </trkpt>
      <trkpt lat="44.91749" lon="0.70406">
        <ele>171.6</ele>
        <time>2023-04-10T07:37:48Z</time>
      </trkpt>
      <trkpt lat="44.91749" lon="0.70399">
        <ele>171.6</ele>
        <time>2023-04-10T07:37:49Z</time>
      </trkpt>
      <trkpt lat="44.91749" lon="0.70392">
        <ele>171.5</ele>
        <time>2023-04-10T07:37:50Z</time>
      </trkpt>
      <trkpt lat="44.91751" lon="0.70378">
        <ele>171.5</ele>
        <time>2023-04-10T07:37:52Z</time>
      </trkpt>
      <trkpt lat="44.91753" lon="0.70366">
        <ele>171.5</ele>
        <time>2023-04-10T07:37:54Z</time>
      </trkpt>
      <trkpt lat="44.91759" lon="0.70359">
        <ele>171.5</ele>
        <time>2023-04-10T07:37:56Z</time>
      </trkpt>
      <trkpt lat="44.91767" lon="0.70356">
        <ele>171.5</ele>
        <time>2023-04-10T07:37:58Z</time>
      </trkpt>
      <trkpt lat="44.91776" lon="0.70352">
        <ele>171.4</ele>
        <time>2023-04-10T07:38:00Z</time>
      </trkpt>
      <trkpt lat="44.91786" lon="0.70348">
        <ele>171.1</ele>
        <time>2023-04-10T07:38:02Z</time>
      </trkpt>
      <trkpt lat="44.91795" lon="0.70345">
        <ele>170.7</ele>
        <time>2023-04-10T07:38:04Z</time>
      </trkpt>
      <trkpt lat="44.91805" lon="0.7034">
        <ele>170.3</ele>
        <time>2023-04-10T07:38:06Z</time>
      </trkpt>
      <trkpt lat="44.91811" lon="0.70337">
        <ele>170</ele>
        <time>2023-04-10T07:38:07Z</time>
      </trkpt>
      <trkpt lat="44.91816" lon="0.70335">
        <ele>169.6</ele>
        <time>2023-04-10T07:38:08Z</time>
      </trkpt>
      <trkpt lat="44.91829" lon="0.70328">
        <ele>168.6</ele>
        <time>2023-04-10T07:38:10Z</time>
      </trkpt>
      <trkpt lat="44.91843" lon="0.7032">
        <ele>167.2</ele>
        <time>2023-04-10T07:38:12Z</time>
      </trkpt>
      <trkpt lat="44.91858" lon="0.70311">
        <ele>165.4</ele>
        <time>2023-04-10T07:38:14Z</time>
      </trkpt>
      <trkpt lat="44.91874" lon="0.70303">
        <ele>163.5</ele>
        <time>2023-04-10T07:38:16Z</time>
      </trkpt>
      <trkpt lat="44.91882" lon="0.70299">
        <ele>162.5</ele>
        <time>2023-04-10T07:38:17Z</time>
      </trkpt>
      <trkpt lat="44.91891" lon="0.70294">
        <ele>161.6</ele>
        <time>2023-04-10T07:38:18Z</time>
      </trkpt>
      <trkpt lat="44.91908" lon="0.70284">
        <ele>159.9</ele>
        <time>2023-04-10T07:38:20Z</time>
      </trkpt>
      <trkpt lat="44.91925" lon="0.70274">
        <ele>158.4</ele>
        <time>2023-04-10T07:38:22Z</time>
      </trkpt>
      <trkpt lat="44.91933" lon="0.70269">
        <ele>157.6</ele>
        <time>2023-04-10T07:38:23Z</time>
      </trkpt>
      <trkpt lat="44.91942" lon="0.70264">
        <ele>156.9</ele>
        <time>2023-04-10T07:38:24Z</time>
      </trkpt>
      <trkpt lat="44.91949" lon="0.7026">
        <ele>156.3</ele>
        <time>2023-04-10T07:38:25Z</time>
      </trkpt>
      <trkpt lat="44.91955" lon="0.70257">
        <ele>155.7</ele>
        <time>2023-04-10T07:38:26Z</time>
      </trkpt>
      <trkpt lat="44.9196" lon="0.70254">
        <ele>155.3</ele>
        <time>2023-04-10T07:38:27Z</time>
      </trkpt>
      <trkpt lat="44.91963" lon="0.7025">
        <ele>154.9</ele>
        <time>2023-04-10T07:38:28Z</time>
      </trkpt>
      <trkpt lat="44.91965" lon="0.70244">
        <ele>154.6</ele>
        <time>2023-04-10T07:38:29Z</time>
      </trkpt>
      <trkpt lat="44.91965" lon="0.70238">
        <ele>154.3</ele>
        <time>2023-04-10T07:38:30Z</time>
      </trkpt>
      <trkpt lat="44.91964" lon="0.70227">
        <ele>153.4</ele>
        <time>2023-04-10T07:38:32Z</time>
      </trkpt>
      <trkpt lat="44.91966" lon="0.70222">
        <ele>153.1</ele>
        <time>2023-04-10T07:38:33Z</time>
      </trkpt>
      <trkpt lat="44.91971" lon="0.70218">
        <ele>152.7</ele>
        <time>2023-04-10T07:38:34Z</time>
      </trkpt>
      <trkpt lat="44.91983" lon="0.7021">
        <ele>151.7</ele>
        <time>2023-04-10T07:38:36Z</time>
      </trkpt>
      <trkpt lat="44.9199" lon="0.70208">
        <ele>151</ele>
        <time>2023-04-10T07:38:37Z</time>
      </trkpt>
      <trkpt lat="44.91997" lon="0.70206">
        <ele>150.2</ele>
        <time>2023-04-10T07:38:38Z</time>
      </trkpt>
      <trkpt lat="44.92011" lon="0.70203">
        <ele>148.5</ele>
        <time>2023-04-10T07:38:40Z</time>
      </trkpt>
      <trkpt lat="44.92019" lon="0.702">
        <ele>147.5</ele>
        <time>2023-04-10T07:38:41Z</time>
      </trkpt>
      <trkpt lat="44.92028" lon="0.70198">
        <ele>146.6</ele>
        <time>2023-04-10T07:38:42Z</time>
      </trkpt>
      <trkpt lat="44.92047" lon="0.70193">
        <ele>144.6</ele>
        <time>2023-04-10T07:38:44Z</time>
      </trkpt>
      <trkpt lat="44.92054" lon="0.7019">
        <ele>143.9</ele>
        <time>2023-04-10T07:38:45Z</time>
      </trkpt>
      <trkpt lat="44.92059" lon="0.7019">
        <ele>143.6</ele>
        <time>2023-04-10T07:38:46Z</time>
      </trkpt>
      <trkpt lat="44.92063" lon="0.70194">
        <ele>143.4</ele>
        <time>2023-04-10T07:38:47Z</time>
      </trkpt>
      <trkpt lat="44.92066" lon="0.702">
        <ele>143.2</ele>
        <time>2023-04-10T07:38:48Z</time>
      </trkpt>
      <trkpt lat="44.92068" lon="0.70214">
        <ele>143.2</ele>
        <time>2023-04-10T07:38:50Z</time>
      </trkpt>
      <trkpt lat="44.92068" lon="0.70222">
        <ele>143.3</ele>
        <time>2023-04-10T07:38:51Z</time>
      </trkpt>
      <trkpt lat="44.92068" lon="0.70229">
        <ele>143.4</ele>
        <time>2023-04-10T07:38:52Z</time>
      </trkpt>
      <trkpt lat="44.92067" lon="0.70242">
        <ele>143.6</ele>
        <time>2023-04-10T07:38:54Z</time>
      </trkpt>
      <trkpt lat="44.92068" lon="0.70256">
        <ele>143.6</ele>
        <time>2023-04-10T07:38:56Z</time>
      </trkpt>
      <trkpt lat="44.92072" lon="0.70271">
        <ele>143.3</ele>
        <time>2023-04-10T07:38:58Z</time>
      </trkpt>
      <trkpt lat="44.92082" lon="0.70286">
        <ele>142.1</ele>
        <time>2023-04-10T07:39:00Z</time>
      </trkpt>
      <trkpt lat="44.92088" lon="0.70292">
        <ele>141.1</ele>
        <time>2023-04-10T07:39:01Z</time>
      </trkpt>
      <trkpt lat="44.92097" lon="0.70298">
        <ele>139.5</ele>
        <time>2023-04-10T07:39:02Z</time>
      </trkpt>
      <trkpt lat="44.92106" lon="0.70306">
        <ele>137.5</ele>
        <time>2023-04-10T07:39:03Z</time>
      </trkpt>
      <trkpt lat="44.92114" lon="0.70315">
        <ele>135.6</ele>
        <time>2023-04-10T07:39:04Z</time>
      </trkpt>
      <trkpt lat="44.9213" lon="0.70333">
        <ele>132.1</ele>
        <time>2023-04-10T07:39:06Z</time>
      </trkpt>
      <trkpt lat="44.92137" lon="0.70343">
        <ele>130.5</ele>
        <time>2023-04-10T07:39:07Z</time>
      </trkpt>
      <trkpt lat="44.92143" lon="0.70354">
        <ele>129.2</ele>
        <time>2023-04-10T07:39:08Z</time>
      </trkpt>
      <trkpt lat="44.92154" lon="0.70372">
        <ele>126.5</ele>
        <time>2023-04-10T07:39:10Z</time>
      </trkpt>
      <trkpt lat="44.92163" lon="0.70391">
        <ele>124.1</ele>
        <time>2023-04-10T07:39:12Z</time>
      </trkpt>
      <trkpt lat="44.92169" lon="0.70408">
        <ele>122</ele>
        <time>2023-04-10T07:39:14Z</time>
      </trkpt>
      <trkpt lat="44.92171" lon="0.70414">
        <ele>121.2</ele>
        <time>2023-04-10T07:39:15Z</time>
      </trkpt>
      <trkpt lat="44.92175" lon="0.70419">
        <ele>120.1</ele>
        <time>2023-04-10T07:39:16Z</time>
      </trkpt>
      <trkpt lat="44.92189" lon="0.7043">
        <ele>117</ele>
        <time>2023-04-10T07:39:18Z</time>
      </trkpt>
      <trkpt lat="44.92208" lon="0.70437">
        <ele>113.4</ele>
        <time>2023-04-10T07:39:20Z</time>
      </trkpt>
      <trkpt lat="44.92215" lon="0.70439">
        <ele>112.2</ele>
        <time>2023-04-10T07:39:21Z</time>
      </trkpt>
      <trkpt lat="44.92219" lon="0.70439">
        <ele>111.5</ele>
        <time>2023-04-10T07:39:22Z</time>
      </trkpt>
      <trkpt lat="44.92224" lon="0.70437">
        <ele>111</ele>
        <time>2023-04-10T07:39:23Z</time>
      </trkpt>
      <trkpt lat="44.92227" lon="0.70437">
        <ele>110.6</ele>
        <time>2023-04-10T07:39:24Z</time>
      </trkpt>
      <trkpt lat="44.92234" lon="0.70442">
        <ele>109.8</ele>
        <time>2023-04-10T07:39:26Z</time>
      </trkpt>
      <trkpt lat="44.92238" lon="0.70446">
        <ele>109.4</ele>
        <time>2023-04-10T07:39:27Z</time>
      </trkpt>
      <trkpt lat="44.92244" lon="0.70451">
        <ele>108.8</ele>
        <time>2023-04-10T07:39:28Z</time>
      </trkpt>
      <trkpt lat="44.92257" lon="0.70457">
        <ele>107.7</ele>
        <time>2023-04-10T07:39:30Z</time>
      </trkpt>
      <trkpt lat="44.92273" lon="0.70459">
        <ele>106.5</ele>
        <time>2023-04-10T07:39:32Z</time>
      </trkpt>
      <trkpt lat="44.92289" lon="0.70459">
        <ele>105.6</ele>
        <time>2023-04-10T07:39:34Z</time>
      </trkpt>
      <trkpt lat="44.92298" lon="0.70458">
        <ele>105.2</ele>
        <time>2023-04-10T07:39:35Z</time>
      </trkpt>
      <trkpt lat="44.92306" lon="0.70458">
        <ele>104.8</ele>
        <time>2023-04-10T07:39:36Z</time>
      </trkpt>
      <trkpt lat="44.92323" lon="0.70457">
        <ele>104.4</ele>
        <time>2023-04-10T07:39:38Z</time>
      </trkpt>
      <trkpt lat="44.92339" lon="0.70455">
        <ele>104.1</ele>
        <time>2023-04-10T07:39:40Z</time>
      </trkpt>
      <trkpt lat="44.92346" lon="0.70455">
        <ele>104</ele>
        <time>2023-04-10T07:39:41Z</time>
      </trkpt>
      <trkpt lat="44.92353" lon="0.70456">
        <ele>104</ele>
        <time>2023-04-10T07:39:42Z</time>
      </trkpt>
      <trkpt lat="44.92368" lon="0.70457">
        <ele>104.1</ele>
        <time>2023-04-10T07:39:44Z</time>
      </trkpt>
      <trkpt lat="44.92381" lon="0.70458">
        <ele>104.2</ele>
        <time>2023-04-10T07:39:46Z</time>
      </trkpt>
      <trkpt lat="44.92392" lon="0.70456">
        <ele>104.4</ele>
        <time>2023-04-10T07:39:48Z</time>
      </trkpt>
      <trkpt lat="44.92399" lon="0.70449">
        <ele>104.7</ele>
        <time>2023-04-10T07:39:50Z</time>
      </trkpt>
      <trkpt lat="44.92401" lon="0.70445">
        <ele>104.7</ele>
        <time>2023-04-10T07:39:51Z</time>
      </trkpt>
      <trkpt lat="44.92402" lon="0.70438">
        <ele>104.6</ele>
        <time>2023-04-10T07:39:52Z</time>
      </trkpt>
      <trkpt lat="44.92404" lon="0.70423">
        <ele>104.5</ele>
        <time>2023-04-10T07:39:54Z</time>
      </trkpt>
      <trkpt lat="44.92405" lon="0.70416">
        <ele>104.5</ele>
        <time>2023-04-10T07:39:55Z</time>
      </trkpt>
      <trkpt lat="44.92407" lon="0.70409">
        <ele>104.5</ele>
        <time>2023-04-10T07:39:56Z</time>
      </trkpt>
      <trkpt lat="44.9241" lon="0.70403">
        <ele>104.6</ele>
        <time>2023-04-10T07:39:57Z</time>
      </trkpt>
      <trkpt lat="44.92413" lon="0.70398">
        <ele>104.7</ele>
        <time>2023-04-10T07:39:58Z</time>
      </trkpt>
      <trkpt lat="44.92418" lon="0.70395">
        <ele>104.9</ele>
        <time>2023-04-10T07:39:59Z</time>
      </trkpt>
      <trkpt lat="44.92421" lon="0.70391">
        <ele>105</ele>
        <time>2023-04-10T07:40:00Z</time>
      </trkpt>
      <trkpt lat="44.9243" lon="0.7039">
        <ele>105.4</ele>
        <time>2023-04-10T07:40:02Z</time>
      </trkpt>
      <trkpt lat="44.92435" lon="0.70391">
        <ele>105.7</ele>
        <time>2023-04-10T07:40:03Z</time>
      </trkpt>
      <trkpt lat="44.9244" lon="0.70391">
        <ele>105.9</ele>
        <time>2023-04-10T07:40:04Z</time>
      </trkpt>
      <trkpt lat="44.92449" lon="0.70392">
        <ele>106.6</ele>
        <time>2023-04-10T07:40:06Z</time>
      </trkpt>
      <trkpt lat="44.92458" lon="0.70394">
        <ele>107.6</ele>
        <time>2023-04-10T07:40:08Z</time>
      </trkpt>
      <trkpt lat="44.92463" lon="0.70396">
        <ele>108.4</ele>
        <time>2023-04-10T07:40:10Z</time>
      </trkpt>
      <trkpt lat="44.92466" lon="0.70396">
        <ele>108.9</ele>
        <time>2023-04-10T07:40:12Z</time>
      </trkpt>
      <trkpt lat="44.92469" lon="0.70396">
        <ele>109.4</ele>
        <time>2023-04-10T07:40:14Z</time>
      </trkpt>
      <trkpt lat="44.92471" lon="0.70395">
        <ele>109.7</ele>
        <time>2023-04-10T07:40:15Z</time>
      </trkpt>
      <trkpt lat="44.92472" lon="0.70394">
        <ele>109.9</ele>
        <time>2023-04-10T07:40:16Z</time>
      </trkpt>
      <trkpt lat="44.92473" lon="0.70393">
        <ele>110.2</ele>
        <time>2023-04-10T07:40:17Z</time>
      </trkpt>
      <trkpt lat="44.92474" lon="0.70392">
        <ele>110.5</ele>
        <time>2023-04-10T07:40:18Z</time>
      </trkpt>
      <trkpt lat="44.92477" lon="0.70387">
        <ele>110.5</ele>
        <time>2023-04-10T07:40:20Z</time>
      </trkpt>
      <trkpt lat="44.92478" lon="0.70383">
        <ele>110.4</ele>
        <time>2023-04-10T07:40:21Z</time>
      </trkpt>
      <trkpt lat="44.92479" lon="0.70378">
        <ele>110.4</ele>
        <time>2023-04-10T07:40:22Z</time>
      </trkpt>
      <trkpt lat="44.92482" lon="0.70367">
        <ele>110.3</ele>
        <time>2023-04-10T07:40:24Z</time>
      </trkpt>
      <trkpt lat="44.92484" lon="0.70357">
        <ele>110.1</ele>
        <time>2023-04-10T07:40:26Z</time>
      </trkpt>
      <trkpt lat="44.92485" lon="0.70352">
        <ele>110</ele>
        <time>2023-04-10T07:40:27Z</time>
      </trkpt>
      <trkpt lat="44.92486" lon="0.70346">
        <ele>109.9</ele>
        <time>2023-04-10T07:40:28Z</time>
      </trkpt>
      <trkpt lat="44.92488" lon="0.70334">
        <ele>109.7</ele>
        <time>2023-04-10T07:40:30Z</time>
      </trkpt>
      <trkpt lat="44.92491" lon="0.70323">
        <ele>109.3</ele>
        <time>2023-04-10T07:40:32Z</time>
      </trkpt>
      <trkpt lat="44.92493" lon="0.70312">
        <ele>108.9</ele>
        <time>2023-04-10T07:40:34Z</time>
      </trkpt>
      <trkpt lat="44.92494" lon="0.70298">
        <ele>108.3</ele>
        <time>2023-04-10T07:40:36Z</time>
      </trkpt>
      <trkpt lat="44.92495" lon="0.70284">
        <ele>107.7</ele>
        <time>2023-04-10T07:40:38Z</time>
      </trkpt>
      <trkpt lat="44.92496" lon="0.70268">
        <ele>107.1</ele>
        <time>2023-04-10T07:40:40Z</time>
      </trkpt>
      <trkpt lat="44.92496" lon="0.7026">
        <ele>106.9</ele>
        <time>2023-04-10T07:40:41Z</time>
      </trkpt>
      <trkpt lat="44.92495" lon="0.70251">
        <ele>106.8</ele>
        <time>2023-04-10T07:40:42Z</time>
      </trkpt>
      <trkpt lat="44.92491" lon="0.70235">
        <ele>106.6</ele>
        <time>2023-04-10T07:40:44Z</time>
      </trkpt>
      <trkpt lat="44.92487" lon="0.70221">
        <ele>106.6</ele>
        <time>2023-04-10T07:40:46Z</time>
      </trkpt>
      <trkpt lat="44.92484" lon="0.70215">
        <ele>106.7</ele>
        <time>2023-04-10T07:40:47Z</time>
      </trkpt>
      <trkpt lat="44.92481" lon="0.7021">
        <ele>106.7</ele>
        <time>2023-04-10T07:40:48Z</time>
      </trkpt>
      <trkpt lat="44.92479" lon="0.70203">
        <ele>106.8</ele>
        <time>2023-04-10T07:40:49Z</time>
      </trkpt>
      <trkpt lat="44.92477" lon="0.70197">
        <ele>106.9</ele>
        <time>2023-04-10T07:40:50Z</time>
      </trkpt>
      <trkpt lat="44.92474" lon="0.70184">
        <ele>107</ele>
        <time>2023-04-10T07:40:52Z</time>
      </trkpt>
      <trkpt lat="44.92473" lon="0.70178">
        <ele>107.1</ele>
        <time>2023-04-10T07:40:53Z</time>
      </trkpt>
      <trkpt lat="44.92471" lon="0.70172">
        <ele>107.3</ele>
        <time>2023-04-10T07:40:54Z</time>
      </trkpt>
      <trkpt lat="44.92469" lon="0.70159">
        <ele>107.5</ele>
        <time>2023-04-10T07:40:56Z</time>
      </trkpt>
      <trkpt lat="44.92467" lon="0.70147">
        <ele>107.6</ele>
        <time>2023-04-10T07:40:58Z</time>
      </trkpt>
      <trkpt lat="44.92465" lon="0.70137">
        <ele>107.6</ele>
        <time>2023-04-10T07:41:00Z</time>
      </trkpt>
      <trkpt lat="44.92463" lon="0.70126">
        <ele>107.5</ele>
        <time>2023-04-10T07:41:02Z</time>
      </trkpt>
      <trkpt lat="44.92461" lon="0.70114">
        <ele>107.3</ele>
        <time>2023-04-10T07:41:04Z</time>
      </trkpt>
      <trkpt lat="44.92459" lon="0.70102">
        <ele>107.1</ele>
        <time>2023-04-10T07:41:06Z</time>
      </trkpt>
      <trkpt lat="44.92458" lon="0.70095">
        <ele>107.1</ele>
        <time>2023-04-10T07:41:07Z</time>
      </trkpt>
      <trkpt lat="44.92458" lon="0.70088">
        <ele>107</ele>
        <time>2023-04-10T07:41:08Z</time>
      </trkpt>
      <trkpt lat="44.92458" lon="0.70082">
        <ele>106.9</ele>
        <time>2023-04-10T07:41:09Z</time>
      </trkpt>
      <trkpt lat="44.92457" lon="0.70075">
        <ele>106.9</ele>
        <time>2023-04-10T07:41:10Z</time>
      </trkpt>
      <trkpt lat="44.92456" lon="0.70068">
        <ele>106.9</ele>
        <time>2023-04-10T07:41:11Z</time>
      </trkpt>
      <trkpt lat="44.92456" lon="0.70061">
        <ele>106.8</ele>
        <time>2023-04-10T07:41:12Z</time>
      </trkpt>
      <trkpt lat="44.92456" lon="0.70046">
        <ele>106.8</ele>
        <time>2023-04-10T07:41:14Z</time>
      </trkpt>
      <trkpt lat="44.92455" lon="0.70039">
        <ele>106.7</ele>
        <time>2023-04-10T07:41:15Z</time>
      </trkpt>
      <trkpt lat="44.92454" lon="0.70032">
        <ele>106.7</ele>
        <time>2023-04-10T07:41:16Z</time>
      </trkpt>
      <trkpt lat="44.92453" lon="0.70025">
        <ele>106.7</ele>
        <time>2023-04-10T07:41:17Z</time>
      </trkpt>
      <trkpt lat="44.92453" lon="0.70018">
        <ele>106.7</ele>
        <time>2023-04-10T07:41:18Z</time>
      </trkpt>
      <trkpt lat="44.92453" lon="0.70011">
        <ele>106.7</ele>
        <time>2023-04-10T07:41:19Z</time>
      </trkpt>
      <trkpt lat="44.92453" lon="0.70004">
        <ele>106.7</ele>
        <time>2023-04-10T07:41:20Z</time>
      </trkpt>
      <trkpt lat="44.92452" lon="0.69997">
        <ele>106.6</ele>
        <time>2023-04-10T07:41:21Z</time>
      </trkpt>
      <trkpt lat="44.92452" lon="0.69991">
        <ele>106.6</ele>
        <time>2023-04-10T07:41:22Z</time>
      </trkpt>
      <trkpt lat="44.92451" lon="0.69984">
        <ele>106.5</ele>
        <time>2023-04-10T07:41:23Z</time>
      </trkpt>
      <trkpt lat="44.92449" lon="0.69977">
        <ele>106.4</ele>
        <time>2023-04-10T07:41:24Z</time>
      </trkpt>
      <trkpt lat="44.92448" lon="0.6997">
        <ele>106.3</ele>
        <time>2023-04-10T07:41:25Z</time>
      </trkpt>
      <trkpt lat="44.92447" lon="0.69963">
        <ele>106.1</ele>
        <time>2023-04-10T07:41:26Z</time>
      </trkpt>
      <trkpt lat="44.92445" lon="0.69949">
        <ele>105.8</ele>
        <time>2023-04-10T07:41:28Z</time>
      </trkpt>
      <trkpt lat="44.92441" lon="0.69934">
        <ele>105.5</ele>
        <time>2023-04-10T07:41:30Z</time>
      </trkpt>
      <trkpt lat="44.92438" lon="0.69918">
        <ele>105</ele>
        <time>2023-04-10T07:41:32Z</time>
      </trkpt>
      <trkpt lat="44.92437" lon="0.69909">
        <ele>104.8</ele>
        <time>2023-04-10T07:41:33Z</time>
      </trkpt>
      <trkpt lat="44.92436" lon="0.69899">
        <ele>104.6</ele>
        <time>2023-04-10T07:41:34Z</time>
      </trkpt>
      <trkpt lat="44.92435" lon="0.69889">
        <ele>104.4</ele>
        <time>2023-04-10T07:41:35Z</time>
      </trkpt>
      <trkpt lat="44.92434" lon="0.6988">
        <ele>104.3</ele>
        <time>2023-04-10T07:41:36Z</time>
      </trkpt>
      <trkpt lat="44.92435" lon="0.69863">
        <ele>104.2</ele>
        <time>2023-04-10T07:41:38Z</time>
      </trkpt>
      <trkpt lat="44.92438" lon="0.69847">
        <ele>104.2</ele>
        <time>2023-04-10T07:41:40Z</time>
      </trkpt>
      <trkpt lat="44.92442" lon="0.69831">
        <ele>104.1</ele>
        <time>2023-04-10T07:41:42Z</time>
      </trkpt>
      <trkpt lat="44.92443" lon="0.69824">
        <ele>104.1</ele>
        <time>2023-04-10T07:41:43Z</time>
      </trkpt>
      <trkpt lat="44.92445" lon="0.69817">
        <ele>104.1</ele>
        <time>2023-04-10T07:41:44Z</time>
      </trkpt>
      <trkpt lat="44.92448" lon="0.69809">
        <ele>104.1</ele>
        <time>2023-04-10T07:41:45Z</time>
      </trkpt>
      <trkpt lat="44.92451" lon="0.69802">
        <ele>104</ele>
        <time>2023-04-10T07:41:46Z</time>
      </trkpt>
      <trkpt lat="44.9245" lon="0.69795">
        <ele>104</ele>
        <time>2023-04-10T07:41:47Z</time>
      </trkpt>
      <trkpt lat="44.9245" lon="0.69788">
        <ele>103.9</ele>
        <time>2023-04-10T07:41:48Z</time>
      </trkpt>
      <trkpt lat="44.92448" lon="0.6978">
        <ele>103.9</ele>
        <time>2023-04-10T07:41:49Z</time>
      </trkpt>
      <trkpt lat="44.92446" lon="0.69772">
        <ele>103.9</ele>
        <time>2023-04-10T07:41:50Z</time>
      </trkpt>
      <trkpt lat="44.92442" lon="0.69758">
        <ele>103.9</ele>
        <time>2023-04-10T07:41:52Z</time>
      </trkpt>
      <trkpt lat="44.92439" lon="0.69752">
        <ele>103.9</ele>
        <time>2023-04-10T07:41:53Z</time>
      </trkpt>
      <trkpt lat="44.92436" lon="0.69747">
        <ele>103.9</ele>
        <time>2023-04-10T07:41:54Z</time>
      </trkpt>
      <trkpt lat="44.92429" lon="0.69737">
        <ele>103.8</ele>
        <time>2023-04-10T07:41:56Z</time>
      </trkpt>
      <trkpt lat="44.92425" lon="0.6973">
        <ele>103.8</ele>
        <time>2023-04-10T07:41:57Z</time>
      </trkpt>
      <trkpt lat="44.92423" lon="0.69723">
        <ele>103.8</ele>
        <time>2023-04-10T07:41:58Z</time>
      </trkpt>
      <trkpt lat="44.92421" lon="0.69715">
        <ele>103.7</ele>
        <time>2023-04-10T07:41:59Z</time>
      </trkpt>
      <trkpt lat="44.9242" lon="0.69706">
        <ele>103.7</ele>
        <time>2023-04-10T07:42:00Z</time>
      </trkpt>
      <trkpt lat="44.92419" lon="0.69689">
        <ele>103.9</ele>
        <time>2023-04-10T07:42:02Z</time>
      </trkpt>
      <trkpt lat="44.92419" lon="0.69671">
        <ele>104.1</ele>
        <time>2023-04-10T07:42:04Z</time>
      </trkpt>
      <trkpt lat="44.9242" lon="0.69663">
        <ele>104.2</ele>
        <time>2023-04-10T07:42:05Z</time>
      </trkpt>
      <trkpt lat="44.92421" lon="0.69655">
        <ele>104.2</ele>
        <time>2023-04-10T07:42:06Z</time>
      </trkpt>
      <trkpt lat="44.92422" lon="0.69639">
        <ele>104.3</ele>
        <time>2023-04-10T07:42:08Z</time>
      </trkpt>
      <trkpt lat="44.92423" lon="0.69631">
        <ele>104.3</ele>
        <time>2023-04-10T07:42:09Z</time>
      </trkpt>
      <trkpt lat="44.92424" lon="0.69623">
        <ele>104.4</ele>
        <time>2023-04-10T07:42:10Z</time>
      </trkpt>
      <trkpt lat="44.92424" lon="0.69607">
        <ele>104.5</ele>
        <time>2023-04-10T07:42:12Z</time>
      </trkpt>
      <trkpt lat="44.92425" lon="0.69591">
        <ele>104.8</ele>
        <time>2023-04-10T07:42:14Z</time>
      </trkpt>
      <trkpt lat="44.92425" lon="0.69584">
        <ele>105</ele>
        <time>2023-04-10T07:42:15Z</time>
      </trkpt>
      <trkpt lat="44.92426" lon="0.69577">
        <ele>105.2</ele>
        <time>2023-04-10T07:42:16Z</time>
      </trkpt>
      <trkpt lat="44.92426" lon="0.6957">
        <ele>105.4</ele>
        <time>2023-04-10T07:42:17Z</time>
      </trkpt>
      <trkpt lat="44.92427" lon="0.69563">
        <ele>105.6</ele>
        <time>2023-04-10T07:42:18Z</time>
      </trkpt>
      <trkpt lat="44.92429" lon="0.69551">
        <ele>105.9</ele>
        <time>2023-04-10T07:42:20Z</time>
      </trkpt>
      <trkpt lat="44.92431" lon="0.69538">
        <ele>106.2</ele>
        <time>2023-04-10T07:42:22Z</time>
      </trkpt>
      <trkpt lat="44.92432" lon="0.69526">
        <ele>106.4</ele>
        <time>2023-04-10T07:42:24Z</time>
      </trkpt>
      <trkpt lat="44.92433" lon="0.69513">
        <ele>106.6</ele>
        <time>2023-04-10T07:42:26Z</time>
      </trkpt>
      <trkpt lat="44.92435" lon="0.69501">
        <ele>106.8</ele>
        <time>2023-04-10T07:42:28Z</time>
      </trkpt>
      <trkpt lat="44.92437" lon="0.69488">
        <ele>107</ele>
        <time>2023-04-10T07:42:30Z</time>
      </trkpt>
      <trkpt lat="44.92439" lon="0.69477">
        <ele>107.3</ele>
        <time>2023-04-10T07:42:32Z</time>
      </trkpt>
      <trkpt lat="44.92441" lon="0.69472">
        <ele>107.4</ele>
        <time>2023-04-10T07:42:33Z</time>
      </trkpt>
      <trkpt lat="44.92443" lon="0.69466">
        <ele>107.6</ele>
        <time>2023-04-10T07:42:34Z</time>
      </trkpt>
      <trkpt lat="44.92446" lon="0.69455">
        <ele>108</ele>
        <time>2023-04-10T07:42:36Z</time>
      </trkpt>
      <trkpt lat="44.92449" lon="0.69442">
        <ele>108.3</ele>
        <time>2023-04-10T07:42:38Z</time>
      </trkpt>
      <trkpt lat="44.92453" lon="0.69429">
        <ele>108.5</ele>
        <time>2023-04-10T07:42:40Z</time>
      </trkpt>
      <trkpt lat="44.92454" lon="0.69416">
        <ele>108.6</ele>
        <time>2023-04-10T07:42:42Z</time>
      </trkpt>
      <trkpt lat="44.92455" lon="0.69402">
        <ele>108.7</ele>
        <time>2023-04-10T07:42:44Z</time>
      </trkpt>
      <trkpt lat="44.92457" lon="0.69388">
        <ele>108.8</ele>
        <time>2023-04-10T07:42:46Z</time>
      </trkpt>
      <trkpt lat="44.92457" lon="0.69375">
        <ele>109</ele>
        <time>2023-04-10T07:42:48Z</time>
      </trkpt>
      <trkpt lat="44.92458" lon="0.69361">
        <ele>109.1</ele>
        <time>2023-04-10T07:42:50Z</time>
      </trkpt>
      <trkpt lat="44.92458" lon="0.69347">
        <ele>109.2</ele>
        <time>2023-04-10T07:42:52Z</time>
      </trkpt>
      <trkpt lat="44.92458" lon="0.69333">
        <ele>109.1</ele>
        <time>2023-04-10T07:42:54Z</time>
      </trkpt>
      <trkpt lat="44.92457" lon="0.69325">
        <ele>109.1</ele>
        <time>2023-04-10T07:42:55Z</time>
      </trkpt>
      <trkpt lat="44.92457" lon="0.69318">
        <ele>109</ele>
        <time>2023-04-10T07:42:56Z</time>
      </trkpt>
      <trkpt lat="44.92455" lon="0.69302">
        <ele>108.7</ele>
        <time>2023-04-10T07:42:58Z</time>
      </trkpt>
      <trkpt lat="44.92453" lon="0.69286">
        <ele>108.4</ele>
        <time>2023-04-10T07:43:00Z</time>
      </trkpt>
      <trkpt lat="44.92452" lon="0.69277">
        <ele>108.3</ele>
        <time>2023-04-10T07:43:01Z</time>
      </trkpt>
      <trkpt lat="44.92451" lon="0.69269">
        <ele>108.1</ele>
        <time>2023-04-10T07:43:02Z</time>
      </trkpt>
      <trkpt lat="44.9245" lon="0.69252">
        <ele>107.8</ele>
        <time>2023-04-10T07:43:04Z</time>
      </trkpt>
      <trkpt lat="44.92448" lon="0.69234">
        <ele>107.2</ele>
        <time>2023-04-10T07:43:06Z</time>
      </trkpt>
      <trkpt lat="44.92446" lon="0.69215">
        <ele>106.6</ele>
        <time>2023-04-10T07:43:08Z</time>
      </trkpt>
      <trkpt lat="44.92445" lon="0.69204">
        <ele>106.4</ele>
        <time>2023-04-10T07:43:09Z</time>
      </trkpt>
      <trkpt lat="44.92445" lon="0.69194">
        <ele>106.2</ele>
        <time>2023-04-10T07:43:10Z</time>
      </trkpt>
      <trkpt lat="44.92446" lon="0.69173">
        <ele>106</ele>
        <time>2023-04-10T07:43:12Z</time>
      </trkpt>
      <trkpt lat="44.92448" lon="0.69152">
        <ele>106</ele>
        <time>2023-04-10T07:43:14Z</time>
      </trkpt>
      <trkpt lat="44.92452" lon="0.69134">
        <ele>106.1</ele>
        <time>2023-04-10T07:43:16Z</time>
      </trkpt>
      <trkpt lat="44.92454" lon="0.69117">
        <ele>106.1</ele>
        <time>2023-04-10T07:43:18Z</time>
      </trkpt>
      <trkpt lat="44.92455" lon="0.69109">
        <ele>106</ele>
        <time>2023-04-10T07:43:19Z</time>
      </trkpt>
      <trkpt lat="44.92455" lon="0.691">
        <ele>105.8</ele>
        <time>2023-04-10T07:43:20Z</time>
      </trkpt>
      <trkpt lat="44.92455" lon="0.69091">
        <ele>105.5</ele>
        <time>2023-04-10T07:43:21Z</time>
      </trkpt>
      <trkpt lat="44.92455" lon="0.69081">
        <ele>105.2</ele>
        <time>2023-04-10T07:43:22Z</time>
      </trkpt>
      <trkpt lat="44.92455" lon="0.69072">
        <ele>104.9</ele>
        <time>2023-04-10T07:43:23Z</time>
      </trkpt>
      <trkpt lat="44.92455" lon="0.69062">
        <ele>104.8</ele>
        <time>2023-04-10T07:43:24Z</time>
      </trkpt>
      <trkpt lat="44.92456" lon="0.69042">
        <ele>104.8</ele>
        <time>2023-04-10T07:43:26Z</time>
      </trkpt>
      <trkpt lat="44.92457" lon="0.69023">
        <ele>105</ele>
        <time>2023-04-10T07:43:28Z</time>
      </trkpt>
      <trkpt lat="44.92458" lon="0.69014">
        <ele>105.1</ele>
        <time>2023-04-10T07:43:29Z</time>
      </trkpt>
      <trkpt lat="44.92458" lon="0.69005">
        <ele>105.2</ele>
        <time>2023-04-10T07:43:30Z</time>
      </trkpt>
      <trkpt lat="44.92457" lon="0.68997">
        <ele>105.3</ele>
        <time>2023-04-10T07:43:31Z</time>
      </trkpt>
      <trkpt lat="44.92457" lon="0.68989">
        <ele>105.5</ele>
        <time>2023-04-10T07:43:32Z</time>
      </trkpt>
      <trkpt lat="44.92456" lon="0.68982">
        <ele>105.6</ele>
        <time>2023-04-10T07:43:33Z</time>
      </trkpt>
      <trkpt lat="44.92457" lon="0.68976">
        <ele>106.8</ele>
        <time>2023-04-10T07:43:34Z</time>
      </trkpt>
      <trkpt lat="44.9246" lon="0.68972">
        <ele>107</ele>
        <time>2023-04-10T07:43:35Z</time>
      </trkpt>
      <trkpt lat="44.92463" lon="0.68969">
        <ele>107.2</ele>
        <time>2023-04-10T07:43:36Z</time>
      </trkpt>
      <trkpt lat="44.92471" lon="0.68968">
        <ele>107.7</ele>
        <time>2023-04-10T07:43:38Z</time>
      </trkpt>
      <trkpt lat="44.9248" lon="0.68965">
        <ele>108.3</ele>
        <time>2023-04-10T07:43:40Z</time>
      </trkpt>
      <trkpt lat="44.92489" lon="0.68962">
        <ele>108.8</ele>
        <time>2023-04-10T07:43:42Z</time>
      </trkpt>
      <trkpt lat="44.92497" lon="0.68959">
        <ele>109.3</ele>
        <time>2023-04-10T07:43:44Z</time>
      </trkpt>
      <trkpt lat="44.92501" lon="0.68958">
        <ele>109.6</ele>
        <time>2023-04-10T07:43:45Z</time>
      </trkpt>
      <trkpt lat="44.92505" lon="0.68956">
        <ele>109.9</ele>
        <time>2023-04-10T07:43:46Z</time>
      </trkpt>
      <trkpt lat="44.92512" lon="0.68952">
        <ele>110.3</ele>
        <time>2023-04-10T07:43:48Z</time>
      </trkpt>
      <trkpt lat="44.92515" lon="0.6895">
        <ele>110.5</ele>
        <time>2023-04-10T07:43:49Z</time>
      </trkpt>
      <trkpt lat="44.92518" lon="0.68947">
        <ele>110.7</ele>
        <time>2023-04-10T07:43:50Z</time>
      </trkpt>
      <trkpt lat="44.92525" lon="0.68946">
        <ele>111</ele>
        <time>2023-04-10T07:43:52Z</time>
      </trkpt>
      <trkpt lat="44.92529" lon="0.68944">
        <ele>111.1</ele>
        <time>2023-04-10T07:43:53Z</time>
      </trkpt>
      <trkpt lat="44.92533" lon="0.68943">
        <ele>111.3</ele>
        <time>2023-04-10T07:43:54Z</time>
      </trkpt>
      <trkpt lat="44.92541" lon="0.68941">
        <ele>111.6</ele>
        <time>2023-04-10T07:43:56Z</time>
      </trkpt>
      <trkpt lat="44.92548" lon="0.6894">
        <ele>111.9</ele>
        <time>2023-04-10T07:43:58Z</time>
      </trkpt>
      <trkpt lat="44.92555" lon="0.68938">
        <ele>112.2</ele>
        <time>2023-04-10T07:44:00Z</time>
      </trkpt>
      <trkpt lat="44.92562" lon="0.68932">
        <ele>113.6</ele>
        <time>2023-04-10T07:44:02Z</time>
      </trkpt>
      <trkpt lat="44.92563" lon="0.68929">
        <ele>113.6</ele>
        <time>2023-04-10T07:44:03Z</time>
      </trkpt>
      <trkpt lat="44.92563" lon="0.68925">
        <ele>113.6</ele>
        <time>2023-04-10T07:44:04Z</time>
      </trkpt>
      <trkpt lat="44.92563" lon="0.68919">
        <ele>113.3</ele>
        <time>2023-04-10T07:44:06Z</time>
      </trkpt>
      <trkpt lat="44.92563" lon="0.68916">
        <ele>113.3</ele>
        <time>2023-04-10T07:44:07Z</time>
      </trkpt>
      <trkpt lat="44.92564" lon="0.68913">
        <ele>113.3</ele>
        <time>2023-04-10T07:44:08Z</time>
      </trkpt>
      <trkpt lat="44.92566" lon="0.68907">
        <ele>113.3</ele>
        <time>2023-04-10T07:44:10Z</time>
      </trkpt>
      <trkpt lat="44.92567" lon="0.68904">
        <ele>113.6</ele>
        <time>2023-04-10T07:44:11Z</time>
      </trkpt>
      <trkpt lat="44.92568" lon="0.68902">
        <ele>113.6</ele>
        <time>2023-04-10T07:44:12Z</time>
      </trkpt>
      <trkpt lat="44.9257" lon="0.68898">
        <ele>114.9</ele>
        <time>2023-04-10T07:44:14Z</time>
      </trkpt>
      <trkpt lat="44.92572" lon="0.68896">
        <ele>114.9</ele>
        <time>2023-04-10T07:44:15Z</time>
      </trkpt>
      <trkpt lat="44.92573" lon="0.68895">
        <ele>114.9</ele>
        <time>2023-04-10T07:44:16Z</time>
      </trkpt>
      <trkpt lat="44.92576" lon="0.68891">
        <ele>114.9</ele>
        <time>2023-04-10T07:44:18Z</time>
      </trkpt>
      <trkpt lat="44.92578" lon="0.68887">
        <ele>115.9</ele>
        <time>2023-04-10T07:44:20Z</time>
      </trkpt>
      <trkpt lat="44.9258" lon="0.68883">
        <ele>115.9</ele>
        <time>2023-04-10T07:44:22Z</time>
      </trkpt>
      <trkpt lat="44.92582" lon="0.6888">
        <ele>116.8</ele>
        <time>2023-04-10T07:44:24Z</time>
      </trkpt>
      <trkpt lat="44.92583" lon="0.68876">
        <ele>116.8</ele>
        <time>2023-04-10T07:44:26Z</time>
      </trkpt>
      <trkpt lat="44.92584" lon="0.68872">
        <ele>116.8</ele>
        <time>2023-04-10T07:44:28Z</time>
      </trkpt>
      <trkpt lat="44.92586" lon="0.6887">
        <ele>118.5</ele>
        <time>2023-04-10T07:44:29Z</time>
      </trkpt>
      <trkpt lat="44.92587" lon="0.68868">
        <ele>118.5</ele>
        <time>2023-04-10T07:44:30Z</time>
      </trkpt>
      <trkpt lat="44.9259" lon="0.68864">
        <ele>118.5</ele>
        <time>2023-04-10T07:44:32Z</time>
      </trkpt>
      <trkpt lat="44.92591" lon="0.6886">
        <ele>118.5</ele>
        <time>2023-04-10T07:44:34Z</time>
      </trkpt>
      <trkpt lat="44.92592" lon="0.68857">
        <ele>119.2</ele>
        <time>2023-04-10T07:44:36Z</time>
      </trkpt>
      <trkpt lat="44.92593" lon="0.68856">
        <ele>119.2</ele>
        <time>2023-04-10T07:44:37Z</time>
      </trkpt>
      <trkpt lat="44.92594" lon="0.68855">
        <ele>119.2</ele>
        <time>2023-04-10T07:44:38Z</time>
      </trkpt>
      <trkpt lat="44.92595" lon="0.68853">
        <ele>121.3</ele>
        <time>2023-04-10T07:44:39Z</time>
      </trkpt>
      <trkpt lat="44.92597" lon="0.68851">
        <ele>121.3</ele>
        <time>2023-04-10T07:44:40Z</time>
      </trkpt>
      <trkpt lat="44.92598" lon="0.68849">
        <ele>121.3</ele>
        <time>2023-04-10T07:44:41Z</time>
      </trkpt>
      <trkpt lat="44.926" lon="0.68848">
        <ele>121.3</ele>
        <time>2023-04-10T07:44:42Z</time>
      </trkpt>
      <trkpt lat="44.92602" lon="0.68844">
        <ele>121.3</ele>
        <time>2023-04-10T07:44:44Z</time>
      </trkpt>
      <trkpt lat="44.92603" lon="0.68842">
        <ele>121.3</ele>
        <time>2023-04-10T07:44:45Z</time>
      </trkpt>
      <trkpt lat="44.92604" lon="0.6884">
        <ele>121.3</ele>
        <time>2023-04-10T07:44:46Z</time>
      </trkpt>
      <trkpt lat="44.92607" lon="0.68836">
        <ele>123</ele>
        <time>2023-04-10T07:44:48Z</time>
      </trkpt>
      <trkpt lat="44.92608" lon="0.68834">
        <ele>123</ele>
        <time>2023-04-10T07:44:49Z</time>
      </trkpt>
      <trkpt lat="44.9261" lon="0.68832">
        <ele>123</ele>
        <time>2023-04-10T07:44:50Z</time>
      </trkpt>
      <trkpt lat="44.92612" lon="0.68827">
        <ele>123</ele>
        <time>2023-04-10T07:44:52Z</time>
      </trkpt>
      <trkpt lat="44.92615" lon="0.68823">
        <ele>123</ele>
        <time>2023-04-10T07:44:54Z</time>
      </trkpt>
      <trkpt lat="44.92618" lon="0.68821">
        <ele>122.6</ele>
        <time>2023-04-10T07:44:56Z</time>
      </trkpt>
      <trkpt lat="44.9262" lon="0.68817">
        <ele>123.9</ele>
        <time>2023-04-10T07:44:58Z</time>
      </trkpt>
      <trkpt lat="44.92622" lon="0.68814">
        <ele>123.9</ele>
        <time>2023-04-10T07:45:00Z</time>
      </trkpt>
      <trkpt lat="44.92623" lon="0.6881">
        <ele>123.9</ele>
        <time>2023-04-10T07:45:02Z</time>
      </trkpt>
      <trkpt lat="44.92625" lon="0.68807">
        <ele>123.9</ele>
        <time>2023-04-10T07:45:04Z</time>
      </trkpt>
      <trkpt lat="44.92628" lon="0.68803">
        <ele>123.9</ele>
        <time>2023-04-10T07:45:06Z</time>
      </trkpt>
      <trkpt lat="44.9263" lon="0.68801">
        <ele>125.2</ele>
        <time>2023-04-10T07:45:08Z</time>
      </trkpt>
      <trkpt lat="44.92631" lon="0.68799">
        <ele>125.2</ele>
        <time>2023-04-10T07:45:09Z</time>
      </trkpt>
      <trkpt lat="44.92631" lon="0.68797">
        <ele>125.2</ele>
        <time>2023-04-10T07:45:10Z</time>
      </trkpt>
      <trkpt lat="44.92633" lon="0.68794">
        <ele>125.3</ele>
        <time>2023-04-10T07:45:12Z</time>
      </trkpt>
      <trkpt lat="44.92633" lon="0.68793">
        <ele>125.3</ele>
        <time>2023-04-10T07:45:13Z</time>
      </trkpt>
      <trkpt lat="44.92634" lon="0.68792">
        <ele>125.3</ele>
        <time>2023-04-10T07:45:14Z</time>
      </trkpt>
      <trkpt lat="44.92634" lon="0.68789">
        <ele>125.3</ele>
        <time>2023-04-10T07:45:16Z</time>
      </trkpt>
      <trkpt lat="44.92593" lon="0.68785">
        <ele>127.2</ele>
        <time>2023-04-10T07:45:49Z</time>
      </trkpt>
      <trkpt lat="44.92591" lon="0.68785">
        <ele>127.7</ele>
        <time>2023-04-10T07:45:50Z</time>
      </trkpt>
      <trkpt lat="44.92586" lon="0.68784">
        <ele>129.9</ele>
        <time>2023-04-10T07:45:52Z</time>
      </trkpt>
      <trkpt lat="44.92585" lon="0.68784">
        <ele>129.9</ele>
        <time>2023-04-10T07:45:54Z</time>
      </trkpt>
      <trkpt lat="44.92583" lon="0.6878">
        <ele>130</ele>
        <time>2023-04-10T07:45:58Z</time>
      </trkpt>
      <trkpt lat="44.92583" lon="0.68776">
        <ele>130</ele>
        <time>2023-04-10T07:46:00Z</time>
      </trkpt>
      <trkpt lat="44.92583" lon="0.68771">
        <ele>130</ele>
        <time>2023-04-10T07:46:02Z</time>
      </trkpt>
      <trkpt lat="44.92584" lon="0.68767">
        <ele>132.5</ele>
        <time>2023-04-10T07:46:04Z</time>
      </trkpt>
      <trkpt lat="44.92585" lon="0.68766">
        <ele>132.5</ele>
        <time>2023-04-10T07:46:05Z</time>
      </trkpt>
      <trkpt lat="44.92586" lon="0.68764">
        <ele>132.5</ele>
        <time>2023-04-10T07:46:06Z</time>
      </trkpt>
      <trkpt lat="44.92587" lon="0.68761">
        <ele>132.5</ele>
        <time>2023-04-10T07:46:08Z</time>
      </trkpt>
      <trkpt lat="44.92588" lon="0.68759">
        <ele>132.5</ele>
        <time>2023-04-10T07:46:09Z</time>
      </trkpt>
      <trkpt lat="44.92588" lon="0.68757">
        <ele>132.5</ele>
        <time>2023-04-10T07:46:10Z</time>
      </trkpt>
      <trkpt lat="44.9259" lon="0.68754">
        <ele>132.5</ele>
        <time>2023-04-10T07:46:12Z</time>
      </trkpt>
      <trkpt lat="44.92591" lon="0.68749">
        <ele>135.5</ele>
        <time>2023-04-10T07:46:14Z</time>
      </trkpt>
      <trkpt lat="44.92592" lon="0.68747">
        <ele>135.5</ele>
        <time>2023-04-10T07:46:15Z</time>
      </trkpt>
      <trkpt lat="44.92592" lon="0.68745">
        <ele>135.5</ele>
        <time>2023-04-10T07:46:16Z</time>
      </trkpt>
      <trkpt lat="44.92592" lon="0.6874">
        <ele>134.3</ele>
        <time>2023-04-10T07:46:18Z</time>
      </trkpt>
      <trkpt lat="44.92593" lon="0.68735">
        <ele>134.3</ele>
        <time>2023-04-10T07:46:20Z</time>
      </trkpt>
      <trkpt lat="44.92594" lon="0.68733">
        <ele>134.3</ele>
        <time>2023-04-10T07:46:21Z</time>
      </trkpt>
      <trkpt lat="44.92595" lon="0.68731">
        <ele>137</ele>
        <time>2023-04-10T07:46:22Z</time>
      </trkpt>
      <trkpt lat="44.92596" lon="0.68727">
        <ele>137</ele>
        <time>2023-04-10T07:46:24Z</time>
      </trkpt>
      <trkpt lat="44.92598" lon="0.68723">
        <ele>137</ele>
        <time>2023-04-10T07:46:26Z</time>
      </trkpt>
      <trkpt lat="44.926" lon="0.6872">
        <ele>137</ele>
        <time>2023-04-10T07:46:28Z</time>
      </trkpt>
      <trkpt lat="44.92602" lon="0.68716">
        <ele>137</ele>
        <time>2023-04-10T07:46:30Z</time>
      </trkpt>
      <trkpt lat="44.92603" lon="0.68715">
        <ele>139.4</ele>
        <time>2023-04-10T07:46:31Z</time>
      </trkpt>
      <trkpt lat="44.92605" lon="0.68714">
        <ele>138.4</ele>
        <time>2023-04-10T07:46:32Z</time>
      </trkpt>
      <trkpt lat="44.9261" lon="0.6871">
        <ele>138.4</ele>
        <time>2023-04-10T07:46:34Z</time>
      </trkpt>
      <trkpt lat="44.92612" lon="0.68708">
        <ele>138.4</ele>
        <time>2023-04-10T07:46:35Z</time>
      </trkpt>
      <trkpt lat="44.92613" lon="0.68706">
        <ele>138.4</ele>
        <time>2023-04-10T07:46:36Z</time>
      </trkpt>
      <trkpt lat="44.92617" lon="0.68704">
        <ele>137</ele>
        <time>2023-04-10T07:46:38Z</time>
      </trkpt>
      <trkpt lat="44.92618" lon="0.68702">
        <ele>137</ele>
        <time>2023-04-10T07:46:40Z</time>
      </trkpt>
      <trkpt lat="44.92623" lon="0.68698">
        <ele>139.6</ele>
        <time>2023-04-10T07:46:42Z</time>
      </trkpt>
      <trkpt lat="44.92625" lon="0.68696">
        <ele>139.6</ele>
        <time>2023-04-10T07:46:43Z</time>
      </trkpt>
      <trkpt lat="44.92626" lon="0.68693">
        <ele>139.6</ele>
        <time>2023-04-10T07:46:44Z</time>
      </trkpt>
      <trkpt lat="44.92631" lon="0.68688">
        <ele>138.3</ele>
        <time>2023-04-10T07:46:46Z</time>
      </trkpt>
      <trkpt lat="44.92634" lon="0.68684">
        <ele>138.3</ele>
        <time>2023-04-10T07:46:48Z</time>
      </trkpt>
      <trkpt lat="44.92636" lon="0.68681">
        <ele>140.7</ele>
        <time>2023-04-10T07:46:49Z</time>
      </trkpt>
      <trkpt lat="44.92637" lon="0.68679">
        <ele>140.7</ele>
        <time>2023-04-10T07:46:50Z</time>
      </trkpt>
      <trkpt lat="44.92638" lon="0.68676">
        <ele>140.7</ele>
        <time>2023-04-10T07:46:51Z</time>
      </trkpt>
      <trkpt lat="44.9264" lon="0.68674">
        <ele>140.7</ele>
        <time>2023-04-10T07:46:52Z</time>
      </trkpt>
      <trkpt lat="44.92645" lon="0.68668">
        <ele>139.4</ele>
        <time>2023-04-10T07:46:54Z</time>
      </trkpt>
      <trkpt lat="44.9265" lon="0.68661">
        <ele>142</ele>
        <time>2023-04-10T07:46:56Z</time>
      </trkpt>
      <trkpt lat="44.92654" lon="0.68655">
        <ele>141</ele>
        <time>2023-04-10T07:46:58Z</time>
      </trkpt>
      <trkpt lat="44.92656" lon="0.68652">
        <ele>141.1</ele>
        <time>2023-04-10T07:46:59Z</time>
      </trkpt>
      <trkpt lat="44.92658" lon="0.6865">
        <ele>141.1</ele>
        <time>2023-04-10T07:47:00Z</time>
      </trkpt>
      <trkpt lat="44.92661" lon="0.68644">
        <ele>143.2</ele>
        <time>2023-04-10T07:47:02Z</time>
      </trkpt>
      <trkpt lat="44.92665" lon="0.68639">
        <ele>143.2</ele>
        <time>2023-04-10T07:47:04Z</time>
      </trkpt>
      <trkpt lat="44.92668" lon="0.68634">
        <ele>142.3</ele>
        <time>2023-04-10T07:47:06Z</time>
      </trkpt>
      <trkpt lat="44.92672" lon="0.6863">
        <ele>144.3</ele>
        <time>2023-04-10T07:47:08Z</time>
      </trkpt>
      <trkpt lat="44.92673" lon="0.68627">
        <ele>144.4</ele>
        <time>2023-04-10T07:47:09Z</time>
      </trkpt>
      <trkpt lat="44.92675" lon="0.68625">
        <ele>144.5</ele>
        <time>2023-04-10T07:47:10Z</time>
      </trkpt>
      <trkpt lat="44.92678" lon="0.68622">
        <ele>144.7</ele>
        <time>2023-04-10T07:47:11Z</time>
      </trkpt>
      <trkpt lat="44.92679" lon="0.68619">
        <ele>144.8</ele>
        <time>2023-04-10T07:47:12Z</time>
      </trkpt>
      <trkpt lat="44.92682" lon="0.68614">
        <ele>145</ele>
        <time>2023-04-10T07:47:14Z</time>
      </trkpt>
      <trkpt lat="44.92685" lon="0.68609">
        <ele>145.3</ele>
        <time>2023-04-10T07:47:16Z</time>
      </trkpt>
      <trkpt lat="44.92688" lon="0.68604">
        <ele>145.5</ele>
        <time>2023-04-10T07:47:18Z</time>
      </trkpt>
      <trkpt lat="44.92691" lon="0.68599">
        <ele>145.7</ele>
        <time>2023-04-10T07:47:20Z</time>
      </trkpt>
      <trkpt lat="44.92695" lon="0.68594">
        <ele>146</ele>
        <time>2023-04-10T07:47:22Z</time>
      </trkpt>
      <trkpt lat="44.92698" lon="0.68589">
        <ele>146.2</ele>
        <time>2023-04-10T07:47:24Z</time>
      </trkpt>
      <trkpt lat="44.92701" lon="0.68585">
        <ele>146.3</ele>
        <time>2023-04-10T07:47:26Z</time>
      </trkpt>
      <trkpt lat="44.92704" lon="0.6858">
        <ele>146.5</ele>
        <time>2023-04-10T07:47:28Z</time>
      </trkpt>
      <trkpt lat="44.92708" lon="0.68576">
        <ele>146.7</ele>
        <time>2023-04-10T07:47:30Z</time>
      </trkpt>
      <trkpt lat="44.92711" lon="0.68572">
        <ele>146.8</ele>
        <time>2023-04-10T07:47:32Z</time>
      </trkpt>
      <trkpt lat="44.92714" lon="0.68567">
        <ele>147</ele>
        <time>2023-04-10T07:47:34Z</time>
      </trkpt>
      <trkpt lat="44.92717" lon="0.68562">
        <ele>147</ele>
        <time>2023-04-10T07:47:36Z</time>
      </trkpt>
      <trkpt lat="44.92718" lon="0.68556">
        <ele>147.1</ele>
        <time>2023-04-10T07:47:38Z</time>
      </trkpt>
      <trkpt lat="44.92718" lon="0.6855">
        <ele>147.2</ele>
        <time>2023-04-10T07:47:40Z</time>
      </trkpt>
      <trkpt lat="44.92718" lon="0.68547">
        <ele>147.2</ele>
        <time>2023-04-10T07:47:41Z</time>
      </trkpt>
      <trkpt lat="44.92718" lon="0.68544">
        <ele>147.3</ele>
        <time>2023-04-10T07:47:42Z</time>
      </trkpt>
      <trkpt lat="44.92716" lon="0.68537">
        <ele>147.4</ele>
        <time>2023-04-10T07:47:44Z</time>
      </trkpt>
      <trkpt lat="44.92714" lon="0.68532">
        <ele>147.6</ele>
        <time>2023-04-10T07:47:46Z</time>
      </trkpt>
      <trkpt lat="44.92713" lon="0.68528">
        <ele>147.6</ele>
        <time>2023-04-10T07:47:47Z</time>
      </trkpt>
      <trkpt lat="44.92712" lon="0.68525">
        <ele>147.7</ele>
        <time>2023-04-10T07:47:48Z</time>
      </trkpt>
      <trkpt lat="44.9271" lon="0.68519">
        <ele>147.9</ele>
        <time>2023-04-10T07:47:50Z</time>
      </trkpt>
      <trkpt lat="44.92708" lon="0.68513">
        <ele>148</ele>
        <time>2023-04-10T07:47:52Z</time>
      </trkpt>
      <trkpt lat="44.92706" lon="0.68507">
        <ele>148.1</ele>
        <time>2023-04-10T07:47:54Z</time>
      </trkpt>
      <trkpt lat="44.92704" lon="0.685">
        <ele>148.1</ele>
        <time>2023-04-10T07:47:56Z</time>
      </trkpt>
      <trkpt lat="44.92702" lon="0.68498">
        <ele>148.1</ele>
        <time>2023-04-10T07:47:57Z</time>
      </trkpt>
      <trkpt lat="44.92699" lon="0.68495">
        <ele>148.1</ele>
        <time>2023-04-10T07:47:58Z</time>
      </trkpt>
      <trkpt lat="44.92696" lon="0.68495">
        <ele>148</ele>
        <time>2023-04-10T07:47:59Z</time>
      </trkpt>
      <trkpt lat="44.92693" lon="0.68496">
        <ele>147.9</ele>
        <time>2023-04-10T07:48:00Z</time>
      </trkpt>
      <trkpt lat="44.92685" lon="0.68498">
        <ele>147.7</ele>
        <time>2023-04-10T07:48:02Z</time>
      </trkpt>
      <trkpt lat="44.92682" lon="0.685">
        <ele>147.6</ele>
        <time>2023-04-10T07:48:03Z</time>
      </trkpt>
      <trkpt lat="44.92679" lon="0.68502">
        <ele>147.5</ele>
        <time>2023-04-10T07:48:04Z</time>
      </trkpt>
      <trkpt lat="44.92672" lon="0.68507">
        <ele>147.3</ele>
        <time>2023-04-10T07:48:06Z</time>
      </trkpt>
      <trkpt lat="44.92665" lon="0.68514">
        <ele>147.1</ele>
        <time>2023-04-10T07:48:08Z</time>
      </trkpt>
      <trkpt lat="44.92656" lon="0.6852">
        <ele>146.8</ele>
        <time>2023-04-10T07:48:10Z</time>
      </trkpt>
      <trkpt lat="44.92647" lon="0.68522">
        <ele>146.6</ele>
        <time>2023-04-10T07:48:12Z</time>
      </trkpt>
      <trkpt lat="44.92641" lon="0.6852">
        <ele>146.5</ele>
        <time>2023-04-10T07:48:13Z</time>
      </trkpt>
      <trkpt lat="44.92637" lon="0.68517">
        <ele>146</ele>
        <time>2023-04-10T07:48:14Z</time>
      </trkpt>
      <trkpt lat="44.92632" lon="0.68511">
        <ele>146</ele>
        <time>2023-04-10T07:48:15Z</time>
      </trkpt>
      <trkpt lat="44.92627" lon="0.68505">
        <ele>144.8</ele>
        <time>2023-04-10T07:48:16Z</time>
      </trkpt>
      <trkpt lat="44.92617" lon="0.68493">
        <ele>144.7</ele>
        <time>2023-04-10T07:48:18Z</time>
      </trkpt>
      <trkpt lat="44.92613" lon="0.68488">
        <ele>142.6</ele>
        <time>2023-04-10T07:48:19Z</time>
      </trkpt>
      <trkpt lat="44.92608" lon="0.68483">
        <ele>142.5</ele>
        <time>2023-04-10T07:48:20Z</time>
      </trkpt>
      <trkpt lat="44.92596" lon="0.68477">
        <ele>141.5</ele>
        <time>2023-04-10T07:48:22Z</time>
      </trkpt>
      <trkpt lat="44.9258" lon="0.68471">
        <ele>138.6</ele>
        <time>2023-04-10T07:48:24Z</time>
      </trkpt>
      <trkpt lat="44.92571" lon="0.68468">
        <ele>137.1</ele>
        <time>2023-04-10T07:48:25Z</time>
      </trkpt>
      <trkpt lat="44.92563" lon="0.68466">
        <ele>135.6</ele>
        <time>2023-04-10T07:48:26Z</time>
      </trkpt>
      <trkpt lat="44.92543" lon="0.68461">
        <ele>133</ele>
        <time>2023-04-10T07:48:28Z</time>
      </trkpt>
      <trkpt lat="44.92527" lon="0.68454">
        <ele>130.3</ele>
        <time>2023-04-10T07:48:30Z</time>
      </trkpt>
      <trkpt lat="44.9252" lon="0.68452">
        <ele>130.2</ele>
        <time>2023-04-10T07:48:31Z</time>
      </trkpt>
      <trkpt lat="44.92515" lon="0.68452">
        <ele>129.2</ele>
        <time>2023-04-10T07:48:32Z</time>
      </trkpt>
      <trkpt lat="44.92509" lon="0.68452">
        <ele>129.2</ele>
        <time>2023-04-10T07:48:34Z</time>
      </trkpt>
      <trkpt lat="44.92507" lon="0.68452">
        <ele>127.8</ele>
        <time>2023-04-10T07:48:35Z</time>
      </trkpt>
      <trkpt lat="44.92504" lon="0.68452">
        <ele>127.8</ele>
        <time>2023-04-10T07:48:36Z</time>
      </trkpt>
      <trkpt lat="44.92505" lon="0.6845">
        <ele>127.7</ele>
        <time>2023-04-10T07:48:38Z</time>
      </trkpt>
      <trkpt lat="44.92511" lon="0.68448">
        <ele>129</ele>
        <time>2023-04-10T07:48:40Z</time>
      </trkpt>
      <trkpt lat="44.92515" lon="0.68447">
        <ele>128.9</ele>
        <time>2023-04-10T07:48:41Z</time>
      </trkpt>
      <trkpt lat="44.92519" lon="0.68447">
        <ele>128.9</ele>
        <time>2023-04-10T07:48:42Z</time>
      </trkpt>
      <trkpt lat="44.92527" lon="0.68445">
        <ele>129.8</ele>
        <time>2023-04-10T07:48:44Z</time>
      </trkpt>
      <trkpt lat="44.92529" lon="0.68443">
        <ele>129.7</ele>
        <time>2023-04-10T07:48:45Z</time>
      </trkpt>
      <trkpt lat="44.92533" lon="0.6844">
        <ele>128.8</ele>
        <time>2023-04-10T07:48:46Z</time>
      </trkpt>
      <trkpt lat="44.92539" lon="0.68435">
        <ele>128.8</ele>
        <time>2023-04-10T07:48:47Z</time>
      </trkpt>
      <trkpt lat="44.92541" lon="0.68431">
        <ele>128.7</ele>
        <time>2023-04-10T07:48:48Z</time>
      </trkpt>
      <trkpt lat="44.92551" lon="0.68425">
        <ele>129.7</ele>
        <time>2023-04-10T07:48:50Z</time>
      </trkpt>
      <trkpt lat="44.92558" lon="0.68415">
        <ele>129.6</ele>
        <time>2023-04-10T07:48:52Z</time>
      </trkpt>
      <trkpt lat="44.9256" lon="0.68411">
        <ele>129.5</ele>
        <time>2023-04-10T07:48:53Z</time>
      </trkpt>
      <trkpt lat="44.92561" lon="0.68406">
        <ele>128.2</ele>
        <time>2023-04-10T07:48:54Z</time>
      </trkpt>
      <trkpt lat="44.92565" lon="0.68394">
        <ele>128.1</ele>
        <time>2023-04-10T07:48:56Z</time>
      </trkpt>
      <trkpt lat="44.92563" lon="0.68383">
        <ele>126.7</ele>
        <time>2023-04-10T07:48:58Z</time>
      </trkpt>
      <trkpt lat="44.92562" lon="0.68379">
        <ele>126.6</ele>
        <time>2023-04-10T07:48:59Z</time>
      </trkpt>
      <trkpt lat="44.92561" lon="0.68375">
        <ele>126.5</ele>
        <time>2023-04-10T07:49:00Z</time>
      </trkpt>
      <trkpt lat="44.92559" lon="0.68368">
        <ele>126.2</ele>
        <time>2023-04-10T07:49:02Z</time>
      </trkpt>
      <trkpt lat="44.92557" lon="0.68365">
        <ele>126.1</ele>
        <time>2023-04-10T07:49:03Z</time>
      </trkpt>
      <trkpt lat="44.92556" lon="0.68362">
        <ele>126</ele>
        <time>2023-04-10T07:49:04Z</time>
      </trkpt>
      <trkpt lat="44.92555" lon="0.68356">
        <ele>125.7</ele>
        <time>2023-04-10T07:49:06Z</time>
      </trkpt>
      <trkpt lat="44.92554" lon="0.68351">
        <ele>125.6</ele>
        <time>2023-04-10T07:49:08Z</time>
      </trkpt>
      <trkpt lat="44.92553" lon="0.68346">
        <ele>125.4</ele>
        <time>2023-04-10T07:49:10Z</time>
      </trkpt>
      <trkpt lat="44.9255" lon="0.6834">
        <ele>125.1</ele>
        <time>2023-04-10T07:49:12Z</time>
      </trkpt>
      <trkpt lat="44.92548" lon="0.68335">
        <ele>124.9</ele>
        <time>2023-04-10T07:49:14Z</time>
      </trkpt>
      <trkpt lat="44.92544" lon="0.68328">
        <ele>124.6</ele>
        <time>2023-04-10T07:49:16Z</time>
      </trkpt>
      <trkpt lat="44.92541" lon="0.68322">
        <ele>124.3</ele>
        <time>2023-04-10T07:49:18Z</time>
      </trkpt>
      <trkpt lat="44.92538" lon="0.68317">
        <ele>124.1</ele>
        <time>2023-04-10T07:49:20Z</time>
      </trkpt>
      <trkpt lat="44.92536" lon="0.68311">
        <ele>123.8</ele>
        <time>2023-04-10T07:49:22Z</time>
      </trkpt>
      <trkpt lat="44.92534" lon="0.68306">
        <ele>123.7</ele>
        <time>2023-04-10T07:49:24Z</time>
      </trkpt>
      <trkpt lat="44.92532" lon="0.68301">
        <ele>123.8</ele>
        <time>2023-04-10T07:49:26Z</time>
      </trkpt>
      <trkpt lat="44.92531" lon="0.68295">
        <ele>123.7</ele>
        <time>2023-04-10T07:49:28Z</time>
      </trkpt>
      <trkpt lat="44.92528" lon="0.68289">
        <ele>123.6</ele>
        <time>2023-04-10T07:49:30Z</time>
      </trkpt>
      <trkpt lat="44.92526" lon="0.68284">
        <ele>123.5</ele>
        <time>2023-04-10T07:49:32Z</time>
      </trkpt>
      <trkpt lat="44.92523" lon="0.68278">
        <ele>123.5</ele>
        <time>2023-04-10T07:49:34Z</time>
      </trkpt>
      <trkpt lat="44.92522" lon="0.68269">
        <ele>126.1</ele>
        <time>2023-04-10T07:49:36Z</time>
      </trkpt>
      <trkpt lat="44.92525" lon="0.6826">
        <ele>125.9</ele>
        <time>2023-04-10T07:49:38Z</time>
      </trkpt>
      <trkpt lat="44.92527" lon="0.68257">
        <ele>125.9</ele>
        <time>2023-04-10T07:49:39Z</time>
      </trkpt>
      <trkpt lat="44.92529" lon="0.68254">
        <ele>125.8</ele>
        <time>2023-04-10T07:49:40Z</time>
      </trkpt>
      <trkpt lat="44.9253" lon="0.68248">
        <ele>125.7</ele>
        <time>2023-04-10T07:49:42Z</time>
      </trkpt>
      <trkpt lat="44.92528" lon="0.68245">
        <ele>125.2</ele>
        <time>2023-04-10T07:49:43Z</time>
      </trkpt>
      <trkpt lat="44.92525" lon="0.68243">
        <ele>125</ele>
        <time>2023-04-10T07:49:44Z</time>
      </trkpt>
      <trkpt lat="44.92518" lon="0.68242">
        <ele>124.3</ele>
        <time>2023-04-10T07:49:46Z</time>
      </trkpt>
      <trkpt lat="44.92515" lon="0.68241">
        <ele>124.1</ele>
        <time>2023-04-10T07:49:47Z</time>
      </trkpt>
      <trkpt lat="44.92511" lon="0.68241">
        <ele>123.7</ele>
        <time>2023-04-10T07:49:48Z</time>
      </trkpt>
      <trkpt lat="44.92504" lon="0.68239">
        <ele>123.1</ele>
        <time>2023-04-10T07:49:50Z</time>
      </trkpt>
      <trkpt lat="44.92495" lon="0.68239">
        <ele>122.3</ele>
        <time>2023-04-10T07:49:52Z</time>
      </trkpt>
      <trkpt lat="44.92491" lon="0.68239">
        <ele>121.9</ele>
        <time>2023-04-10T07:49:53Z</time>
      </trkpt>
      <trkpt lat="44.92486" lon="0.68238">
        <ele>121.4</ele>
        <time>2023-04-10T07:49:54Z</time>
      </trkpt>
      <trkpt lat="44.92476" lon="0.68238">
        <ele>120.6</ele>
        <time>2023-04-10T07:49:56Z</time>
      </trkpt>
      <trkpt lat="44.92471" lon="0.68237">
        <ele>120.1</ele>
        <time>2023-04-10T07:49:57Z</time>
      </trkpt>
      <trkpt lat="44.92466" lon="0.68237">
        <ele>119.6</ele>
        <time>2023-04-10T07:49:58Z</time>
      </trkpt>
      <trkpt lat="44.92454" lon="0.6824">
        <ele>118.6</ele>
        <time>2023-04-10T07:50:00Z</time>
      </trkpt>
      <trkpt lat="44.92449" lon="0.68243">
        <ele>118.1</ele>
        <time>2023-04-10T07:50:01Z</time>
      </trkpt>
      <trkpt lat="44.92444" lon="0.68247">
        <ele>117.5</ele>
        <time>2023-04-10T07:50:02Z</time>
      </trkpt>
      <trkpt lat="44.92433" lon="0.68255">
        <ele>116.6</ele>
        <time>2023-04-10T07:50:04Z</time>
      </trkpt>
      <trkpt lat="44.92423" lon="0.68263">
        <ele>115.6</ele>
        <time>2023-04-10T07:50:06Z</time>
      </trkpt>
      <trkpt lat="44.92418" lon="0.68268">
        <ele>115.2</ele>
        <time>2023-04-10T07:50:07Z</time>
      </trkpt>
      <trkpt lat="44.92413" lon="0.68272">
        <ele>114.7</ele>
        <time>2023-04-10T07:50:08Z</time>
      </trkpt>
      <trkpt lat="44.92403" lon="0.68281">
        <ele>113.8</ele>
        <time>2023-04-10T07:50:10Z</time>
      </trkpt>
      <trkpt lat="44.92395" lon="0.68289">
        <ele>113</ele>
        <time>2023-04-10T07:50:12Z</time>
      </trkpt>
      <trkpt lat="44.92386" lon="0.68296">
        <ele>112.2</ele>
        <time>2023-04-10T07:50:14Z</time>
      </trkpt>
      <trkpt lat="44.92375" lon="0.68302">
        <ele>111.2</ele>
        <time>2023-04-10T07:50:16Z</time>
      </trkpt>
      <trkpt lat="44.92362" lon="0.68308">
        <ele>110.2</ele>
        <time>2023-04-10T07:50:18Z</time>
      </trkpt>
      <trkpt lat="44.92354" lon="0.6831">
        <ele>109.7</ele>
        <time>2023-04-10T07:50:19Z</time>
      </trkpt>
      <trkpt lat="44.92347" lon="0.68312">
        <ele>109.2</ele>
        <time>2023-04-10T07:50:20Z</time>
      </trkpt>
      <trkpt lat="44.92331" lon="0.68317">
        <ele>108.1</ele>
        <time>2023-04-10T07:50:22Z</time>
      </trkpt>
      <trkpt lat="44.92313" lon="0.68323">
        <ele>106.3</ele>
        <time>2023-04-10T07:50:24Z</time>
      </trkpt>
      <trkpt lat="44.92303" lon="0.68325">
        <ele>105.3</ele>
        <time>2023-04-10T07:50:25Z</time>
      </trkpt>
      <trkpt lat="44.92293" lon="0.68326">
        <ele>104.2</ele>
        <time>2023-04-10T07:50:26Z</time>
      </trkpt>
      <trkpt lat="44.92274" lon="0.68327">
        <ele>102.2</ele>
        <time>2023-04-10T07:50:28Z</time>
      </trkpt>
      <trkpt lat="44.92264" lon="0.68325">
        <ele>101.4</ele>
        <time>2023-04-10T07:50:29Z</time>
      </trkpt>
      <trkpt lat="44.92255" lon="0.68322">
        <ele>100.5</ele>
        <time>2023-04-10T07:50:30Z</time>
      </trkpt>
      <trkpt lat="44.92237" lon="0.68314">
        <ele>99</ele>
        <time>2023-04-10T07:50:32Z</time>
      </trkpt>
      <trkpt lat="44.92221" lon="0.68306">
        <ele>97.7</ele>
        <time>2023-04-10T07:50:34Z</time>
      </trkpt>
      <trkpt lat="44.92213" lon="0.683">
        <ele>97.1</ele>
        <time>2023-04-10T07:50:35Z</time>
      </trkpt>
      <trkpt lat="44.92206" lon="0.68291">
        <ele>97.7</ele>
        <time>2023-04-10T07:50:36Z</time>
      </trkpt>
      <trkpt lat="44.92196" lon="0.68271">
        <ele>97.6</ele>
        <time>2023-04-10T07:50:38Z</time>
      </trkpt>
      <trkpt lat="44.92188" lon="0.68254">
        <ele>97.2</ele>
        <time>2023-04-10T07:50:40Z</time>
      </trkpt>
      <trkpt lat="44.92181" lon="0.68237">
        <ele>97.1</ele>
        <time>2023-04-10T07:50:42Z</time>
      </trkpt>
      <trkpt lat="44.92178" lon="0.6823">
        <ele>97</ele>
        <time>2023-04-10T07:50:43Z</time>
      </trkpt>
      <trkpt lat="44.92174" lon="0.68223">
        <ele>97</ele>
        <time>2023-04-10T07:50:44Z</time>
      </trkpt>
      <trkpt lat="44.92168" lon="0.6821">
        <ele>97</ele>
        <time>2023-04-10T07:50:46Z</time>
      </trkpt>
      <trkpt lat="44.92161" lon="0.68198">
        <ele>96.9</ele>
        <time>2023-04-10T07:50:48Z</time>
      </trkpt>
      <trkpt lat="44.92157" lon="0.68191">
        <ele>96.8</ele>
        <time>2023-04-10T07:50:49Z</time>
      </trkpt>
      <trkpt lat="44.92154" lon="0.68185">
        <ele>96.8</ele>
        <time>2023-04-10T07:50:50Z</time>
      </trkpt>
      <trkpt lat="44.92147" lon="0.68173">
        <ele>96.7</ele>
        <time>2023-04-10T07:50:52Z</time>
      </trkpt>
      <trkpt lat="44.92141" lon="0.68162">
        <ele>96.7</ele>
        <time>2023-04-10T07:50:54Z</time>
      </trkpt>
      <trkpt lat="44.92138" lon="0.68157">
        <ele>96.7</ele>
        <time>2023-04-10T07:50:55Z</time>
      </trkpt>
      <trkpt lat="44.92135" lon="0.68151">
        <ele>96.7</ele>
        <time>2023-04-10T07:50:56Z</time>
      </trkpt>
      <trkpt lat="44.92129" lon="0.6814">
        <ele>96.7</ele>
        <time>2023-04-10T07:50:58Z</time>
      </trkpt>
      <trkpt lat="44.92123" lon="0.68128">
        <ele>96.8</ele>
        <time>2023-04-10T07:51:00Z</time>
      </trkpt>
      <trkpt lat="44.92118" lon="0.68116">
        <ele>96.8</ele>
        <time>2023-04-10T07:51:02Z</time>
      </trkpt>
      <trkpt lat="44.92115" lon="0.68111">
        <ele>96.7</ele>
        <time>2023-04-10T07:51:03Z</time>
      </trkpt>
      <trkpt lat="44.92112" lon="0.68105">
        <ele>96.7</ele>
        <time>2023-04-10T07:51:04Z</time>
      </trkpt>
      <trkpt lat="44.92106" lon="0.68092">
        <ele>96.5</ele>
        <time>2023-04-10T07:51:06Z</time>
      </trkpt>
      <trkpt lat="44.92101" lon="0.6808">
        <ele>96.4</ele>
        <time>2023-04-10T07:51:08Z</time>
      </trkpt>
      <trkpt lat="44.92098" lon="0.68074">
        <ele>96.4</ele>
        <time>2023-04-10T07:51:09Z</time>
      </trkpt>
      <trkpt lat="44.92094" lon="0.68068">
        <ele>96.3</ele>
        <time>2023-04-10T07:51:10Z</time>
      </trkpt>
      <trkpt lat="44.92088" lon="0.68057">
        <ele>96.3</ele>
        <time>2023-04-10T07:51:12Z</time>
      </trkpt>
      <trkpt lat="44.92082" lon="0.68045">
        <ele>96.2</ele>
        <time>2023-04-10T07:51:14Z</time>
      </trkpt>
      <trkpt lat="44.92077" lon="0.68033">
        <ele>96.3</ele>
        <time>2023-04-10T07:51:16Z</time>
      </trkpt>
      <trkpt lat="44.92072" lon="0.6802">
        <ele>96.4</ele>
        <time>2023-04-10T07:51:18Z</time>
      </trkpt>
      <trkpt lat="44.92067" lon="0.68008">
        <ele>96.6</ele>
        <time>2023-04-10T07:51:20Z</time>
      </trkpt>
      <trkpt lat="44.92065" lon="0.68003">
        <ele>96.7</ele>
        <time>2023-04-10T07:51:21Z</time>
      </trkpt>
      <trkpt lat="44.92063" lon="0.67997">
        <ele>96.8</ele>
        <time>2023-04-10T07:51:22Z</time>
      </trkpt>
      <trkpt lat="44.92061" lon="0.67992">
        <ele>96.9</ele>
        <time>2023-04-10T07:51:23Z</time>
      </trkpt>
      <trkpt lat="44.92058" lon="0.67986">
        <ele>97</ele>
        <time>2023-04-10T07:51:24Z</time>
      </trkpt>
      <trkpt lat="44.92054" lon="0.67976">
        <ele>97.2</ele>
        <time>2023-04-10T07:51:26Z</time>
      </trkpt>
      <trkpt lat="44.92049" lon="0.67967">
        <ele>97.3</ele>
        <time>2023-04-10T07:51:28Z</time>
      </trkpt>
      <trkpt lat="44.92046" lon="0.67962">
        <ele>97.4</ele>
        <time>2023-04-10T07:51:29Z</time>
      </trkpt>
      <trkpt lat="44.92042" lon="0.67957">
        <ele>97.4</ele>
        <time>2023-04-10T07:51:30Z</time>
      </trkpt>
      <trkpt lat="44.92036" lon="0.67947">
        <ele>97.2</ele>
        <time>2023-04-10T07:51:32Z</time>
      </trkpt>
      <trkpt lat="44.92027" lon="0.67937">
        <ele>97</ele>
        <time>2023-04-10T07:51:34Z</time>
      </trkpt>
      <trkpt lat="44.9202" lon="0.67925">
        <ele>96.8</ele>
        <time>2023-04-10T07:51:36Z</time>
      </trkpt>
      <trkpt lat="44.92013" lon="0.67915">
        <ele>96.6</ele>
        <time>2023-04-10T07:51:38Z</time>
      </trkpt>
      <trkpt lat="44.92011" lon="0.6791">
        <ele>96.6</ele>
        <time>2023-04-10T07:51:39Z</time>
      </trkpt>
      <trkpt lat="44.92008" lon="0.67905">
        <ele>96.5</ele>
        <time>2023-04-10T07:51:40Z</time>
      </trkpt>
      <trkpt lat="44.92005" lon="0.67899">
        <ele>96.4</ele>
        <time>2023-04-10T07:51:41Z</time>
      </trkpt>
      <trkpt lat="44.92" lon="0.67894">
        <ele>96.2</ele>
        <time>2023-04-10T07:51:42Z</time>
      </trkpt>
      <trkpt lat="44.91992" lon="0.6788">
        <ele>95.8</ele>
        <time>2023-04-10T07:51:44Z</time>
      </trkpt>
      <trkpt lat="44.91985" lon="0.67865">
        <ele>95.4</ele>
        <time>2023-04-10T07:51:46Z</time>
      </trkpt>
      <trkpt lat="44.91978" lon="0.67851">
        <ele>95.1</ele>
        <time>2023-04-10T07:51:48Z</time>
      </trkpt>
      <trkpt lat="44.91971" lon="0.67838">
        <ele>94.8</ele>
        <time>2023-04-10T07:51:50Z</time>
      </trkpt>
      <trkpt lat="44.91965" lon="0.67825">
        <ele>94.7</ele>
        <time>2023-04-10T07:51:52Z</time>
      </trkpt>
      <trkpt lat="44.91962" lon="0.67819">
        <ele>94.6</ele>
        <time>2023-04-10T07:51:53Z</time>
      </trkpt>
      <trkpt lat="44.9196" lon="0.67812">
        <ele>94.6</ele>
        <time>2023-04-10T07:51:54Z</time>
      </trkpt>
      <trkpt lat="44.91954" lon="0.678">
        <ele>94.6</ele>
        <time>2023-04-10T07:51:56Z</time>
      </trkpt>
      <trkpt lat="44.91951" lon="0.67794">
        <ele>94.6</ele>
        <time>2023-04-10T07:51:57Z</time>
      </trkpt>
      <trkpt lat="44.91949" lon="0.67788">
        <ele>94.6</ele>
        <time>2023-04-10T07:51:58Z</time>
      </trkpt>
      <trkpt lat="44.91947" lon="0.67782">
        <ele>94.6</ele>
        <time>2023-04-10T07:51:59Z</time>
      </trkpt>
      <trkpt lat="44.91944" lon="0.67776">
        <ele>94.6</ele>
        <time>2023-04-10T07:52:00Z</time>
      </trkpt>
      <trkpt lat="44.91937" lon="0.67763">
        <ele>94.6</ele>
        <time>2023-04-10T07:52:02Z</time>
      </trkpt>
      <trkpt lat="44.91931" lon="0.67751">
        <ele>94.5</ele>
        <time>2023-04-10T07:52:04Z</time>
      </trkpt>
      <trkpt lat="44.91923" lon="0.67739">
        <ele>94.4</ele>
        <time>2023-04-10T07:52:06Z</time>
      </trkpt>
      <trkpt lat="44.9192" lon="0.67733">
        <ele>94.4</ele>
        <time>2023-04-10T07:52:07Z</time>
      </trkpt>
      <trkpt lat="44.91916" lon="0.67728">
        <ele>94.3</ele>
        <time>2023-04-10T07:52:08Z</time>
      </trkpt>
      <trkpt lat="44.91905" lon="0.67719">
        <ele>94.2</ele>
        <time>2023-04-10T07:52:10Z</time>
      </trkpt>
      <trkpt lat="44.91899" lon="0.67715">
        <ele>94.1</ele>
        <time>2023-04-10T07:52:11Z</time>
      </trkpt>
      <trkpt lat="44.91893" lon="0.67711">
        <ele>94</ele>
        <time>2023-04-10T07:52:12Z</time>
      </trkpt>
      <trkpt lat="44.91887" lon="0.67705">
        <ele>93.9</ele>
        <time>2023-04-10T07:52:13Z</time>
      </trkpt>
      <trkpt lat="44.91882" lon="0.677">
        <ele>93.8</ele>
        <time>2023-04-10T07:52:14Z</time>
      </trkpt>
      <trkpt lat="44.91877" lon="0.67693">
        <ele>93.8</ele>
        <time>2023-04-10T07:52:15Z</time>
      </trkpt>
      <trkpt lat="44.91873" lon="0.67685">
        <ele>93.7</ele>
        <time>2023-04-10T07:52:16Z</time>
      </trkpt>
      <trkpt lat="44.91866" lon="0.67671">
        <ele>93.7</ele>
        <time>2023-04-10T07:52:18Z</time>
      </trkpt>
      <trkpt lat="44.9186" lon="0.67657">
        <ele>93.7</ele>
        <time>2023-04-10T07:52:20Z</time>
      </trkpt>
      <trkpt lat="44.91853" lon="0.67642">
        <ele>93.7</ele>
        <time>2023-04-10T07:52:22Z</time>
      </trkpt>
      <trkpt lat="44.91847" lon="0.67629">
        <ele>93.7</ele>
        <time>2023-04-10T07:52:24Z</time>
      </trkpt>
      <trkpt lat="44.91841" lon="0.67616">
        <ele>93.7</ele>
        <time>2023-04-10T07:52:26Z</time>
      </trkpt>
      <trkpt lat="44.91838" lon="0.67602">
        <ele>93.7</ele>
        <time>2023-04-10T07:52:28Z</time>
      </trkpt>
      <trkpt lat="44.91834" lon="0.67587">
        <ele>93.7</ele>
        <time>2023-04-10T07:52:30Z</time>
      </trkpt>
      <trkpt lat="44.9183" lon="0.67572">
        <ele>93.7</ele>
        <time>2023-04-10T07:52:32Z</time>
      </trkpt>
      <trkpt lat="44.91825" lon="0.67558">
        <ele>93.7</ele>
        <time>2023-04-10T07:52:34Z</time>
      </trkpt>
      <trkpt lat="44.91819" lon="0.67545">
        <ele>93.7</ele>
        <time>2023-04-10T07:52:36Z</time>
      </trkpt>
      <trkpt lat="44.91813" lon="0.67533">
        <ele>93.7</ele>
        <time>2023-04-10T07:52:38Z</time>
      </trkpt>
      <trkpt lat="44.91807" lon="0.6752">
        <ele>93.7</ele>
        <time>2023-04-10T07:52:40Z</time>
      </trkpt>
      <trkpt lat="44.91804" lon="0.67513">
        <ele>93.7</ele>
        <time>2023-04-10T07:52:41Z</time>
      </trkpt>
      <trkpt lat="44.91802" lon="0.67506">
        <ele>93.7</ele>
        <time>2023-04-10T07:52:42Z</time>
      </trkpt>
      <trkpt lat="44.91799" lon="0.67499">
        <ele>93.7</ele>
        <time>2023-04-10T07:52:43Z</time>
      </trkpt>
      <trkpt lat="44.91797" lon="0.67492">
        <ele>93.8</ele>
        <time>2023-04-10T07:52:44Z</time>
      </trkpt>
      <trkpt lat="44.91793" lon="0.67479">
        <ele>93.8</ele>
        <time>2023-04-10T07:52:46Z</time>
      </trkpt>
      <trkpt lat="44.91789" lon="0.67466">
        <ele>93.9</ele>
        <time>2023-04-10T07:52:48Z</time>
      </trkpt>
      <trkpt lat="44.91787" lon="0.6746">
        <ele>94</ele>
        <time>2023-04-10T07:52:49Z</time>
      </trkpt>
      <trkpt lat="44.91784" lon="0.67454">
        <ele>94</ele>
        <time>2023-04-10T07:52:50Z</time>
      </trkpt>
      <trkpt lat="44.91779" lon="0.67442">
        <ele>94.1</ele>
        <time>2023-04-10T07:52:52Z</time>
      </trkpt>
      <trkpt lat="44.91776" lon="0.67436">
        <ele>94.1</ele>
        <time>2023-04-10T07:52:53Z</time>
      </trkpt>
      <trkpt lat="44.91773" lon="0.6743">
        <ele>94.1</ele>
        <time>2023-04-10T07:52:54Z</time>
      </trkpt>
      <trkpt lat="44.91769" lon="0.67418">
        <ele>94.1</ele>
        <time>2023-04-10T07:52:56Z</time>
      </trkpt>
      <trkpt lat="44.91765" lon="0.67406">
        <ele>94.2</ele>
        <time>2023-04-10T07:52:58Z</time>
      </trkpt>
      <trkpt lat="44.91763" lon="0.674">
        <ele>94.2</ele>
        <time>2023-04-10T07:52:59Z</time>
      </trkpt>
      <trkpt lat="44.91761" lon="0.67395">
        <ele>94.2</ele>
        <time>2023-04-10T07:53:00Z</time>
      </trkpt>
      <trkpt lat="44.91758" lon="0.67389">
        <ele>94.2</ele>
        <time>2023-04-10T07:53:01Z</time>
      </trkpt>
      <trkpt lat="44.91756" lon="0.67384">
        <ele>94.3</ele>
        <time>2023-04-10T07:53:02Z</time>
      </trkpt>
      <trkpt lat="44.91752" lon="0.67373">
        <ele>94.3</ele>
        <time>2023-04-10T07:53:04Z</time>
      </trkpt>
      <trkpt lat="44.91747" lon="0.67362">
        <ele>94.2</ele>
        <time>2023-04-10T07:53:06Z</time>
      </trkpt>
      <trkpt lat="44.91743" lon="0.6735">
        <ele>94.2</ele>
        <time>2023-04-10T07:53:08Z</time>
      </trkpt>
      <trkpt lat="44.91738" lon="0.67339">
        <ele>94.1</ele>
        <time>2023-04-10T07:53:10Z</time>
      </trkpt>
      <trkpt lat="44.91733" lon="0.67329">
        <ele>94</ele>
        <time>2023-04-10T07:53:12Z</time>
      </trkpt>
      <trkpt lat="44.9173" lon="0.67323">
        <ele>94</ele>
        <time>2023-04-10T07:53:13Z</time>
      </trkpt>
      <trkpt lat="44.91728" lon="0.67317">
        <ele>94</ele>
        <time>2023-04-10T07:53:14Z</time>
      </trkpt>
      <trkpt lat="44.91723" lon="0.67305">
        <ele>93.9</ele>
        <time>2023-04-10T07:53:16Z</time>
      </trkpt>
      <trkpt lat="44.91721" lon="0.67299">
        <ele>93.9</ele>
        <time>2023-04-10T07:53:17Z</time>
      </trkpt>
      <trkpt lat="44.91719" lon="0.67292">
        <ele>93.8</ele>
        <time>2023-04-10T07:53:18Z</time>
      </trkpt>
      <trkpt lat="44.91716" lon="0.67279">
        <ele>93.8</ele>
        <time>2023-04-10T07:53:20Z</time>
      </trkpt>
      <trkpt lat="44.91713" lon="0.67265">
        <ele>93.9</ele>
        <time>2023-04-10T07:53:22Z</time>
      </trkpt>
      <trkpt lat="44.91713" lon="0.67252">
        <ele>94</ele>
        <time>2023-04-10T07:53:24Z</time>
      </trkpt>
      <trkpt lat="44.91714" lon="0.67247">
        <ele>94.1</ele>
        <time>2023-04-10T07:53:25Z</time>
      </trkpt>
      <trkpt lat="44.91714" lon="0.67241">
        <ele>94.2</ele>
        <time>2023-04-10T07:53:26Z</time>
      </trkpt>
      <trkpt lat="44.91716" lon="0.67232">
        <ele>94.4</ele>
        <time>2023-04-10T07:53:28Z</time>
      </trkpt>
      <trkpt lat="44.91717" lon="0.67226">
        <ele>94.5</ele>
        <time>2023-04-10T07:53:29Z</time>
      </trkpt>
      <trkpt lat="44.91719" lon="0.67221">
        <ele>94.7</ele>
        <time>2023-04-10T07:53:30Z</time>
      </trkpt>
      <trkpt lat="44.91723" lon="0.67212">
        <ele>94.9</ele>
        <time>2023-04-10T07:53:32Z</time>
      </trkpt>
      <trkpt lat="44.91725" lon="0.67209">
        <ele>95</ele>
        <time>2023-04-10T07:53:33Z</time>
      </trkpt>
      <trkpt lat="44.91726" lon="0.67205">
        <ele>95.1</ele>
        <time>2023-04-10T07:53:34Z</time>
      </trkpt>
      <trkpt lat="44.91729" lon="0.67197">
        <ele>95.2</ele>
        <time>2023-04-10T07:53:36Z</time>
      </trkpt>
      <trkpt lat="44.91729" lon="0.67192">
        <ele>95.3</ele>
        <time>2023-04-10T07:53:37Z</time>
      </trkpt>
      <trkpt lat="44.91728" lon="0.67186">
        <ele>95.4</ele>
        <time>2023-04-10T07:53:38Z</time>
      </trkpt>
      <trkpt lat="44.91725" lon="0.67177">
        <ele>95.5</ele>
        <time>2023-04-10T07:53:40Z</time>
      </trkpt>
      <trkpt lat="44.91723" lon="0.67173">
        <ele>95.6</ele>
        <time>2023-04-10T07:53:41Z</time>
      </trkpt>
      <trkpt lat="44.91721" lon="0.67168">
        <ele>95.6</ele>
        <time>2023-04-10T07:53:42Z</time>
      </trkpt>
      <trkpt lat="44.91717" lon="0.67159">
        <ele>95.6</ele>
        <time>2023-04-10T07:53:44Z</time>
      </trkpt>
      <trkpt lat="44.91712" lon="0.6715">
        <ele>95.7</ele>
        <time>2023-04-10T07:53:46Z</time>
      </trkpt>
      <trkpt lat="44.91708" lon="0.6714">
        <ele>95.7</ele>
        <time>2023-04-10T07:53:48Z</time>
      </trkpt>
      <trkpt lat="44.91704" lon="0.67133">
        <ele>95.8</ele>
        <time>2023-04-10T07:53:50Z</time>
      </trkpt>
      <trkpt lat="44.91701" lon="0.6713">
        <ele>96</ele>
        <time>2023-04-10T07:53:51Z</time>
      </trkpt>
      <trkpt lat="44.91698" lon="0.67128">
        <ele>96.1</ele>
        <time>2023-04-10T07:53:52Z</time>
      </trkpt>
      <trkpt lat="44.91691" lon="0.67127">
        <ele>96.1</ele>
        <time>2023-04-10T07:53:54Z</time>
      </trkpt>
      <trkpt lat="44.91687" lon="0.67125">
        <ele>96.2</ele>
        <time>2023-04-10T07:53:55Z</time>
      </trkpt>
      <trkpt lat="44.91683" lon="0.67123">
        <ele>96.2</ele>
        <time>2023-04-10T07:53:56Z</time>
      </trkpt>
      <trkpt lat="44.91675" lon="0.67118">
        <ele>96.1</ele>
        <time>2023-04-10T07:53:58Z</time>
      </trkpt>
      <trkpt lat="44.91672" lon="0.67114">
        <ele>96</ele>
        <time>2023-04-10T07:53:59Z</time>
      </trkpt>
      <trkpt lat="44.91669" lon="0.6711">
        <ele>95.9</ele>
        <time>2023-04-10T07:54:00Z</time>
      </trkpt>
      <trkpt lat="44.91662" lon="0.671">
        <ele>95.5</ele>
        <time>2023-04-10T07:54:02Z</time>
      </trkpt>
      <trkpt lat="44.91659" lon="0.67093">
        <ele>95.3</ele>
        <time>2023-04-10T07:54:03Z</time>
      </trkpt>
      <trkpt lat="44.91655" lon="0.67087">
        <ele>95.1</ele>
        <time>2023-04-10T07:54:04Z</time>
      </trkpt>
      <trkpt lat="44.91649" lon="0.67072">
        <ele>94.8</ele>
        <time>2023-04-10T07:54:06Z</time>
      </trkpt>
      <trkpt lat="44.91643" lon="0.67056">
        <ele>94.7</ele>
        <time>2023-04-10T07:54:08Z</time>
      </trkpt>
      <trkpt lat="44.91639" lon="0.67042">
        <ele>94.5</ele>
        <time>2023-04-10T07:54:10Z</time>
      </trkpt>
      <trkpt lat="44.91637" lon="0.6703">
        <ele>94.4</ele>
        <time>2023-04-10T07:54:12Z</time>
      </trkpt>
      <trkpt lat="44.91634" lon="0.67017">
        <ele>94.3</ele>
        <time>2023-04-10T07:54:14Z</time>
      </trkpt>
      <trkpt lat="44.9163" lon="0.67004">
        <ele>94.2</ele>
        <time>2023-04-10T07:54:16Z</time>
      </trkpt>
      <trkpt lat="44.91627" lon="0.66997">
        <ele>94.1</ele>
        <time>2023-04-10T07:54:17Z</time>
      </trkpt>
      <trkpt lat="44.91624" lon="0.6699">
        <ele>94</ele>
        <time>2023-04-10T07:54:18Z</time>
      </trkpt>
      <trkpt lat="44.91622" lon="0.66981">
        <ele>93.9</ele>
        <time>2023-04-10T07:54:19Z</time>
      </trkpt>
      <trkpt lat="44.91619" lon="0.66972">
        <ele>93.9</ele>
        <time>2023-04-10T07:54:20Z</time>
      </trkpt>
      <trkpt lat="44.91617" lon="0.66964">
        <ele>93.9</ele>
        <time>2023-04-10T07:54:21Z</time>
      </trkpt>
      <trkpt lat="44.91615" lon="0.66956">
        <ele>94</ele>
        <time>2023-04-10T07:54:22Z</time>
      </trkpt>
      <trkpt lat="44.9161" lon="0.66943">
        <ele>94.1</ele>
        <time>2023-04-10T07:54:24Z</time>
      </trkpt>
      <trkpt lat="44.91606" lon="0.6693">
        <ele>94.2</ele>
        <time>2023-04-10T07:54:26Z</time>
      </trkpt>
      <trkpt lat="44.91601" lon="0.66918">
        <ele>94.2</ele>
        <time>2023-04-10T07:54:28Z</time>
      </trkpt>
      <trkpt lat="44.91599" lon="0.66911">
        <ele>94.2</ele>
        <time>2023-04-10T07:54:29Z</time>
      </trkpt>
      <trkpt lat="44.91596" lon="0.66905">
        <ele>94.2</ele>
        <time>2023-04-10T07:54:30Z</time>
      </trkpt>
      <trkpt lat="44.91593" lon="0.66899">
        <ele>94.2</ele>
        <time>2023-04-10T07:54:31Z</time>
      </trkpt>
      <trkpt lat="44.91591" lon="0.66893">
        <ele>94.2</ele>
        <time>2023-04-10T07:54:32Z</time>
      </trkpt>
      <trkpt lat="44.91589" lon="0.66886">
        <ele>94.2</ele>
        <time>2023-04-10T07:54:33Z</time>
      </trkpt>
      <trkpt lat="44.91588" lon="0.66879">
        <ele>94.3</ele>
        <time>2023-04-10T07:54:34Z</time>
      </trkpt>
      <trkpt lat="44.91588" lon="0.66873">
        <ele>94.3</ele>
        <time>2023-04-10T07:54:35Z</time>
      </trkpt>
      <trkpt lat="44.91586" lon="0.66866">
        <ele>94.3</ele>
        <time>2023-04-10T07:54:36Z</time>
      </trkpt>
      <trkpt lat="44.91583" lon="0.66852">
        <ele>94.5</ele>
        <time>2023-04-10T07:54:38Z</time>
      </trkpt>
      <trkpt lat="44.91582" lon="0.66845">
        <ele>94.6</ele>
        <time>2023-04-10T07:54:39Z</time>
      </trkpt>
      <trkpt lat="44.91581" lon="0.66839">
        <ele>94.7</ele>
        <time>2023-04-10T07:54:40Z</time>
      </trkpt>
      <trkpt lat="44.9158" lon="0.66832">
        <ele>94.8</ele>
        <time>2023-04-10T07:54:41Z</time>
      </trkpt>
      <trkpt lat="44.91578" lon="0.66825">
        <ele>94.9</ele>
        <time>2023-04-10T07:54:42Z</time>
      </trkpt>
      <trkpt lat="44.91577" lon="0.66811">
        <ele>95.2</ele>
        <time>2023-04-10T07:54:44Z</time>
      </trkpt>
      <trkpt lat="44.91576" lon="0.668">
        <ele>95.5</ele>
        <time>2023-04-10T07:54:46Z</time>
      </trkpt>
      <trkpt lat="44.91574" lon="0.66789">
        <ele>95.8</ele>
        <time>2023-04-10T07:54:48Z</time>
      </trkpt>
      <trkpt lat="44.91572" lon="0.66779">
        <ele>96.1</ele>
        <time>2023-04-10T07:54:50Z</time>
      </trkpt>
      <trkpt lat="44.91569" lon="0.66771">
        <ele>96.4</ele>
        <time>2023-04-10T07:54:52Z</time>
      </trkpt>
      <trkpt lat="44.91568" lon="0.66766">
        <ele>96.6</ele>
        <time>2023-04-10T07:54:53Z</time>
      </trkpt>
      <trkpt lat="44.91567" lon="0.66761">
        <ele>96.8</ele>
        <time>2023-04-10T07:54:54Z</time>
      </trkpt>
      <trkpt lat="44.91565" lon="0.66756">
        <ele>97</ele>
        <time>2023-04-10T07:54:55Z</time>
      </trkpt>
      <trkpt lat="44.91563" lon="0.6675">
        <ele>97.2</ele>
        <time>2023-04-10T07:54:56Z</time>
      </trkpt>
      <trkpt lat="44.91559" lon="0.66739">
        <ele>97.7</ele>
        <time>2023-04-10T07:54:58Z</time>
      </trkpt>
      <trkpt lat="44.91556" lon="0.6673">
        <ele>98.1</ele>
        <time>2023-04-10T07:55:00Z</time>
      </trkpt>
      <trkpt lat="44.91554" lon="0.66725">
        <ele>98.3</ele>
        <time>2023-04-10T07:55:01Z</time>
      </trkpt>
      <trkpt lat="44.91553" lon="0.6672">
        <ele>98.5</ele>
        <time>2023-04-10T07:55:02Z</time>
      </trkpt>
      <trkpt lat="44.91551" lon="0.66711">
        <ele>98.9</ele>
        <time>2023-04-10T07:55:04Z</time>
      </trkpt>
      <trkpt lat="44.9155" lon="0.66707">
        <ele>99.1</ele>
        <time>2023-04-10T07:55:05Z</time>
      </trkpt>
      <trkpt lat="44.91549" lon="0.66703">
        <ele>99.2</ele>
        <time>2023-04-10T07:55:06Z</time>
      </trkpt>
      <trkpt lat="44.91547" lon="0.66695">
        <ele>99.5</ele>
        <time>2023-04-10T07:55:08Z</time>
      </trkpt>
      <trkpt lat="44.91544" lon="0.66687">
        <ele>99.8</ele>
        <time>2023-04-10T07:55:10Z</time>
      </trkpt>
      <trkpt lat="44.91542" lon="0.6668">
        <ele>100</ele>
        <time>2023-04-10T07:55:12Z</time>
      </trkpt>
      <trkpt lat="44.91539" lon="0.66676">
        <ele>100.1</ele>
        <time>2023-04-10T07:55:13Z</time>
      </trkpt>
      <trkpt lat="44.91537" lon="0.66671">
        <ele>100.2</ele>
        <time>2023-04-10T07:55:14Z</time>
      </trkpt>
      <trkpt lat="44.91533" lon="0.66662">
        <ele>100.4</ele>
        <time>2023-04-10T07:55:16Z</time>
      </trkpt>
      <trkpt lat="44.91531" lon="0.66654">
        <ele>100.5</ele>
        <time>2023-04-10T07:55:18Z</time>
      </trkpt>
      <trkpt lat="44.91529" lon="0.66646">
        <ele>100.6</ele>
        <time>2023-04-10T07:55:20Z</time>
      </trkpt>
      <trkpt lat="44.91525" lon="0.66637">
        <ele>100.8</ele>
        <time>2023-04-10T07:55:22Z</time>
      </trkpt>
      <trkpt lat="44.91523" lon="0.66629">
        <ele>100.9</ele>
        <time>2023-04-10T07:55:24Z</time>
      </trkpt>
      <trkpt lat="44.91521" lon="0.66626">
        <ele>101</ele>
        <time>2023-04-10T07:55:25Z</time>
      </trkpt>
      <trkpt lat="44.91518" lon="0.66622">
        <ele>101.1</ele>
        <time>2023-04-10T07:55:26Z</time>
      </trkpt>
      <trkpt lat="44.91514" lon="0.66614">
        <ele>101.2</ele>
        <time>2023-04-10T07:55:28Z</time>
      </trkpt>
      <trkpt lat="44.91509" lon="0.66606">
        <ele>101.4</ele>
        <time>2023-04-10T07:55:30Z</time>
      </trkpt>
      <trkpt lat="44.91506" lon="0.66598">
        <ele>101.6</ele>
        <time>2023-04-10T07:55:32Z</time>
      </trkpt>
      <trkpt lat="44.91503" lon="0.66591">
        <ele>101.7</ele>
        <time>2023-04-10T07:55:34Z</time>
      </trkpt>
      <trkpt lat="44.91501" lon="0.66583">
        <ele>101.9</ele>
        <time>2023-04-10T07:55:36Z</time>
      </trkpt>
      <trkpt lat="44.91497" lon="0.66574">
        <ele>102.1</ele>
        <time>2023-04-10T07:55:38Z</time>
      </trkpt>
      <trkpt lat="44.91495" lon="0.66565">
        <ele>102.4</ele>
        <time>2023-04-10T07:55:40Z</time>
      </trkpt>
      <trkpt lat="44.91493" lon="0.66557">
        <ele>102.6</ele>
        <time>2023-04-10T07:55:42Z</time>
      </trkpt>
      <trkpt lat="44.91489" lon="0.66548">
        <ele>103</ele>
        <time>2023-04-10T07:55:44Z</time>
      </trkpt>
      <trkpt lat="44.91487" lon="0.66541">
        <ele>103.4</ele>
        <time>2023-04-10T07:55:46Z</time>
      </trkpt>
      <trkpt lat="44.91486" lon="0.66535">
        <ele>103.7</ele>
        <time>2023-04-10T07:55:48Z</time>
      </trkpt>
      <trkpt lat="44.91484" lon="0.66528">
        <ele>104</ele>
        <time>2023-04-10T07:55:50Z</time>
      </trkpt>
      <trkpt lat="44.91483" lon="0.66521">
        <ele>104.3</ele>
        <time>2023-04-10T07:55:52Z</time>
      </trkpt>
      <trkpt lat="44.91481" lon="0.66518">
        <ele>104.5</ele>
        <time>2023-04-10T07:55:53Z</time>
      </trkpt>
      <trkpt lat="44.9148" lon="0.66515">
        <ele>104.6</ele>
        <time>2023-04-10T07:55:54Z</time>
      </trkpt>
      <trkpt lat="44.91477" lon="0.66508">
        <ele>104.9</ele>
        <time>2023-04-10T07:55:56Z</time>
      </trkpt>
      <trkpt lat="44.91472" lon="0.66502">
        <ele>105</ele>
        <time>2023-04-10T07:55:58Z</time>
      </trkpt>
      <trkpt lat="44.91469" lon="0.66497">
        <ele>105.1</ele>
        <time>2023-04-10T07:56:00Z</time>
      </trkpt>
      <trkpt lat="44.91466" lon="0.66491">
        <ele>105.1</ele>
        <time>2023-04-10T07:56:02Z</time>
      </trkpt>
      <trkpt lat="44.91462" lon="0.66485">
        <ele>104.9</ele>
        <time>2023-04-10T07:56:04Z</time>
      </trkpt>
      <trkpt lat="44.91459" lon="0.66481">
        <ele>104.7</ele>
        <time>2023-04-10T07:56:05Z</time>
      </trkpt>
      <trkpt lat="44.91453" lon="0.66475">
        <ele>104.4</ele>
        <time>2023-04-10T07:56:06Z</time>
      </trkpt>
      <trkpt lat="44.91443" lon="0.66463">
        <ele>103.4</ele>
        <time>2023-04-10T07:56:08Z</time>
      </trkpt>
      <trkpt lat="44.91439" lon="0.66454">
        <ele>102.7</ele>
        <time>2023-04-10T07:56:09Z</time>
      </trkpt>
      <trkpt lat="44.91436" lon="0.66444">
        <ele>102</ele>
        <time>2023-04-10T07:56:10Z</time>
      </trkpt>
      <trkpt lat="44.91434" lon="0.66422">
        <ele>100.5</ele>
        <time>2023-04-10T07:56:12Z</time>
      </trkpt>
      <trkpt lat="44.91434" lon="0.66399">
        <ele>99.2</ele>
        <time>2023-04-10T07:56:14Z</time>
      </trkpt>
      <trkpt lat="44.91436" lon="0.66377">
        <ele>97.9</ele>
        <time>2023-04-10T07:56:16Z</time>
      </trkpt>
      <trkpt lat="44.91438" lon="0.66358">
        <ele>96.9</ele>
        <time>2023-04-10T07:56:18Z</time>
      </trkpt>
      <trkpt lat="44.91438" lon="0.66344">
        <ele>96.1</ele>
        <time>2023-04-10T07:56:20Z</time>
      </trkpt>
      <trkpt lat="44.91436" lon="0.66339">
        <ele>95.7</ele>
        <time>2023-04-10T07:56:21Z</time>
      </trkpt>
      <trkpt lat="44.91431" lon="0.66337">
        <ele>95.3</ele>
        <time>2023-04-10T07:56:22Z</time>
      </trkpt>
      <trkpt lat="44.91427" lon="0.66338">
        <ele>94.1</ele>
        <time>2023-04-10T07:56:23Z</time>
      </trkpt>
      <trkpt lat="44.91422" lon="0.6634">
        <ele>93.7</ele>
        <time>2023-04-10T07:56:24Z</time>
      </trkpt>
      <trkpt lat="44.91412" lon="0.66344">
        <ele>92.9</ele>
        <time>2023-04-10T07:56:26Z</time>
      </trkpt>
      <trkpt lat="44.91403" lon="0.66349">
        <ele>92.3</ele>
        <time>2023-04-10T07:56:28Z</time>
      </trkpt>
      <trkpt lat="44.91391" lon="0.66352">
        <ele>91.7</ele>
        <time>2023-04-10T07:56:30Z</time>
      </trkpt>
      <trkpt lat="44.9138" lon="0.66356">
        <ele>91.3</ele>
        <time>2023-04-10T07:56:32Z</time>
      </trkpt>
      <trkpt lat="44.91374" lon="0.66359">
        <ele>91.1</ele>
        <time>2023-04-10T07:56:33Z</time>
      </trkpt>
      <trkpt lat="44.91368" lon="0.66362">
        <ele>91</ele>
        <time>2023-04-10T07:56:34Z</time>
      </trkpt>
      <trkpt lat="44.91358" lon="0.66368">
        <ele>90.8</ele>
        <time>2023-04-10T07:56:36Z</time>
      </trkpt>
      <trkpt lat="44.91348" lon="0.66373">
        <ele>90.8</ele>
        <time>2023-04-10T07:56:38Z</time>
      </trkpt>
      <trkpt lat="44.91344" lon="0.66374">
        <ele>90.8</ele>
        <time>2023-04-10T07:56:39Z</time>
      </trkpt>
      <trkpt lat="44.91341" lon="0.66373">
        <ele>90.8</ele>
        <time>2023-04-10T07:56:40Z</time>
      </trkpt>
      <trkpt lat="44.9134" lon="0.66365">
        <ele>90.8</ele>
        <time>2023-04-10T07:56:42Z</time>
      </trkpt>
      <trkpt lat="44.91343" lon="0.66358">
        <ele>90.7</ele>
        <time>2023-04-10T07:56:44Z</time>
      </trkpt>
      <trkpt lat="44.91347" lon="0.66351">
        <ele>90.7</ele>
        <time>2023-04-10T07:56:46Z</time>
      </trkpt>
      <trkpt lat="44.91345" lon="0.66343">
        <ele>90.4</ele>
        <time>2023-04-10T07:56:48Z</time>
      </trkpt>
      <trkpt lat="44.91343" lon="0.66341">
        <ele>90.3</ele>
        <time>2023-04-10T07:56:49Z</time>
      </trkpt>
      <trkpt lat="44.91341" lon="0.66341">
        <ele>90.2</ele>
        <time>2023-04-10T07:56:50Z</time>
      </trkpt>
      <trkpt lat="44.91338" lon="0.66341">
        <ele>90.1</ele>
        <time>2023-04-10T07:56:51Z</time>
      </trkpt>
      <trkpt lat="44.91333" lon="0.6634">
        <ele>89.9</ele>
        <time>2023-04-10T07:56:52Z</time>
      </trkpt>
      <trkpt lat="44.91327" lon="0.6634">
        <ele>89.6</ele>
        <time>2023-04-10T07:56:53Z</time>
      </trkpt>
      <trkpt lat="44.91322" lon="0.66341">
        <ele>89.4</ele>
        <time>2023-04-10T07:56:54Z</time>
      </trkpt>
      <trkpt lat="44.91311" lon="0.66337">
        <ele>88.7</ele>
        <time>2023-04-10T07:56:56Z</time>
      </trkpt>
      <trkpt lat="44.91305" lon="0.66333">
        <ele>88.4</ele>
        <time>2023-04-10T07:56:57Z</time>
      </trkpt>
      <trkpt lat="44.913" lon="0.66327">
        <ele>88.1</ele>
        <time>2023-04-10T07:56:58Z</time>
      </trkpt>
      <trkpt lat="44.9129" lon="0.66315">
        <ele>87.5</ele>
        <time>2023-04-10T07:57:00Z</time>
      </trkpt>
      <trkpt lat="44.91285" lon="0.6631">
        <ele>87.3</ele>
        <time>2023-04-10T07:57:01Z</time>
      </trkpt>
      <trkpt lat="44.9128" lon="0.66304">
        <ele>87.1</ele>
        <time>2023-04-10T07:57:02Z</time>
      </trkpt>
      <trkpt lat="44.91272" lon="0.66292">
        <ele>86.7</ele>
        <time>2023-04-10T07:57:04Z</time>
      </trkpt>
      <trkpt lat="44.91268" lon="0.66286">
        <ele>86.5</ele>
        <time>2023-04-10T07:57:05Z</time>
      </trkpt>
      <trkpt lat="44.91264" lon="0.66279">
        <ele>86.3</ele>
        <time>2023-04-10T07:57:06Z</time>
      </trkpt>
      <trkpt lat="44.91255" lon="0.66266">
        <ele>86</ele>
        <time>2023-04-10T07:57:08Z</time>
      </trkpt>
      <trkpt lat="44.91246" lon="0.66253">
        <ele>86</ele>
        <time>2023-04-10T07:57:10Z</time>
      </trkpt>
      <trkpt lat="44.91242" lon="0.66247">
        <ele>85.9</ele>
        <time>2023-04-10T07:57:11Z</time>
      </trkpt>
      <trkpt lat="44.91238" lon="0.6624">
        <ele>85.9</ele>
        <time>2023-04-10T07:57:12Z</time>
      </trkpt>
      <trkpt lat="44.9123" lon="0.66227">
        <ele>85.8</ele>
        <time>2023-04-10T07:57:14Z</time>
      </trkpt>
      <trkpt lat="44.91222" lon="0.66216">
        <ele>85.8</ele>
        <time>2023-04-10T07:57:16Z</time>
      </trkpt>
      <trkpt lat="44.91212" lon="0.66207">
        <ele>85.7</ele>
        <time>2023-04-10T07:57:18Z</time>
      </trkpt>
      <trkpt lat="44.912" lon="0.66202">
        <ele>85.6</ele>
        <time>2023-04-10T07:57:20Z</time>
      </trkpt>
      <trkpt lat="44.91187" lon="0.662">
        <ele>85.5</ele>
        <time>2023-04-10T07:57:22Z</time>
      </trkpt>
      <trkpt lat="44.91181" lon="0.66199">
        <ele>85.5</ele>
        <time>2023-04-10T07:57:23Z</time>
      </trkpt>
      <trkpt lat="44.91176" lon="0.66197">
        <ele>85.4</ele>
        <time>2023-04-10T07:57:24Z</time>
      </trkpt>
      <trkpt lat="44.9117" lon="0.66193">
        <ele>85.3</ele>
        <time>2023-04-10T07:57:25Z</time>
      </trkpt>
      <trkpt lat="44.91165" lon="0.66189">
        <ele>85.3</ele>
        <time>2023-04-10T07:57:26Z</time>
      </trkpt>
      <trkpt lat="44.91155" lon="0.66181">
        <ele>85.2</ele>
        <time>2023-04-10T07:57:28Z</time>
      </trkpt>
      <trkpt lat="44.91145" lon="0.66173">
        <ele>85.2</ele>
        <time>2023-04-10T07:57:30Z</time>
      </trkpt>
      <trkpt lat="44.91136" lon="0.66165">
        <ele>85.1</ele>
        <time>2023-04-10T07:57:32Z</time>
      </trkpt>
      <trkpt lat="44.91127" lon="0.66157">
        <ele>85.1</ele>
        <time>2023-04-10T07:57:34Z</time>
      </trkpt>
      <trkpt lat="44.91118" lon="0.66148">
        <ele>85.2</ele>
        <time>2023-04-10T07:57:36Z</time>
      </trkpt>
      <trkpt lat="44.91109" lon="0.66139">
        <ele>85.2</ele>
        <time>2023-04-10T07:57:38Z</time>
      </trkpt>
      <trkpt lat="44.91101" lon="0.66129">
        <ele>85.3</ele>
        <time>2023-04-10T07:57:40Z</time>
      </trkpt>
      <trkpt lat="44.91097" lon="0.66123">
        <ele>85.3</ele>
        <time>2023-04-10T07:57:41Z</time>
      </trkpt>
      <trkpt lat="44.91094" lon="0.66117">
        <ele>85.3</ele>
        <time>2023-04-10T07:57:42Z</time>
      </trkpt>
      <trkpt lat="44.91088" lon="0.66106">
        <ele>85.3</ele>
        <time>2023-04-10T07:57:44Z</time>
      </trkpt>
      <trkpt lat="44.91081" lon="0.66094">
        <ele>85.3</ele>
        <time>2023-04-10T07:57:46Z</time>
      </trkpt>
      <trkpt lat="44.91073" lon="0.66084">
        <ele>85.2</ele>
        <time>2023-04-10T07:57:48Z</time>
      </trkpt>
      <trkpt lat="44.91064" lon="0.66076">
        <ele>85.2</ele>
        <time>2023-04-10T07:57:50Z</time>
      </trkpt>
      <trkpt lat="44.91059" lon="0.66072">
        <ele>85.1</ele>
        <time>2023-04-10T07:57:51Z</time>
      </trkpt>
      <trkpt lat="44.91053" lon="0.66068">
        <ele>85.1</ele>
        <time>2023-04-10T07:57:52Z</time>
      </trkpt>
      <trkpt lat="44.91043" lon="0.66062">
        <ele>85.1</ele>
        <time>2023-04-10T07:57:54Z</time>
      </trkpt>
      <trkpt lat="44.91039" lon="0.66059">
        <ele>85.1</ele>
        <time>2023-04-10T07:57:55Z</time>
      </trkpt>
      <trkpt lat="44.91035" lon="0.66054">
        <ele>85</ele>
        <time>2023-04-10T07:57:56Z</time>
      </trkpt>
      <trkpt lat="44.91027" lon="0.66044">
        <ele>85</ele>
        <time>2023-04-10T07:57:58Z</time>
      </trkpt>
      <trkpt lat="44.9102" lon="0.66033">
        <ele>84.9</ele>
        <time>2023-04-10T07:58:00Z</time>
      </trkpt>
      <trkpt lat="44.91013" lon="0.66022">
        <ele>84.9</ele>
        <time>2023-04-10T07:58:02Z</time>
      </trkpt>
      <trkpt lat="44.9101" lon="0.66017">
        <ele>84.9</ele>
        <time>2023-04-10T07:58:03Z</time>
      </trkpt>
      <trkpt lat="44.91006" lon="0.66012">
        <ele>84.9</ele>
        <time>2023-04-10T07:58:04Z</time>
      </trkpt>
      <trkpt lat="44.90999" lon="0.66001">
        <ele>85</ele>
        <time>2023-04-10T07:58:06Z</time>
      </trkpt>
      <trkpt lat="44.90993" lon="0.6599">
        <ele>85</ele>
        <time>2023-04-10T07:58:08Z</time>
      </trkpt>
      <trkpt lat="44.90989" lon="0.65985">
        <ele>85</ele>
        <time>2023-04-10T07:58:09Z</time>
      </trkpt>
      <trkpt lat="44.90986" lon="0.6598">
        <ele>85</ele>
        <time>2023-04-10T07:58:10Z</time>
      </trkpt>
      <trkpt lat="44.90978" lon="0.6597">
        <ele>85</ele>
        <time>2023-04-10T07:58:12Z</time>
      </trkpt>
      <trkpt lat="44.90971" lon="0.65959">
        <ele>85</ele>
        <time>2023-04-10T07:58:14Z</time>
      </trkpt>
      <trkpt lat="44.90964" lon="0.65949">
        <ele>85.1</ele>
        <time>2023-04-10T07:58:16Z</time>
      </trkpt>
      <trkpt lat="44.9096" lon="0.65944">
        <ele>85.2</ele>
        <time>2023-04-10T07:58:17Z</time>
      </trkpt>
      <trkpt lat="44.90957" lon="0.65938">
        <ele>85.2</ele>
        <time>2023-04-10T07:58:18Z</time>
      </trkpt>
      <trkpt lat="44.90951" lon="0.65928">
        <ele>85.2</ele>
        <time>2023-04-10T07:58:20Z</time>
      </trkpt>
      <trkpt lat="44.90947" lon="0.65922">
        <ele>85.2</ele>
        <time>2023-04-10T07:58:21Z</time>
      </trkpt>
      <trkpt lat="44.90944" lon="0.65917">
        <ele>85.2</ele>
        <time>2023-04-10T07:58:22Z</time>
      </trkpt>
      <trkpt lat="44.90941" lon="0.65912">
        <ele>85.3</ele>
        <time>2023-04-10T07:58:23Z</time>
      </trkpt>
      <trkpt lat="44.90939" lon="0.65906">
        <ele>85.3</ele>
        <time>2023-04-10T07:58:24Z</time>
      </trkpt>
      <trkpt lat="44.90937" lon="0.65902">
        <ele>85.3</ele>
        <time>2023-04-10T07:58:25Z</time>
      </trkpt>
      <trkpt lat="44.90933" lon="0.65897">
        <ele>85.3</ele>
        <time>2023-04-10T07:58:26Z</time>
      </trkpt>
      <trkpt lat="44.90925" lon="0.65886">
        <ele>85.1</ele>
        <time>2023-04-10T07:58:28Z</time>
      </trkpt>
      <trkpt lat="44.90921" lon="0.6588">
        <ele>85</ele>
        <time>2023-04-10T07:58:29Z</time>
      </trkpt>
      <trkpt lat="44.90917" lon="0.65874">
        <ele>84.9</ele>
        <time>2023-04-10T07:58:30Z</time>
      </trkpt>
      <trkpt lat="44.90911" lon="0.65859">
        <ele>84.7</ele>
        <time>2023-04-10T07:58:32Z</time>
      </trkpt>
      <trkpt lat="44.90908" lon="0.65851">
        <ele>84.6</ele>
        <time>2023-04-10T07:58:33Z</time>
      </trkpt>
      <trkpt lat="44.90906" lon="0.65843">
        <ele>84.5</ele>
        <time>2023-04-10T07:58:34Z</time>
      </trkpt>
      <trkpt lat="44.90903" lon="0.65836">
        <ele>84.5</ele>
        <time>2023-04-10T07:58:35Z</time>
      </trkpt>
      <trkpt lat="44.90901" lon="0.65829">
        <ele>84.5</ele>
        <time>2023-04-10T07:58:36Z</time>
      </trkpt>
      <trkpt lat="44.90896" lon="0.65818">
        <ele>84.6</ele>
        <time>2023-04-10T07:58:38Z</time>
      </trkpt>
      <trkpt lat="44.90889" lon="0.65809">
        <ele>84.6</ele>
        <time>2023-04-10T07:58:40Z</time>
      </trkpt>
      <trkpt lat="44.90883" lon="0.65804">
        <ele>84.7</ele>
        <time>2023-04-10T07:58:42Z</time>
      </trkpt>
      <trkpt lat="44.90874" lon="0.65799">
        <ele>84.8</ele>
        <time>2023-04-10T07:58:44Z</time>
      </trkpt>
      <trkpt lat="44.90867" lon="0.65796">
        <ele>84.8</ele>
        <time>2023-04-10T07:58:46Z</time>
      </trkpt>
      <trkpt lat="44.90862" lon="0.65788">
        <ele>84.9</ele>
        <time>2023-04-10T07:58:48Z</time>
      </trkpt>
      <trkpt lat="44.90859" lon="0.65783">
        <ele>85</ele>
        <time>2023-04-10T07:58:49Z</time>
      </trkpt>
      <trkpt lat="44.90855" lon="0.65778">
        <ele>85.1</ele>
        <time>2023-04-10T07:58:50Z</time>
      </trkpt>
      <trkpt lat="44.90851" lon="0.65773">
        <ele>85.2</ele>
        <time>2023-04-10T07:58:51Z</time>
      </trkpt>
      <trkpt lat="44.9085" lon="0.65768">
        <ele>85.3</ele>
        <time>2023-04-10T07:58:52Z</time>
      </trkpt>
      <trkpt lat="44.90849" lon="0.65764">
        <ele>85.4</ele>
        <time>2023-04-10T07:58:53Z</time>
      </trkpt>
      <trkpt lat="44.90847" lon="0.6576">
        <ele>85.5</ele>
        <time>2023-04-10T07:58:54Z</time>
      </trkpt>
      <trkpt lat="44.90841" lon="0.65753">
        <ele>85.8</ele>
        <time>2023-04-10T07:58:56Z</time>
      </trkpt>
      <trkpt lat="44.90833" lon="0.65746">
        <ele>86.1</ele>
        <time>2023-04-10T07:58:58Z</time>
      </trkpt>
      <trkpt lat="44.9083" lon="0.65743">
        <ele>86.2</ele>
        <time>2023-04-10T07:58:59Z</time>
      </trkpt>
      <trkpt lat="44.90827" lon="0.6574">
        <ele>86.3</ele>
        <time>2023-04-10T07:59:00Z</time>
      </trkpt>
      <trkpt lat="44.90822" lon="0.65734">
        <ele>86.5</ele>
        <time>2023-04-10T07:59:02Z</time>
      </trkpt>
      <trkpt lat="44.90815" lon="0.65726">
        <ele>86.8</ele>
        <time>2023-04-10T07:59:04Z</time>
      </trkpt>
      <trkpt lat="44.90807" lon="0.65719">
        <ele>87</ele>
        <time>2023-04-10T07:59:06Z</time>
      </trkpt>
      <trkpt lat="44.90799" lon="0.65711">
        <ele>87.1</ele>
        <time>2023-04-10T07:59:08Z</time>
      </trkpt>
      <trkpt lat="44.90789" lon="0.65704">
        <ele>87</ele>
        <time>2023-04-10T07:59:10Z</time>
      </trkpt>
      <trkpt lat="44.90784" lon="0.65701">
        <ele>87</ele>
        <time>2023-04-10T07:59:11Z</time>
      </trkpt>
      <trkpt lat="44.90779" lon="0.65699">
        <ele>87</ele>
        <time>2023-04-10T07:59:12Z</time>
      </trkpt>
      <trkpt lat="44.90772" lon="0.65692">
        <ele>87</ele>
        <time>2023-04-10T07:59:14Z</time>
      </trkpt>
      <trkpt lat="44.90768" lon="0.65689">
        <ele>87</ele>
        <time>2023-04-10T07:59:15Z</time>
      </trkpt>
      <trkpt lat="44.90765" lon="0.65686">
        <ele>87</ele>
        <time>2023-04-10T07:59:16Z</time>
      </trkpt>
      <trkpt lat="44.90761" lon="0.65679">
        <ele>87</ele>
        <time>2023-04-10T07:59:18Z</time>
      </trkpt>
      <trkpt lat="44.90757" lon="0.65676">
        <ele>87</ele>
        <time>2023-04-10T07:59:19Z</time>
      </trkpt>
      <trkpt lat="44.90753" lon="0.65673">
        <ele>87</ele>
        <time>2023-04-10T07:59:20Z</time>
      </trkpt>
      <trkpt lat="44.90745" lon="0.65666">
        <ele>86.8</ele>
        <time>2023-04-10T07:59:22Z</time>
      </trkpt>
      <trkpt lat="44.90741" lon="0.65663">
        <ele>86.7</ele>
        <time>2023-04-10T07:59:23Z</time>
      </trkpt>
      <trkpt lat="44.90736" lon="0.65659">
        <ele>86.6</ele>
        <time>2023-04-10T07:59:24Z</time>
      </trkpt>
      <trkpt lat="44.90731" lon="0.65655">
        <ele>86.5</ele>
        <time>2023-04-10T07:59:25Z</time>
      </trkpt>
      <trkpt lat="44.90726" lon="0.65651">
        <ele>86.4</ele>
        <time>2023-04-10T07:59:26Z</time>
      </trkpt>
      <trkpt lat="44.90721" lon="0.65646">
        <ele>86.3</ele>
        <time>2023-04-10T07:59:27Z</time>
      </trkpt>
      <trkpt lat="44.90717" lon="0.65641">
        <ele>86.3</ele>
        <time>2023-04-10T07:59:28Z</time>
      </trkpt>
      <trkpt lat="44.90713" lon="0.65632">
        <ele>86.4</ele>
        <time>2023-04-10T07:59:30Z</time>
      </trkpt>
      <trkpt lat="44.90712" lon="0.65627">
        <ele>86.5</ele>
        <time>2023-04-10T07:59:31Z</time>
      </trkpt>
      <trkpt lat="44.90711" lon="0.65622">
        <ele>86.5</ele>
        <time>2023-04-10T07:59:32Z</time>
      </trkpt>
      <trkpt lat="44.90707" lon="0.65612">
        <ele>86.6</ele>
        <time>2023-04-10T07:59:34Z</time>
      </trkpt>
      <trkpt lat="44.90705" lon="0.65608">
        <ele>86.6</ele>
        <time>2023-04-10T07:59:35Z</time>
      </trkpt>
      <trkpt lat="44.90702" lon="0.65604">
        <ele>86.5</ele>
        <time>2023-04-10T07:59:36Z</time>
      </trkpt>
      <trkpt lat="44.90695" lon="0.65596">
        <ele>86.4</ele>
        <time>2023-04-10T07:59:38Z</time>
      </trkpt>
      <trkpt lat="44.90691" lon="0.65592">
        <ele>86.3</ele>
        <time>2023-04-10T07:59:39Z</time>
      </trkpt>
      <trkpt lat="44.90686" lon="0.65589">
        <ele>86.1</ele>
        <time>2023-04-10T07:59:40Z</time>
      </trkpt>
      <trkpt lat="44.90676" lon="0.65584">
        <ele>85.8</ele>
        <time>2023-04-10T07:59:42Z</time>
      </trkpt>
      <trkpt lat="44.90666" lon="0.65577">
        <ele>85.5</ele>
        <time>2023-04-10T07:59:44Z</time>
      </trkpt>
      <trkpt lat="44.90658" lon="0.65571">
        <ele>85.2</ele>
        <time>2023-04-10T07:59:46Z</time>
      </trkpt>
      <trkpt lat="44.90648" lon="0.65564">
        <ele>84.9</ele>
        <time>2023-04-10T07:59:48Z</time>
      </trkpt>
      <trkpt lat="44.9064" lon="0.65556">
        <ele>84.6</ele>
        <time>2023-04-10T07:59:50Z</time>
      </trkpt>
      <trkpt lat="44.90632" lon="0.65546">
        <ele>84.2</ele>
        <time>2023-04-10T07:59:52Z</time>
      </trkpt>
      <trkpt lat="44.90627" lon="0.65541">
        <ele>84.1</ele>
        <time>2023-04-10T07:59:53Z</time>
      </trkpt>
      <trkpt lat="44.90623" lon="0.65536">
        <ele>84</ele>
        <time>2023-04-10T07:59:54Z</time>
      </trkpt>
      <trkpt lat="44.90614" lon="0.65525">
        <ele>83.7</ele>
        <time>2023-04-10T07:59:56Z</time>
      </trkpt>
      <trkpt lat="44.90607" lon="0.65514">
        <ele>83.5</ele>
        <time>2023-04-10T07:59:58Z</time>
      </trkpt>
      <trkpt lat="44.90601" lon="0.65502">
        <ele>83.3</ele>
        <time>2023-04-10T08:00:00Z</time>
      </trkpt>
      <trkpt lat="44.90595" lon="0.6549">
        <ele>83.2</ele>
        <time>2023-04-10T08:00:02Z</time>
      </trkpt>
      <trkpt lat="44.90593" lon="0.65484">
        <ele>83.1</ele>
        <time>2023-04-10T08:00:03Z</time>
      </trkpt>
      <trkpt lat="44.9059" lon="0.65478">
        <ele>83.1</ele>
        <time>2023-04-10T08:00:04Z</time>
      </trkpt>
      <trkpt lat="44.90586" lon="0.65469">
        <ele>83</ele>
        <time>2023-04-10T08:00:06Z</time>
      </trkpt>
      <trkpt lat="44.90583" lon="0.65464">
        <ele>83</ele>
        <time>2023-04-10T08:00:07Z</time>
      </trkpt>
      <trkpt lat="44.9058" lon="0.65459">
        <ele>82.9</ele>
        <time>2023-04-10T08:00:08Z</time>
      </trkpt>
      <trkpt lat="44.90578" lon="0.65454">
        <ele>82.9</ele>
        <time>2023-04-10T08:00:09Z</time>
      </trkpt>
      <trkpt lat="44.90576" lon="0.65448">
        <ele>82.9</ele>
        <time>2023-04-10T08:00:10Z</time>
      </trkpt>
      <trkpt lat="44.90569" lon="0.65435">
        <ele>82.9</ele>
        <time>2023-04-10T08:00:12Z</time>
      </trkpt>
      <trkpt lat="44.90565" lon="0.65421">
        <ele>82.8</ele>
        <time>2023-04-10T08:00:14Z</time>
      </trkpt>
      <trkpt lat="44.90561" lon="0.65408">
        <ele>82.8</ele>
        <time>2023-04-10T08:00:16Z</time>
      </trkpt>
      <trkpt lat="44.90556" lon="0.65397">
        <ele>82.9</ele>
        <time>2023-04-10T08:00:18Z</time>
      </trkpt>
      <trkpt lat="44.90553" lon="0.65391">
        <ele>82.9</ele>
        <time>2023-04-10T08:00:19Z</time>
      </trkpt>
      <trkpt lat="44.9055" lon="0.65385">
        <ele>82.9</ele>
        <time>2023-04-10T08:00:20Z</time>
      </trkpt>
      <trkpt lat="44.90546" lon="0.6538">
        <ele>82.9</ele>
        <time>2023-04-10T08:00:21Z</time>
      </trkpt>
      <trkpt lat="44.90543" lon="0.65375">
        <ele>82.9</ele>
        <time>2023-04-10T08:00:22Z</time>
      </trkpt>
      <trkpt lat="44.90537" lon="0.65365">
        <ele>82.9</ele>
        <time>2023-04-10T08:00:24Z</time>
      </trkpt>
      <trkpt lat="44.90529" lon="0.65355">
        <ele>82.9</ele>
        <time>2023-04-10T08:00:26Z</time>
      </trkpt>
      <trkpt lat="44.90522" lon="0.65346">
        <ele>82.9</ele>
        <time>2023-04-10T08:00:28Z</time>
      </trkpt>
      <trkpt lat="44.90516" lon="0.65336">
        <ele>82.9</ele>
        <time>2023-04-10T08:00:30Z</time>
      </trkpt>
      <trkpt lat="44.90509" lon="0.65326">
        <ele>82.9</ele>
        <time>2023-04-10T08:00:32Z</time>
      </trkpt>
      <trkpt lat="44.90503" lon="0.65316">
        <ele>82.8</ele>
        <time>2023-04-10T08:00:34Z</time>
      </trkpt>
      <trkpt lat="44.905" lon="0.65311">
        <ele>82.8</ele>
        <time>2023-04-10T08:00:35Z</time>
      </trkpt>
      <trkpt lat="44.90497" lon="0.65306">
        <ele>82.8</ele>
        <time>2023-04-10T08:00:36Z</time>
      </trkpt>
      <trkpt lat="44.90491" lon="0.65298">
        <ele>82.7</ele>
        <time>2023-04-10T08:00:38Z</time>
      </trkpt>
      <trkpt lat="44.90486" lon="0.65291">
        <ele>82.7</ele>
        <time>2023-04-10T08:00:40Z</time>
      </trkpt>
      <trkpt lat="44.90483" lon="0.65287">
        <ele>82.6</ele>
        <time>2023-04-10T08:00:41Z</time>
      </trkpt>
      <trkpt lat="44.9048" lon="0.65283">
        <ele>82.6</ele>
        <time>2023-04-10T08:00:42Z</time>
      </trkpt>
      <trkpt lat="44.90474" lon="0.65274">
        <ele>82.6</ele>
        <time>2023-04-10T08:00:44Z</time>
      </trkpt>
      <trkpt lat="44.90471" lon="0.6527">
        <ele>82.5</ele>
        <time>2023-04-10T08:00:45Z</time>
      </trkpt>
      <trkpt lat="44.90467" lon="0.65266">
        <ele>82.5</ele>
        <time>2023-04-10T08:00:46Z</time>
      </trkpt>
      <trkpt lat="44.90458" lon="0.65258">
        <ele>82.3</ele>
        <time>2023-04-10T08:00:48Z</time>
      </trkpt>
      <trkpt lat="44.9045" lon="0.65249">
        <ele>82.1</ele>
        <time>2023-04-10T08:00:50Z</time>
      </trkpt>
      <trkpt lat="44.90442" lon="0.6524">
        <ele>81.9</ele>
        <time>2023-04-10T08:00:52Z</time>
      </trkpt>
      <trkpt lat="44.90434" lon="0.65232">
        <ele>81.8</ele>
        <time>2023-04-10T08:00:54Z</time>
      </trkpt>
      <trkpt lat="44.90426" lon="0.65223">
        <ele>81.6</ele>
        <time>2023-04-10T08:00:56Z</time>
      </trkpt>
      <trkpt lat="44.90418" lon="0.65214">
        <ele>81.5</ele>
        <time>2023-04-10T08:00:58Z</time>
      </trkpt>
      <trkpt lat="44.90415" lon="0.65208">
        <ele>81.4</ele>
        <time>2023-04-10T08:00:59Z</time>
      </trkpt>
      <trkpt lat="44.90412" lon="0.65202">
        <ele>81.4</ele>
        <time>2023-04-10T08:01:00Z</time>
      </trkpt>
      <trkpt lat="44.9041" lon="0.65197">
        <ele>81.4</ele>
        <time>2023-04-10T08:01:01Z</time>
      </trkpt>
      <trkpt lat="44.90408" lon="0.65191">
        <ele>81.3</ele>
        <time>2023-04-10T08:01:02Z</time>
      </trkpt>
      <trkpt lat="44.90407" lon="0.65184">
        <ele>81.3</ele>
        <time>2023-04-10T08:01:03Z</time>
      </trkpt>
      <trkpt lat="44.90405" lon="0.65177">
        <ele>81.2</ele>
        <time>2023-04-10T08:01:04Z</time>
      </trkpt>
      <trkpt lat="44.90403" lon="0.65162">
        <ele>81.2</ele>
        <time>2023-04-10T08:01:06Z</time>
      </trkpt>
      <trkpt lat="44.904" lon="0.65147">
        <ele>81.1</ele>
        <time>2023-04-10T08:01:08Z</time>
      </trkpt>
      <trkpt lat="44.90398" lon="0.65132">
        <ele>81.1</ele>
        <time>2023-04-10T08:01:10Z</time>
      </trkpt>
      <trkpt lat="44.90396" lon="0.65118">
        <ele>81.1</ele>
        <time>2023-04-10T08:01:12Z</time>
      </trkpt>
      <trkpt lat="44.90393" lon="0.65104">
        <ele>81.1</ele>
        <time>2023-04-10T08:01:14Z</time>
      </trkpt>
      <trkpt lat="44.90392" lon="0.65097">
        <ele>81.1</ele>
        <time>2023-04-10T08:01:15Z</time>
      </trkpt>
      <trkpt lat="44.9039" lon="0.65091">
        <ele>81</ele>
        <time>2023-04-10T08:01:16Z</time>
      </trkpt>
      <trkpt lat="44.90386" lon="0.65078">
        <ele>81</ele>
        <time>2023-04-10T08:01:18Z</time>
      </trkpt>
      <trkpt lat="44.90383" lon="0.65072">
        <ele>81</ele>
        <time>2023-04-10T08:01:19Z</time>
      </trkpt>
      <trkpt lat="44.90381" lon="0.65065">
        <ele>81</ele>
        <time>2023-04-10T08:01:20Z</time>
      </trkpt>
      <trkpt lat="44.90379" lon="0.65059">
        <ele>81</ele>
        <time>2023-04-10T08:01:21Z</time>
      </trkpt>
      <trkpt lat="44.90377" lon="0.65052">
        <ele>81</ele>
        <time>2023-04-10T08:01:22Z</time>
      </trkpt>
      <trkpt lat="44.90373" lon="0.65041">
        <ele>80.9</ele>
        <time>2023-04-10T08:01:24Z</time>
      </trkpt>
      <trkpt lat="44.90369" lon="0.65028">
        <ele>80.9</ele>
        <time>2023-04-10T08:01:26Z</time>
      </trkpt>
      <trkpt lat="44.90366" lon="0.65022">
        <ele>80.8</ele>
        <time>2023-04-10T08:01:27Z</time>
      </trkpt>
      <trkpt lat="44.90363" lon="0.65016">
        <ele>80.8</ele>
        <time>2023-04-10T08:01:28Z</time>
      </trkpt>
      <trkpt lat="44.90357" lon="0.65003">
        <ele>80.7</ele>
        <time>2023-04-10T08:01:30Z</time>
      </trkpt>
      <trkpt lat="44.90352" lon="0.64991">
        <ele>80.6</ele>
        <time>2023-04-10T08:01:32Z</time>
      </trkpt>
      <trkpt lat="44.90347" lon="0.64979">
        <ele>80.5</ele>
        <time>2023-04-10T08:01:34Z</time>
      </trkpt>
      <trkpt lat="44.90343" lon="0.64967">
        <ele>80.4</ele>
        <time>2023-04-10T08:01:36Z</time>
      </trkpt>
      <trkpt lat="44.90338" lon="0.64955">
        <ele>80.3</ele>
        <time>2023-04-10T08:01:38Z</time>
      </trkpt>
      <trkpt lat="44.90334" lon="0.64943">
        <ele>80.3</ele>
        <time>2023-04-10T08:01:40Z</time>
      </trkpt>
      <trkpt lat="44.9033" lon="0.6493">
        <ele>80.2</ele>
        <time>2023-04-10T08:01:42Z</time>
      </trkpt>
      <trkpt lat="44.90327" lon="0.64923">
        <ele>80.1</ele>
        <time>2023-04-10T08:01:43Z</time>
      </trkpt>
      <trkpt lat="44.90324" lon="0.64916">
        <ele>80.1</ele>
        <time>2023-04-10T08:01:44Z</time>
      </trkpt>
      <trkpt lat="44.90321" lon="0.6491">
        <ele>80</ele>
        <time>2023-04-10T08:01:45Z</time>
      </trkpt>
      <trkpt lat="44.90319" lon="0.64903">
        <ele>79.9</ele>
        <time>2023-04-10T08:01:46Z</time>
      </trkpt>
      <trkpt lat="44.90314" lon="0.64889">
        <ele>79.8</ele>
        <time>2023-04-10T08:01:48Z</time>
      </trkpt>
      <trkpt lat="44.9031" lon="0.64883">
        <ele>79.8</ele>
        <time>2023-04-10T08:01:49Z</time>
      </trkpt>
      <trkpt lat="44.90306" lon="0.64878">
        <ele>79.7</ele>
        <time>2023-04-10T08:01:50Z</time>
      </trkpt>
      <trkpt lat="44.90302" lon="0.64872">
        <ele>79.7</ele>
        <time>2023-04-10T08:01:51Z</time>
      </trkpt>
      <trkpt lat="44.903" lon="0.64866">
        <ele>79.6</ele>
        <time>2023-04-10T08:01:52Z</time>
      </trkpt>
      <trkpt lat="44.90299" lon="0.64859">
        <ele>79.6</ele>
        <time>2023-04-10T08:01:53Z</time>
      </trkpt>
      <trkpt lat="44.90297" lon="0.64853">
        <ele>79.6</ele>
        <time>2023-04-10T08:01:54Z</time>
      </trkpt>
      <trkpt lat="44.90294" lon="0.64839">
        <ele>79.5</ele>
        <time>2023-04-10T08:01:56Z</time>
      </trkpt>
      <trkpt lat="44.9029" lon="0.64826">
        <ele>79.5</ele>
        <time>2023-04-10T08:01:58Z</time>
      </trkpt>
      <trkpt lat="44.90287" lon="0.6482">
        <ele>79.5</ele>
        <time>2023-04-10T08:01:59Z</time>
      </trkpt>
      <trkpt lat="44.90284" lon="0.64814">
        <ele>79.5</ele>
        <time>2023-04-10T08:02:00Z</time>
      </trkpt>
      <trkpt lat="44.90282" lon="0.64808">
        <ele>79.5</ele>
        <time>2023-04-10T08:02:01Z</time>
      </trkpt>
      <trkpt lat="44.90285" lon="0.64799">
        <ele>79.5</ele>
        <time>2023-04-10T08:02:02Z</time>
      </trkpt>
      <trkpt lat="44.90284" lon="0.64786">
        <ele>79.5</ele>
        <time>2023-04-10T08:02:04Z</time>
      </trkpt>
      <trkpt lat="44.90281" lon="0.64775">
        <ele>79.5</ele>
        <time>2023-04-10T08:02:06Z</time>
      </trkpt>
      <trkpt lat="44.9028" lon="0.64768">
        <ele>79.5</ele>
        <time>2023-04-10T08:02:07Z</time>
      </trkpt>
      <trkpt lat="44.90278" lon="0.64761">
        <ele>79.5</ele>
        <time>2023-04-10T08:02:08Z</time>
      </trkpt>
      <trkpt lat="44.90272" lon="0.64748">
        <ele>79.6</ele>
        <time>2023-04-10T08:02:10Z</time>
      </trkpt>
      <trkpt lat="44.90269" lon="0.64742">
        <ele>79.6</ele>
        <time>2023-04-10T08:02:11Z</time>
      </trkpt>
      <trkpt lat="44.90268" lon="0.64736">
        <ele>79.6</ele>
        <time>2023-04-10T08:02:12Z</time>
      </trkpt>
      <trkpt lat="44.90266" lon="0.64731">
        <ele>79.6</ele>
        <time>2023-04-10T08:02:13Z</time>
      </trkpt>
      <trkpt lat="44.90265" lon="0.64725">
        <ele>79.7</ele>
        <time>2023-04-10T08:02:14Z</time>
      </trkpt>
      <trkpt lat="44.90266" lon="0.64718">
        <ele>79.7</ele>
        <time>2023-04-10T08:02:15Z</time>
      </trkpt>
      <trkpt lat="44.90266" lon="0.64711">
        <ele>79.8</ele>
        <time>2023-04-10T08:02:16Z</time>
      </trkpt>
      <trkpt lat="44.90267" lon="0.64699">
        <ele>80</ele>
        <time>2023-04-10T08:02:18Z</time>
      </trkpt>
      <trkpt lat="44.90266" lon="0.64693">
        <ele>80.1</ele>
        <time>2023-04-10T08:02:19Z</time>
      </trkpt>
      <trkpt lat="44.90264" lon="0.64689">
        <ele>80.3</ele>
        <time>2023-04-10T08:02:20Z</time>
      </trkpt>
      <trkpt lat="44.90262" lon="0.64686">
        <ele>80.3</ele>
        <time>2023-04-10T08:02:21Z</time>
      </trkpt>
      <trkpt lat="44.9026" lon="0.64684">
        <ele>80.2</ele>
        <time>2023-04-10T08:02:22Z</time>
      </trkpt>
      <trkpt lat="44.90253" lon="0.64681">
        <ele>80.2</ele>
        <time>2023-04-10T08:02:24Z</time>
      </trkpt>
      <trkpt lat="44.90249" lon="0.6468">
        <ele>80.2</ele>
        <time>2023-04-10T08:02:25Z</time>
      </trkpt>
      <trkpt lat="44.90245" lon="0.64679">
        <ele>80.2</ele>
        <time>2023-04-10T08:02:26Z</time>
      </trkpt>
      <trkpt lat="44.90237" lon="0.64678">
        <ele>80.2</ele>
        <time>2023-04-10T08:02:28Z</time>
      </trkpt>
      <trkpt lat="44.90234" lon="0.64678">
        <ele>80.2</ele>
        <time>2023-04-10T08:02:29Z</time>
      </trkpt>
      <trkpt lat="44.9023" lon="0.64678">
        <ele>80.2</ele>
        <time>2023-04-10T08:02:30Z</time>
      </trkpt>
      <trkpt lat="44.90221" lon="0.64678">
        <ele>80.3</ele>
        <time>2023-04-10T08:02:32Z</time>
      </trkpt>
      <trkpt lat="44.90212" lon="0.64678">
        <ele>80.6</ele>
        <time>2023-04-10T08:02:34Z</time>
      </trkpt>
      <trkpt lat="44.90202" lon="0.64678">
        <ele>80.9</ele>
        <time>2023-04-10T08:02:36Z</time>
      </trkpt>
      <trkpt lat="44.90198" lon="0.64677">
        <ele>81</ele>
        <time>2023-04-10T08:02:37Z</time>
      </trkpt>
      <trkpt lat="44.90192" lon="0.64677">
        <ele>81.2</ele>
        <time>2023-04-10T08:02:38Z</time>
      </trkpt>
      <trkpt lat="44.90183" lon="0.64678">
        <ele>81.6</ele>
        <time>2023-04-10T08:02:40Z</time>
      </trkpt>
      <trkpt lat="44.90174" lon="0.6468">
        <ele>81.9</ele>
        <time>2023-04-10T08:02:42Z</time>
      </trkpt>
      <trkpt lat="44.9017" lon="0.64683">
        <ele>82.1</ele>
        <time>2023-04-10T08:02:43Z</time>
      </trkpt>
      <trkpt lat="44.90166" lon="0.64686">
        <ele>82.3</ele>
        <time>2023-04-10T08:02:44Z</time>
      </trkpt>
      <trkpt lat="44.90159" lon="0.64693">
        <ele>82.6</ele>
        <time>2023-04-10T08:02:46Z</time>
      </trkpt>
      <trkpt lat="44.90153" lon="0.64699">
        <ele>83</ele>
        <time>2023-04-10T08:02:48Z</time>
      </trkpt>
      <trkpt lat="44.9015" lon="0.64701">
        <ele>83.1</ele>
        <time>2023-04-10T08:02:49Z</time>
      </trkpt>
      <trkpt lat="44.90147" lon="0.64702">
        <ele>83.2</ele>
        <time>2023-04-10T08:02:50Z</time>
      </trkpt>
      <trkpt lat="44.90143" lon="0.64701">
        <ele>83.3</ele>
        <time>2023-04-10T08:02:51Z</time>
      </trkpt>
      <trkpt lat="44.9014" lon="0.64698">
        <ele>83.4</ele>
        <time>2023-04-10T08:02:52Z</time>
      </trkpt>
      <trkpt lat="44.90133" lon="0.64695">
        <ele>83.7</ele>
        <time>2023-04-10T08:02:54Z</time>
      </trkpt>
      <trkpt lat="44.9013" lon="0.64694">
        <ele>83.8</ele>
        <time>2023-04-10T08:02:55Z</time>
      </trkpt>
      <trkpt lat="44.90127" lon="0.64694">
        <ele>83.9</ele>
        <time>2023-04-10T08:02:56Z</time>
      </trkpt>
      <trkpt lat="44.90121" lon="0.64692">
        <ele>84.3</ele>
        <time>2023-04-10T08:02:58Z</time>
      </trkpt>
      <trkpt lat="44.90116" lon="0.6469">
        <ele>84.6</ele>
        <time>2023-04-10T08:03:00Z</time>
      </trkpt>
      <trkpt lat="44.90111" lon="0.64689">
        <ele>85</ele>
        <time>2023-04-10T08:03:02Z</time>
      </trkpt>
      <trkpt lat="44.90106" lon="0.64687">
        <ele>85.4</ele>
        <time>2023-04-10T08:03:04Z</time>
      </trkpt>
      <trkpt lat="44.901" lon="0.64684">
        <ele>86</ele>
        <time>2023-04-10T08:03:06Z</time>
      </trkpt>
      <trkpt lat="44.90096" lon="0.6468">
        <ele>86.5</ele>
        <time>2023-04-10T08:03:08Z</time>
      </trkpt>
      <trkpt lat="44.90092" lon="0.64676">
        <ele>87.1</ele>
        <time>2023-04-10T08:03:10Z</time>
      </trkpt>
      <trkpt lat="44.9009" lon="0.64673">
        <ele>87.4</ele>
        <time>2023-04-10T08:03:11Z</time>
      </trkpt>
      <trkpt lat="44.90088" lon="0.6467">
        <ele>87.7</ele>
        <time>2023-04-10T08:03:12Z</time>
      </trkpt>
      <trkpt lat="44.90085" lon="0.64663">
        <ele>88.4</ele>
        <time>2023-04-10T08:03:14Z</time>
      </trkpt>
      <trkpt lat="44.90081" lon="0.64659">
        <ele>88.9</ele>
        <time>2023-04-10T08:03:16Z</time>
      </trkpt>
      <trkpt lat="44.90078" lon="0.64656">
        <ele>89.4</ele>
        <time>2023-04-10T08:03:18Z</time>
      </trkpt>
      <trkpt lat="44.90075" lon="0.64654">
        <ele>89.7</ele>
        <time>2023-04-10T08:03:20Z</time>
      </trkpt>
      <trkpt lat="44.90074" lon="0.64653">
        <ele>89.8</ele>
        <time>2023-04-10T08:03:22Z</time>
      </trkpt>
      <trkpt lat="44.90067" lon="0.64652">
        <ele>90.6</ele>
        <time>2023-04-10T08:03:26Z</time>
      </trkpt>
      <trkpt lat="44.90062" lon="0.64652">
        <ele>91.1</ele>
        <time>2023-04-10T08:03:28Z</time>
      </trkpt>
      <trkpt lat="44.90059" lon="0.64653">
        <ele>91.5</ele>
        <time>2023-04-10T08:03:30Z</time>
      </trkpt>
      <trkpt lat="44.90055" lon="0.64654">
        <ele>91.9</ele>
        <time>2023-04-10T08:03:32Z</time>
      </trkpt>
      <trkpt lat="44.90052" lon="0.64655">
        <ele>92.3</ele>
        <time>2023-04-10T08:03:34Z</time>
      </trkpt>
      <trkpt lat="44.90048" lon="0.64655">
        <ele>92.6</ele>
        <time>2023-04-10T08:03:36Z</time>
      </trkpt>
      <trkpt lat="44.90044" lon="0.64656">
        <ele>93.1</ele>
        <time>2023-04-10T08:03:38Z</time>
      </trkpt>
      <trkpt lat="44.9004" lon="0.64656">
        <ele>93.5</ele>
        <time>2023-04-10T08:03:40Z</time>
      </trkpt>
      <trkpt lat="44.90038" lon="0.64656">
        <ele>93.8</ele>
        <time>2023-04-10T08:03:42Z</time>
      </trkpt>
      <trkpt lat="44.90036" lon="0.64656">
        <ele>93.9</ele>
        <time>2023-04-10T08:03:43Z</time>
      </trkpt>
      <trkpt lat="44.90034" lon="0.64656">
        <ele>94.1</ele>
        <time>2023-04-10T08:03:44Z</time>
      </trkpt>
      <trkpt lat="44.90031" lon="0.64656">
        <ele>94.5</ele>
        <time>2023-04-10T08:03:46Z</time>
      </trkpt>
      <trkpt lat="44.90028" lon="0.64655">
        <ele>94.8</ele>
        <time>2023-04-10T08:03:48Z</time>
      </trkpt>
      <trkpt lat="44.90025" lon="0.64655">
        <ele>95.1</ele>
        <time>2023-04-10T08:03:50Z</time>
      </trkpt>
      <trkpt lat="44.90023" lon="0.64654">
        <ele>95.4</ele>
        <time>2023-04-10T08:03:52Z</time>
      </trkpt>
      <trkpt lat="44.90021" lon="0.64653">
        <ele>95.6</ele>
        <time>2023-04-10T08:03:53Z</time>
      </trkpt>
      <trkpt lat="44.9002" lon="0.64652">
        <ele>95.7</ele>
        <time>2023-04-10T08:03:54Z</time>
      </trkpt>
      <trkpt lat="44.90019" lon="0.64652">
        <ele>95.8</ele>
        <time>2023-04-10T08:03:55Z</time>
      </trkpt>
      <trkpt lat="44.9" lon="0.64644">
        <ele>98.2</ele>
        <time>2023-04-10T08:04:08Z</time>
      </trkpt>
      <trkpt lat="44.89997" lon="0.64643">
        <ele>98.6</ele>
        <time>2023-04-10T08:04:10Z</time>
      </trkpt>
      <trkpt lat="44.89994" lon="0.64642">
        <ele>99</ele>
        <time>2023-04-10T08:04:12Z</time>
      </trkpt>
      <trkpt lat="44.89991" lon="0.6464">
        <ele>99.4</ele>
        <time>2023-04-10T08:04:14Z</time>
      </trkpt>
      <trkpt lat="44.8999" lon="0.64639">
        <ele>99.5</ele>
        <time>2023-04-10T08:04:15Z</time>
      </trkpt>
      <trkpt lat="44.89989" lon="0.64638">
        <ele>99.7</ele>
        <time>2023-04-10T08:04:16Z</time>
      </trkpt>
      <trkpt lat="44.89986" lon="0.64635">
        <ele>100.2</ele>
        <time>2023-04-10T08:04:18Z</time>
      </trkpt>
      <trkpt lat="44.89984" lon="0.64633">
        <ele>100.5</ele>
        <time>2023-04-10T08:04:20Z</time>
      </trkpt>
      <trkpt lat="44.89983" lon="0.64632">
        <ele>100.7</ele>
        <time>2023-04-10T08:04:21Z</time>
      </trkpt>
      <trkpt lat="44.89981" lon="0.6463">
        <ele>100.9</ele>
        <time>2023-04-10T08:04:22Z</time>
      </trkpt>
      <trkpt lat="44.89978" lon="0.64629">
        <ele>101.3</ele>
        <time>2023-04-10T08:04:24Z</time>
      </trkpt>
      <trkpt lat="44.89977" lon="0.64628">
        <ele>101.5</ele>
        <time>2023-04-10T08:04:25Z</time>
      </trkpt>
      <trkpt lat="44.89976" lon="0.64627">
        <ele>101.6</ele>
        <time>2023-04-10T08:04:26Z</time>
      </trkpt>
      <trkpt lat="44.89974" lon="0.64625">
        <ele>101.8</ele>
        <time>2023-04-10T08:04:28Z</time>
      </trkpt>
      <trkpt lat="44.89973" lon="0.64622">
        <ele>102.1</ele>
        <time>2023-04-10T08:04:30Z</time>
      </trkpt>
      <trkpt lat="44.89971" lon="0.6462">
        <ele>102.3</ele>
        <time>2023-04-10T08:04:32Z</time>
      </trkpt>
      <trkpt lat="44.8997" lon="0.64618">
        <ele>102.5</ele>
        <time>2023-04-10T08:04:33Z</time>
      </trkpt>
      <trkpt lat="44.8997" lon="0.64618">
        <ele>102.6</ele>
        <time>2023-04-10T08:04:34Z</time>
      </trkpt>
      <trkpt lat="44.89968" lon="0.64614">
        <ele>102.8</ele>
        <time>2023-04-10T08:04:36Z</time>
      </trkpt>
      <trkpt lat="44.89967" lon="0.64612">
        <ele>103</ele>
        <time>2023-04-10T08:04:37Z</time>
      </trkpt>
      <trkpt lat="44.89966" lon="0.6461">
        <ele>103.2</ele>
        <time>2023-04-10T08:04:38Z</time>
      </trkpt>
      <trkpt lat="44.89964" lon="0.64608">
        <ele>103.4</ele>
        <time>2023-04-10T08:04:40Z</time>
      </trkpt>
      <trkpt lat="44.89962" lon="0.64605">
        <ele>103.7</ele>
        <time>2023-04-10T08:04:42Z</time>
      </trkpt>
      <trkpt lat="44.8996" lon="0.64601">
        <ele>104</ele>
        <time>2023-04-10T08:04:44Z</time>
      </trkpt>
      <trkpt lat="44.89958" lon="0.64597">
        <ele>104.3</ele>
        <time>2023-04-10T08:04:46Z</time>
      </trkpt>
      <trkpt lat="44.89957" lon="0.64596">
        <ele>104.4</ele>
        <time>2023-04-10T08:04:47Z</time>
      </trkpt>
      <trkpt lat="44.89956" lon="0.64595">
        <ele>104.5</ele>
        <time>2023-04-10T08:04:48Z</time>
      </trkpt>
      <trkpt lat="44.89955" lon="0.64593">
        <ele>104.6</ele>
        <time>2023-04-10T08:04:49Z</time>
      </trkpt>
      <trkpt lat="44.89954" lon="0.64592">
        <ele>104.8</ele>
        <time>2023-04-10T08:04:50Z</time>
      </trkpt>
      <trkpt lat="44.89952" lon="0.6459">
        <ele>104.9</ele>
        <time>2023-04-10T08:04:51Z</time>
      </trkpt>
      <trkpt lat="44.8995" lon="0.64589">
        <ele>105.1</ele>
        <time>2023-04-10T08:04:52Z</time>
      </trkpt>
      <trkpt lat="44.89947" lon="0.64586">
        <ele>105.4</ele>
        <time>2023-04-10T08:04:54Z</time>
      </trkpt>
      <trkpt lat="44.89946" lon="0.64586">
        <ele>105.5</ele>
        <time>2023-04-10T08:04:56Z</time>
      </trkpt>
      <trkpt lat="44.89943" lon="0.64582">
        <ele>105.8</ele>
        <time>2023-04-10T08:04:58Z</time>
      </trkpt>
      <trkpt lat="44.8994" lon="0.64579">
        <ele>106</ele>
        <time>2023-04-10T08:05:00Z</time>
      </trkpt>
      <trkpt lat="44.89938" lon="0.64576">
        <ele>106.2</ele>
        <time>2023-04-10T08:05:02Z</time>
      </trkpt>
      <trkpt lat="44.89935" lon="0.64573">
        <ele>106.5</ele>
        <time>2023-04-10T08:05:04Z</time>
      </trkpt>
      <trkpt lat="44.89932" lon="0.64571">
        <ele>106.7</ele>
        <time>2023-04-10T08:05:06Z</time>
      </trkpt>
      <trkpt lat="44.89929" lon="0.6457">
        <ele>106.9</ele>
        <time>2023-04-10T08:05:08Z</time>
      </trkpt>
      <trkpt lat="44.89926" lon="0.64568">
        <ele>107.2</ele>
        <time>2023-04-10T08:05:10Z</time>
      </trkpt>
      <trkpt lat="44.89923" lon="0.64565">
        <ele>107.4</ele>
        <time>2023-04-10T08:05:12Z</time>
      </trkpt>
      <trkpt lat="44.8992" lon="0.64562">
        <ele>107.7</ele>
        <time>2023-04-10T08:05:14Z</time>
      </trkpt>
      <trkpt lat="44.89917" lon="0.6456">
        <ele>107.9</ele>
        <time>2023-04-10T08:05:16Z</time>
      </trkpt>
      <trkpt lat="44.89914" lon="0.64557">
        <ele>108.1</ele>
        <time>2023-04-10T08:05:18Z</time>
      </trkpt>
      <trkpt lat="44.89909" lon="0.64554">
        <ele>108.5</ele>
        <time>2023-04-10T08:05:20Z</time>
      </trkpt>
      <trkpt lat="44.89907" lon="0.64552">
        <ele>108.6</ele>
        <time>2023-04-10T08:05:21Z</time>
      </trkpt>
      <trkpt lat="44.89905" lon="0.64551">
        <ele>108.8</ele>
        <time>2023-04-10T08:05:22Z</time>
      </trkpt>
      <trkpt lat="44.89902" lon="0.64548">
        <ele>109</ele>
        <time>2023-04-10T08:05:24Z</time>
      </trkpt>
      <trkpt lat="44.89898" lon="0.64545">
        <ele>109.3</ele>
        <time>2023-04-10T08:05:26Z</time>
      </trkpt>
      <trkpt lat="44.89895" lon="0.64544">
        <ele>109.5</ele>
        <time>2023-04-10T08:05:28Z</time>
      </trkpt>
      <trkpt lat="44.89892" lon="0.64541">
        <ele>109.8</ele>
        <time>2023-04-10T08:05:30Z</time>
      </trkpt>
      <trkpt lat="44.89889" lon="0.64539">
        <ele>110</ele>
        <time>2023-04-10T08:05:32Z</time>
      </trkpt>
      <trkpt lat="44.89886" lon="0.64536">
        <ele>110.4</ele>
        <time>2023-04-10T08:05:34Z</time>
      </trkpt>
      <trkpt lat="44.89883" lon="0.64534">
        <ele>110.6</ele>
        <time>2023-04-10T08:05:36Z</time>
      </trkpt>
      <trkpt lat="44.89881" lon="0.64533">
        <ele>110.8</ele>
        <time>2023-04-10T08:05:37Z</time>
      </trkpt>
      <trkpt lat="44.8988" lon="0.64532">
        <ele>110.9</ele>
        <time>2023-04-10T08:05:38Z</time>
      </trkpt>
      <trkpt lat="44.89876" lon="0.6453">
        <ele>111.4</ele>
        <time>2023-04-10T08:05:40Z</time>
      </trkpt>
      <trkpt lat="44.89872" lon="0.64528">
        <ele>111.8</ele>
        <time>2023-04-10T08:05:42Z</time>
      </trkpt>
      <trkpt lat="44.89869" lon="0.64528">
        <ele>112.2</ele>
        <time>2023-04-10T08:05:44Z</time>
      </trkpt>
      <trkpt lat="44.89865" lon="0.64527">
        <ele>112.5</ele>
        <time>2023-04-10T08:05:46Z</time>
      </trkpt>
      <trkpt lat="44.89861" lon="0.64524">
        <ele>113.1</ele>
        <time>2023-04-10T08:05:48Z</time>
      </trkpt>
      <trkpt lat="44.89858" lon="0.64522">
        <ele>113.5</ele>
        <time>2023-04-10T08:05:50Z</time>
      </trkpt>
      <trkpt lat="44.89857" lon="0.64521">
        <ele>113.7</ele>
        <time>2023-04-10T08:05:51Z</time>
      </trkpt>
      <trkpt lat="44.89857" lon="0.64518">
        <ele>114</ele>
        <time>2023-04-10T08:05:52Z</time>
      </trkpt>
      <trkpt lat="44.89857" lon="0.64516">
        <ele>114.2</ele>
        <time>2023-04-10T08:05:53Z</time>
      </trkpt>
      <trkpt lat="44.89857" lon="0.64513">
        <ele>114.4</ele>
        <time>2023-04-10T08:05:54Z</time>
      </trkpt>
      <trkpt lat="44.89859" lon="0.64509">
        <ele>114.5</ele>
        <time>2023-04-10T08:05:56Z</time>
      </trkpt>
      <trkpt lat="44.8986" lon="0.64505">
        <ele>114.6</ele>
        <time>2023-04-10T08:05:58Z</time>
      </trkpt>
      <trkpt lat="44.89862" lon="0.64502">
        <ele>114.7</ele>
        <time>2023-04-10T08:06:00Z</time>
      </trkpt>
      <trkpt lat="44.89863" lon="0.645">
        <ele>114.8</ele>
        <time>2023-04-10T08:06:01Z</time>
      </trkpt>
      <trkpt lat="44.89863" lon="0.64498">
        <ele>114.8</ele>
        <time>2023-04-10T08:06:02Z</time>
      </trkpt>
      <trkpt lat="44.89864" lon="0.64494">
        <ele>115</ele>
        <time>2023-04-10T08:06:04Z</time>
      </trkpt>
      <trkpt lat="44.89867" lon="0.64491">
        <ele>115.1</ele>
        <time>2023-04-10T08:06:06Z</time>
      </trkpt>
      <trkpt lat="44.89869" lon="0.64487">
        <ele>115.3</ele>
        <time>2023-04-10T08:06:08Z</time>
      </trkpt>
      <trkpt lat="44.89872" lon="0.64484">
        <ele>115.5</ele>
        <time>2023-04-10T08:06:10Z</time>
      </trkpt>
      <trkpt lat="44.89874" lon="0.6448">
        <ele>115.6</ele>
        <time>2023-04-10T08:06:12Z</time>
      </trkpt>
      <trkpt lat="44.89874" lon="0.64478">
        <ele>115.7</ele>
        <time>2023-04-10T08:06:13Z</time>
      </trkpt>
      <trkpt lat="44.89875" lon="0.64476">
        <ele>115.8</ele>
        <time>2023-04-10T08:06:14Z</time>
      </trkpt>
      <trkpt lat="44.89878" lon="0.64472">
        <ele>116</ele>
        <time>2023-04-10T08:06:16Z</time>
      </trkpt>
      <trkpt lat="44.89879" lon="0.64468">
        <ele>116.2</ele>
        <time>2023-04-10T08:06:18Z</time>
      </trkpt>
      <trkpt lat="44.89882" lon="0.64463">
        <ele>116.5</ele>
        <time>2023-04-10T08:06:20Z</time>
      </trkpt>
      <trkpt lat="44.89883" lon="0.6446">
        <ele>116.8</ele>
        <time>2023-04-10T08:06:22Z</time>
      </trkpt>
      <trkpt lat="44.89885" lon="0.64456">
        <ele>117</ele>
        <time>2023-04-10T08:06:24Z</time>
      </trkpt>
      <trkpt lat="44.89889" lon="0.64452">
        <ele>117.4</ele>
        <time>2023-04-10T08:06:26Z</time>
      </trkpt>
      <trkpt lat="44.8989" lon="0.64451">
        <ele>117.6</ele>
        <time>2023-04-10T08:06:27Z</time>
      </trkpt>
      <trkpt lat="44.89892" lon="0.64449">
        <ele>117.8</ele>
        <time>2023-04-10T08:06:28Z</time>
      </trkpt>
      <trkpt lat="44.89895" lon="0.64447">
        <ele>118.1</ele>
        <time>2023-04-10T08:06:30Z</time>
      </trkpt>
      <trkpt lat="44.89898" lon="0.64445">
        <ele>118.5</ele>
        <time>2023-04-10T08:06:32Z</time>
      </trkpt>
      <trkpt lat="44.89903" lon="0.64445">
        <ele>119</ele>
        <time>2023-04-10T08:06:34Z</time>
      </trkpt>
      <trkpt lat="44.89906" lon="0.64446">
        <ele>119.3</ele>
        <time>2023-04-10T08:06:36Z</time>
      </trkpt>
      <trkpt lat="44.8991" lon="0.64447">
        <ele>119.7</ele>
        <time>2023-04-10T08:06:38Z</time>
      </trkpt>
      <trkpt lat="44.89912" lon="0.64448">
        <ele>120</ele>
        <time>2023-04-10T08:06:39Z</time>
      </trkpt>
      <trkpt lat="44.89914" lon="0.64449">
        <ele>120.2</ele>
        <time>2023-04-10T08:06:40Z</time>
      </trkpt>
      <trkpt lat="44.89917" lon="0.64451">
        <ele>120.5</ele>
        <time>2023-04-10T08:06:42Z</time>
      </trkpt>
      <trkpt lat="44.8992" lon="0.64454">
        <ele>120.9</ele>
        <time>2023-04-10T08:06:44Z</time>
      </trkpt>
      <trkpt lat="44.89921" lon="0.64455">
        <ele>121.1</ele>
        <time>2023-04-10T08:06:45Z</time>
      </trkpt>
      <trkpt lat="44.89923" lon="0.64457">
        <ele>121.3</ele>
        <time>2023-04-10T08:06:46Z</time>
      </trkpt>
      <trkpt lat="44.89926" lon="0.64459">
        <ele>121.8</ele>
        <time>2023-04-10T08:06:48Z</time>
      </trkpt>
      <trkpt lat="44.8993" lon="0.64462">
        <ele>122.3</ele>
        <time>2023-04-10T08:06:50Z</time>
      </trkpt>
      <trkpt lat="44.89933" lon="0.64464">
        <ele>122.9</ele>
        <time>2023-04-10T08:06:52Z</time>
      </trkpt>
      <trkpt lat="44.89936" lon="0.64466">
        <ele>123.5</ele>
        <time>2023-04-10T08:06:54Z</time>
      </trkpt>
      <trkpt lat="44.89938" lon="0.64467">
        <ele>123.8</ele>
        <time>2023-04-10T08:06:55Z</time>
      </trkpt>
      <trkpt lat="44.8994" lon="0.64468">
        <ele>124.1</ele>
        <time>2023-04-10T08:06:56Z</time>
      </trkpt>
      <trkpt lat="44.89944" lon="0.64469">
        <ele>124.7</ele>
        <time>2023-04-10T08:06:58Z</time>
      </trkpt>
      <trkpt lat="44.89947" lon="0.64468">
        <ele>125.3</ele>
        <time>2023-04-10T08:07:00Z</time>
      </trkpt>
      <trkpt lat="44.89948" lon="0.64467">
        <ele>125.5</ele>
        <time>2023-04-10T08:07:01Z</time>
      </trkpt>
      <trkpt lat="44.8995" lon="0.64465">
        <ele>125.7</ele>
        <time>2023-04-10T08:07:02Z</time>
      </trkpt>
      <trkpt lat="44.89952" lon="0.64461">
        <ele>126.2</ele>
        <time>2023-04-10T08:07:04Z</time>
      </trkpt>
      <trkpt lat="44.89953" lon="0.64459">
        <ele>126.4</ele>
        <time>2023-04-10T08:07:05Z</time>
      </trkpt>
      <trkpt lat="44.89953" lon="0.64457">
        <ele>126.6</ele>
        <time>2023-04-10T08:07:06Z</time>
      </trkpt>
      <trkpt lat="44.89954" lon="0.64454">
        <ele>126.8</ele>
        <time>2023-04-10T08:07:07Z</time>
      </trkpt>
      <trkpt lat="44.89954" lon="0.64452">
        <ele>127</ele>
        <time>2023-04-10T08:07:08Z</time>
      </trkpt>
      <trkpt lat="44.89954" lon="0.64448">
        <ele>127.2</ele>
        <time>2023-04-10T08:07:10Z</time>
      </trkpt>
      <trkpt lat="44.89953" lon="0.64444">
        <ele>127.5</ele>
        <time>2023-04-10T08:07:12Z</time>
      </trkpt>
      <trkpt lat="44.89953" lon="0.64441">
        <ele>127.7</ele>
        <time>2023-04-10T08:07:13Z</time>
      </trkpt>
      <trkpt lat="44.89953" lon="0.64439">
        <ele>127.8</ele>
        <time>2023-04-10T08:07:14Z</time>
      </trkpt>
      <trkpt lat="44.89953" lon="0.64435">
        <ele>128.1</ele>
        <time>2023-04-10T08:07:16Z</time>
      </trkpt>
      <trkpt lat="44.89953" lon="0.64433">
        <ele>128.2</ele>
        <time>2023-04-10T08:07:17Z</time>
      </trkpt>
      <trkpt lat="44.89953" lon="0.64431">
        <ele>128.3</ele>
        <time>2023-04-10T08:07:18Z</time>
      </trkpt>
      <trkpt lat="44.89953" lon="0.64427">
        <ele>128.6</ele>
        <time>2023-04-10T08:07:20Z</time>
      </trkpt>
      <trkpt lat="44.89952" lon="0.64422">
        <ele>128.9</ele>
        <time>2023-04-10T08:07:22Z</time>
      </trkpt>
      <trkpt lat="44.89953" lon="0.6442">
        <ele>129</ele>
        <time>2023-04-10T08:07:23Z</time>
      </trkpt>
      <trkpt lat="44.89953" lon="0.64418">
        <ele>129.1</ele>
        <time>2023-04-10T08:07:24Z</time>
      </trkpt>
      <trkpt lat="44.89954" lon="0.64416">
        <ele>129.2</ele>
        <time>2023-04-10T08:07:25Z</time>
      </trkpt>
      <trkpt lat="44.89954" lon="0.64415">
        <ele>129.3</ele>
        <time>2023-04-10T08:07:26Z</time>
      </trkpt>
      <trkpt lat="44.89955" lon="0.64412">
        <ele>129.5</ele>
        <time>2023-04-10T08:07:28Z</time>
      </trkpt>
      <trkpt lat="44.89956" lon="0.64411">
        <ele>129.7</ele>
        <time>2023-04-10T08:07:29Z</time>
      </trkpt>
      <trkpt lat="44.89957" lon="0.64409">
        <ele>129.8</ele>
        <time>2023-04-10T08:07:30Z</time>
      </trkpt>
      <trkpt lat="44.8996" lon="0.64406">
        <ele>130.1</ele>
        <time>2023-04-10T08:07:32Z</time>
      </trkpt>
      <trkpt lat="44.89962" lon="0.64406">
        <ele>130.3</ele>
        <time>2023-04-10T08:07:33Z</time>
      </trkpt>
      <trkpt lat="44.89963" lon="0.64405">
        <ele>130.4</ele>
        <time>2023-04-10T08:07:34Z</time>
      </trkpt>
      <trkpt lat="44.89964" lon="0.64404">
        <ele>130.5</ele>
        <time>2023-04-10T08:07:35Z</time>
      </trkpt>
      <trkpt lat="44.89965" lon="0.64402">
        <ele>130.6</ele>
        <time>2023-04-10T08:07:36Z</time>
      </trkpt>
      <trkpt lat="44.89967" lon="0.64398">
        <ele>130.8</ele>
        <time>2023-04-10T08:07:38Z</time>
      </trkpt>
      <trkpt lat="44.89969" lon="0.64395">
        <ele>131</ele>
        <time>2023-04-10T08:07:40Z</time>
      </trkpt>
      <trkpt lat="44.89972" lon="0.64392">
        <ele>131.2</ele>
        <time>2023-04-10T08:07:42Z</time>
      </trkpt>
      <trkpt lat="44.89974" lon="0.64391">
        <ele>131.3</ele>
        <time>2023-04-10T08:07:43Z</time>
      </trkpt>
      <trkpt lat="44.89975" lon="0.64389">
        <ele>131.4</ele>
        <time>2023-04-10T08:07:44Z</time>
      </trkpt>
      <trkpt lat="44.89977" lon="0.64384">
        <ele>131.6</ele>
        <time>2023-04-10T08:07:46Z</time>
      </trkpt>
      <trkpt lat="44.89976" lon="0.64381">
        <ele>131.6</ele>
        <time>2023-04-10T08:07:47Z</time>
      </trkpt>
      <trkpt lat="44.89976" lon="0.64378">
        <ele>131.7</ele>
        <time>2023-04-10T08:07:48Z</time>
      </trkpt>
      <trkpt lat="44.89973" lon="0.64374">
        <ele>131.8</ele>
        <time>2023-04-10T08:07:50Z</time>
      </trkpt>
      <trkpt lat="44.89969" lon="0.64372">
        <ele>131.7</ele>
        <time>2023-04-10T08:07:52Z</time>
      </trkpt>
      <trkpt lat="44.89968" lon="0.6437">
        <ele>131.7</ele>
        <time>2023-04-10T08:07:53Z</time>
      </trkpt>
      <trkpt lat="44.89966" lon="0.64369">
        <ele>131.6</ele>
        <time>2023-04-10T08:07:54Z</time>
      </trkpt>
      <trkpt lat="44.89961" lon="0.64365">
        <ele>131.5</ele>
        <time>2023-04-10T08:07:56Z</time>
      </trkpt>
      <trkpt lat="44.89957" lon="0.64361">
        <ele>131.4</ele>
        <time>2023-04-10T08:07:58Z</time>
      </trkpt>
      <trkpt lat="44.89954" lon="0.64359">
        <ele>131.4</ele>
        <time>2023-04-10T08:07:59Z</time>
      </trkpt>
      <trkpt lat="44.89952" lon="0.64356">
        <ele>131.3</ele>
        <time>2023-04-10T08:08:00Z</time>
      </trkpt>
      <trkpt lat="44.89947" lon="0.6435">
        <ele>131.3</ele>
        <time>2023-04-10T08:08:02Z</time>
      </trkpt>
      <trkpt lat="44.89944" lon="0.64343">
        <ele>131.3</ele>
        <time>2023-04-10T08:08:04Z</time>
      </trkpt>
      <trkpt lat="44.89942" lon="0.64337">
        <ele>131.4</ele>
        <time>2023-04-10T08:08:06Z</time>
      </trkpt>
      <trkpt lat="44.8994" lon="0.6433">
        <ele>131.4</ele>
        <time>2023-04-10T08:08:08Z</time>
      </trkpt>
      <trkpt lat="44.89938" lon="0.64326">
        <ele>131.5</ele>
        <time>2023-04-10T08:08:09Z</time>
      </trkpt>
      <trkpt lat="44.89938" lon="0.64322">
        <ele>131.6</ele>
        <time>2023-04-10T08:08:10Z</time>
      </trkpt>
      <trkpt lat="44.89936" lon="0.64314">
        <ele>131.8</ele>
        <time>2023-04-10T08:08:12Z</time>
      </trkpt>
      <trkpt lat="44.89935" lon="0.64306">
        <ele>132</ele>
        <time>2023-04-10T08:08:14Z</time>
      </trkpt>
      <trkpt lat="44.89935" lon="0.64301">
        <ele>132.2</ele>
        <time>2023-04-10T08:08:15Z</time>
      </trkpt>
      <trkpt lat="44.89935" lon="0.64297">
        <ele>132.3</ele>
        <time>2023-04-10T08:08:16Z</time>
      </trkpt>
      <trkpt lat="44.89934" lon="0.6429">
        <ele>132.6</ele>
        <time>2023-04-10T08:08:18Z</time>
      </trkpt>
      <trkpt lat="44.89933" lon="0.64288">
        <ele>132.7</ele>
        <time>2023-04-10T08:08:19Z</time>
      </trkpt>
      <trkpt lat="44.89932" lon="0.64285">
        <ele>132.8</ele>
        <time>2023-04-10T08:08:20Z</time>
      </trkpt>
      <trkpt lat="44.89931" lon="0.64279">
        <ele>133.1</ele>
        <time>2023-04-10T08:08:22Z</time>
      </trkpt>
      <trkpt lat="44.89931" lon="0.64273">
        <ele>133.5</ele>
        <time>2023-04-10T08:08:24Z</time>
      </trkpt>
      <trkpt lat="44.8993" lon="0.64267">
        <ele>133.8</ele>
        <time>2023-04-10T08:08:26Z</time>
      </trkpt>
      <trkpt lat="44.89929" lon="0.64264">
        <ele>134</ele>
        <time>2023-04-10T08:08:27Z</time>
      </trkpt>
      <trkpt lat="44.89928" lon="0.6426">
        <ele>134.2</ele>
        <time>2023-04-10T08:08:28Z</time>
      </trkpt>
      <trkpt lat="44.89923" lon="0.64252">
        <ele>134.8</ele>
        <time>2023-04-10T08:08:30Z</time>
      </trkpt>
      <trkpt lat="44.89919" lon="0.64249">
        <ele>135.1</ele>
        <time>2023-04-10T08:08:32Z</time>
      </trkpt>
      <trkpt lat="44.89914" lon="0.64247">
        <ele>135.4</ele>
        <time>2023-04-10T08:08:34Z</time>
      </trkpt>
      <trkpt lat="44.89909" lon="0.64243">
        <ele>135.8</ele>
        <time>2023-04-10T08:08:36Z</time>
      </trkpt>
      <trkpt lat="44.89903" lon="0.6424">
        <ele>136.2</ele>
        <time>2023-04-10T08:08:38Z</time>
      </trkpt>
      <trkpt lat="44.89898" lon="0.64238">
        <ele>136.6</ele>
        <time>2023-04-10T08:08:40Z</time>
      </trkpt>
      <trkpt lat="44.89893" lon="0.64236">
        <ele>137</ele>
        <time>2023-04-10T08:08:42Z</time>
      </trkpt>
      <trkpt lat="44.89888" lon="0.64233">
        <ele>137.4</ele>
        <time>2023-04-10T08:08:44Z</time>
      </trkpt>
      <trkpt lat="44.89884" lon="0.64231">
        <ele>137.8</ele>
        <time>2023-04-10T08:08:46Z</time>
      </trkpt>
      <trkpt lat="44.89882" lon="0.64229">
        <ele>138</ele>
        <time>2023-04-10T08:08:47Z</time>
      </trkpt>
      <trkpt lat="44.8988" lon="0.64228">
        <ele>138.1</ele>
        <time>2023-04-10T08:08:48Z</time>
      </trkpt>
      <trkpt lat="44.89876" lon="0.64224">
        <ele>138.5</ele>
        <time>2023-04-10T08:08:50Z</time>
      </trkpt>
      <trkpt lat="44.89873" lon="0.64221">
        <ele>138.9</ele>
        <time>2023-04-10T08:08:52Z</time>
      </trkpt>
      <trkpt lat="44.89867" lon="0.64216">
        <ele>139.4</ele>
        <time>2023-04-10T08:08:54Z</time>
      </trkpt>
      <trkpt lat="44.89862" lon="0.6421">
        <ele>139.8</ele>
        <time>2023-04-10T08:08:56Z</time>
      </trkpt>
      <trkpt lat="44.89859" lon="0.64206">
        <ele>140.1</ele>
        <time>2023-04-10T08:08:58Z</time>
      </trkpt>
      <trkpt lat="44.89855" lon="0.64202">
        <ele>140.4</ele>
        <time>2023-04-10T08:09:00Z</time>
      </trkpt>
      <trkpt lat="44.89851" lon="0.64198">
        <ele>140.6</ele>
        <time>2023-04-10T08:09:02Z</time>
      </trkpt>
      <trkpt lat="44.89847" lon="0.64193">
        <ele>140.9</ele>
        <time>2023-04-10T08:09:04Z</time>
      </trkpt>
      <trkpt lat="44.89842" lon="0.64189">
        <ele>141.1</ele>
        <time>2023-04-10T08:09:06Z</time>
      </trkpt>
      <trkpt lat="44.89836" lon="0.64186">
        <ele>141.4</ele>
        <time>2023-04-10T08:09:08Z</time>
      </trkpt>
      <trkpt lat="44.89831" lon="0.64185">
        <ele>141.4</ele>
        <time>2023-04-10T08:09:10Z</time>
      </trkpt>
      <trkpt lat="44.89826" lon="0.64184">
        <ele>141.5</ele>
        <time>2023-04-10T08:09:12Z</time>
      </trkpt>
      <trkpt lat="44.8982" lon="0.64183">
        <ele>141.5</ele>
        <time>2023-04-10T08:09:14Z</time>
      </trkpt>
      <trkpt lat="44.89813" lon="0.64184">
        <ele>141.6</ele>
        <time>2023-04-10T08:09:16Z</time>
      </trkpt>
      <trkpt lat="44.89807" lon="0.64185">
        <ele>141.6</ele>
        <time>2023-04-10T08:09:18Z</time>
      </trkpt>
      <trkpt lat="44.89801" lon="0.64186">
        <ele>141.7</ele>
        <time>2023-04-10T08:09:20Z</time>
      </trkpt>
      <trkpt lat="44.89795" lon="0.64186">
        <ele>141.7</ele>
        <time>2023-04-10T08:09:22Z</time>
      </trkpt>
      <trkpt lat="44.89788" lon="0.64186">
        <ele>141.8</ele>
        <time>2023-04-10T08:09:24Z</time>
      </trkpt>
      <trkpt lat="44.89782" lon="0.64186">
        <ele>141.8</ele>
        <time>2023-04-10T08:09:26Z</time>
      </trkpt>
      <trkpt lat="44.89776" lon="0.64185">
        <ele>141.9</ele>
        <time>2023-04-10T08:09:28Z</time>
      </trkpt>
      <trkpt lat="44.89769" lon="0.64183">
        <ele>142</ele>
        <time>2023-04-10T08:09:30Z</time>
      </trkpt>
      <trkpt lat="44.89762" lon="0.64182">
        <ele>142</ele>
        <time>2023-04-10T08:09:32Z</time>
      </trkpt>
      <trkpt lat="44.89758" lon="0.64181">
        <ele>142</ele>
        <time>2023-04-10T08:09:33Z</time>
      </trkpt>
      <trkpt lat="44.89754" lon="0.64179">
        <ele>142.1</ele>
        <time>2023-04-10T08:09:34Z</time>
      </trkpt>
      <trkpt lat="44.8975" lon="0.64177">
        <ele>142.1</ele>
        <time>2023-04-10T08:09:35Z</time>
      </trkpt>
      <trkpt lat="44.89747" lon="0.64174">
        <ele>142.1</ele>
        <time>2023-04-10T08:09:36Z</time>
      </trkpt>
      <trkpt lat="44.89745" lon="0.64169">
        <ele>142.1</ele>
        <time>2023-04-10T08:09:37Z</time>
      </trkpt>
      <trkpt lat="44.89743" lon="0.64164">
        <ele>142.1</ele>
        <time>2023-04-10T08:09:38Z</time>
      </trkpt>
      <trkpt lat="44.8974" lon="0.64152">
        <ele>142</ele>
        <time>2023-04-10T08:09:40Z</time>
      </trkpt>
      <trkpt lat="44.89738" lon="0.64141">
        <ele>141.9</ele>
        <time>2023-04-10T08:09:42Z</time>
      </trkpt>
      <trkpt lat="44.89736" lon="0.64136">
        <ele>141.8</ele>
        <time>2023-04-10T08:09:43Z</time>
      </trkpt>
      <trkpt lat="44.89735" lon="0.6413">
        <ele>141.7</ele>
        <time>2023-04-10T08:09:44Z</time>
      </trkpt>
      <trkpt lat="44.89732" lon="0.64119">
        <ele>141.5</ele>
        <time>2023-04-10T08:09:46Z</time>
      </trkpt>
      <trkpt lat="44.8973" lon="0.64112">
        <ele>141.4</ele>
        <time>2023-04-10T08:09:47Z</time>
      </trkpt>
      <trkpt lat="44.89729" lon="0.64106">
        <ele>141.3</ele>
        <time>2023-04-10T08:09:48Z</time>
      </trkpt>
      <trkpt lat="44.89725" lon="0.64093">
        <ele>141.1</ele>
        <time>2023-04-10T08:09:50Z</time>
      </trkpt>
      <trkpt lat="44.89722" lon="0.6408">
        <ele>140.9</ele>
        <time>2023-04-10T08:09:52Z</time>
      </trkpt>
      <trkpt lat="44.89719" lon="0.64067">
        <ele>140.7</ele>
        <time>2023-04-10T08:09:54Z</time>
      </trkpt>
      <trkpt lat="44.89717" lon="0.6406">
        <ele>140.6</ele>
        <time>2023-04-10T08:09:55Z</time>
      </trkpt>
      <trkpt lat="44.89715" lon="0.64053">
        <ele>140.4</ele>
        <time>2023-04-10T08:09:56Z</time>
      </trkpt>
      <trkpt lat="44.89713" lon="0.64046">
        <ele>140.3</ele>
        <time>2023-04-10T08:09:57Z</time>
      </trkpt>
      <trkpt lat="44.89711" lon="0.64038">
        <ele>140.2</ele>
        <time>2023-04-10T08:09:58Z</time>
      </trkpt>
      <trkpt lat="44.89706" lon="0.64024">
        <ele>139.9</ele>
        <time>2023-04-10T08:10:00Z</time>
      </trkpt>
      <trkpt lat="44.89703" lon="0.64017">
        <ele>139.7</ele>
        <time>2023-04-10T08:10:01Z</time>
      </trkpt>
      <trkpt lat="44.897" lon="0.64011">
        <ele>139.6</ele>
        <time>2023-04-10T08:10:02Z</time>
      </trkpt>
      <trkpt lat="44.89696" lon="0.63998">
        <ele>139.2</ele>
        <time>2023-04-10T08:10:04Z</time>
      </trkpt>
      <trkpt lat="44.89695" lon="0.63991">
        <ele>139.1</ele>
        <time>2023-04-10T08:10:05Z</time>
      </trkpt>
      <trkpt lat="44.89696" lon="0.63983">
        <ele>138.9</ele>
        <time>2023-04-10T08:10:06Z</time>
      </trkpt>
      <trkpt lat="44.89696" lon="0.63969">
        <ele>138.5</ele>
        <time>2023-04-10T08:10:08Z</time>
      </trkpt>
      <trkpt lat="44.89697" lon="0.63955">
        <ele>138.1</ele>
        <time>2023-04-10T08:10:10Z</time>
      </trkpt>
      <trkpt lat="44.89697" lon="0.63941">
        <ele>137.6</ele>
        <time>2023-04-10T08:10:12Z</time>
      </trkpt>
      <trkpt lat="44.89697" lon="0.63925">
        <ele>137</ele>
        <time>2023-04-10T08:10:14Z</time>
      </trkpt>
      <trkpt lat="44.89699" lon="0.63909">
        <ele>136.3</ele>
        <time>2023-04-10T08:10:16Z</time>
      </trkpt>
      <trkpt lat="44.89701" lon="0.63892">
        <ele>135.6</ele>
        <time>2023-04-10T08:10:18Z</time>
      </trkpt>
      <trkpt lat="44.89701" lon="0.63884">
        <ele>135.2</ele>
        <time>2023-04-10T08:10:19Z</time>
      </trkpt>
      <trkpt lat="44.89702" lon="0.63875">
        <ele>134.8</ele>
        <time>2023-04-10T08:10:20Z</time>
      </trkpt>
      <trkpt lat="44.89703" lon="0.63857">
        <ele>133.9</ele>
        <time>2023-04-10T08:10:22Z</time>
      </trkpt>
      <trkpt lat="44.89703" lon="0.63839">
        <ele>133</ele>
        <time>2023-04-10T08:10:24Z</time>
      </trkpt>
      <trkpt lat="44.89703" lon="0.63829">
        <ele>132.6</ele>
        <time>2023-04-10T08:10:25Z</time>
      </trkpt>
      <trkpt lat="44.89704" lon="0.6382">
        <ele>132.1</ele>
        <time>2023-04-10T08:10:26Z</time>
      </trkpt>
      <trkpt lat="44.89707" lon="0.63799">
        <ele>131.2</ele>
        <time>2023-04-10T08:10:28Z</time>
      </trkpt>
      <trkpt lat="44.89712" lon="0.63779">
        <ele>130.6</ele>
        <time>2023-04-10T08:10:30Z</time>
      </trkpt>
      <trkpt lat="44.89713" lon="0.63769">
        <ele>130.4</ele>
        <time>2023-04-10T08:10:31Z</time>
      </trkpt>
      <trkpt lat="44.89714" lon="0.63759">
        <ele>130.3</ele>
        <time>2023-04-10T08:10:32Z</time>
      </trkpt>
      <trkpt lat="44.89715" lon="0.63741">
        <ele>130.3</ele>
        <time>2023-04-10T08:10:34Z</time>
      </trkpt>
      <trkpt lat="44.89716" lon="0.63725">
        <ele>130.4</ele>
        <time>2023-04-10T08:10:36Z</time>
      </trkpt>
      <trkpt lat="44.89717" lon="0.63717">
        <ele>130.4</ele>
        <time>2023-04-10T08:10:37Z</time>
      </trkpt>
      <trkpt lat="44.89718" lon="0.63708">
        <ele>130.4</ele>
        <time>2023-04-10T08:10:38Z</time>
      </trkpt>
      <trkpt lat="44.89719" lon="0.63692">
        <ele>130.6</ele>
        <time>2023-04-10T08:10:40Z</time>
      </trkpt>
      <trkpt lat="44.89721" lon="0.63676">
        <ele>130.9</ele>
        <time>2023-04-10T08:10:42Z</time>
      </trkpt>
      <trkpt lat="44.89722" lon="0.63668">
        <ele>131.2</ele>
        <time>2023-04-10T08:10:43Z</time>
      </trkpt>
      <trkpt lat="44.89724" lon="0.6366">
        <ele>131.4</ele>
        <time>2023-04-10T08:10:44Z</time>
      </trkpt>
      <trkpt lat="44.89725" lon="0.63648">
        <ele>131.7</ele>
        <time>2023-04-10T08:10:46Z</time>
      </trkpt>
      <trkpt lat="44.89723" lon="0.63635">
        <ele>131.9</ele>
        <time>2023-04-10T08:10:48Z</time>
      </trkpt>
      <trkpt lat="44.89723" lon="0.63629">
        <ele>132</ele>
        <time>2023-04-10T08:10:49Z</time>
      </trkpt>
      <trkpt lat="44.89723" lon="0.63623">
        <ele>132.1</ele>
        <time>2023-04-10T08:10:50Z</time>
      </trkpt>
      <trkpt lat="44.89724" lon="0.6361">
        <ele>132.1</ele>
        <time>2023-04-10T08:10:52Z</time>
      </trkpt>
      <trkpt lat="44.89724" lon="0.63604">
        <ele>132.1</ele>
        <time>2023-04-10T08:10:53Z</time>
      </trkpt>
      <trkpt lat="44.89724" lon="0.63597">
        <ele>132.1</ele>
        <time>2023-04-10T08:10:54Z</time>
      </trkpt>
      <trkpt lat="44.89723" lon="0.63583">
        <ele>132</ele>
        <time>2023-04-10T08:10:56Z</time>
      </trkpt>
      <trkpt lat="44.89722" lon="0.63569">
        <ele>132</ele>
        <time>2023-04-10T08:10:58Z</time>
      </trkpt>
      <trkpt lat="44.89722" lon="0.63554">
        <ele>132</ele>
        <time>2023-04-10T08:11:00Z</time>
      </trkpt>
      <trkpt lat="44.89722" lon="0.63539">
        <ele>131.9</ele>
        <time>2023-04-10T08:11:02Z</time>
      </trkpt>
      <trkpt lat="44.89722" lon="0.63524">
        <ele>131.9</ele>
        <time>2023-04-10T08:11:04Z</time>
      </trkpt>
      <trkpt lat="44.89722" lon="0.63509">
        <ele>131.9</ele>
        <time>2023-04-10T08:11:06Z</time>
      </trkpt>
      <trkpt lat="44.89723" lon="0.63502">
        <ele>131.9</ele>
        <time>2023-04-10T08:11:07Z</time>
      </trkpt>
      <trkpt lat="44.89723" lon="0.63495">
        <ele>131.9</ele>
        <time>2023-04-10T08:11:08Z</time>
      </trkpt>
      <trkpt lat="44.89724" lon="0.6348">
        <ele>132</ele>
        <time>2023-04-10T08:11:10Z</time>
      </trkpt>
      <trkpt lat="44.89726" lon="0.63466">
        <ele>131.9</ele>
        <time>2023-04-10T08:11:12Z</time>
      </trkpt>
      <trkpt lat="44.89728" lon="0.63452">
        <ele>131.9</ele>
        <time>2023-04-10T08:11:14Z</time>
      </trkpt>
      <trkpt lat="44.8973" lon="0.63438">
        <ele>131.7</ele>
        <time>2023-04-10T08:11:16Z</time>
      </trkpt>
      <trkpt lat="44.8973" lon="0.63431">
        <ele>131.6</ele>
        <time>2023-04-10T08:11:17Z</time>
      </trkpt>
      <trkpt lat="44.8973" lon="0.63425">
        <ele>131.4</ele>
        <time>2023-04-10T08:11:18Z</time>
      </trkpt>
      <trkpt lat="44.89732" lon="0.6342">
        <ele>131</ele>
        <time>2023-04-10T08:11:19Z</time>
      </trkpt>
      <trkpt lat="44.89735" lon="0.63416">
        <ele>130.7</ele>
        <time>2023-04-10T08:11:20Z</time>
      </trkpt>
      <trkpt lat="44.89739" lon="0.63415">
        <ele>130.3</ele>
        <time>2023-04-10T08:11:21Z</time>
      </trkpt>
      <trkpt lat="44.89744" lon="0.63415">
        <ele>129.8</ele>
        <time>2023-04-10T08:11:22Z</time>
      </trkpt>
      <trkpt lat="44.89754" lon="0.63416">
        <ele>128.6</ele>
        <time>2023-04-10T08:11:24Z</time>
      </trkpt>
      <trkpt lat="44.8976" lon="0.63415">
        <ele>127.9</ele>
        <time>2023-04-10T08:11:25Z</time>
      </trkpt>
      <trkpt lat="44.89767" lon="0.63413">
        <ele>127.1</ele>
        <time>2023-04-10T08:11:26Z</time>
      </trkpt>
      <trkpt lat="44.89773" lon="0.6341">
        <ele>126.2</ele>
        <time>2023-04-10T08:11:27Z</time>
      </trkpt>
      <trkpt lat="44.8978" lon="0.63405">
        <ele>125.3</ele>
        <time>2023-04-10T08:11:28Z</time>
      </trkpt>
      <trkpt lat="44.89787" lon="0.63397">
        <ele>124.1</ele>
        <time>2023-04-10T08:11:29Z</time>
      </trkpt>
      <trkpt lat="44.89794" lon="0.63387">
        <ele>123</ele>
        <time>2023-04-10T08:11:30Z</time>
      </trkpt>
      <trkpt lat="44.89807" lon="0.63367">
        <ele>120.7</ele>
        <time>2023-04-10T08:11:32Z</time>
      </trkpt>
      <trkpt lat="44.89816" lon="0.63359">
        <ele>119.6</ele>
        <time>2023-04-10T08:11:33Z</time>
      </trkpt>
      <trkpt lat="44.89826" lon="0.63354">
        <ele>118.4</ele>
        <time>2023-04-10T08:11:34Z</time>
      </trkpt>
      <trkpt lat="44.89847" lon="0.63349">
        <ele>116.2</ele>
        <time>2023-04-10T08:11:36Z</time>
      </trkpt>
      <trkpt lat="44.89869" lon="0.63343">
        <ele>114.2</ele>
        <time>2023-04-10T08:11:38Z</time>
      </trkpt>
      <trkpt lat="44.89891" lon="0.63338">
        <ele>112.3</ele>
        <time>2023-04-10T08:11:40Z</time>
      </trkpt>
      <trkpt lat="44.89912" lon="0.63333">
        <ele>110.6</ele>
        <time>2023-04-10T08:11:42Z</time>
      </trkpt>
      <trkpt lat="44.89934" lon="0.63327">
        <ele>108.8</ele>
        <time>2023-04-10T08:11:44Z</time>
      </trkpt>
      <trkpt lat="44.89955" lon="0.63323">
        <ele>107.2</ele>
        <time>2023-04-10T08:11:46Z</time>
      </trkpt>
      <trkpt lat="44.89966" lon="0.6332">
        <ele>106.5</ele>
        <time>2023-04-10T08:11:47Z</time>
      </trkpt>
      <trkpt lat="44.89975" lon="0.63314">
        <ele>105.9</ele>
        <time>2023-04-10T08:11:48Z</time>
      </trkpt>
      <trkpt lat="44.89991" lon="0.63299">
        <ele>104.7</ele>
        <time>2023-04-10T08:11:50Z</time>
      </trkpt>
      <trkpt lat="44.89996" lon="0.63292">
        <ele>104.2</ele>
        <time>2023-04-10T08:11:51Z</time>
      </trkpt>
      <trkpt lat="44.9" lon="0.63286">
        <ele>103.7</ele>
        <time>2023-04-10T08:11:52Z</time>
      </trkpt>
      <trkpt lat="44.90004" lon="0.63283">
        <ele>103.3</ele>
        <time>2023-04-10T08:11:53Z</time>
      </trkpt>
      <trkpt lat="44.90007" lon="0.63283">
        <ele>103</ele>
        <time>2023-04-10T08:11:54Z</time>
      </trkpt>
      <trkpt lat="44.90011" lon="0.63284">
        <ele>102.6</ele>
        <time>2023-04-10T08:11:55Z</time>
      </trkpt>
      <trkpt lat="44.90016" lon="0.63284">
        <ele>102.1</ele>
        <time>2023-04-10T08:11:56Z</time>
      </trkpt>
      <trkpt lat="44.90022" lon="0.63284">
        <ele>101.5</ele>
        <time>2023-04-10T08:11:57Z</time>
      </trkpt>
      <trkpt lat="44.90028" lon="0.63283">
        <ele>100.9</ele>
        <time>2023-04-10T08:11:58Z</time>
      </trkpt>
      <trkpt lat="44.90041" lon="0.63281">
        <ele>99.5</ele>
        <time>2023-04-10T08:12:00Z</time>
      </trkpt>
      <trkpt lat="44.90048" lon="0.63279">
        <ele>98.8</ele>
        <time>2023-04-10T08:12:01Z</time>
      </trkpt>
      <trkpt lat="44.90053" lon="0.63276">
        <ele>98.2</ele>
        <time>2023-04-10T08:12:02Z</time>
      </trkpt>
      <trkpt lat="44.90058" lon="0.63274">
        <ele>97.7</ele>
        <time>2023-04-10T08:12:03Z</time>
      </trkpt>
      <trkpt lat="44.90063" lon="0.63272">
        <ele>97</ele>
        <time>2023-04-10T08:12:04Z</time>
      </trkpt>
      <trkpt lat="44.90073" lon="0.63267">
        <ele>95.7</ele>
        <time>2023-04-10T08:12:06Z</time>
      </trkpt>
      <trkpt lat="44.90078" lon="0.63266">
        <ele>95.1</ele>
        <time>2023-04-10T08:12:07Z</time>
      </trkpt>
      <trkpt lat="44.90082" lon="0.63265">
        <ele>94.6</ele>
        <time>2023-04-10T08:12:08Z</time>
      </trkpt>
      <trkpt lat="44.90087" lon="0.63263">
        <ele>93.9</ele>
        <time>2023-04-10T08:12:10Z</time>
      </trkpt>
      <trkpt lat="44.9009" lon="0.63261">
        <ele>93.5</ele>
        <time>2023-04-10T08:12:11Z</time>
      </trkpt>
      <trkpt lat="44.90091" lon="0.63258">
        <ele>93.2</ele>
        <time>2023-04-10T08:12:12Z</time>
      </trkpt>
      <trkpt lat="44.90091" lon="0.63254">
        <ele>92.8</ele>
        <time>2023-04-10T08:12:13Z</time>
      </trkpt>
      <trkpt lat="44.90089" lon="0.63249">
        <ele>92.3</ele>
        <time>2023-04-10T08:12:14Z</time>
      </trkpt>
      <trkpt lat="44.90091" lon="0.63239">
        <ele>91.3</ele>
        <time>2023-04-10T08:12:16Z</time>
      </trkpt>
      <trkpt lat="44.90091" lon="0.63236">
        <ele>91</ele>
        <time>2023-04-10T08:12:17Z</time>
      </trkpt>
      <trkpt lat="44.90095" lon="0.63231">
        <ele>90.2</ele>
        <time>2023-04-10T08:12:18Z</time>
      </trkpt>
      <trkpt lat="44.901" lon="0.63231">
        <ele>89.5</ele>
        <time>2023-04-10T08:12:19Z</time>
      </trkpt>
      <trkpt lat="44.901" lon="0.63234">
        <ele>89.2</ele>
        <time>2023-04-10T08:12:20Z</time>
      </trkpt>
      <trkpt lat="44.90106" lon="0.63244">
        <ele>87.9</ele>
        <time>2023-04-10T08:12:22Z</time>
      </trkpt>
      <trkpt lat="44.90114" lon="0.63254">
        <ele>86.2</ele>
        <time>2023-04-10T08:12:23Z</time>
      </trkpt>
      <trkpt lat="44.90127" lon="0.63268">
        <ele>84</ele>
        <time>2023-04-10T08:12:24Z</time>
      </trkpt>
      <trkpt lat="44.90132" lon="0.63272">
        <ele>83.3</ele>
        <time>2023-04-10T08:12:25Z</time>
      </trkpt>
      <trkpt lat="44.90142" lon="0.63281">
        <ele>82.1</ele>
        <time>2023-04-10T08:12:26Z</time>
      </trkpt>
      <trkpt lat="44.90153" lon="0.63287">
        <ele>81</ele>
        <time>2023-04-10T08:12:27Z</time>
      </trkpt>
      <trkpt lat="44.90167" lon="0.63295">
        <ele>79.6</ele>
        <time>2023-04-10T08:12:28Z</time>
      </trkpt>
      <trkpt lat="44.90187" lon="0.63303">
        <ele>77.9</ele>
        <time>2023-04-10T08:12:30Z</time>
      </trkpt>
      <trkpt lat="44.90194" lon="0.63302">
        <ele>77.6</ele>
        <time>2023-04-10T08:12:31Z</time>
      </trkpt>
      <trkpt lat="44.90198" lon="0.63297">
        <ele>77.2</ele>
        <time>2023-04-10T08:12:32Z</time>
      </trkpt>
      <trkpt lat="44.90204" lon="0.63289">
        <ele>76.9</ele>
        <time>2023-04-10T08:12:33Z</time>
      </trkpt>
      <trkpt lat="44.90208" lon="0.63281">
        <ele>76.6</ele>
        <time>2023-04-10T08:12:34Z</time>
      </trkpt>
      <trkpt lat="44.90211" lon="0.63272">
        <ele>76.3</ele>
        <time>2023-04-10T08:12:35Z</time>
      </trkpt>
      <trkpt lat="44.90214" lon="0.63263">
        <ele>76.1</ele>
        <time>2023-04-10T08:12:36Z</time>
      </trkpt>
      <trkpt lat="44.90215" lon="0.63255">
        <ele>75.9</ele>
        <time>2023-04-10T08:12:37Z</time>
      </trkpt>
      <trkpt lat="44.90217" lon="0.63248">
        <ele>75.7</ele>
        <time>2023-04-10T08:12:38Z</time>
      </trkpt>
      <trkpt lat="44.90222" lon="0.63243">
        <ele>75.5</ele>
        <time>2023-04-10T08:12:39Z</time>
      </trkpt>
      <trkpt lat="44.90227" lon="0.63239">
        <ele>75.4</ele>
        <time>2023-04-10T08:12:40Z</time>
      </trkpt>
      <trkpt lat="44.90241" lon="0.6323">
        <ele>75.2</ele>
        <time>2023-04-10T08:12:42Z</time>
      </trkpt>
      <trkpt lat="44.90249" lon="0.63226">
        <ele>75.1</ele>
        <time>2023-04-10T08:12:43Z</time>
      </trkpt>
      <trkpt lat="44.90257" lon="0.63224">
        <ele>75.1</ele>
        <time>2023-04-10T08:12:44Z</time>
      </trkpt>
      <trkpt lat="44.9027" lon="0.63224">
        <ele>75</ele>
        <time>2023-04-10T08:12:46Z</time>
      </trkpt>
      <trkpt lat="44.90282" lon="0.63231">
        <ele>75</ele>
        <time>2023-04-10T08:12:48Z</time>
      </trkpt>
      <trkpt lat="44.90293" lon="0.63239">
        <ele>75</ele>
        <time>2023-04-10T08:12:50Z</time>
      </trkpt>
      <trkpt lat="44.90303" lon="0.63246">
        <ele>75</ele>
        <time>2023-04-10T08:12:52Z</time>
      </trkpt>
      <trkpt lat="44.90313" lon="0.63252">
        <ele>75.1</ele>
        <time>2023-04-10T08:12:54Z</time>
      </trkpt>
      <trkpt lat="44.90323" lon="0.63259">
        <ele>75.2</ele>
        <time>2023-04-10T08:12:56Z</time>
      </trkpt>
      <trkpt lat="44.90332" lon="0.63267">
        <ele>75.4</ele>
        <time>2023-04-10T08:12:58Z</time>
      </trkpt>
      <trkpt lat="44.90341" lon="0.63275">
        <ele>75.7</ele>
        <time>2023-04-10T08:13:00Z</time>
      </trkpt>
      <trkpt lat="44.90345" lon="0.63276">
        <ele>75.9</ele>
        <time>2023-04-10T08:13:01Z</time>
      </trkpt>
      <trkpt lat="44.90348" lon="0.63276">
        <ele>76</ele>
        <time>2023-04-10T08:13:02Z</time>
      </trkpt>
      <trkpt lat="44.90353" lon="0.63275">
        <ele>76.1</ele>
        <time>2023-04-10T08:13:04Z</time>
      </trkpt>
      <trkpt lat="44.90358" lon="0.63273">
        <ele>76.2</ele>
        <time>2023-04-10T08:13:06Z</time>
      </trkpt>
      <trkpt lat="44.90362" lon="0.63273">
        <ele>76.2</ele>
        <time>2023-04-10T08:13:07Z</time>
      </trkpt>
      <trkpt lat="44.90366" lon="0.63272">
        <ele>76.2</ele>
        <time>2023-04-10T08:13:08Z</time>
      </trkpt>
      <trkpt lat="44.90375" lon="0.6327">
        <ele>76.2</ele>
        <time>2023-04-10T08:13:10Z</time>
      </trkpt>
      <trkpt lat="44.90383" lon="0.63266">
        <ele>76.2</ele>
        <time>2023-04-10T08:13:12Z</time>
      </trkpt>
      <trkpt lat="44.90387" lon="0.63265">
        <ele>76.2</ele>
        <time>2023-04-10T08:13:13Z</time>
      </trkpt>
      <trkpt lat="44.90392" lon="0.63265">
        <ele>76.2</ele>
        <time>2023-04-10T08:13:14Z</time>
      </trkpt>
      <trkpt lat="44.904" lon="0.63262">
        <ele>76.3</ele>
        <time>2023-04-10T08:13:16Z</time>
      </trkpt>
      <trkpt lat="44.90408" lon="0.63259">
        <ele>76.4</ele>
        <time>2023-04-10T08:13:18Z</time>
      </trkpt>
      <trkpt lat="44.90415" lon="0.63257">
        <ele>76.5</ele>
        <time>2023-04-10T08:13:20Z</time>
      </trkpt>
      <trkpt lat="44.90419" lon="0.63255">
        <ele>76.5</ele>
        <time>2023-04-10T08:13:21Z</time>
      </trkpt>
      <trkpt lat="44.90423" lon="0.63254">
        <ele>76.6</ele>
        <time>2023-04-10T08:13:22Z</time>
      </trkpt>
      <trkpt lat="44.90431" lon="0.63252">
        <ele>76.8</ele>
        <time>2023-04-10T08:13:24Z</time>
      </trkpt>
      <trkpt lat="44.90439" lon="0.63249">
        <ele>76.9</ele>
        <time>2023-04-10T08:13:26Z</time>
      </trkpt>
      <trkpt lat="44.90446" lon="0.63246">
        <ele>77.1</ele>
        <time>2023-04-10T08:13:28Z</time>
      </trkpt>
      <trkpt lat="44.90447" lon="0.63236">
        <ele>76.8</ele>
        <time>2023-04-10T08:13:30Z</time>
      </trkpt>
      <trkpt lat="44.90446" lon="0.63231">
        <ele>76.7</ele>
        <time>2023-04-10T08:13:31Z</time>
      </trkpt>
      <trkpt lat="44.90444" lon="0.63225">
        <ele>76.5</ele>
        <time>2023-04-10T08:13:32Z</time>
      </trkpt>
      <trkpt lat="44.90439" lon="0.63213">
        <ele>76.3</ele>
        <time>2023-04-10T08:13:34Z</time>
      </trkpt>
      <trkpt lat="44.90435" lon="0.63201">
        <ele>76.1</ele>
        <time>2023-04-10T08:13:36Z</time>
      </trkpt>
      <trkpt lat="44.90433" lon="0.63195">
        <ele>76</ele>
        <time>2023-04-10T08:13:37Z</time>
      </trkpt>
      <trkpt lat="44.90431" lon="0.63188">
        <ele>75.9</ele>
        <time>2023-04-10T08:13:38Z</time>
      </trkpt>
      <trkpt lat="44.90427" lon="0.63175">
        <ele>75.7</ele>
        <time>2023-04-10T08:13:40Z</time>
      </trkpt>
      <trkpt lat="44.90424" lon="0.63162">
        <ele>75.6</ele>
        <time>2023-04-10T08:13:42Z</time>
      </trkpt>
      <trkpt lat="44.90421" lon="0.63148">
        <ele>75.5</ele>
        <time>2023-04-10T08:13:44Z</time>
      </trkpt>
      <trkpt lat="44.9042" lon="0.63134">
        <ele>75.4</ele>
        <time>2023-04-10T08:13:46Z</time>
      </trkpt>
      <trkpt lat="44.90417" lon="0.63121">
        <ele>75.3</ele>
        <time>2023-04-10T08:13:48Z</time>
      </trkpt>
      <trkpt lat="44.90413" lon="0.63108">
        <ele>75.3</ele>
        <time>2023-04-10T08:13:50Z</time>
      </trkpt>
      <trkpt lat="44.9041" lon="0.63095">
        <ele>75.3</ele>
        <time>2023-04-10T08:13:52Z</time>
      </trkpt>
      <trkpt lat="44.90409" lon="0.63089">
        <ele>75.3</ele>
        <time>2023-04-10T08:13:53Z</time>
      </trkpt>
      <trkpt lat="44.90409" lon="0.63082">
        <ele>75.3</ele>
        <time>2023-04-10T08:13:54Z</time>
      </trkpt>
      <trkpt lat="44.90407" lon="0.63068">
        <ele>75.3</ele>
        <time>2023-04-10T08:13:56Z</time>
      </trkpt>
      <trkpt lat="44.90405" lon="0.63054">
        <ele>75.4</ele>
        <time>2023-04-10T08:13:58Z</time>
      </trkpt>
      <trkpt lat="44.90403" lon="0.6304">
        <ele>75.4</ele>
        <time>2023-04-10T08:14:00Z</time>
      </trkpt>
      <trkpt lat="44.904" lon="0.63026">
        <ele>75.6</ele>
        <time>2023-04-10T08:14:02Z</time>
      </trkpt>
      <trkpt lat="44.90397" lon="0.63012">
        <ele>75.7</ele>
        <time>2023-04-10T08:14:04Z</time>
      </trkpt>
      <trkpt lat="44.90394" lon="0.62998">
        <ele>75.9</ele>
        <time>2023-04-10T08:14:06Z</time>
      </trkpt>
      <trkpt lat="44.90393" lon="0.62992">
        <ele>76</ele>
        <time>2023-04-10T08:14:07Z</time>
      </trkpt>
      <trkpt lat="44.90393" lon="0.62985">
        <ele>76.1</ele>
        <time>2023-04-10T08:14:08Z</time>
      </trkpt>
      <trkpt lat="44.90391" lon="0.62973">
        <ele>76.3</ele>
        <time>2023-04-10T08:14:10Z</time>
      </trkpt>
      <trkpt lat="44.9039" lon="0.6296">
        <ele>76.6</ele>
        <time>2023-04-10T08:14:12Z</time>
      </trkpt>
      <trkpt lat="44.90389" lon="0.62948">
        <ele>76.9</ele>
        <time>2023-04-10T08:14:14Z</time>
      </trkpt>
      <trkpt lat="44.90388" lon="0.62939">
        <ele>77.2</ele>
        <time>2023-04-10T08:14:16Z</time>
      </trkpt>
      <trkpt lat="44.90387" lon="0.62927">
        <ele>77.5</ele>
        <time>2023-04-10T08:14:18Z</time>
      </trkpt>
      <trkpt lat="44.90386" lon="0.62914">
        <ele>78</ele>
        <time>2023-04-10T08:14:20Z</time>
      </trkpt>
      <trkpt lat="44.90387" lon="0.62902">
        <ele>78.4</ele>
        <time>2023-04-10T08:14:22Z</time>
      </trkpt>
      <trkpt lat="44.90389" lon="0.62898">
        <ele>78.6</ele>
        <time>2023-04-10T08:14:23Z</time>
      </trkpt>
      <trkpt lat="44.90391" lon="0.62895">
        <ele>78.7</ele>
        <time>2023-04-10T08:14:24Z</time>
      </trkpt>
      <trkpt lat="44.90394" lon="0.62893">
        <ele>78.9</ele>
        <time>2023-04-10T08:14:25Z</time>
      </trkpt>
      <trkpt lat="44.90397" lon="0.62893">
        <ele>79</ele>
        <time>2023-04-10T08:14:26Z</time>
      </trkpt>
      <trkpt lat="44.90399" lon="0.62892">
        <ele>79.1</ele>
        <time>2023-04-10T08:14:27Z</time>
      </trkpt>
      <trkpt lat="44.90402" lon="0.62892">
        <ele>79.2</ele>
        <time>2023-04-10T08:14:28Z</time>
      </trkpt>
      <trkpt lat="44.90407" lon="0.6289">
        <ele>79.4</ele>
        <time>2023-04-10T08:14:30Z</time>
      </trkpt>
      <trkpt lat="44.90408" lon="0.62889">
        <ele>79.5</ele>
        <time>2023-04-10T08:14:31Z</time>
      </trkpt>
      <trkpt lat="44.90409" lon="0.62887">
        <ele>79.6</ele>
        <time>2023-04-10T08:14:32Z</time>
      </trkpt>
      <trkpt lat="44.9041" lon="0.62884">
        <ele>79.7</ele>
        <time>2023-04-10T08:14:33Z</time>
      </trkpt>
      <trkpt lat="44.9041" lon="0.62881">
        <ele>79.8</ele>
        <time>2023-04-10T08:14:34Z</time>
      </trkpt>
      <trkpt lat="44.90411" lon="0.62874">
        <ele>79.9</ele>
        <time>2023-04-10T08:14:36Z</time>
      </trkpt>
      <trkpt lat="44.90412" lon="0.6287">
        <ele>80</ele>
        <time>2023-04-10T08:14:37Z</time>
      </trkpt>
      <trkpt lat="44.90412" lon="0.62866">
        <ele>80.1</ele>
        <time>2023-04-10T08:14:38Z</time>
      </trkpt>
      <trkpt lat="44.90412" lon="0.62857">
        <ele>80.2</ele>
        <time>2023-04-10T08:14:40Z</time>
      </trkpt>
      <trkpt lat="44.90412" lon="0.62853">
        <ele>80.3</ele>
        <time>2023-04-10T08:14:41Z</time>
      </trkpt>
      <trkpt lat="44.90412" lon="0.62849">
        <ele>80.4</ele>
        <time>2023-04-10T08:14:42Z</time>
      </trkpt>
      <trkpt lat="44.90412" lon="0.62845">
        <ele>80.5</ele>
        <time>2023-04-10T08:14:43Z</time>
      </trkpt>
      <trkpt lat="44.90411" lon="0.6284">
        <ele>80.6</ele>
        <time>2023-04-10T08:14:44Z</time>
      </trkpt>
      <trkpt lat="44.90412" lon="0.6283">
        <ele>80.8</ele>
        <time>2023-04-10T08:14:46Z</time>
      </trkpt>
      <trkpt lat="44.90413" lon="0.62821">
        <ele>81.1</ele>
        <time>2023-04-10T08:14:48Z</time>
      </trkpt>
      <trkpt lat="44.90413" lon="0.62816">
        <ele>81.2</ele>
        <time>2023-04-10T08:14:49Z</time>
      </trkpt>
      <trkpt lat="44.90414" lon="0.62812">
        <ele>81.4</ele>
        <time>2023-04-10T08:14:50Z</time>
      </trkpt>
      <trkpt lat="44.90415" lon="0.62802">
        <ele>81.6</ele>
        <time>2023-04-10T08:14:52Z</time>
      </trkpt>
      <trkpt lat="44.90416" lon="0.62792">
        <ele>81.9</ele>
        <time>2023-04-10T08:14:54Z</time>
      </trkpt>
      <trkpt lat="44.90416" lon="0.62787">
        <ele>82</ele>
        <time>2023-04-10T08:14:55Z</time>
      </trkpt>
      <trkpt lat="44.90417" lon="0.62782">
        <ele>82.1</ele>
        <time>2023-04-10T08:14:56Z</time>
      </trkpt>
      <trkpt lat="44.90418" lon="0.62773">
        <ele>82.3</ele>
        <time>2023-04-10T08:14:58Z</time>
      </trkpt>
      <trkpt lat="44.90418" lon="0.62763">
        <ele>82.5</ele>
        <time>2023-04-10T08:15:00Z</time>
      </trkpt>
      <trkpt lat="44.90419" lon="0.62754">
        <ele>82.7</ele>
        <time>2023-04-10T08:15:02Z</time>
      </trkpt>
      <trkpt lat="44.90419" lon="0.62744">
        <ele>83</ele>
        <time>2023-04-10T08:15:04Z</time>
      </trkpt>
      <trkpt lat="44.90419" lon="0.62734">
        <ele>83.2</ele>
        <time>2023-04-10T08:15:06Z</time>
      </trkpt>
      <trkpt lat="44.9042" lon="0.6273">
        <ele>83.3</ele>
        <time>2023-04-10T08:15:07Z</time>
      </trkpt>
      <trkpt lat="44.90421" lon="0.62725">
        <ele>83.4</ele>
        <time>2023-04-10T08:15:08Z</time>
      </trkpt>
      <trkpt lat="44.90421" lon="0.62715">
        <ele>83.6</ele>
        <time>2023-04-10T08:15:10Z</time>
      </trkpt>
      <trkpt lat="44.90422" lon="0.62706">
        <ele>83.8</ele>
        <time>2023-04-10T08:15:12Z</time>
      </trkpt>
      <trkpt lat="44.90422" lon="0.62696">
        <ele>84</ele>
        <time>2023-04-10T08:15:14Z</time>
      </trkpt>
      <trkpt lat="44.90423" lon="0.62685">
        <ele>84.1</ele>
        <time>2023-04-10T08:15:16Z</time>
      </trkpt>
      <trkpt lat="44.90424" lon="0.62674">
        <ele>84.2</ele>
        <time>2023-04-10T08:15:18Z</time>
      </trkpt>
      <trkpt lat="44.90425" lon="0.62668">
        <ele>84.3</ele>
        <time>2023-04-10T08:15:19Z</time>
      </trkpt>
      <trkpt lat="44.90424" lon="0.62662">
        <ele>84.3</ele>
        <time>2023-04-10T08:15:20Z</time>
      </trkpt>
      <trkpt lat="44.90424" lon="0.6265">
        <ele>84.4</ele>
        <time>2023-04-10T08:15:22Z</time>
      </trkpt>
      <trkpt lat="44.90425" lon="0.62638">
        <ele>84.4</ele>
        <time>2023-04-10T08:15:24Z</time>
      </trkpt>
      <trkpt lat="44.90427" lon="0.62626">
        <ele>84.5</ele>
        <time>2023-04-10T08:15:26Z</time>
      </trkpt>
      <trkpt lat="44.90428" lon="0.62614">
        <ele>84.6</ele>
        <time>2023-04-10T08:15:28Z</time>
      </trkpt>
      <trkpt lat="44.90428" lon="0.62601">
        <ele>84.6</ele>
        <time>2023-04-10T08:15:30Z</time>
      </trkpt>
      <trkpt lat="44.90429" lon="0.62587">
        <ele>84.7</ele>
        <time>2023-04-10T08:15:32Z</time>
      </trkpt>
      <trkpt lat="44.90429" lon="0.62574">
        <ele>84.9</ele>
        <time>2023-04-10T08:15:34Z</time>
      </trkpt>
      <trkpt lat="44.9043" lon="0.62561">
        <ele>85.1</ele>
        <time>2023-04-10T08:15:36Z</time>
      </trkpt>
      <trkpt lat="44.90431" lon="0.62548">
        <ele>85.4</ele>
        <time>2023-04-10T08:15:38Z</time>
      </trkpt>
      <trkpt lat="44.90435" lon="0.62538">
        <ele>85.7</ele>
        <time>2023-04-10T08:15:40Z</time>
      </trkpt>
      <trkpt lat="44.90439" lon="0.6253">
        <ele>86</ele>
        <time>2023-04-10T08:15:42Z</time>
      </trkpt>
      <trkpt lat="44.90438" lon="0.62522">
        <ele>85.6</ele>
        <time>2023-04-10T08:15:44Z</time>
      </trkpt>
      <trkpt lat="44.90436" lon="0.6252">
        <ele>85.4</ele>
        <time>2023-04-10T08:15:45Z</time>
      </trkpt>
      <trkpt lat="44.90434" lon="0.62517">
        <ele>85.3</ele>
        <time>2023-04-10T08:17:09Z</time>
      </trkpt>
      <trkpt lat="44.90432" lon="0.62514">
        <ele>85.2</ele>
        <time>2023-04-10T08:17:10Z</time>
      </trkpt>
      <trkpt lat="44.9043" lon="0.62509">
        <ele>84.9</ele>
        <time>2023-04-10T08:17:11Z</time>
      </trkpt>
      <trkpt lat="44.90428" lon="0.62503">
        <ele>84.8</ele>
        <time>2023-04-10T08:17:12Z</time>
      </trkpt>
      <trkpt lat="44.90427" lon="0.62499">
        <ele>84.6</ele>
        <time>2023-04-10T08:17:13Z</time>
      </trkpt>
      <trkpt lat="44.90426" lon="0.62496">
        <ele>84.6</ele>
        <time>2023-04-10T08:17:14Z</time>
      </trkpt>
      <trkpt lat="44.90425" lon="0.62489">
        <ele>84.6</ele>
        <time>2023-04-10T08:17:16Z</time>
      </trkpt>
      <trkpt lat="44.90423" lon="0.62481">
        <ele>84.7</ele>
        <time>2023-04-10T08:17:18Z</time>
      </trkpt>
      <trkpt lat="44.90418" lon="0.62473">
        <ele>84.9</ele>
        <time>2023-04-10T08:17:20Z</time>
      </trkpt>
      <trkpt lat="44.90415" lon="0.62462">
        <ele>85.3</ele>
        <time>2023-04-10T08:17:22Z</time>
      </trkpt>
      <trkpt lat="44.90414" lon="0.62458">
        <ele>85.4</ele>
        <time>2023-04-10T08:17:23Z</time>
      </trkpt>
      <trkpt lat="44.90413" lon="0.62453">
        <ele>85.6</ele>
        <time>2023-04-10T08:17:24Z</time>
      </trkpt>
      <trkpt lat="44.9041" lon="0.62444">
        <ele>85.9</ele>
        <time>2023-04-10T08:17:26Z</time>
      </trkpt>
      <trkpt lat="44.90407" lon="0.62436">
        <ele>86.1</ele>
        <time>2023-04-10T08:17:28Z</time>
      </trkpt>
      <trkpt lat="44.90403" lon="0.62428">
        <ele>86.3</ele>
        <time>2023-04-10T08:17:30Z</time>
      </trkpt>
      <trkpt lat="44.90399" lon="0.6242">
        <ele>86.4</ele>
        <time>2023-04-10T08:17:32Z</time>
      </trkpt>
      <trkpt lat="44.90396" lon="0.62415">
        <ele>86.5</ele>
        <time>2023-04-10T08:17:33Z</time>
      </trkpt>
      <trkpt lat="44.90394" lon="0.6241">
        <ele>86.6</ele>
        <time>2023-04-10T08:17:34Z</time>
      </trkpt>
      <trkpt lat="44.9039" lon="0.62398">
        <ele>86.8</ele>
        <time>2023-04-10T08:17:36Z</time>
      </trkpt>
      <trkpt lat="44.90386" lon="0.62387">
        <ele>86.8</ele>
        <time>2023-04-10T08:17:38Z</time>
      </trkpt>
      <trkpt lat="44.90384" lon="0.62381">
        <ele>86.8</ele>
        <time>2023-04-10T08:17:39Z</time>
      </trkpt>
      <trkpt lat="44.90382" lon="0.62374">
        <ele>86.8</ele>
        <time>2023-04-10T08:17:40Z</time>
      </trkpt>
      <trkpt lat="44.9038" lon="0.62368">
        <ele>86.7</ele>
        <time>2023-04-10T08:17:41Z</time>
      </trkpt>
      <trkpt lat="44.90378" lon="0.62363">
        <ele>86.6</ele>
        <time>2023-04-10T08:17:42Z</time>
      </trkpt>
      <trkpt lat="44.90376" lon="0.62357">
        <ele>86.5</ele>
        <time>2023-04-10T08:17:43Z</time>
      </trkpt>
      <trkpt lat="44.90372" lon="0.62351">
        <ele>86.3</ele>
        <time>2023-04-10T08:17:44Z</time>
      </trkpt>
      <trkpt lat="44.90369" lon="0.62346">
        <ele>86.1</ele>
        <time>2023-04-10T08:17:45Z</time>
      </trkpt>
      <trkpt lat="44.90366" lon="0.6234">
        <ele>85.8</ele>
        <time>2023-04-10T08:17:46Z</time>
      </trkpt>
      <trkpt lat="44.90362" lon="0.62334">
        <ele>85.6</ele>
        <time>2023-04-10T08:17:47Z</time>
      </trkpt>
      <trkpt lat="44.90359" lon="0.62328">
        <ele>85.3</ele>
        <time>2023-04-10T08:17:48Z</time>
      </trkpt>
      <trkpt lat="44.90355" lon="0.62321">
        <ele>85</ele>
        <time>2023-04-10T08:17:49Z</time>
      </trkpt>
      <trkpt lat="44.90351" lon="0.62313">
        <ele>84.8</ele>
        <time>2023-04-10T08:17:50Z</time>
      </trkpt>
      <trkpt lat="44.90344" lon="0.62297">
        <ele>84.3</ele>
        <time>2023-04-10T08:17:52Z</time>
      </trkpt>
      <trkpt lat="44.90342" lon="0.62289">
        <ele>84.1</ele>
        <time>2023-04-10T08:17:53Z</time>
      </trkpt>
      <trkpt lat="44.90339" lon="0.62282">
        <ele>83.9</ele>
        <time>2023-04-10T08:17:54Z</time>
      </trkpt>
      <trkpt lat="44.90335" lon="0.62267">
        <ele>83.6</ele>
        <time>2023-04-10T08:17:56Z</time>
      </trkpt>
      <trkpt lat="44.90332" lon="0.62259">
        <ele>83.4</ele>
        <time>2023-04-10T08:17:57Z</time>
      </trkpt>
      <trkpt lat="44.9033" lon="0.62253">
        <ele>83.2</ele>
        <time>2023-04-10T08:17:58Z</time>
      </trkpt>
      <trkpt lat="44.90329" lon="0.62248">
        <ele>83</ele>
        <time>2023-04-10T08:17:59Z</time>
      </trkpt>
      <trkpt lat="44.90326" lon="0.62242">
        <ele>82.8</ele>
        <time>2023-04-10T08:18:00Z</time>
      </trkpt>
      <trkpt lat="44.90319" lon="0.6223">
        <ele>82.2</ele>
        <time>2023-04-10T08:18:02Z</time>
      </trkpt>
      <trkpt lat="44.90314" lon="0.62216">
        <ele>81.7</ele>
        <time>2023-04-10T08:18:04Z</time>
      </trkpt>
      <trkpt lat="44.90312" lon="0.62209">
        <ele>81.5</ele>
        <time>2023-04-10T08:18:05Z</time>
      </trkpt>
      <trkpt lat="44.90311" lon="0.62204">
        <ele>81.3</ele>
        <time>2023-04-10T08:18:06Z</time>
      </trkpt>
      <trkpt lat="44.90308" lon="0.62198">
        <ele>81.2</ele>
        <time>2023-04-10T08:18:07Z</time>
      </trkpt>
      <trkpt lat="44.90306" lon="0.62191">
        <ele>81</ele>
        <time>2023-04-10T08:18:08Z</time>
      </trkpt>
      <trkpt lat="44.90304" lon="0.62185">
        <ele>80.9</ele>
        <time>2023-04-10T08:18:09Z</time>
      </trkpt>
      <trkpt lat="44.90301" lon="0.62178">
        <ele>80.9</ele>
        <time>2023-04-10T08:18:10Z</time>
      </trkpt>
      <trkpt lat="44.90296" lon="0.62167">
        <ele>80.7</ele>
        <time>2023-04-10T08:18:12Z</time>
      </trkpt>
      <trkpt lat="44.90296" lon="0.62161">
        <ele>80.7</ele>
        <time>2023-04-10T08:18:13Z</time>
      </trkpt>
      <trkpt lat="44.90295" lon="0.62157">
        <ele>80.6</ele>
        <time>2023-04-10T08:18:14Z</time>
      </trkpt>
      <trkpt lat="44.90292" lon="0.62151">
        <ele>80.5</ele>
        <time>2023-04-10T08:18:16Z</time>
      </trkpt>
      <trkpt lat="44.9029" lon="0.62142">
        <ele>80.4</ele>
        <time>2023-04-10T08:18:18Z</time>
      </trkpt>
      <trkpt lat="44.90289" lon="0.62138">
        <ele>80.4</ele>
        <time>2023-04-10T08:18:19Z</time>
      </trkpt>
      <trkpt lat="44.90287" lon="0.62135">
        <ele>80.4</ele>
        <time>2023-04-10T08:18:20Z</time>
      </trkpt>
      <trkpt lat="44.90286" lon="0.62132">
        <ele>80.3</ele>
        <time>2023-04-10T08:18:22Z</time>
      </trkpt>
      <trkpt lat="44.90286" lon="0.6213">
        <ele>80.3</ele>
        <time>2023-04-10T08:18:23Z</time>
      </trkpt>
      <trkpt lat="44.90287" lon="0.62127">
        <ele>80.3</ele>
        <time>2023-04-10T08:18:24Z</time>
      </trkpt>
      <trkpt lat="44.90289" lon="0.62124">
        <ele>80.3</ele>
        <time>2023-04-10T08:18:26Z</time>
      </trkpt>
      <trkpt lat="44.90289" lon="0.62124">
        <ele>80.3</ele>
        <time>2023-04-10T08:18:27Z</time>
      </trkpt>
      <trkpt lat="44.90288" lon="0.62116">
        <ele>80.3</ele>
        <time>2023-04-10T08:18:30Z</time>
      </trkpt>
      <trkpt lat="44.90286" lon="0.621">
        <ele>80.3</ele>
        <time>2023-04-10T08:18:32Z</time>
      </trkpt>
      <trkpt lat="44.90283" lon="0.62087">
        <ele>80.4</ele>
        <time>2023-04-10T08:18:34Z</time>
      </trkpt>
      <trkpt lat="44.90282" lon="0.62076">
        <ele>80.6</ele>
        <time>2023-04-10T08:18:36Z</time>
      </trkpt>
      <trkpt lat="44.90282" lon="0.62069">
        <ele>80.7</ele>
        <time>2023-04-10T08:18:37Z</time>
      </trkpt>
      <trkpt lat="44.90282" lon="0.62063">
        <ele>80.8</ele>
        <time>2023-04-10T08:18:38Z</time>
      </trkpt>
      <trkpt lat="44.9028" lon="0.62055">
        <ele>81</ele>
        <time>2023-04-10T08:18:40Z</time>
      </trkpt>
      <trkpt lat="44.90278" lon="0.62046">
        <ele>81.1</ele>
        <time>2023-04-10T08:18:42Z</time>
      </trkpt>
      <trkpt lat="44.90276" lon="0.62036">
        <ele>81.3</ele>
        <time>2023-04-10T08:18:44Z</time>
      </trkpt>
      <trkpt lat="44.90275" lon="0.62027">
        <ele>81.4</ele>
        <time>2023-04-10T08:18:46Z</time>
      </trkpt>
      <trkpt lat="44.90272" lon="0.62016">
        <ele>81.6</ele>
        <time>2023-04-10T08:18:48Z</time>
      </trkpt>
      <trkpt lat="44.90269" lon="0.62005">
        <ele>81.8</ele>
        <time>2023-04-10T08:18:50Z</time>
      </trkpt>
      <trkpt lat="44.90269" lon="0.62">
        <ele>81.9</ele>
        <time>2023-04-10T08:18:51Z</time>
      </trkpt>
      <trkpt lat="44.90269" lon="0.61997">
        <ele>81.9</ele>
        <time>2023-04-10T08:18:52Z</time>
      </trkpt>
      <trkpt lat="44.90267" lon="0.61993">
        <ele>81.9</ele>
        <time>2023-04-10T08:18:53Z</time>
      </trkpt>
      <trkpt lat="44.90265" lon="0.61988">
        <ele>82</ele>
        <time>2023-04-10T08:18:54Z</time>
      </trkpt>
      <trkpt lat="44.90264" lon="0.61979">
        <ele>81.9</ele>
        <time>2023-04-10T08:18:56Z</time>
      </trkpt>
      <trkpt lat="44.90261" lon="0.61969">
        <ele>81.9</ele>
        <time>2023-04-10T08:18:58Z</time>
      </trkpt>
      <trkpt lat="44.90259" lon="0.61963">
        <ele>81.8</ele>
        <time>2023-04-10T08:18:59Z</time>
      </trkpt>
      <trkpt lat="44.90258" lon="0.61957">
        <ele>81.7</ele>
        <time>2023-04-10T08:19:00Z</time>
      </trkpt>
      <trkpt lat="44.90254" lon="0.61947">
        <ele>81.6</ele>
        <time>2023-04-10T08:19:02Z</time>
      </trkpt>
      <trkpt lat="44.90249" lon="0.61938">
        <ele>81.4</ele>
        <time>2023-04-10T08:19:04Z</time>
      </trkpt>
      <trkpt lat="44.90245" lon="0.61926">
        <ele>81.1</ele>
        <time>2023-04-10T08:19:06Z</time>
      </trkpt>
      <trkpt lat="44.9024" lon="0.61914">
        <ele>80.8</ele>
        <time>2023-04-10T08:19:08Z</time>
      </trkpt>
      <trkpt lat="44.90238" lon="0.61908">
        <ele>80.7</ele>
        <time>2023-04-10T08:19:09Z</time>
      </trkpt>
      <trkpt lat="44.90236" lon="0.61903">
        <ele>80.6</ele>
        <time>2023-04-10T08:19:10Z</time>
      </trkpt>
      <trkpt lat="44.90234" lon="0.61897">
        <ele>80.5</ele>
        <time>2023-04-10T08:19:11Z</time>
      </trkpt>
      <trkpt lat="44.90232" lon="0.61891">
        <ele>80.4</ele>
        <time>2023-04-10T08:19:12Z</time>
      </trkpt>
      <trkpt lat="44.90229" lon="0.61881">
        <ele>80.3</ele>
        <time>2023-04-10T08:19:14Z</time>
      </trkpt>
      <trkpt lat="44.90228" lon="0.61877">
        <ele>80.2</ele>
        <time>2023-04-10T08:19:15Z</time>
      </trkpt>
      <trkpt lat="44.90224" lon="0.61871">
        <ele>80.2</ele>
        <time>2023-04-10T08:19:16Z</time>
      </trkpt>
      <trkpt lat="44.90217" lon="0.61859">
        <ele>80</ele>
        <time>2023-04-10T08:19:18Z</time>
      </trkpt>
      <trkpt lat="44.9021" lon="0.61845">
        <ele>79.8</ele>
        <time>2023-04-10T08:19:20Z</time>
      </trkpt>
      <trkpt lat="44.90207" lon="0.6184">
        <ele>79.7</ele>
        <time>2023-04-10T08:19:21Z</time>
      </trkpt>
      <trkpt lat="44.90202" lon="0.61835">
        <ele>79.7</ele>
        <time>2023-04-10T08:19:22Z</time>
      </trkpt>
      <trkpt lat="44.90198" lon="0.61825">
        <ele>79.6</ele>
        <time>2023-04-10T08:19:24Z</time>
      </trkpt>
      <trkpt lat="44.90195" lon="0.61822">
        <ele>79.6</ele>
        <time>2023-04-10T08:19:25Z</time>
      </trkpt>
      <trkpt lat="44.9019" lon="0.61818">
        <ele>79.5</ele>
        <time>2023-04-10T08:19:26Z</time>
      </trkpt>
      <trkpt lat="44.90182" lon="0.61809">
        <ele>79.5</ele>
        <time>2023-04-10T08:19:28Z</time>
      </trkpt>
      <trkpt lat="44.90178" lon="0.61799">
        <ele>79.4</ele>
        <time>2023-04-10T08:19:30Z</time>
      </trkpt>
      <trkpt lat="44.90176" lon="0.61794">
        <ele>79.4</ele>
        <time>2023-04-10T08:19:31Z</time>
      </trkpt>
      <trkpt lat="44.90173" lon="0.6179">
        <ele>79.4</ele>
        <time>2023-04-10T08:19:32Z</time>
      </trkpt>
      <trkpt lat="44.90169" lon="0.61781">
        <ele>79.4</ele>
        <time>2023-04-10T08:19:34Z</time>
      </trkpt>
      <trkpt lat="44.90164" lon="0.61773">
        <ele>79.5</ele>
        <time>2023-04-10T08:19:36Z</time>
      </trkpt>
      <trkpt lat="44.90162" lon="0.61768">
        <ele>79.6</ele>
        <time>2023-04-10T08:19:37Z</time>
      </trkpt>
      <trkpt lat="44.9016" lon="0.61764">
        <ele>79.7</ele>
        <time>2023-04-10T08:19:38Z</time>
      </trkpt>
      <trkpt lat="44.90156" lon="0.61756">
        <ele>79.9</ele>
        <time>2023-04-10T08:19:40Z</time>
      </trkpt>
      <trkpt lat="44.90152" lon="0.61747">
        <ele>80.1</ele>
        <time>2023-04-10T08:19:42Z</time>
      </trkpt>
      <trkpt lat="44.9015" lon="0.61743">
        <ele>80.2</ele>
        <time>2023-04-10T08:19:43Z</time>
      </trkpt>
      <trkpt lat="44.90148" lon="0.61739">
        <ele>80.4</ele>
        <time>2023-04-10T08:19:44Z</time>
      </trkpt>
      <trkpt lat="44.90145" lon="0.61729">
        <ele>80.7</ele>
        <time>2023-04-10T08:19:46Z</time>
      </trkpt>
      <trkpt lat="44.90144" lon="0.61719">
        <ele>81.1</ele>
        <time>2023-04-10T08:19:48Z</time>
      </trkpt>
      <trkpt lat="44.90144" lon="0.61709">
        <ele>81.6</ele>
        <time>2023-04-10T08:19:50Z</time>
      </trkpt>
      <trkpt lat="44.90144" lon="0.61701">
        <ele>82</ele>
        <time>2023-04-10T08:19:52Z</time>
      </trkpt>
      <trkpt lat="44.90144" lon="0.61696">
        <ele>82.3</ele>
        <time>2023-04-10T08:19:53Z</time>
      </trkpt>
      <trkpt lat="44.90144" lon="0.61692">
        <ele>82.5</ele>
        <time>2023-04-10T08:19:54Z</time>
      </trkpt>
      <trkpt lat="44.90142" lon="0.61683">
        <ele>83</ele>
        <time>2023-04-10T08:19:56Z</time>
      </trkpt>
      <trkpt lat="44.90141" lon="0.61675">
        <ele>83.5</ele>
        <time>2023-04-10T08:19:58Z</time>
      </trkpt>
      <trkpt lat="44.9014" lon="0.61671">
        <ele>83.7</ele>
        <time>2023-04-10T08:19:59Z</time>
      </trkpt>
      <trkpt lat="44.9014" lon="0.61667">
        <ele>83.9</ele>
        <time>2023-04-10T08:20:00Z</time>
      </trkpt>
      <trkpt lat="44.90138" lon="0.61659">
        <ele>84.3</ele>
        <time>2023-04-10T08:20:02Z</time>
      </trkpt>
      <trkpt lat="44.90137" lon="0.6165">
        <ele>84.6</ele>
        <time>2023-04-10T08:20:04Z</time>
      </trkpt>
      <trkpt lat="44.90136" lon="0.61647">
        <ele>84.8</ele>
        <time>2023-04-10T08:20:05Z</time>
      </trkpt>
      <trkpt lat="44.90135" lon="0.61642">
        <ele>84.9</ele>
        <time>2023-04-10T08:20:06Z</time>
      </trkpt>
      <trkpt lat="44.90133" lon="0.61635">
        <ele>85.1</ele>
        <time>2023-04-10T08:20:08Z</time>
      </trkpt>
      <trkpt lat="44.90131" lon="0.61626">
        <ele>85.4</ele>
        <time>2023-04-10T08:20:10Z</time>
      </trkpt>
      <trkpt lat="44.9013" lon="0.61622">
        <ele>85.5</ele>
        <time>2023-04-10T08:20:11Z</time>
      </trkpt>
      <trkpt lat="44.90129" lon="0.61617">
        <ele>85.6</ele>
        <time>2023-04-10T08:20:12Z</time>
      </trkpt>
      <trkpt lat="44.90126" lon="0.61608">
        <ele>85.8</ele>
        <time>2023-04-10T08:20:14Z</time>
      </trkpt>
      <trkpt lat="44.90123" lon="0.61599">
        <ele>85.9</ele>
        <time>2023-04-10T08:20:16Z</time>
      </trkpt>
      <trkpt lat="44.9012" lon="0.6159">
        <ele>86.1</ele>
        <time>2023-04-10T08:20:18Z</time>
      </trkpt>
      <trkpt lat="44.90117" lon="0.61581">
        <ele>86.2</ele>
        <time>2023-04-10T08:20:20Z</time>
      </trkpt>
      <trkpt lat="44.90115" lon="0.61573">
        <ele>86.4</ele>
        <time>2023-04-10T08:20:22Z</time>
      </trkpt>
      <trkpt lat="44.90114" lon="0.6157">
        <ele>86.5</ele>
        <time>2023-04-10T08:20:23Z</time>
      </trkpt>
      <trkpt lat="44.90113" lon="0.61567">
        <ele>86.6</ele>
        <time>2023-04-10T08:20:24Z</time>
      </trkpt>
      <trkpt lat="44.90111" lon="0.6156">
        <ele>86.8</ele>
        <time>2023-04-10T08:20:26Z</time>
      </trkpt>
      <trkpt lat="44.9011" lon="0.61556">
        <ele>86.9</ele>
        <time>2023-04-10T08:20:27Z</time>
      </trkpt>
      <trkpt lat="44.90108" lon="0.61553">
        <ele>87</ele>
        <time>2023-04-10T08:20:28Z</time>
      </trkpt>
      <trkpt lat="44.90104" lon="0.6155">
        <ele>87.2</ele>
        <time>2023-04-10T08:20:30Z</time>
      </trkpt>
      <trkpt lat="44.901" lon="0.61548">
        <ele>87.4</ele>
        <time>2023-04-10T08:20:32Z</time>
      </trkpt>
      <trkpt lat="44.90098" lon="0.61546">
        <ele>87.5</ele>
        <time>2023-04-10T08:20:34Z</time>
      </trkpt>
      <trkpt lat="44.90096" lon="0.61546">
        <ele>87.6</ele>
        <time>2023-04-10T08:20:35Z</time>
      </trkpt>
      <trkpt lat="44.90094" lon="0.61544">
        <ele>87.7</ele>
        <time>2023-04-10T08:20:36Z</time>
      </trkpt>
      <trkpt lat="44.90091" lon="0.61542">
        <ele>87.9</ele>
        <time>2023-04-10T08:20:38Z</time>
      </trkpt>
      <trkpt lat="44.90089" lon="0.6154">
        <ele>88.1</ele>
        <time>2023-04-10T08:20:39Z</time>
      </trkpt>
      <trkpt lat="44.90087" lon="0.61539">
        <ele>88.2</ele>
        <time>2023-04-10T08:20:40Z</time>
      </trkpt>
      <trkpt lat="44.90084" lon="0.61537">
        <ele>88.5</ele>
        <time>2023-04-10T08:20:42Z</time>
      </trkpt>
      <trkpt lat="44.90083" lon="0.61535">
        <ele>88.6</ele>
        <time>2023-04-10T08:20:43Z</time>
      </trkpt>
      <trkpt lat="44.90082" lon="0.61534">
        <ele>88.7</ele>
        <time>2023-04-10T08:20:44Z</time>
      </trkpt>
      <trkpt lat="44.90079" lon="0.61532">
        <ele>88.9</ele>
        <time>2023-04-10T08:20:46Z</time>
      </trkpt>
      <trkpt lat="44.90077" lon="0.61531">
        <ele>89.1</ele>
        <time>2023-04-10T08:20:47Z</time>
      </trkpt>
      <trkpt lat="44.90075" lon="0.6153">
        <ele>89.2</ele>
        <time>2023-04-10T08:20:48Z</time>
      </trkpt>
      <trkpt lat="44.90072" lon="0.61527">
        <ele>89.5</ele>
        <time>2023-04-10T08:20:50Z</time>
      </trkpt>
      <trkpt lat="44.90069" lon="0.61525">
        <ele>89.7</ele>
        <time>2023-04-10T08:20:52Z</time>
      </trkpt>
      <trkpt lat="44.90066" lon="0.61523">
        <ele>89.9</ele>
        <time>2023-04-10T08:20:54Z</time>
      </trkpt>
      <trkpt lat="44.90062" lon="0.6152">
        <ele>90.2</ele>
        <time>2023-04-10T08:20:56Z</time>
      </trkpt>
      <trkpt lat="44.90058" lon="0.61517">
        <ele>90.5</ele>
        <time>2023-04-10T08:20:58Z</time>
      </trkpt>
      <trkpt lat="44.90057" lon="0.61517">
        <ele>90.5</ele>
        <time>2023-04-10T08:20:59Z</time>
      </trkpt>
      <trkpt lat="44.90055" lon="0.61515">
        <ele>90.6</ele>
        <time>2023-04-10T08:21:00Z</time>
      </trkpt>
      <trkpt lat="44.90053" lon="0.61514">
        <ele>90.7</ele>
        <time>2023-04-10T08:21:01Z</time>
      </trkpt>
      <trkpt lat="44.90052" lon="0.61513">
        <ele>90.8</ele>
        <time>2023-04-10T08:21:02Z</time>
      </trkpt>
      <trkpt lat="44.9005" lon="0.61512">
        <ele>90.9</ele>
        <time>2023-04-10T08:21:03Z</time>
      </trkpt>
      <trkpt lat="44.90049" lon="0.6151">
        <ele>91</ele>
        <time>2023-04-10T08:21:04Z</time>
      </trkpt>
      <trkpt lat="44.90046" lon="0.61508">
        <ele>91.1</ele>
        <time>2023-04-10T08:21:06Z</time>
      </trkpt>
      <trkpt lat="44.90044" lon="0.61509">
        <ele>91.2</ele>
        <time>2023-04-10T08:21:07Z</time>
      </trkpt>
      <trkpt lat="44.90041" lon="0.6151">
        <ele>91.3</ele>
        <time>2023-04-10T08:21:08Z</time>
      </trkpt>
      <trkpt lat="44.90035" lon="0.6151">
        <ele>91.1</ele>
        <time>2023-04-10T08:21:10Z</time>
      </trkpt>
      <trkpt lat="44.90031" lon="0.61511">
        <ele>90.6</ele>
        <time>2023-04-10T08:21:12Z</time>
      </trkpt>
      <trkpt lat="44.90024" lon="0.61512">
        <ele>90</ele>
        <time>2023-04-10T08:21:14Z</time>
      </trkpt>
      <trkpt lat="44.90019" lon="0.61514">
        <ele>89.4</ele>
        <time>2023-04-10T08:21:16Z</time>
      </trkpt>
      <trkpt lat="44.90015" lon="0.61517">
        <ele>88.9</ele>
        <time>2023-04-10T08:21:18Z</time>
      </trkpt>
      <trkpt lat="44.90012" lon="0.61519">
        <ele>88.6</ele>
        <time>2023-04-10T08:21:19Z</time>
      </trkpt>
      <trkpt lat="44.9001" lon="0.61521">
        <ele>88.3</ele>
        <time>2023-04-10T08:21:20Z</time>
      </trkpt>
      <trkpt lat="44.90006" lon="0.61526">
        <ele>87.7</ele>
        <time>2023-04-10T08:21:22Z</time>
      </trkpt>
      <trkpt lat="44.90006" lon="0.6153">
        <ele>87.4</ele>
        <time>2023-04-10T08:21:23Z</time>
      </trkpt>
      <trkpt lat="44.90006" lon="0.61533">
        <ele>87.1</ele>
        <time>2023-04-10T08:21:24Z</time>
      </trkpt>
      <trkpt lat="44.90002" lon="0.61538">
        <ele>86.6</ele>
        <time>2023-04-10T08:21:26Z</time>
      </trkpt>
      <trkpt lat="44.89999" lon="0.6154">
        <ele>86.2</ele>
        <time>2023-04-10T08:21:30Z</time>
      </trkpt>
      <trkpt lat="44.89995" lon="0.61543">
        <ele>85.8</ele>
        <time>2023-04-10T08:21:31Z</time>
      </trkpt>
      <trkpt lat="44.89992" lon="0.61546">
        <ele>85.4</ele>
        <time>2023-04-10T08:21:32Z</time>
      </trkpt>
      <trkpt lat="44.89987" lon="0.61552">
        <ele>84.7</ele>
        <time>2023-04-10T08:21:34Z</time>
      </trkpt>
      <trkpt lat="44.89985" lon="0.61554">
        <ele>84.5</ele>
        <time>2023-04-10T08:21:35Z</time>
      </trkpt>
      <trkpt lat="44.89983" lon="0.61556">
        <ele>84.2</ele>
        <time>2023-04-10T08:21:36Z</time>
      </trkpt>
      <trkpt lat="44.89978" lon="0.61559">
        <ele>83.6</ele>
        <time>2023-04-10T08:21:38Z</time>
      </trkpt>
      <trkpt lat="44.89976" lon="0.61563">
        <ele>83.3</ele>
        <time>2023-04-10T08:21:39Z</time>
      </trkpt>
      <trkpt lat="44.89974" lon="0.61565">
        <ele>83</ele>
        <time>2023-04-10T08:21:40Z</time>
      </trkpt>
      <trkpt lat="44.8997" lon="0.61574">
        <ele>82.2</ele>
        <time>2023-04-10T08:21:42Z</time>
      </trkpt>
      <trkpt lat="44.89967" lon="0.61577">
        <ele>81.8</ele>
        <time>2023-04-10T08:21:43Z</time>
      </trkpt>
      <trkpt lat="44.89963" lon="0.61579">
        <ele>81.3</ele>
        <time>2023-04-10T08:21:44Z</time>
      </trkpt>
      <trkpt lat="44.89955" lon="0.61581">
        <ele>80.3</ele>
        <time>2023-04-10T08:21:46Z</time>
      </trkpt>
      <trkpt lat="44.89948" lon="0.61579">
        <ele>79.4</ele>
        <time>2023-04-10T08:21:48Z</time>
      </trkpt>
      <trkpt lat="44.89946" lon="0.61579">
        <ele>79.2</ele>
        <time>2023-04-10T08:21:49Z</time>
      </trkpt>
      <trkpt lat="44.89944" lon="0.61579">
        <ele>79</ele>
        <time>2023-04-10T08:21:50Z</time>
      </trkpt>
      <trkpt lat="44.89943" lon="0.61582">
        <ele>78.6</ele>
        <time>2023-04-10T08:21:52Z</time>
      </trkpt>
      <trkpt lat="44.89942" lon="0.61584">
        <ele>78.4</ele>
        <time>2023-04-10T08:21:53Z</time>
      </trkpt>
      <trkpt lat="44.89941" lon="0.61586">
        <ele>78.2</ele>
        <time>2023-04-10T08:21:54Z</time>
      </trkpt>
      <trkpt lat="44.8994" lon="0.61587">
        <ele>78</ele>
        <time>2023-04-10T08:21:55Z</time>
      </trkpt>
      <trkpt lat="44.89938" lon="0.61588">
        <ele>77.7</ele>
        <time>2023-04-10T08:21:56Z</time>
      </trkpt>
      <trkpt lat="44.89935" lon="0.61588">
        <ele>77.4</ele>
        <time>2023-04-10T08:21:57Z</time>
      </trkpt>
      <trkpt lat="44.89933" lon="0.61588">
        <ele>77.1</ele>
        <time>2023-04-10T08:21:58Z</time>
      </trkpt>
      <trkpt lat="44.89927" lon="0.61585">
        <ele>76.3</ele>
        <time>2023-04-10T08:22:00Z</time>
      </trkpt>
      <trkpt lat="44.89925" lon="0.61582">
        <ele>75.9</ele>
        <time>2023-04-10T08:22:01Z</time>
      </trkpt>
      <trkpt lat="44.89922" lon="0.6158">
        <ele>75.6</ele>
        <time>2023-04-10T08:22:02Z</time>
      </trkpt>
      <trkpt lat="44.89916" lon="0.61576">
        <ele>74.7</ele>
        <time>2023-04-10T08:22:04Z</time>
      </trkpt>
      <trkpt lat="44.89909" lon="0.61571">
        <ele>73.8</ele>
        <time>2023-04-10T08:22:06Z</time>
      </trkpt>
      <trkpt lat="44.89902" lon="0.61566">
        <ele>73.1</ele>
        <time>2023-04-10T08:22:08Z</time>
      </trkpt>
      <trkpt lat="44.89898" lon="0.61563">
        <ele>72.8</ele>
        <time>2023-04-10T08:22:09Z</time>
      </trkpt>
      <trkpt lat="44.89893" lon="0.61561">
        <ele>72.5</ele>
        <time>2023-04-10T08:22:10Z</time>
      </trkpt>
      <trkpt lat="44.89889" lon="0.61562">
        <ele>72.4</ele>
        <time>2023-04-10T08:22:11Z</time>
      </trkpt>
      <trkpt lat="44.89885" lon="0.61565">
        <ele>72.2</ele>
        <time>2023-04-10T08:22:12Z</time>
      </trkpt>
      <trkpt lat="44.89881" lon="0.6157">
        <ele>72.1</ele>
        <time>2023-04-10T08:22:13Z</time>
      </trkpt>
      <trkpt lat="44.89878" lon="0.61574">
        <ele>71.9</ele>
        <time>2023-04-10T08:22:14Z</time>
      </trkpt>
      <trkpt lat="44.89871" lon="0.61583">
        <ele>71.7</ele>
        <time>2023-04-10T08:22:16Z</time>
      </trkpt>
      <trkpt lat="44.89867" lon="0.61587">
        <ele>71.6</ele>
        <time>2023-04-10T08:22:17Z</time>
      </trkpt>
      <trkpt lat="44.89862" lon="0.61591">
        <ele>71.5</ele>
        <time>2023-04-10T08:22:18Z</time>
      </trkpt>
      <trkpt lat="44.89858" lon="0.61594">
        <ele>71.4</ele>
        <time>2023-04-10T08:22:19Z</time>
      </trkpt>
      <trkpt lat="44.89854" lon="0.61598">
        <ele>71.4</ele>
        <time>2023-04-10T08:22:20Z</time>
      </trkpt>
      <trkpt lat="44.89851" lon="0.61602">
        <ele>71.3</ele>
        <time>2023-04-10T08:22:21Z</time>
      </trkpt>
      <trkpt lat="44.89848" lon="0.61607">
        <ele>71.3</ele>
        <time>2023-04-10T08:22:22Z</time>
      </trkpt>
      <trkpt lat="44.89843" lon="0.61612">
        <ele>71.2</ele>
        <time>2023-04-10T08:22:23Z</time>
      </trkpt>
      <trkpt lat="44.89838" lon="0.61616">
        <ele>71.1</ele>
        <time>2023-04-10T08:22:24Z</time>
      </trkpt>
      <trkpt lat="44.89834" lon="0.6162">
        <ele>71.1</ele>
        <time>2023-04-10T08:22:25Z</time>
      </trkpt>
      <trkpt lat="44.8983" lon="0.61624">
        <ele>71.2</ele>
        <time>2023-04-10T08:22:26Z</time>
      </trkpt>
      <trkpt lat="44.89822" lon="0.61632">
        <ele>71.2</ele>
        <time>2023-04-10T08:22:28Z</time>
      </trkpt>
      <trkpt lat="44.89815" lon="0.61638">
        <ele>71.4</ele>
        <time>2023-04-10T08:22:30Z</time>
      </trkpt>
      <trkpt lat="44.89807" lon="0.61646">
        <ele>71.6</ele>
        <time>2023-04-10T08:22:32Z</time>
      </trkpt>
      <trkpt lat="44.898" lon="0.61654">
        <ele>71.8</ele>
        <time>2023-04-10T08:22:34Z</time>
      </trkpt>
      <trkpt lat="44.89796" lon="0.61658">
        <ele>71.9</ele>
        <time>2023-04-10T08:22:35Z</time>
      </trkpt>
      <trkpt lat="44.89793" lon="0.61662">
        <ele>72.1</ele>
        <time>2023-04-10T08:22:36Z</time>
      </trkpt>
      <trkpt lat="44.89787" lon="0.6167">
        <ele>72.3</ele>
        <time>2023-04-10T08:22:38Z</time>
      </trkpt>
      <trkpt lat="44.89781" lon="0.61679">
        <ele>72.5</ele>
        <time>2023-04-10T08:22:40Z</time>
      </trkpt>
      <trkpt lat="44.89777" lon="0.61688">
        <ele>72.8</ele>
        <time>2023-04-10T08:22:42Z</time>
      </trkpt>
      <trkpt lat="44.89775" lon="0.61697">
        <ele>73.1</ele>
        <time>2023-04-10T08:22:44Z</time>
      </trkpt>
      <trkpt lat="44.89771" lon="0.61705">
        <ele>73.4</ele>
        <time>2023-04-10T08:22:46Z</time>
      </trkpt>
      <trkpt lat="44.89767" lon="0.61712">
        <ele>73.7</ele>
        <time>2023-04-10T08:22:48Z</time>
      </trkpt>
      <trkpt lat="44.89762" lon="0.61719">
        <ele>74.1</ele>
        <time>2023-04-10T08:22:50Z</time>
      </trkpt>
      <trkpt lat="44.89759" lon="0.61726">
        <ele>74.4</ele>
        <time>2023-04-10T08:22:52Z</time>
      </trkpt>
      <trkpt lat="44.89754" lon="0.61732">
        <ele>74.8</ele>
        <time>2023-04-10T08:22:54Z</time>
      </trkpt>
      <trkpt lat="44.8975" lon="0.61737">
        <ele>75.1</ele>
        <time>2023-04-10T08:22:56Z</time>
      </trkpt>
      <trkpt lat="44.89746" lon="0.6174">
        <ele>75.4</ele>
        <time>2023-04-10T08:22:58Z</time>
      </trkpt>
      <trkpt lat="44.89741" lon="0.61742">
        <ele>75.8</ele>
        <time>2023-04-10T08:23:00Z</time>
      </trkpt>
      <trkpt lat="44.89737" lon="0.61744">
        <ele>76.2</ele>
        <time>2023-04-10T08:23:02Z</time>
      </trkpt>
      <trkpt lat="44.89732" lon="0.61746">
        <ele>76.6</ele>
        <time>2023-04-10T08:23:04Z</time>
      </trkpt>
      <trkpt lat="44.89727" lon="0.61745">
        <ele>77</ele>
        <time>2023-04-10T08:23:06Z</time>
      </trkpt>
      <trkpt lat="44.89723" lon="0.61743">
        <ele>77.4</ele>
        <time>2023-04-10T08:23:08Z</time>
      </trkpt>
      <trkpt lat="44.8972" lon="0.61742">
        <ele>77.6</ele>
        <time>2023-04-10T08:23:09Z</time>
      </trkpt>
      <trkpt lat="44.89719" lon="0.6174">
        <ele>77.7</ele>
        <time>2023-04-10T08:23:10Z</time>
      </trkpt>
      <trkpt lat="44.89715" lon="0.61738">
        <ele>78.1</ele>
        <time>2023-04-10T08:23:12Z</time>
      </trkpt>
      <trkpt lat="44.89711" lon="0.61734">
        <ele>78.4</ele>
        <time>2023-04-10T08:23:14Z</time>
      </trkpt>
      <trkpt lat="44.89707" lon="0.6173">
        <ele>78.7</ele>
        <time>2023-04-10T08:23:16Z</time>
      </trkpt>
      <trkpt lat="44.89703" lon="0.61727">
        <ele>79</ele>
        <time>2023-04-10T08:23:18Z</time>
      </trkpt>
      <trkpt lat="44.89701" lon="0.61725">
        <ele>79.1</ele>
        <time>2023-04-10T08:23:19Z</time>
      </trkpt>
      <trkpt lat="44.897" lon="0.61723">
        <ele>79.1</ele>
        <time>2023-04-10T08:23:20Z</time>
      </trkpt>
      <trkpt lat="44.89696" lon="0.6172">
        <ele>79.3</ele>
        <time>2023-04-10T08:23:22Z</time>
      </trkpt>
      <trkpt lat="44.89693" lon="0.61716">
        <ele>79.5</ele>
        <time>2023-04-10T08:23:24Z</time>
      </trkpt>
      <trkpt lat="44.89689" lon="0.61711">
        <ele>79.6</ele>
        <time>2023-04-10T08:23:26Z</time>
      </trkpt>
      <trkpt lat="44.89688" lon="0.61708">
        <ele>79.7</ele>
        <time>2023-04-10T08:23:27Z</time>
      </trkpt>
      <trkpt lat="44.89687" lon="0.61705">
        <ele>79.8</ele>
        <time>2023-04-10T08:23:28Z</time>
      </trkpt>
      <trkpt lat="44.89684" lon="0.61701">
        <ele>80</ele>
        <time>2023-04-10T08:23:30Z</time>
      </trkpt>
      <trkpt lat="44.89682" lon="0.61698">
        <ele>80.1</ele>
        <time>2023-04-10T08:23:31Z</time>
      </trkpt>
      <trkpt lat="44.89681" lon="0.61696">
        <ele>80.1</ele>
        <time>2023-04-10T08:23:32Z</time>
      </trkpt>
      <trkpt lat="44.89679" lon="0.61691">
        <ele>80.3</ele>
        <time>2023-04-10T08:23:34Z</time>
      </trkpt>
      <trkpt lat="44.89677" lon="0.61689">
        <ele>80.4</ele>
        <time>2023-04-10T08:23:35Z</time>
      </trkpt>
      <trkpt lat="44.89676" lon="0.61686">
        <ele>80.5</ele>
        <time>2023-04-10T08:23:36Z</time>
      </trkpt>
      <trkpt lat="44.89674" lon="0.61681">
        <ele>80.7</ele>
        <time>2023-04-10T08:23:38Z</time>
      </trkpt>
      <trkpt lat="44.89672" lon="0.61678">
        <ele>80.8</ele>
        <time>2023-04-10T08:23:39Z</time>
      </trkpt>
      <trkpt lat="44.89672" lon="0.61675">
        <ele>80.9</ele>
        <time>2023-04-10T08:23:40Z</time>
      </trkpt>
      <trkpt lat="44.89671" lon="0.6167">
        <ele>81</ele>
        <time>2023-04-10T08:23:42Z</time>
      </trkpt>
      <trkpt lat="44.89671" lon="0.61667">
        <ele>81.1</ele>
        <time>2023-04-10T08:23:43Z</time>
      </trkpt>
      <trkpt lat="44.89671" lon="0.61667">
        <ele>81.1</ele>
        <time>2023-04-10T08:23:44Z</time>
      </trkpt>
      <trkpt lat="44.89669" lon="0.61659">
        <ele>81.3</ele>
        <time>2023-04-10T08:23:46Z</time>
      </trkpt>
      <trkpt lat="44.89666" lon="0.61651">
        <ele>81.5</ele>
        <time>2023-04-10T08:23:48Z</time>
      </trkpt>
      <trkpt lat="44.89665" lon="0.61648">
        <ele>81.5</ele>
        <time>2023-04-10T08:23:49Z</time>
      </trkpt>
      <trkpt lat="44.89665" lon="0.61645">
        <ele>81.6</ele>
        <time>2023-04-10T08:23:50Z</time>
      </trkpt>
      <trkpt lat="44.89664" lon="0.6164">
        <ele>81.7</ele>
        <time>2023-04-10T08:23:51Z</time>
      </trkpt>
      <trkpt lat="44.89663" lon="0.61636">
        <ele>81.7</ele>
        <time>2023-04-10T08:23:52Z</time>
      </trkpt>
      <trkpt lat="44.89661" lon="0.61631">
        <ele>81.8</ele>
        <time>2023-04-10T08:23:53Z</time>
      </trkpt>
      <trkpt lat="44.89662" lon="0.61627">
        <ele>81.8</ele>
        <time>2023-04-10T08:23:54Z</time>
      </trkpt>
      <trkpt lat="44.89663" lon="0.61615">
        <ele>81.8</ele>
        <time>2023-04-10T08:23:56Z</time>
      </trkpt>
      <trkpt lat="44.89663" lon="0.61604">
        <ele>81.8</ele>
        <time>2023-04-10T08:23:58Z</time>
      </trkpt>
      <trkpt lat="44.89663" lon="0.61591">
        <ele>81.7</ele>
        <time>2023-04-10T08:24:00Z</time>
      </trkpt>
      <trkpt lat="44.89662" lon="0.61584">
        <ele>81.7</ele>
        <time>2023-04-10T08:24:01Z</time>
      </trkpt>
      <trkpt lat="44.89663" lon="0.61577">
        <ele>81.7</ele>
        <time>2023-04-10T08:24:02Z</time>
      </trkpt>
      <trkpt lat="44.89663" lon="0.61564">
        <ele>81.7</ele>
        <time>2023-04-10T08:24:04Z</time>
      </trkpt>
      <trkpt lat="44.89663" lon="0.61558">
        <ele>81.7</ele>
        <time>2023-04-10T08:24:05Z</time>
      </trkpt>
      <trkpt lat="44.89663" lon="0.61552">
        <ele>81.8</ele>
        <time>2023-04-10T08:24:06Z</time>
      </trkpt>
      <trkpt lat="44.89661" lon="0.61542">
        <ele>81.9</ele>
        <time>2023-04-10T08:24:08Z</time>
      </trkpt>
      <trkpt lat="44.8966" lon="0.61537">
        <ele>81.9</ele>
        <time>2023-04-10T08:24:09Z</time>
      </trkpt>
      <trkpt lat="44.89659" lon="0.61532">
        <ele>82</ele>
        <time>2023-04-10T08:24:10Z</time>
      </trkpt>
      <trkpt lat="44.89659" lon="0.61527">
        <ele>82.1</ele>
        <time>2023-04-10T08:24:11Z</time>
      </trkpt>
      <trkpt lat="44.89659" lon="0.61521">
        <ele>82.3</ele>
        <time>2023-04-10T08:24:12Z</time>
      </trkpt>
      <trkpt lat="44.89659" lon="0.61517">
        <ele>82.4</ele>
        <time>2023-04-10T08:24:13Z</time>
      </trkpt>
      <trkpt lat="44.89659" lon="0.61513">
        <ele>82.5</ele>
        <time>2023-04-10T08:24:14Z</time>
      </trkpt>
      <trkpt lat="44.89658" lon="0.61508">
        <ele>82.7</ele>
        <time>2023-04-10T08:24:15Z</time>
      </trkpt>
      <trkpt lat="44.89658" lon="0.61503">
        <ele>82.9</ele>
        <time>2023-04-10T08:24:16Z</time>
      </trkpt>
      <trkpt lat="44.89657" lon="0.61499">
        <ele>83.1</ele>
        <time>2023-04-10T08:24:17Z</time>
      </trkpt>
      <trkpt lat="44.89657" lon="0.61495">
        <ele>83.2</ele>
        <time>2023-04-10T08:24:18Z</time>
      </trkpt>
      <trkpt lat="44.89657" lon="0.6149">
        <ele>83.4</ele>
        <time>2023-04-10T08:24:19Z</time>
      </trkpt>
      <trkpt lat="44.89656" lon="0.61485">
        <ele>83.6</ele>
        <time>2023-04-10T08:24:20Z</time>
      </trkpt>
      <trkpt lat="44.89656" lon="0.61481">
        <ele>83.8</ele>
        <time>2023-04-10T08:24:21Z</time>
      </trkpt>
      <trkpt lat="44.89655" lon="0.61476">
        <ele>83.9</ele>
        <time>2023-04-10T08:24:22Z</time>
      </trkpt>
      <trkpt lat="44.89655" lon="0.61466">
        <ele>84.2</ele>
        <time>2023-04-10T08:24:24Z</time>
      </trkpt>
      <trkpt lat="44.89655" lon="0.61462">
        <ele>84.4</ele>
        <time>2023-04-10T08:24:25Z</time>
      </trkpt>
      <trkpt lat="44.89655" lon="0.61457">
        <ele>84.5</ele>
        <time>2023-04-10T08:24:26Z</time>
      </trkpt>
      <trkpt lat="44.89654" lon="0.61452">
        <ele>84.6</ele>
        <time>2023-04-10T08:24:27Z</time>
      </trkpt>
      <trkpt lat="44.89653" lon="0.61447">
        <ele>84.7</ele>
        <time>2023-04-10T08:24:28Z</time>
      </trkpt>
      <trkpt lat="44.89652" lon="0.61441">
        <ele>84.8</ele>
        <time>2023-04-10T08:24:29Z</time>
      </trkpt>
      <trkpt lat="44.89652" lon="0.61434">
        <ele>84.9</ele>
        <time>2023-04-10T08:24:30Z</time>
      </trkpt>
      <trkpt lat="44.89652" lon="0.61423">
        <ele>85</ele>
        <time>2023-04-10T08:24:32Z</time>
      </trkpt>
      <trkpt lat="44.89652" lon="0.61418">
        <ele>85</ele>
        <time>2023-04-10T08:24:33Z</time>
      </trkpt>
      <trkpt lat="44.89651" lon="0.61413">
        <ele>85</ele>
        <time>2023-04-10T08:24:34Z</time>
      </trkpt>
      <trkpt lat="44.89651" lon="0.61403">
        <ele>85</ele>
        <time>2023-04-10T08:24:36Z</time>
      </trkpt>
      <trkpt lat="44.89652" lon="0.61398">
        <ele>85</ele>
        <time>2023-04-10T08:24:37Z</time>
      </trkpt>
      <trkpt lat="44.89653" lon="0.61395">
        <ele>85</ele>
        <time>2023-04-10T08:24:38Z</time>
      </trkpt>
      <trkpt lat="44.89652" lon="0.61383">
        <ele>84.9</ele>
        <time>2023-04-10T08:24:40Z</time>
      </trkpt>
      <trkpt lat="44.89652" lon="0.61376">
        <ele>84.9</ele>
        <time>2023-04-10T08:24:41Z</time>
      </trkpt>
      <trkpt lat="44.89653" lon="0.61369">
        <ele>84.8</ele>
        <time>2023-04-10T08:24:42Z</time>
      </trkpt>
      <trkpt lat="44.89654" lon="0.61355">
        <ele>84.7</ele>
        <time>2023-04-10T08:24:44Z</time>
      </trkpt>
      <trkpt lat="44.89654" lon="0.61348">
        <ele>84.7</ele>
        <time>2023-04-10T08:24:45Z</time>
      </trkpt>
      <trkpt lat="44.89655" lon="0.61342">
        <ele>84.7</ele>
        <time>2023-04-10T08:24:46Z</time>
      </trkpt>
      <trkpt lat="44.89655" lon="0.61329">
        <ele>84.6</ele>
        <time>2023-04-10T08:24:48Z</time>
      </trkpt>
      <trkpt lat="44.89653" lon="0.61322">
        <ele>84.6</ele>
        <time>2023-04-10T08:24:49Z</time>
      </trkpt>
      <trkpt lat="44.89651" lon="0.61315">
        <ele>84.6</ele>
        <time>2023-04-10T08:24:50Z</time>
      </trkpt>
      <trkpt lat="44.89651" lon="0.61309">
        <ele>84.6</ele>
        <time>2023-04-10T08:24:51Z</time>
      </trkpt>
      <trkpt lat="44.89652" lon="0.61302">
        <ele>84.6</ele>
        <time>2023-04-10T08:24:52Z</time>
      </trkpt>
      <trkpt lat="44.89653" lon="0.61295">
        <ele>84.6</ele>
        <time>2023-04-10T08:24:53Z</time>
      </trkpt>
      <trkpt lat="44.89655" lon="0.61288">
        <ele>84.5</ele>
        <time>2023-04-10T08:24:54Z</time>
      </trkpt>
      <trkpt lat="44.89656" lon="0.61276">
        <ele>84.5</ele>
        <time>2023-04-10T08:24:56Z</time>
      </trkpt>
      <trkpt lat="44.89656" lon="0.61269">
        <ele>84.5</ele>
        <time>2023-04-10T08:24:57Z</time>
      </trkpt>
      <trkpt lat="44.89656" lon="0.61263">
        <ele>84.4</ele>
        <time>2023-04-10T08:24:58Z</time>
      </trkpt>
      <trkpt lat="44.89655" lon="0.61252">
        <ele>84.4</ele>
        <time>2023-04-10T08:25:00Z</time>
      </trkpt>
      <trkpt lat="44.89656" lon="0.61246">
        <ele>84.4</ele>
        <time>2023-04-10T08:25:01Z</time>
      </trkpt>
      <trkpt lat="44.89655" lon="0.6124">
        <ele>84.4</ele>
        <time>2023-04-10T08:25:02Z</time>
      </trkpt>
      <trkpt lat="44.89654" lon="0.61227">
        <ele>84.3</ele>
        <time>2023-04-10T08:25:04Z</time>
      </trkpt>
      <trkpt lat="44.89653" lon="0.61212">
        <ele>84.2</ele>
        <time>2023-04-10T08:25:06Z</time>
      </trkpt>
      <trkpt lat="44.8965" lon="0.61205">
        <ele>84.2</ele>
        <time>2023-04-10T08:25:07Z</time>
      </trkpt>
      <trkpt lat="44.89648" lon="0.61198">
        <ele>84.1</ele>
        <time>2023-04-10T08:25:08Z</time>
      </trkpt>
      <trkpt lat="44.89645" lon="0.61185">
        <ele>84</ele>
        <time>2023-04-10T08:25:10Z</time>
      </trkpt>
      <trkpt lat="44.89644" lon="0.61178">
        <ele>83.9</ele>
        <time>2023-04-10T08:25:11Z</time>
      </trkpt>
      <trkpt lat="44.89643" lon="0.61171">
        <ele>83.8</ele>
        <time>2023-04-10T08:25:12Z</time>
      </trkpt>
      <trkpt lat="44.89642" lon="0.61165">
        <ele>83.6</ele>
        <time>2023-04-10T08:25:13Z</time>
      </trkpt>
      <trkpt lat="44.89641" lon="0.61158">
        <ele>83.4</ele>
        <time>2023-04-10T08:25:14Z</time>
      </trkpt>
      <trkpt lat="44.89635" lon="0.61146">
        <ele>82.8</ele>
        <time>2023-04-10T08:25:16Z</time>
      </trkpt>
      <trkpt lat="44.89632" lon="0.6114">
        <ele>82.5</ele>
        <time>2023-04-10T08:25:17Z</time>
      </trkpt>
      <trkpt lat="44.89629" lon="0.61134">
        <ele>82.2</ele>
        <time>2023-04-10T08:25:18Z</time>
      </trkpt>
      <trkpt lat="44.89623" lon="0.61124">
        <ele>81.9</ele>
        <time>2023-04-10T08:25:20Z</time>
      </trkpt>
      <trkpt lat="44.89616" lon="0.61114">
        <ele>81.4</ele>
        <time>2023-04-10T08:25:22Z</time>
      </trkpt>
      <trkpt lat="44.8961" lon="0.61101">
        <ele>81</ele>
        <time>2023-04-10T08:25:24Z</time>
      </trkpt>
      <trkpt lat="44.89602" lon="0.61086">
        <ele>80.4</ele>
        <time>2023-04-10T08:25:26Z</time>
      </trkpt>
      <trkpt lat="44.89594" lon="0.61074">
        <ele>79.9</ele>
        <time>2023-04-10T08:25:28Z</time>
      </trkpt>
      <trkpt lat="44.89586" lon="0.61061">
        <ele>79.3</ele>
        <time>2023-04-10T08:25:30Z</time>
      </trkpt>
      <trkpt lat="44.89576" lon="0.61047">
        <ele>78.5</ele>
        <time>2023-04-10T08:25:32Z</time>
      </trkpt>
      <trkpt lat="44.89571" lon="0.61042">
        <ele>78.1</ele>
        <time>2023-04-10T08:25:33Z</time>
      </trkpt>
      <trkpt lat="44.89565" lon="0.61037">
        <ele>77.7</ele>
        <time>2023-04-10T08:25:34Z</time>
      </trkpt>
      <trkpt lat="44.89561" lon="0.61032">
        <ele>77.3</ele>
        <time>2023-04-10T08:25:35Z</time>
      </trkpt>
      <trkpt lat="44.89556" lon="0.61027">
        <ele>77</ele>
        <time>2023-04-10T08:25:36Z</time>
      </trkpt>
      <trkpt lat="44.89552" lon="0.61023">
        <ele>76.6</ele>
        <time>2023-04-10T08:25:37Z</time>
      </trkpt>
      <trkpt lat="44.89548" lon="0.61018">
        <ele>76.2</ele>
        <time>2023-04-10T08:25:38Z</time>
      </trkpt>
      <trkpt lat="44.89536" lon="0.61008">
        <ele>75.4</ele>
        <time>2023-04-10T08:25:40Z</time>
      </trkpt>
      <trkpt lat="44.89523" lon="0.61001">
        <ele>74.8</ele>
        <time>2023-04-10T08:25:42Z</time>
      </trkpt>
      <trkpt lat="44.89508" lon="0.60994">
        <ele>74.6</ele>
        <time>2023-04-10T08:25:44Z</time>
      </trkpt>
      <trkpt lat="44.89495" lon="0.60989">
        <ele>74.3</ele>
        <time>2023-04-10T08:25:46Z</time>
      </trkpt>
      <trkpt lat="44.89481" lon="0.60985">
        <ele>74.1</ele>
        <time>2023-04-10T08:25:48Z</time>
      </trkpt>
      <trkpt lat="44.89475" lon="0.60984">
        <ele>74</ele>
        <time>2023-04-10T08:25:49Z</time>
      </trkpt>
      <trkpt lat="44.89468" lon="0.60982">
        <ele>74</ele>
        <time>2023-04-10T08:25:50Z</time>
      </trkpt>
      <trkpt lat="44.89456" lon="0.6098">
        <ele>73.8</ele>
        <time>2023-04-10T08:25:52Z</time>
      </trkpt>
      <trkpt lat="44.89442" lon="0.60977">
        <ele>73.4</ele>
        <time>2023-04-10T08:25:54Z</time>
      </trkpt>
      <trkpt lat="44.89428" lon="0.60973">
        <ele>72.7</ele>
        <time>2023-04-10T08:25:56Z</time>
      </trkpt>
      <trkpt lat="44.89421" lon="0.60972">
        <ele>72.3</ele>
        <time>2023-04-10T08:25:57Z</time>
      </trkpt>
      <trkpt lat="44.89414" lon="0.60972">
        <ele>71.9</ele>
        <time>2023-04-10T08:25:58Z</time>
      </trkpt>
      <trkpt lat="44.89406" lon="0.60974">
        <ele>71.6</ele>
        <time>2023-04-10T08:25:59Z</time>
      </trkpt>
      <trkpt lat="44.89399" lon="0.60977">
        <ele>71.4</ele>
        <time>2023-04-10T08:26:00Z</time>
      </trkpt>
      <trkpt lat="44.89385" lon="0.60982">
        <ele>71.1</ele>
        <time>2023-04-10T08:26:02Z</time>
      </trkpt>
      <trkpt lat="44.89378" lon="0.60983">
        <ele>71</ele>
        <time>2023-04-10T08:26:03Z</time>
      </trkpt>
      <trkpt lat="44.89371" lon="0.60983">
        <ele>70.9</ele>
        <time>2023-04-10T08:26:04Z</time>
      </trkpt>
      <trkpt lat="44.89365" lon="0.60981">
        <ele>70.9</ele>
        <time>2023-04-10T08:26:05Z</time>
      </trkpt>
      <trkpt lat="44.89359" lon="0.60978">
        <ele>71</ele>
        <time>2023-04-10T08:26:06Z</time>
      </trkpt>
      <trkpt lat="44.89354" lon="0.60973">
        <ele>71.1</ele>
        <time>2023-04-10T08:26:07Z</time>
      </trkpt>
      <trkpt lat="44.8935" lon="0.60967">
        <ele>71.3</ele>
        <time>2023-04-10T08:26:08Z</time>
      </trkpt>
      <trkpt lat="44.89346" lon="0.60961">
        <ele>71.5</ele>
        <time>2023-04-10T08:26:09Z</time>
      </trkpt>
      <trkpt lat="44.89343" lon="0.60955">
        <ele>71.8</ele>
        <time>2023-04-10T08:26:10Z</time>
      </trkpt>
      <trkpt lat="44.89336" lon="0.60944">
        <ele>72.5</ele>
        <time>2023-04-10T08:26:12Z</time>
      </trkpt>
      <trkpt lat="44.89331" lon="0.60935">
        <ele>73</ele>
        <time>2023-04-10T08:26:14Z</time>
      </trkpt>
      <trkpt lat="44.89331" lon="0.60931">
        <ele>73</ele>
        <time>2023-04-10T08:26:15Z</time>
      </trkpt>
      <trkpt lat="44.89331" lon="0.60926">
        <ele>72.8</ele>
        <time>2023-04-10T08:26:16Z</time>
      </trkpt>
      <trkpt lat="44.89337" lon="0.60914">
        <ele>72.2</ele>
        <time>2023-04-10T08:26:18Z</time>
      </trkpt>
      <trkpt lat="44.8934" lon="0.60908">
        <ele>71.8</ele>
        <time>2023-04-10T08:26:19Z</time>
      </trkpt>
      <trkpt lat="44.89344" lon="0.60901">
        <ele>71.5</ele>
        <time>2023-04-10T08:26:20Z</time>
      </trkpt>
      <trkpt lat="44.8935" lon="0.60885">
        <ele>70.9</ele>
        <time>2023-04-10T08:26:22Z</time>
      </trkpt>
      <trkpt lat="44.89357" lon="0.6087">
        <ele>70.4</ele>
        <time>2023-04-10T08:26:24Z</time>
      </trkpt>
      <trkpt lat="44.89364" lon="0.60855">
        <ele>70</ele>
        <time>2023-04-10T08:26:26Z</time>
      </trkpt>
      <trkpt lat="44.89372" lon="0.60841">
        <ele>69.7</ele>
        <time>2023-04-10T08:26:28Z</time>
      </trkpt>
      <trkpt lat="44.89376" lon="0.60833">
        <ele>69.5</ele>
        <time>2023-04-10T08:26:29Z</time>
      </trkpt>
      <trkpt lat="44.8938" lon="0.60825">
        <ele>69.4</ele>
        <time>2023-04-10T08:26:30Z</time>
      </trkpt>
      <trkpt lat="44.89387" lon="0.6081">
        <ele>69.1</ele>
        <time>2023-04-10T08:26:32Z</time>
      </trkpt>
      <trkpt lat="44.89394" lon="0.60796">
        <ele>69</ele>
        <time>2023-04-10T08:26:34Z</time>
      </trkpt>
      <trkpt lat="44.894" lon="0.60781">
        <ele>68.9</ele>
        <time>2023-04-10T08:26:36Z</time>
      </trkpt>
      <trkpt lat="44.89406" lon="0.60767">
        <ele>68.8</ele>
        <time>2023-04-10T08:26:38Z</time>
      </trkpt>
      <trkpt lat="44.89411" lon="0.60753">
        <ele>68.8</ele>
        <time>2023-04-10T08:26:40Z</time>
      </trkpt>
      <trkpt lat="44.89414" lon="0.60745">
        <ele>68.8</ele>
        <time>2023-04-10T08:26:41Z</time>
      </trkpt>
      <trkpt lat="44.89417" lon="0.60738">
        <ele>68.8</ele>
        <time>2023-04-10T08:26:42Z</time>
      </trkpt>
      <trkpt lat="44.89419" lon="0.60731">
        <ele>68.8</ele>
        <time>2023-04-10T08:26:43Z</time>
      </trkpt>
      <trkpt lat="44.89422" lon="0.60725">
        <ele>68.7</ele>
        <time>2023-04-10T08:26:44Z</time>
      </trkpt>
      <trkpt lat="44.89427" lon="0.60711">
        <ele>68.7</ele>
        <time>2023-04-10T08:26:46Z</time>
      </trkpt>
      <trkpt lat="44.8943" lon="0.60704">
        <ele>68.7</ele>
        <time>2023-04-10T08:26:47Z</time>
      </trkpt>
      <trkpt lat="44.89433" lon="0.60697">
        <ele>68.8</ele>
        <time>2023-04-10T08:26:48Z</time>
      </trkpt>
      <trkpt lat="44.89439" lon="0.60683">
        <ele>68.9</ele>
        <time>2023-04-10T08:26:50Z</time>
      </trkpt>
      <trkpt lat="44.89444" lon="0.60669">
        <ele>69.1</ele>
        <time>2023-04-10T08:26:52Z</time>
      </trkpt>
      <trkpt lat="44.8945" lon="0.60657">
        <ele>69.3</ele>
        <time>2023-04-10T08:26:54Z</time>
      </trkpt>
      <trkpt lat="44.89452" lon="0.60651">
        <ele>69.4</ele>
        <time>2023-04-10T08:26:55Z</time>
      </trkpt>
      <trkpt lat="44.89455" lon="0.60645">
        <ele>69.5</ele>
        <time>2023-04-10T08:26:56Z</time>
      </trkpt>
      <trkpt lat="44.89459" lon="0.60632">
        <ele>69.8</ele>
        <time>2023-04-10T08:26:58Z</time>
      </trkpt>
      <trkpt lat="44.89462" lon="0.6062">
        <ele>70.1</ele>
        <time>2023-04-10T08:27:00Z</time>
      </trkpt>
      <trkpt lat="44.89463" lon="0.60613">
        <ele>70.2</ele>
        <time>2023-04-10T08:27:01Z</time>
      </trkpt>
      <trkpt lat="44.89464" lon="0.60607">
        <ele>70.4</ele>
        <time>2023-04-10T08:27:02Z</time>
      </trkpt>
      <trkpt lat="44.89465" lon="0.606">
        <ele>70.5</ele>
        <time>2023-04-10T08:27:03Z</time>
      </trkpt>
      <trkpt lat="44.89465" lon="0.60593">
        <ele>70.7</ele>
        <time>2023-04-10T08:27:04Z</time>
      </trkpt>
      <trkpt lat="44.89464" lon="0.60587">
        <ele>70.9</ele>
        <time>2023-04-10T08:27:05Z</time>
      </trkpt>
      <trkpt lat="44.89464" lon="0.60581">
        <ele>71</ele>
        <time>2023-04-10T08:27:06Z</time>
      </trkpt>
      <trkpt lat="44.89462" lon="0.6057">
        <ele>71.3</ele>
        <time>2023-04-10T08:27:08Z</time>
      </trkpt>
      <trkpt lat="44.89461" lon="0.60567">
        <ele>71.5</ele>
        <time>2023-04-10T08:27:09Z</time>
      </trkpt>
      <trkpt lat="44.89461" lon="0.60563">
        <ele>71.6</ele>
        <time>2023-04-10T08:27:10Z</time>
      </trkpt>
      <trkpt lat="44.89462" lon="0.6056">
        <ele>71.7</ele>
        <time>2023-04-10T08:27:11Z</time>
      </trkpt>
      <trkpt lat="44.89463" lon="0.60557">
        <ele>71.7</ele>
        <time>2023-04-10T08:27:12Z</time>
      </trkpt>
      <trkpt lat="44.89463" lon="0.60557">
        <ele>71.8</ele>
        <time>2023-04-10T08:27:13Z</time>
      </trkpt>
      <trkpt lat="44.89463" lon="0.60557">
        <ele>71.8</ele>
        <time>2023-04-10T08:27:14Z</time>
      </trkpt>
      <trkpt lat="44.89463" lon="0.60558">
        <ele>71.8</ele>
        <time>2023-04-10T08:27:15Z</time>
      </trkpt>
      <trkpt lat="44.89464" lon="0.60559">
        <ele>71.9</ele>
        <time>2023-04-10T08:27:16Z</time>
      </trkpt>
      <trkpt lat="44.89463" lon="0.60559">
        <ele>71.9</ele>
        <time>2023-04-10T08:27:18Z</time>
      </trkpt>
      <trkpt lat="44.89457" lon="0.60558">
        <ele>72.1</ele>
        <time>2023-04-10T08:32:12Z</time>
      </trkpt>
      <trkpt lat="44.89456" lon="0.60554">
        <ele>72.2</ele>
        <time>2023-04-10T08:32:13Z</time>
      </trkpt>
      <trkpt lat="44.89455" lon="0.60551">
        <ele>72.3</ele>
        <time>2023-04-10T08:32:14Z</time>
      </trkpt>
      <trkpt lat="44.89454" lon="0.60548">
        <ele>72.4</ele>
        <time>2023-04-10T08:32:15Z</time>
      </trkpt>
      <trkpt lat="44.89453" lon="0.60546">
        <ele>72.5</ele>
        <time>2023-04-10T08:32:16Z</time>
      </trkpt>
      <trkpt lat="44.89452" lon="0.60544">
        <ele>72.5</ele>
        <time>2023-04-10T08:32:17Z</time>
      </trkpt>
      <trkpt lat="44.89452" lon="0.60541">
        <ele>72.6</ele>
        <time>2023-04-10T08:32:18Z</time>
      </trkpt>
      <trkpt lat="44.8945" lon="0.60537">
        <ele>72.7</ele>
        <time>2023-04-10T08:32:20Z</time>
      </trkpt>
      <trkpt lat="44.8945" lon="0.60534">
        <ele>72.8</ele>
        <time>2023-04-10T08:32:21Z</time>
      </trkpt>
      <trkpt lat="44.89449" lon="0.60532">
        <ele>72.8</ele>
        <time>2023-04-10T08:32:22Z</time>
      </trkpt>
      <trkpt lat="44.89449" lon="0.60528">
        <ele>72.9</ele>
        <time>2023-04-10T08:32:24Z</time>
      </trkpt>
      <trkpt lat="44.89448" lon="0.60523">
        <ele>73</ele>
        <time>2023-04-10T08:32:26Z</time>
      </trkpt>
      <trkpt lat="44.89448" lon="0.6052">
        <ele>73.1</ele>
        <time>2023-04-10T08:32:27Z</time>
      </trkpt>
      <trkpt lat="44.89447" lon="0.60517">
        <ele>73.1</ele>
        <time>2023-04-10T08:32:28Z</time>
      </trkpt>
      <trkpt lat="44.89446" lon="0.6051">
        <ele>73.2</ele>
        <time>2023-04-10T08:32:30Z</time>
      </trkpt>
      <trkpt lat="44.89446" lon="0.60505">
        <ele>73.2</ele>
        <time>2023-04-10T08:32:32Z</time>
      </trkpt>
      <trkpt lat="44.89446" lon="0.60503">
        <ele>73.2</ele>
        <time>2023-04-10T08:32:33Z</time>
      </trkpt>
      <trkpt lat="44.89447" lon="0.605">
        <ele>73.2</ele>
        <time>2023-04-10T08:32:34Z</time>
      </trkpt>
      <trkpt lat="44.89449" lon="0.60494">
        <ele>73.2</ele>
        <time>2023-04-10T08:32:36Z</time>
      </trkpt>
      <trkpt lat="44.89451" lon="0.60488">
        <ele>73.2</ele>
        <time>2023-04-10T08:32:38Z</time>
      </trkpt>
      <trkpt lat="44.89453" lon="0.60483">
        <ele>73.1</ele>
        <time>2023-04-10T08:32:40Z</time>
      </trkpt>
      <trkpt lat="44.89454" lon="0.60479">
        <ele>73.1</ele>
        <time>2023-04-10T08:32:42Z</time>
      </trkpt>
      <trkpt lat="44.89455" lon="0.60477">
        <ele>73.1</ele>
        <time>2023-04-10T08:32:43Z</time>
      </trkpt>
      <trkpt lat="44.89456" lon="0.60474">
        <ele>73.1</ele>
        <time>2023-04-10T08:32:44Z</time>
      </trkpt>
      <trkpt lat="44.89459" lon="0.6047">
        <ele>73.1</ele>
        <time>2023-04-10T08:32:46Z</time>
      </trkpt>
      <trkpt lat="44.8946" lon="0.60466">
        <ele>73</ele>
        <time>2023-04-10T08:32:48Z</time>
      </trkpt>
      <trkpt lat="44.89462" lon="0.60465">
        <ele>73</ele>
        <time>2023-04-10T08:32:49Z</time>
      </trkpt>
      <trkpt lat="44.89463" lon="0.60463">
        <ele>73</ele>
        <time>2023-04-10T08:32:50Z</time>
      </trkpt>
      <trkpt lat="44.89466" lon="0.6046">
        <ele>73</ele>
        <time>2023-04-10T08:32:52Z</time>
      </trkpt>
      <trkpt lat="44.89469" lon="0.60458">
        <ele>73</ele>
        <time>2023-04-10T08:32:54Z</time>
      </trkpt>
      <trkpt lat="44.89473" lon="0.60454">
        <ele>73</ele>
        <time>2023-04-10T08:32:56Z</time>
      </trkpt>
      <trkpt lat="44.89475" lon="0.60451">
        <ele>73</ele>
        <time>2023-04-10T08:32:58Z</time>
      </trkpt>
      <trkpt lat="44.89477" lon="0.60448">
        <ele>73</ele>
        <time>2023-04-10T08:33:00Z</time>
      </trkpt>
      <trkpt lat="44.89478" lon="0.60447">
        <ele>73</ele>
        <time>2023-04-10T08:33:01Z</time>
      </trkpt>
      <trkpt lat="44.89479" lon="0.60446">
        <ele>73</ele>
        <time>2023-04-10T08:33:02Z</time>
      </trkpt>
      <trkpt lat="44.89481" lon="0.60442">
        <ele>73</ele>
        <time>2023-04-10T08:33:04Z</time>
      </trkpt>
      <trkpt lat="44.89483" lon="0.60438">
        <ele>73</ele>
        <time>2023-04-10T08:33:06Z</time>
      </trkpt>
      <trkpt lat="44.89486" lon="0.60434">
        <ele>73</ele>
        <time>2023-04-10T08:33:08Z</time>
      </trkpt>
      <trkpt lat="44.89489" lon="0.60429">
        <ele>73</ele>
        <time>2023-04-10T08:33:10Z</time>
      </trkpt>
      <trkpt lat="44.89489" lon="0.60427">
        <ele>73</ele>
        <time>2023-04-10T08:33:11Z</time>
      </trkpt>
      <trkpt lat="44.8949" lon="0.60424">
        <ele>73</ele>
        <time>2023-04-10T08:33:12Z</time>
      </trkpt>
      <trkpt lat="44.89493" lon="0.60419">
        <ele>73</ele>
        <time>2023-04-10T08:33:14Z</time>
      </trkpt>
      <trkpt lat="44.89494" lon="0.60417">
        <ele>73</ele>
        <time>2023-04-10T08:33:15Z</time>
      </trkpt>
      <trkpt lat="44.89495" lon="0.60414">
        <ele>73</ele>
        <time>2023-04-10T08:33:16Z</time>
      </trkpt>
      <trkpt lat="44.89496" lon="0.60408">
        <ele>73</ele>
        <time>2023-04-10T08:33:18Z</time>
      </trkpt>
      <trkpt lat="44.89498" lon="0.60402">
        <ele>73</ele>
        <time>2023-04-10T08:33:20Z</time>
      </trkpt>
      <trkpt lat="44.895" lon="0.60397">
        <ele>73</ele>
        <time>2023-04-10T08:33:22Z</time>
      </trkpt>
      <trkpt lat="44.89505" lon="0.60393">
        <ele>76</ele>
        <time>2023-04-10T08:33:24Z</time>
      </trkpt>
      <trkpt lat="44.89512" lon="0.60389">
        <ele>74.8</ele>
        <time>2023-04-10T08:33:26Z</time>
      </trkpt>
      <trkpt lat="44.89516" lon="0.60388">
        <ele>77.2</ele>
        <time>2023-04-10T08:33:28Z</time>
      </trkpt>
      <trkpt lat="44.89529" lon="0.60386">
        <ele>79.8</ele>
        <time>2023-04-10T08:33:34Z</time>
      </trkpt>
      <trkpt lat="44.8953" lon="0.60388">
        <ele>79.7</ele>
        <time>2023-04-10T08:33:35Z</time>
      </trkpt>
      <trkpt lat="44.89531" lon="0.6039">
        <ele>79.7</ele>
        <time>2023-04-10T08:33:36Z</time>
      </trkpt>
      <trkpt lat="44.89532" lon="0.60391">
        <ele>80.8</ele>
        <time>2023-04-10T08:33:37Z</time>
      </trkpt>
      <trkpt lat="44.89533" lon="0.60393">
        <ele>80.7</ele>
        <time>2023-04-10T08:33:38Z</time>
      </trkpt>
      <trkpt lat="44.89535" lon="0.60395">
        <ele>80.6</ele>
        <time>2023-04-10T08:33:40Z</time>
      </trkpt>
      <trkpt lat="44.89537" lon="0.60396">
        <ele>80.5</ele>
        <time>2023-04-10T08:33:41Z</time>
      </trkpt>
      <trkpt lat="44.89545" lon="0.6039">
        <ele>81.6</ele>
        <time>2023-04-10T08:33:46Z</time>
      </trkpt>
      <trkpt lat="44.89546" lon="0.60389">
        <ele>81.5</ele>
        <time>2023-04-10T08:33:47Z</time>
      </trkpt>
      <trkpt lat="44.89546" lon="0.60387">
        <ele>81.4</ele>
        <time>2023-04-10T08:33:48Z</time>
      </trkpt>
      <trkpt lat="44.89548" lon="0.60384">
        <ele>81.3</ele>
        <time>2023-04-10T08:33:50Z</time>
      </trkpt>
      <trkpt lat="44.89549" lon="0.60381">
        <ele>81.3</ele>
        <time>2023-04-10T08:33:52Z</time>
      </trkpt>
      <trkpt lat="44.89551" lon="0.60379">
        <ele>81.2</ele>
        <time>2023-04-10T08:33:54Z</time>
      </trkpt>
      <trkpt lat="44.89553" lon="0.6038">
        <ele>83.8</ele>
        <time>2023-04-10T08:33:55Z</time>
      </trkpt>
      <trkpt lat="44.89554" lon="0.60381">
        <ele>83.7</ele>
        <time>2023-04-10T08:33:56Z</time>
      </trkpt>
      <trkpt lat="44.89557" lon="0.60384">
        <ele>83.6</ele>
        <time>2023-04-10T08:33:58Z</time>
      </trkpt>
      <trkpt lat="44.89559" lon="0.60385">
        <ele>83.6</ele>
        <time>2023-04-10T08:33:59Z</time>
      </trkpt>
      <trkpt lat="44.8956" lon="0.60387">
        <ele>83.5</ele>
        <time>2023-04-10T08:34:00Z</time>
      </trkpt>
      <trkpt lat="44.89562" lon="0.60389">
        <ele>83.4</ele>
        <time>2023-04-10T08:34:01Z</time>
      </trkpt>
      <trkpt lat="44.89563" lon="0.6039">
        <ele>83.3</ele>
        <time>2023-04-10T08:34:02Z</time>
      </trkpt>
      <trkpt lat="44.89565" lon="0.60393">
        <ele>86.2</ele>
        <time>2023-04-10T08:34:04Z</time>
      </trkpt>
      <trkpt lat="44.89568" lon="0.60395">
        <ele>86.1</ele>
        <time>2023-04-10T08:34:06Z</time>
      </trkpt>
      <trkpt lat="44.89569" lon="0.60396">
        <ele>86</ele>
        <time>2023-04-10T08:34:07Z</time>
      </trkpt>
      <trkpt lat="44.89571" lon="0.60397">
        <ele>85.9</ele>
        <time>2023-04-10T08:34:08Z</time>
      </trkpt>
      <trkpt lat="44.89572" lon="0.60397">
        <ele>85.9</ele>
        <time>2023-04-10T08:34:09Z</time>
      </trkpt>
      <trkpt lat="44.89574" lon="0.60396">
        <ele>85.8</ele>
        <time>2023-04-10T08:34:10Z</time>
      </trkpt>
      <trkpt lat="44.89579" lon="0.60396">
        <ele>87.6</ele>
        <time>2023-04-10T08:34:12Z</time>
      </trkpt>
      <trkpt lat="44.89579" lon="0.60396">
        <ele>87.6</ele>
        <time>2023-04-10T08:34:13Z</time>
      </trkpt>
      <trkpt lat="44.8958" lon="0.60395">
        <ele>87.5</ele>
        <time>2023-04-10T08:34:14Z</time>
      </trkpt>
      <trkpt lat="44.89584" lon="0.60393">
        <ele>87.4</ele>
        <time>2023-04-10T08:34:16Z</time>
      </trkpt>
      <trkpt lat="44.89584" lon="0.60392">
        <ele>87.3</ele>
        <time>2023-04-10T08:34:17Z</time>
      </trkpt>
      <trkpt lat="44.89586" lon="0.6039">
        <ele>86.4</ele>
        <time>2023-04-10T08:34:18Z</time>
      </trkpt>
      <trkpt lat="44.89589" lon="0.60387">
        <ele>86.4</ele>
        <time>2023-04-10T08:34:20Z</time>
      </trkpt>
      <trkpt lat="44.89592" lon="0.60384">
        <ele>87.9</ele>
        <time>2023-04-10T08:34:22Z</time>
      </trkpt>
      <trkpt lat="44.89594" lon="0.60383">
        <ele>87.9</ele>
        <time>2023-04-10T08:34:24Z</time>
      </trkpt>
      <trkpt lat="44.89596" lon="0.60379">
        <ele>87.8</ele>
        <time>2023-04-10T08:34:26Z</time>
      </trkpt>
      <trkpt lat="44.89598" lon="0.60376">
        <ele>87.7</ele>
        <time>2023-04-10T08:34:28Z</time>
      </trkpt>
      <trkpt lat="44.896" lon="0.60373">
        <ele>86.8</ele>
        <time>2023-04-10T08:34:30Z</time>
      </trkpt>
      <trkpt lat="44.89602" lon="0.60371">
        <ele>88.3</ele>
        <time>2023-04-10T08:34:32Z</time>
      </trkpt>
      <trkpt lat="44.89604" lon="0.6037">
        <ele>88.2</ele>
        <time>2023-04-10T08:34:34Z</time>
      </trkpt>
      <trkpt lat="44.89606" lon="0.60369">
        <ele>88.1</ele>
        <time>2023-04-10T08:34:35Z</time>
      </trkpt>
      <trkpt lat="44.89607" lon="0.60368">
        <ele>88.1</ele>
        <time>2023-04-10T08:34:36Z</time>
      </trkpt>
      <trkpt lat="44.89608" lon="0.60368">
        <ele>88</ele>
        <time>2023-04-10T08:34:37Z</time>
      </trkpt>
      <trkpt lat="44.89609" lon="0.60369">
        <ele>87.9</ele>
        <time>2023-04-10T08:34:38Z</time>
      </trkpt>
      <trkpt lat="44.89612" lon="0.60371">
        <ele>87.8</ele>
        <time>2023-04-10T08:34:40Z</time>
      </trkpt>
      <trkpt lat="44.89614" lon="0.60373">
        <ele>89.4</ele>
        <time>2023-04-10T08:34:42Z</time>
      </trkpt>
      <trkpt lat="44.89615" lon="0.60375">
        <ele>90.1</ele>
        <time>2023-04-10T08:34:44Z</time>
      </trkpt>
      <trkpt lat="44.89616" lon="0.60376">
        <ele>90</ele>
        <time>2023-04-10T08:34:45Z</time>
      </trkpt>
      <trkpt lat="44.89616" lon="0.60378">
        <ele>89.9</ele>
        <time>2023-04-10T08:34:46Z</time>
      </trkpt>
      <trkpt lat="44.89617" lon="0.60382">
        <ele>89.9</ele>
        <time>2023-04-10T08:34:48Z</time>
      </trkpt>
      <trkpt lat="44.89617" lon="0.60387">
        <ele>89.8</ele>
        <time>2023-04-10T08:34:50Z</time>
      </trkpt>
      <trkpt lat="44.89618" lon="0.60391">
        <ele>90.7</ele>
        <time>2023-04-10T08:34:52Z</time>
      </trkpt>
      <trkpt lat="44.8962" lon="0.60395">
        <ele>90.6</ele>
        <time>2023-04-10T08:34:54Z</time>
      </trkpt>
      <trkpt lat="44.89622" lon="0.60397">
        <ele>90.6</ele>
        <time>2023-04-10T08:34:56Z</time>
      </trkpt>
      <trkpt lat="44.89623" lon="0.60397">
        <ele>90.5</ele>
        <time>2023-04-10T08:34:57Z</time>
      </trkpt>
      <trkpt lat="44.89625" lon="0.60398">
        <ele>90.4</ele>
        <time>2023-04-10T08:34:58Z</time>
      </trkpt>
      <trkpt lat="44.89626" lon="0.60399">
        <ele>91.8</ele>
        <time>2023-04-10T08:35:00Z</time>
      </trkpt>
      <trkpt lat="44.89627" lon="0.60399">
        <ele>91.7</ele>
        <time>2023-04-10T08:35:02Z</time>
      </trkpt>
      <trkpt lat="44.8963" lon="0.60399">
        <ele>91.6</ele>
        <time>2023-04-10T08:35:04Z</time>
      </trkpt>
      <trkpt lat="44.89632" lon="0.60399">
        <ele>91.5</ele>
        <time>2023-04-10T08:35:06Z</time>
      </trkpt>
      <trkpt lat="44.89635" lon="0.604">
        <ele>91.4</ele>
        <time>2023-04-10T08:35:08Z</time>
      </trkpt>
      <trkpt lat="44.89636" lon="0.60399">
        <ele>91.4</ele>
        <time>2023-04-10T08:35:10Z</time>
      </trkpt>
      <trkpt lat="44.89638" lon="0.604">
        <ele>92.8</ele>
        <time>2023-04-10T08:35:12Z</time>
      </trkpt>
      <trkpt lat="44.89641" lon="0.604">
        <ele>92.7</ele>
        <time>2023-04-10T08:35:14Z</time>
      </trkpt>
      <trkpt lat="44.89642" lon="0.60401">
        <ele>92.6</ele>
        <time>2023-04-10T08:35:15Z</time>
      </trkpt>
      <trkpt lat="44.89643" lon="0.60401">
        <ele>92.6</ele>
        <time>2023-04-10T08:35:16Z</time>
      </trkpt>
      <trkpt lat="44.89645" lon="0.60401">
        <ele>92.5</ele>
        <time>2023-04-10T08:35:18Z</time>
      </trkpt>
      <trkpt lat="44.89648" lon="0.60402">
        <ele>92.4</ele>
        <time>2023-04-10T08:35:20Z</time>
      </trkpt>
      <trkpt lat="44.8965" lon="0.60402">
        <ele>92.3</ele>
        <time>2023-04-10T08:35:21Z</time>
      </trkpt>
      <trkpt lat="44.89651" lon="0.60402">
        <ele>93.2</ele>
        <time>2023-04-10T08:35:22Z</time>
      </trkpt>
      <trkpt lat="44.89652" lon="0.60402">
        <ele>93.2</ele>
        <time>2023-04-10T08:35:23Z</time>
      </trkpt>
      <trkpt lat="44.89653" lon="0.60403">
        <ele>93.1</ele>
        <time>2023-04-10T08:35:24Z</time>
      </trkpt>
      <trkpt lat="44.89654" lon="0.60403">
        <ele>93</ele>
        <time>2023-04-10T08:35:25Z</time>
      </trkpt>
      <trkpt lat="44.89656" lon="0.60404">
        <ele>92.9</ele>
        <time>2023-04-10T08:35:26Z</time>
      </trkpt>
      <trkpt lat="44.89658" lon="0.60407">
        <ele>92.8</ele>
        <time>2023-04-10T08:35:28Z</time>
      </trkpt>
      <trkpt lat="44.8966" lon="0.60411">
        <ele>93.7</ele>
        <time>2023-04-10T08:35:30Z</time>
      </trkpt>
      <trkpt lat="44.89662" lon="0.60415">
        <ele>93.6</ele>
        <time>2023-04-10T08:35:32Z</time>
      </trkpt>
      <trkpt lat="44.89663" lon="0.60418">
        <ele>94.1</ele>
        <time>2023-04-10T08:35:33Z</time>
      </trkpt>
      <trkpt lat="44.89665" lon="0.6042">
        <ele>94</ele>
        <time>2023-04-10T08:35:34Z</time>
      </trkpt>
      <trkpt lat="44.89667" lon="0.60422">
        <ele>93.9</ele>
        <time>2023-04-10T08:35:35Z</time>
      </trkpt>
      <trkpt lat="44.89667" lon="0.60424">
        <ele>93.9</ele>
        <time>2023-04-10T08:35:36Z</time>
      </trkpt>
      <trkpt lat="44.89668" lon="0.6043">
        <ele>94.6</ele>
        <time>2023-04-10T08:35:38Z</time>
      </trkpt>
      <trkpt lat="44.89669" lon="0.60435">
        <ele>94.5</ele>
        <time>2023-04-10T08:35:40Z</time>
      </trkpt>
      <trkpt lat="44.89669" lon="0.60438">
        <ele>94.4</ele>
        <time>2023-04-10T08:35:41Z</time>
      </trkpt>
      <trkpt lat="44.89671" lon="0.60439">
        <ele>94.3</ele>
        <time>2023-04-10T08:35:42Z</time>
      </trkpt>
      <trkpt lat="44.89673" lon="0.60443">
        <ele>94.8</ele>
        <time>2023-04-10T08:35:44Z</time>
      </trkpt>
      <trkpt lat="44.89676" lon="0.60447">
        <ele>94.9</ele>
        <time>2023-04-10T08:35:46Z</time>
      </trkpt>
      <trkpt lat="44.89677" lon="0.60449">
        <ele>94.9</ele>
        <time>2023-04-10T08:35:47Z</time>
      </trkpt>
      <trkpt lat="44.89678" lon="0.6045">
        <ele>94.8</ele>
        <time>2023-04-10T08:35:48Z</time>
      </trkpt>
      <trkpt lat="44.89679" lon="0.60453">
        <ele>94.7</ele>
        <time>2023-04-10T08:35:50Z</time>
      </trkpt>
      <trkpt lat="44.89681" lon="0.60454">
        <ele>94.6</ele>
        <time>2023-04-10T08:35:51Z</time>
      </trkpt>
      <trkpt lat="44.89682" lon="0.60455">
        <ele>94.5</ele>
        <time>2023-04-10T08:35:52Z</time>
      </trkpt>
      <trkpt lat="44.89685" lon="0.60458">
        <ele>94.5</ele>
        <time>2023-04-10T08:35:54Z</time>
      </trkpt>
      <trkpt lat="44.89687" lon="0.6046">
        <ele>95</ele>
        <time>2023-04-10T08:35:56Z</time>
      </trkpt>
      <trkpt lat="44.89689" lon="0.60462">
        <ele>94.9</ele>
        <time>2023-04-10T08:35:57Z</time>
      </trkpt>
      <trkpt lat="44.89691" lon="0.60463">
        <ele>94.9</ele>
        <time>2023-04-10T08:35:58Z</time>
      </trkpt>
      <trkpt lat="44.89693" lon="0.60465">
        <ele>94.8</ele>
        <time>2023-04-10T08:36:00Z</time>
      </trkpt>
      <trkpt lat="44.89697" lon="0.60468">
        <ele>94.7</ele>
        <time>2023-04-10T08:36:02Z</time>
      </trkpt>
      <trkpt lat="44.89702" lon="0.6047">
        <ele>94.7</ele>
        <time>2023-04-10T08:36:04Z</time>
      </trkpt>
      <trkpt lat="44.89707" lon="0.60471">
        <ele>94.6</ele>
        <time>2023-04-10T08:36:06Z</time>
      </trkpt>
      <trkpt lat="44.89708" lon="0.60472">
        <ele>94.5</ele>
        <time>2023-04-10T08:36:07Z</time>
      </trkpt>
      <trkpt lat="44.89711" lon="0.60473">
        <ele>94.5</ele>
        <time>2023-04-10T08:36:08Z</time>
      </trkpt>
      <trkpt lat="44.89715" lon="0.60476">
        <ele>94.3</ele>
        <time>2023-04-10T08:36:10Z</time>
      </trkpt>
      <trkpt lat="44.89722" lon="0.60482">
        <ele>94.8</ele>
        <time>2023-04-10T08:36:12Z</time>
      </trkpt>
      <trkpt lat="44.89725" lon="0.60484">
        <ele>94.3</ele>
        <time>2023-04-10T08:36:13Z</time>
      </trkpt>
      <trkpt lat="44.89727" lon="0.60486">
        <ele>94.2</ele>
        <time>2023-04-10T08:36:14Z</time>
      </trkpt>
      <trkpt lat="44.89734" lon="0.60489">
        <ele>94.1</ele>
        <time>2023-04-10T08:36:16Z</time>
      </trkpt>
      <trkpt lat="44.89738" lon="0.60492">
        <ele>93.3</ele>
        <time>2023-04-10T08:36:17Z</time>
      </trkpt>
      <trkpt lat="44.89742" lon="0.60496">
        <ele>93.4</ele>
        <time>2023-04-10T08:36:18Z</time>
      </trkpt>
      <trkpt lat="44.89745" lon="0.60502">
        <ele>93.3</ele>
        <time>2023-04-10T08:36:19Z</time>
      </trkpt>
      <trkpt lat="44.89745" lon="0.60507">
        <ele>93.3</ele>
        <time>2023-04-10T08:36:20Z</time>
      </trkpt>
      <trkpt lat="44.89742" lon="0.60518">
        <ele>92.8</ele>
        <time>2023-04-10T08:36:22Z</time>
      </trkpt>
      <trkpt lat="44.89741" lon="0.60524">
        <ele>92.8</ele>
        <time>2023-04-10T08:36:23Z</time>
      </trkpt>
      <trkpt lat="44.8974" lon="0.60531">
        <ele>91.5</ele>
        <time>2023-04-10T08:36:24Z</time>
      </trkpt>
      <trkpt lat="44.89739" lon="0.60539">
        <ele>91.4</ele>
        <time>2023-04-10T08:36:25Z</time>
      </trkpt>
      <trkpt lat="44.89739" lon="0.60545">
        <ele>91.3</ele>
        <time>2023-04-10T08:36:26Z</time>
      </trkpt>
      <trkpt lat="44.89738" lon="0.60549">
        <ele>89.6</ele>
        <time>2023-04-10T08:36:27Z</time>
      </trkpt>
      <trkpt lat="44.89737" lon="0.60553">
        <ele>89.5</ele>
        <time>2023-04-10T08:36:28Z</time>
      </trkpt>
      <trkpt lat="44.89733" lon="0.60565">
        <ele>87.2</ele>
        <time>2023-04-10T08:36:30Z</time>
      </trkpt>
      <trkpt lat="44.89732" lon="0.60571">
        <ele>87.1</ele>
        <time>2023-04-10T08:36:31Z</time>
      </trkpt>
      <trkpt lat="44.89732" lon="0.60578">
        <ele>87.1</ele>
        <time>2023-04-10T08:36:32Z</time>
      </trkpt>
      <trkpt lat="44.89731" lon="0.60589">
        <ele>84.4</ele>
        <time>2023-04-10T08:36:34Z</time>
      </trkpt>
      <trkpt lat="44.89726" lon="0.60594">
        <ele>84.3</ele>
        <time>2023-04-10T08:36:36Z</time>
      </trkpt>
      <trkpt lat="44.89723" lon="0.60595">
        <ele>84.2</ele>
        <time>2023-04-10T08:36:37Z</time>
      </trkpt>
      <trkpt lat="44.89721" lon="0.60596">
        <ele>84.4</ele>
        <time>2023-04-10T08:36:38Z</time>
      </trkpt>
      <trkpt lat="44.89719" lon="0.60602">
        <ele>82.4</ele>
        <time>2023-04-10T08:36:40Z</time>
      </trkpt>
      <trkpt lat="44.89716" lon="0.6061">
        <ele>82.4</ele>
        <time>2023-04-10T08:36:42Z</time>
      </trkpt>
      <trkpt lat="44.89714" lon="0.60615">
        <ele>80.6</ele>
        <time>2023-04-10T08:36:43Z</time>
      </trkpt>
      <trkpt lat="44.89709" lon="0.60619">
        <ele>80.5</ele>
        <time>2023-04-10T08:36:44Z</time>
      </trkpt>
      <trkpt lat="44.89701" lon="0.60628">
        <ele>80.5</ele>
        <time>2023-04-10T08:36:46Z</time>
      </trkpt>
      <trkpt lat="44.89698" lon="0.60634">
        <ele>78.4</ele>
        <time>2023-04-10T08:36:47Z</time>
      </trkpt>
      <trkpt lat="44.89694" lon="0.60639">
        <ele>78.3</ele>
        <time>2023-04-10T08:36:48Z</time>
      </trkpt>
      <trkpt lat="44.89691" lon="0.60647">
        <ele>78.2</ele>
        <time>2023-04-10T08:36:49Z</time>
      </trkpt>
      <trkpt lat="44.89687" lon="0.60654">
        <ele>76.2</ele>
        <time>2023-04-10T08:36:50Z</time>
      </trkpt>
      <trkpt lat="44.89677" lon="0.60662">
        <ele>75.8</ele>
        <time>2023-04-10T08:36:52Z</time>
      </trkpt>
      <trkpt lat="44.89669" lon="0.60659">
        <ele>75.5</ele>
        <time>2023-04-10T08:36:54Z</time>
      </trkpt>
      <trkpt lat="44.89665" lon="0.60658">
        <ele>75.4</ele>
        <time>2023-04-10T08:36:55Z</time>
      </trkpt>
      <trkpt lat="44.89661" lon="0.60658">
        <ele>74.8</ele>
        <time>2023-04-10T08:36:56Z</time>
      </trkpt>
      <trkpt lat="44.89656" lon="0.60659">
        <ele>74.7</ele>
        <time>2023-04-10T08:36:57Z</time>
      </trkpt>
      <trkpt lat="44.89652" lon="0.60659">
        <ele>74.7</ele>
        <time>2023-04-10T08:36:58Z</time>
      </trkpt>
      <trkpt lat="44.8965" lon="0.6066">
        <ele>74.6</ele>
        <time>2023-04-10T08:36:59Z</time>
      </trkpt>
      <trkpt lat="44.89649" lon="0.60661">
        <ele>73.9</ele>
        <time>2023-04-10T08:37:00Z</time>
      </trkpt>
      <trkpt lat="44.89651" lon="0.60665">
        <ele>71.9</ele>
        <time>2023-04-10T08:37:02Z</time>
      </trkpt>
      <trkpt lat="44.89651" lon="0.60668">
        <ele>71.8</ele>
        <time>2023-04-10T08:37:03Z</time>
      </trkpt>
      <trkpt lat="44.89653" lon="0.6067">
        <ele>71.7</ele>
        <time>2023-04-10T08:37:04Z</time>
      </trkpt>
      <trkpt lat="44.89658" lon="0.60676">
        <ele>71.6</ele>
        <time>2023-04-10T08:37:06Z</time>
      </trkpt>
      <trkpt lat="44.89662" lon="0.6068">
        <ele>71.5</ele>
        <time>2023-04-10T08:37:08Z</time>
      </trkpt>
      <trkpt lat="44.89663" lon="0.60682">
        <ele>72.1</ele>
        <time>2023-04-10T08:37:09Z</time>
      </trkpt>
      <trkpt lat="44.89665" lon="0.60684">
        <ele>69.8</ele>
        <time>2023-04-10T08:37:10Z</time>
      </trkpt>
      <trkpt lat="44.89667" lon="0.60685">
        <ele>69.7</ele>
        <time>2023-04-10T08:37:11Z</time>
      </trkpt>
      <trkpt lat="44.89669" lon="0.60686">
        <ele>69.7</ele>
        <time>2023-04-10T08:37:12Z</time>
      </trkpt>
      <trkpt lat="44.89669" lon="0.60686">
        <ele>69.6</ele>
        <time>2023-04-10T08:37:13Z</time>
      </trkpt>
      <trkpt lat="44.89672" lon="0.60685">
        <ele>69.5</ele>
        <time>2023-04-10T08:37:14Z</time>
      </trkpt>
      <trkpt lat="44.89677" lon="0.60684">
        <ele>70.1</ele>
        <time>2023-04-10T08:37:16Z</time>
      </trkpt>
      <trkpt lat="44.89682" lon="0.60687">
        <ele>70</ele>
        <time>2023-04-10T08:37:18Z</time>
      </trkpt>
      <trkpt lat="44.89683" lon="0.60691">
        <ele>69.9</ele>
        <time>2023-04-10T08:37:19Z</time>
      </trkpt>
      <trkpt lat="44.89683" lon="0.60693">
        <ele>69.9</ele>
        <time>2023-04-10T08:37:20Z</time>
      </trkpt>
      <trkpt lat="44.89682" lon="0.60694">
        <ele>69.8</ele>
        <time>2023-04-10T08:37:21Z</time>
      </trkpt>
      <trkpt lat="44.89682" lon="0.60696">
        <ele>69.7</ele>
        <time>2023-04-10T08:37:22Z</time>
      </trkpt>
      <trkpt lat="44.89683" lon="0.60698">
        <ele>69.7</ele>
        <time>2023-04-10T08:37:23Z</time>
      </trkpt>
      <trkpt lat="44.89684" lon="0.60701">
        <ele>69.6</ele>
        <time>2023-04-10T08:37:24Z</time>
      </trkpt>
      <trkpt lat="44.89685" lon="0.60703">
        <ele>69.6</ele>
        <time>2023-04-10T08:37:25Z</time>
      </trkpt>
      <trkpt lat="44.89686" lon="0.60707">
        <ele>69.6</ele>
        <time>2023-04-10T08:37:26Z</time>
      </trkpt>
      <trkpt lat="44.89689" lon="0.60715">
        <ele>69.4</ele>
        <time>2023-04-10T08:37:28Z</time>
      </trkpt>
      <trkpt lat="44.89692" lon="0.6072">
        <ele>69.4</ele>
        <time>2023-04-10T08:37:29Z</time>
      </trkpt>
      <trkpt lat="44.89695" lon="0.60725">
        <ele>69.4</ele>
        <time>2023-04-10T08:37:30Z</time>
      </trkpt>
      <trkpt lat="44.89698" lon="0.60735">
        <ele>69.3</ele>
        <time>2023-04-10T08:37:32Z</time>
      </trkpt>
      <trkpt lat="44.89701" lon="0.60746">
        <ele>69.2</ele>
        <time>2023-04-10T08:37:34Z</time>
      </trkpt>
      <trkpt lat="44.89706" lon="0.60754">
        <ele>69.2</ele>
        <time>2023-04-10T08:37:36Z</time>
      </trkpt>
      <trkpt lat="44.89711" lon="0.60762">
        <ele>69.1</ele>
        <time>2023-04-10T08:37:38Z</time>
      </trkpt>
      <trkpt lat="44.89713" lon="0.60766">
        <ele>69.1</ele>
        <time>2023-04-10T08:37:40Z</time>
      </trkpt>
      <trkpt lat="44.8972" lon="0.60766">
        <ele>69</ele>
        <time>2023-04-10T08:37:42Z</time>
      </trkpt>
      <trkpt lat="44.89725" lon="0.60768">
        <ele>69</ele>
        <time>2023-04-10T08:37:44Z</time>
      </trkpt>
      <trkpt lat="44.89727" lon="0.60771">
        <ele>69</ele>
        <time>2023-04-10T08:37:45Z</time>
      </trkpt>
      <trkpt lat="44.89728" lon="0.60775">
        <ele>69</ele>
        <time>2023-04-10T08:37:46Z</time>
      </trkpt>
      <trkpt lat="44.8973" lon="0.6078">
        <ele>69</ele>
        <time>2023-04-10T08:37:47Z</time>
      </trkpt>
      <trkpt lat="44.89731" lon="0.60785">
        <ele>69.1</ele>
        <time>2023-04-10T08:37:48Z</time>
      </trkpt>
      <trkpt lat="44.89734" lon="0.60794">
        <ele>69.2</ele>
        <time>2023-04-10T08:37:50Z</time>
      </trkpt>
      <trkpt lat="44.89737" lon="0.60798">
        <ele>69.2</ele>
        <time>2023-04-10T08:37:51Z</time>
      </trkpt>
      <trkpt lat="44.8974" lon="0.60803">
        <ele>69.3</ele>
        <time>2023-04-10T08:37:52Z</time>
      </trkpt>
      <trkpt lat="44.89742" lon="0.60808">
        <ele>69.3</ele>
        <time>2023-04-10T08:37:53Z</time>
      </trkpt>
      <trkpt lat="44.89745" lon="0.60813">
        <ele>69.4</ele>
        <time>2023-04-10T08:37:54Z</time>
      </trkpt>
      <trkpt lat="44.89751" lon="0.60822">
        <ele>69.5</ele>
        <time>2023-04-10T08:37:56Z</time>
      </trkpt>
      <trkpt lat="44.89756" lon="0.60832">
        <ele>69.5</ele>
        <time>2023-04-10T08:37:58Z</time>
      </trkpt>
      <trkpt lat="44.89759" lon="0.60837">
        <ele>69.5</ele>
        <time>2023-04-10T08:37:59Z</time>
      </trkpt>
      <trkpt lat="44.89761" lon="0.60842">
        <ele>69.5</ele>
        <time>2023-04-10T08:38:00Z</time>
      </trkpt>
      <trkpt lat="44.89763" lon="0.60847">
        <ele>69.5</ele>
        <time>2023-04-10T08:38:01Z</time>
      </trkpt>
      <trkpt lat="44.89765" lon="0.60852">
        <ele>69.4</ele>
        <time>2023-04-10T08:38:02Z</time>
      </trkpt>
      <trkpt lat="44.89767" lon="0.60858">
        <ele>69.4</ele>
        <time>2023-04-10T08:38:03Z</time>
      </trkpt>
      <trkpt lat="44.8977" lon="0.60864">
        <ele>69.4</ele>
        <time>2023-04-10T08:38:04Z</time>
      </trkpt>
      <trkpt lat="44.89774" lon="0.60875">
        <ele>69.3</ele>
        <time>2023-04-10T08:38:06Z</time>
      </trkpt>
      <trkpt lat="44.89778" lon="0.60888">
        <ele>69.3</ele>
        <time>2023-04-10T08:38:08Z</time>
      </trkpt>
      <trkpt lat="44.89781" lon="0.60894">
        <ele>69.2</ele>
        <time>2023-04-10T08:38:09Z</time>
      </trkpt>
      <trkpt lat="44.89784" lon="0.609">
        <ele>69.2</ele>
        <time>2023-04-10T08:38:10Z</time>
      </trkpt>
      <trkpt lat="44.89786" lon="0.60906">
        <ele>69.2</ele>
        <time>2023-04-10T08:38:11Z</time>
      </trkpt>
      <trkpt lat="44.89787" lon="0.60911">
        <ele>69.2</ele>
        <time>2023-04-10T08:38:12Z</time>
      </trkpt>
      <trkpt lat="44.89788" lon="0.60916">
        <ele>69.2</ele>
        <time>2023-04-10T08:38:13Z</time>
      </trkpt>
      <trkpt lat="44.89789" lon="0.60921">
        <ele>69.2</ele>
        <time>2023-04-10T08:38:14Z</time>
      </trkpt>
      <trkpt lat="44.89795" lon="0.60929">
        <ele>69.2</ele>
        <time>2023-04-10T08:38:16Z</time>
      </trkpt>
      <trkpt lat="44.89798" lon="0.60932">
        <ele>69.2</ele>
        <time>2023-04-10T08:38:18Z</time>
      </trkpt>
      <trkpt lat="44.898" lon="0.60938">
        <ele>69.2</ele>
        <time>2023-04-10T08:38:20Z</time>
      </trkpt>
      <trkpt lat="44.89804" lon="0.60944">
        <ele>69.2</ele>
        <time>2023-04-10T08:38:22Z</time>
      </trkpt>
      <trkpt lat="44.89805" lon="0.60945">
        <ele>69.2</ele>
        <time>2023-04-10T08:38:24Z</time>
      </trkpt>
      <trkpt lat="44.89808" lon="0.60948">
        <ele>69.2</ele>
        <time>2023-04-10T08:38:25Z</time>
      </trkpt>
      <trkpt lat="44.89809" lon="0.60951">
        <ele>69.1</ele>
        <time>2023-04-10T08:38:26Z</time>
      </trkpt>
      <trkpt lat="44.89812" lon="0.60955">
        <ele>69.1</ele>
        <time>2023-04-10T08:38:27Z</time>
      </trkpt>
      <trkpt lat="44.89813" lon="0.60958">
        <ele>69.1</ele>
        <time>2023-04-10T08:38:28Z</time>
      </trkpt>
      <trkpt lat="44.89815" lon="0.6096">
        <ele>69.1</ele>
        <time>2023-04-10T08:38:29Z</time>
      </trkpt>
      <trkpt lat="44.89815" lon="0.60963">
        <ele>69.1</ele>
        <time>2023-04-10T08:38:30Z</time>
      </trkpt>
      <trkpt lat="44.89817" lon="0.60967">
        <ele>69.1</ele>
        <time>2023-04-10T08:38:32Z</time>
      </trkpt>
      <trkpt lat="44.89819" lon="0.60969">
        <ele>69.1</ele>
        <time>2023-04-10T08:38:33Z</time>
      </trkpt>
      <trkpt lat="44.89819" lon="0.60972">
        <ele>69.1</ele>
        <time>2023-04-10T08:38:34Z</time>
      </trkpt>
      <trkpt lat="44.89817" lon="0.60973">
        <ele>69.1</ele>
        <time>2023-04-10T08:38:35Z</time>
      </trkpt>
      <trkpt lat="44.89813" lon="0.60976">
        <ele>69</ele>
        <time>2023-04-10T08:38:36Z</time>
      </trkpt>
      <trkpt lat="44.89809" lon="0.60979">
        <ele>69</ele>
        <time>2023-04-10T08:38:37Z</time>
      </trkpt>
      <trkpt lat="44.89806" lon="0.60984">
        <ele>69</ele>
        <time>2023-04-10T08:38:38Z</time>
      </trkpt>
      <trkpt lat="44.89797" lon="0.60992">
        <ele>69</ele>
        <time>2023-04-10T08:38:40Z</time>
      </trkpt>
      <trkpt lat="44.89788" lon="0.61001">
        <ele>69</ele>
        <time>2023-04-10T08:38:42Z</time>
      </trkpt>
      <trkpt lat="44.89785" lon="0.61012">
        <ele>69</ele>
        <time>2023-04-10T08:38:44Z</time>
      </trkpt>
      <trkpt lat="44.89786" lon="0.61017">
        <ele>69</ele>
        <time>2023-04-10T08:38:45Z</time>
      </trkpt>
      <trkpt lat="44.89787" lon="0.61022">
        <ele>69.1</ele>
        <time>2023-04-10T08:38:46Z</time>
      </trkpt>
      <trkpt lat="44.89789" lon="0.61032">
        <ele>69.2</ele>
        <time>2023-04-10T08:38:48Z</time>
      </trkpt>
      <trkpt lat="44.89791" lon="0.61043">
        <ele>69.3</ele>
        <time>2023-04-10T08:38:50Z</time>
      </trkpt>
      <trkpt lat="44.89792" lon="0.61047">
        <ele>69.4</ele>
        <time>2023-04-10T08:38:51Z</time>
      </trkpt>
      <trkpt lat="44.89792" lon="0.61052">
        <ele>69.4</ele>
        <time>2023-04-10T08:38:52Z</time>
      </trkpt>
      <trkpt lat="44.89793" lon="0.61062">
        <ele>69.6</ele>
        <time>2023-04-10T08:38:54Z</time>
      </trkpt>
      <trkpt lat="44.89794" lon="0.6107">
        <ele>69.7</ele>
        <time>2023-04-10T08:38:56Z</time>
      </trkpt>
      <trkpt lat="44.89795" lon="0.61079">
        <ele>69.8</ele>
        <time>2023-04-10T08:38:58Z</time>
      </trkpt>
      <trkpt lat="44.89796" lon="0.61089">
        <ele>69.9</ele>
        <time>2023-04-10T08:39:00Z</time>
      </trkpt>
      <trkpt lat="44.89798" lon="0.61099">
        <ele>70</ele>
        <time>2023-04-10T08:39:02Z</time>
      </trkpt>
      <trkpt lat="44.89799" lon="0.61108">
        <ele>70.2</ele>
        <time>2023-04-10T08:39:04Z</time>
      </trkpt>
      <trkpt lat="44.89799" lon="0.61113">
        <ele>70.3</ele>
        <time>2023-04-10T08:39:05Z</time>
      </trkpt>
      <trkpt lat="44.898" lon="0.61117">
        <ele>70.3</ele>
        <time>2023-04-10T08:39:06Z</time>
      </trkpt>
      <trkpt lat="44.89801" lon="0.61127">
        <ele>70.6</ele>
        <time>2023-04-10T08:39:08Z</time>
      </trkpt>
      <trkpt lat="44.89803" lon="0.61137">
        <ele>70.9</ele>
        <time>2023-04-10T08:39:10Z</time>
      </trkpt>
      <trkpt lat="44.89804" lon="0.61142">
        <ele>71</ele>
        <time>2023-04-10T08:39:11Z</time>
      </trkpt>
      <trkpt lat="44.89805" lon="0.61148">
        <ele>71.1</ele>
        <time>2023-04-10T08:39:12Z</time>
      </trkpt>
      <trkpt lat="44.89807" lon="0.61158">
        <ele>71.4</ele>
        <time>2023-04-10T08:39:14Z</time>
      </trkpt>
      <trkpt lat="44.89809" lon="0.61167">
        <ele>71.6</ele>
        <time>2023-04-10T08:39:16Z</time>
      </trkpt>
      <trkpt lat="44.89812" lon="0.61176">
        <ele>71.8</ele>
        <time>2023-04-10T08:39:18Z</time>
      </trkpt>
      <trkpt lat="44.89812" lon="0.61181">
        <ele>72</ele>
        <time>2023-04-10T08:39:19Z</time>
      </trkpt>
      <trkpt lat="44.89814" lon="0.61185">
        <ele>72.1</ele>
        <time>2023-04-10T08:39:20Z</time>
      </trkpt>
      <trkpt lat="44.89817" lon="0.61193">
        <ele>72.3</ele>
        <time>2023-04-10T08:39:22Z</time>
      </trkpt>
      <trkpt lat="44.89818" lon="0.61202">
        <ele>72.4</ele>
        <time>2023-04-10T08:39:24Z</time>
      </trkpt>
      <trkpt lat="44.8982" lon="0.61209">
        <ele>72.6</ele>
        <time>2023-04-10T08:39:26Z</time>
      </trkpt>
      <trkpt lat="44.89823" lon="0.61217">
        <ele>72.7</ele>
        <time>2023-04-10T08:39:28Z</time>
      </trkpt>
      <trkpt lat="44.89825" lon="0.61225">
        <ele>72.8</ele>
        <time>2023-04-10T08:39:30Z</time>
      </trkpt>
      <trkpt lat="44.89827" lon="0.61233">
        <ele>72.9</ele>
        <time>2023-04-10T08:39:32Z</time>
      </trkpt>
      <trkpt lat="44.89828" lon="0.61238">
        <ele>72.9</ele>
        <time>2023-04-10T08:39:33Z</time>
      </trkpt>
      <trkpt lat="44.89829" lon="0.61242">
        <ele>72.9</ele>
        <time>2023-04-10T08:39:34Z</time>
      </trkpt>
      <trkpt lat="44.89832" lon="0.61252">
        <ele>73</ele>
        <time>2023-04-10T08:39:36Z</time>
      </trkpt>
      <trkpt lat="44.89833" lon="0.61257">
        <ele>73</ele>
        <time>2023-04-10T08:39:37Z</time>
      </trkpt>
      <trkpt lat="44.89835" lon="0.61262">
        <ele>73.1</ele>
        <time>2023-04-10T08:39:38Z</time>
      </trkpt>
      <trkpt lat="44.89838" lon="0.61271">
        <ele>73.1</ele>
        <time>2023-04-10T08:39:40Z</time>
      </trkpt>
      <trkpt lat="44.8984" lon="0.61276">
        <ele>73.2</ele>
        <time>2023-04-10T08:39:41Z</time>
      </trkpt>
      <trkpt lat="44.89841" lon="0.6128">
        <ele>73.2</ele>
        <time>2023-04-10T08:39:42Z</time>
      </trkpt>
      <trkpt lat="44.89844" lon="0.61289">
        <ele>73.2</ele>
        <time>2023-04-10T08:39:44Z</time>
      </trkpt>
      <trkpt lat="44.89846" lon="0.613">
        <ele>73.3</ele>
        <time>2023-04-10T08:39:46Z</time>
      </trkpt>
      <trkpt lat="44.89848" lon="0.61306">
        <ele>73.3</ele>
        <time>2023-04-10T08:39:47Z</time>
      </trkpt>
      <trkpt lat="44.89849" lon="0.6131">
        <ele>73.4</ele>
        <time>2023-04-10T08:39:48Z</time>
      </trkpt>
      <trkpt lat="44.89848" lon="0.61318">
        <ele>73.4</ele>
        <time>2023-04-10T08:39:50Z</time>
      </trkpt>
      <trkpt lat="44.8985" lon="0.61327">
        <ele>73.5</ele>
        <time>2023-04-10T08:39:52Z</time>
      </trkpt>
      <trkpt lat="44.89852" lon="0.61336">
        <ele>73.6</ele>
        <time>2023-04-10T08:39:54Z</time>
      </trkpt>
      <trkpt lat="44.89854" lon="0.61344">
        <ele>73.6</ele>
        <time>2023-04-10T08:39:56Z</time>
      </trkpt>
      <trkpt lat="44.89856" lon="0.61354">
        <ele>73.7</ele>
        <time>2023-04-10T08:39:58Z</time>
      </trkpt>
      <trkpt lat="44.89857" lon="0.61365">
        <ele>73.8</ele>
        <time>2023-04-10T08:40:00Z</time>
      </trkpt>
      <trkpt lat="44.89857" lon="0.61371">
        <ele>73.7</ele>
        <time>2023-04-10T08:40:01Z</time>
      </trkpt>
      <trkpt lat="44.89858" lon="0.61377">
        <ele>73.7</ele>
        <time>2023-04-10T08:40:02Z</time>
      </trkpt>
      <trkpt lat="44.89857" lon="0.61391">
        <ele>73.4</ele>
        <time>2023-04-10T08:40:04Z</time>
      </trkpt>
      <trkpt lat="44.89857" lon="0.61405">
        <ele>73.1</ele>
        <time>2023-04-10T08:40:06Z</time>
      </trkpt>
      <trkpt lat="44.89858" lon="0.61412">
        <ele>73</ele>
        <time>2023-04-10T08:40:07Z</time>
      </trkpt>
      <trkpt lat="44.89858" lon="0.61418">
        <ele>72.8</ele>
        <time>2023-04-10T08:40:08Z</time>
      </trkpt>
      <trkpt lat="44.89858" lon="0.61432">
        <ele>72.6</ele>
        <time>2023-04-10T08:40:10Z</time>
      </trkpt>
      <trkpt lat="44.89859" lon="0.61439">
        <ele>72.5</ele>
        <time>2023-04-10T08:40:11Z</time>
      </trkpt>
      <trkpt lat="44.8986" lon="0.61445">
        <ele>72.4</ele>
        <time>2023-04-10T08:40:12Z</time>
      </trkpt>
      <trkpt lat="44.89861" lon="0.61457">
        <ele>72.2</ele>
        <time>2023-04-10T08:40:14Z</time>
      </trkpt>
      <trkpt lat="44.89861" lon="0.6147">
        <ele>72.1</ele>
        <time>2023-04-10T08:40:16Z</time>
      </trkpt>
      <trkpt lat="44.89863" lon="0.61483">
        <ele>72</ele>
        <time>2023-04-10T08:40:18Z</time>
      </trkpt>
      <trkpt lat="44.89864" lon="0.61489">
        <ele>71.9</ele>
        <time>2023-04-10T08:40:19Z</time>
      </trkpt>
      <trkpt lat="44.89865" lon="0.61494">
        <ele>71.9</ele>
        <time>2023-04-10T08:40:20Z</time>
      </trkpt>
      <trkpt lat="44.89868" lon="0.61505">
        <ele>71.9</ele>
        <time>2023-04-10T08:40:22Z</time>
      </trkpt>
      <trkpt lat="44.89871" lon="0.61515">
        <ele>71.9</ele>
        <time>2023-04-10T08:40:24Z</time>
      </trkpt>
      <trkpt lat="44.89875" lon="0.61526">
        <ele>71.9</ele>
        <time>2023-04-10T08:40:26Z</time>
      </trkpt>
      <trkpt lat="44.89881" lon="0.61535">
        <ele>71.9</ele>
        <time>2023-04-10T08:40:28Z</time>
      </trkpt>
      <trkpt lat="44.89884" lon="0.6154">
        <ele>71.9</ele>
        <time>2023-04-10T08:40:29Z</time>
      </trkpt>
      <trkpt lat="44.89887" lon="0.61544">
        <ele>71.9</ele>
        <time>2023-04-10T08:40:30Z</time>
      </trkpt>
      <trkpt lat="44.89892" lon="0.61552">
        <ele>72</ele>
        <time>2023-04-10T08:40:32Z</time>
      </trkpt>
      <trkpt lat="44.89897" lon="0.61557">
        <ele>72.9</ele>
        <time>2023-04-10T08:40:34Z</time>
      </trkpt>
      <trkpt lat="44.89901" lon="0.61561">
        <ele>72.5</ele>
        <time>2023-04-10T08:40:36Z</time>
      </trkpt>
      <trkpt lat="44.89903" lon="0.61562">
        <ele>72.6</ele>
        <time>2023-04-10T08:40:37Z</time>
      </trkpt>
      <trkpt lat="44.89903" lon="0.61563">
        <ele>72.7</ele>
        <time>2023-04-10T08:40:38Z</time>
      </trkpt>
      <trkpt lat="44.90134" lon="0.61442">
        <ele>104.4</ele>
        <time>2023-04-10T08:44:16Z</time>
      </trkpt>
      <trkpt lat="44.90136" lon="0.61444">
        <ele>105.7</ele>
        <time>2023-04-10T08:44:18Z</time>
      </trkpt>
      <trkpt lat="44.90138" lon="0.61446">
        <ele>105.8</ele>
        <time>2023-04-10T08:44:19Z</time>
      </trkpt>
      <trkpt lat="44.90139" lon="0.61446">
        <ele>105.9</ele>
        <time>2023-04-10T08:44:20Z</time>
      </trkpt>
      <trkpt lat="44.90143" lon="0.61446">
        <ele>106.1</ele>
        <time>2023-04-10T08:44:22Z</time>
      </trkpt>
      <trkpt lat="44.90148" lon="0.61445">
        <ele>106.2</ele>
        <time>2023-04-10T08:44:24Z</time>
      </trkpt>
      <trkpt lat="44.90152" lon="0.61444">
        <ele>107.2</ele>
        <time>2023-04-10T08:44:26Z</time>
      </trkpt>
      <trkpt lat="44.90157" lon="0.61443">
        <ele>107.4</ele>
        <time>2023-04-10T08:44:28Z</time>
      </trkpt>
      <trkpt lat="44.90158" lon="0.61442">
        <ele>107.5</ele>
        <time>2023-04-10T08:44:30Z</time>
      </trkpt>
      <trkpt lat="44.90232" lon="0.61352">
        <ele>123.8</ele>
        <time>2023-04-10T08:46:53Z</time>
      </trkpt>
      <trkpt lat="44.90233" lon="0.61351">
        <ele>124.4</ele>
        <time>2023-04-10T08:46:54Z</time>
      </trkpt>
      <trkpt lat="44.90237" lon="0.61348">
        <ele>125.1</ele>
        <time>2023-04-10T08:46:56Z</time>
      </trkpt>
      <trkpt lat="44.90239" lon="0.61345">
        <ele>125.2</ele>
        <time>2023-04-10T08:46:58Z</time>
      </trkpt>
      <trkpt lat="44.90242" lon="0.61343">
        <ele>125.4</ele>
        <time>2023-04-10T08:47:00Z</time>
      </trkpt>
      <trkpt lat="44.90244" lon="0.61341">
        <ele>125.5</ele>
        <time>2023-04-10T08:47:01Z</time>
      </trkpt>
      <trkpt lat="44.90246" lon="0.6134">
        <ele>125.9</ele>
        <time>2023-04-10T08:47:02Z</time>
      </trkpt>
      <trkpt lat="44.90249" lon="0.61337">
        <ele>126</ele>
        <time>2023-04-10T08:47:04Z</time>
      </trkpt>
      <trkpt lat="44.90252" lon="0.61334">
        <ele>126.1</ele>
        <time>2023-04-10T08:47:06Z</time>
      </trkpt>
      <trkpt lat="44.90256" lon="0.61331">
        <ele>126.2</ele>
        <time>2023-04-10T08:47:08Z</time>
      </trkpt>
      <trkpt lat="44.9026" lon="0.61328">
        <ele>126.4</ele>
        <time>2023-04-10T08:47:10Z</time>
      </trkpt>
      <trkpt lat="44.90262" lon="0.61328">
        <ele>126.5</ele>
        <time>2023-04-10T08:47:11Z</time>
      </trkpt>
      <trkpt lat="44.90264" lon="0.61329">
        <ele>126.5</ele>
        <time>2023-04-10T08:47:12Z</time>
      </trkpt>
      <trkpt lat="44.90269" lon="0.61332">
        <ele>126.4</ele>
        <time>2023-04-10T08:47:14Z</time>
      </trkpt>
      <trkpt lat="44.90271" lon="0.61336">
        <ele>126.4</ele>
        <time>2023-04-10T08:47:16Z</time>
      </trkpt>
      <trkpt lat="44.90272" lon="0.61339">
        <ele>126.4</ele>
        <time>2023-04-10T08:47:17Z</time>
      </trkpt>
      <trkpt lat="44.90274" lon="0.61341">
        <ele>126.4</ele>
        <time>2023-04-10T08:47:18Z</time>
      </trkpt>
      <trkpt lat="44.90275" lon="0.61344">
        <ele>126.3</ele>
        <time>2023-04-10T08:47:19Z</time>
      </trkpt>
      <trkpt lat="44.90276" lon="0.61348">
        <ele>126.3</ele>
        <time>2023-04-10T08:47:20Z</time>
      </trkpt>
      <trkpt lat="44.90277" lon="0.61352">
        <ele>126.3</ele>
        <time>2023-04-10T08:47:21Z</time>
      </trkpt>
      <trkpt lat="44.90279" lon="0.61355">
        <ele>126.2</ele>
        <time>2023-04-10T08:47:22Z</time>
      </trkpt>
      <trkpt lat="44.90283" lon="0.61363">
        <ele>126.2</ele>
        <time>2023-04-10T08:47:24Z</time>
      </trkpt>
      <trkpt lat="44.90287" lon="0.61371">
        <ele>126.1</ele>
        <time>2023-04-10T08:47:26Z</time>
      </trkpt>
      <trkpt lat="44.9029" lon="0.61378">
        <ele>126.1</ele>
        <time>2023-04-10T08:47:28Z</time>
      </trkpt>
      <trkpt lat="44.90294" lon="0.61386">
        <ele>126.1</ele>
        <time>2023-04-10T08:47:30Z</time>
      </trkpt>
      <trkpt lat="44.90296" lon="0.6139">
        <ele>126.1</ele>
        <time>2023-04-10T08:47:31Z</time>
      </trkpt>
      <trkpt lat="44.90298" lon="0.61393">
        <ele>126.1</ele>
        <time>2023-04-10T08:47:32Z</time>
      </trkpt>
      <trkpt lat="44.90303" lon="0.61403">
        <ele>126.1</ele>
        <time>2023-04-10T08:47:34Z</time>
      </trkpt>
      <trkpt lat="44.90306" lon="0.61407">
        <ele>126.1</ele>
        <time>2023-04-10T08:47:35Z</time>
      </trkpt>
      <trkpt lat="44.90308" lon="0.61411">
        <ele>126.1</ele>
        <time>2023-04-10T08:47:36Z</time>
      </trkpt>
      <trkpt lat="44.90312" lon="0.61418">
        <ele>126.2</ele>
        <time>2023-04-10T08:47:38Z</time>
      </trkpt>
      <trkpt lat="44.90317" lon="0.61427">
        <ele>126.2</ele>
        <time>2023-04-10T08:47:40Z</time>
      </trkpt>
      <trkpt lat="44.90322" lon="0.61436">
        <ele>126.3</ele>
        <time>2023-04-10T08:47:42Z</time>
      </trkpt>
      <trkpt lat="44.90326" lon="0.61445">
        <ele>126.4</ele>
        <time>2023-04-10T08:47:44Z</time>
      </trkpt>
      <trkpt lat="44.90329" lon="0.61453">
        <ele>126.5</ele>
        <time>2023-04-10T08:47:46Z</time>
      </trkpt>
      <trkpt lat="44.90334" lon="0.6146">
        <ele>126.6</ele>
        <time>2023-04-10T08:47:48Z</time>
      </trkpt>
      <trkpt lat="44.90338" lon="0.61468">
        <ele>126.6</ele>
        <time>2023-04-10T08:47:50Z</time>
      </trkpt>
      <trkpt lat="44.90343" lon="0.61477">
        <ele>126.7</ele>
        <time>2023-04-10T08:47:52Z</time>
      </trkpt>
      <trkpt lat="44.90345" lon="0.61481">
        <ele>126.7</ele>
        <time>2023-04-10T08:47:53Z</time>
      </trkpt>
      <trkpt lat="44.90348" lon="0.61486">
        <ele>126.7</ele>
        <time>2023-04-10T08:47:54Z</time>
      </trkpt>
      <trkpt lat="44.90353" lon="0.61497">
        <ele>126.8</ele>
        <time>2023-04-10T08:47:56Z</time>
      </trkpt>
      <trkpt lat="44.90356" lon="0.61503">
        <ele>126.8</ele>
        <time>2023-04-10T08:47:57Z</time>
      </trkpt>
      <trkpt lat="44.90358" lon="0.61508">
        <ele>126.9</ele>
        <time>2023-04-10T08:47:58Z</time>
      </trkpt>
      <trkpt lat="44.90363" lon="0.6152">
        <ele>127</ele>
        <time>2023-04-10T08:48:00Z</time>
      </trkpt>
      <trkpt lat="44.90368" lon="0.6153">
        <ele>127.1</ele>
        <time>2023-04-10T08:48:02Z</time>
      </trkpt>
      <trkpt lat="44.90372" lon="0.61541">
        <ele>127.3</ele>
        <time>2023-04-10T08:48:04Z</time>
      </trkpt>
      <trkpt lat="44.90374" lon="0.61546">
        <ele>127.3</ele>
        <time>2023-04-10T08:48:05Z</time>
      </trkpt>
      <trkpt lat="44.90376" lon="0.61551">
        <ele>127.4</ele>
        <time>2023-04-10T08:48:06Z</time>
      </trkpt>
      <trkpt lat="44.9038" lon="0.61562">
        <ele>127.6</ele>
        <time>2023-04-10T08:48:08Z</time>
      </trkpt>
      <trkpt lat="44.90384" lon="0.61571">
        <ele>127.8</ele>
        <time>2023-04-10T08:48:10Z</time>
      </trkpt>
      <trkpt lat="44.90388" lon="0.6158">
        <ele>128</ele>
        <time>2023-04-10T08:48:12Z</time>
      </trkpt>
      <trkpt lat="44.90393" lon="0.61588">
        <ele>128.2</ele>
        <time>2023-04-10T08:48:14Z</time>
      </trkpt>
      <trkpt lat="44.90397" lon="0.61596">
        <ele>128.4</ele>
        <time>2023-04-10T08:48:16Z</time>
      </trkpt>
      <trkpt lat="44.90399" lon="0.61601">
        <ele>128.5</ele>
        <time>2023-04-10T08:48:17Z</time>
      </trkpt>
      <trkpt lat="44.90402" lon="0.61606">
        <ele>128.6</ele>
        <time>2023-04-10T08:48:18Z</time>
      </trkpt>
      <trkpt lat="44.90406" lon="0.61615">
        <ele>128.8</ele>
        <time>2023-04-10T08:48:20Z</time>
      </trkpt>
      <trkpt lat="44.90411" lon="0.61624">
        <ele>128.9</ele>
        <time>2023-04-10T08:48:22Z</time>
      </trkpt>
      <trkpt lat="44.90416" lon="0.61633">
        <ele>129</ele>
        <time>2023-04-10T08:48:24Z</time>
      </trkpt>
      <trkpt lat="44.90421" lon="0.61643">
        <ele>129</ele>
        <time>2023-04-10T08:48:26Z</time>
      </trkpt>
      <trkpt lat="44.90423" lon="0.61648">
        <ele>129</ele>
        <time>2023-04-10T08:48:27Z</time>
      </trkpt>
      <trkpt lat="44.90426" lon="0.61653">
        <ele>128.9</ele>
        <time>2023-04-10T08:48:28Z</time>
      </trkpt>
      <trkpt lat="44.90431" lon="0.61663">
        <ele>128.9</ele>
        <time>2023-04-10T08:48:30Z</time>
      </trkpt>
      <trkpt lat="44.90433" lon="0.61668">
        <ele>128.9</ele>
        <time>2023-04-10T08:48:31Z</time>
      </trkpt>
      <trkpt lat="44.90435" lon="0.61674">
        <ele>128.9</ele>
        <time>2023-04-10T08:48:32Z</time>
      </trkpt>
      <trkpt lat="44.90437" lon="0.61679">
        <ele>128.8</ele>
        <time>2023-04-10T08:48:33Z</time>
      </trkpt>
      <trkpt lat="44.90439" lon="0.61684">
        <ele>128.8</ele>
        <time>2023-04-10T08:48:34Z</time>
      </trkpt>
      <trkpt lat="44.90444" lon="0.61694">
        <ele>128.8</ele>
        <time>2023-04-10T08:48:36Z</time>
      </trkpt>
      <trkpt lat="44.90449" lon="0.61704">
        <ele>128.8</ele>
        <time>2023-04-10T08:48:38Z</time>
      </trkpt>
      <trkpt lat="44.90453" lon="0.61714">
        <ele>128.7</ele>
        <time>2023-04-10T08:48:40Z</time>
      </trkpt>
      <trkpt lat="44.90459" lon="0.61723">
        <ele>128.7</ele>
        <time>2023-04-10T08:48:42Z</time>
      </trkpt>
      <trkpt lat="44.90465" lon="0.61733">
        <ele>128.6</ele>
        <time>2023-04-10T08:48:44Z</time>
      </trkpt>
      <trkpt lat="44.90467" lon="0.61738">
        <ele>128.6</ele>
        <time>2023-04-10T08:48:45Z</time>
      </trkpt>
      <trkpt lat="44.9047" lon="0.61744">
        <ele>128.5</ele>
        <time>2023-04-10T08:48:46Z</time>
      </trkpt>
      <trkpt lat="44.90472" lon="0.61749">
        <ele>128.4</ele>
        <time>2023-04-10T08:48:47Z</time>
      </trkpt>
      <trkpt lat="44.90474" lon="0.61755">
        <ele>128.3</ele>
        <time>2023-04-10T08:48:48Z</time>
      </trkpt>
      <trkpt lat="44.90478" lon="0.61768">
        <ele>128.1</ele>
        <time>2023-04-10T08:48:50Z</time>
      </trkpt>
      <trkpt lat="44.9048" lon="0.61775">
        <ele>127.9</ele>
        <time>2023-04-10T08:48:51Z</time>
      </trkpt>
      <trkpt lat="44.90483" lon="0.61781">
        <ele>127.8</ele>
        <time>2023-04-10T08:48:52Z</time>
      </trkpt>
      <trkpt lat="44.90487" lon="0.61793">
        <ele>127.5</ele>
        <time>2023-04-10T08:48:54Z</time>
      </trkpt>
      <trkpt lat="44.90492" lon="0.61805">
        <ele>127.3</ele>
        <time>2023-04-10T08:48:56Z</time>
      </trkpt>
      <trkpt lat="44.90497" lon="0.61817">
        <ele>127</ele>
        <time>2023-04-10T08:48:58Z</time>
      </trkpt>
      <trkpt lat="44.90499" lon="0.61822">
        <ele>126.9</ele>
        <time>2023-04-10T08:48:59Z</time>
      </trkpt>
      <trkpt lat="44.90501" lon="0.61828">
        <ele>126.9</ele>
        <time>2023-04-10T08:49:00Z</time>
      </trkpt>
      <trkpt lat="44.90507" lon="0.61837">
        <ele>126.7</ele>
        <time>2023-04-10T08:49:02Z</time>
      </trkpt>
      <trkpt lat="44.90509" lon="0.61842">
        <ele>126.6</ele>
        <time>2023-04-10T08:49:03Z</time>
      </trkpt>
      <trkpt lat="44.90512" lon="0.61847">
        <ele>126.5</ele>
        <time>2023-04-10T08:49:04Z</time>
      </trkpt>
      <trkpt lat="44.90519" lon="0.61858">
        <ele>126.3</ele>
        <time>2023-04-10T08:49:06Z</time>
      </trkpt>
      <trkpt lat="44.90525" lon="0.61868">
        <ele>126.2</ele>
        <time>2023-04-10T08:49:08Z</time>
      </trkpt>
      <trkpt lat="44.90529" lon="0.61874">
        <ele>126.1</ele>
        <time>2023-04-10T08:49:09Z</time>
      </trkpt>
      <trkpt lat="44.90532" lon="0.6188">
        <ele>126.1</ele>
        <time>2023-04-10T08:49:10Z</time>
      </trkpt>
      <trkpt lat="44.90538" lon="0.61891">
        <ele>126.1</ele>
        <time>2023-04-10T08:49:12Z</time>
      </trkpt>
      <trkpt lat="44.9054" lon="0.61896">
        <ele>126.1</ele>
        <time>2023-04-10T08:49:13Z</time>
      </trkpt>
      <trkpt lat="44.90543" lon="0.61902">
        <ele>126.2</ele>
        <time>2023-04-10T08:49:14Z</time>
      </trkpt>
      <trkpt lat="44.90547" lon="0.61913">
        <ele>126.3</ele>
        <time>2023-04-10T08:49:16Z</time>
      </trkpt>
      <trkpt lat="44.9055" lon="0.61918">
        <ele>126.3</ele>
        <time>2023-04-10T08:49:17Z</time>
      </trkpt>
      <trkpt lat="44.90552" lon="0.61922">
        <ele>126.4</ele>
        <time>2023-04-10T08:49:18Z</time>
      </trkpt>
      <trkpt lat="44.90557" lon="0.61931">
        <ele>126.5</ele>
        <time>2023-04-10T08:49:20Z</time>
      </trkpt>
      <trkpt lat="44.9056" lon="0.61936">
        <ele>126.5</ele>
        <time>2023-04-10T08:49:21Z</time>
      </trkpt>
      <trkpt lat="44.90564" lon="0.61941">
        <ele>126.6</ele>
        <time>2023-04-10T08:49:22Z</time>
      </trkpt>
      <trkpt lat="44.9057" lon="0.6195">
        <ele>126.7</ele>
        <time>2023-04-10T08:49:24Z</time>
      </trkpt>
      <trkpt lat="44.90573" lon="0.61953">
        <ele>126.8</ele>
        <time>2023-04-10T08:49:25Z</time>
      </trkpt>
      <trkpt lat="44.90576" lon="0.61958">
        <ele>126.9</ele>
        <time>2023-04-10T08:49:26Z</time>
      </trkpt>
      <trkpt lat="44.9058" lon="0.61968">
        <ele>127.2</ele>
        <time>2023-04-10T08:49:28Z</time>
      </trkpt>
      <trkpt lat="44.90582" lon="0.61972">
        <ele>127.3</ele>
        <time>2023-04-10T08:49:29Z</time>
      </trkpt>
      <trkpt lat="44.90584" lon="0.61977">
        <ele>127.4</ele>
        <time>2023-04-10T08:49:30Z</time>
      </trkpt>
      <trkpt lat="44.90588" lon="0.61989">
        <ele>127.9</ele>
        <time>2023-04-10T08:49:32Z</time>
      </trkpt>
      <trkpt lat="44.9059" lon="0.61995">
        <ele>128.1</ele>
        <time>2023-04-10T08:49:33Z</time>
      </trkpt>
      <trkpt lat="44.90592" lon="0.62">
        <ele>128.3</ele>
        <time>2023-04-10T08:49:34Z</time>
      </trkpt>
      <trkpt lat="44.90596" lon="0.6201">
        <ele>128.8</ele>
        <time>2023-04-10T08:49:36Z</time>
      </trkpt>
      <trkpt lat="44.906" lon="0.62018">
        <ele>129.1</ele>
        <time>2023-04-10T08:49:38Z</time>
      </trkpt>
      <trkpt lat="44.90603" lon="0.62027">
        <ele>129.6</ele>
        <time>2023-04-10T08:49:40Z</time>
      </trkpt>
      <trkpt lat="44.90607" lon="0.62035">
        <ele>130</ele>
        <time>2023-04-10T08:49:42Z</time>
      </trkpt>
      <trkpt lat="44.90609" lon="0.62038">
        <ele>130.1</ele>
        <time>2023-04-10T08:49:43Z</time>
      </trkpt>
      <trkpt lat="44.90611" lon="0.62043">
        <ele>130.4</ele>
        <time>2023-04-10T08:49:44Z</time>
      </trkpt>
      <trkpt lat="44.90615" lon="0.62049">
        <ele>130.7</ele>
        <time>2023-04-10T08:49:46Z</time>
      </trkpt>
      <trkpt lat="44.90618" lon="0.62053">
        <ele>130.8</ele>
        <time>2023-04-10T08:49:47Z</time>
      </trkpt>
      <trkpt lat="44.9062" lon="0.62058">
        <ele>131</ele>
        <time>2023-04-10T08:49:48Z</time>
      </trkpt>
      <trkpt lat="44.90626" lon="0.62066">
        <ele>131.3</ele>
        <time>2023-04-10T08:49:50Z</time>
      </trkpt>
      <trkpt lat="44.90631" lon="0.62075">
        <ele>131.5</ele>
        <time>2023-04-10T08:49:52Z</time>
      </trkpt>
      <trkpt lat="44.90636" lon="0.62082">
        <ele>131.5</ele>
        <time>2023-04-10T08:49:54Z</time>
      </trkpt>
      <trkpt lat="44.9064" lon="0.62091">
        <ele>131.6</ele>
        <time>2023-04-10T08:49:56Z</time>
      </trkpt>
      <trkpt lat="44.90642" lon="0.62096">
        <ele>131.6</ele>
        <time>2023-04-10T08:49:57Z</time>
      </trkpt>
      <trkpt lat="44.90643" lon="0.621">
        <ele>131.6</ele>
        <time>2023-04-10T08:49:58Z</time>
      </trkpt>
      <trkpt lat="44.90645" lon="0.62112">
        <ele>131.5</ele>
        <time>2023-04-10T08:50:00Z</time>
      </trkpt>
      <trkpt lat="44.9065" lon="0.62123">
        <ele>131.3</ele>
        <time>2023-04-10T08:50:02Z</time>
      </trkpt>
      <trkpt lat="44.90654" lon="0.62135">
        <ele>131.1</ele>
        <time>2023-04-10T08:50:04Z</time>
      </trkpt>
      <trkpt lat="44.90659" lon="0.62147">
        <ele>130.8</ele>
        <time>2023-04-10T08:50:06Z</time>
      </trkpt>
      <trkpt lat="44.90661" lon="0.62154">
        <ele>130.7</ele>
        <time>2023-04-10T08:50:07Z</time>
      </trkpt>
      <trkpt lat="44.90664" lon="0.62161">
        <ele>130.5</ele>
        <time>2023-04-10T08:50:08Z</time>
      </trkpt>
      <trkpt lat="44.90667" lon="0.62168">
        <ele>130.4</ele>
        <time>2023-04-10T08:50:09Z</time>
      </trkpt>
      <trkpt lat="44.9067" lon="0.62175">
        <ele>130.2</ele>
        <time>2023-04-10T08:50:10Z</time>
      </trkpt>
      <trkpt lat="44.90676" lon="0.62188">
        <ele>129.8</ele>
        <time>2023-04-10T08:50:12Z</time>
      </trkpt>
      <trkpt lat="44.90682" lon="0.62202">
        <ele>129.5</ele>
        <time>2023-04-10T08:50:14Z</time>
      </trkpt>
      <trkpt lat="44.90687" lon="0.62213">
        <ele>129.2</ele>
        <time>2023-04-10T08:50:16Z</time>
      </trkpt>
      <trkpt lat="44.90693" lon="0.62226">
        <ele>128.8</ele>
        <time>2023-04-10T08:50:18Z</time>
      </trkpt>
      <trkpt lat="44.90699" lon="0.62239">
        <ele>128.4</ele>
        <time>2023-04-10T08:50:20Z</time>
      </trkpt>
      <trkpt lat="44.90706" lon="0.62252">
        <ele>128</ele>
        <time>2023-04-10T08:50:22Z</time>
      </trkpt>
      <trkpt lat="44.9071" lon="0.62258">
        <ele>127.7</ele>
        <time>2023-04-10T08:50:23Z</time>
      </trkpt>
      <trkpt lat="44.90714" lon="0.62263">
        <ele>127.5</ele>
        <time>2023-04-10T08:50:24Z</time>
      </trkpt>
      <trkpt lat="44.90721" lon="0.62275">
        <ele>127.1</ele>
        <time>2023-04-10T08:50:26Z</time>
      </trkpt>
      <trkpt lat="44.90729" lon="0.62287">
        <ele>126.6</ele>
        <time>2023-04-10T08:50:28Z</time>
      </trkpt>
      <trkpt lat="44.90733" lon="0.62299">
        <ele>126.3</ele>
        <time>2023-04-10T08:50:30Z</time>
      </trkpt>
      <trkpt lat="44.90738" lon="0.62311">
        <ele>126</ele>
        <time>2023-04-10T08:50:32Z</time>
      </trkpt>
      <trkpt lat="44.90743" lon="0.62324">
        <ele>125.8</ele>
        <time>2023-04-10T08:50:34Z</time>
      </trkpt>
      <trkpt lat="44.90747" lon="0.62329">
        <ele>125.7</ele>
        <time>2023-04-10T08:50:35Z</time>
      </trkpt>
      <trkpt lat="44.90753" lon="0.62333">
        <ele>125.6</ele>
        <time>2023-04-10T08:50:36Z</time>
      </trkpt>
      <trkpt lat="44.90758" lon="0.62338">
        <ele>125.6</ele>
        <time>2023-04-10T08:50:37Z</time>
      </trkpt>
      <trkpt lat="44.90761" lon="0.62347">
        <ele>125.5</ele>
        <time>2023-04-10T08:50:38Z</time>
      </trkpt>
      <trkpt lat="44.90768" lon="0.6236">
        <ele>125.6</ele>
        <time>2023-04-10T08:50:40Z</time>
      </trkpt>
      <trkpt lat="44.90774" lon="0.62371">
        <ele>125.7</ele>
        <time>2023-04-10T08:50:42Z</time>
      </trkpt>
      <trkpt lat="44.90779" lon="0.62381">
        <ele>125.9</ele>
        <time>2023-04-10T08:50:44Z</time>
      </trkpt>
      <trkpt lat="44.90783" lon="0.62388">
        <ele>126</ele>
        <time>2023-04-10T08:50:45Z</time>
      </trkpt>
      <trkpt lat="44.90786" lon="0.62395">
        <ele>126.2</ele>
        <time>2023-04-10T08:50:46Z</time>
      </trkpt>
      <trkpt lat="44.90789" lon="0.624">
        <ele>126.3</ele>
        <time>2023-04-10T08:50:47Z</time>
      </trkpt>
      <trkpt lat="44.90792" lon="0.62406">
        <ele>126.5</ele>
        <time>2023-04-10T08:50:48Z</time>
      </trkpt>
      <trkpt lat="44.90797" lon="0.62414">
        <ele>126.8</ele>
        <time>2023-04-10T08:50:50Z</time>
      </trkpt>
      <trkpt lat="44.90801" lon="0.62418">
        <ele>126.9</ele>
        <time>2023-04-10T08:50:51Z</time>
      </trkpt>
      <trkpt lat="44.90803" lon="0.62423">
        <ele>127.1</ele>
        <time>2023-04-10T08:50:52Z</time>
      </trkpt>
      <trkpt lat="44.90808" lon="0.62431">
        <ele>127.4</ele>
        <time>2023-04-10T08:50:54Z</time>
      </trkpt>
      <trkpt lat="44.90813" lon="0.62439">
        <ele>127.7</ele>
        <time>2023-04-10T08:50:56Z</time>
      </trkpt>
      <trkpt lat="44.90816" lon="0.62446">
        <ele>128</ele>
        <time>2023-04-10T08:50:58Z</time>
      </trkpt>
      <trkpt lat="44.90818" lon="0.62454">
        <ele>128.3</ele>
        <time>2023-04-10T08:51:00Z</time>
      </trkpt>
      <trkpt lat="44.90821" lon="0.62463">
        <ele>128.6</ele>
        <time>2023-04-10T08:51:02Z</time>
      </trkpt>
      <trkpt lat="44.90823" lon="0.62467">
        <ele>128.7</ele>
        <time>2023-04-10T08:51:03Z</time>
      </trkpt>
      <trkpt lat="44.90825" lon="0.62471">
        <ele>128.9</ele>
        <time>2023-04-10T08:51:04Z</time>
      </trkpt>
      <trkpt lat="44.90829" lon="0.6248">
        <ele>129.1</ele>
        <time>2023-04-10T08:51:06Z</time>
      </trkpt>
      <trkpt lat="44.90833" lon="0.62487">
        <ele>129.3</ele>
        <time>2023-04-10T08:51:08Z</time>
      </trkpt>
      <trkpt lat="44.90839" lon="0.62494">
        <ele>129.6</ele>
        <time>2023-04-10T08:51:10Z</time>
      </trkpt>
      <trkpt lat="44.90842" lon="0.62503">
        <ele>129.8</ele>
        <time>2023-04-10T08:51:12Z</time>
      </trkpt>
      <trkpt lat="44.90844" lon="0.62506">
        <ele>129.9</ele>
        <time>2023-04-10T08:51:13Z</time>
      </trkpt>
      <trkpt lat="44.90846" lon="0.62511">
        <ele>130</ele>
        <time>2023-04-10T08:51:14Z</time>
      </trkpt>
      <trkpt lat="44.9085" lon="0.62519">
        <ele>130.2</ele>
        <time>2023-04-10T08:51:16Z</time>
      </trkpt>
      <trkpt lat="44.90854" lon="0.62528">
        <ele>130.3</ele>
        <time>2023-04-10T08:51:18Z</time>
      </trkpt>
      <trkpt lat="44.90857" lon="0.62537">
        <ele>130.5</ele>
        <time>2023-04-10T08:51:20Z</time>
      </trkpt>
      <trkpt lat="44.90859" lon="0.62545">
        <ele>130.7</ele>
        <time>2023-04-10T08:51:22Z</time>
      </trkpt>
      <trkpt lat="44.90862" lon="0.62549">
        <ele>130.9</ele>
        <time>2023-04-10T08:51:23Z</time>
      </trkpt>
      <trkpt lat="44.90864" lon="0.62554">
        <ele>131</ele>
        <time>2023-04-10T08:51:24Z</time>
      </trkpt>
      <trkpt lat="44.90869" lon="0.62562">
        <ele>131.1</ele>
        <time>2023-04-10T08:51:26Z</time>
      </trkpt>
      <trkpt lat="44.90873" lon="0.62571">
        <ele>131.3</ele>
        <time>2023-04-10T08:51:28Z</time>
      </trkpt>
      <trkpt lat="44.90874" lon="0.62575">
        <ele>131.3</ele>
        <time>2023-04-10T08:51:29Z</time>
      </trkpt>
      <trkpt lat="44.90876" lon="0.62579">
        <ele>131.4</ele>
        <time>2023-04-10T08:51:30Z</time>
      </trkpt>
      <trkpt lat="44.90878" lon="0.62585">
        <ele>131.5</ele>
        <time>2023-04-10T08:51:32Z</time>
      </trkpt>
      <trkpt lat="44.90884" lon="0.62591">
        <ele>131.7</ele>
        <time>2023-04-10T08:51:34Z</time>
      </trkpt>
      <trkpt lat="44.90886" lon="0.62595">
        <ele>131.7</ele>
        <time>2023-04-10T08:51:35Z</time>
      </trkpt>
      <trkpt lat="44.90888" lon="0.62599">
        <ele>131.8</ele>
        <time>2023-04-10T08:51:36Z</time>
      </trkpt>
      <trkpt lat="44.90892" lon="0.62606">
        <ele>132</ele>
        <time>2023-04-10T08:51:38Z</time>
      </trkpt>
      <trkpt lat="44.90895" lon="0.62612">
        <ele>132.2</ele>
        <time>2023-04-10T08:51:40Z</time>
      </trkpt>
      <trkpt lat="44.90897" lon="0.62616">
        <ele>132.3</ele>
        <time>2023-04-10T08:51:41Z</time>
      </trkpt>
      <trkpt lat="44.90897" lon="0.6262">
        <ele>132.4</ele>
        <time>2023-04-10T08:51:42Z</time>
      </trkpt>
      <trkpt lat="44.90901" lon="0.62629">
        <ele>132.7</ele>
        <time>2023-04-10T08:51:44Z</time>
      </trkpt>
      <trkpt lat="44.90902" lon="0.62633">
        <ele>132.8</ele>
        <time>2023-04-10T08:51:45Z</time>
      </trkpt>
      <trkpt lat="44.90903" lon="0.62637">
        <ele>132.9</ele>
        <time>2023-04-10T08:51:46Z</time>
      </trkpt>
      <trkpt lat="44.90908" lon="0.62643">
        <ele>133.1</ele>
        <time>2023-04-10T08:51:48Z</time>
      </trkpt>
      <trkpt lat="44.90912" lon="0.62649">
        <ele>133.4</ele>
        <time>2023-04-10T08:51:50Z</time>
      </trkpt>
      <trkpt lat="44.90914" lon="0.62652">
        <ele>133.5</ele>
        <time>2023-04-10T08:51:51Z</time>
      </trkpt>
      <trkpt lat="44.90916" lon="0.62655">
        <ele>133.6</ele>
        <time>2023-04-10T08:51:52Z</time>
      </trkpt>
      <trkpt lat="44.90919" lon="0.62664">
        <ele>134</ele>
        <time>2023-04-10T08:51:54Z</time>
      </trkpt>
      <trkpt lat="44.90923" lon="0.62672">
        <ele>134.3</ele>
        <time>2023-04-10T08:51:56Z</time>
      </trkpt>
      <trkpt lat="44.90926" lon="0.62676">
        <ele>134.5</ele>
        <time>2023-04-10T08:51:58Z</time>
      </trkpt>
      <trkpt lat="44.9093" lon="0.62682">
        <ele>134.8</ele>
        <time>2023-04-10T08:52:00Z</time>
      </trkpt>
      <trkpt lat="44.90934" lon="0.62687">
        <ele>135.1</ele>
        <time>2023-04-10T08:52:02Z</time>
      </trkpt>
      <trkpt lat="44.90937" lon="0.62695">
        <ele>135.4</ele>
        <time>2023-04-10T08:52:04Z</time>
      </trkpt>
      <trkpt lat="44.90941" lon="0.62702">
        <ele>135.8</ele>
        <time>2023-04-10T08:52:06Z</time>
      </trkpt>
      <trkpt lat="44.90944" lon="0.62706">
        <ele>136.6</ele>
        <time>2023-04-10T08:52:08Z</time>
      </trkpt>
      <trkpt lat="44.90948" lon="0.62709">
        <ele>136.8</ele>
        <time>2023-04-10T08:52:10Z</time>
      </trkpt>
      <trkpt lat="44.9095" lon="0.62709">
        <ele>137</ele>
        <time>2023-04-10T08:52:12Z</time>
      </trkpt>
      <trkpt lat="44.90952" lon="0.62712">
        <ele>137.1</ele>
        <time>2023-04-10T08:52:13Z</time>
      </trkpt>
      <trkpt lat="44.90953" lon="0.62714">
        <ele>137.2</ele>
        <time>2023-04-10T08:52:14Z</time>
      </trkpt>
      <trkpt lat="44.90954" lon="0.62718">
        <ele>137.3</ele>
        <time>2023-04-10T08:52:16Z</time>
      </trkpt>
      <trkpt lat="44.90957" lon="0.62722">
        <ele>137.5</ele>
        <time>2023-04-10T08:52:18Z</time>
      </trkpt>
      <trkpt lat="44.90961" lon="0.62728">
        <ele>137.7</ele>
        <time>2023-04-10T08:52:20Z</time>
      </trkpt>
      <trkpt lat="44.90962" lon="0.62733">
        <ele>137.9</ele>
        <time>2023-04-10T08:52:22Z</time>
      </trkpt>
      <trkpt lat="44.90966" lon="0.62738">
        <ele>138</ele>
        <time>2023-04-10T08:52:24Z</time>
      </trkpt>
      <trkpt lat="44.90969" lon="0.62746">
        <ele>138.1</ele>
        <time>2023-04-10T08:52:26Z</time>
      </trkpt>
      <trkpt lat="44.90974" lon="0.62755">
        <ele>138.2</ele>
        <time>2023-04-10T08:52:28Z</time>
      </trkpt>
      <trkpt lat="44.90979" lon="0.62764">
        <ele>138.2</ele>
        <time>2023-04-10T08:52:30Z</time>
      </trkpt>
      <trkpt lat="44.90981" lon="0.62774">
        <ele>138.2</ele>
        <time>2023-04-10T08:52:32Z</time>
      </trkpt>
      <trkpt lat="44.90984" lon="0.62785">
        <ele>138</ele>
        <time>2023-04-10T08:52:34Z</time>
      </trkpt>
      <trkpt lat="44.90987" lon="0.62798">
        <ele>137.9</ele>
        <time>2023-04-10T08:52:36Z</time>
      </trkpt>
      <trkpt lat="44.90988" lon="0.62803">
        <ele>137.8</ele>
        <time>2023-04-10T08:52:37Z</time>
      </trkpt>
      <trkpt lat="44.9099" lon="0.62809">
        <ele>137.7</ele>
        <time>2023-04-10T08:52:38Z</time>
      </trkpt>
      <trkpt lat="44.90995" lon="0.62821">
        <ele>137.4</ele>
        <time>2023-04-10T08:52:40Z</time>
      </trkpt>
      <trkpt lat="44.91002" lon="0.62833">
        <ele>137.2</ele>
        <time>2023-04-10T08:52:42Z</time>
      </trkpt>
      <trkpt lat="44.91008" lon="0.62846">
        <ele>137</ele>
        <time>2023-04-10T08:52:44Z</time>
      </trkpt>
      <trkpt lat="44.91014" lon="0.62858">
        <ele>136.8</ele>
        <time>2023-04-10T08:52:46Z</time>
      </trkpt>
      <trkpt lat="44.91019" lon="0.62869">
        <ele>136.6</ele>
        <time>2023-04-10T08:52:48Z</time>
      </trkpt>
      <trkpt lat="44.91021" lon="0.62875">
        <ele>136.5</ele>
        <time>2023-04-10T08:52:49Z</time>
      </trkpt>
      <trkpt lat="44.91023" lon="0.62881">
        <ele>136.4</ele>
        <time>2023-04-10T08:52:50Z</time>
      </trkpt>
      <trkpt lat="44.91027" lon="0.62891">
        <ele>136.2</ele>
        <time>2023-04-10T08:52:52Z</time>
      </trkpt>
      <trkpt lat="44.91032" lon="0.62903">
        <ele>135.9</ele>
        <time>2023-04-10T08:52:54Z</time>
      </trkpt>
      <trkpt lat="44.91039" lon="0.62918">
        <ele>135.5</ele>
        <time>2023-04-10T08:52:56Z</time>
      </trkpt>
      <trkpt lat="44.91044" lon="0.62934">
        <ele>135.1</ele>
        <time>2023-04-10T08:52:58Z</time>
      </trkpt>
      <trkpt lat="44.9105" lon="0.6295">
        <ele>134.6</ele>
        <time>2023-04-10T08:53:00Z</time>
      </trkpt>
      <trkpt lat="44.91056" lon="0.62965">
        <ele>134.1</ele>
        <time>2023-04-10T08:53:02Z</time>
      </trkpt>
      <trkpt lat="44.91063" lon="0.62979">
        <ele>133.5</ele>
        <time>2023-04-10T08:53:04Z</time>
      </trkpt>
      <trkpt lat="44.91067" lon="0.62987">
        <ele>133.1</ele>
        <time>2023-04-10T08:53:05Z</time>
      </trkpt>
      <trkpt lat="44.91071" lon="0.62995">
        <ele>132.8</ele>
        <time>2023-04-10T08:53:06Z</time>
      </trkpt>
      <trkpt lat="44.91079" lon="0.63013">
        <ele>132</ele>
        <time>2023-04-10T08:53:08Z</time>
      </trkpt>
      <trkpt lat="44.91087" lon="0.63032">
        <ele>131.5</ele>
        <time>2023-04-10T08:53:10Z</time>
      </trkpt>
      <trkpt lat="44.91091" lon="0.6304">
        <ele>131.2</ele>
        <time>2023-04-10T08:53:11Z</time>
      </trkpt>
      <trkpt lat="44.91095" lon="0.6305">
        <ele>130.4</ele>
        <time>2023-04-10T08:53:12Z</time>
      </trkpt>
      <trkpt lat="44.91103" lon="0.63069">
        <ele>128.8</ele>
        <time>2023-04-10T08:53:14Z</time>
      </trkpt>
      <trkpt lat="44.91113" lon="0.63089">
        <ele>126.9</ele>
        <time>2023-04-10T08:53:16Z</time>
      </trkpt>
      <trkpt lat="44.91123" lon="0.6311">
        <ele>125.1</ele>
        <time>2023-04-10T08:53:18Z</time>
      </trkpt>
      <trkpt lat="44.91133" lon="0.63131">
        <ele>123.4</ele>
        <time>2023-04-10T08:53:20Z</time>
      </trkpt>
      <trkpt lat="44.91144" lon="0.63152">
        <ele>122.3</ele>
        <time>2023-04-10T08:53:22Z</time>
      </trkpt>
      <trkpt lat="44.91154" lon="0.63172">
        <ele>122.2</ele>
        <time>2023-04-10T08:53:24Z</time>
      </trkpt>
      <trkpt lat="44.91163" lon="0.63191">
        <ele>122.4</ele>
        <time>2023-04-10T08:53:26Z</time>
      </trkpt>
      <trkpt lat="44.91172" lon="0.63209">
        <ele>122.6</ele>
        <time>2023-04-10T08:53:28Z</time>
      </trkpt>
      <trkpt lat="44.9118" lon="0.63225">
        <ele>122.9</ele>
        <time>2023-04-10T08:53:30Z</time>
      </trkpt>
      <trkpt lat="44.91188" lon="0.63241">
        <ele>123.4</ele>
        <time>2023-04-10T08:53:32Z</time>
      </trkpt>
      <trkpt lat="44.91195" lon="0.63255">
        <ele>123.9</ele>
        <time>2023-04-10T08:53:34Z</time>
      </trkpt>
      <trkpt lat="44.91202" lon="0.63269">
        <ele>124.5</ele>
        <time>2023-04-10T08:53:36Z</time>
      </trkpt>
      <trkpt lat="44.91208" lon="0.63282">
        <ele>125.2</ele>
        <time>2023-04-10T08:53:38Z</time>
      </trkpt>
      <trkpt lat="44.91214" lon="0.63293">
        <ele>126</ele>
        <time>2023-04-10T08:53:40Z</time>
      </trkpt>
      <trkpt lat="44.9122" lon="0.63302">
        <ele>126.7</ele>
        <time>2023-04-10T08:53:42Z</time>
      </trkpt>
      <trkpt lat="44.91223" lon="0.63305">
        <ele>127</ele>
        <time>2023-04-10T08:53:43Z</time>
      </trkpt>
      <trkpt lat="44.91226" lon="0.63305">
        <ele>127</ele>
        <time>2023-04-10T08:53:44Z</time>
      </trkpt>
      <trkpt lat="44.91229" lon="0.63306">
        <ele>127</ele>
        <time>2023-04-10T08:53:45Z</time>
      </trkpt>
      <trkpt lat="44.91233" lon="0.63307">
        <ele>127.7</ele>
        <time>2023-04-10T08:53:46Z</time>
      </trkpt>
      <trkpt lat="44.91237" lon="0.63308">
        <ele>127.7</ele>
        <time>2023-04-10T08:53:47Z</time>
      </trkpt>
      <trkpt lat="44.9124" lon="0.63309">
        <ele>128.8</ele>
        <time>2023-04-10T08:53:48Z</time>
      </trkpt>
      <trkpt lat="44.91248" lon="0.6331">
        <ele>130.1</ele>
        <time>2023-04-10T08:53:50Z</time>
      </trkpt>
      <trkpt lat="44.91251" lon="0.63311">
        <ele>130</ele>
        <time>2023-04-10T08:53:51Z</time>
      </trkpt>
      <trkpt lat="44.91255" lon="0.63313">
        <ele>131.3</ele>
        <time>2023-04-10T08:53:52Z</time>
      </trkpt>
      <trkpt lat="44.91263" lon="0.63315">
        <ele>131.2</ele>
        <time>2023-04-10T08:53:54Z</time>
      </trkpt>
      <trkpt lat="44.91268" lon="0.63316">
        <ele>131.9</ele>
        <time>2023-04-10T08:53:55Z</time>
      </trkpt>
      <trkpt lat="44.91274" lon="0.63317">
        <ele>131.9</ele>
        <time>2023-04-10T08:53:56Z</time>
      </trkpt>
      <trkpt lat="44.91281" lon="0.63319">
        <ele>132.2</ele>
        <time>2023-04-10T08:53:57Z</time>
      </trkpt>
      <trkpt lat="44.91286" lon="0.6332">
        <ele>132.2</ele>
        <time>2023-04-10T08:53:58Z</time>
      </trkpt>
      <trkpt lat="44.91292" lon="0.63322">
        <ele>132.4</ele>
        <time>2023-04-10T08:53:59Z</time>
      </trkpt>
      <trkpt lat="44.91298" lon="0.63324">
        <ele>132.4</ele>
        <time>2023-04-10T08:54:00Z</time>
      </trkpt>
      <trkpt lat="44.91312" lon="0.63328">
        <ele>134.8</ele>
        <time>2023-04-10T08:54:02Z</time>
      </trkpt>
      <trkpt lat="44.91321" lon="0.6333">
        <ele>134.9</ele>
        <time>2023-04-10T08:54:03Z</time>
      </trkpt>
      <trkpt lat="44.91329" lon="0.63332">
        <ele>134.6</ele>
        <time>2023-04-10T08:54:04Z</time>
      </trkpt>
      <trkpt lat="44.91344" lon="0.63336">
        <ele>134.2</ele>
        <time>2023-04-10T08:54:06Z</time>
      </trkpt>
      <trkpt lat="44.9135" lon="0.63338">
        <ele>134.2</ele>
        <time>2023-04-10T08:54:07Z</time>
      </trkpt>
      <trkpt lat="44.91356" lon="0.6334">
        <ele>134</ele>
        <time>2023-04-10T08:54:08Z</time>
      </trkpt>
      <trkpt lat="44.91362" lon="0.63341">
        <ele>134</ele>
        <time>2023-04-10T08:54:09Z</time>
      </trkpt>
      <trkpt lat="44.91367" lon="0.63342">
        <ele>133.9</ele>
        <time>2023-04-10T08:54:10Z</time>
      </trkpt>
      <trkpt lat="44.91373" lon="0.63343">
        <ele>135</ele>
        <time>2023-04-10T08:54:11Z</time>
      </trkpt>
      <trkpt lat="44.91376" lon="0.63345">
        <ele>135</ele>
        <time>2023-04-10T08:54:12Z</time>
      </trkpt>
      <trkpt lat="44.91383" lon="0.63346">
        <ele>134.6</ele>
        <time>2023-04-10T08:54:13Z</time>
      </trkpt>
      <trkpt lat="44.9139" lon="0.63347">
        <ele>134.1</ele>
        <time>2023-04-10T08:54:14Z</time>
      </trkpt>
      <trkpt lat="44.91402" lon="0.6335">
        <ele>133.5</ele>
        <time>2023-04-10T08:54:16Z</time>
      </trkpt>
      <trkpt lat="44.91411" lon="0.63353">
        <ele>133.5</ele>
        <time>2023-04-10T08:54:18Z</time>
      </trkpt>
      <trkpt lat="44.9142" lon="0.63355">
        <ele>132.9</ele>
        <time>2023-04-10T08:54:20Z</time>
      </trkpt>
      <trkpt lat="44.91429" lon="0.63357">
        <ele>132.2</ele>
        <time>2023-04-10T08:54:22Z</time>
      </trkpt>
      <trkpt lat="44.91436" lon="0.63359">
        <ele>132.2</ele>
        <time>2023-04-10T08:54:24Z</time>
      </trkpt>
      <trkpt lat="44.91441" lon="0.6336">
        <ele>132.5</ele>
        <time>2023-04-10T08:54:25Z</time>
      </trkpt>
      <trkpt lat="44.91445" lon="0.63361">
        <ele>132.5</ele>
        <time>2023-04-10T08:54:26Z</time>
      </trkpt>
      <trkpt lat="44.91453" lon="0.63364">
        <ele>131.4</ele>
        <time>2023-04-10T08:54:28Z</time>
      </trkpt>
      <trkpt lat="44.91461" lon="0.63365">
        <ele>131.4</ele>
        <time>2023-04-10T08:54:30Z</time>
      </trkpt>
      <trkpt lat="44.91464" lon="0.63365">
        <ele>130.4</ele>
        <time>2023-04-10T08:54:31Z</time>
      </trkpt>
      <trkpt lat="44.91468" lon="0.63363">
        <ele>130.4</ele>
        <time>2023-04-10T08:54:32Z</time>
      </trkpt>
      <trkpt lat="44.91472" lon="0.6336">
        <ele>129.5</ele>
        <time>2023-04-10T08:54:33Z</time>
      </trkpt>
      <trkpt lat="44.91476" lon="0.63355">
        <ele>128.5</ele>
        <time>2023-04-10T08:54:34Z</time>
      </trkpt>
      <trkpt lat="44.91483" lon="0.63345">
        <ele>128.5</ele>
        <time>2023-04-10T08:54:36Z</time>
      </trkpt>
      <trkpt lat="44.9149" lon="0.63335">
        <ele>127.4</ele>
        <time>2023-04-10T08:54:38Z</time>
      </trkpt>
      <trkpt lat="44.91493" lon="0.63331">
        <ele>127.4</ele>
        <time>2023-04-10T08:54:39Z</time>
      </trkpt>
      <trkpt lat="44.91496" lon="0.63328">
        <ele>127.4</ele>
        <time>2023-04-10T08:54:40Z</time>
      </trkpt>
      <trkpt lat="44.91504" lon="0.63324">
        <ele>125.9</ele>
        <time>2023-04-10T08:54:42Z</time>
      </trkpt>
      <trkpt lat="44.91508" lon="0.63323">
        <ele>125.9</ele>
        <time>2023-04-10T08:54:43Z</time>
      </trkpt>
      <trkpt lat="44.91511" lon="0.63321">
        <ele>124.8</ele>
        <time>2023-04-10T08:54:44Z</time>
      </trkpt>
      <trkpt lat="44.9152" lon="0.63311">
        <ele>124.8</ele>
        <time>2023-04-10T08:54:46Z</time>
      </trkpt>
      <trkpt lat="44.91525" lon="0.63305">
        <ele>123.7</ele>
        <time>2023-04-10T08:54:47Z</time>
      </trkpt>
      <trkpt lat="44.91529" lon="0.633">
        <ele>123.7</ele>
        <time>2023-04-10T08:54:48Z</time>
      </trkpt>
      <trkpt lat="44.91538" lon="0.63292">
        <ele>122.9</ele>
        <time>2023-04-10T08:54:50Z</time>
      </trkpt>
      <trkpt lat="44.91542" lon="0.63287">
        <ele>122.9</ele>
        <time>2023-04-10T08:54:51Z</time>
      </trkpt>
      <trkpt lat="44.91546" lon="0.63283">
        <ele>122.9</ele>
        <time>2023-04-10T08:54:52Z</time>
      </trkpt>
      <trkpt lat="44.91556" lon="0.63274">
        <ele>122.2</ele>
        <time>2023-04-10T08:54:54Z</time>
      </trkpt>
      <trkpt lat="44.91565" lon="0.63263">
        <ele>121.4</ele>
        <time>2023-04-10T08:54:56Z</time>
      </trkpt>
      <trkpt lat="44.91573" lon="0.63255">
        <ele>120.5</ele>
        <time>2023-04-10T08:54:58Z</time>
      </trkpt>
      <trkpt lat="44.91581" lon="0.63247">
        <ele>120.5</ele>
        <time>2023-04-10T08:55:00Z</time>
      </trkpt>
      <trkpt lat="44.9159" lon="0.63238">
        <ele>119.1</ele>
        <time>2023-04-10T08:55:02Z</time>
      </trkpt>
      <trkpt lat="44.91595" lon="0.63235">
        <ele>119</ele>
        <time>2023-04-10T08:55:03Z</time>
      </trkpt>
      <trkpt lat="44.916" lon="0.63231">
        <ele>118.3</ele>
        <time>2023-04-10T08:55:04Z</time>
      </trkpt>
      <trkpt lat="44.91613" lon="0.63227">
        <ele>117.5</ele>
        <time>2023-04-10T08:55:06Z</time>
      </trkpt>
      <trkpt lat="44.91625" lon="0.63221">
        <ele>116.8</ele>
        <time>2023-04-10T08:55:08Z</time>
      </trkpt>
      <trkpt lat="44.91637" lon="0.63219">
        <ele>116.1</ele>
        <time>2023-04-10T08:55:10Z</time>
      </trkpt>
      <trkpt lat="44.91649" lon="0.63222">
        <ele>115.3</ele>
        <time>2023-04-10T08:55:12Z</time>
      </trkpt>
      <trkpt lat="44.91654" lon="0.63222">
        <ele>115.3</ele>
        <time>2023-04-10T08:55:13Z</time>
      </trkpt>
      <trkpt lat="44.9166" lon="0.63221">
        <ele>114.5</ele>
        <time>2023-04-10T08:55:14Z</time>
      </trkpt>
      <trkpt lat="44.9167" lon="0.63218">
        <ele>113.3</ele>
        <time>2023-04-10T08:55:16Z</time>
      </trkpt>
      <trkpt lat="44.9168" lon="0.63209">
        <ele>113.3</ele>
        <time>2023-04-10T08:55:18Z</time>
      </trkpt>
      <trkpt lat="44.91685" lon="0.63203">
        <ele>112.3</ele>
        <time>2023-04-10T08:55:19Z</time>
      </trkpt>
      <trkpt lat="44.91689" lon="0.632">
        <ele>112.3</ele>
        <time>2023-04-10T08:55:20Z</time>
      </trkpt>
      <trkpt lat="44.91692" lon="0.63197">
        <ele>112.3</ele>
        <time>2023-04-10T08:55:21Z</time>
      </trkpt>
      <trkpt lat="44.91694" lon="0.63194">
        <ele>110.7</ele>
        <time>2023-04-10T08:55:22Z</time>
      </trkpt>
      <trkpt lat="44.91698" lon="0.63191">
        <ele>110.7</ele>
        <time>2023-04-10T08:55:23Z</time>
      </trkpt>
      <trkpt lat="44.91702" lon="0.6319">
        <ele>110.7</ele>
        <time>2023-04-10T08:55:24Z</time>
      </trkpt>
      <trkpt lat="44.91706" lon="0.63187">
        <ele>109.6</ele>
        <time>2023-04-10T08:55:25Z</time>
      </trkpt>
      <trkpt lat="44.91711" lon="0.63183">
        <ele>109.5</ele>
        <time>2023-04-10T08:55:26Z</time>
      </trkpt>
      <trkpt lat="44.9172" lon="0.63179">
        <ele>107.7</ele>
        <time>2023-04-10T08:55:28Z</time>
      </trkpt>
      <trkpt lat="44.9173" lon="0.63177">
        <ele>105.7</ele>
        <time>2023-04-10T08:55:30Z</time>
      </trkpt>
      <trkpt lat="44.91742" lon="0.63176">
        <ele>103.6</ele>
        <time>2023-04-10T08:55:32Z</time>
      </trkpt>
      <trkpt lat="44.91752" lon="0.63173">
        <ele>103.5</ele>
        <time>2023-04-10T08:55:34Z</time>
      </trkpt>
      <trkpt lat="44.91756" lon="0.63173">
        <ele>101.2</ele>
        <time>2023-04-10T08:55:35Z</time>
      </trkpt>
      <trkpt lat="44.91761" lon="0.6317">
        <ele>102.8</ele>
        <time>2023-04-10T08:55:36Z</time>
      </trkpt>
      <trkpt lat="44.91772" lon="0.6316">
        <ele>100.9</ele>
        <time>2023-04-10T08:55:38Z</time>
      </trkpt>
      <trkpt lat="44.91784" lon="0.63148">
        <ele>100</ele>
        <time>2023-04-10T08:55:40Z</time>
      </trkpt>
      <trkpt lat="44.91793" lon="0.63135">
        <ele>99.1</ele>
        <time>2023-04-10T08:55:42Z</time>
      </trkpt>
      <trkpt lat="44.91806" lon="0.63128">
        <ele>97.4</ele>
        <time>2023-04-10T08:55:44Z</time>
      </trkpt>
      <trkpt lat="44.91812" lon="0.63123">
        <ele>97.4</ele>
        <time>2023-04-10T08:55:45Z</time>
      </trkpt>
      <trkpt lat="44.91818" lon="0.63118">
        <ele>96.1</ele>
        <time>2023-04-10T08:55:46Z</time>
      </trkpt>
      <trkpt lat="44.91824" lon="0.63113">
        <ele>96.1</ele>
        <time>2023-04-10T08:55:47Z</time>
      </trkpt>
      <trkpt lat="44.91829" lon="0.63106">
        <ele>94.5</ele>
        <time>2023-04-10T08:55:48Z</time>
      </trkpt>
      <trkpt lat="44.91833" lon="0.63099">
        <ele>94.7</ele>
        <time>2023-04-10T08:55:49Z</time>
      </trkpt>
      <trkpt lat="44.91836" lon="0.6309">
        <ele>94.6</ele>
        <time>2023-04-10T08:55:50Z</time>
      </trkpt>
      <trkpt lat="44.91842" lon="0.63076">
        <ele>93.3</ele>
        <time>2023-04-10T08:55:52Z</time>
      </trkpt>
      <trkpt lat="44.91845" lon="0.63069">
        <ele>93.3</ele>
        <time>2023-04-10T08:55:53Z</time>
      </trkpt>
      <trkpt lat="44.91852" lon="0.63064">
        <ele>92.1</ele>
        <time>2023-04-10T08:55:54Z</time>
      </trkpt>
      <trkpt lat="44.91865" lon="0.63053">
        <ele>90.4</ele>
        <time>2023-04-10T08:55:56Z</time>
      </trkpt>
      <trkpt lat="44.91871" lon="0.63048">
        <ele>90.3</ele>
        <time>2023-04-10T08:55:57Z</time>
      </trkpt>
      <trkpt lat="44.91877" lon="0.63046">
        <ele>88.4</ele>
        <time>2023-04-10T08:55:58Z</time>
      </trkpt>
      <trkpt lat="44.91888" lon="0.63041">
        <ele>86.3</ele>
        <time>2023-04-10T08:56:00Z</time>
      </trkpt>
      <trkpt lat="44.919" lon="0.63032">
        <ele>84.9</ele>
        <time>2023-04-10T08:56:02Z</time>
      </trkpt>
      <trkpt lat="44.91906" lon="0.63028">
        <ele>84.9</ele>
        <time>2023-04-10T08:56:03Z</time>
      </trkpt>
      <trkpt lat="44.91911" lon="0.63028">
        <ele>83.6</ele>
        <time>2023-04-10T08:56:04Z</time>
      </trkpt>
      <trkpt lat="44.91915" lon="0.63026">
        <ele>83.6</ele>
        <time>2023-04-10T08:56:05Z</time>
      </trkpt>
      <trkpt lat="44.9192" lon="0.63022">
        <ele>83.5</ele>
        <time>2023-04-10T08:56:06Z</time>
      </trkpt>
      <trkpt lat="44.91931" lon="0.63011">
        <ele>82.8</ele>
        <time>2023-04-10T08:56:08Z</time>
      </trkpt>
      <trkpt lat="44.91945" lon="0.63">
        <ele>82</ele>
        <time>2023-04-10T08:56:10Z</time>
      </trkpt>
      <trkpt lat="44.9196" lon="0.6299">
        <ele>81.2</ele>
        <time>2023-04-10T08:56:12Z</time>
      </trkpt>
      <trkpt lat="44.91968" lon="0.62987">
        <ele>80.8</ele>
        <time>2023-04-10T08:56:13Z</time>
      </trkpt>
      <trkpt lat="44.91975" lon="0.62987">
        <ele>80.5</ele>
        <time>2023-04-10T08:56:14Z</time>
      </trkpt>
      <trkpt lat="44.91982" lon="0.62986">
        <ele>80.2</ele>
        <time>2023-04-10T08:56:15Z</time>
      </trkpt>
      <trkpt lat="44.91989" lon="0.62987">
        <ele>79.8</ele>
        <time>2023-04-10T08:56:16Z</time>
      </trkpt>
      <trkpt lat="44.91997" lon="0.6299">
        <ele>79.5</ele>
        <time>2023-04-10T08:56:17Z</time>
      </trkpt>
      <trkpt lat="44.92005" lon="0.62991">
        <ele>79</ele>
        <time>2023-04-10T08:56:18Z</time>
      </trkpt>
      <trkpt lat="44.92028" lon="0.62989">
        <ele>77.9</ele>
        <time>2023-04-10T08:56:20Z</time>
      </trkpt>
      <trkpt lat="44.92047" lon="0.62993">
        <ele>77.1</ele>
        <time>2023-04-10T08:56:22Z</time>
      </trkpt>
      <trkpt lat="44.92066" lon="0.62998">
        <ele>76.4</ele>
        <time>2023-04-10T08:56:24Z</time>
      </trkpt>
      <trkpt lat="44.92074" lon="0.63003">
        <ele>76.1</ele>
        <time>2023-04-10T08:56:25Z</time>
      </trkpt>
      <trkpt lat="44.9208" lon="0.63009">
        <ele>75.9</ele>
        <time>2023-04-10T08:56:26Z</time>
      </trkpt>
      <trkpt lat="44.9209" lon="0.63021">
        <ele>76.6</ele>
        <time>2023-04-10T08:56:28Z</time>
      </trkpt>
      <trkpt lat="44.921" lon="0.6303">
        <ele>77.1</ele>
        <time>2023-04-10T08:56:30Z</time>
      </trkpt>
      <trkpt lat="44.9211" lon="0.63038">
        <ele>77.6</ele>
        <time>2023-04-10T08:56:32Z</time>
      </trkpt>
      <trkpt lat="44.92114" lon="0.63041">
        <ele>77.8</ele>
        <time>2023-04-10T08:56:33Z</time>
      </trkpt>
      <trkpt lat="44.92117" lon="0.63044">
        <ele>77.9</ele>
        <time>2023-04-10T08:56:34Z</time>
      </trkpt>
      <trkpt lat="44.92126" lon="0.63053">
        <ele>78.4</ele>
        <time>2023-04-10T08:56:36Z</time>
      </trkpt>
      <trkpt lat="44.92131" lon="0.63057">
        <ele>78.6</ele>
        <time>2023-04-10T08:56:37Z</time>
      </trkpt>
      <trkpt lat="44.92136" lon="0.6306">
        <ele>78.9</ele>
        <time>2023-04-10T08:56:38Z</time>
      </trkpt>
      <trkpt lat="44.92141" lon="0.63064">
        <ele>79.1</ele>
        <time>2023-04-10T08:56:39Z</time>
      </trkpt>
      <trkpt lat="44.92145" lon="0.63067">
        <ele>79.3</ele>
        <time>2023-04-10T08:56:40Z</time>
      </trkpt>
      <trkpt lat="44.92155" lon="0.63072">
        <ele>79.6</ele>
        <time>2023-04-10T08:56:42Z</time>
      </trkpt>
      <trkpt lat="44.92164" lon="0.63078">
        <ele>80</ele>
        <time>2023-04-10T08:56:44Z</time>
      </trkpt>
      <trkpt lat="44.92174" lon="0.63083">
        <ele>80.3</ele>
        <time>2023-04-10T08:56:46Z</time>
      </trkpt>
      <trkpt lat="44.92178" lon="0.63085">
        <ele>80.5</ele>
        <time>2023-04-10T08:56:47Z</time>
      </trkpt>
      <trkpt lat="44.92182" lon="0.63088">
        <ele>80.6</ele>
        <time>2023-04-10T08:56:48Z</time>
      </trkpt>
      <trkpt lat="44.92186" lon="0.6309">
        <ele>80.8</ele>
        <time>2023-04-10T08:56:49Z</time>
      </trkpt>
      <trkpt lat="44.9219" lon="0.63093">
        <ele>80.9</ele>
        <time>2023-04-10T08:56:50Z</time>
      </trkpt>
      <trkpt lat="44.92198" lon="0.63097">
        <ele>81.1</ele>
        <time>2023-04-10T08:56:52Z</time>
      </trkpt>
      <trkpt lat="44.92205" lon="0.63101">
        <ele>81.1</ele>
        <time>2023-04-10T08:56:54Z</time>
      </trkpt>
      <trkpt lat="44.92212" lon="0.63105">
        <ele>81.1</ele>
        <time>2023-04-10T08:56:56Z</time>
      </trkpt>
      <trkpt lat="44.9222" lon="0.63108">
        <ele>81.2</ele>
        <time>2023-04-10T08:56:58Z</time>
      </trkpt>
      <trkpt lat="44.92224" lon="0.6311">
        <ele>81.2</ele>
        <time>2023-04-10T08:56:59Z</time>
      </trkpt>
      <trkpt lat="44.92228" lon="0.63112">
        <ele>81.3</ele>
        <time>2023-04-10T08:57:00Z</time>
      </trkpt>
      <trkpt lat="44.92238" lon="0.63117">
        <ele>81.3</ele>
        <time>2023-04-10T08:57:02Z</time>
      </trkpt>
      <trkpt lat="44.92247" lon="0.6312">
        <ele>81.2</ele>
        <time>2023-04-10T08:57:04Z</time>
      </trkpt>
      <trkpt lat="44.92257" lon="0.63125">
        <ele>81.1</ele>
        <time>2023-04-10T08:57:06Z</time>
      </trkpt>
      <trkpt lat="44.92266" lon="0.63131">
        <ele>81</ele>
        <time>2023-04-10T08:57:08Z</time>
      </trkpt>
      <trkpt lat="44.92275" lon="0.63137">
        <ele>80.9</ele>
        <time>2023-04-10T08:57:10Z</time>
      </trkpt>
      <trkpt lat="44.92282" lon="0.63141">
        <ele>80.9</ele>
        <time>2023-04-10T08:57:12Z</time>
      </trkpt>
      <trkpt lat="44.9229" lon="0.63143">
        <ele>80.9</ele>
        <time>2023-04-10T08:57:14Z</time>
      </trkpt>
      <trkpt lat="44.92299" lon="0.63145">
        <ele>80.9</ele>
        <time>2023-04-10T08:57:16Z</time>
      </trkpt>
      <trkpt lat="44.92309" lon="0.63146">
        <ele>81</ele>
        <time>2023-04-10T08:57:18Z</time>
      </trkpt>
      <trkpt lat="44.92313" lon="0.63147">
        <ele>81</ele>
        <time>2023-04-10T08:57:19Z</time>
      </trkpt>
      <trkpt lat="44.92319" lon="0.63148">
        <ele>81</ele>
        <time>2023-04-10T08:57:20Z</time>
      </trkpt>
      <trkpt lat="44.92331" lon="0.63148">
        <ele>80.9</ele>
        <time>2023-04-10T08:57:22Z</time>
      </trkpt>
      <trkpt lat="44.92341" lon="0.63148">
        <ele>80.7</ele>
        <time>2023-04-10T08:57:24Z</time>
      </trkpt>
      <trkpt lat="44.92351" lon="0.63147">
        <ele>80.5</ele>
        <time>2023-04-10T08:57:26Z</time>
      </trkpt>
      <trkpt lat="44.92357" lon="0.63145">
        <ele>80.4</ele>
        <time>2023-04-10T08:57:27Z</time>
      </trkpt>
      <trkpt lat="44.92362" lon="0.63143">
        <ele>80.2</ele>
        <time>2023-04-10T08:57:28Z</time>
      </trkpt>
      <trkpt lat="44.92374" lon="0.63141">
        <ele>80.1</ele>
        <time>2023-04-10T08:57:30Z</time>
      </trkpt>
      <trkpt lat="44.92386" lon="0.63137">
        <ele>79.9</ele>
        <time>2023-04-10T08:57:32Z</time>
      </trkpt>
      <trkpt lat="44.92391" lon="0.63136">
        <ele>79.8</ele>
        <time>2023-04-10T08:57:33Z</time>
      </trkpt>
      <trkpt lat="44.92396" lon="0.63134">
        <ele>79.7</ele>
        <time>2023-04-10T08:57:34Z</time>
      </trkpt>
      <trkpt lat="44.92408" lon="0.63132">
        <ele>79.4</ele>
        <time>2023-04-10T08:57:36Z</time>
      </trkpt>
      <trkpt lat="44.9242" lon="0.6313">
        <ele>79.2</ele>
        <time>2023-04-10T08:57:38Z</time>
      </trkpt>
      <trkpt lat="44.92426" lon="0.63128">
        <ele>79.3</ele>
        <time>2023-04-10T08:57:39Z</time>
      </trkpt>
      <trkpt lat="44.92432" lon="0.63127">
        <ele>79.4</ele>
        <time>2023-04-10T08:57:40Z</time>
      </trkpt>
      <trkpt lat="44.92443" lon="0.63125">
        <ele>79.6</ele>
        <time>2023-04-10T08:57:42Z</time>
      </trkpt>
      <trkpt lat="44.92453" lon="0.63125">
        <ele>79.7</ele>
        <time>2023-04-10T08:57:44Z</time>
      </trkpt>
      <trkpt lat="44.92458" lon="0.63124">
        <ele>79.7</ele>
        <time>2023-04-10T08:57:45Z</time>
      </trkpt>
      <trkpt lat="44.92463" lon="0.63124">
        <ele>79.7</ele>
        <time>2023-04-10T08:57:46Z</time>
      </trkpt>
      <trkpt lat="44.92473" lon="0.63124">
        <ele>79.8</ele>
        <time>2023-04-10T08:57:48Z</time>
      </trkpt>
      <trkpt lat="44.92483" lon="0.63122">
        <ele>79.9</ele>
        <time>2023-04-10T08:57:50Z</time>
      </trkpt>
      <trkpt lat="44.92488" lon="0.63122">
        <ele>79.9</ele>
        <time>2023-04-10T08:57:51Z</time>
      </trkpt>
      <trkpt lat="44.92493" lon="0.63122">
        <ele>79.9</ele>
        <time>2023-04-10T08:57:52Z</time>
      </trkpt>
      <trkpt lat="44.92503" lon="0.6312">
        <ele>79.9</ele>
        <time>2023-04-10T08:57:54Z</time>
      </trkpt>
      <trkpt lat="44.92514" lon="0.63118">
        <ele>79.8</ele>
        <time>2023-04-10T08:57:56Z</time>
      </trkpt>
      <trkpt lat="44.92519" lon="0.63116">
        <ele>79.9</ele>
        <time>2023-04-10T08:57:57Z</time>
      </trkpt>
      <trkpt lat="44.92523" lon="0.63115">
        <ele>79.9</ele>
        <time>2023-04-10T08:57:58Z</time>
      </trkpt>
      <trkpt lat="44.92533" lon="0.63114">
        <ele>80</ele>
        <time>2023-04-10T08:58:00Z</time>
      </trkpt>
      <trkpt lat="44.92543" lon="0.63114">
        <ele>80</ele>
        <time>2023-04-10T08:58:02Z</time>
      </trkpt>
      <trkpt lat="44.92548" lon="0.63114">
        <ele>80.1</ele>
        <time>2023-04-10T08:58:03Z</time>
      </trkpt>
      <trkpt lat="44.92553" lon="0.63114">
        <ele>80.1</ele>
        <time>2023-04-10T08:58:04Z</time>
      </trkpt>
      <trkpt lat="44.92563" lon="0.63114">
        <ele>80.2</ele>
        <time>2023-04-10T08:58:06Z</time>
      </trkpt>
      <trkpt lat="44.92573" lon="0.63113">
        <ele>80.4</ele>
        <time>2023-04-10T08:58:08Z</time>
      </trkpt>
      <trkpt lat="44.92582" lon="0.63112">
        <ele>80.6</ele>
        <time>2023-04-10T08:58:10Z</time>
      </trkpt>
      <trkpt lat="44.92587" lon="0.63111">
        <ele>80.7</ele>
        <time>2023-04-10T08:58:11Z</time>
      </trkpt>
      <trkpt lat="44.92592" lon="0.63111">
        <ele>80.8</ele>
        <time>2023-04-10T08:58:12Z</time>
      </trkpt>
      <trkpt lat="44.92602" lon="0.63109">
        <ele>81.1</ele>
        <time>2023-04-10T08:58:14Z</time>
      </trkpt>
      <trkpt lat="44.92611" lon="0.63108">
        <ele>81.3</ele>
        <time>2023-04-10T08:58:16Z</time>
      </trkpt>
      <trkpt lat="44.92619" lon="0.63105">
        <ele>81.4</ele>
        <time>2023-04-10T08:58:18Z</time>
      </trkpt>
      <trkpt lat="44.92623" lon="0.63104">
        <ele>81.4</ele>
        <time>2023-04-10T08:58:19Z</time>
      </trkpt>
      <trkpt lat="44.92627" lon="0.63103">
        <ele>81.4</ele>
        <time>2023-04-10T08:58:20Z</time>
      </trkpt>
      <trkpt lat="44.92636" lon="0.631">
        <ele>81.5</ele>
        <time>2023-04-10T08:58:22Z</time>
      </trkpt>
      <trkpt lat="44.92644" lon="0.63097">
        <ele>81.5</ele>
        <time>2023-04-10T08:58:24Z</time>
      </trkpt>
      <trkpt lat="44.92649" lon="0.63096">
        <ele>81.5</ele>
        <time>2023-04-10T08:58:25Z</time>
      </trkpt>
      <trkpt lat="44.92653" lon="0.63094">
        <ele>81.5</ele>
        <time>2023-04-10T08:58:26Z</time>
      </trkpt>
      <trkpt lat="44.92662" lon="0.63091">
        <ele>81.6</ele>
        <time>2023-04-10T08:58:28Z</time>
      </trkpt>
      <trkpt lat="44.9267" lon="0.63087">
        <ele>81.8</ele>
        <time>2023-04-10T08:58:30Z</time>
      </trkpt>
      <trkpt lat="44.92678" lon="0.63083">
        <ele>82</ele>
        <time>2023-04-10T08:58:32Z</time>
      </trkpt>
      <trkpt lat="44.92683" lon="0.63081">
        <ele>82.1</ele>
        <time>2023-04-10T08:58:33Z</time>
      </trkpt>
      <trkpt lat="44.92687" lon="0.63078">
        <ele>82.2</ele>
        <time>2023-04-10T08:58:34Z</time>
      </trkpt>
      <trkpt lat="44.92697" lon="0.63071">
        <ele>82.2</ele>
        <time>2023-04-10T08:58:36Z</time>
      </trkpt>
      <trkpt lat="44.92701" lon="0.63069">
        <ele>82.2</ele>
        <time>2023-04-10T08:58:37Z</time>
      </trkpt>
      <trkpt lat="44.92706" lon="0.63067">
        <ele>82.2</ele>
        <time>2023-04-10T08:58:38Z</time>
      </trkpt>
      <trkpt lat="44.92715" lon="0.63063">
        <ele>82.3</ele>
        <time>2023-04-10T08:58:40Z</time>
      </trkpt>
      <trkpt lat="44.92719" lon="0.63061">
        <ele>82.3</ele>
        <time>2023-04-10T08:58:41Z</time>
      </trkpt>
      <trkpt lat="44.92722" lon="0.63059">
        <ele>82.4</ele>
        <time>2023-04-10T08:58:42Z</time>
      </trkpt>
      <trkpt lat="44.92731" lon="0.63056">
        <ele>82.6</ele>
        <time>2023-04-10T08:58:44Z</time>
      </trkpt>
      <trkpt lat="44.92739" lon="0.63052">
        <ele>82.8</ele>
        <time>2023-04-10T08:58:46Z</time>
      </trkpt>
      <trkpt lat="44.92743" lon="0.6305">
        <ele>82.9</ele>
        <time>2023-04-10T08:58:47Z</time>
      </trkpt>
      <trkpt lat="44.92747" lon="0.63049">
        <ele>82.9</ele>
        <time>2023-04-10T08:58:48Z</time>
      </trkpt>
      <trkpt lat="44.92754" lon="0.63046">
        <ele>83.1</ele>
        <time>2023-04-10T08:58:50Z</time>
      </trkpt>
      <trkpt lat="44.92762" lon="0.63043">
        <ele>83.2</ele>
        <time>2023-04-10T08:58:52Z</time>
      </trkpt>
      <trkpt lat="44.9277" lon="0.63039">
        <ele>83.3</ele>
        <time>2023-04-10T08:58:54Z</time>
      </trkpt>
      <trkpt lat="44.92779" lon="0.63036">
        <ele>83.3</ele>
        <time>2023-04-10T08:58:56Z</time>
      </trkpt>
      <trkpt lat="44.92787" lon="0.63035">
        <ele>83.2</ele>
        <time>2023-04-10T08:58:58Z</time>
      </trkpt>
      <trkpt lat="44.92796" lon="0.63034">
        <ele>83.2</ele>
        <time>2023-04-10T08:59:00Z</time>
      </trkpt>
      <trkpt lat="44.92804" lon="0.63033">
        <ele>83.2</ele>
        <time>2023-04-10T08:59:02Z</time>
      </trkpt>
      <trkpt lat="44.92813" lon="0.63031">
        <ele>83.2</ele>
        <time>2023-04-10T08:59:04Z</time>
      </trkpt>
      <trkpt lat="44.92821" lon="0.6303">
        <ele>83.2</ele>
        <time>2023-04-10T08:59:06Z</time>
      </trkpt>
      <trkpt lat="44.92826" lon="0.63029">
        <ele>83.2</ele>
        <time>2023-04-10T08:59:07Z</time>
      </trkpt>
      <trkpt lat="44.9283" lon="0.63029">
        <ele>83.3</ele>
        <time>2023-04-10T08:59:08Z</time>
      </trkpt>
      <trkpt lat="44.92839" lon="0.63029">
        <ele>83.3</ele>
        <time>2023-04-10T08:59:10Z</time>
      </trkpt>
      <trkpt lat="44.92847" lon="0.63027">
        <ele>83.4</ele>
        <time>2023-04-10T08:59:12Z</time>
      </trkpt>
      <trkpt lat="44.92856" lon="0.63026">
        <ele>83.5</ele>
        <time>2023-04-10T08:59:14Z</time>
      </trkpt>
      <trkpt lat="44.92864" lon="0.63025">
        <ele>83.6</ele>
        <time>2023-04-10T08:59:16Z</time>
      </trkpt>
      <trkpt lat="44.92872" lon="0.63025">
        <ele>83.6</ele>
        <time>2023-04-10T08:59:18Z</time>
      </trkpt>
      <trkpt lat="44.92881" lon="0.63024">
        <ele>83.7</ele>
        <time>2023-04-10T08:59:20Z</time>
      </trkpt>
      <trkpt lat="44.9289" lon="0.63024">
        <ele>83.7</ele>
        <time>2023-04-10T08:59:22Z</time>
      </trkpt>
      <trkpt lat="44.92898" lon="0.63024">
        <ele>83.7</ele>
        <time>2023-04-10T08:59:24Z</time>
      </trkpt>
      <trkpt lat="44.92907" lon="0.63023">
        <ele>83.8</ele>
        <time>2023-04-10T08:59:26Z</time>
      </trkpt>
      <trkpt lat="44.92916" lon="0.63024">
        <ele>83.9</ele>
        <time>2023-04-10T08:59:28Z</time>
      </trkpt>
      <trkpt lat="44.92924" lon="0.63024">
        <ele>84</ele>
        <time>2023-04-10T08:59:30Z</time>
      </trkpt>
      <trkpt lat="44.92932" lon="0.63025">
        <ele>83.9</ele>
        <time>2023-04-10T08:59:32Z</time>
      </trkpt>
      <trkpt lat="44.92936" lon="0.63025">
        <ele>83.9</ele>
        <time>2023-04-10T08:59:33Z</time>
      </trkpt>
      <trkpt lat="44.92941" lon="0.63025">
        <ele>83.9</ele>
        <time>2023-04-10T08:59:34Z</time>
      </trkpt>
      <trkpt lat="44.92945" lon="0.63025">
        <ele>83.9</ele>
        <time>2023-04-10T08:59:35Z</time>
      </trkpt>
      <trkpt lat="44.92949" lon="0.63026">
        <ele>84</ele>
        <time>2023-04-10T08:59:36Z</time>
      </trkpt>
      <trkpt lat="44.92958" lon="0.63028">
        <ele>84.1</ele>
        <time>2023-04-10T08:59:38Z</time>
      </trkpt>
      <trkpt lat="44.92966" lon="0.6303">
        <ele>84.1</ele>
        <time>2023-04-10T08:59:40Z</time>
      </trkpt>
      <trkpt lat="44.92974" lon="0.63033">
        <ele>84</ele>
        <time>2023-04-10T08:59:42Z</time>
      </trkpt>
      <trkpt lat="44.92982" lon="0.63035">
        <ele>83.8</ele>
        <time>2023-04-10T08:59:44Z</time>
      </trkpt>
      <trkpt lat="44.9299" lon="0.63038">
        <ele>83.7</ele>
        <time>2023-04-10T08:59:46Z</time>
      </trkpt>
      <trkpt lat="44.92998" lon="0.6304">
        <ele>83.6</ele>
        <time>2023-04-10T08:59:48Z</time>
      </trkpt>
      <trkpt lat="44.93002" lon="0.63041">
        <ele>83.6</ele>
        <time>2023-04-10T08:59:49Z</time>
      </trkpt>
      <trkpt lat="44.93006" lon="0.63041">
        <ele>83.5</ele>
        <time>2023-04-10T08:59:50Z</time>
      </trkpt>
      <trkpt lat="44.93012" lon="0.63045">
        <ele>83.5</ele>
        <time>2023-04-10T08:59:52Z</time>
      </trkpt>
      <trkpt lat="44.93014" lon="0.63048">
        <ele>83.5</ele>
        <time>2023-04-10T08:59:53Z</time>
      </trkpt>
      <trkpt lat="44.93015" lon="0.63052">
        <ele>84.8</ele>
        <time>2023-04-10T08:59:54Z</time>
      </trkpt>
      <trkpt lat="44.93014" lon="0.63059">
        <ele>85.5</ele>
        <time>2023-04-10T08:59:56Z</time>
      </trkpt>
      <trkpt lat="44.93013" lon="0.63062">
        <ele>85.7</ele>
        <time>2023-04-10T08:59:57Z</time>
      </trkpt>
      <trkpt lat="44.93012" lon="0.63064">
        <ele>85.9</ele>
        <time>2023-04-10T08:59:58Z</time>
      </trkpt>
      <trkpt lat="44.93011" lon="0.63068">
        <ele>86.3</ele>
        <time>2023-04-10T09:00:00Z</time>
      </trkpt>
      <trkpt lat="44.93008" lon="0.63073">
        <ele>86.8</ele>
        <time>2023-04-10T09:00:02Z</time>
      </trkpt>
      <trkpt lat="44.93007" lon="0.63075">
        <ele>87</ele>
        <time>2023-04-10T09:00:03Z</time>
      </trkpt>
      <trkpt lat="44.93007" lon="0.63077">
        <ele>87.2</ele>
        <time>2023-04-10T09:00:04Z</time>
      </trkpt>
      <trkpt lat="44.93005" lon="0.63082">
        <ele>87.6</ele>
        <time>2023-04-10T09:00:06Z</time>
      </trkpt>
      <trkpt lat="44.93003" lon="0.63086">
        <ele>88.1</ele>
        <time>2023-04-10T09:00:08Z</time>
      </trkpt>
      <trkpt lat="44.93002" lon="0.63091">
        <ele>88.5</ele>
        <time>2023-04-10T09:00:10Z</time>
      </trkpt>
      <trkpt lat="44.93001" lon="0.63092">
        <ele>88.6</ele>
        <time>2023-04-10T09:00:11Z</time>
      </trkpt>
      <trkpt lat="44.93001" lon="0.63094">
        <ele>88.8</ele>
        <time>2023-04-10T09:00:12Z</time>
      </trkpt>
      <trkpt lat="44.92999" lon="0.63098">
        <ele>89.2</ele>
        <time>2023-04-10T09:00:14Z</time>
      </trkpt>
      <trkpt lat="44.92997" lon="0.63103">
        <ele>89.7</ele>
        <time>2023-04-10T09:00:16Z</time>
      </trkpt>
      <trkpt lat="44.92996" lon="0.63108">
        <ele>90.1</ele>
        <time>2023-04-10T09:00:18Z</time>
      </trkpt>
      <trkpt lat="44.92994" lon="0.63112">
        <ele>90.5</ele>
        <time>2023-04-10T09:00:20Z</time>
      </trkpt>
      <trkpt lat="44.92992" lon="0.63117">
        <ele>91</ele>
        <time>2023-04-10T09:00:22Z</time>
      </trkpt>
      <trkpt lat="44.92991" lon="0.63122">
        <ele>91.4</ele>
        <time>2023-04-10T09:00:24Z</time>
      </trkpt>
      <trkpt lat="44.92989" lon="0.63126">
        <ele>91.9</ele>
        <time>2023-04-10T09:00:26Z</time>
      </trkpt>
      <trkpt lat="44.92989" lon="0.63129">
        <ele>92.1</ele>
        <time>2023-04-10T09:00:27Z</time>
      </trkpt>
      <trkpt lat="44.92988" lon="0.63131">
        <ele>92.3</ele>
        <time>2023-04-10T09:00:28Z</time>
      </trkpt>
      <trkpt lat="44.92986" lon="0.63135">
        <ele>92.7</ele>
        <time>2023-04-10T09:00:30Z</time>
      </trkpt>
      <trkpt lat="44.92985" lon="0.6314">
        <ele>93.1</ele>
        <time>2023-04-10T09:00:32Z</time>
      </trkpt>
      <trkpt lat="44.92983" lon="0.63145">
        <ele>93.6</ele>
        <time>2023-04-10T09:00:34Z</time>
      </trkpt>
      <trkpt lat="44.92981" lon="0.63149">
        <ele>94</ele>
        <time>2023-04-10T09:00:36Z</time>
      </trkpt>
      <trkpt lat="44.9298" lon="0.63154">
        <ele>94.5</ele>
        <time>2023-04-10T09:00:38Z</time>
      </trkpt>
      <trkpt lat="44.92979" lon="0.63156">
        <ele>94.6</ele>
        <time>2023-04-10T09:00:39Z</time>
      </trkpt>
      <trkpt lat="44.92978" lon="0.63158">
        <ele>94.8</ele>
        <time>2023-04-10T09:00:40Z</time>
      </trkpt>
      <trkpt lat="44.92977" lon="0.63163">
        <ele>95.3</ele>
        <time>2023-04-10T09:00:42Z</time>
      </trkpt>
      <trkpt lat="44.92976" lon="0.63168">
        <ele>95.7</ele>
        <time>2023-04-10T09:00:44Z</time>
      </trkpt>
      <trkpt lat="44.92974" lon="0.63172">
        <ele>96.2</ele>
        <time>2023-04-10T09:00:46Z</time>
      </trkpt>
      <trkpt lat="44.92973" lon="0.63177">
        <ele>96.6</ele>
        <time>2023-04-10T09:00:48Z</time>
      </trkpt>
      <trkpt lat="44.92972" lon="0.63179">
        <ele>96.8</ele>
        <time>2023-04-10T09:00:49Z</time>
      </trkpt>
      <trkpt lat="44.92971" lon="0.63181">
        <ele>96.9</ele>
        <time>2023-04-10T09:00:50Z</time>
      </trkpt>
      <trkpt lat="44.9297" lon="0.63185">
        <ele>97.3</ele>
        <time>2023-04-10T09:00:52Z</time>
      </trkpt>
      <trkpt lat="44.92968" lon="0.63189">
        <ele>97.7</ele>
        <time>2023-04-10T09:00:54Z</time>
      </trkpt>
      <trkpt lat="44.92967" lon="0.63193">
        <ele>98.1</ele>
        <time>2023-04-10T09:00:56Z</time>
      </trkpt>
      <trkpt lat="44.92966" lon="0.63197">
        <ele>98.5</ele>
        <time>2023-04-10T09:00:58Z</time>
      </trkpt>
      <trkpt lat="44.92965" lon="0.63201">
        <ele>98.8</ele>
        <time>2023-04-10T09:01:00Z</time>
      </trkpt>
      <trkpt lat="44.92964" lon="0.63205">
        <ele>99.2</ele>
        <time>2023-04-10T09:01:02Z</time>
      </trkpt>
      <trkpt lat="44.92962" lon="0.63209">
        <ele>99.5</ele>
        <time>2023-04-10T09:01:04Z</time>
      </trkpt>
      <trkpt lat="44.92962" lon="0.63212">
        <ele>99.9</ele>
        <time>2023-04-10T09:01:06Z</time>
      </trkpt>
      <trkpt lat="44.9296" lon="0.63216">
        <ele>100.2</ele>
        <time>2023-04-10T09:01:08Z</time>
      </trkpt>
      <trkpt lat="44.92959" lon="0.63219">
        <ele>100.5</ele>
        <time>2023-04-10T09:01:10Z</time>
      </trkpt>
      <trkpt lat="44.92958" lon="0.63222">
        <ele>100.8</ele>
        <time>2023-04-10T09:01:12Z</time>
      </trkpt>
      <trkpt lat="44.92957" lon="0.63225">
        <ele>101.1</ele>
        <time>2023-04-10T09:01:14Z</time>
      </trkpt>
      <trkpt lat="44.92956" lon="0.63227">
        <ele>101.3</ele>
        <time>2023-04-10T09:01:15Z</time>
      </trkpt>
      <trkpt lat="44.92955" lon="0.63229">
        <ele>101.4</ele>
        <time>2023-04-10T09:01:16Z</time>
      </trkpt>
      <trkpt lat="44.92954" lon="0.63232">
        <ele>101.7</ele>
        <time>2023-04-10T09:01:18Z</time>
      </trkpt>
      <trkpt lat="44.92953" lon="0.63235">
        <ele>102</ele>
        <time>2023-04-10T09:01:20Z</time>
      </trkpt>
      <trkpt lat="44.92952" lon="0.63238">
        <ele>102.3</ele>
        <time>2023-04-10T09:01:22Z</time>
      </trkpt>
      <trkpt lat="44.92951" lon="0.63241">
        <ele>102.6</ele>
        <time>2023-04-10T09:01:24Z</time>
      </trkpt>
      <trkpt lat="44.92949" lon="0.63244">
        <ele>102.9</ele>
        <time>2023-04-10T09:01:26Z</time>
      </trkpt>
      <trkpt lat="44.92948" lon="0.63246">
        <ele>103.1</ele>
        <time>2023-04-10T09:01:28Z</time>
      </trkpt>
      <trkpt lat="44.92948" lon="0.63248">
        <ele>103.3</ele>
        <time>2023-04-10T09:01:29Z</time>
      </trkpt>
      <trkpt lat="44.92947" lon="0.63249">
        <ele>103.4</ele>
        <time>2023-04-10T09:01:30Z</time>
      </trkpt>
      <trkpt lat="44.92946" lon="0.63252">
        <ele>103.6</ele>
        <time>2023-04-10T09:01:32Z</time>
      </trkpt>
      <trkpt lat="44.92946" lon="0.63253">
        <ele>103.8</ele>
        <time>2023-04-10T09:01:33Z</time>
      </trkpt>
      <trkpt lat="44.92945" lon="0.63254">
        <ele>103.9</ele>
        <time>2023-04-10T09:01:34Z</time>
      </trkpt>
      <trkpt lat="44.92944" lon="0.63257">
        <ele>104.1</ele>
        <time>2023-04-10T09:01:36Z</time>
      </trkpt>
      <trkpt lat="44.92944" lon="0.63259">
        <ele>104.3</ele>
        <time>2023-04-10T09:01:38Z</time>
      </trkpt>
      <trkpt lat="44.92944" lon="0.63262">
        <ele>104.6</ele>
        <time>2023-04-10T09:01:40Z</time>
      </trkpt>
      <trkpt lat="44.92942" lon="0.63265">
        <ele>104.9</ele>
        <time>2023-04-10T09:01:42Z</time>
      </trkpt>
      <trkpt lat="44.92942" lon="0.63267">
        <ele>105.1</ele>
        <time>2023-04-10T09:01:44Z</time>
      </trkpt>
      <trkpt lat="44.92941" lon="0.63268">
        <ele>105.2</ele>
        <time>2023-04-10T09:01:46Z</time>
      </trkpt>
      <trkpt lat="44.9294" lon="0.63271">
        <ele>105.4</ele>
        <time>2023-04-10T09:01:48Z</time>
      </trkpt>
      <trkpt lat="44.92939" lon="0.63273">
        <ele>105.7</ele>
        <time>2023-04-10T09:01:50Z</time>
      </trkpt>
      <trkpt lat="44.92937" lon="0.63275">
        <ele>106</ele>
        <time>2023-04-10T09:01:52Z</time>
      </trkpt>
      <trkpt lat="44.92935" lon="0.63277">
        <ele>106.2</ele>
        <time>2023-04-10T09:01:54Z</time>
      </trkpt>
      <trkpt lat="44.92934" lon="0.6328">
        <ele>106.5</ele>
        <time>2023-04-10T09:01:56Z</time>
      </trkpt>
      <trkpt lat="44.92933" lon="0.63281">
        <ele>106.6</ele>
        <time>2023-04-10T09:01:58Z</time>
      </trkpt>
      <trkpt lat="44.92932" lon="0.63283">
        <ele>106.9</ele>
        <time>2023-04-10T09:02:00Z</time>
      </trkpt>
      <trkpt lat="44.9293" lon="0.63285">
        <ele>107.1</ele>
        <time>2023-04-10T09:02:02Z</time>
      </trkpt>
      <trkpt lat="44.92929" lon="0.63287">
        <ele>107.4</ele>
        <time>2023-04-10T09:02:04Z</time>
      </trkpt>
      <trkpt lat="44.92928" lon="0.63288">
        <ele>107.5</ele>
        <time>2023-04-10T09:02:05Z</time>
      </trkpt>
      <trkpt lat="44.92927" lon="0.63288">
        <ele>107.6</ele>
        <time>2023-04-10T09:02:06Z</time>
      </trkpt>
      <trkpt lat="44.92925" lon="0.6329">
        <ele>107.8</ele>
        <time>2023-04-10T09:02:08Z</time>
      </trkpt>
      <trkpt lat="44.92925" lon="0.6329">
        <ele>107.9</ele>
        <time>2023-04-10T09:02:09Z</time>
      </trkpt>
      <trkpt lat="44.92924" lon="0.63292">
        <ele>108.1</ele>
        <time>2023-04-10T09:02:10Z</time>
      </trkpt>
      <trkpt lat="44.92922" lon="0.63294">
        <ele>108.4</ele>
        <time>2023-04-10T09:02:12Z</time>
      </trkpt>
      <trkpt lat="44.92922" lon="0.63296">
        <ele>108.5</ele>
        <time>2023-04-10T09:02:13Z</time>
      </trkpt>
      <trkpt lat="44.92921" lon="0.63297">
        <ele>108.7</ele>
        <time>2023-04-10T09:02:14Z</time>
      </trkpt>
      <trkpt lat="44.92919" lon="0.633">
        <ele>108.9</ele>
        <time>2023-04-10T09:02:16Z</time>
      </trkpt>
      <trkpt lat="44.92918" lon="0.63301">
        <ele>109.1</ele>
        <time>2023-04-10T09:02:18Z</time>
      </trkpt>
      <trkpt lat="44.92917" lon="0.63302">
        <ele>109.3</ele>
        <time>2023-04-10T09:02:20Z</time>
      </trkpt>
      <trkpt lat="44.92915" lon="0.63304">
        <ele>109.6</ele>
        <time>2023-04-10T09:02:22Z</time>
      </trkpt>
      <trkpt lat="44.92913" lon="0.63305">
        <ele>109.8</ele>
        <time>2023-04-10T09:02:24Z</time>
      </trkpt>
      <trkpt lat="44.92912" lon="0.63307">
        <ele>110</ele>
        <time>2023-04-10T09:02:26Z</time>
      </trkpt>
      <trkpt lat="44.92911" lon="0.6331">
        <ele>110.3</ele>
        <time>2023-04-10T09:02:28Z</time>
      </trkpt>
      <trkpt lat="44.92909" lon="0.63313">
        <ele>110.6</ele>
        <time>2023-04-10T09:02:30Z</time>
      </trkpt>
      <trkpt lat="44.92908" lon="0.63315">
        <ele>110.9</ele>
        <time>2023-04-10T09:02:32Z</time>
      </trkpt>
      <trkpt lat="44.92906" lon="0.63317">
        <ele>111.1</ele>
        <time>2023-04-10T09:02:34Z</time>
      </trkpt>
      <trkpt lat="44.92905" lon="0.63319">
        <ele>111.3</ele>
        <time>2023-04-10T09:02:36Z</time>
      </trkpt>
      <trkpt lat="44.92903" lon="0.63321">
        <ele>111.6</ele>
        <time>2023-04-10T09:02:38Z</time>
      </trkpt>
      <trkpt lat="44.92902" lon="0.63322">
        <ele>111.8</ele>
        <time>2023-04-10T09:02:40Z</time>
      </trkpt>
      <trkpt lat="44.92901" lon="0.63324">
        <ele>112</ele>
        <time>2023-04-10T09:02:42Z</time>
      </trkpt>
      <trkpt lat="44.92899" lon="0.63326">
        <ele>112.3</ele>
        <time>2023-04-10T09:02:44Z</time>
      </trkpt>
      <trkpt lat="44.92898" lon="0.63329">
        <ele>112.5</ele>
        <time>2023-04-10T09:02:46Z</time>
      </trkpt>
      <trkpt lat="44.92897" lon="0.63331">
        <ele>112.8</ele>
        <time>2023-04-10T09:02:48Z</time>
      </trkpt>
      <trkpt lat="44.92896" lon="0.63332">
        <ele>112.9</ele>
        <time>2023-04-10T09:02:49Z</time>
      </trkpt>
      <trkpt lat="44.92895" lon="0.63333">
        <ele>113</ele>
        <time>2023-04-10T09:02:50Z</time>
      </trkpt>
      <trkpt lat="44.92894" lon="0.63336">
        <ele>113.3</ele>
        <time>2023-04-10T09:02:52Z</time>
      </trkpt>
      <trkpt lat="44.92893" lon="0.63337">
        <ele>113.4</ele>
        <time>2023-04-10T09:02:54Z</time>
      </trkpt>
      <trkpt lat="44.92892" lon="0.63339">
        <ele>113.6</ele>
        <time>2023-04-10T09:02:55Z</time>
      </trkpt>
      <trkpt lat="44.92892" lon="0.6334">
        <ele>113.7</ele>
        <time>2023-04-10T09:02:56Z</time>
      </trkpt>
      <trkpt lat="44.9289" lon="0.63343">
        <ele>114.1</ele>
        <time>2023-04-10T09:02:58Z</time>
      </trkpt>
      <trkpt lat="44.92889" lon="0.63345">
        <ele>114.3</ele>
        <time>2023-04-10T09:03:00Z</time>
      </trkpt>
      <trkpt lat="44.92889" lon="0.63347">
        <ele>114.4</ele>
        <time>2023-04-10T09:03:01Z</time>
      </trkpt>
      <trkpt lat="44.92889" lon="0.63347">
        <ele>114.4</ele>
        <time>2023-04-10T09:03:02Z</time>
      </trkpt>
      <trkpt lat="44.92888" lon="0.63349">
        <ele>114.7</ele>
        <time>2023-04-10T09:03:04Z</time>
      </trkpt>
      <trkpt lat="44.92887" lon="0.6335">
        <ele>114.8</ele>
        <time>2023-04-10T09:03:05Z</time>
      </trkpt>
      <trkpt lat="44.92887" lon="0.63352">
        <ele>114.9</ele>
        <time>2023-04-10T09:03:06Z</time>
      </trkpt>
      <trkpt lat="44.92887" lon="0.63353">
        <ele>115</ele>
        <time>2023-04-10T09:03:07Z</time>
      </trkpt>
      <trkpt lat="44.92886" lon="0.63355">
        <ele>115.2</ele>
        <time>2023-04-10T09:03:08Z</time>
      </trkpt>
      <trkpt lat="44.92886" lon="0.63356">
        <ele>115.3</ele>
        <time>2023-04-10T09:03:10Z</time>
      </trkpt>
      <trkpt lat="44.92885" lon="0.63359">
        <ele>115.6</ele>
        <time>2023-04-10T09:03:12Z</time>
      </trkpt>
      <trkpt lat="44.92885" lon="0.6336">
        <ele>115.6</ele>
        <time>2023-04-10T09:03:13Z</time>
      </trkpt>
      <trkpt lat="44.9286" lon="0.63504">
        <ele>128.9</ele>
        <time>2023-04-10T09:05:22Z</time>
      </trkpt>
      <trkpt lat="44.92857" lon="0.63505">
        <ele>129</ele>
        <time>2023-04-10T09:05:24Z</time>
      </trkpt>
      <trkpt lat="44.92855" lon="0.63506">
        <ele>129</ele>
        <time>2023-04-10T09:05:26Z</time>
      </trkpt>
      <trkpt lat="44.92852" lon="0.63507">
        <ele>129.2</ele>
        <time>2023-04-10T09:05:28Z</time>
      </trkpt>
      <trkpt lat="44.92849" lon="0.63508">
        <ele>129.3</ele>
        <time>2023-04-10T09:05:30Z</time>
      </trkpt>
      <trkpt lat="44.92846" lon="0.63509">
        <ele>129.4</ele>
        <time>2023-04-10T09:05:32Z</time>
      </trkpt>
      <trkpt lat="44.92843" lon="0.6351">
        <ele>129.6</ele>
        <time>2023-04-10T09:05:34Z</time>
      </trkpt>
      <trkpt lat="44.9284" lon="0.63511">
        <ele>129.7</ele>
        <time>2023-04-10T09:05:36Z</time>
      </trkpt>
      <trkpt lat="44.92837" lon="0.63512">
        <ele>129.9</ele>
        <time>2023-04-10T09:05:38Z</time>
      </trkpt>
      <trkpt lat="44.92834" lon="0.63512">
        <ele>130.1</ele>
        <time>2023-04-10T09:05:40Z</time>
      </trkpt>
      <trkpt lat="44.9283" lon="0.63513">
        <ele>130.2</ele>
        <time>2023-04-10T09:05:42Z</time>
      </trkpt>
      <trkpt lat="44.92828" lon="0.63515">
        <ele>130.4</ele>
        <time>2023-04-10T09:05:44Z</time>
      </trkpt>
      <trkpt lat="44.92825" lon="0.63517">
        <ele>130.5</ele>
        <time>2023-04-10T09:05:46Z</time>
      </trkpt>
      <trkpt lat="44.92823" lon="0.63518">
        <ele>130.6</ele>
        <time>2023-04-10T09:05:47Z</time>
      </trkpt>
      <trkpt lat="44.92822" lon="0.6352">
        <ele>130.7</ele>
        <time>2023-04-10T09:05:48Z</time>
      </trkpt>
      <trkpt lat="44.9282" lon="0.63523">
        <ele>130.9</ele>
        <time>2023-04-10T09:05:50Z</time>
      </trkpt>
      <trkpt lat="44.92818" lon="0.63526">
        <ele>131</ele>
        <time>2023-04-10T09:05:52Z</time>
      </trkpt>
      <trkpt lat="44.92817" lon="0.63529">
        <ele>131.2</ele>
        <time>2023-04-10T09:05:54Z</time>
      </trkpt>
      <trkpt lat="44.92815" lon="0.63533">
        <ele>131.4</ele>
        <time>2023-04-10T09:05:56Z</time>
      </trkpt>
      <trkpt lat="44.92814" lon="0.63536">
        <ele>131.5</ele>
        <time>2023-04-10T09:05:58Z</time>
      </trkpt>
      <trkpt lat="44.92812" lon="0.6354">
        <ele>131.7</ele>
        <time>2023-04-10T09:06:00Z</time>
      </trkpt>
      <trkpt lat="44.92811" lon="0.63543">
        <ele>131.8</ele>
        <time>2023-04-10T09:06:02Z</time>
      </trkpt>
      <trkpt lat="44.92809" lon="0.63548">
        <ele>132</ele>
        <time>2023-04-10T09:06:04Z</time>
      </trkpt>
      <trkpt lat="44.92808" lon="0.63552">
        <ele>132.1</ele>
        <time>2023-04-10T09:06:06Z</time>
      </trkpt>
      <trkpt lat="44.92806" lon="0.63556">
        <ele>132.3</ele>
        <time>2023-04-10T09:06:08Z</time>
      </trkpt>
      <trkpt lat="44.92804" lon="0.63559">
        <ele>132.4</ele>
        <time>2023-04-10T09:06:10Z</time>
      </trkpt>
      <trkpt lat="44.92803" lon="0.63564">
        <ele>132.5</ele>
        <time>2023-04-10T09:06:12Z</time>
      </trkpt>
      <trkpt lat="44.92801" lon="0.63568">
        <ele>132.6</ele>
        <time>2023-04-10T09:06:14Z</time>
      </trkpt>
      <trkpt lat="44.92799" lon="0.63571">
        <ele>132.8</ele>
        <time>2023-04-10T09:06:16Z</time>
      </trkpt>
      <trkpt lat="44.92796" lon="0.63576">
        <ele>132.9</ele>
        <time>2023-04-10T09:06:18Z</time>
      </trkpt>
      <trkpt lat="44.92793" lon="0.6358">
        <ele>133.2</ele>
        <time>2023-04-10T09:06:20Z</time>
      </trkpt>
      <trkpt lat="44.9279" lon="0.63583">
        <ele>133.4</ele>
        <time>2023-04-10T09:06:22Z</time>
      </trkpt>
      <trkpt lat="44.92786" lon="0.63587">
        <ele>133.6</ele>
        <time>2023-04-10T09:06:24Z</time>
      </trkpt>
      <trkpt lat="44.92782" lon="0.6359">
        <ele>133.8</ele>
        <time>2023-04-10T09:06:26Z</time>
      </trkpt>
      <trkpt lat="44.92781" lon="0.63592">
        <ele>133.9</ele>
        <time>2023-04-10T09:06:27Z</time>
      </trkpt>
      <trkpt lat="44.92779" lon="0.63594">
        <ele>134.1</ele>
        <time>2023-04-10T09:06:28Z</time>
      </trkpt>
      <trkpt lat="44.92775" lon="0.63598">
        <ele>134.3</ele>
        <time>2023-04-10T09:06:30Z</time>
      </trkpt>
      <trkpt lat="44.92772" lon="0.63602">
        <ele>134.5</ele>
        <time>2023-04-10T09:06:32Z</time>
      </trkpt>
      <trkpt lat="44.92769" lon="0.63607">
        <ele>134.7</ele>
        <time>2023-04-10T09:06:34Z</time>
      </trkpt>
      <trkpt lat="44.92766" lon="0.63612">
        <ele>134.8</ele>
        <time>2023-04-10T09:06:36Z</time>
      </trkpt>
      <trkpt lat="44.92764" lon="0.63616">
        <ele>135</ele>
        <time>2023-04-10T09:06:38Z</time>
      </trkpt>
      <trkpt lat="44.92761" lon="0.63622">
        <ele>135.1</ele>
        <time>2023-04-10T09:06:40Z</time>
      </trkpt>
      <trkpt lat="44.9276" lon="0.63624">
        <ele>135.2</ele>
        <time>2023-04-10T09:06:41Z</time>
      </trkpt>
      <trkpt lat="44.92759" lon="0.63627">
        <ele>135.2</ele>
        <time>2023-04-10T09:06:42Z</time>
      </trkpt>
      <trkpt lat="44.92757" lon="0.63633">
        <ele>135.3</ele>
        <time>2023-04-10T09:06:44Z</time>
      </trkpt>
      <trkpt lat="44.92756" lon="0.63639">
        <ele>135.4</ele>
        <time>2023-04-10T09:06:46Z</time>
      </trkpt>
      <trkpt lat="44.92755" lon="0.63645">
        <ele>135.5</ele>
        <time>2023-04-10T09:06:48Z</time>
      </trkpt>
      <trkpt lat="44.92754" lon="0.63649">
        <ele>135.6</ele>
        <time>2023-04-10T09:06:49Z</time>
      </trkpt>
      <trkpt lat="44.92754" lon="0.63652">
        <ele>135.6</ele>
        <time>2023-04-10T09:06:50Z</time>
      </trkpt>
      <trkpt lat="44.92754" lon="0.63659">
        <ele>135.7</ele>
        <time>2023-04-10T09:06:52Z</time>
      </trkpt>
      <trkpt lat="44.92754" lon="0.63666">
        <ele>135.7</ele>
        <time>2023-04-10T09:06:54Z</time>
      </trkpt>
      <trkpt lat="44.92754" lon="0.63674">
        <ele>135.8</ele>
        <time>2023-04-10T09:06:56Z</time>
      </trkpt>
      <trkpt lat="44.92754" lon="0.63677">
        <ele>135.8</ele>
        <time>2023-04-10T09:06:57Z</time>
      </trkpt>
      <trkpt lat="44.92753" lon="0.63681">
        <ele>135.9</ele>
        <time>2023-04-10T09:06:58Z</time>
      </trkpt>
      <trkpt lat="44.92753" lon="0.63689">
        <ele>136</ele>
        <time>2023-04-10T09:07:00Z</time>
      </trkpt>
      <trkpt lat="44.92752" lon="0.63698">
        <ele>136.1</ele>
        <time>2023-04-10T09:07:02Z</time>
      </trkpt>
      <trkpt lat="44.92751" lon="0.63702">
        <ele>136.1</ele>
        <time>2023-04-10T09:07:03Z</time>
      </trkpt>
      <trkpt lat="44.92751" lon="0.63706">
        <ele>136.2</ele>
        <time>2023-04-10T09:07:04Z</time>
      </trkpt>
      <trkpt lat="44.9275" lon="0.63713">
        <ele>136.3</ele>
        <time>2023-04-10T09:07:06Z</time>
      </trkpt>
      <trkpt lat="44.92749" lon="0.6372">
        <ele>136.4</ele>
        <time>2023-04-10T09:07:08Z</time>
      </trkpt>
      <trkpt lat="44.92749" lon="0.63723">
        <ele>136.5</ele>
        <time>2023-04-10T09:07:09Z</time>
      </trkpt>
      <trkpt lat="44.92749" lon="0.63727">
        <ele>136.6</ele>
        <time>2023-04-10T09:07:10Z</time>
      </trkpt>
      <trkpt lat="44.92747" lon="0.63735">
        <ele>136.7</ele>
        <time>2023-04-10T09:07:12Z</time>
      </trkpt>
      <trkpt lat="44.92744" lon="0.63743">
        <ele>137</ele>
        <time>2023-04-10T09:07:14Z</time>
      </trkpt>
      <trkpt lat="44.92743" lon="0.63751">
        <ele>137.1</ele>
        <time>2023-04-10T09:07:16Z</time>
      </trkpt>
      <trkpt lat="44.9274" lon="0.63759">
        <ele>137.4</ele>
        <time>2023-04-10T09:07:18Z</time>
      </trkpt>
      <trkpt lat="44.92738" lon="0.63768">
        <ele>137.6</ele>
        <time>2023-04-10T09:07:20Z</time>
      </trkpt>
      <trkpt lat="44.92737" lon="0.63777">
        <ele>137.8</ele>
        <time>2023-04-10T09:07:22Z</time>
      </trkpt>
      <trkpt lat="44.92735" lon="0.63786">
        <ele>138.1</ele>
        <time>2023-04-10T09:07:24Z</time>
      </trkpt>
      <trkpt lat="44.92733" lon="0.63797">
        <ele>138.3</ele>
        <time>2023-04-10T09:07:26Z</time>
      </trkpt>
      <trkpt lat="44.92732" lon="0.63801">
        <ele>138.5</ele>
        <time>2023-04-10T09:07:27Z</time>
      </trkpt>
      <trkpt lat="44.92732" lon="0.63806">
        <ele>138.6</ele>
        <time>2023-04-10T09:07:28Z</time>
      </trkpt>
      <trkpt lat="44.92731" lon="0.63816">
        <ele>138.9</ele>
        <time>2023-04-10T09:07:30Z</time>
      </trkpt>
      <trkpt lat="44.9273" lon="0.63825">
        <ele>139.2</ele>
        <time>2023-04-10T09:07:32Z</time>
      </trkpt>
      <trkpt lat="44.9273" lon="0.6383">
        <ele>139.4</ele>
        <time>2023-04-10T09:07:33Z</time>
      </trkpt>
      <trkpt lat="44.92729" lon="0.63836">
        <ele>139.5</ele>
        <time>2023-04-10T09:07:34Z</time>
      </trkpt>
      <trkpt lat="44.92728" lon="0.63846">
        <ele>139.7</ele>
        <time>2023-04-10T09:07:36Z</time>
      </trkpt>
      <trkpt lat="44.92727" lon="0.63856">
        <ele>139.9</ele>
        <time>2023-04-10T09:07:38Z</time>
      </trkpt>
      <trkpt lat="44.92727" lon="0.63866">
        <ele>139.9</ele>
        <time>2023-04-10T09:07:40Z</time>
      </trkpt>
      <trkpt lat="44.92727" lon="0.63876">
        <ele>139.8</ele>
        <time>2023-04-10T09:07:42Z</time>
      </trkpt>
      <trkpt lat="44.92726" lon="0.63886">
        <ele>139.7</ele>
        <time>2023-04-10T09:07:44Z</time>
      </trkpt>
      <trkpt lat="44.92726" lon="0.63896">
        <ele>139.4</ele>
        <time>2023-04-10T09:07:46Z</time>
      </trkpt>
      <trkpt lat="44.92727" lon="0.639">
        <ele>139.3</ele>
        <time>2023-04-10T09:07:47Z</time>
      </trkpt>
      <trkpt lat="44.92729" lon="0.63904">
        <ele>139.1</ele>
        <time>2023-04-10T09:07:48Z</time>
      </trkpt>
      <trkpt lat="44.92734" lon="0.63911">
        <ele>138.5</ele>
        <time>2023-04-10T09:07:50Z</time>
      </trkpt>
      <trkpt lat="44.92737" lon="0.63916">
        <ele>138.1</ele>
        <time>2023-04-10T09:07:51Z</time>
      </trkpt>
      <trkpt lat="44.92741" lon="0.6392">
        <ele>137.8</ele>
        <time>2023-04-10T09:07:52Z</time>
      </trkpt>
      <trkpt lat="44.92751" lon="0.63929">
        <ele>137.2</ele>
        <time>2023-04-10T09:07:54Z</time>
      </trkpt>
      <trkpt lat="44.92757" lon="0.63933">
        <ele>137.1</ele>
        <time>2023-04-10T09:07:55Z</time>
      </trkpt>
      <trkpt lat="44.92763" lon="0.63938">
        <ele>137.1</ele>
        <time>2023-04-10T09:07:56Z</time>
      </trkpt>
      <trkpt lat="44.92776" lon="0.6395">
        <ele>137.2</ele>
        <time>2023-04-10T09:07:58Z</time>
      </trkpt>
      <trkpt lat="44.9278" lon="0.63958">
        <ele>137.3</ele>
        <time>2023-04-10T09:07:59Z</time>
      </trkpt>
      <trkpt lat="44.92783" lon="0.63968">
        <ele>137.4</ele>
        <time>2023-04-10T09:08:00Z</time>
      </trkpt>
      <trkpt lat="44.92783" lon="0.63979">
        <ele>137.3</ele>
        <time>2023-04-10T09:08:01Z</time>
      </trkpt>
      <trkpt lat="44.92781" lon="0.63989">
        <ele>137.1</ele>
        <time>2023-04-10T09:08:02Z</time>
      </trkpt>
      <trkpt lat="44.92774" lon="0.64005">
        <ele>137</ele>
        <time>2023-04-10T09:08:04Z</time>
      </trkpt>
      <trkpt lat="44.92766" lon="0.64018">
        <ele>137</ele>
        <time>2023-04-10T09:08:06Z</time>
      </trkpt>
      <trkpt lat="44.92763" lon="0.64023">
        <ele>137</ele>
        <time>2023-04-10T09:08:07Z</time>
      </trkpt>
      <trkpt lat="44.9276" lon="0.64029">
        <ele>137</ele>
        <time>2023-04-10T09:08:08Z</time>
      </trkpt>
      <trkpt lat="44.92758" lon="0.64035">
        <ele>136.9</ele>
        <time>2023-04-10T09:08:09Z</time>
      </trkpt>
      <trkpt lat="44.92756" lon="0.64041">
        <ele>136.9</ele>
        <time>2023-04-10T09:08:10Z</time>
      </trkpt>
      <trkpt lat="44.92753" lon="0.64054">
        <ele>136.8</ele>
        <time>2023-04-10T09:08:12Z</time>
      </trkpt>
      <trkpt lat="44.92751" lon="0.64068">
        <ele>136.6</ele>
        <time>2023-04-10T09:08:14Z</time>
      </trkpt>
      <trkpt lat="44.9275" lon="0.64081">
        <ele>136.5</ele>
        <time>2023-04-10T09:08:16Z</time>
      </trkpt>
      <trkpt lat="44.92749" lon="0.64093">
        <ele>136.4</ele>
        <time>2023-04-10T09:08:18Z</time>
      </trkpt>
      <trkpt lat="44.92748" lon="0.64106">
        <ele>136.3</ele>
        <time>2023-04-10T09:08:20Z</time>
      </trkpt>
      <trkpt lat="44.92746" lon="0.6412">
        <ele>136.3</ele>
        <time>2023-04-10T09:08:22Z</time>
      </trkpt>
      <trkpt lat="44.92745" lon="0.64128">
        <ele>136.3</ele>
        <time>2023-04-10T09:08:23Z</time>
      </trkpt>
      <trkpt lat="44.92744" lon="0.64135">
        <ele>136.4</ele>
        <time>2023-04-10T09:08:24Z</time>
      </trkpt>
      <trkpt lat="44.92742" lon="0.64149">
        <ele>136.5</ele>
        <time>2023-04-10T09:08:26Z</time>
      </trkpt>
      <trkpt lat="44.9274" lon="0.64162">
        <ele>136.6</ele>
        <time>2023-04-10T09:08:28Z</time>
      </trkpt>
      <trkpt lat="44.92738" lon="0.64174">
        <ele>136.8</ele>
        <time>2023-04-10T09:08:30Z</time>
      </trkpt>
      <trkpt lat="44.92737" lon="0.64181">
        <ele>136.9</ele>
        <time>2023-04-10T09:08:31Z</time>
      </trkpt>
      <trkpt lat="44.92737" lon="0.64188">
        <ele>137</ele>
        <time>2023-04-10T09:08:32Z</time>
      </trkpt>
      <trkpt lat="44.92735" lon="0.64201">
        <ele>137.3</ele>
        <time>2023-04-10T09:08:34Z</time>
      </trkpt>
      <trkpt lat="44.92734" lon="0.64215">
        <ele>137.6</ele>
        <time>2023-04-10T09:08:36Z</time>
      </trkpt>
      <trkpt lat="44.92734" lon="0.64221">
        <ele>137.8</ele>
        <time>2023-04-10T09:08:37Z</time>
      </trkpt>
      <trkpt lat="44.92733" lon="0.64228">
        <ele>137.9</ele>
        <time>2023-04-10T09:08:38Z</time>
      </trkpt>
      <trkpt lat="44.92732" lon="0.64242">
        <ele>138.3</ele>
        <time>2023-04-10T09:08:40Z</time>
      </trkpt>
      <trkpt lat="44.92731" lon="0.64254">
        <ele>138.8</ele>
        <time>2023-04-10T09:08:42Z</time>
      </trkpt>
      <trkpt lat="44.92729" lon="0.64267">
        <ele>139.5</ele>
        <time>2023-04-10T09:08:44Z</time>
      </trkpt>
      <trkpt lat="44.92728" lon="0.64279">
        <ele>140.1</ele>
        <time>2023-04-10T09:08:46Z</time>
      </trkpt>
      <trkpt lat="44.92728" lon="0.64284">
        <ele>140.4</ele>
        <time>2023-04-10T09:08:47Z</time>
      </trkpt>
      <trkpt lat="44.92728" lon="0.6429">
        <ele>140.7</ele>
        <time>2023-04-10T09:08:48Z</time>
      </trkpt>
      <trkpt lat="44.92727" lon="0.64301">
        <ele>141.4</ele>
        <time>2023-04-10T09:08:50Z</time>
      </trkpt>
      <trkpt lat="44.92726" lon="0.64313">
        <ele>142.1</ele>
        <time>2023-04-10T09:08:52Z</time>
      </trkpt>
      <trkpt lat="44.92726" lon="0.64318">
        <ele>142.4</ele>
        <time>2023-04-10T09:08:53Z</time>
      </trkpt>
      <trkpt lat="44.92726" lon="0.64323">
        <ele>142.7</ele>
        <time>2023-04-10T09:08:54Z</time>
      </trkpt>
      <trkpt lat="44.92727" lon="0.64332">
        <ele>143.3</ele>
        <time>2023-04-10T09:08:56Z</time>
      </trkpt>
      <trkpt lat="44.92727" lon="0.64337">
        <ele>143.6</ele>
        <time>2023-04-10T09:08:57Z</time>
      </trkpt>
      <trkpt lat="44.92728" lon="0.64342">
        <ele>143.9</ele>
        <time>2023-04-10T09:08:58Z</time>
      </trkpt>
      <trkpt lat="44.92729" lon="0.64348">
        <ele>144.3</ele>
        <time>2023-04-10T09:08:59Z</time>
      </trkpt>
      <trkpt lat="44.92729" lon="0.64353">
        <ele>144.6</ele>
        <time>2023-04-10T09:09:00Z</time>
      </trkpt>
      <trkpt lat="44.9273" lon="0.64362">
        <ele>145.2</ele>
        <time>2023-04-10T09:09:02Z</time>
      </trkpt>
      <trkpt lat="44.92731" lon="0.64369">
        <ele>145.7</ele>
        <time>2023-04-10T09:09:04Z</time>
      </trkpt>
      <trkpt lat="44.92731" lon="0.64376">
        <ele>146.2</ele>
        <time>2023-04-10T09:09:06Z</time>
      </trkpt>
      <trkpt lat="44.92732" lon="0.64383">
        <ele>146.7</ele>
        <time>2023-04-10T09:09:08Z</time>
      </trkpt>
      <trkpt lat="44.92733" lon="0.64386">
        <ele>147</ele>
        <time>2023-04-10T09:09:09Z</time>
      </trkpt>
      <trkpt lat="44.92733" lon="0.6439">
        <ele>147.2</ele>
        <time>2023-04-10T09:09:10Z</time>
      </trkpt>
      <trkpt lat="44.92733" lon="0.64396">
        <ele>147.6</ele>
        <time>2023-04-10T09:09:12Z</time>
      </trkpt>
      <trkpt lat="44.92733" lon="0.64403">
        <ele>148.1</ele>
        <time>2023-04-10T09:09:14Z</time>
      </trkpt>
      <trkpt lat="44.92733" lon="0.64406">
        <ele>148.3</ele>
        <time>2023-04-10T09:09:15Z</time>
      </trkpt>
      <trkpt lat="44.92733" lon="0.64409">
        <ele>148.5</ele>
        <time>2023-04-10T09:09:16Z</time>
      </trkpt>
      <trkpt lat="44.92734" lon="0.6441">
        <ele>148.6</ele>
        <time>2023-04-10T09:09:17Z</time>
      </trkpt>
      <trkpt lat="44.92734" lon="0.64412">
        <ele>148.7</ele>
        <time>2023-04-10T09:09:18Z</time>
      </trkpt>
      <trkpt lat="44.92735" lon="0.64414">
        <ele>148.8</ele>
        <time>2023-04-10T09:09:19Z</time>
      </trkpt>
      <trkpt lat="44.92735" lon="0.64417">
        <ele>149</ele>
        <time>2023-04-10T09:09:20Z</time>
      </trkpt>
      <trkpt lat="44.92735" lon="0.64419">
        <ele>149.1</ele>
        <time>2023-04-10T09:09:21Z</time>
      </trkpt>
      <trkpt lat="44.92735" lon="0.64421">
        <ele>149.3</ele>
        <time>2023-04-10T09:09:22Z</time>
      </trkpt>
      <trkpt lat="44.92735" lon="0.64425">
        <ele>149.5</ele>
        <time>2023-04-10T09:09:23Z</time>
      </trkpt>
      <trkpt lat="44.92735" lon="0.64428">
        <ele>149.7</ele>
        <time>2023-04-10T09:09:24Z</time>
      </trkpt>
      <trkpt lat="44.92735" lon="0.64436">
        <ele>150.1</ele>
        <time>2023-04-10T09:09:26Z</time>
      </trkpt>
      <trkpt lat="44.92735" lon="0.64441">
        <ele>150.4</ele>
        <time>2023-04-10T09:09:28Z</time>
      </trkpt>
      <trkpt lat="44.92734" lon="0.64447">
        <ele>150.7</ele>
        <time>2023-04-10T09:09:30Z</time>
      </trkpt>
      <trkpt lat="44.92734" lon="0.64453">
        <ele>151</ele>
        <time>2023-04-10T09:09:32Z</time>
      </trkpt>
      <trkpt lat="44.92733" lon="0.64456">
        <ele>151.2</ele>
        <time>2023-04-10T09:09:33Z</time>
      </trkpt>
      <trkpt lat="44.92733" lon="0.64459">
        <ele>151.3</ele>
        <time>2023-04-10T09:09:34Z</time>
      </trkpt>
      <trkpt lat="44.92733" lon="0.64465">
        <ele>151.6</ele>
        <time>2023-04-10T09:09:36Z</time>
      </trkpt>
      <trkpt lat="44.92732" lon="0.64469">
        <ele>151.8</ele>
        <time>2023-04-10T09:09:37Z</time>
      </trkpt>
      <trkpt lat="44.92732" lon="0.64472">
        <ele>152</ele>
        <time>2023-04-10T09:09:38Z</time>
      </trkpt>
      <trkpt lat="44.92731" lon="0.6448">
        <ele>152.5</ele>
        <time>2023-04-10T09:09:40Z</time>
      </trkpt>
      <trkpt lat="44.9273" lon="0.64483">
        <ele>152.7</ele>
        <time>2023-04-10T09:09:41Z</time>
      </trkpt>
      <trkpt lat="44.9273" lon="0.64486">
        <ele>152.9</ele>
        <time>2023-04-10T09:09:42Z</time>
      </trkpt>
      <trkpt lat="44.92729" lon="0.64494">
        <ele>153.3</ele>
        <time>2023-04-10T09:09:44Z</time>
      </trkpt>
      <trkpt lat="44.92728" lon="0.64501">
        <ele>153.7</ele>
        <time>2023-04-10T09:09:46Z</time>
      </trkpt>
      <trkpt lat="44.92727" lon="0.64507">
        <ele>154</ele>
        <time>2023-04-10T09:09:48Z</time>
      </trkpt>
      <trkpt lat="44.92725" lon="0.64517">
        <ele>154.5</ele>
        <time>2023-04-10T09:09:50Z</time>
      </trkpt>
      <trkpt lat="44.92725" lon="0.64525">
        <ele>154.9</ele>
        <time>2023-04-10T09:09:52Z</time>
      </trkpt>
      <trkpt lat="44.92724" lon="0.64534">
        <ele>155.3</ele>
        <time>2023-04-10T09:09:54Z</time>
      </trkpt>
      <trkpt lat="44.92725" lon="0.64541">
        <ele>155.7</ele>
        <time>2023-04-10T09:09:56Z</time>
      </trkpt>
      <trkpt lat="44.92724" lon="0.64548">
        <ele>156</ele>
        <time>2023-04-10T09:09:58Z</time>
      </trkpt>
      <trkpt lat="44.92724" lon="0.64555">
        <ele>156.3</ele>
        <time>2023-04-10T09:10:00Z</time>
      </trkpt>
      <trkpt lat="44.92725" lon="0.64562">
        <ele>156.5</ele>
        <time>2023-04-10T09:10:02Z</time>
      </trkpt>
      <trkpt lat="44.92725" lon="0.64568">
        <ele>156.8</ele>
        <time>2023-04-10T09:10:04Z</time>
      </trkpt>
      <trkpt lat="44.92725" lon="0.64575">
        <ele>157</ele>
        <time>2023-04-10T09:10:06Z</time>
      </trkpt>
      <trkpt lat="44.92725" lon="0.64579">
        <ele>157.2</ele>
        <time>2023-04-10T09:10:07Z</time>
      </trkpt>
      <trkpt lat="44.92725" lon="0.64582">
        <ele>157.3</ele>
        <time>2023-04-10T09:10:08Z</time>
      </trkpt>
      <trkpt lat="44.92725" lon="0.64588">
        <ele>157.6</ele>
        <time>2023-04-10T09:10:10Z</time>
      </trkpt>
      <trkpt lat="44.92725" lon="0.64594">
        <ele>157.9</ele>
        <time>2023-04-10T09:10:12Z</time>
      </trkpt>
      <trkpt lat="44.92725" lon="0.646">
        <ele>158.1</ele>
        <time>2023-04-10T09:10:14Z</time>
      </trkpt>
      <trkpt lat="44.92725" lon="0.64605">
        <ele>158.4</ele>
        <time>2023-04-10T09:10:16Z</time>
      </trkpt>
      <trkpt lat="44.92725" lon="0.64608">
        <ele>158.6</ele>
        <time>2023-04-10T09:10:17Z</time>
      </trkpt>
      <trkpt lat="44.92725" lon="0.64612">
        <ele>158.8</ele>
        <time>2023-04-10T09:10:18Z</time>
      </trkpt>
      <trkpt lat="44.92725" lon="0.64618">
        <ele>159.1</ele>
        <time>2023-04-10T09:10:20Z</time>
      </trkpt>
      <trkpt lat="44.92726" lon="0.64624">
        <ele>159.4</ele>
        <time>2023-04-10T09:10:22Z</time>
      </trkpt>
      <trkpt lat="44.92726" lon="0.64627">
        <ele>159.6</ele>
        <time>2023-04-10T09:10:23Z</time>
      </trkpt>
      <trkpt lat="44.92726" lon="0.6463">
        <ele>159.7</ele>
        <time>2023-04-10T09:10:24Z</time>
      </trkpt>
      <trkpt lat="44.92726" lon="0.64633">
        <ele>159.9</ele>
        <time>2023-04-10T09:10:25Z</time>
      </trkpt>
      <trkpt lat="44.92727" lon="0.64636">
        <ele>160</ele>
        <time>2023-04-10T09:10:26Z</time>
      </trkpt>
      <trkpt lat="44.92728" lon="0.64641">
        <ele>160.3</ele>
        <time>2023-04-10T09:10:28Z</time>
      </trkpt>
      <trkpt lat="44.92728" lon="0.64648">
        <ele>160.6</ele>
        <time>2023-04-10T09:10:30Z</time>
      </trkpt>
      <trkpt lat="44.92729" lon="0.64654">
        <ele>160.9</ele>
        <time>2023-04-10T09:10:32Z</time>
      </trkpt>
      <trkpt lat="44.92729" lon="0.6466">
        <ele>161.2</ele>
        <time>2023-04-10T09:10:34Z</time>
      </trkpt>
      <trkpt lat="44.9273" lon="0.64667">
        <ele>161.5</ele>
        <time>2023-04-10T09:10:36Z</time>
      </trkpt>
      <trkpt lat="44.92731" lon="0.64672">
        <ele>161.8</ele>
        <time>2023-04-10T09:10:38Z</time>
      </trkpt>
      <trkpt lat="44.92732" lon="0.64678">
        <ele>162.1</ele>
        <time>2023-04-10T09:10:40Z</time>
      </trkpt>
      <trkpt lat="44.92734" lon="0.64682">
        <ele>162.3</ele>
        <time>2023-04-10T09:10:42Z</time>
      </trkpt>
      <trkpt lat="44.92735" lon="0.64688">
        <ele>162.5</ele>
        <time>2023-04-10T09:10:44Z</time>
      </trkpt>
      <trkpt lat="44.92736" lon="0.64694">
        <ele>162.8</ele>
        <time>2023-04-10T09:10:46Z</time>
      </trkpt>
      <trkpt lat="44.92737" lon="0.647">
        <ele>163</ele>
        <time>2023-04-10T09:10:48Z</time>
      </trkpt>
      <trkpt lat="44.92737" lon="0.64702">
        <ele>163.1</ele>
        <time>2023-04-10T09:10:49Z</time>
      </trkpt>
      <trkpt lat="44.92738" lon="0.64704">
        <ele>163.2</ele>
        <time>2023-04-10T09:10:50Z</time>
      </trkpt>
      <trkpt lat="44.92739" lon="0.6471">
        <ele>163.5</ele>
        <time>2023-04-10T09:10:52Z</time>
      </trkpt>
      <trkpt lat="44.92739" lon="0.64713">
        <ele>163.6</ele>
        <time>2023-04-10T09:10:53Z</time>
      </trkpt>
      <trkpt lat="44.92739" lon="0.64716">
        <ele>163.8</ele>
        <time>2023-04-10T09:10:54Z</time>
      </trkpt>
      <trkpt lat="44.9274" lon="0.64722">
        <ele>164.1</ele>
        <time>2023-04-10T09:10:56Z</time>
      </trkpt>
      <trkpt lat="44.92742" lon="0.64727">
        <ele>164.4</ele>
        <time>2023-04-10T09:10:58Z</time>
      </trkpt>
      <trkpt lat="44.92743" lon="0.6473">
        <ele>164.6</ele>
        <time>2023-04-10T09:11:00Z</time>
      </trkpt>
      <trkpt lat="44.92745" lon="0.64734">
        <ele>164.9</ele>
        <time>2023-04-10T09:11:02Z</time>
      </trkpt>
      <trkpt lat="44.92745" lon="0.64739">
        <ele>165.1</ele>
        <time>2023-04-10T09:11:04Z</time>
      </trkpt>
      <trkpt lat="44.92746" lon="0.64745">
        <ele>165.4</ele>
        <time>2023-04-10T09:11:06Z</time>
      </trkpt>
      <trkpt lat="44.92746" lon="0.64751">
        <ele>165.7</ele>
        <time>2023-04-10T09:11:08Z</time>
      </trkpt>
      <trkpt lat="44.92747" lon="0.64754">
        <ele>165.9</ele>
        <time>2023-04-10T09:11:09Z</time>
      </trkpt>
      <trkpt lat="44.92747" lon="0.64756">
        <ele>166</ele>
        <time>2023-04-10T09:11:10Z</time>
      </trkpt>
      <trkpt lat="44.92748" lon="0.64759">
        <ele>166.2</ele>
        <time>2023-04-10T09:11:12Z</time>
      </trkpt>
      <trkpt lat="44.92748" lon="0.64762">
        <ele>166.3</ele>
        <time>2023-04-10T09:11:14Z</time>
      </trkpt>
      <trkpt lat="44.92749" lon="0.64766">
        <ele>166.5</ele>
        <time>2023-04-10T09:11:16Z</time>
      </trkpt>
      <trkpt lat="44.92749" lon="0.6477">
        <ele>166.8</ele>
        <time>2023-04-10T09:11:18Z</time>
      </trkpt>
      <trkpt lat="44.92749" lon="0.64777">
        <ele>167.2</ele>
        <time>2023-04-10T09:11:20Z</time>
      </trkpt>
      <trkpt lat="44.92749" lon="0.64779">
        <ele>167.3</ele>
        <time>2023-04-10T09:11:21Z</time>
      </trkpt>
      <trkpt lat="44.92749" lon="0.64782">
        <ele>167.5</ele>
        <time>2023-04-10T09:11:22Z</time>
      </trkpt>
      <trkpt lat="44.9275" lon="0.64785">
        <ele>167.7</ele>
        <time>2023-04-10T09:11:24Z</time>
      </trkpt>
      <trkpt lat="44.9275" lon="0.6479">
        <ele>168</ele>
        <time>2023-04-10T09:11:26Z</time>
      </trkpt>
      <trkpt lat="44.92749" lon="0.64793">
        <ele>168.2</ele>
        <time>2023-04-10T09:11:28Z</time>
      </trkpt>
      <trkpt lat="44.92748" lon="0.64798">
        <ele>168.4</ele>
        <time>2023-04-10T09:11:30Z</time>
      </trkpt>
      <trkpt lat="44.92749" lon="0.64798">
        <ele>168.5</ele>
        <time>2023-04-10T09:11:31Z</time>
      </trkpt>
      <trkpt lat="44.92749" lon="0.64798">
        <ele>168.5</ele>
        <time>2023-04-10T09:11:32Z</time>
      </trkpt>
      <trkpt lat="44.92747" lon="0.64804">
        <ele>168.8</ele>
        <time>2023-04-10T09:11:34Z</time>
      </trkpt>
      <trkpt lat="44.92747" lon="0.64806">
        <ele>168.9</ele>
        <time>2023-04-10T09:11:35Z</time>
      </trkpt>
      <trkpt lat="44.92746" lon="0.64809">
        <ele>169.1</ele>
        <time>2023-04-10T09:11:36Z</time>
      </trkpt>
      <trkpt lat="44.92744" lon="0.64813">
        <ele>169.4</ele>
        <time>2023-04-10T09:11:38Z</time>
      </trkpt>
      <trkpt lat="44.92742" lon="0.6482">
        <ele>169.7</ele>
        <time>2023-04-10T09:11:40Z</time>
      </trkpt>
      <trkpt lat="44.92741" lon="0.64822">
        <ele>169.8</ele>
        <time>2023-04-10T09:11:41Z</time>
      </trkpt>
      <trkpt lat="44.9274" lon="0.64826">
        <ele>169.9</ele>
        <time>2023-04-10T09:11:42Z</time>
      </trkpt>
      <trkpt lat="44.92738" lon="0.6483">
        <ele>170.1</ele>
        <time>2023-04-10T09:11:44Z</time>
      </trkpt>
      <trkpt lat="44.92736" lon="0.64834">
        <ele>170.2</ele>
        <time>2023-04-10T09:11:46Z</time>
      </trkpt>
      <trkpt lat="44.92736" lon="0.64837">
        <ele>170.3</ele>
        <time>2023-04-10T09:11:47Z</time>
      </trkpt>
      <trkpt lat="44.92734" lon="0.6484">
        <ele>170.4</ele>
        <time>2023-04-10T09:11:48Z</time>
      </trkpt>
      <trkpt lat="44.92732" lon="0.64845">
        <ele>170.5</ele>
        <time>2023-04-10T09:11:50Z</time>
      </trkpt>
      <trkpt lat="44.92729" lon="0.6485">
        <ele>170.7</ele>
        <time>2023-04-10T09:11:52Z</time>
      </trkpt>
      <trkpt lat="44.92729" lon="0.64853">
        <ele>170.7</ele>
        <time>2023-04-10T09:11:53Z</time>
      </trkpt>
      <trkpt lat="44.92728" lon="0.64857">
        <ele>170.8</ele>
        <time>2023-04-10T09:11:54Z</time>
      </trkpt>
      <trkpt lat="44.92728" lon="0.64862">
        <ele>170.9</ele>
        <time>2023-04-10T09:11:56Z</time>
      </trkpt>
      <trkpt lat="44.92727" lon="0.64868">
        <ele>171.1</ele>
        <time>2023-04-10T09:11:58Z</time>
      </trkpt>
      <trkpt lat="44.92727" lon="0.64874">
        <ele>171.2</ele>
        <time>2023-04-10T09:12:00Z</time>
      </trkpt>
      <trkpt lat="44.92726" lon="0.6488">
        <ele>171.3</ele>
        <time>2023-04-10T09:12:02Z</time>
      </trkpt>
      <trkpt lat="44.92726" lon="0.64884">
        <ele>171.4</ele>
        <time>2023-04-10T09:12:03Z</time>
      </trkpt>
      <trkpt lat="44.92726" lon="0.64887">
        <ele>171.4</ele>
        <time>2023-04-10T09:12:04Z</time>
      </trkpt>
      <trkpt lat="44.92728" lon="0.64893">
        <ele>171.6</ele>
        <time>2023-04-10T09:12:06Z</time>
      </trkpt>
      <trkpt lat="44.92729" lon="0.649">
        <ele>171.8</ele>
        <time>2023-04-10T09:12:08Z</time>
      </trkpt>
      <trkpt lat="44.9273" lon="0.64904">
        <ele>171.9</ele>
        <time>2023-04-10T09:12:09Z</time>
      </trkpt>
      <trkpt lat="44.92731" lon="0.64907">
        <ele>172</ele>
        <time>2023-04-10T09:12:10Z</time>
      </trkpt>
      <trkpt lat="44.92733" lon="0.64914">
        <ele>172.2</ele>
        <time>2023-04-10T09:12:12Z</time>
      </trkpt>
      <trkpt lat="44.92734" lon="0.64917">
        <ele>172.3</ele>
        <time>2023-04-10T09:12:13Z</time>
      </trkpt>
      <trkpt lat="44.92735" lon="0.6492">
        <ele>172.4</ele>
        <time>2023-04-10T09:12:14Z</time>
      </trkpt>
      <trkpt lat="44.92736" lon="0.64925">
        <ele>172.6</ele>
        <time>2023-04-10T09:12:16Z</time>
      </trkpt>
      <trkpt lat="44.92738" lon="0.64933">
        <ele>172.8</ele>
        <time>2023-04-10T09:12:18Z</time>
      </trkpt>
      <trkpt lat="44.92739" lon="0.64936">
        <ele>172.8</ele>
        <time>2023-04-10T09:12:19Z</time>
      </trkpt>
      <trkpt lat="44.92741" lon="0.64938">
        <ele>172.9</ele>
        <time>2023-04-10T09:12:20Z</time>
      </trkpt>
      <trkpt lat="44.92743" lon="0.64944">
        <ele>173</ele>
        <time>2023-04-10T09:12:22Z</time>
      </trkpt>
      <trkpt lat="44.92744" lon="0.64947">
        <ele>173.1</ele>
        <time>2023-04-10T09:12:23Z</time>
      </trkpt>
      <trkpt lat="44.92744" lon="0.6495">
        <ele>173.1</ele>
        <time>2023-04-10T09:12:24Z</time>
      </trkpt>
      <trkpt lat="44.92743" lon="0.64952">
        <ele>173.2</ele>
        <time>2023-04-10T09:12:25Z</time>
      </trkpt>
      <trkpt lat="44.92744" lon="0.64954">
        <ele>173.2</ele>
        <time>2023-04-10T09:12:26Z</time>
      </trkpt>
      <trkpt lat="44.92744" lon="0.64956">
        <ele>173.2</ele>
        <time>2023-04-10T09:12:27Z</time>
      </trkpt>
      <trkpt lat="44.92745" lon="0.64959">
        <ele>173.3</ele>
        <time>2023-04-10T09:12:28Z</time>
      </trkpt>
      <trkpt lat="44.92747" lon="0.64966">
        <ele>173.3</ele>
        <time>2023-04-10T09:12:30Z</time>
      </trkpt>
      <trkpt lat="44.92748" lon="0.64973">
        <ele>173.4</ele>
        <time>2023-04-10T09:12:31Z</time>
      </trkpt>
      <trkpt lat="44.92749" lon="0.64977">
        <ele>173.4</ele>
        <time>2023-04-10T09:12:32Z</time>
      </trkpt>
      <trkpt lat="44.9275" lon="0.64985">
        <ele>173.5</ele>
        <time>2023-04-10T09:12:34Z</time>
      </trkpt>
      <trkpt lat="44.92752" lon="0.64993">
        <ele>173.5</ele>
        <time>2023-04-10T09:12:36Z</time>
      </trkpt>
      <trkpt lat="44.92753" lon="0.64998">
        <ele>173.5</ele>
        <time>2023-04-10T09:12:37Z</time>
      </trkpt>
      <trkpt lat="44.92755" lon="0.65003">
        <ele>173.6</ele>
        <time>2023-04-10T09:12:38Z</time>
      </trkpt>
      <trkpt lat="44.92756" lon="0.65014">
        <ele>173.6</ele>
        <time>2023-04-10T09:12:40Z</time>
      </trkpt>
      <trkpt lat="44.92757" lon="0.65028">
        <ele>173.6</ele>
        <time>2023-04-10T09:12:42Z</time>
      </trkpt>
      <trkpt lat="44.92757" lon="0.6504">
        <ele>173.5</ele>
        <time>2023-04-10T09:12:44Z</time>
      </trkpt>
      <trkpt lat="44.92758" lon="0.65052">
        <ele>173.4</ele>
        <time>2023-04-10T09:12:46Z</time>
      </trkpt>
      <trkpt lat="44.92757" lon="0.65063">
        <ele>173.4</ele>
        <time>2023-04-10T09:12:48Z</time>
      </trkpt>
      <trkpt lat="44.92756" lon="0.65074">
        <ele>173.3</ele>
        <time>2023-04-10T09:12:50Z</time>
      </trkpt>
      <trkpt lat="44.92754" lon="0.65086">
        <ele>173.2</ele>
        <time>2023-04-10T09:12:52Z</time>
      </trkpt>
      <trkpt lat="44.92753" lon="0.65092">
        <ele>173.1</ele>
        <time>2023-04-10T09:12:53Z</time>
      </trkpt>
      <trkpt lat="44.92751" lon="0.65099">
        <ele>173</ele>
        <time>2023-04-10T09:12:54Z</time>
      </trkpt>
      <trkpt lat="44.92747" lon="0.65112">
        <ele>172.8</ele>
        <time>2023-04-10T09:12:56Z</time>
      </trkpt>
      <trkpt lat="44.92742" lon="0.65124">
        <ele>172.4</ele>
        <time>2023-04-10T09:12:58Z</time>
      </trkpt>
      <trkpt lat="44.9274" lon="0.6513">
        <ele>172.2</ele>
        <time>2023-04-10T09:12:59Z</time>
      </trkpt>
      <trkpt lat="44.92737" lon="0.65137">
        <ele>171.9</ele>
        <time>2023-04-10T09:13:00Z</time>
      </trkpt>
      <trkpt lat="44.92735" lon="0.65143">
        <ele>171.7</ele>
        <time>2023-04-10T09:13:01Z</time>
      </trkpt>
      <trkpt lat="44.92731" lon="0.65149">
        <ele>171.5</ele>
        <time>2023-04-10T09:13:02Z</time>
      </trkpt>
      <trkpt lat="44.92724" lon="0.65162">
        <ele>171</ele>
        <time>2023-04-10T09:13:04Z</time>
      </trkpt>
      <trkpt lat="44.92715" lon="0.65175">
        <ele>170.6</ele>
        <time>2023-04-10T09:13:06Z</time>
      </trkpt>
      <trkpt lat="44.92706" lon="0.65186">
        <ele>170.4</ele>
        <time>2023-04-10T09:13:08Z</time>
      </trkpt>
      <trkpt lat="44.92702" lon="0.65191">
        <ele>170.3</ele>
        <time>2023-04-10T09:13:09Z</time>
      </trkpt>
      <trkpt lat="44.92698" lon="0.65194">
        <ele>170.2</ele>
        <time>2023-04-10T09:13:10Z</time>
      </trkpt>
      <trkpt lat="44.92692" lon="0.652">
        <ele>170.1</ele>
        <time>2023-04-10T09:13:12Z</time>
      </trkpt>
      <trkpt lat="44.9269" lon="0.65203">
        <ele>170</ele>
        <time>2023-04-10T09:13:13Z</time>
      </trkpt>
      <trkpt lat="44.92688" lon="0.65206">
        <ele>170</ele>
        <time>2023-04-10T09:13:14Z</time>
      </trkpt>
      <trkpt lat="44.92684" lon="0.65211">
        <ele>169.9</ele>
        <time>2023-04-10T09:13:16Z</time>
      </trkpt>
      <trkpt lat="44.92684" lon="0.65212">
        <ele>169.9</ele>
        <time>2023-04-10T09:13:17Z</time>
      </trkpt>
      <trkpt lat="44.92684" lon="0.65212">
        <ele>169.9</ele>
        <time>2023-04-10T09:13:18Z</time>
      </trkpt>
      <trkpt lat="44.92682" lon="0.65213">
        <ele>169.9</ele>
        <time>2023-04-10T09:13:20Z</time>
      </trkpt>
      <trkpt lat="44.92682" lon="0.65213">
        <ele>169.9</ele>
        <time>2023-04-10T09:13:21Z</time>
      </trkpt>
      <trkpt lat="44.92679" lon="0.65226">
        <ele>169.8</ele>
        <time>2023-04-10T09:15:25Z</time>
      </trkpt>
      <trkpt lat="44.92681" lon="0.65228">
        <ele>169.8</ele>
        <time>2023-04-10T09:15:26Z</time>
      </trkpt>
      <trkpt lat="44.92683" lon="0.65229">
        <ele>169.8</ele>
        <time>2023-04-10T09:15:27Z</time>
      </trkpt>
      <trkpt lat="44.92686" lon="0.65229">
        <ele>169.9</ele>
        <time>2023-04-10T09:15:28Z</time>
      </trkpt>
      <trkpt lat="44.92693" lon="0.65225">
        <ele>168.7</ele>
        <time>2023-04-10T09:15:30Z</time>
      </trkpt>
      <trkpt lat="44.92696" lon="0.65224">
        <ele>168.7</ele>
        <time>2023-04-10T09:15:31Z</time>
      </trkpt>
      <trkpt lat="44.927" lon="0.65224">
        <ele>168.7</ele>
        <time>2023-04-10T09:15:32Z</time>
      </trkpt>
      <trkpt lat="44.92704" lon="0.65226">
        <ele>167.9</ele>
        <time>2023-04-10T09:15:33Z</time>
      </trkpt>
      <trkpt lat="44.92709" lon="0.65228">
        <ele>167.3</ele>
        <time>2023-04-10T09:15:34Z</time>
      </trkpt>
      <trkpt lat="44.92715" lon="0.6523">
        <ele>166.8</ele>
        <time>2023-04-10T09:15:35Z</time>
      </trkpt>
      <trkpt lat="44.92722" lon="0.65232">
        <ele>166.1</ele>
        <time>2023-04-10T09:15:36Z</time>
      </trkpt>
      <trkpt lat="44.9273" lon="0.65233">
        <ele>165.4</ele>
        <time>2023-04-10T09:15:37Z</time>
      </trkpt>
      <trkpt lat="44.92738" lon="0.65231">
        <ele>164.7</ele>
        <time>2023-04-10T09:15:38Z</time>
      </trkpt>
      <trkpt lat="44.92746" lon="0.65227">
        <ele>164.1</ele>
        <time>2023-04-10T09:15:39Z</time>
      </trkpt>
      <trkpt lat="44.92754" lon="0.65224">
        <ele>163.6</ele>
        <time>2023-04-10T09:15:40Z</time>
      </trkpt>
      <trkpt lat="44.92769" lon="0.6522">
        <ele>163</ele>
        <time>2023-04-10T09:15:42Z</time>
      </trkpt>
      <trkpt lat="44.92785" lon="0.65221">
        <ele>162.3</ele>
        <time>2023-04-10T09:15:44Z</time>
      </trkpt>
      <trkpt lat="44.92801" lon="0.65222">
        <ele>161.6</ele>
        <time>2023-04-10T09:15:46Z</time>
      </trkpt>
      <trkpt lat="44.9281" lon="0.65223">
        <ele>161.2</ele>
        <time>2023-04-10T09:15:47Z</time>
      </trkpt>
      <trkpt lat="44.9282" lon="0.65226">
        <ele>160.8</ele>
        <time>2023-04-10T09:15:48Z</time>
      </trkpt>
      <trkpt lat="44.92829" lon="0.65228">
        <ele>160.4</ele>
        <time>2023-04-10T09:15:49Z</time>
      </trkpt>
      <trkpt lat="44.92839" lon="0.65229">
        <ele>160</ele>
        <time>2023-04-10T09:15:50Z</time>
      </trkpt>
      <trkpt lat="44.92848" lon="0.65231">
        <ele>159.6</ele>
        <time>2023-04-10T09:15:51Z</time>
      </trkpt>
      <trkpt lat="44.92857" lon="0.65233">
        <ele>159.1</ele>
        <time>2023-04-10T09:15:52Z</time>
      </trkpt>
      <trkpt lat="44.92875" lon="0.65236">
        <ele>158.4</ele>
        <time>2023-04-10T09:15:54Z</time>
      </trkpt>
      <trkpt lat="44.92884" lon="0.65237">
        <ele>158</ele>
        <time>2023-04-10T09:15:55Z</time>
      </trkpt>
      <trkpt lat="44.92893" lon="0.65236">
        <ele>157.7</ele>
        <time>2023-04-10T09:15:56Z</time>
      </trkpt>
      <trkpt lat="44.92901" lon="0.65234">
        <ele>157.2</ele>
        <time>2023-04-10T09:15:57Z</time>
      </trkpt>
      <trkpt lat="44.9291" lon="0.65232">
        <ele>156.7</ele>
        <time>2023-04-10T09:15:58Z</time>
      </trkpt>
      <trkpt lat="44.92918" lon="0.65232">
        <ele>156.2</ele>
        <time>2023-04-10T09:15:59Z</time>
      </trkpt>
      <trkpt lat="44.92925" lon="0.65235">
        <ele>155.7</ele>
        <time>2023-04-10T09:16:00Z</time>
      </trkpt>
      <trkpt lat="44.9294" lon="0.65245">
        <ele>154.6</ele>
        <time>2023-04-10T09:16:02Z</time>
      </trkpt>
      <trkpt lat="44.92954" lon="0.65257">
        <ele>153.7</ele>
        <time>2023-04-10T09:16:04Z</time>
      </trkpt>
      <trkpt lat="44.9297" lon="0.65267">
        <ele>152.9</ele>
        <time>2023-04-10T09:16:06Z</time>
      </trkpt>
      <trkpt lat="44.92977" lon="0.65274">
        <ele>152.6</ele>
        <time>2023-04-10T09:16:07Z</time>
      </trkpt>
      <trkpt lat="44.92983" lon="0.65281">
        <ele>152.3</ele>
        <time>2023-04-10T09:16:08Z</time>
      </trkpt>
      <trkpt lat="44.92989" lon="0.65289">
        <ele>151.9</ele>
        <time>2023-04-10T09:16:09Z</time>
      </trkpt>
      <trkpt lat="44.92994" lon="0.65296">
        <ele>151.6</ele>
        <time>2023-04-10T09:16:10Z</time>
      </trkpt>
      <trkpt lat="44.93" lon="0.65304">
        <ele>151.2</ele>
        <time>2023-04-10T09:16:11Z</time>
      </trkpt>
      <trkpt lat="44.93005" lon="0.65313">
        <ele>150.8</ele>
        <time>2023-04-10T09:16:12Z</time>
      </trkpt>
      <trkpt lat="44.93009" lon="0.65321">
        <ele>150.4</ele>
        <time>2023-04-10T09:16:13Z</time>
      </trkpt>
      <trkpt lat="44.93012" lon="0.6533">
        <ele>150.1</ele>
        <time>2023-04-10T09:16:14Z</time>
      </trkpt>
      <trkpt lat="44.93015" lon="0.65338">
        <ele>149.8</ele>
        <time>2023-04-10T09:16:15Z</time>
      </trkpt>
      <trkpt lat="44.93019" lon="0.65345">
        <ele>149.5</ele>
        <time>2023-04-10T09:16:16Z</time>
      </trkpt>
      <trkpt lat="44.9303" lon="0.65359">
        <ele>148.7</ele>
        <time>2023-04-10T09:16:18Z</time>
      </trkpt>
      <trkpt lat="44.93037" lon="0.65365">
        <ele>148.3</ele>
        <time>2023-04-10T09:16:19Z</time>
      </trkpt>
      <trkpt lat="44.93045" lon="0.65372">
        <ele>147.8</ele>
        <time>2023-04-10T09:16:20Z</time>
      </trkpt>
      <trkpt lat="44.93061" lon="0.65386">
        <ele>146.8</ele>
        <time>2023-04-10T09:16:22Z</time>
      </trkpt>
      <trkpt lat="44.93078" lon="0.65399">
        <ele>146</ele>
        <time>2023-04-10T09:16:24Z</time>
      </trkpt>
      <trkpt lat="44.93086" lon="0.65406">
        <ele>145.6</ele>
        <time>2023-04-10T09:16:25Z</time>
      </trkpt>
      <trkpt lat="44.93094" lon="0.65413">
        <ele>145.1</ele>
        <time>2023-04-10T09:16:26Z</time>
      </trkpt>
      <trkpt lat="44.93108" lon="0.65426">
        <ele>144.4</ele>
        <time>2023-04-10T09:16:28Z</time>
      </trkpt>
      <trkpt lat="44.93114" lon="0.65433">
        <ele>144.1</ele>
        <time>2023-04-10T09:16:29Z</time>
      </trkpt>
      <trkpt lat="44.9312" lon="0.65441">
        <ele>143.8</ele>
        <time>2023-04-10T09:16:30Z</time>
      </trkpt>
      <trkpt lat="44.9313" lon="0.65456">
        <ele>143.2</ele>
        <time>2023-04-10T09:16:32Z</time>
      </trkpt>
      <trkpt lat="44.93137" lon="0.65463">
        <ele>143</ele>
        <time>2023-04-10T09:16:33Z</time>
      </trkpt>
      <trkpt lat="44.93143" lon="0.65469">
        <ele>142.8</ele>
        <time>2023-04-10T09:16:34Z</time>
      </trkpt>
      <trkpt lat="44.93154" lon="0.65482">
        <ele>142.5</ele>
        <time>2023-04-10T09:16:36Z</time>
      </trkpt>
      <trkpt lat="44.93159" lon="0.65488">
        <ele>142.3</ele>
        <time>2023-04-10T09:16:37Z</time>
      </trkpt>
      <trkpt lat="44.93164" lon="0.65492">
        <ele>142.1</ele>
        <time>2023-04-10T09:16:38Z</time>
      </trkpt>
      <trkpt lat="44.93171" lon="0.65495">
        <ele>141.8</ele>
        <time>2023-04-10T09:16:40Z</time>
      </trkpt>
      <trkpt lat="44.93182" lon="0.65496">
        <ele>141.4</ele>
        <time>2023-04-10T09:16:42Z</time>
      </trkpt>
      <trkpt lat="44.93187" lon="0.65496">
        <ele>141.2</ele>
        <time>2023-04-10T09:16:43Z</time>
      </trkpt>
      <trkpt lat="44.93195" lon="0.65496">
        <ele>140.8</ele>
        <time>2023-04-10T09:16:44Z</time>
      </trkpt>
      <trkpt lat="44.93209" lon="0.65495">
        <ele>140.2</ele>
        <time>2023-04-10T09:16:46Z</time>
      </trkpt>
      <trkpt lat="44.93215" lon="0.65494">
        <ele>139.9</ele>
        <time>2023-04-10T09:16:47Z</time>
      </trkpt>
      <trkpt lat="44.93225" lon="0.65493">
        <ele>139.5</ele>
        <time>2023-04-10T09:16:48Z</time>
      </trkpt>
      <trkpt lat="44.93234" lon="0.65492">
        <ele>139.2</ele>
        <time>2023-04-10T09:16:49Z</time>
      </trkpt>
      <trkpt lat="44.93243" lon="0.65491">
        <ele>138.8</ele>
        <time>2023-04-10T09:16:50Z</time>
      </trkpt>
      <trkpt lat="44.93254" lon="0.6549">
        <ele>138.5</ele>
        <time>2023-04-10T09:16:51Z</time>
      </trkpt>
      <trkpt lat="44.93265" lon="0.65489">
        <ele>138.1</ele>
        <time>2023-04-10T09:16:52Z</time>
      </trkpt>
      <trkpt lat="44.93273" lon="0.65487">
        <ele>137.9</ele>
        <time>2023-04-10T09:16:53Z</time>
      </trkpt>
      <trkpt lat="44.93281" lon="0.65483">
        <ele>137.6</ele>
        <time>2023-04-10T09:16:54Z</time>
      </trkpt>
      <trkpt lat="44.93289" lon="0.65478">
        <ele>137.4</ele>
        <time>2023-04-10T09:16:55Z</time>
      </trkpt>
      <trkpt lat="44.93296" lon="0.65471">
        <ele>137.2</ele>
        <time>2023-04-10T09:16:56Z</time>
      </trkpt>
      <trkpt lat="44.93303" lon="0.65464">
        <ele>137.1</ele>
        <time>2023-04-10T09:16:57Z</time>
      </trkpt>
      <trkpt lat="44.93308" lon="0.65457">
        <ele>136.8</ele>
        <time>2023-04-10T09:16:58Z</time>
      </trkpt>
      <trkpt lat="44.93315" lon="0.6545">
        <ele>136.6</ele>
        <time>2023-04-10T09:16:59Z</time>
      </trkpt>
      <trkpt lat="44.93322" lon="0.65442">
        <ele>136.2</ele>
        <time>2023-04-10T09:17:00Z</time>
      </trkpt>
      <trkpt lat="44.93334" lon="0.65427">
        <ele>135.5</ele>
        <time>2023-04-10T09:17:02Z</time>
      </trkpt>
      <trkpt lat="44.9334" lon="0.6542">
        <ele>135.2</ele>
        <time>2023-04-10T09:17:03Z</time>
      </trkpt>
      <trkpt lat="44.93345" lon="0.65412">
        <ele>135.1</ele>
        <time>2023-04-10T09:17:04Z</time>
      </trkpt>
      <trkpt lat="44.9335" lon="0.65402">
        <ele>134.9</ele>
        <time>2023-04-10T09:17:05Z</time>
      </trkpt>
      <trkpt lat="44.93355" lon="0.65393">
        <ele>134.8</ele>
        <time>2023-04-10T09:17:06Z</time>
      </trkpt>
      <trkpt lat="44.9336" lon="0.65384">
        <ele>134.6</ele>
        <time>2023-04-10T09:17:07Z</time>
      </trkpt>
      <trkpt lat="44.93364" lon="0.65374">
        <ele>134.4</ele>
        <time>2023-04-10T09:17:08Z</time>
      </trkpt>
      <trkpt lat="44.93372" lon="0.65356">
        <ele>134.1</ele>
        <time>2023-04-10T09:17:10Z</time>
      </trkpt>
      <trkpt lat="44.93376" lon="0.65346">
        <ele>133.9</ele>
        <time>2023-04-10T09:17:11Z</time>
      </trkpt>
      <trkpt lat="44.9338" lon="0.65337">
        <ele>133.7</ele>
        <time>2023-04-10T09:17:12Z</time>
      </trkpt>
      <trkpt lat="44.93388" lon="0.6532">
        <ele>133.3</ele>
        <time>2023-04-10T09:17:14Z</time>
      </trkpt>
      <trkpt lat="44.93392" lon="0.65311">
        <ele>133.1</ele>
        <time>2023-04-10T09:17:15Z</time>
      </trkpt>
      <trkpt lat="44.93397" lon="0.65302">
        <ele>133</ele>
        <time>2023-04-10T09:17:16Z</time>
      </trkpt>
      <trkpt lat="44.93408" lon="0.65285">
        <ele>132.8</ele>
        <time>2023-04-10T09:17:18Z</time>
      </trkpt>
      <trkpt lat="44.93417" lon="0.65268">
        <ele>132.5</ele>
        <time>2023-04-10T09:17:20Z</time>
      </trkpt>
      <trkpt lat="44.93428" lon="0.65255">
        <ele>131.8</ele>
        <time>2023-04-10T09:17:22Z</time>
      </trkpt>
      <trkpt lat="44.93434" lon="0.65249">
        <ele>131.4</ele>
        <time>2023-04-10T09:17:23Z</time>
      </trkpt>
      <trkpt lat="44.93439" lon="0.65242">
        <ele>131</ele>
        <time>2023-04-10T09:17:24Z</time>
      </trkpt>
      <trkpt lat="44.9345" lon="0.65229">
        <ele>130.3</ele>
        <time>2023-04-10T09:17:26Z</time>
      </trkpt>
      <trkpt lat="44.93455" lon="0.65223">
        <ele>129.9</ele>
        <time>2023-04-10T09:17:27Z</time>
      </trkpt>
      <trkpt lat="44.9346" lon="0.65217">
        <ele>129.6</ele>
        <time>2023-04-10T09:17:28Z</time>
      </trkpt>
      <trkpt lat="44.93473" lon="0.65207">
        <ele>129.1</ele>
        <time>2023-04-10T09:17:30Z</time>
      </trkpt>
      <trkpt lat="44.93479" lon="0.65204">
        <ele>128.9</ele>
        <time>2023-04-10T09:17:31Z</time>
      </trkpt>
      <trkpt lat="44.93486" lon="0.65203">
        <ele>128.7</ele>
        <time>2023-04-10T09:17:32Z</time>
      </trkpt>
      <trkpt lat="44.93498" lon="0.65207">
        <ele>128.6</ele>
        <time>2023-04-10T09:17:34Z</time>
      </trkpt>
      <trkpt lat="44.93506" lon="0.65214">
        <ele>128.5</ele>
        <time>2023-04-10T09:17:36Z</time>
      </trkpt>
      <trkpt lat="44.93512" lon="0.65221">
        <ele>128.6</ele>
        <time>2023-04-10T09:17:38Z</time>
      </trkpt>
      <trkpt lat="44.93517" lon="0.65227">
        <ele>128.8</ele>
        <time>2023-04-10T09:17:40Z</time>
      </trkpt>
      <trkpt lat="44.93526" lon="0.65233">
        <ele>129</ele>
        <time>2023-04-10T09:17:42Z</time>
      </trkpt>
      <trkpt lat="44.9353" lon="0.65236">
        <ele>129</ele>
        <time>2023-04-10T09:17:43Z</time>
      </trkpt>
      <trkpt lat="44.93534" lon="0.65238">
        <ele>129.1</ele>
        <time>2023-04-10T09:17:44Z</time>
      </trkpt>
      <trkpt lat="44.93541" lon="0.65244">
        <ele>129.1</ele>
        <time>2023-04-10T09:17:46Z</time>
      </trkpt>
      <trkpt lat="44.93549" lon="0.65247">
        <ele>129.1</ele>
        <time>2023-04-10T09:17:48Z</time>
      </trkpt>
      <trkpt lat="44.93557" lon="0.65248">
        <ele>129.1</ele>
        <time>2023-04-10T09:17:50Z</time>
      </trkpt>
      <trkpt lat="44.93565" lon="0.6525">
        <ele>129</ele>
        <time>2023-04-10T09:17:52Z</time>
      </trkpt>
      <trkpt lat="44.93572" lon="0.6525">
        <ele>129</ele>
        <time>2023-04-10T09:17:54Z</time>
      </trkpt>
      <trkpt lat="44.93579" lon="0.65252">
        <ele>129</ele>
        <time>2023-04-10T09:17:56Z</time>
      </trkpt>
      <trkpt lat="44.93581" lon="0.65258">
        <ele>129</ele>
        <time>2023-04-10T09:17:58Z</time>
      </trkpt>
      <trkpt lat="44.9358" lon="0.6526">
        <ele>129</ele>
        <time>2023-04-10T09:17:59Z</time>
      </trkpt>
      <trkpt lat="44.93579" lon="0.65261">
        <ele>129.1</ele>
        <time>2023-04-10T09:18:00Z</time>
      </trkpt>
      <trkpt lat="44.93575" lon="0.65262">
        <ele>129.4</ele>
        <time>2023-04-10T09:18:02Z</time>
      </trkpt>
      <trkpt lat="44.93573" lon="0.65263">
        <ele>129.5</ele>
        <time>2023-04-10T09:18:03Z</time>
      </trkpt>
      <trkpt lat="44.93571" lon="0.65263">
        <ele>129.6</ele>
        <time>2023-04-10T09:18:04Z</time>
      </trkpt>
      <trkpt lat="44.93567" lon="0.65264">
        <ele>129.9</ele>
        <time>2023-04-10T09:18:06Z</time>
      </trkpt>
      <trkpt lat="44.93562" lon="0.65265">
        <ele>130.2</ele>
        <time>2023-04-10T09:18:08Z</time>
      </trkpt>
      <trkpt lat="44.9356" lon="0.65266">
        <ele>130.3</ele>
        <time>2023-04-10T09:18:09Z</time>
      </trkpt>
      <trkpt lat="44.93558" lon="0.65267">
        <ele>130.5</ele>
        <time>2023-04-10T09:18:10Z</time>
      </trkpt>
      <trkpt lat="44.93555" lon="0.65269">
        <ele>130.8</ele>
        <time>2023-04-10T09:18:12Z</time>
      </trkpt>
      <trkpt lat="44.93552" lon="0.6527">
        <ele>131</ele>
        <time>2023-04-10T09:18:14Z</time>
      </trkpt>
      <trkpt lat="44.93548" lon="0.65272">
        <ele>131.3</ele>
        <time>2023-04-10T09:18:16Z</time>
      </trkpt>
      <trkpt lat="44.93545" lon="0.65274">
        <ele>131.6</ele>
        <time>2023-04-10T09:18:18Z</time>
      </trkpt>
      <trkpt lat="44.93541" lon="0.65275">
        <ele>131.9</ele>
        <time>2023-04-10T09:18:20Z</time>
      </trkpt>
      <trkpt lat="44.93537" lon="0.65276">
        <ele>132.3</ele>
        <time>2023-04-10T09:18:22Z</time>
      </trkpt>
      <trkpt lat="44.93534" lon="0.65277">
        <ele>132.6</ele>
        <time>2023-04-10T09:18:24Z</time>
      </trkpt>
      <trkpt lat="44.9353" lon="0.65279">
        <ele>133</ele>
        <time>2023-04-10T09:18:26Z</time>
      </trkpt>
      <trkpt lat="44.93526" lon="0.65282">
        <ele>133.3</ele>
        <time>2023-04-10T09:18:28Z</time>
      </trkpt>
      <trkpt lat="44.93523" lon="0.65284">
        <ele>133.7</ele>
        <time>2023-04-10T09:18:30Z</time>
      </trkpt>
      <trkpt lat="44.9352" lon="0.65286">
        <ele>134</ele>
        <time>2023-04-10T09:18:32Z</time>
      </trkpt>
      <trkpt lat="44.93516" lon="0.65289">
        <ele>134.4</ele>
        <time>2023-04-10T09:18:34Z</time>
      </trkpt>
      <trkpt lat="44.93512" lon="0.65291">
        <ele>134.8</ele>
        <time>2023-04-10T09:18:36Z</time>
      </trkpt>
      <trkpt lat="44.93509" lon="0.65294">
        <ele>135.2</ele>
        <time>2023-04-10T09:18:38Z</time>
      </trkpt>
      <trkpt lat="44.93507" lon="0.65295">
        <ele>135.3</ele>
        <time>2023-04-10T09:18:39Z</time>
      </trkpt>
      <trkpt lat="44.93505" lon="0.65296">
        <ele>135.5</ele>
        <time>2023-04-10T09:18:40Z</time>
      </trkpt>
      <trkpt lat="44.93502" lon="0.653">
        <ele>135.9</ele>
        <time>2023-04-10T09:18:42Z</time>
      </trkpt>
      <trkpt lat="44.93499" lon="0.65302">
        <ele>136.2</ele>
        <time>2023-04-10T09:18:44Z</time>
      </trkpt>
      <trkpt lat="44.93495" lon="0.65306">
        <ele>136.5</ele>
        <time>2023-04-10T09:18:46Z</time>
      </trkpt>
      <trkpt lat="44.93493" lon="0.6531">
        <ele>136.8</ele>
        <time>2023-04-10T09:18:48Z</time>
      </trkpt>
      <trkpt lat="44.9349" lon="0.65313">
        <ele>137.1</ele>
        <time>2023-04-10T09:18:50Z</time>
      </trkpt>
      <trkpt lat="44.93487" lon="0.65316">
        <ele>137.4</ele>
        <time>2023-04-10T09:18:52Z</time>
      </trkpt>
      <trkpt lat="44.93484" lon="0.6532">
        <ele>137.7</ele>
        <time>2023-04-10T09:18:54Z</time>
      </trkpt>
      <trkpt lat="44.93482" lon="0.65324">
        <ele>138</ele>
        <time>2023-04-10T09:18:56Z</time>
      </trkpt>
      <trkpt lat="44.93479" lon="0.65329">
        <ele>138.3</ele>
        <time>2023-04-10T09:18:58Z</time>
      </trkpt>
      <trkpt lat="44.93478" lon="0.65332">
        <ele>138.4</ele>
        <time>2023-04-10T09:18:59Z</time>
      </trkpt>
      <trkpt lat="44.93477" lon="0.65333">
        <ele>138.6</ele>
        <time>2023-04-10T09:19:00Z</time>
      </trkpt>
      <trkpt lat="44.93475" lon="0.65337">
        <ele>138.8</ele>
        <time>2023-04-10T09:19:02Z</time>
      </trkpt>
      <trkpt lat="44.93473" lon="0.65342">
        <ele>139</ele>
        <time>2023-04-10T09:19:04Z</time>
      </trkpt>
      <trkpt lat="44.93471" lon="0.65346">
        <ele>139.3</ele>
        <time>2023-04-10T09:19:06Z</time>
      </trkpt>
      <trkpt lat="44.93469" lon="0.65351">
        <ele>139.6</ele>
        <time>2023-04-10T09:19:08Z</time>
      </trkpt>
      <trkpt lat="44.93468" lon="0.65354">
        <ele>139.7</ele>
        <time>2023-04-10T09:19:09Z</time>
      </trkpt>
      <trkpt lat="44.93468" lon="0.65357">
        <ele>139.9</ele>
        <time>2023-04-10T09:19:10Z</time>
      </trkpt>
      <trkpt lat="44.93466" lon="0.65361">
        <ele>140.1</ele>
        <time>2023-04-10T09:19:12Z</time>
      </trkpt>
      <trkpt lat="44.93465" lon="0.65366">
        <ele>140.4</ele>
        <time>2023-04-10T09:19:14Z</time>
      </trkpt>
      <trkpt lat="44.93465" lon="0.65369">
        <ele>140.5</ele>
        <time>2023-04-10T09:19:15Z</time>
      </trkpt>
      <trkpt lat="44.93464" lon="0.65371">
        <ele>140.7</ele>
        <time>2023-04-10T09:19:16Z</time>
      </trkpt>
      <trkpt lat="44.93463" lon="0.65377">
        <ele>141</ele>
        <time>2023-04-10T09:19:18Z</time>
      </trkpt>
      <trkpt lat="44.93462" lon="0.65382">
        <ele>141.3</ele>
        <time>2023-04-10T09:19:20Z</time>
      </trkpt>
      <trkpt lat="44.93461" lon="0.6539">
        <ele>141.7</ele>
        <time>2023-04-10T09:19:22Z</time>
      </trkpt>
      <trkpt lat="44.93461" lon="0.6539">
        <ele>141.7</ele>
        <time>2023-04-10T09:19:23Z</time>
      </trkpt>
      <trkpt lat="44.93461" lon="0.65392">
        <ele>141.8</ele>
        <time>2023-04-10T09:19:24Z</time>
      </trkpt>
      <trkpt lat="44.9346" lon="0.65398">
        <ele>142.2</ele>
        <time>2023-04-10T09:19:26Z</time>
      </trkpt>
      <trkpt lat="44.93459" lon="0.65402">
        <ele>142.5</ele>
        <time>2023-04-10T09:19:28Z</time>
      </trkpt>
      <trkpt lat="44.93458" lon="0.65407">
        <ele>142.8</ele>
        <time>2023-04-10T09:19:30Z</time>
      </trkpt>
      <trkpt lat="44.93457" lon="0.65411">
        <ele>143.1</ele>
        <time>2023-04-10T09:19:32Z</time>
      </trkpt>
      <trkpt lat="44.93457" lon="0.65415">
        <ele>143.3</ele>
        <time>2023-04-10T09:19:34Z</time>
      </trkpt>
      <trkpt lat="44.93456" lon="0.65419">
        <ele>143.6</ele>
        <time>2023-04-10T09:19:36Z</time>
      </trkpt>
      <trkpt lat="44.93456" lon="0.65421">
        <ele>143.7</ele>
        <time>2023-04-10T09:19:37Z</time>
      </trkpt>
      <trkpt lat="44.93455" lon="0.65423">
        <ele>143.9</ele>
        <time>2023-04-10T09:19:38Z</time>
      </trkpt>
      <trkpt lat="44.93454" lon="0.65426">
        <ele>144.1</ele>
        <time>2023-04-10T09:19:40Z</time>
      </trkpt>
      <trkpt lat="44.93454" lon="0.65431">
        <ele>144.4</ele>
        <time>2023-04-10T09:19:42Z</time>
      </trkpt>
      <trkpt lat="44.93454" lon="0.65435">
        <ele>144.7</ele>
        <time>2023-04-10T09:19:44Z</time>
      </trkpt>
      <trkpt lat="44.93453" lon="0.6544">
        <ele>145.1</ele>
        <time>2023-04-10T09:19:46Z</time>
      </trkpt>
      <trkpt lat="44.93452" lon="0.65444">
        <ele>145.3</ele>
        <time>2023-04-10T09:19:48Z</time>
      </trkpt>
      <trkpt lat="44.93452" lon="0.65448">
        <ele>145.6</ele>
        <time>2023-04-10T09:19:50Z</time>
      </trkpt>
      <trkpt lat="44.93452" lon="0.65451">
        <ele>145.8</ele>
        <time>2023-04-10T09:19:51Z</time>
      </trkpt>
      <trkpt lat="44.93451" lon="0.65453">
        <ele>145.9</ele>
        <time>2023-04-10T09:19:52Z</time>
      </trkpt>
      <trkpt lat="44.9345" lon="0.65458">
        <ele>146.3</ele>
        <time>2023-04-10T09:19:54Z</time>
      </trkpt>
      <trkpt lat="44.93449" lon="0.65464">
        <ele>146.7</ele>
        <time>2023-04-10T09:19:56Z</time>
      </trkpt>
      <trkpt lat="44.93448" lon="0.65468">
        <ele>146.9</ele>
        <time>2023-04-10T09:19:58Z</time>
      </trkpt>
      <trkpt lat="44.93447" lon="0.65472">
        <ele>147.3</ele>
        <time>2023-04-10T09:20:00Z</time>
      </trkpt>
      <trkpt lat="44.93446" lon="0.65478">
        <ele>147.7</ele>
        <time>2023-04-10T09:20:02Z</time>
      </trkpt>
      <trkpt lat="44.93446" lon="0.65483">
        <ele>148</ele>
        <time>2023-04-10T09:20:04Z</time>
      </trkpt>
      <trkpt lat="44.93445" lon="0.65488">
        <ele>148.3</ele>
        <time>2023-04-10T09:20:06Z</time>
      </trkpt>
      <trkpt lat="44.93444" lon="0.65492">
        <ele>148.6</ele>
        <time>2023-04-10T09:20:08Z</time>
      </trkpt>
      <trkpt lat="44.93443" lon="0.65497">
        <ele>148.9</ele>
        <time>2023-04-10T09:20:10Z</time>
      </trkpt>
      <trkpt lat="44.93442" lon="0.65501">
        <ele>149.2</ele>
        <time>2023-04-10T09:20:12Z</time>
      </trkpt>
      <trkpt lat="44.93442" lon="0.65503">
        <ele>149.3</ele>
        <time>2023-04-10T09:20:13Z</time>
      </trkpt>
      <trkpt lat="44.93441" lon="0.65506">
        <ele>149.5</ele>
        <time>2023-04-10T09:20:14Z</time>
      </trkpt>
      <trkpt lat="44.93441" lon="0.6551">
        <ele>149.8</ele>
        <time>2023-04-10T09:20:16Z</time>
      </trkpt>
      <trkpt lat="44.93441" lon="0.65514">
        <ele>150</ele>
        <time>2023-04-10T09:20:18Z</time>
      </trkpt>
      <trkpt lat="44.9344" lon="0.65518">
        <ele>150.3</ele>
        <time>2023-04-10T09:20:20Z</time>
      </trkpt>
      <trkpt lat="44.93439" lon="0.65521">
        <ele>150.4</ele>
        <time>2023-04-10T09:20:21Z</time>
      </trkpt>
      <trkpt lat="44.93438" lon="0.65526">
        <ele>150.7</ele>
        <time>2023-04-10T09:20:22Z</time>
      </trkpt>
      <trkpt lat="44.93438" lon="0.65528">
        <ele>150.8</ele>
        <time>2023-04-10T09:20:24Z</time>
      </trkpt>
      <trkpt lat="44.93438" lon="0.65533">
        <ele>151.1</ele>
        <time>2023-04-10T09:20:26Z</time>
      </trkpt>
      <trkpt lat="44.93437" lon="0.65538">
        <ele>151.4</ele>
        <time>2023-04-10T09:20:28Z</time>
      </trkpt>
      <trkpt lat="44.93435" lon="0.65543">
        <ele>151.7</ele>
        <time>2023-04-10T09:20:30Z</time>
      </trkpt>
      <trkpt lat="44.93434" lon="0.65549">
        <ele>152</ele>
        <time>2023-04-10T09:20:32Z</time>
      </trkpt>
      <trkpt lat="44.93433" lon="0.65554">
        <ele>152.2</ele>
        <time>2023-04-10T09:20:34Z</time>
      </trkpt>
      <trkpt lat="44.93432" lon="0.65559">
        <ele>152.4</ele>
        <time>2023-04-10T09:20:36Z</time>
      </trkpt>
      <trkpt lat="44.9343" lon="0.65563">
        <ele>152.7</ele>
        <time>2023-04-10T09:20:38Z</time>
      </trkpt>
      <trkpt lat="44.93428" lon="0.65568">
        <ele>152.9</ele>
        <time>2023-04-10T09:20:40Z</time>
      </trkpt>
      <trkpt lat="44.93426" lon="0.65573">
        <ele>153.2</ele>
        <time>2023-04-10T09:20:42Z</time>
      </trkpt>
      <trkpt lat="44.93424" lon="0.65578">
        <ele>153.4</ele>
        <time>2023-04-10T09:20:44Z</time>
      </trkpt>
      <trkpt lat="44.93423" lon="0.65582">
        <ele>153.6</ele>
        <time>2023-04-10T09:20:46Z</time>
      </trkpt>
      <trkpt lat="44.93421" lon="0.65587">
        <ele>153.8</ele>
        <time>2023-04-10T09:20:48Z</time>
      </trkpt>
      <trkpt lat="44.93419" lon="0.65592">
        <ele>154</ele>
        <time>2023-04-10T09:20:50Z</time>
      </trkpt>
      <trkpt lat="44.93417" lon="0.65597">
        <ele>154.2</ele>
        <time>2023-04-10T09:20:52Z</time>
      </trkpt>
      <trkpt lat="44.93415" lon="0.65601">
        <ele>154.4</ele>
        <time>2023-04-10T09:20:54Z</time>
      </trkpt>
      <trkpt lat="44.93415" lon="0.65604">
        <ele>154.4</ele>
        <time>2023-04-10T09:20:55Z</time>
      </trkpt>
      <trkpt lat="44.93415" lon="0.65606">
        <ele>154.5</ele>
        <time>2023-04-10T09:20:56Z</time>
      </trkpt>
      <trkpt lat="44.93413" lon="0.65611">
        <ele>154.7</ele>
        <time>2023-04-10T09:20:58Z</time>
      </trkpt>
      <trkpt lat="44.93411" lon="0.65616">
        <ele>154.9</ele>
        <time>2023-04-10T09:21:00Z</time>
      </trkpt>
      <trkpt lat="44.93409" lon="0.6562">
        <ele>155</ele>
        <time>2023-04-10T09:21:02Z</time>
      </trkpt>
      <trkpt lat="44.93408" lon="0.65624">
        <ele>155.2</ele>
        <time>2023-04-10T09:21:04Z</time>
      </trkpt>
      <trkpt lat="44.93408" lon="0.65626">
        <ele>155.2</ele>
        <time>2023-04-10T09:21:05Z</time>
      </trkpt>
      <trkpt lat="44.93406" lon="0.65627">
        <ele>155.3</ele>
        <time>2023-04-10T09:21:06Z</time>
      </trkpt>
      <trkpt lat="44.93404" lon="0.65632">
        <ele>155.5</ele>
        <time>2023-04-10T09:21:08Z</time>
      </trkpt>
      <trkpt lat="44.93402" lon="0.65637">
        <ele>155.7</ele>
        <time>2023-04-10T09:21:10Z</time>
      </trkpt>
      <trkpt lat="44.93399" lon="0.65642">
        <ele>155.9</ele>
        <time>2023-04-10T09:21:12Z</time>
      </trkpt>
      <trkpt lat="44.93397" lon="0.65646">
        <ele>156</ele>
        <time>2023-04-10T09:21:14Z</time>
      </trkpt>
      <trkpt lat="44.93395" lon="0.65651">
        <ele>156.2</ele>
        <time>2023-04-10T09:21:16Z</time>
      </trkpt>
      <trkpt lat="44.93393" lon="0.65655">
        <ele>156.3</ele>
        <time>2023-04-10T09:21:18Z</time>
      </trkpt>
      <trkpt lat="44.93392" lon="0.65656">
        <ele>156.4</ele>
        <time>2023-04-10T09:21:19Z</time>
      </trkpt>
      <trkpt lat="44.9339" lon="0.65658">
        <ele>156.5</ele>
        <time>2023-04-10T09:21:20Z</time>
      </trkpt>
      <trkpt lat="44.93389" lon="0.65663">
        <ele>156.6</ele>
        <time>2023-04-10T09:21:22Z</time>
      </trkpt>
      <trkpt lat="44.93388" lon="0.65664">
        <ele>156.7</ele>
        <time>2023-04-10T09:21:23Z</time>
      </trkpt>
      <trkpt lat="44.93387" lon="0.65667">
        <ele>156.8</ele>
        <time>2023-04-10T09:21:24Z</time>
      </trkpt>
      <trkpt lat="44.93385" lon="0.65672">
        <ele>157</ele>
        <time>2023-04-10T09:21:26Z</time>
      </trkpt>
      <trkpt lat="44.93383" lon="0.65675">
        <ele>157.1</ele>
        <time>2023-04-10T09:21:28Z</time>
      </trkpt>
      <trkpt lat="44.93381" lon="0.65679">
        <ele>157.2</ele>
        <time>2023-04-10T09:21:30Z</time>
      </trkpt>
      <trkpt lat="44.93379" lon="0.65684">
        <ele>157.4</ele>
        <time>2023-04-10T09:21:32Z</time>
      </trkpt>
      <trkpt lat="44.93377" lon="0.65692">
        <ele>157.6</ele>
        <time>2023-04-10T09:21:34Z</time>
      </trkpt>
      <trkpt lat="44.93374" lon="0.65698">
        <ele>157.7</ele>
        <time>2023-04-10T09:21:36Z</time>
      </trkpt>
      <trkpt lat="44.9337" lon="0.65706">
        <ele>158</ele>
        <time>2023-04-10T09:21:38Z</time>
      </trkpt>
      <trkpt lat="44.93369" lon="0.6571">
        <ele>158.2</ele>
        <time>2023-04-10T09:21:39Z</time>
      </trkpt>
      <trkpt lat="44.93367" lon="0.65713">
        <ele>158.3</ele>
        <time>2023-04-10T09:21:40Z</time>
      </trkpt>
      <trkpt lat="44.93364" lon="0.65718">
        <ele>158.5</ele>
        <time>2023-04-10T09:21:42Z</time>
      </trkpt>
      <trkpt lat="44.93362" lon="0.65721">
        <ele>158.8</ele>
        <time>2023-04-10T09:21:44Z</time>
      </trkpt>
      <trkpt lat="44.93362" lon="0.65725">
        <ele>159</ele>
        <time>2023-04-10T09:21:45Z</time>
      </trkpt>
      <trkpt lat="44.93361" lon="0.65729">
        <ele>159.2</ele>
        <time>2023-04-10T09:21:46Z</time>
      </trkpt>
      <trkpt lat="44.93359" lon="0.65735">
        <ele>159.6</ele>
        <time>2023-04-10T09:21:48Z</time>
      </trkpt>
      <trkpt lat="44.93358" lon="0.6574">
        <ele>160</ele>
        <time>2023-04-10T09:21:50Z</time>
      </trkpt>
      <trkpt lat="44.93356" lon="0.65747">
        <ele>160.4</ele>
        <time>2023-04-10T09:21:52Z</time>
      </trkpt>
      <trkpt lat="44.93355" lon="0.65753">
        <ele>160.7</ele>
        <time>2023-04-10T09:21:54Z</time>
      </trkpt>
      <trkpt lat="44.93354" lon="0.65759">
        <ele>160.9</ele>
        <time>2023-04-10T09:21:56Z</time>
      </trkpt>
      <trkpt lat="44.93353" lon="0.65765">
        <ele>161.2</ele>
        <time>2023-04-10T09:21:58Z</time>
      </trkpt>
      <trkpt lat="44.93352" lon="0.65768">
        <ele>161.3</ele>
        <time>2023-04-10T09:21:59Z</time>
      </trkpt>
      <trkpt lat="44.93351" lon="0.65771">
        <ele>161.5</ele>
        <time>2023-04-10T09:22:00Z</time>
      </trkpt>
      <trkpt lat="44.93348" lon="0.65777">
        <ele>161.8</ele>
        <time>2023-04-10T09:22:02Z</time>
      </trkpt>
      <trkpt lat="44.93347" lon="0.6578">
        <ele>161.9</ele>
        <time>2023-04-10T09:22:04Z</time>
      </trkpt>
      <trkpt lat="44.93347" lon="0.65782">
        <ele>162</ele>
        <time>2023-04-10T09:22:05Z</time>
      </trkpt>
      <trkpt lat="44.93346" lon="0.65785">
        <ele>162.1</ele>
        <time>2023-04-10T09:22:06Z</time>
      </trkpt>
      <trkpt lat="44.93343" lon="0.65789">
        <ele>162.3</ele>
        <time>2023-04-10T09:22:07Z</time>
      </trkpt>
      <trkpt lat="44.93343" lon="0.65789">
        <ele>162.3</ele>
        <time>2023-04-10T09:22:08Z</time>
      </trkpt>
      <trkpt lat="44.93341" lon="0.65794">
        <ele>162.5</ele>
        <time>2023-04-10T09:22:10Z</time>
      </trkpt>
      <trkpt lat="44.93339" lon="0.65802">
        <ele>162.8</ele>
        <time>2023-04-10T09:22:12Z</time>
      </trkpt>
      <trkpt lat="44.93338" lon="0.65804">
        <ele>162.9</ele>
        <time>2023-04-10T09:22:13Z</time>
      </trkpt>
      <trkpt lat="44.93338" lon="0.65807">
        <ele>163</ele>
        <time>2023-04-10T09:22:14Z</time>
      </trkpt>
      <trkpt lat="44.93337" lon="0.65812">
        <ele>163.1</ele>
        <time>2023-04-10T09:22:15Z</time>
      </trkpt>
      <trkpt lat="44.93336" lon="0.65814">
        <ele>163.2</ele>
        <time>2023-04-10T09:22:16Z</time>
      </trkpt>
      <trkpt lat="44.93336" lon="0.65816">
        <ele>163.2</ele>
        <time>2023-04-10T09:22:17Z</time>
      </trkpt>
      <trkpt lat="44.93335" lon="0.65819">
        <ele>163.3</ele>
        <time>2023-04-10T09:22:18Z</time>
      </trkpt>
      <trkpt lat="44.93333" lon="0.65828">
        <ele>163.4</ele>
        <time>2023-04-10T09:22:20Z</time>
      </trkpt>
      <trkpt lat="44.93329" lon="0.65842">
        <ele>163.5</ele>
        <time>2023-04-10T09:22:22Z</time>
      </trkpt>
      <trkpt lat="44.93328" lon="0.65847">
        <ele>163.5</ele>
        <time>2023-04-10T09:22:24Z</time>
      </trkpt>
      <trkpt lat="44.93326" lon="0.65856">
        <ele>163.5</ele>
        <time>2023-04-10T09:22:26Z</time>
      </trkpt>
      <trkpt lat="44.93325" lon="0.65864">
        <ele>163.5</ele>
        <time>2023-04-10T09:22:28Z</time>
      </trkpt>
      <trkpt lat="44.93324" lon="0.65868">
        <ele>163.5</ele>
        <time>2023-04-10T09:22:29Z</time>
      </trkpt>
      <trkpt lat="44.93323" lon="0.65874">
        <ele>163.5</ele>
        <time>2023-04-10T09:22:30Z</time>
      </trkpt>
      <trkpt lat="44.93321" lon="0.65883">
        <ele>163.3</ele>
        <time>2023-04-10T09:22:32Z</time>
      </trkpt>
      <trkpt lat="44.93318" lon="0.65888">
        <ele>163.2</ele>
        <time>2023-04-10T09:22:34Z</time>
      </trkpt>
      <trkpt lat="44.93318" lon="0.65888">
        <ele>163.2</ele>
        <time>2023-04-10T09:22:35Z</time>
      </trkpt>
      <trkpt lat="44.93318" lon="0.65897">
        <ele>163</ele>
        <time>2023-04-10T09:25:41Z</time>
      </trkpt>
      <trkpt lat="44.9332" lon="0.659">
        <ele>162.9</ele>
        <time>2023-04-10T09:25:42Z</time>
      </trkpt>
      <trkpt lat="44.93322" lon="0.65909">
        <ele>162.5</ele>
        <time>2023-04-10T09:25:44Z</time>
      </trkpt>
      <trkpt lat="44.93324" lon="0.6592">
        <ele>161.9</ele>
        <time>2023-04-10T09:25:46Z</time>
      </trkpt>
      <trkpt lat="44.93326" lon="0.65927">
        <ele>161.6</ele>
        <time>2023-04-10T09:25:47Z</time>
      </trkpt>
      <trkpt lat="44.93327" lon="0.65936">
        <ele>161.1</ele>
        <time>2023-04-10T09:25:48Z</time>
      </trkpt>
      <trkpt lat="44.9333" lon="0.65944">
        <ele>160.7</ele>
        <time>2023-04-10T09:25:49Z</time>
      </trkpt>
      <trkpt lat="44.93333" lon="0.65954">
        <ele>160.1</ele>
        <time>2023-04-10T09:25:50Z</time>
      </trkpt>
      <trkpt lat="44.9334" lon="0.65975">
        <ele>159</ele>
        <time>2023-04-10T09:25:52Z</time>
      </trkpt>
      <trkpt lat="44.93344" lon="0.65986">
        <ele>158.4</ele>
        <time>2023-04-10T09:25:53Z</time>
      </trkpt>
      <trkpt lat="44.93348" lon="0.65997">
        <ele>157.8</ele>
        <time>2023-04-10T09:25:54Z</time>
      </trkpt>
      <trkpt lat="44.93357" lon="0.6602">
        <ele>156.3</ele>
        <time>2023-04-10T09:25:56Z</time>
      </trkpt>
      <trkpt lat="44.9336" lon="0.66032">
        <ele>155.4</ele>
        <time>2023-04-10T09:25:57Z</time>
      </trkpt>
      <trkpt lat="44.93364" lon="0.66045">
        <ele>154.6</ele>
        <time>2023-04-10T09:25:58Z</time>
      </trkpt>
      <trkpt lat="44.93368" lon="0.66055">
        <ele>153.9</ele>
        <time>2023-04-10T09:25:59Z</time>
      </trkpt>
      <trkpt lat="44.93372" lon="0.66062">
        <ele>153.3</ele>
        <time>2023-04-10T09:26:00Z</time>
      </trkpt>
      <trkpt lat="44.93378" lon="0.66067">
        <ele>152.7</ele>
        <time>2023-04-10T09:26:01Z</time>
      </trkpt>
      <trkpt lat="44.93385" lon="0.66068">
        <ele>152.2</ele>
        <time>2023-04-10T09:26:02Z</time>
      </trkpt>
      <trkpt lat="44.93392" lon="0.66066">
        <ele>151.6</ele>
        <time>2023-04-10T09:26:03Z</time>
      </trkpt>
      <trkpt lat="44.934" lon="0.66065">
        <ele>151</ele>
        <time>2023-04-10T09:26:04Z</time>
      </trkpt>
      <trkpt lat="44.93407" lon="0.66066">
        <ele>150.5</ele>
        <time>2023-04-10T09:26:05Z</time>
      </trkpt>
      <trkpt lat="44.93415" lon="0.66066">
        <ele>149.9</ele>
        <time>2023-04-10T09:26:06Z</time>
      </trkpt>
      <trkpt lat="44.9343" lon="0.66067">
        <ele>148.9</ele>
        <time>2023-04-10T09:26:08Z</time>
      </trkpt>
      <trkpt lat="44.93439" lon="0.66067">
        <ele>148.3</ele>
        <time>2023-04-10T09:26:09Z</time>
      </trkpt>
      <trkpt lat="44.93447" lon="0.66069">
        <ele>147.9</ele>
        <time>2023-04-10T09:26:10Z</time>
      </trkpt>
      <trkpt lat="44.93463" lon="0.66075">
        <ele>147.2</ele>
        <time>2023-04-10T09:26:12Z</time>
      </trkpt>
      <trkpt lat="44.93471" lon="0.66079">
        <ele>146.9</ele>
        <time>2023-04-10T09:26:13Z</time>
      </trkpt>
      <trkpt lat="44.93478" lon="0.66082">
        <ele>146.5</ele>
        <time>2023-04-10T09:26:14Z</time>
      </trkpt>
      <trkpt lat="44.93486" lon="0.66086">
        <ele>145.9</ele>
        <time>2023-04-10T09:26:16Z</time>
      </trkpt>
      <trkpt lat="44.9351" lon="0.66097">
        <ele>144.7</ele>
        <time>2023-04-10T09:26:18Z</time>
      </trkpt>
      <trkpt lat="44.93524" lon="0.66105">
        <ele>144.1</ele>
        <time>2023-04-10T09:26:20Z</time>
      </trkpt>
      <trkpt lat="44.93532" lon="0.66108">
        <ele>143.9</ele>
        <time>2023-04-10T09:26:21Z</time>
      </trkpt>
      <trkpt lat="44.9354" lon="0.66109">
        <ele>143.6</ele>
        <time>2023-04-10T09:26:22Z</time>
      </trkpt>
      <trkpt lat="44.93555" lon="0.6611">
        <ele>142.9</ele>
        <time>2023-04-10T09:26:24Z</time>
      </trkpt>
      <trkpt lat="44.93572" lon="0.66109">
        <ele>142.1</ele>
        <time>2023-04-10T09:26:26Z</time>
      </trkpt>
      <trkpt lat="44.9358" lon="0.66107">
        <ele>141.6</ele>
        <time>2023-04-10T09:26:27Z</time>
      </trkpt>
      <trkpt lat="44.93589" lon="0.66105">
        <ele>141</ele>
        <time>2023-04-10T09:26:28Z</time>
      </trkpt>
      <trkpt lat="44.93607" lon="0.66102">
        <ele>140</ele>
        <time>2023-04-10T09:26:30Z</time>
      </trkpt>
      <trkpt lat="44.93617" lon="0.66099">
        <ele>139.5</ele>
        <time>2023-04-10T09:26:31Z</time>
      </trkpt>
      <trkpt lat="44.93625" lon="0.66094">
        <ele>139.2</ele>
        <time>2023-04-10T09:26:32Z</time>
      </trkpt>
      <trkpt lat="44.93632" lon="0.66088">
        <ele>139</ele>
        <time>2023-04-10T09:26:33Z</time>
      </trkpt>
      <trkpt lat="44.93637" lon="0.66081">
        <ele>138.9</ele>
        <time>2023-04-10T09:26:34Z</time>
      </trkpt>
      <trkpt lat="44.93644" lon="0.66077">
        <ele>138.9</ele>
        <time>2023-04-10T09:26:35Z</time>
      </trkpt>
      <trkpt lat="44.93651" lon="0.66073">
        <ele>138.8</ele>
        <time>2023-04-10T09:26:36Z</time>
      </trkpt>
      <trkpt lat="44.93658" lon="0.6607">
        <ele>138.6</ele>
        <time>2023-04-10T09:26:37Z</time>
      </trkpt>
      <trkpt lat="44.93664" lon="0.66066">
        <ele>138.4</ele>
        <time>2023-04-10T09:26:38Z</time>
      </trkpt>
      <trkpt lat="44.93675" lon="0.6606">
        <ele>138.3</ele>
        <time>2023-04-10T09:26:40Z</time>
      </trkpt>
      <trkpt lat="44.93688" lon="0.66057">
        <ele>138.5</ele>
        <time>2023-04-10T09:26:42Z</time>
      </trkpt>
      <trkpt lat="44.93695" lon="0.66057">
        <ele>138.6</ele>
        <time>2023-04-10T09:26:43Z</time>
      </trkpt>
      <trkpt lat="44.93703" lon="0.66056">
        <ele>138.5</ele>
        <time>2023-04-10T09:26:44Z</time>
      </trkpt>
      <trkpt lat="44.93711" lon="0.66055">
        <ele>138.4</ele>
        <time>2023-04-10T09:26:45Z</time>
      </trkpt>
      <trkpt lat="44.93719" lon="0.66051">
        <ele>138.4</ele>
        <time>2023-04-10T09:26:46Z</time>
      </trkpt>
      <trkpt lat="44.93732" lon="0.66043">
        <ele>138.3</ele>
        <time>2023-04-10T09:26:48Z</time>
      </trkpt>
      <trkpt lat="44.93744" lon="0.66032">
        <ele>138.1</ele>
        <time>2023-04-10T09:26:50Z</time>
      </trkpt>
      <trkpt lat="44.93755" lon="0.66021">
        <ele>137.8</ele>
        <time>2023-04-10T09:26:52Z</time>
      </trkpt>
      <trkpt lat="44.93758" lon="0.66018">
        <ele>137.7</ele>
        <time>2023-04-10T09:26:53Z</time>
      </trkpt>
      <trkpt lat="44.93762" lon="0.66018">
        <ele>137.6</ele>
        <time>2023-04-10T09:26:54Z</time>
      </trkpt>
      <trkpt lat="44.93768" lon="0.66022">
        <ele>137.4</ele>
        <time>2023-04-10T09:26:56Z</time>
      </trkpt>
      <trkpt lat="44.93773" lon="0.66028">
        <ele>137.1</ele>
        <time>2023-04-10T09:26:58Z</time>
      </trkpt>
      <trkpt lat="44.9378" lon="0.66034">
        <ele>136.7</ele>
        <time>2023-04-10T09:27:00Z</time>
      </trkpt>
      <trkpt lat="44.93785" lon="0.66041">
        <ele>136.6</ele>
        <time>2023-04-10T09:27:02Z</time>
      </trkpt>
      <trkpt lat="44.93789" lon="0.66047">
        <ele>136.5</ele>
        <time>2023-04-10T09:27:04Z</time>
      </trkpt>
      <trkpt lat="44.93793" lon="0.66053">
        <ele>136.4</ele>
        <time>2023-04-10T09:27:06Z</time>
      </trkpt>
      <trkpt lat="44.93796" lon="0.66062">
        <ele>136.3</ele>
        <time>2023-04-10T09:27:08Z</time>
      </trkpt>
      <trkpt lat="44.93801" lon="0.66068">
        <ele>136.2</ele>
        <time>2023-04-10T09:27:10Z</time>
      </trkpt>
      <trkpt lat="44.93803" lon="0.66075">
        <ele>136.1</ele>
        <time>2023-04-10T09:27:12Z</time>
      </trkpt>
      <trkpt lat="44.93804" lon="0.66078">
        <ele>136.1</ele>
        <time>2023-04-10T09:27:13Z</time>
      </trkpt>
      <trkpt lat="44.93804" lon="0.6608">
        <ele>136</ele>
        <time>2023-04-10T09:27:14Z</time>
      </trkpt>
      <trkpt lat="44.93805" lon="0.66085">
        <ele>136</ele>
        <time>2023-04-10T09:27:16Z</time>
      </trkpt>
      <trkpt lat="44.93806" lon="0.66089">
        <ele>135.9</ele>
        <time>2023-04-10T09:27:18Z</time>
      </trkpt>
      <trkpt lat="44.93807" lon="0.66091">
        <ele>135.9</ele>
        <time>2023-04-10T09:27:20Z</time>
      </trkpt>
      <trkpt lat="44.93807" lon="0.66091">
        <ele>135.9</ele>
        <time>2023-04-10T09:27:21Z</time>
      </trkpt>
      <trkpt lat="44.9381" lon="0.66098">
        <ele>135.9</ele>
        <time>2023-04-10T09:27:26Z</time>
      </trkpt>
      <trkpt lat="44.93812" lon="0.66101">
        <ele>135.9</ele>
        <time>2023-04-10T09:27:27Z</time>
      </trkpt>
      <trkpt lat="44.93813" lon="0.66104">
        <ele>135.9</ele>
        <time>2023-04-10T09:27:28Z</time>
      </trkpt>
      <trkpt lat="44.93815" lon="0.66109">
        <ele>136</ele>
        <time>2023-04-10T09:27:30Z</time>
      </trkpt>
      <trkpt lat="44.93816" lon="0.66111">
        <ele>136.1</ele>
        <time>2023-04-10T09:27:31Z</time>
      </trkpt>
      <trkpt lat="44.93817" lon="0.66115">
        <ele>136.1</ele>
        <time>2023-04-10T09:27:32Z</time>
      </trkpt>
      <trkpt lat="44.9382" lon="0.66121">
        <ele>136.3</ele>
        <time>2023-04-10T09:27:34Z</time>
      </trkpt>
      <trkpt lat="44.93821" lon="0.66125">
        <ele>136.4</ele>
        <time>2023-04-10T09:27:35Z</time>
      </trkpt>
      <trkpt lat="44.93823" lon="0.66128">
        <ele>136.5</ele>
        <time>2023-04-10T09:27:36Z</time>
      </trkpt>
      <trkpt lat="44.93824" lon="0.66131">
        <ele>136.6</ele>
        <time>2023-04-10T09:27:37Z</time>
      </trkpt>
      <trkpt lat="44.93826" lon="0.66132">
        <ele>136.7</ele>
        <time>2023-04-10T09:27:38Z</time>
      </trkpt>
      <trkpt lat="44.93827" lon="0.66134">
        <ele>136.8</ele>
        <time>2023-04-10T09:27:39Z</time>
      </trkpt>
      <trkpt lat="44.93827" lon="0.66134">
        <ele>136.8</ele>
        <time>2023-04-10T09:27:40Z</time>
      </trkpt>
      <trkpt lat="44.93827" lon="0.66139">
        <ele>136.9</ele>
        <time>2023-04-10T09:27:42Z</time>
      </trkpt>
      <trkpt lat="44.93828" lon="0.66147">
        <ele>137.2</ele>
        <time>2023-04-10T09:27:44Z</time>
      </trkpt>
      <trkpt lat="44.93827" lon="0.66155">
        <ele>137.4</ele>
        <time>2023-04-10T09:27:46Z</time>
      </trkpt>
      <trkpt lat="44.93827" lon="0.66161">
        <ele>137.6</ele>
        <time>2023-04-10T09:27:48Z</time>
      </trkpt>
      <trkpt lat="44.93826" lon="0.66169">
        <ele>137.9</ele>
        <time>2023-04-10T09:27:50Z</time>
      </trkpt>
      <trkpt lat="44.93826" lon="0.66173">
        <ele>138.1</ele>
        <time>2023-04-10T09:27:51Z</time>
      </trkpt>
      <trkpt lat="44.93825" lon="0.66176">
        <ele>138.2</ele>
        <time>2023-04-10T09:27:52Z</time>
      </trkpt>
      <trkpt lat="44.93824" lon="0.66179">
        <ele>138.3</ele>
        <time>2023-04-10T09:27:53Z</time>
      </trkpt>
      <trkpt lat="44.93823" lon="0.66184">
        <ele>138.5</ele>
        <time>2023-04-10T09:27:54Z</time>
      </trkpt>
      <trkpt lat="44.9382" lon="0.6619">
        <ele>138.8</ele>
        <time>2023-04-10T09:27:56Z</time>
      </trkpt>
      <trkpt lat="44.93819" lon="0.66193">
        <ele>139</ele>
        <time>2023-04-10T09:27:58Z</time>
      </trkpt>
      <trkpt lat="44.93819" lon="0.66196">
        <ele>139.1</ele>
        <time>2023-04-10T09:28:00Z</time>
      </trkpt>
      <trkpt lat="44.93818" lon="0.662">
        <ele>139.3</ele>
        <time>2023-04-10T09:28:02Z</time>
      </trkpt>
      <trkpt lat="44.93815" lon="0.66202">
        <ele>139.4</ele>
        <time>2023-04-10T09:28:04Z</time>
      </trkpt>
      <trkpt lat="44.93813" lon="0.66206">
        <ele>139.6</ele>
        <time>2023-04-10T09:28:06Z</time>
      </trkpt>
      <trkpt lat="44.93811" lon="0.66207">
        <ele>139.8</ele>
        <time>2023-04-10T09:28:07Z</time>
      </trkpt>
      <trkpt lat="44.93809" lon="0.66208">
        <ele>139.9</ele>
        <time>2023-04-10T09:28:08Z</time>
      </trkpt>
      <trkpt lat="44.93802" lon="0.66215">
        <ele>140.4</ele>
        <time>2023-04-10T09:28:10Z</time>
      </trkpt>
      <trkpt lat="44.93799" lon="0.66221">
        <ele>140.7</ele>
        <time>2023-04-10T09:28:11Z</time>
      </trkpt>
      <trkpt lat="44.93795" lon="0.66225">
        <ele>140.9</ele>
        <time>2023-04-10T09:28:12Z</time>
      </trkpt>
      <trkpt lat="44.93791" lon="0.66228">
        <ele>141.1</ele>
        <time>2023-04-10T09:28:14Z</time>
      </trkpt>
      <trkpt lat="44.93789" lon="0.6623">
        <ele>141.3</ele>
        <time>2023-04-10T09:28:15Z</time>
      </trkpt>
      <trkpt lat="44.93785" lon="0.66232">
        <ele>141.4</ele>
        <time>2023-04-10T09:28:16Z</time>
      </trkpt>
      <trkpt lat="44.93778" lon="0.66233">
        <ele>141.7</ele>
        <time>2023-04-10T09:28:18Z</time>
      </trkpt>
      <trkpt lat="44.93775" lon="0.66233">
        <ele>141.8</ele>
        <time>2023-04-10T09:28:19Z</time>
      </trkpt>
      <trkpt lat="44.93772" lon="0.66233">
        <ele>141.9</ele>
        <time>2023-04-10T09:28:20Z</time>
      </trkpt>
      <trkpt lat="44.93765" lon="0.66234">
        <ele>142.1</ele>
        <time>2023-04-10T09:28:22Z</time>
      </trkpt>
      <trkpt lat="44.93763" lon="0.66233">
        <ele>142.2</ele>
        <time>2023-04-10T09:28:23Z</time>
      </trkpt>
      <trkpt lat="44.93761" lon="0.66234">
        <ele>142.3</ele>
        <time>2023-04-10T09:28:24Z</time>
      </trkpt>
      <trkpt lat="44.93756" lon="0.66236">
        <ele>142.4</ele>
        <time>2023-04-10T09:28:26Z</time>
      </trkpt>
      <trkpt lat="44.9375" lon="0.6624">
        <ele>142.6</ele>
        <time>2023-04-10T09:28:28Z</time>
      </trkpt>
      <trkpt lat="44.93746" lon="0.66241">
        <ele>142.7</ele>
        <time>2023-04-10T09:28:30Z</time>
      </trkpt>
      <trkpt lat="44.93746" lon="0.66241">
        <ele>142.7</ele>
        <time>2023-04-10T09:28:31Z</time>
      </trkpt>
      <trkpt lat="44.93743" lon="0.66244">
        <ele>142.8</ele>
        <time>2023-04-10T09:28:32Z</time>
      </trkpt>
      <trkpt lat="44.93739" lon="0.66247">
        <ele>142.9</ele>
        <time>2023-04-10T09:28:34Z</time>
      </trkpt>
      <trkpt lat="44.93736" lon="0.66249">
        <ele>143</ele>
        <time>2023-04-10T09:28:35Z</time>
      </trkpt>
      <trkpt lat="44.93733" lon="0.66251">
        <ele>143.1</ele>
        <time>2023-04-10T09:28:36Z</time>
      </trkpt>
      <trkpt lat="44.93728" lon="0.66255">
        <ele>143.3</ele>
        <time>2023-04-10T09:28:38Z</time>
      </trkpt>
      <trkpt lat="44.93723" lon="0.6626">
        <ele>143.4</ele>
        <time>2023-04-10T09:28:40Z</time>
      </trkpt>
      <trkpt lat="44.9372" lon="0.66262">
        <ele>143.5</ele>
        <time>2023-04-10T09:28:41Z</time>
      </trkpt>
      <trkpt lat="44.93718" lon="0.66263">
        <ele>143.6</ele>
        <time>2023-04-10T09:28:42Z</time>
      </trkpt>
      <trkpt lat="44.93715" lon="0.66265">
        <ele>143.7</ele>
        <time>2023-04-10T09:28:44Z</time>
      </trkpt>
      <trkpt lat="44.93712" lon="0.66269">
        <ele>143.9</ele>
        <time>2023-04-10T09:28:46Z</time>
      </trkpt>
      <trkpt lat="44.93708" lon="0.66274">
        <ele>144.1</ele>
        <time>2023-04-10T09:28:48Z</time>
      </trkpt>
      <trkpt lat="44.93703" lon="0.66279">
        <ele>144.3</ele>
        <time>2023-04-10T09:28:50Z</time>
      </trkpt>
      <trkpt lat="44.93699" lon="0.66284">
        <ele>144.6</ele>
        <time>2023-04-10T09:28:52Z</time>
      </trkpt>
      <trkpt lat="44.93694" lon="0.6629">
        <ele>144.9</ele>
        <time>2023-04-10T09:28:54Z</time>
      </trkpt>
      <trkpt lat="44.93692" lon="0.66294">
        <ele>145.1</ele>
        <time>2023-04-10T09:28:56Z</time>
      </trkpt>
      <trkpt lat="44.93692" lon="0.66295">
        <ele>145.1</ele>
        <time>2023-04-10T09:28:57Z</time>
      </trkpt>
      <trkpt lat="44.93689" lon="0.66296">
        <ele>145.3</ele>
        <time>2023-04-10T09:28:58Z</time>
      </trkpt>
      <trkpt lat="44.93686" lon="0.663">
        <ele>145.5</ele>
        <time>2023-04-10T09:29:00Z</time>
      </trkpt>
      <trkpt lat="44.93684" lon="0.66304">
        <ele>145.8</ele>
        <time>2023-04-10T09:29:02Z</time>
      </trkpt>
      <trkpt lat="44.93684" lon="0.66307">
        <ele>145.9</ele>
        <time>2023-04-10T09:29:03Z</time>
      </trkpt>
      <trkpt lat="44.93683" lon="0.66308">
        <ele>146</ele>
        <time>2023-04-10T09:29:04Z</time>
      </trkpt>
      <trkpt lat="44.93682" lon="0.66308">
        <ele>146</ele>
        <time>2023-04-10T09:29:05Z</time>
      </trkpt>
      <trkpt lat="44.93681" lon="0.66308">
        <ele>146.1</ele>
        <time>2023-04-10T09:29:06Z</time>
      </trkpt>
      <trkpt lat="44.93679" lon="0.66309">
        <ele>146.2</ele>
        <time>2023-04-10T09:29:07Z</time>
      </trkpt>
      <trkpt lat="44.93677" lon="0.6631">
        <ele>146.4</ele>
        <time>2023-04-10T09:29:08Z</time>
      </trkpt>
      <trkpt lat="44.93672" lon="0.66312">
        <ele>146.7</ele>
        <time>2023-04-10T09:29:10Z</time>
      </trkpt>
      <trkpt lat="44.93667" lon="0.66314">
        <ele>147</ele>
        <time>2023-04-10T09:29:12Z</time>
      </trkpt>
      <trkpt lat="44.93662" lon="0.66315">
        <ele>147.3</ele>
        <time>2023-04-10T09:29:14Z</time>
      </trkpt>
      <trkpt lat="44.93658" lon="0.66316">
        <ele>147.6</ele>
        <time>2023-04-10T09:29:16Z</time>
      </trkpt>
      <trkpt lat="44.93656" lon="0.66317">
        <ele>147.8</ele>
        <time>2023-04-10T09:29:17Z</time>
      </trkpt>
      <trkpt lat="44.93654" lon="0.66317">
        <ele>148</ele>
        <time>2023-04-10T09:29:18Z</time>
      </trkpt>
      <trkpt lat="44.93648" lon="0.66319">
        <ele>148.5</ele>
        <time>2023-04-10T09:29:20Z</time>
      </trkpt>
      <trkpt lat="44.93645" lon="0.66319">
        <ele>148.8</ele>
        <time>2023-04-10T09:29:22Z</time>
      </trkpt>
      <trkpt lat="44.93644" lon="0.66318">
        <ele>148.9</ele>
        <time>2023-04-10T09:29:23Z</time>
      </trkpt>
      <trkpt lat="44.93643" lon="0.66318">
        <ele>149</ele>
        <time>2023-04-10T09:29:24Z</time>
      </trkpt>
      <trkpt lat="44.93641" lon="0.66317">
        <ele>149.3</ele>
        <time>2023-04-10T09:29:26Z</time>
      </trkpt>
      <trkpt lat="44.93638" lon="0.66317">
        <ele>149.6</ele>
        <time>2023-04-10T09:29:28Z</time>
      </trkpt>
      <trkpt lat="44.93637" lon="0.66317">
        <ele>149.8</ele>
        <time>2023-04-10T09:29:30Z</time>
      </trkpt>
      <trkpt lat="44.93634" lon="0.66318">
        <ele>150.2</ele>
        <time>2023-04-10T09:29:32Z</time>
      </trkpt>
      <trkpt lat="44.93632" lon="0.66319">
        <ele>150.3</ele>
        <time>2023-04-10T09:29:33Z</time>
      </trkpt>
      <trkpt lat="44.93631" lon="0.66319">
        <ele>150.5</ele>
        <time>2023-04-10T09:29:34Z</time>
      </trkpt>
      <trkpt lat="44.93628" lon="0.66319">
        <ele>150.8</ele>
        <time>2023-04-10T09:29:36Z</time>
      </trkpt>
      <trkpt lat="44.93625" lon="0.66319">
        <ele>151.3</ele>
        <time>2023-04-10T09:29:38Z</time>
      </trkpt>
      <trkpt lat="44.93623" lon="0.66319">
        <ele>151.6</ele>
        <time>2023-04-10T09:29:40Z</time>
      </trkpt>
      <trkpt lat="44.9362" lon="0.66317">
        <ele>152</ele>
        <time>2023-04-10T09:29:42Z</time>
      </trkpt>
      <trkpt lat="44.93617" lon="0.66316">
        <ele>152.3</ele>
        <time>2023-04-10T09:29:44Z</time>
      </trkpt>
      <trkpt lat="44.93614" lon="0.66315">
        <ele>152.8</ele>
        <time>2023-04-10T09:29:46Z</time>
      </trkpt>
      <trkpt lat="44.93611" lon="0.66314">
        <ele>153.3</ele>
        <time>2023-04-10T09:29:48Z</time>
      </trkpt>
      <trkpt lat="44.93607" lon="0.66312">
        <ele>153.8</ele>
        <time>2023-04-10T09:29:50Z</time>
      </trkpt>
      <trkpt lat="44.93604" lon="0.66309">
        <ele>154.4</ele>
        <time>2023-04-10T09:29:52Z</time>
      </trkpt>
      <trkpt lat="44.93603" lon="0.66308">
        <ele>154.6</ele>
        <time>2023-04-10T09:29:54Z</time>
      </trkpt>
      <trkpt lat="44.936" lon="0.66305">
        <ele>155.1</ele>
        <time>2023-04-10T09:29:56Z</time>
      </trkpt>
      <trkpt lat="44.93598" lon="0.66302">
        <ele>155.6</ele>
        <time>2023-04-10T09:29:58Z</time>
      </trkpt>
      <trkpt lat="44.93596" lon="0.66299">
        <ele>156</ele>
        <time>2023-04-10T09:30:00Z</time>
      </trkpt>
      <trkpt lat="44.93595" lon="0.66298">
        <ele>156.3</ele>
        <time>2023-04-10T09:30:01Z</time>
      </trkpt>
      <trkpt lat="44.93594" lon="0.66296">
        <ele>156.4</ele>
        <time>2023-04-10T09:30:02Z</time>
      </trkpt>
      <trkpt lat="44.93593" lon="0.66293">
        <ele>156.9</ele>
        <time>2023-04-10T09:30:04Z</time>
      </trkpt>
      <trkpt lat="44.9359" lon="0.66291">
        <ele>157.4</ele>
        <time>2023-04-10T09:30:06Z</time>
      </trkpt>
      <trkpt lat="44.93588" lon="0.66289">
        <ele>157.7</ele>
        <time>2023-04-10T09:30:07Z</time>
      </trkpt>
      <trkpt lat="44.93587" lon="0.66288">
        <ele>157.9</ele>
        <time>2023-04-10T09:30:08Z</time>
      </trkpt>
      <trkpt lat="44.93585" lon="0.66285">
        <ele>158.2</ele>
        <time>2023-04-10T09:30:10Z</time>
      </trkpt>
      <trkpt lat="44.93584" lon="0.66282">
        <ele>158.5</ele>
        <time>2023-04-10T09:30:12Z</time>
      </trkpt>
      <trkpt lat="44.93582" lon="0.66279">
        <ele>158.9</ele>
        <time>2023-04-10T09:30:14Z</time>
      </trkpt>
      <trkpt lat="44.93581" lon="0.66274">
        <ele>159.4</ele>
        <time>2023-04-10T09:30:16Z</time>
      </trkpt>
      <trkpt lat="44.93579" lon="0.66271">
        <ele>159.7</ele>
        <time>2023-04-10T09:30:18Z</time>
      </trkpt>
      <trkpt lat="44.93577" lon="0.66266">
        <ele>160.1</ele>
        <time>2023-04-10T09:30:20Z</time>
      </trkpt>
      <trkpt lat="44.93575" lon="0.66263">
        <ele>160.4</ele>
        <time>2023-04-10T09:30:22Z</time>
      </trkpt>
      <trkpt lat="44.93573" lon="0.66264">
        <ele>160.5</ele>
        <time>2023-04-10T09:30:24Z</time>
      </trkpt>
      <trkpt lat="44.93572" lon="0.66266">
        <ele>160.7</ele>
        <time>2023-04-10T09:30:26Z</time>
      </trkpt>
      <trkpt lat="44.9357" lon="0.66269">
        <ele>160.9</ele>
        <time>2023-04-10T09:30:28Z</time>
      </trkpt>
      <trkpt lat="44.9357" lon="0.6627">
        <ele>161</ele>
        <time>2023-04-10T09:30:29Z</time>
      </trkpt>
      <trkpt lat="44.93569" lon="0.66271">
        <ele>161.1</ele>
        <time>2023-04-10T09:30:30Z</time>
      </trkpt>
      <trkpt lat="44.93565" lon="0.66274">
        <ele>161.4</ele>
        <time>2023-04-10T09:30:32Z</time>
      </trkpt>
      <trkpt lat="44.93562" lon="0.66277">
        <ele>161.6</ele>
        <time>2023-04-10T09:30:34Z</time>
      </trkpt>
      <trkpt lat="44.93559" lon="0.6628">
        <ele>161.9</ele>
        <time>2023-04-10T09:30:36Z</time>
      </trkpt>
      <trkpt lat="44.93557" lon="0.66281">
        <ele>162</ele>
        <time>2023-04-10T09:30:38Z</time>
      </trkpt>
      <trkpt lat="44.93553" lon="0.66282">
        <ele>162.3</ele>
        <time>2023-04-10T09:30:40Z</time>
      </trkpt>
      <trkpt lat="44.9355" lon="0.66282">
        <ele>162.5</ele>
        <time>2023-04-10T09:30:42Z</time>
      </trkpt>
      <trkpt lat="44.93547" lon="0.66285">
        <ele>162.7</ele>
        <time>2023-04-10T09:30:44Z</time>
      </trkpt>
      <trkpt lat="44.93543" lon="0.66285">
        <ele>163</ele>
        <time>2023-04-10T09:30:46Z</time>
      </trkpt>
      <trkpt lat="44.93541" lon="0.66285">
        <ele>163.1</ele>
        <time>2023-04-10T09:30:47Z</time>
      </trkpt>
      <trkpt lat="44.93539" lon="0.66284">
        <ele>163.3</ele>
        <time>2023-04-10T09:30:48Z</time>
      </trkpt>
      <trkpt lat="44.93536" lon="0.66284">
        <ele>163.5</ele>
        <time>2023-04-10T09:30:50Z</time>
      </trkpt>
      <trkpt lat="44.93534" lon="0.66285">
        <ele>163.6</ele>
        <time>2023-04-10T09:30:51Z</time>
      </trkpt>
      <trkpt lat="44.93532" lon="0.66284">
        <ele>163.8</ele>
        <time>2023-04-10T09:30:52Z</time>
      </trkpt>
      <trkpt lat="44.93528" lon="0.66284">
        <ele>164</ele>
        <time>2023-04-10T09:30:54Z</time>
      </trkpt>
      <trkpt lat="44.93527" lon="0.66283">
        <ele>164.2</ele>
        <time>2023-04-10T09:30:55Z</time>
      </trkpt>
      <trkpt lat="44.93525" lon="0.66284">
        <ele>164.3</ele>
        <time>2023-04-10T09:30:56Z</time>
      </trkpt>
      <trkpt lat="44.93523" lon="0.66284">
        <ele>164.4</ele>
        <time>2023-04-10T09:30:57Z</time>
      </trkpt>
      <trkpt lat="44.93522" lon="0.66285">
        <ele>164.5</ele>
        <time>2023-04-10T09:30:58Z</time>
      </trkpt>
      <trkpt lat="44.93518" lon="0.66286">
        <ele>164.8</ele>
        <time>2023-04-10T09:31:00Z</time>
      </trkpt>
      <trkpt lat="44.93515" lon="0.66286">
        <ele>165</ele>
        <time>2023-04-10T09:31:02Z</time>
      </trkpt>
      <trkpt lat="44.93512" lon="0.66288">
        <ele>165.3</ele>
        <time>2023-04-10T09:31:04Z</time>
      </trkpt>
      <trkpt lat="44.93509" lon="0.6629">
        <ele>165.5</ele>
        <time>2023-04-10T09:31:06Z</time>
      </trkpt>
      <trkpt lat="44.93505" lon="0.66292">
        <ele>165.8</ele>
        <time>2023-04-10T09:31:08Z</time>
      </trkpt>
      <trkpt lat="44.93502" lon="0.66295">
        <ele>166.1</ele>
        <time>2023-04-10T09:31:10Z</time>
      </trkpt>
      <trkpt lat="44.935" lon="0.66296">
        <ele>166.3</ele>
        <time>2023-04-10T09:31:11Z</time>
      </trkpt>
      <trkpt lat="44.93498" lon="0.66297">
        <ele>166.4</ele>
        <time>2023-04-10T09:31:12Z</time>
      </trkpt>
      <trkpt lat="44.93494" lon="0.66299">
        <ele>166.8</ele>
        <time>2023-04-10T09:31:14Z</time>
      </trkpt>
      <trkpt lat="44.93491" lon="0.66301">
        <ele>167.1</ele>
        <time>2023-04-10T09:31:16Z</time>
      </trkpt>
      <trkpt lat="44.93489" lon="0.66303">
        <ele>167.4</ele>
        <time>2023-04-10T09:31:18Z</time>
      </trkpt>
      <trkpt lat="44.93486" lon="0.66306">
        <ele>167.7</ele>
        <time>2023-04-10T09:31:20Z</time>
      </trkpt>
      <trkpt lat="44.93483" lon="0.66309">
        <ele>168</ele>
        <time>2023-04-10T09:31:22Z</time>
      </trkpt>
      <trkpt lat="44.9348" lon="0.66312">
        <ele>168.3</ele>
        <time>2023-04-10T09:31:24Z</time>
      </trkpt>
      <trkpt lat="44.93479" lon="0.66313">
        <ele>168.4</ele>
        <time>2023-04-10T09:31:25Z</time>
      </trkpt>
      <trkpt lat="44.93478" lon="0.66315">
        <ele>168.6</ele>
        <time>2023-04-10T09:31:26Z</time>
      </trkpt>
      <trkpt lat="44.93475" lon="0.66319">
        <ele>168.8</ele>
        <time>2023-04-10T09:31:28Z</time>
      </trkpt>
      <trkpt lat="44.93473" lon="0.66322">
        <ele>169</ele>
        <time>2023-04-10T09:31:30Z</time>
      </trkpt>
      <trkpt lat="44.9347" lon="0.66325">
        <ele>169.3</ele>
        <time>2023-04-10T09:31:32Z</time>
      </trkpt>
      <trkpt lat="44.93466" lon="0.66327">
        <ele>169.6</ele>
        <time>2023-04-10T09:31:34Z</time>
      </trkpt>
      <trkpt lat="44.93462" lon="0.66328">
        <ele>169.8</ele>
        <time>2023-04-10T09:31:36Z</time>
      </trkpt>
      <trkpt lat="44.93458" lon="0.6633">
        <ele>170.1</ele>
        <time>2023-04-10T09:31:38Z</time>
      </trkpt>
      <trkpt lat="44.93457" lon="0.66331">
        <ele>170.2</ele>
        <time>2023-04-10T09:31:39Z</time>
      </trkpt>
      <trkpt lat="44.93455" lon="0.66332">
        <ele>170.3</ele>
        <time>2023-04-10T09:31:40Z</time>
      </trkpt>
      <trkpt lat="44.93452" lon="0.66334">
        <ele>170.5</ele>
        <time>2023-04-10T09:31:42Z</time>
      </trkpt>
      <trkpt lat="44.93448" lon="0.66336">
        <ele>170.6</ele>
        <time>2023-04-10T09:31:44Z</time>
      </trkpt>
      <trkpt lat="44.93444" lon="0.6634">
        <ele>170.8</ele>
        <time>2023-04-10T09:31:46Z</time>
      </trkpt>
      <trkpt lat="44.93442" lon="0.66341">
        <ele>170.9</ele>
        <time>2023-04-10T09:31:47Z</time>
      </trkpt>
      <trkpt lat="44.93441" lon="0.66343">
        <ele>171</ele>
        <time>2023-04-10T09:31:48Z</time>
      </trkpt>
      <trkpt lat="44.93438" lon="0.66347">
        <ele>171.1</ele>
        <time>2023-04-10T09:31:50Z</time>
      </trkpt>
      <trkpt lat="44.93436" lon="0.66349">
        <ele>171.2</ele>
        <time>2023-04-10T09:31:51Z</time>
      </trkpt>
      <trkpt lat="44.93435" lon="0.66351">
        <ele>171.2</ele>
        <time>2023-04-10T09:31:52Z</time>
      </trkpt>
      <trkpt lat="44.93431" lon="0.66355">
        <ele>171.4</ele>
        <time>2023-04-10T09:31:54Z</time>
      </trkpt>
      <trkpt lat="44.93427" lon="0.66357">
        <ele>171.5</ele>
        <time>2023-04-10T09:31:56Z</time>
      </trkpt>
      <trkpt lat="44.93423" lon="0.66358">
        <ele>171.7</ele>
        <time>2023-04-10T09:31:58Z</time>
      </trkpt>
      <trkpt lat="44.93419" lon="0.66359">
        <ele>171.8</ele>
        <time>2023-04-10T09:32:00Z</time>
      </trkpt>
      <trkpt lat="44.93415" lon="0.66361">
        <ele>171.9</ele>
        <time>2023-04-10T09:32:02Z</time>
      </trkpt>
      <trkpt lat="44.93413" lon="0.66362">
        <ele>172</ele>
        <time>2023-04-10T09:32:03Z</time>
      </trkpt>
      <trkpt lat="44.93411" lon="0.66362">
        <ele>172.1</ele>
        <time>2023-04-10T09:32:04Z</time>
      </trkpt>
      <trkpt lat="44.93407" lon="0.66363">
        <ele>172.2</ele>
        <time>2023-04-10T09:32:06Z</time>
      </trkpt>
      <trkpt lat="44.93403" lon="0.66364">
        <ele>172.3</ele>
        <time>2023-04-10T09:32:08Z</time>
      </trkpt>
      <trkpt lat="44.93399" lon="0.66363">
        <ele>172.4</ele>
        <time>2023-04-10T09:32:10Z</time>
      </trkpt>
      <trkpt lat="44.93393" lon="0.66363">
        <ele>172.6</ele>
        <time>2023-04-10T09:32:12Z</time>
      </trkpt>
      <trkpt lat="44.93388" lon="0.66362">
        <ele>172.7</ele>
        <time>2023-04-10T09:32:14Z</time>
      </trkpt>
      <trkpt lat="44.93386" lon="0.6636">
        <ele>172.7</ele>
        <time>2023-04-10T09:32:15Z</time>
      </trkpt>
      <trkpt lat="44.93383" lon="0.6636">
        <ele>172.8</ele>
        <time>2023-04-10T09:32:16Z</time>
      </trkpt>
      <trkpt lat="44.93377" lon="0.66358">
        <ele>172.9</ele>
        <time>2023-04-10T09:32:18Z</time>
      </trkpt>
      <trkpt lat="44.93372" lon="0.66357">
        <ele>173</ele>
        <time>2023-04-10T09:32:20Z</time>
      </trkpt>
      <trkpt lat="44.93367" lon="0.66358">
        <ele>173.1</ele>
        <time>2023-04-10T09:32:22Z</time>
      </trkpt>
      <trkpt lat="44.93362" lon="0.66359">
        <ele>173.2</ele>
        <time>2023-04-10T09:32:24Z</time>
      </trkpt>
      <trkpt lat="44.93359" lon="0.66362">
        <ele>173.3</ele>
        <time>2023-04-10T09:32:26Z</time>
      </trkpt>
      <trkpt lat="44.93357" lon="0.66363">
        <ele>173.4</ele>
        <time>2023-04-10T09:32:27Z</time>
      </trkpt>
      <trkpt lat="44.93356" lon="0.66364">
        <ele>173.4</ele>
        <time>2023-04-10T09:32:28Z</time>
      </trkpt>
      <trkpt lat="44.93351" lon="0.66365">
        <ele>173.6</ele>
        <time>2023-04-10T09:32:30Z</time>
      </trkpt>
      <trkpt lat="44.93349" lon="0.66367">
        <ele>173.7</ele>
        <time>2023-04-10T09:32:31Z</time>
      </trkpt>
      <trkpt lat="44.93348" lon="0.6637">
        <ele>173.8</ele>
        <time>2023-04-10T09:32:32Z</time>
      </trkpt>
      <trkpt lat="44.93347" lon="0.66372">
        <ele>173.8</ele>
        <time>2023-04-10T09:32:33Z</time>
      </trkpt>
      <trkpt lat="44.93345" lon="0.66375">
        <ele>174</ele>
        <time>2023-04-10T09:32:34Z</time>
      </trkpt>
      <trkpt lat="44.93341" lon="0.66378">
        <ele>174.1</ele>
        <time>2023-04-10T09:32:36Z</time>
      </trkpt>
      <trkpt lat="44.93339" lon="0.66379">
        <ele>174.2</ele>
        <time>2023-04-10T09:32:37Z</time>
      </trkpt>
      <trkpt lat="44.93337" lon="0.66379">
        <ele>174.3</ele>
        <time>2023-04-10T09:32:38Z</time>
      </trkpt>
      <trkpt lat="44.93331" lon="0.66383">
        <ele>174.5</ele>
        <time>2023-04-10T09:32:40Z</time>
      </trkpt>
      <trkpt lat="44.93328" lon="0.66385">
        <ele>174.5</ele>
        <time>2023-04-10T09:32:41Z</time>
      </trkpt>
      <trkpt lat="44.93325" lon="0.66386">
        <ele>174.6</ele>
        <time>2023-04-10T09:32:42Z</time>
      </trkpt>
      <trkpt lat="44.93321" lon="0.66389">
        <ele>174.6</ele>
        <time>2023-04-10T09:32:44Z</time>
      </trkpt>
      <trkpt lat="44.93316" lon="0.66396">
        <ele>174.6</ele>
        <time>2023-04-10T09:32:46Z</time>
      </trkpt>
      <trkpt lat="44.93311" lon="0.66403">
        <ele>174.3</ele>
        <time>2023-04-10T09:32:48Z</time>
      </trkpt>
      <trkpt lat="44.93305" lon="0.66408">
        <ele>173.9</ele>
        <time>2023-04-10T09:32:50Z</time>
      </trkpt>
      <trkpt lat="44.93302" lon="0.66414">
        <ele>173.6</ele>
        <time>2023-04-10T09:32:51Z</time>
      </trkpt>
      <trkpt lat="44.93298" lon="0.6642">
        <ele>173.2</ele>
        <time>2023-04-10T09:32:52Z</time>
      </trkpt>
      <trkpt lat="44.93295" lon="0.66428">
        <ele>172.8</ele>
        <time>2023-04-10T09:32:53Z</time>
      </trkpt>
      <trkpt lat="44.93292" lon="0.66436">
        <ele>172.5</ele>
        <time>2023-04-10T09:32:54Z</time>
      </trkpt>
      <trkpt lat="44.93284" lon="0.66454">
        <ele>172.1</ele>
        <time>2023-04-10T09:32:56Z</time>
      </trkpt>
      <trkpt lat="44.9328" lon="0.66463">
        <ele>171.9</ele>
        <time>2023-04-10T09:32:57Z</time>
      </trkpt>
      <trkpt lat="44.93279" lon="0.66471">
        <ele>171.6</ele>
        <time>2023-04-10T09:32:58Z</time>
      </trkpt>
      <trkpt lat="44.93279" lon="0.66488">
        <ele>170.7</ele>
        <time>2023-04-10T09:33:00Z</time>
      </trkpt>
      <trkpt lat="44.93279" lon="0.66502">
        <ele>170</ele>
        <time>2023-04-10T09:33:02Z</time>
      </trkpt>
      <trkpt lat="44.93279" lon="0.66508">
        <ele>169.8</ele>
        <time>2023-04-10T09:33:03Z</time>
      </trkpt>
      <trkpt lat="44.93279" lon="0.66511">
        <ele>169.7</ele>
        <time>2023-04-10T09:33:04Z</time>
      </trkpt>
      <trkpt lat="44.93278" lon="0.66516">
        <ele>169.6</ele>
        <time>2023-04-10T09:33:05Z</time>
      </trkpt>
      <trkpt lat="44.93277" lon="0.6652">
        <ele>169.5</ele>
        <time>2023-04-10T09:33:06Z</time>
      </trkpt>
      <trkpt lat="44.93278" lon="0.66524">
        <ele>169.4</ele>
        <time>2023-04-10T09:33:07Z</time>
      </trkpt>
      <trkpt lat="44.93276" lon="0.66531">
        <ele>169.3</ele>
        <time>2023-04-10T09:33:08Z</time>
      </trkpt>
      <trkpt lat="44.9328" lon="0.66534">
        <ele>169.1</ele>
        <time>2023-04-10T09:33:10Z</time>
      </trkpt>
      <trkpt lat="44.93281" lon="0.66534">
        <ele>169</ele>
        <time>2023-04-10T09:33:11Z</time>
      </trkpt>
      <trkpt lat="44.93284" lon="0.66532">
        <ele>168.9</ele>
        <time>2023-04-10T09:33:12Z</time>
      </trkpt>
      <trkpt lat="44.93291" lon="0.66525">
        <ele>168.6</ele>
        <time>2023-04-10T09:33:14Z</time>
      </trkpt>
      <trkpt lat="44.93295" lon="0.66521">
        <ele>168.4</ele>
        <time>2023-04-10T09:33:15Z</time>
      </trkpt>
      <trkpt lat="44.93299" lon="0.66516">
        <ele>168.1</ele>
        <time>2023-04-10T09:33:16Z</time>
      </trkpt>
      <trkpt lat="44.93308" lon="0.66508">
        <ele>167.7</ele>
        <time>2023-04-10T09:33:18Z</time>
      </trkpt>
      <trkpt lat="44.93314" lon="0.66504">
        <ele>167.4</ele>
        <time>2023-04-10T09:33:19Z</time>
      </trkpt>
      <trkpt lat="44.93319" lon="0.66502">
        <ele>167.1</ele>
        <time>2023-04-10T09:33:20Z</time>
      </trkpt>
      <trkpt lat="44.93325" lon="0.66501">
        <ele>166.9</ele>
        <time>2023-04-10T09:33:21Z</time>
      </trkpt>
      <trkpt lat="44.93331" lon="0.66499">
        <ele>166.5</ele>
        <time>2023-04-10T09:33:22Z</time>
      </trkpt>
      <trkpt lat="44.93338" lon="0.66498">
        <ele>166.1</ele>
        <time>2023-04-10T09:33:23Z</time>
      </trkpt>
      <trkpt lat="44.93344" lon="0.66497">
        <ele>165.7</ele>
        <time>2023-04-10T09:33:24Z</time>
      </trkpt>
      <trkpt lat="44.9335" lon="0.66498">
        <ele>165.3</ele>
        <time>2023-04-10T09:33:25Z</time>
      </trkpt>
      <trkpt lat="44.93356" lon="0.66499">
        <ele>164.8</ele>
        <time>2023-04-10T09:33:26Z</time>
      </trkpt>
      <trkpt lat="44.93362" lon="0.66498">
        <ele>164.3</ele>
        <time>2023-04-10T09:33:27Z</time>
      </trkpt>
      <trkpt lat="44.93369" lon="0.66496">
        <ele>163.8</ele>
        <time>2023-04-10T09:33:28Z</time>
      </trkpt>
      <trkpt lat="44.93383" lon="0.66491">
        <ele>162.9</ele>
        <time>2023-04-10T09:33:30Z</time>
      </trkpt>
      <trkpt lat="44.93396" lon="0.66489">
        <ele>162.1</ele>
        <time>2023-04-10T09:33:32Z</time>
      </trkpt>
      <trkpt lat="44.93411" lon="0.66486">
        <ele>161.2</ele>
        <time>2023-04-10T09:33:34Z</time>
      </trkpt>
      <trkpt lat="44.93418" lon="0.66487">
        <ele>160.9</ele>
        <time>2023-04-10T09:33:35Z</time>
      </trkpt>
      <trkpt lat="44.93424" lon="0.66488">
        <ele>160.6</ele>
        <time>2023-04-10T09:33:36Z</time>
      </trkpt>
      <trkpt lat="44.9343" lon="0.66489">
        <ele>160.3</ele>
        <time>2023-04-10T09:33:37Z</time>
      </trkpt>
      <trkpt lat="44.93435" lon="0.66492">
        <ele>160.1</ele>
        <time>2023-04-10T09:33:38Z</time>
      </trkpt>
      <trkpt lat="44.9344" lon="0.66494">
        <ele>159.9</ele>
        <time>2023-04-10T09:33:39Z</time>
      </trkpt>
      <trkpt lat="44.93447" lon="0.66496">
        <ele>159.6</ele>
        <time>2023-04-10T09:33:40Z</time>
      </trkpt>
      <trkpt lat="44.93462" lon="0.66502">
        <ele>158.8</ele>
        <time>2023-04-10T09:33:42Z</time>
      </trkpt>
      <trkpt lat="44.93469" lon="0.66505">
        <ele>158.4</ele>
        <time>2023-04-10T09:33:43Z</time>
      </trkpt>
      <trkpt lat="44.93475" lon="0.66509">
        <ele>158</ele>
        <time>2023-04-10T09:33:44Z</time>
      </trkpt>
      <trkpt lat="44.93491" lon="0.66517">
        <ele>157.1</ele>
        <time>2023-04-10T09:33:46Z</time>
      </trkpt>
      <trkpt lat="44.93509" lon="0.66518">
        <ele>156.2</ele>
        <time>2023-04-10T09:33:48Z</time>
      </trkpt>
      <trkpt lat="44.93517" lon="0.66519">
        <ele>155.9</ele>
        <time>2023-04-10T09:33:49Z</time>
      </trkpt>
      <trkpt lat="44.93525" lon="0.66522">
        <ele>155.7</ele>
        <time>2023-04-10T09:33:50Z</time>
      </trkpt>
      <trkpt lat="44.93533" lon="0.66525">
        <ele>155.5</ele>
        <time>2023-04-10T09:33:51Z</time>
      </trkpt>
      <trkpt lat="44.93541" lon="0.66527">
        <ele>155.1</ele>
        <time>2023-04-10T09:33:52Z</time>
      </trkpt>
      <trkpt lat="44.93558" lon="0.66526">
        <ele>154.3</ele>
        <time>2023-04-10T09:33:54Z</time>
      </trkpt>
      <trkpt lat="44.93574" lon="0.66529">
        <ele>153.5</ele>
        <time>2023-04-10T09:33:56Z</time>
      </trkpt>
      <trkpt lat="44.93581" lon="0.66529">
        <ele>153.1</ele>
        <time>2023-04-10T09:33:57Z</time>
      </trkpt>
      <trkpt lat="44.9359" lon="0.66528">
        <ele>152.7</ele>
        <time>2023-04-10T09:33:58Z</time>
      </trkpt>
      <trkpt lat="44.93597" lon="0.66525">
        <ele>152.3</ele>
        <time>2023-04-10T09:33:59Z</time>
      </trkpt>
      <trkpt lat="44.93605" lon="0.66521">
        <ele>151.9</ele>
        <time>2023-04-10T09:34:00Z</time>
      </trkpt>
      <trkpt lat="44.93612" lon="0.66518">
        <ele>151.4</ele>
        <time>2023-04-10T09:34:01Z</time>
      </trkpt>
      <trkpt lat="44.9362" lon="0.66514">
        <ele>151</ele>
        <time>2023-04-10T09:34:02Z</time>
      </trkpt>
      <trkpt lat="44.93633" lon="0.66505">
        <ele>150.3</ele>
        <time>2023-04-10T09:34:04Z</time>
      </trkpt>
      <trkpt lat="44.93647" lon="0.66502">
        <ele>149.8</ele>
        <time>2023-04-10T09:34:06Z</time>
      </trkpt>
      <trkpt lat="44.93659" lon="0.66503">
        <ele>149.5</ele>
        <time>2023-04-10T09:34:08Z</time>
      </trkpt>
      <trkpt lat="44.93663" lon="0.66513">
        <ele>149.4</ele>
        <time>2023-04-10T09:34:10Z</time>
      </trkpt>
      <trkpt lat="44.93665" lon="0.66522">
        <ele>149.3</ele>
        <time>2023-04-10T09:34:12Z</time>
      </trkpt>
      <trkpt lat="44.93666" lon="0.66526">
        <ele>149.3</ele>
        <time>2023-04-10T09:34:13Z</time>
      </trkpt>
      <trkpt lat="44.93666" lon="0.6653">
        <ele>149.3</ele>
        <time>2023-04-10T09:34:14Z</time>
      </trkpt>
      <trkpt lat="44.93668" lon="0.66537">
        <ele>149.3</ele>
        <time>2023-04-10T09:34:16Z</time>
      </trkpt>
      <trkpt lat="44.93668" lon="0.66541">
        <ele>149.3</ele>
        <time>2023-04-10T09:34:17Z</time>
      </trkpt>
      <trkpt lat="44.93669" lon="0.66544">
        <ele>149.4</ele>
        <time>2023-04-10T09:34:18Z</time>
      </trkpt>
      <trkpt lat="44.93669" lon="0.66553">
        <ele>149.6</ele>
        <time>2023-04-10T09:34:20Z</time>
      </trkpt>
      <trkpt lat="44.93669" lon="0.66561">
        <ele>149.8</ele>
        <time>2023-04-10T09:34:22Z</time>
      </trkpt>
      <trkpt lat="44.9367" lon="0.66568">
        <ele>149.9</ele>
        <time>2023-04-10T09:34:24Z</time>
      </trkpt>
      <trkpt lat="44.93671" lon="0.66573">
        <ele>150.1</ele>
        <time>2023-04-10T09:34:26Z</time>
      </trkpt>
      <trkpt lat="44.93671" lon="0.66576">
        <ele>150.1</ele>
        <time>2023-04-10T09:34:27Z</time>
      </trkpt>
      <trkpt lat="44.93672" lon="0.6658">
        <ele>150.2</ele>
        <time>2023-04-10T09:34:28Z</time>
      </trkpt>
      <trkpt lat="44.93673" lon="0.66591">
        <ele>150.4</ele>
        <time>2023-04-10T09:34:30Z</time>
      </trkpt>
      <trkpt lat="44.93677" lon="0.66599">
        <ele>150.5</ele>
        <time>2023-04-10T09:34:32Z</time>
      </trkpt>
      <trkpt lat="44.93679" lon="0.66605">
        <ele>150.5</ele>
        <time>2023-04-10T09:34:34Z</time>
      </trkpt>
      <trkpt lat="44.93679" lon="0.66609">
        <ele>150.6</ele>
        <time>2023-04-10T09:34:35Z</time>
      </trkpt>
      <trkpt lat="44.93681" lon="0.66613">
        <ele>150.6</ele>
        <time>2023-04-10T09:34:36Z</time>
      </trkpt>
      <trkpt lat="44.93683" lon="0.66621">
        <ele>150.6</ele>
        <time>2023-04-10T09:34:38Z</time>
      </trkpt>
      <trkpt lat="44.93684" lon="0.66624">
        <ele>150.6</ele>
        <time>2023-04-10T09:34:39Z</time>
      </trkpt>
      <trkpt lat="44.93684" lon="0.66627">
        <ele>150.6</ele>
        <time>2023-04-10T09:34:40Z</time>
      </trkpt>
      <trkpt lat="44.93685" lon="0.66634">
        <ele>150.6</ele>
        <time>2023-04-10T09:34:42Z</time>
      </trkpt>
      <trkpt lat="44.93684" lon="0.66637">
        <ele>150.7</ele>
        <time>2023-04-10T09:34:43Z</time>
      </trkpt>
      <trkpt lat="44.93684" lon="0.6664">
        <ele>150.7</ele>
        <time>2023-04-10T09:34:44Z</time>
      </trkpt>
      <trkpt lat="44.93683" lon="0.66647">
        <ele>150.7</ele>
        <time>2023-04-10T09:34:46Z</time>
      </trkpt>
      <trkpt lat="44.93683" lon="0.66651">
        <ele>150.8</ele>
        <time>2023-04-10T09:34:47Z</time>
      </trkpt>
      <trkpt lat="44.93682" lon="0.66655">
        <ele>150.8</ele>
        <time>2023-04-10T09:34:48Z</time>
      </trkpt>
      <trkpt lat="44.93681" lon="0.66658">
        <ele>150.9</ele>
        <time>2023-04-10T09:34:49Z</time>
      </trkpt>
      <trkpt lat="44.93681" lon="0.66662">
        <ele>150.9</ele>
        <time>2023-04-10T09:34:50Z</time>
      </trkpt>
      <trkpt lat="44.93679" lon="0.66669">
        <ele>150.9</ele>
        <time>2023-04-10T09:34:52Z</time>
      </trkpt>
      <trkpt lat="44.93678" lon="0.66677">
        <ele>150.9</ele>
        <time>2023-04-10T09:34:54Z</time>
      </trkpt>
      <trkpt lat="44.93678" lon="0.66683">
        <ele>151</ele>
        <time>2023-04-10T09:34:56Z</time>
      </trkpt>
      <trkpt lat="44.93678" lon="0.66686">
        <ele>151</ele>
        <time>2023-04-10T09:34:57Z</time>
      </trkpt>
      <trkpt lat="44.93677" lon="0.66689">
        <ele>151.1</ele>
        <time>2023-04-10T09:34:58Z</time>
      </trkpt>
      <trkpt lat="44.93675" lon="0.66694">
        <ele>151.2</ele>
        <time>2023-04-10T09:35:00Z</time>
      </trkpt>
      <trkpt lat="44.93673" lon="0.66701">
        <ele>151.3</ele>
        <time>2023-04-10T09:35:02Z</time>
      </trkpt>
      <trkpt lat="44.93673" lon="0.66704">
        <ele>151.4</ele>
        <time>2023-04-10T09:35:03Z</time>
      </trkpt>
      <trkpt lat="44.93672" lon="0.66709">
        <ele>151.5</ele>
        <time>2023-04-10T09:35:04Z</time>
      </trkpt>
      <trkpt lat="44.93669" lon="0.6672">
        <ele>151.7</ele>
        <time>2023-04-10T09:35:06Z</time>
      </trkpt>
      <trkpt lat="44.93667" lon="0.66727">
        <ele>151.8</ele>
        <time>2023-04-10T09:35:08Z</time>
      </trkpt>
      <trkpt lat="44.93664" lon="0.66735">
        <ele>151.9</ele>
        <time>2023-04-10T09:35:10Z</time>
      </trkpt>
      <trkpt lat="44.93664" lon="0.66736">
        <ele>151.9</ele>
        <time>2023-04-10T09:35:11Z</time>
      </trkpt>
      <trkpt lat="44.93665" lon="0.66736">
        <ele>151.9</ele>
        <time>2023-04-10T09:35:12Z</time>
      </trkpt>
      <trkpt lat="44.93664" lon="0.66738">
        <ele>151.9</ele>
        <time>2023-04-10T09:35:13Z</time>
      </trkpt>
      <trkpt lat="44.93663" lon="0.66742">
        <ele>152</ele>
        <time>2023-04-10T09:35:14Z</time>
      </trkpt>
      <trkpt lat="44.93661" lon="0.6675">
        <ele>152.1</ele>
        <time>2023-04-10T09:35:16Z</time>
      </trkpt>
      <trkpt lat="44.9366" lon="0.66755">
        <ele>152.2</ele>
        <time>2023-04-10T09:35:18Z</time>
      </trkpt>
      <trkpt lat="44.9366" lon="0.66757">
        <ele>152.2</ele>
        <time>2023-04-10T09:35:19Z</time>
      </trkpt>
      <trkpt lat="44.9366" lon="0.6676">
        <ele>152.3</ele>
        <time>2023-04-10T09:35:20Z</time>
      </trkpt>
      <trkpt lat="44.9366" lon="0.66764">
        <ele>152.3</ele>
        <time>2023-04-10T09:35:21Z</time>
      </trkpt>
      <trkpt lat="44.9366" lon="0.66767">
        <ele>152.4</ele>
        <time>2023-04-10T09:35:22Z</time>
      </trkpt>
      <trkpt lat="44.9366" lon="0.66769">
        <ele>152.4</ele>
        <time>2023-04-10T09:35:23Z</time>
      </trkpt>
      <trkpt lat="44.93661" lon="0.66772">
        <ele>152.5</ele>
        <time>2023-04-10T09:35:24Z</time>
      </trkpt>
      <trkpt lat="44.93662" lon="0.66777">
        <ele>152.6</ele>
        <time>2023-04-10T09:35:26Z</time>
      </trkpt>
      <trkpt lat="44.93663" lon="0.66779">
        <ele>152.6</ele>
        <time>2023-04-10T09:35:27Z</time>
      </trkpt>
      <trkpt lat="44.93664" lon="0.6678">
        <ele>152.7</ele>
        <time>2023-04-10T09:35:28Z</time>
      </trkpt>
      <trkpt lat="44.93666" lon="0.66785">
        <ele>152.9</ele>
        <time>2023-04-10T09:35:30Z</time>
      </trkpt>
      <trkpt lat="44.93667" lon="0.66791">
        <ele>153.1</ele>
        <time>2023-04-10T09:35:32Z</time>
      </trkpt>
      <trkpt lat="44.93667" lon="0.66805">
        <ele>153.8</ele>
        <time>2023-04-10T09:35:34Z</time>
      </trkpt>
      <trkpt lat="44.93665" lon="0.66815">
        <ele>154.6</ele>
        <time>2023-04-10T09:35:36Z</time>
      </trkpt>
      <trkpt lat="44.93664" lon="0.66823">
        <ele>155.4</ele>
        <time>2023-04-10T09:35:38Z</time>
      </trkpt>
      <trkpt lat="44.93664" lon="0.66826">
        <ele>155.8</ele>
        <time>2023-04-10T09:35:40Z</time>
      </trkpt>
      <trkpt lat="44.93665" lon="0.66831">
        <ele>156.4</ele>
        <time>2023-04-10T09:35:42Z</time>
      </trkpt>
      <trkpt lat="44.93666" lon="0.66833">
        <ele>156.7</ele>
        <time>2023-04-10T09:35:43Z</time>
      </trkpt>
      <trkpt lat="44.93667" lon="0.66836">
        <ele>157.2</ele>
        <time>2023-04-10T09:35:44Z</time>
      </trkpt>
      <trkpt lat="44.93667" lon="0.66839">
        <ele>157.6</ele>
        <time>2023-04-10T09:35:45Z</time>
      </trkpt>
      <trkpt lat="44.93667" lon="0.66841">
        <ele>157.9</ele>
        <time>2023-04-10T09:35:46Z</time>
      </trkpt>
      <trkpt lat="44.93667" lon="0.66842">
        <ele>158.1</ele>
        <time>2023-04-10T09:35:47Z</time>
      </trkpt>
      <trkpt lat="44.93734" lon="0.66933">
        <ele>170.4</ele>
        <time>2023-04-10T09:37:07Z</time>
      </trkpt>
      <trkpt lat="44.93735" lon="0.66933">
        <ele>170.6</ele>
        <time>2023-04-10T09:37:08Z</time>
      </trkpt>
      <trkpt lat="44.93737" lon="0.66935">
        <ele>170.8</ele>
        <time>2023-04-10T09:37:10Z</time>
      </trkpt>
      <trkpt lat="44.93738" lon="0.66935">
        <ele>170.9</ele>
        <time>2023-04-10T09:37:11Z</time>
      </trkpt>
      <trkpt lat="44.93739" lon="0.66936">
        <ele>171</ele>
        <time>2023-04-10T09:37:12Z</time>
      </trkpt>
      <trkpt lat="44.93742" lon="0.66938">
        <ele>171.4</ele>
        <time>2023-04-10T09:37:14Z</time>
      </trkpt>
      <trkpt lat="44.93744" lon="0.66939">
        <ele>171.8</ele>
        <time>2023-04-10T09:37:16Z</time>
      </trkpt>
      <trkpt lat="44.93746" lon="0.66941">
        <ele>172</ele>
        <time>2023-04-10T09:37:17Z</time>
      </trkpt>
      <trkpt lat="44.93746" lon="0.66942">
        <ele>172.1</ele>
        <time>2023-04-10T09:37:18Z</time>
      </trkpt>
      <trkpt lat="44.93748" lon="0.66944">
        <ele>172.4</ele>
        <time>2023-04-10T09:37:20Z</time>
      </trkpt>
      <trkpt lat="44.93749" lon="0.66946">
        <ele>172.7</ele>
        <time>2023-04-10T09:37:22Z</time>
      </trkpt>
      <trkpt lat="44.93752" lon="0.66948">
        <ele>173.1</ele>
        <time>2023-04-10T09:37:24Z</time>
      </trkpt>
      <trkpt lat="44.93753" lon="0.6695">
        <ele>173.4</ele>
        <time>2023-04-10T09:37:26Z</time>
      </trkpt>
      <trkpt lat="44.93755" lon="0.66952">
        <ele>173.8</ele>
        <time>2023-04-10T09:37:28Z</time>
      </trkpt>
      <trkpt lat="44.93757" lon="0.66954">
        <ele>174</ele>
        <time>2023-04-10T09:37:30Z</time>
      </trkpt>
      <trkpt lat="44.93758" lon="0.66956">
        <ele>174.4</ele>
        <time>2023-04-10T09:37:32Z</time>
      </trkpt>
      <trkpt lat="44.9376" lon="0.66957">
        <ele>174.6</ele>
        <time>2023-04-10T09:37:34Z</time>
      </trkpt>
      <trkpt lat="44.93762" lon="0.6696">
        <ele>174.9</ele>
        <time>2023-04-10T09:37:36Z</time>
      </trkpt>
      <trkpt lat="44.93763" lon="0.66961">
        <ele>175.2</ele>
        <time>2023-04-10T09:37:38Z</time>
      </trkpt>
      <trkpt lat="44.93765" lon="0.66963">
        <ele>175.4</ele>
        <time>2023-04-10T09:37:40Z</time>
      </trkpt>
      <trkpt lat="44.93767" lon="0.66965">
        <ele>175.8</ele>
        <time>2023-04-10T09:37:42Z</time>
      </trkpt>
      <trkpt lat="44.9377" lon="0.66967">
        <ele>176.2</ele>
        <time>2023-04-10T09:37:44Z</time>
      </trkpt>
      <trkpt lat="44.93772" lon="0.66969">
        <ele>176.4</ele>
        <time>2023-04-10T09:37:46Z</time>
      </trkpt>
      <trkpt lat="44.93774" lon="0.6697">
        <ele>176.6</ele>
        <time>2023-04-10T09:37:48Z</time>
      </trkpt>
      <trkpt lat="44.93777" lon="0.6697">
        <ele>176.9</ele>
        <time>2023-04-10T09:37:50Z</time>
      </trkpt>
      <trkpt lat="44.93778" lon="0.66971">
        <ele>177.1</ele>
        <time>2023-04-10T09:37:51Z</time>
      </trkpt>
      <trkpt lat="44.93779" lon="0.66972">
        <ele>177.2</ele>
        <time>2023-04-10T09:37:52Z</time>
      </trkpt>
      <trkpt lat="44.93781" lon="0.66974">
        <ele>177.5</ele>
        <time>2023-04-10T09:37:54Z</time>
      </trkpt>
      <trkpt lat="44.93783" lon="0.66975">
        <ele>177.7</ele>
        <time>2023-04-10T09:37:56Z</time>
      </trkpt>
      <trkpt lat="44.93785" lon="0.66977">
        <ele>178</ele>
        <time>2023-04-10T09:37:58Z</time>
      </trkpt>
      <trkpt lat="44.93786" lon="0.66977">
        <ele>178.1</ele>
        <time>2023-04-10T09:37:59Z</time>
      </trkpt>
      <trkpt lat="44.93787" lon="0.66978">
        <ele>178.3</ele>
        <time>2023-04-10T09:38:00Z</time>
      </trkpt>
      <trkpt lat="44.93789" lon="0.66979">
        <ele>178.5</ele>
        <time>2023-04-10T09:38:02Z</time>
      </trkpt>
      <trkpt lat="44.93791" lon="0.66979">
        <ele>178.7</ele>
        <time>2023-04-10T09:38:04Z</time>
      </trkpt>
      <trkpt lat="44.93792" lon="0.6698">
        <ele>178.9</ele>
        <time>2023-04-10T09:38:05Z</time>
      </trkpt>
      <trkpt lat="44.93793" lon="0.6698">
        <ele>179</ele>
        <time>2023-04-10T09:38:06Z</time>
      </trkpt>
      <trkpt lat="44.93795" lon="0.66982">
        <ele>179.3</ele>
        <time>2023-04-10T09:38:08Z</time>
      </trkpt>
      <trkpt lat="44.93798" lon="0.66982">
        <ele>179.6</ele>
        <time>2023-04-10T09:38:10Z</time>
      </trkpt>
      <trkpt lat="44.938" lon="0.66983">
        <ele>180</ele>
        <time>2023-04-10T09:38:12Z</time>
      </trkpt>
      <trkpt lat="44.93801" lon="0.66984">
        <ele>180.1</ele>
        <time>2023-04-10T09:38:13Z</time>
      </trkpt>
      <trkpt lat="44.93802" lon="0.66985">
        <ele>180.2</ele>
        <time>2023-04-10T09:38:14Z</time>
      </trkpt>
      <trkpt lat="44.93803" lon="0.66986">
        <ele>180.4</ele>
        <time>2023-04-10T09:38:16Z</time>
      </trkpt>
      <trkpt lat="44.93805" lon="0.66989">
        <ele>180.7</ele>
        <time>2023-04-10T09:38:18Z</time>
      </trkpt>
      <trkpt lat="44.93807" lon="0.66989">
        <ele>180.9</ele>
        <time>2023-04-10T09:38:20Z</time>
      </trkpt>
      <trkpt lat="44.93809" lon="0.66991">
        <ele>181.1</ele>
        <time>2023-04-10T09:38:22Z</time>
      </trkpt>
      <trkpt lat="44.93811" lon="0.66993">
        <ele>181.4</ele>
        <time>2023-04-10T09:38:24Z</time>
      </trkpt>
      <trkpt lat="44.93813" lon="0.66996">
        <ele>181.6</ele>
        <time>2023-04-10T09:38:26Z</time>
      </trkpt>
      <trkpt lat="44.93816" lon="0.66998">
        <ele>182</ele>
        <time>2023-04-10T09:38:28Z</time>
      </trkpt>
      <trkpt lat="44.93819" lon="0.66999">
        <ele>182.2</ele>
        <time>2023-04-10T09:38:30Z</time>
      </trkpt>
      <trkpt lat="44.93821" lon="0.67001">
        <ele>182.4</ele>
        <time>2023-04-10T09:38:32Z</time>
      </trkpt>
      <trkpt lat="44.93824" lon="0.67003">
        <ele>182.6</ele>
        <time>2023-04-10T09:38:34Z</time>
      </trkpt>
      <trkpt lat="44.93825" lon="0.67004">
        <ele>182.7</ele>
        <time>2023-04-10T09:38:36Z</time>
      </trkpt>
      <trkpt lat="44.93825" lon="0.67005">
        <ele>182.8</ele>
        <time>2023-04-10T09:38:37Z</time>
      </trkpt>
      <trkpt lat="44.93826" lon="0.67006">
        <ele>182.9</ele>
        <time>2023-04-10T09:38:38Z</time>
      </trkpt>
      <trkpt lat="44.93828" lon="0.67009">
        <ele>183.1</ele>
        <time>2023-04-10T09:38:40Z</time>
      </trkpt>
      <trkpt lat="44.93831" lon="0.67012">
        <ele>183.3</ele>
        <time>2023-04-10T09:38:42Z</time>
      </trkpt>
      <trkpt lat="44.93832" lon="0.67013">
        <ele>183.4</ele>
        <time>2023-04-10T09:38:43Z</time>
      </trkpt>
      <trkpt lat="44.93834" lon="0.67014">
        <ele>183.5</ele>
        <time>2023-04-10T09:38:44Z</time>
      </trkpt>
      <trkpt lat="44.93837" lon="0.67016">
        <ele>183.6</ele>
        <time>2023-04-10T09:38:46Z</time>
      </trkpt>
      <trkpt lat="44.93839" lon="0.67017">
        <ele>183.8</ele>
        <time>2023-04-10T09:38:48Z</time>
      </trkpt>
      <trkpt lat="44.93842" lon="0.67019">
        <ele>183.9</ele>
        <time>2023-04-10T09:38:50Z</time>
      </trkpt>
      <trkpt lat="44.93845" lon="0.67023">
        <ele>184</ele>
        <time>2023-04-10T09:38:52Z</time>
      </trkpt>
      <trkpt lat="44.93848" lon="0.67027">
        <ele>184.1</ele>
        <time>2023-04-10T09:38:54Z</time>
      </trkpt>
      <trkpt lat="44.9385" lon="0.67029">
        <ele>184.1</ele>
        <time>2023-04-10T09:38:55Z</time>
      </trkpt>
      <trkpt lat="44.93851" lon="0.6703">
        <ele>184.2</ele>
        <time>2023-04-10T09:38:56Z</time>
      </trkpt>
      <trkpt lat="44.93853" lon="0.67032">
        <ele>184.2</ele>
        <time>2023-04-10T09:38:57Z</time>
      </trkpt>
      <trkpt lat="44.93855" lon="0.67034">
        <ele>184.2</ele>
        <time>2023-04-10T09:38:58Z</time>
      </trkpt>
      <trkpt lat="44.93858" lon="0.67039">
        <ele>184.3</ele>
        <time>2023-04-10T09:39:00Z</time>
      </trkpt>
      <trkpt lat="44.9386" lon="0.67043">
        <ele>184.3</ele>
        <time>2023-04-10T09:39:02Z</time>
      </trkpt>
      <trkpt lat="44.93864" lon="0.67045">
        <ele>184.3</ele>
        <time>2023-04-10T09:39:04Z</time>
      </trkpt>
      <trkpt lat="44.93868" lon="0.67046">
        <ele>184.3</ele>
        <time>2023-04-10T09:39:06Z</time>
      </trkpt>
      <trkpt lat="44.93872" lon="0.67048">
        <ele>184.3</ele>
        <time>2023-04-10T09:39:08Z</time>
      </trkpt>
      <trkpt lat="44.93877" lon="0.67049">
        <ele>184.2</ele>
        <time>2023-04-10T09:39:10Z</time>
      </trkpt>
      <trkpt lat="44.93882" lon="0.67048">
        <ele>184.1</ele>
        <time>2023-04-10T09:39:12Z</time>
      </trkpt>
      <trkpt lat="44.93889" lon="0.67049">
        <ele>183.9</ele>
        <time>2023-04-10T09:39:14Z</time>
      </trkpt>
      <trkpt lat="44.93891" lon="0.67051">
        <ele>183.8</ele>
        <time>2023-04-10T09:39:15Z</time>
      </trkpt>
      <trkpt lat="44.93894" lon="0.67055">
        <ele>183.7</ele>
        <time>2023-04-10T09:39:16Z</time>
      </trkpt>
      <trkpt lat="44.93898" lon="0.67063">
        <ele>183.3</ele>
        <time>2023-04-10T09:39:18Z</time>
      </trkpt>
      <trkpt lat="44.93904" lon="0.67071">
        <ele>182.8</ele>
        <time>2023-04-10T09:39:20Z</time>
      </trkpt>
      <trkpt lat="44.93911" lon="0.67075">
        <ele>182.2</ele>
        <time>2023-04-10T09:39:22Z</time>
      </trkpt>
      <trkpt lat="44.93915" lon="0.67075">
        <ele>181.7</ele>
        <time>2023-04-10T09:39:23Z</time>
      </trkpt>
      <trkpt lat="44.9392" lon="0.67075">
        <ele>181.2</ele>
        <time>2023-04-10T09:39:24Z</time>
      </trkpt>
      <trkpt lat="44.93932" lon="0.67077">
        <ele>179.8</ele>
        <time>2023-04-10T09:39:26Z</time>
      </trkpt>
      <trkpt lat="44.93946" lon="0.6708">
        <ele>178.3</ele>
        <time>2023-04-10T09:39:28Z</time>
      </trkpt>
      <trkpt lat="44.93963" lon="0.67084">
        <ele>176.8</ele>
        <time>2023-04-10T09:39:30Z</time>
      </trkpt>
      <trkpt lat="44.93981" lon="0.67087">
        <ele>175.7</ele>
        <time>2023-04-10T09:39:32Z</time>
      </trkpt>
      <trkpt lat="44.93999" lon="0.67091">
        <ele>175</ele>
        <time>2023-04-10T09:39:34Z</time>
      </trkpt>
      <trkpt lat="44.94013" lon="0.67095">
        <ele>174</ele>
        <time>2023-04-10T09:39:36Z</time>
      </trkpt>
      <trkpt lat="44.94018" lon="0.67095">
        <ele>173.6</ele>
        <time>2023-04-10T09:39:37Z</time>
      </trkpt>
      <trkpt lat="44.94023" lon="0.67092">
        <ele>173.2</ele>
        <time>2023-04-10T09:39:38Z</time>
      </trkpt>
      <trkpt lat="44.94032" lon="0.67085">
        <ele>172.5</ele>
        <time>2023-04-10T09:39:40Z</time>
      </trkpt>
      <trkpt lat="44.94036" lon="0.67084">
        <ele>172.2</ele>
        <time>2023-04-10T09:39:41Z</time>
      </trkpt>
      <trkpt lat="44.94039" lon="0.67084">
        <ele>172.1</ele>
        <time>2023-04-10T09:39:42Z</time>
      </trkpt>
      <trkpt lat="44.94045" lon="0.67086">
        <ele>171.9</ele>
        <time>2023-04-10T09:39:44Z</time>
      </trkpt>
      <trkpt lat="44.9405" lon="0.67091">
        <ele>171.8</ele>
        <time>2023-04-10T09:39:46Z</time>
      </trkpt>
      <trkpt lat="44.94053" lon="0.67096">
        <ele>171.8</ele>
        <time>2023-04-10T09:39:48Z</time>
      </trkpt>
      <trkpt lat="44.94057" lon="0.671">
        <ele>171.9</ele>
        <time>2023-04-10T09:39:50Z</time>
      </trkpt>
      <trkpt lat="44.94061" lon="0.67105">
        <ele>172</ele>
        <time>2023-04-10T09:39:52Z</time>
      </trkpt>
      <trkpt lat="44.94066" lon="0.67106">
        <ele>172.2</ele>
        <time>2023-04-10T09:39:54Z</time>
      </trkpt>
      <trkpt lat="44.9407" lon="0.67106">
        <ele>172.4</ele>
        <time>2023-04-10T09:39:56Z</time>
      </trkpt>
      <trkpt lat="44.94074" lon="0.67106">
        <ele>172.7</ele>
        <time>2023-04-10T09:39:58Z</time>
      </trkpt>
      <trkpt lat="44.94078" lon="0.67106">
        <ele>172.9</ele>
        <time>2023-04-10T09:40:00Z</time>
      </trkpt>
      <trkpt lat="44.9408" lon="0.67106">
        <ele>173</ele>
        <time>2023-04-10T09:40:01Z</time>
      </trkpt>
      <trkpt lat="44.94082" lon="0.67106">
        <ele>173.1</ele>
        <time>2023-04-10T09:40:02Z</time>
      </trkpt>
      <trkpt lat="44.94085" lon="0.67107">
        <ele>173.4</ele>
        <time>2023-04-10T09:40:04Z</time>
      </trkpt>
      <trkpt lat="44.94088" lon="0.67108">
        <ele>173.6</ele>
        <time>2023-04-10T09:40:06Z</time>
      </trkpt>
      <trkpt lat="44.9409" lon="0.67108">
        <ele>173.7</ele>
        <time>2023-04-10T09:40:07Z</time>
      </trkpt>
      <trkpt lat="44.94091" lon="0.67109">
        <ele>173.9</ele>
        <time>2023-04-10T09:40:08Z</time>
      </trkpt>
      <trkpt lat="44.94095" lon="0.67109">
        <ele>174.2</ele>
        <time>2023-04-10T09:40:10Z</time>
      </trkpt>
      <trkpt lat="44.94099" lon="0.6711">
        <ele>174.5</ele>
        <time>2023-04-10T09:40:12Z</time>
      </trkpt>
      <trkpt lat="44.94102" lon="0.67111">
        <ele>174.8</ele>
        <time>2023-04-10T09:40:14Z</time>
      </trkpt>
      <trkpt lat="44.94105" lon="0.67112">
        <ele>175</ele>
        <time>2023-04-10T09:40:16Z</time>
      </trkpt>
      <trkpt lat="44.94109" lon="0.67113">
        <ele>175.3</ele>
        <time>2023-04-10T09:40:18Z</time>
      </trkpt>
      <trkpt lat="44.94112" lon="0.67113">
        <ele>175.6</ele>
        <time>2023-04-10T09:40:20Z</time>
      </trkpt>
      <trkpt lat="44.94114" lon="0.67113">
        <ele>175.8</ele>
        <time>2023-04-10T09:40:21Z</time>
      </trkpt>
      <trkpt lat="44.94116" lon="0.67113">
        <ele>175.9</ele>
        <time>2023-04-10T09:40:22Z</time>
      </trkpt>
      <trkpt lat="44.9412" lon="0.67113">
        <ele>176.2</ele>
        <time>2023-04-10T09:40:24Z</time>
      </trkpt>
      <trkpt lat="44.94123" lon="0.67112">
        <ele>176.5</ele>
        <time>2023-04-10T09:40:26Z</time>
      </trkpt>
      <trkpt lat="44.94125" lon="0.67111">
        <ele>176.7</ele>
        <time>2023-04-10T09:40:27Z</time>
      </trkpt>
      <trkpt lat="44.94126" lon="0.6711">
        <ele>176.8</ele>
        <time>2023-04-10T09:40:28Z</time>
      </trkpt>
      <trkpt lat="44.9413" lon="0.67109">
        <ele>177.1</ele>
        <time>2023-04-10T09:40:30Z</time>
      </trkpt>
      <trkpt lat="44.94134" lon="0.67109">
        <ele>177.4</ele>
        <time>2023-04-10T09:40:32Z</time>
      </trkpt>
      <trkpt lat="44.94135" lon="0.67109">
        <ele>177.4</ele>
        <time>2023-04-10T09:40:33Z</time>
      </trkpt>
      <trkpt lat="44.94137" lon="0.67109">
        <ele>177.5</ele>
        <time>2023-04-10T09:40:34Z</time>
      </trkpt>
      <trkpt lat="44.9414" lon="0.67108">
        <ele>177.7</ele>
        <time>2023-04-10T09:40:36Z</time>
      </trkpt>
      <trkpt lat="44.94144" lon="0.67108">
        <ele>177.9</ele>
        <time>2023-04-10T09:40:38Z</time>
      </trkpt>
      <trkpt lat="44.94146" lon="0.67107">
        <ele>178</ele>
        <time>2023-04-10T09:40:39Z</time>
      </trkpt>
      <trkpt lat="44.94148" lon="0.67107">
        <ele>178.1</ele>
        <time>2023-04-10T09:40:40Z</time>
      </trkpt>
      <trkpt lat="44.94149" lon="0.67108">
        <ele>178.2</ele>
        <time>2023-04-10T09:40:41Z</time>
      </trkpt>
      <trkpt lat="44.94151" lon="0.67109">
        <ele>178.2</ele>
        <time>2023-04-10T09:40:42Z</time>
      </trkpt>
      <trkpt lat="44.94152" lon="0.67112">
        <ele>178.3</ele>
        <time>2023-04-10T09:40:43Z</time>
      </trkpt>
      <trkpt lat="44.94153" lon="0.67115">
        <ele>178.4</ele>
        <time>2023-04-10T09:40:44Z</time>
      </trkpt>
      <trkpt lat="44.94151" lon="0.6712">
        <ele>178.5</ele>
        <time>2023-04-10T09:40:46Z</time>
      </trkpt>
      <trkpt lat="44.9415" lon="0.67124">
        <ele>178.6</ele>
        <time>2023-04-10T09:40:48Z</time>
      </trkpt>
      <trkpt lat="44.94148" lon="0.6713">
        <ele>178.7</ele>
        <time>2023-04-10T09:40:50Z</time>
      </trkpt>
      <trkpt lat="44.94146" lon="0.67132">
        <ele>178.7</ele>
        <time>2023-04-10T09:40:51Z</time>
      </trkpt>
      <trkpt lat="44.94145" lon="0.67134">
        <ele>178.8</ele>
        <time>2023-04-10T09:40:52Z</time>
      </trkpt>
      <trkpt lat="44.94143" lon="0.67141">
        <ele>178.9</ele>
        <time>2023-04-10T09:40:54Z</time>
      </trkpt>
      <trkpt lat="44.94142" lon="0.67146">
        <ele>179.1</ele>
        <time>2023-04-10T09:40:56Z</time>
      </trkpt>
      <trkpt lat="44.94143" lon="0.67149">
        <ele>179.2</ele>
        <time>2023-04-10T09:40:57Z</time>
      </trkpt>
      <trkpt lat="44.94144" lon="0.67152">
        <ele>179.2</ele>
        <time>2023-04-10T09:40:58Z</time>
      </trkpt>
      <trkpt lat="44.94145" lon="0.67158">
        <ele>179.4</ele>
        <time>2023-04-10T09:41:00Z</time>
      </trkpt>
      <trkpt lat="44.94147" lon="0.67163">
        <ele>179.6</ele>
        <time>2023-04-10T09:41:02Z</time>
      </trkpt>
      <trkpt lat="44.94148" lon="0.67166">
        <ele>179.7</ele>
        <time>2023-04-10T09:41:03Z</time>
      </trkpt>
      <trkpt lat="44.94148" lon="0.67169">
        <ele>179.8</ele>
        <time>2023-04-10T09:41:04Z</time>
      </trkpt>
      <trkpt lat="44.94148" lon="0.67175">
        <ele>180</ele>
        <time>2023-04-10T09:41:06Z</time>
      </trkpt>
      <trkpt lat="44.94148" lon="0.67181">
        <ele>180.1</ele>
        <time>2023-04-10T09:41:08Z</time>
      </trkpt>
      <trkpt lat="44.94148" lon="0.67183">
        <ele>180.2</ele>
        <time>2023-04-10T09:41:09Z</time>
      </trkpt>
      <trkpt lat="44.94148" lon="0.67186">
        <ele>180.3</ele>
        <time>2023-04-10T09:41:10Z</time>
      </trkpt>
      <trkpt lat="44.94149" lon="0.6719">
        <ele>180.4</ele>
        <time>2023-04-10T09:41:12Z</time>
      </trkpt>
      <trkpt lat="44.9415" lon="0.67194">
        <ele>180.4</ele>
        <time>2023-04-10T09:41:14Z</time>
      </trkpt>
      <trkpt lat="44.94153" lon="0.67197">
        <ele>180.5</ele>
        <time>2023-04-10T09:41:16Z</time>
      </trkpt>
      <trkpt lat="44.94158" lon="0.67197">
        <ele>180.5</ele>
        <time>2023-04-10T09:41:18Z</time>
      </trkpt>
      <trkpt lat="44.94161" lon="0.67196">
        <ele>180.6</ele>
        <time>2023-04-10T09:41:20Z</time>
      </trkpt>
      <trkpt lat="44.94163" lon="0.67196">
        <ele>180.6</ele>
        <time>2023-04-10T09:41:21Z</time>
      </trkpt>
      <trkpt lat="44.94165" lon="0.67196">
        <ele>180.6</ele>
        <time>2023-04-10T09:41:22Z</time>
      </trkpt>
      <trkpt lat="44.94168" lon="0.67195">
        <ele>180.6</ele>
        <time>2023-04-10T09:41:24Z</time>
      </trkpt>
      <trkpt lat="44.94172" lon="0.67195">
        <ele>180.6</ele>
        <time>2023-04-10T09:41:26Z</time>
      </trkpt>
      <trkpt lat="44.94177" lon="0.67195">
        <ele>180.5</ele>
        <time>2023-04-10T09:41:28Z</time>
      </trkpt>
      <trkpt lat="44.94182" lon="0.67194">
        <ele>180.5</ele>
        <time>2023-04-10T09:41:30Z</time>
      </trkpt>
      <trkpt lat="44.94187" lon="0.67195">
        <ele>180.5</ele>
        <time>2023-04-10T09:41:32Z</time>
      </trkpt>
      <trkpt lat="44.94191" lon="0.67195">
        <ele>180.4</ele>
        <time>2023-04-10T09:41:34Z</time>
      </trkpt>
      <trkpt lat="44.94196" lon="0.67196">
        <ele>180.4</ele>
        <time>2023-04-10T09:41:36Z</time>
      </trkpt>
      <trkpt lat="44.94201" lon="0.67198">
        <ele>180.4</ele>
        <time>2023-04-10T09:41:38Z</time>
      </trkpt>
      <trkpt lat="44.94205" lon="0.67199">
        <ele>180.4</ele>
        <time>2023-04-10T09:41:40Z</time>
      </trkpt>
      <trkpt lat="44.9421" lon="0.67202">
        <ele>180.4</ele>
        <time>2023-04-10T09:41:42Z</time>
      </trkpt>
      <trkpt lat="44.94212" lon="0.67202">
        <ele>180.4</ele>
        <time>2023-04-10T09:41:43Z</time>
      </trkpt>
      <trkpt lat="44.94215" lon="0.67204">
        <ele>180.4</ele>
        <time>2023-04-10T09:41:44Z</time>
      </trkpt>
      <trkpt lat="44.94219" lon="0.67206">
        <ele>180.5</ele>
        <time>2023-04-10T09:41:46Z</time>
      </trkpt>
      <trkpt lat="44.94222" lon="0.67209">
        <ele>180.6</ele>
        <time>2023-04-10T09:41:48Z</time>
      </trkpt>
      <trkpt lat="44.94226" lon="0.67212">
        <ele>180.6</ele>
        <time>2023-04-10T09:41:50Z</time>
      </trkpt>
      <trkpt lat="44.9423" lon="0.67216">
        <ele>180.7</ele>
        <time>2023-04-10T09:41:52Z</time>
      </trkpt>
      <trkpt lat="44.94233" lon="0.67219">
        <ele>180.8</ele>
        <time>2023-04-10T09:41:54Z</time>
      </trkpt>
      <trkpt lat="44.94236" lon="0.67222">
        <ele>180.9</ele>
        <time>2023-04-10T09:41:56Z</time>
      </trkpt>
      <trkpt lat="44.94238" lon="0.67225">
        <ele>180.9</ele>
        <time>2023-04-10T09:41:57Z</time>
      </trkpt>
      <trkpt lat="44.94239" lon="0.67227">
        <ele>180.9</ele>
        <time>2023-04-10T09:41:58Z</time>
      </trkpt>
      <trkpt lat="44.94243" lon="0.6723">
        <ele>180.8</ele>
        <time>2023-04-10T09:42:00Z</time>
      </trkpt>
      <trkpt lat="44.94247" lon="0.67233">
        <ele>180.8</ele>
        <time>2023-04-10T09:42:02Z</time>
      </trkpt>
      <trkpt lat="44.94249" lon="0.67234">
        <ele>180.7</ele>
        <time>2023-04-10T09:42:03Z</time>
      </trkpt>
      <trkpt lat="44.94252" lon="0.67236">
        <ele>180.6</ele>
        <time>2023-04-10T09:42:04Z</time>
      </trkpt>
      <trkpt lat="44.94258" lon="0.6724">
        <ele>180.3</ele>
        <time>2023-04-10T09:42:06Z</time>
      </trkpt>
      <trkpt lat="44.94262" lon="0.67243">
        <ele>180.1</ele>
        <time>2023-04-10T09:42:07Z</time>
      </trkpt>
      <trkpt lat="44.94265" lon="0.67247">
        <ele>179.9</ele>
        <time>2023-04-10T09:42:08Z</time>
      </trkpt>
      <trkpt lat="44.94271" lon="0.67255">
        <ele>179.4</ele>
        <time>2023-04-10T09:42:10Z</time>
      </trkpt>
      <trkpt lat="44.9428" lon="0.67264">
        <ele>178.8</ele>
        <time>2023-04-10T09:42:12Z</time>
      </trkpt>
      <trkpt lat="44.94289" lon="0.67271">
        <ele>178.3</ele>
        <time>2023-04-10T09:42:14Z</time>
      </trkpt>
      <trkpt lat="44.94293" lon="0.67275">
        <ele>178</ele>
        <time>2023-04-10T09:42:15Z</time>
      </trkpt>
      <trkpt lat="44.94296" lon="0.67279">
        <ele>177.8</ele>
        <time>2023-04-10T09:42:16Z</time>
      </trkpt>
      <trkpt lat="44.94299" lon="0.67285">
        <ele>177.4</ele>
        <time>2023-04-10T09:42:17Z</time>
      </trkpt>
      <trkpt lat="44.94301" lon="0.6729">
        <ele>177.1</ele>
        <time>2023-04-10T09:42:18Z</time>
      </trkpt>
      <trkpt lat="44.94306" lon="0.67304">
        <ele>176.1</ele>
        <time>2023-04-10T09:42:20Z</time>
      </trkpt>
      <trkpt lat="44.94314" lon="0.67321">
        <ele>174.8</ele>
        <time>2023-04-10T09:42:22Z</time>
      </trkpt>
      <trkpt lat="44.94323" lon="0.67338">
        <ele>173.3</ele>
        <time>2023-04-10T09:42:24Z</time>
      </trkpt>
      <trkpt lat="44.94334" lon="0.67353">
        <ele>172</ele>
        <time>2023-04-10T09:42:26Z</time>
      </trkpt>
      <trkpt lat="44.9434" lon="0.67359">
        <ele>171.5</ele>
        <time>2023-04-10T09:42:27Z</time>
      </trkpt>
      <trkpt lat="44.94347" lon="0.67362">
        <ele>171</ele>
        <time>2023-04-10T09:42:28Z</time>
      </trkpt>
      <trkpt lat="44.94355" lon="0.67365">
        <ele>170.5</ele>
        <time>2023-04-10T09:42:29Z</time>
      </trkpt>
      <trkpt lat="44.94363" lon="0.67367">
        <ele>169.9</ele>
        <time>2023-04-10T09:42:30Z</time>
      </trkpt>
      <trkpt lat="44.94372" lon="0.67367">
        <ele>169.3</ele>
        <time>2023-04-10T09:42:31Z</time>
      </trkpt>
      <trkpt lat="44.9438" lon="0.67366">
        <ele>168.7</ele>
        <time>2023-04-10T09:42:32Z</time>
      </trkpt>
      <trkpt lat="44.94389" lon="0.67367">
        <ele>168.2</ele>
        <time>2023-04-10T09:42:33Z</time>
      </trkpt>
      <trkpt lat="44.94396" lon="0.6737">
        <ele>167.8</ele>
        <time>2023-04-10T09:42:34Z</time>
      </trkpt>
      <trkpt lat="44.94402" lon="0.67373">
        <ele>167.5</ele>
        <time>2023-04-10T09:42:35Z</time>
      </trkpt>
      <trkpt lat="44.94406" lon="0.67375">
        <ele>167.2</ele>
        <time>2023-04-10T09:42:36Z</time>
      </trkpt>
      <trkpt lat="44.94413" lon="0.67378">
        <ele>166.5</ele>
        <time>2023-04-10T09:42:38Z</time>
      </trkpt>
      <trkpt lat="44.94419" lon="0.67373">
        <ele>165.5</ele>
        <time>2023-04-10T09:42:40Z</time>
      </trkpt>
      <trkpt lat="44.94421" lon="0.67369">
        <ele>165.1</ele>
        <time>2023-04-10T09:42:41Z</time>
      </trkpt>
      <trkpt lat="44.94423" lon="0.67364">
        <ele>164.8</ele>
        <time>2023-04-10T09:42:42Z</time>
      </trkpt>
      <trkpt lat="44.94426" lon="0.67358">
        <ele>164.5</ele>
        <time>2023-04-10T09:42:43Z</time>
      </trkpt>
      <trkpt lat="44.94428" lon="0.67352">
        <ele>164.3</ele>
        <time>2023-04-10T09:42:44Z</time>
      </trkpt>
      <trkpt lat="44.94431" lon="0.67346">
        <ele>164</ele>
        <time>2023-04-10T09:42:45Z</time>
      </trkpt>
      <trkpt lat="44.94433" lon="0.67339">
        <ele>163.7</ele>
        <time>2023-04-10T09:42:46Z</time>
      </trkpt>
      <trkpt lat="44.94436" lon="0.67333">
        <ele>163.5</ele>
        <time>2023-04-10T09:42:47Z</time>
      </trkpt>
      <trkpt lat="44.94439" lon="0.67326">
        <ele>163.3</ele>
        <time>2023-04-10T09:42:48Z</time>
      </trkpt>
      <trkpt lat="44.94446" lon="0.67314">
        <ele>163.1</ele>
        <time>2023-04-10T09:42:50Z</time>
      </trkpt>
      <trkpt lat="44.94449" lon="0.67307">
        <ele>163.1</ele>
        <time>2023-04-10T09:42:51Z</time>
      </trkpt>
      <trkpt lat="44.94453" lon="0.67302">
        <ele>163.1</ele>
        <time>2023-04-10T09:42:52Z</time>
      </trkpt>
      <trkpt lat="44.9446" lon="0.67293">
        <ele>163.3</ele>
        <time>2023-04-10T09:42:54Z</time>
      </trkpt>
      <trkpt lat="44.94462" lon="0.67289">
        <ele>163.4</ele>
        <time>2023-04-10T09:42:55Z</time>
      </trkpt>
      <trkpt lat="44.94464" lon="0.67284">
        <ele>163.5</ele>
        <time>2023-04-10T09:42:56Z</time>
      </trkpt>
      <trkpt lat="44.94466" lon="0.67275">
        <ele>163.8</ele>
        <time>2023-04-10T09:42:58Z</time>
      </trkpt>
      <trkpt lat="44.94467" lon="0.6727">
        <ele>164</ele>
        <time>2023-04-10T09:42:59Z</time>
      </trkpt>
      <trkpt lat="44.94468" lon="0.67265">
        <ele>164.2</ele>
        <time>2023-04-10T09:43:00Z</time>
      </trkpt>
      <trkpt lat="44.94468" lon="0.67255">
        <ele>164.6</ele>
        <time>2023-04-10T09:43:02Z</time>
      </trkpt>
      <trkpt lat="44.94468" lon="0.67251">
        <ele>164.7</ele>
        <time>2023-04-10T09:43:03Z</time>
      </trkpt>
      <trkpt lat="44.94466" lon="0.67246">
        <ele>164.9</ele>
        <time>2023-04-10T09:43:04Z</time>
      </trkpt>
      <trkpt lat="44.94464" lon="0.67237">
        <ele>165.2</ele>
        <time>2023-04-10T09:43:06Z</time>
      </trkpt>
      <trkpt lat="44.94461" lon="0.67227">
        <ele>165.4</ele>
        <time>2023-04-10T09:43:08Z</time>
      </trkpt>
      <trkpt lat="44.94458" lon="0.67218">
        <ele>165.6</ele>
        <time>2023-04-10T09:43:10Z</time>
      </trkpt>
      <trkpt lat="44.94455" lon="0.67208">
        <ele>165.6</ele>
        <time>2023-04-10T09:43:12Z</time>
      </trkpt>
      <trkpt lat="44.94451" lon="0.67198">
        <ele>165.5</ele>
        <time>2023-04-10T09:43:14Z</time>
      </trkpt>
      <trkpt lat="44.94447" lon="0.67188">
        <ele>165.4</ele>
        <time>2023-04-10T09:43:16Z</time>
      </trkpt>
      <trkpt lat="44.94443" lon="0.67177">
        <ele>165.1</ele>
        <time>2023-04-10T09:43:18Z</time>
      </trkpt>
      <trkpt lat="44.9444" lon="0.67166">
        <ele>164.8</ele>
        <time>2023-04-10T09:43:20Z</time>
      </trkpt>
      <trkpt lat="44.94437" lon="0.6716">
        <ele>164.6</ele>
        <time>2023-04-10T09:43:21Z</time>
      </trkpt>
      <trkpt lat="44.94435" lon="0.67154">
        <ele>164.3</ele>
        <time>2023-04-10T09:43:22Z</time>
      </trkpt>
      <trkpt lat="44.94428" lon="0.6714">
        <ele>163.6</ele>
        <time>2023-04-10T09:43:24Z</time>
      </trkpt>
      <trkpt lat="44.94421" lon="0.67125">
        <ele>162.8</ele>
        <time>2023-04-10T09:43:26Z</time>
      </trkpt>
      <trkpt lat="44.94415" lon="0.67109">
        <ele>161.9</ele>
        <time>2023-04-10T09:43:28Z</time>
      </trkpt>
      <trkpt lat="44.94411" lon="0.67091">
        <ele>161.1</ele>
        <time>2023-04-10T09:43:30Z</time>
      </trkpt>
      <trkpt lat="44.94409" lon="0.67082">
        <ele>160.8</ele>
        <time>2023-04-10T09:43:31Z</time>
      </trkpt>
      <trkpt lat="44.94407" lon="0.67072">
        <ele>160.4</ele>
        <time>2023-04-10T09:43:32Z</time>
      </trkpt>
      <trkpt lat="44.94404" lon="0.67058">
        <ele>159.9</ele>
        <time>2023-04-10T09:43:34Z</time>
      </trkpt>
      <trkpt lat="44.94405" lon="0.67053">
        <ele>159.1</ele>
        <time>2023-04-10T09:43:35Z</time>
      </trkpt>
      <trkpt lat="44.94408" lon="0.67048">
        <ele>158.7</ele>
        <time>2023-04-10T09:43:36Z</time>
      </trkpt>
      <trkpt lat="44.94416" lon="0.6704">
        <ele>157.8</ele>
        <time>2023-04-10T09:43:38Z</time>
      </trkpt>
      <trkpt lat="44.94426" lon="0.67035">
        <ele>157</ele>
        <time>2023-04-10T09:43:40Z</time>
      </trkpt>
      <trkpt lat="44.94436" lon="0.67027">
        <ele>156.5</ele>
        <time>2023-04-10T09:43:42Z</time>
      </trkpt>
      <trkpt lat="44.94441" lon="0.67024">
        <ele>156.3</ele>
        <time>2023-04-10T09:43:43Z</time>
      </trkpt>
      <trkpt lat="44.94446" lon="0.6702">
        <ele>156.2</ele>
        <time>2023-04-10T09:43:44Z</time>
      </trkpt>
      <trkpt lat="44.94452" lon="0.67013">
        <ele>156.1</ele>
        <time>2023-04-10T09:43:46Z</time>
      </trkpt>
      <trkpt lat="44.94455" lon="0.6701">
        <ele>156.1</ele>
        <time>2023-04-10T09:43:47Z</time>
      </trkpt>
      <trkpt lat="44.94458" lon="0.67007">
        <ele>156.1</ele>
        <time>2023-04-10T09:43:48Z</time>
      </trkpt>
      <trkpt lat="44.94465" lon="0.67001">
        <ele>156.2</ele>
        <time>2023-04-10T09:43:50Z</time>
      </trkpt>
      <trkpt lat="44.94473" lon="0.66997">
        <ele>156.2</ele>
        <time>2023-04-10T09:43:52Z</time>
      </trkpt>
      <trkpt lat="44.9448" lon="0.66996">
        <ele>156.3</ele>
        <time>2023-04-10T09:43:54Z</time>
      </trkpt>
      <trkpt lat="44.94487" lon="0.66999">
        <ele>156.4</ele>
        <time>2023-04-10T09:43:56Z</time>
      </trkpt>
      <trkpt lat="44.94493" lon="0.67005">
        <ele>156.5</ele>
        <time>2023-04-10T09:43:58Z</time>
      </trkpt>
      <trkpt lat="44.94501" lon="0.67008">
        <ele>156.6</ele>
        <time>2023-04-10T09:44:00Z</time>
      </trkpt>
      <trkpt lat="44.94508" lon="0.67009">
        <ele>156.7</ele>
        <time>2023-04-10T09:44:02Z</time>
      </trkpt>
      <trkpt lat="44.94516" lon="0.6701">
        <ele>156.7</ele>
        <time>2023-04-10T09:44:04Z</time>
      </trkpt>
      <trkpt lat="44.94525" lon="0.67013">
        <ele>156.6</ele>
        <time>2023-04-10T09:44:06Z</time>
      </trkpt>
      <trkpt lat="44.94531" lon="0.67015">
        <ele>156.4</ele>
        <time>2023-04-10T09:44:07Z</time>
      </trkpt>
      <trkpt lat="44.94536" lon="0.67017">
        <ele>156.2</ele>
        <time>2023-04-10T09:44:08Z</time>
      </trkpt>
      <trkpt lat="44.94547" lon="0.67022">
        <ele>155.8</ele>
        <time>2023-04-10T09:44:10Z</time>
      </trkpt>
      <trkpt lat="44.9456" lon="0.67025">
        <ele>155.2</ele>
        <time>2023-04-10T09:44:12Z</time>
      </trkpt>
      <trkpt lat="44.94566" lon="0.67027">
        <ele>155</ele>
        <time>2023-04-10T09:44:13Z</time>
      </trkpt>
      <trkpt lat="44.94572" lon="0.67029">
        <ele>154.7</ele>
        <time>2023-04-10T09:44:14Z</time>
      </trkpt>
      <trkpt lat="44.94584" lon="0.67033">
        <ele>154.2</ele>
        <time>2023-04-10T09:44:16Z</time>
      </trkpt>
      <trkpt lat="44.94595" lon="0.6704">
        <ele>153.7</ele>
        <time>2023-04-10T09:44:18Z</time>
      </trkpt>
      <trkpt lat="44.94605" lon="0.67049">
        <ele>153.2</ele>
        <time>2023-04-10T09:44:20Z</time>
      </trkpt>
      <trkpt lat="44.94615" lon="0.6706">
        <ele>152.6</ele>
        <time>2023-04-10T09:44:22Z</time>
      </trkpt>
      <trkpt lat="44.94628" lon="0.67072">
        <ele>151.9</ele>
        <time>2023-04-10T09:44:24Z</time>
      </trkpt>
      <trkpt lat="44.94635" lon="0.67078">
        <ele>151.6</ele>
        <time>2023-04-10T09:44:25Z</time>
      </trkpt>
      <trkpt lat="44.94641" lon="0.67083">
        <ele>151.2</ele>
        <time>2023-04-10T09:44:26Z</time>
      </trkpt>
      <trkpt lat="44.94648" lon="0.67087">
        <ele>150.9</ele>
        <time>2023-04-10T09:44:27Z</time>
      </trkpt>
      <trkpt lat="44.94654" lon="0.67091">
        <ele>150.5</ele>
        <time>2023-04-10T09:44:28Z</time>
      </trkpt>
      <trkpt lat="44.94669" lon="0.67095">
        <ele>149.7</ele>
        <time>2023-04-10T09:44:30Z</time>
      </trkpt>
      <trkpt lat="44.94677" lon="0.67096">
        <ele>149.3</ele>
        <time>2023-04-10T09:44:31Z</time>
      </trkpt>
      <trkpt lat="44.94685" lon="0.67097">
        <ele>148.7</ele>
        <time>2023-04-10T09:44:32Z</time>
      </trkpt>
      <trkpt lat="44.94693" lon="0.67099">
        <ele>148</ele>
        <time>2023-04-10T09:44:33Z</time>
      </trkpt>
      <trkpt lat="44.94703" lon="0.67102">
        <ele>147.2</ele>
        <time>2023-04-10T09:44:34Z</time>
      </trkpt>
      <trkpt lat="44.94713" lon="0.67104">
        <ele>146.1</ele>
        <time>2023-04-10T09:44:35Z</time>
      </trkpt>
      <trkpt lat="44.94724" lon="0.67104">
        <ele>144.8</ele>
        <time>2023-04-10T09:44:36Z</time>
      </trkpt>
      <trkpt lat="44.94748" lon="0.67105">
        <ele>142.2</ele>
        <time>2023-04-10T09:44:38Z</time>
      </trkpt>
      <trkpt lat="44.9476" lon="0.67107">
        <ele>141</ele>
        <time>2023-04-10T09:44:39Z</time>
      </trkpt>
      <trkpt lat="44.94772" lon="0.67111">
        <ele>139.9</ele>
        <time>2023-04-10T09:44:40Z</time>
      </trkpt>
      <trkpt lat="44.94783" lon="0.67116">
        <ele>138.9</ele>
        <time>2023-04-10T09:44:41Z</time>
      </trkpt>
      <trkpt lat="44.94793" lon="0.67121">
        <ele>137.9</ele>
        <time>2023-04-10T09:44:42Z</time>
      </trkpt>
      <trkpt lat="44.94803" lon="0.67127">
        <ele>137</ele>
        <time>2023-04-10T09:44:43Z</time>
      </trkpt>
      <trkpt lat="44.94813" lon="0.67132">
        <ele>136.1</ele>
        <time>2023-04-10T09:44:44Z</time>
      </trkpt>
      <trkpt lat="44.94831" lon="0.6714">
        <ele>134.8</ele>
        <time>2023-04-10T09:44:46Z</time>
      </trkpt>
      <trkpt lat="44.9484" lon="0.67141">
        <ele>134.3</ele>
        <time>2023-04-10T09:44:47Z</time>
      </trkpt>
      <trkpt lat="44.94849" lon="0.6714">
        <ele>134</ele>
        <time>2023-04-10T09:44:48Z</time>
      </trkpt>
      <trkpt lat="44.94864" lon="0.67134">
        <ele>133.7</ele>
        <time>2023-04-10T09:44:50Z</time>
      </trkpt>
      <trkpt lat="44.94876" lon="0.67126">
        <ele>133.8</ele>
        <time>2023-04-10T09:44:52Z</time>
      </trkpt>
      <trkpt lat="44.94881" lon="0.67121">
        <ele>134</ele>
        <time>2023-04-10T09:44:53Z</time>
      </trkpt>
      <trkpt lat="44.94884" lon="0.67116">
        <ele>134.2</ele>
        <time>2023-04-10T09:44:54Z</time>
      </trkpt>
      <trkpt lat="44.94889" lon="0.67109">
        <ele>134.6</ele>
        <time>2023-04-10T09:44:56Z</time>
      </trkpt>
      <trkpt lat="44.94891" lon="0.67103">
        <ele>134.8</ele>
        <time>2023-04-10T09:44:58Z</time>
      </trkpt>
      <trkpt lat="44.94891" lon="0.67098">
        <ele>135.1</ele>
        <time>2023-04-10T09:45:00Z</time>
      </trkpt>
      <trkpt lat="44.94891" lon="0.67093">
        <ele>135.3</ele>
        <time>2023-04-10T09:45:02Z</time>
      </trkpt>
      <trkpt lat="44.94891" lon="0.67091">
        <ele>135.4</ele>
        <time>2023-04-10T09:45:04Z</time>
      </trkpt>
      <trkpt lat="44.94892" lon="0.67086">
        <ele>135.6</ele>
        <time>2023-04-10T09:45:06Z</time>
      </trkpt>
      <trkpt lat="44.94892" lon="0.67081">
        <ele>135.9</ele>
        <time>2023-04-10T09:45:08Z</time>
      </trkpt>
      <trkpt lat="44.94892" lon="0.67078">
        <ele>136</ele>
        <time>2023-04-10T09:45:09Z</time>
      </trkpt>
      <trkpt lat="44.94892" lon="0.67075">
        <ele>136.2</ele>
        <time>2023-04-10T09:45:10Z</time>
      </trkpt>
      <trkpt lat="44.94892" lon="0.6707">
        <ele>136.4</ele>
        <time>2023-04-10T09:45:12Z</time>
      </trkpt>
      <trkpt lat="44.94892" lon="0.67067">
        <ele>136.6</ele>
        <time>2023-04-10T09:45:13Z</time>
      </trkpt>
      <trkpt lat="44.94892" lon="0.67064">
        <ele>136.7</ele>
        <time>2023-04-10T09:45:14Z</time>
      </trkpt>
      <trkpt lat="44.94891" lon="0.67059">
        <ele>137</ele>
        <time>2023-04-10T09:45:16Z</time>
      </trkpt>
      <trkpt lat="44.94892" lon="0.67055">
        <ele>137.2</ele>
        <time>2023-04-10T09:45:18Z</time>
      </trkpt>
      <trkpt lat="44.94892" lon="0.67052">
        <ele>137.4</ele>
        <time>2023-04-10T09:45:19Z</time>
      </trkpt>
      <trkpt lat="44.94892" lon="0.67051">
        <ele>137.5</ele>
        <time>2023-04-10T09:45:20Z</time>
      </trkpt>
      <trkpt lat="44.94892" lon="0.67045">
        <ele>137.7</ele>
        <time>2023-04-10T09:45:22Z</time>
      </trkpt>
      <trkpt lat="44.94892" lon="0.67041">
        <ele>138</ele>
        <time>2023-04-10T09:45:24Z</time>
      </trkpt>
      <trkpt lat="44.94891" lon="0.67037">
        <ele>138.3</ele>
        <time>2023-04-10T09:45:26Z</time>
      </trkpt>
      <trkpt lat="44.9489" lon="0.67035">
        <ele>138.4</ele>
        <time>2023-04-10T09:45:27Z</time>
      </trkpt>
      <trkpt lat="44.94891" lon="0.67032">
        <ele>138.6</ele>
        <time>2023-04-10T09:45:28Z</time>
      </trkpt>
      <trkpt lat="44.94893" lon="0.67027">
        <ele>139.1</ele>
        <time>2023-04-10T09:45:30Z</time>
      </trkpt>
      <trkpt lat="44.94893" lon="0.67024">
        <ele>139.3</ele>
        <time>2023-04-10T09:45:31Z</time>
      </trkpt>
      <trkpt lat="44.94893" lon="0.67022">
        <ele>139.5</ele>
        <time>2023-04-10T09:45:32Z</time>
      </trkpt>
      <trkpt lat="44.94894" lon="0.67015">
        <ele>140.2</ele>
        <time>2023-04-10T09:45:34Z</time>
      </trkpt>
      <trkpt lat="44.94895" lon="0.67013">
        <ele>140.4</ele>
        <time>2023-04-10T09:45:35Z</time>
      </trkpt>
      <trkpt lat="44.94895" lon="0.6701">
        <ele>140.7</ele>
        <time>2023-04-10T09:45:36Z</time>
      </trkpt>
      <trkpt lat="44.94895" lon="0.67007">
        <ele>141</ele>
        <time>2023-04-10T09:45:37Z</time>
      </trkpt>
      <trkpt lat="44.94895" lon="0.67004">
        <ele>141.3</ele>
        <time>2023-04-10T09:45:38Z</time>
      </trkpt>
      <trkpt lat="44.94897" lon="0.67">
        <ele>141.7</ele>
        <time>2023-04-10T09:45:40Z</time>
      </trkpt>
      <trkpt lat="44.94897" lon="0.66995">
        <ele>142.1</ele>
        <time>2023-04-10T09:45:42Z</time>
      </trkpt>
      <trkpt lat="44.94898" lon="0.66992">
        <ele>142.5</ele>
        <time>2023-04-10T09:45:44Z</time>
      </trkpt>
      <trkpt lat="44.94899" lon="0.66989">
        <ele>142.8</ele>
        <time>2023-04-10T09:45:46Z</time>
      </trkpt>
      <trkpt lat="44.94898" lon="0.66986">
        <ele>143.2</ele>
        <time>2023-04-10T09:45:48Z</time>
      </trkpt>
      <trkpt lat="44.949" lon="0.66983">
        <ele>143.6</ele>
        <time>2023-04-10T09:45:50Z</time>
      </trkpt>
      <trkpt lat="44.949" lon="0.6698">
        <ele>143.9</ele>
        <time>2023-04-10T09:45:52Z</time>
      </trkpt>
      <trkpt lat="44.949" lon="0.66979">
        <ele>144</ele>
        <time>2023-04-10T09:45:53Z</time>
      </trkpt>
      <trkpt lat="44.94901" lon="0.66977">
        <ele>144.1</ele>
        <time>2023-04-10T09:45:54Z</time>
      </trkpt>
      <trkpt lat="44.94901" lon="0.66972">
        <ele>144.7</ele>
        <time>2023-04-10T09:45:56Z</time>
      </trkpt>
      <trkpt lat="44.94902" lon="0.66969">
        <ele>145</ele>
        <time>2023-04-10T09:45:57Z</time>
      </trkpt>
      <trkpt lat="44.94903" lon="0.66967">
        <ele>145.3</ele>
        <time>2023-04-10T09:45:58Z</time>
      </trkpt>
      <trkpt lat="44.94905" lon="0.66963">
        <ele>145.7</ele>
        <time>2023-04-10T09:46:00Z</time>
      </trkpt>
      <trkpt lat="44.94905" lon="0.66961">
        <ele>145.9</ele>
        <time>2023-04-10T09:46:01Z</time>
      </trkpt>
      <trkpt lat="44.94906" lon="0.66959">
        <ele>146.1</ele>
        <time>2023-04-10T09:46:02Z</time>
      </trkpt>
      <trkpt lat="44.94905" lon="0.66957">
        <ele>146.3</ele>
        <time>2023-04-10T09:46:03Z</time>
      </trkpt>
      <trkpt lat="44.94906" lon="0.66956">
        <ele>146.5</ele>
        <time>2023-04-10T09:46:04Z</time>
      </trkpt>
      <trkpt lat="44.94907" lon="0.66953">
        <ele>146.8</ele>
        <time>2023-04-10T09:46:06Z</time>
      </trkpt>
      <trkpt lat="44.94908" lon="0.66949">
        <ele>147.1</ele>
        <time>2023-04-10T09:46:08Z</time>
      </trkpt>
      <trkpt lat="44.9491" lon="0.66947">
        <ele>147.4</ele>
        <time>2023-04-10T09:46:09Z</time>
      </trkpt>
      <trkpt lat="44.9491" lon="0.66945">
        <ele>147.5</ele>
        <time>2023-04-10T09:46:10Z</time>
      </trkpt>
      <trkpt lat="44.94911" lon="0.66943">
        <ele>147.8</ele>
        <time>2023-04-10T09:46:12Z</time>
      </trkpt>
      <trkpt lat="44.94912" lon="0.66941">
        <ele>148</ele>
        <time>2023-04-10T09:46:14Z</time>
      </trkpt>
      <trkpt lat="44.94913" lon="0.6694">
        <ele>148.2</ele>
        <time>2023-04-10T09:46:15Z</time>
      </trkpt>
      <trkpt lat="44.94914" lon="0.6694">
        <ele>148.3</ele>
        <time>2023-04-10T09:46:16Z</time>
      </trkpt>
      <trkpt lat="44.94915" lon="0.66937">
        <ele>148.5</ele>
        <time>2023-04-10T09:46:18Z</time>
      </trkpt>
      <trkpt lat="44.94916" lon="0.66935">
        <ele>148.7</ele>
        <time>2023-04-10T09:46:19Z</time>
      </trkpt>
      <trkpt lat="44.94916" lon="0.66934">
        <ele>148.9</ele>
        <time>2023-04-10T09:46:20Z</time>
      </trkpt>
      <trkpt lat="44.94918" lon="0.66931">
        <ele>149.2</ele>
        <time>2023-04-10T09:46:22Z</time>
      </trkpt>
      <trkpt lat="44.94921" lon="0.66929">
        <ele>149.6</ele>
        <time>2023-04-10T09:46:24Z</time>
      </trkpt>
      <trkpt lat="44.94924" lon="0.66926">
        <ele>150</ele>
        <time>2023-04-10T09:46:26Z</time>
      </trkpt>
      <trkpt lat="44.94925" lon="0.66924">
        <ele>150.2</ele>
        <time>2023-04-10T09:46:28Z</time>
      </trkpt>
      <trkpt lat="44.94927" lon="0.66922">
        <ele>150.5</ele>
        <time>2023-04-10T09:46:30Z</time>
      </trkpt>
      <trkpt lat="44.94928" lon="0.66921">
        <ele>150.6</ele>
        <time>2023-04-10T09:46:31Z</time>
      </trkpt>
      <trkpt lat="44.94928" lon="0.6692">
        <ele>150.8</ele>
        <time>2023-04-10T09:46:32Z</time>
      </trkpt>
      <trkpt lat="44.9493" lon="0.66918">
        <ele>151</ele>
        <time>2023-04-10T09:46:34Z</time>
      </trkpt>
      <trkpt lat="44.9493" lon="0.66917">
        <ele>151.1</ele>
        <time>2023-04-10T09:46:35Z</time>
      </trkpt>
      <trkpt lat="44.94931" lon="0.66915">
        <ele>151.2</ele>
        <time>2023-04-10T09:46:36Z</time>
      </trkpt>
      <trkpt lat="44.94933" lon="0.66913">
        <ele>151.5</ele>
        <time>2023-04-10T09:46:38Z</time>
      </trkpt>
      <trkpt lat="44.94935" lon="0.6691">
        <ele>151.8</ele>
        <time>2023-04-10T09:46:40Z</time>
      </trkpt>
      <trkpt lat="44.94937" lon="0.66908">
        <ele>152.1</ele>
        <time>2023-04-10T09:46:42Z</time>
      </trkpt>
      <trkpt lat="44.94939" lon="0.66906">
        <ele>152.3</ele>
        <time>2023-04-10T09:46:44Z</time>
      </trkpt>
      <trkpt lat="44.94942" lon="0.66903">
        <ele>152.7</ele>
        <time>2023-04-10T09:46:46Z</time>
      </trkpt>
      <trkpt lat="44.94943" lon="0.66901">
        <ele>152.8</ele>
        <time>2023-04-10T09:46:47Z</time>
      </trkpt>
      <trkpt lat="44.94944" lon="0.669">
        <ele>152.9</ele>
        <time>2023-04-10T09:46:48Z</time>
      </trkpt>
      <trkpt lat="44.94945" lon="0.66897">
        <ele>153.2</ele>
        <time>2023-04-10T09:46:50Z</time>
      </trkpt>
      <trkpt lat="44.94948" lon="0.66894">
        <ele>153.5</ele>
        <time>2023-04-10T09:46:52Z</time>
      </trkpt>
      <trkpt lat="44.94949" lon="0.66893">
        <ele>153.6</ele>
        <time>2023-04-10T09:46:53Z</time>
      </trkpt>
      <trkpt lat="44.9495" lon="0.66892">
        <ele>153.7</ele>
        <time>2023-04-10T09:46:54Z</time>
      </trkpt>
      <trkpt lat="44.94951" lon="0.66891">
        <ele>153.9</ele>
        <time>2023-04-10T09:46:56Z</time>
      </trkpt>
      <trkpt lat="44.94953" lon="0.66889">
        <ele>154.1</ele>
        <time>2023-04-10T09:46:58Z</time>
      </trkpt>
      <trkpt lat="44.94954" lon="0.66887">
        <ele>154.3</ele>
        <time>2023-04-10T09:47:00Z</time>
      </trkpt>
      <trkpt lat="44.94956" lon="0.66885">
        <ele>154.6</ele>
        <time>2023-04-10T09:47:02Z</time>
      </trkpt>
      <trkpt lat="44.94959" lon="0.66885">
        <ele>154.9</ele>
        <time>2023-04-10T09:47:04Z</time>
      </trkpt>
      <trkpt lat="44.9496" lon="0.66885">
        <ele>155.1</ele>
        <time>2023-04-10T09:47:05Z</time>
      </trkpt>
      <trkpt lat="44.94961" lon="0.66884">
        <ele>156.4</ele>
        <time>2023-04-10T09:47:06Z</time>
      </trkpt>
      <trkpt lat="44.94965" lon="0.66884">
        <ele>156.5</ele>
        <time>2023-04-10T09:47:08Z</time>
      </trkpt>
      <trkpt lat="44.94967" lon="0.66885">
        <ele>156.5</ele>
        <time>2023-04-10T09:47:10Z</time>
      </trkpt>
      <trkpt lat="44.94968" lon="0.66885">
        <ele>156.5</ele>
        <time>2023-04-10T09:47:11Z</time>
      </trkpt>
      <trkpt lat="44.94969" lon="0.66887">
        <ele>156.6</ele>
        <time>2023-04-10T09:47:12Z</time>
      </trkpt>
      <trkpt lat="44.94971" lon="0.66891">
        <ele>156.6</ele>
        <time>2023-04-10T09:47:14Z</time>
      </trkpt>
      <trkpt lat="44.94973" lon="0.66896">
        <ele>156.6</ele>
        <time>2023-04-10T09:47:16Z</time>
      </trkpt>
      <trkpt lat="44.94975" lon="0.66899">
        <ele>156.6</ele>
        <time>2023-04-10T09:47:17Z</time>
      </trkpt>
      <trkpt lat="44.94976" lon="0.66901">
        <ele>156.7</ele>
        <time>2023-04-10T09:47:18Z</time>
      </trkpt>
      <trkpt lat="44.94976" lon="0.66904">
        <ele>156.7</ele>
        <time>2023-04-10T09:47:19Z</time>
      </trkpt>
      <trkpt lat="44.94977" lon="0.66907">
        <ele>156.7</ele>
        <time>2023-04-10T09:47:20Z</time>
      </trkpt>
      <trkpt lat="44.94979" lon="0.66912">
        <ele>156.7</ele>
        <time>2023-04-10T09:47:22Z</time>
      </trkpt>
      <trkpt lat="44.9498" lon="0.66919">
        <ele>156.8</ele>
        <time>2023-04-10T09:47:24Z</time>
      </trkpt>
      <trkpt lat="44.94983" lon="0.66924">
        <ele>156.9</ele>
        <time>2023-04-10T09:47:26Z</time>
      </trkpt>
      <trkpt lat="44.94985" lon="0.66927">
        <ele>156.9</ele>
        <time>2023-04-10T09:47:27Z</time>
      </trkpt>
      <trkpt lat="44.94986" lon="0.66929">
        <ele>157</ele>
        <time>2023-04-10T09:47:28Z</time>
      </trkpt>
      <trkpt lat="44.94987" lon="0.66933">
        <ele>157</ele>
        <time>2023-04-10T09:47:29Z</time>
      </trkpt>
      <trkpt lat="44.94988" lon="0.66936">
        <ele>157.1</ele>
        <time>2023-04-10T09:47:30Z</time>
      </trkpt>
      <trkpt lat="44.94989" lon="0.66939">
        <ele>157.1</ele>
        <time>2023-04-10T09:47:31Z</time>
      </trkpt>
      <trkpt lat="44.9499" lon="0.66942">
        <ele>157.2</ele>
        <time>2023-04-10T09:47:32Z</time>
      </trkpt>
      <trkpt lat="44.94993" lon="0.66949">
        <ele>157.4</ele>
        <time>2023-04-10T09:47:34Z</time>
      </trkpt>
      <trkpt lat="44.94995" lon="0.66955">
        <ele>157.6</ele>
        <time>2023-04-10T09:47:36Z</time>
      </trkpt>
      <trkpt lat="44.94996" lon="0.66958">
        <ele>157.7</ele>
        <time>2023-04-10T09:47:37Z</time>
      </trkpt>
      <trkpt lat="44.94997" lon="0.66962">
        <ele>157.8</ele>
        <time>2023-04-10T09:47:38Z</time>
      </trkpt>
      <trkpt lat="44.94999" lon="0.66968">
        <ele>158</ele>
        <time>2023-04-10T09:47:40Z</time>
      </trkpt>
      <trkpt lat="44.95001" lon="0.66974">
        <ele>158.2</ele>
        <time>2023-04-10T09:47:42Z</time>
      </trkpt>
      <trkpt lat="44.95004" lon="0.6698">
        <ele>158.5</ele>
        <time>2023-04-10T09:47:44Z</time>
      </trkpt>
      <trkpt lat="44.95006" lon="0.66985">
        <ele>158.8</ele>
        <time>2023-04-10T09:47:46Z</time>
      </trkpt>
      <trkpt lat="44.95008" lon="0.6699">
        <ele>159</ele>
        <time>2023-04-10T09:47:48Z</time>
      </trkpt>
      <trkpt lat="44.9501" lon="0.66996">
        <ele>159.2</ele>
        <time>2023-04-10T09:47:50Z</time>
      </trkpt>
      <trkpt lat="44.95012" lon="0.67002">
        <ele>159.5</ele>
        <time>2023-04-10T09:47:52Z</time>
      </trkpt>
      <trkpt lat="44.95014" lon="0.67007">
        <ele>159.7</ele>
        <time>2023-04-10T09:47:54Z</time>
      </trkpt>
      <trkpt lat="44.95015" lon="0.67012">
        <ele>159.9</ele>
        <time>2023-04-10T09:47:56Z</time>
      </trkpt>
      <trkpt lat="44.95018" lon="0.67018">
        <ele>160.2</ele>
        <time>2023-04-10T09:47:58Z</time>
      </trkpt>
      <trkpt lat="44.95019" lon="0.67024">
        <ele>160.4</ele>
        <time>2023-04-10T09:48:00Z</time>
      </trkpt>
      <trkpt lat="44.95022" lon="0.67029">
        <ele>160.7</ele>
        <time>2023-04-10T09:48:02Z</time>
      </trkpt>
      <trkpt lat="44.95024" lon="0.67034">
        <ele>160.9</ele>
        <time>2023-04-10T09:48:04Z</time>
      </trkpt>
      <trkpt lat="44.95026" lon="0.6704">
        <ele>161.1</ele>
        <time>2023-04-10T09:48:06Z</time>
      </trkpt>
      <trkpt lat="44.95027" lon="0.67042">
        <ele>161.2</ele>
        <time>2023-04-10T09:48:07Z</time>
      </trkpt>
      <trkpt lat="44.95027" lon="0.67045">
        <ele>161.3</ele>
        <time>2023-04-10T09:48:08Z</time>
      </trkpt>
      <trkpt lat="44.95028" lon="0.67052">
        <ele>161.6</ele>
        <time>2023-04-10T09:48:10Z</time>
      </trkpt>
      <trkpt lat="44.95028" lon="0.67058">
        <ele>161.8</ele>
        <time>2023-04-10T09:48:12Z</time>
      </trkpt>
      <trkpt lat="44.95028" lon="0.67061">
        <ele>161.9</ele>
        <time>2023-04-10T09:48:13Z</time>
      </trkpt>
      <trkpt lat="44.95028" lon="0.67064">
        <ele>162</ele>
        <time>2023-04-10T09:48:14Z</time>
      </trkpt>
      <trkpt lat="44.95029" lon="0.6707">
        <ele>162.1</ele>
        <time>2023-04-10T09:48:16Z</time>
      </trkpt>
      <trkpt lat="44.95029" lon="0.67076">
        <ele>162.3</ele>
        <time>2023-04-10T09:48:18Z</time>
      </trkpt>
      <trkpt lat="44.95029" lon="0.67083">
        <ele>162.5</ele>
        <time>2023-04-10T09:48:20Z</time>
      </trkpt>
      <trkpt lat="44.9503" lon="0.67089">
        <ele>162.6</ele>
        <time>2023-04-10T09:48:22Z</time>
      </trkpt>
      <trkpt lat="44.9503" lon="0.67096">
        <ele>162.6</ele>
        <time>2023-04-10T09:48:24Z</time>
      </trkpt>
      <trkpt lat="44.9503" lon="0.67103">
        <ele>162.7</ele>
        <time>2023-04-10T09:48:26Z</time>
      </trkpt>
      <trkpt lat="44.95031" lon="0.6711">
        <ele>162.6</ele>
        <time>2023-04-10T09:48:28Z</time>
      </trkpt>
      <trkpt lat="44.95032" lon="0.67118">
        <ele>162.6</ele>
        <time>2023-04-10T09:48:30Z</time>
      </trkpt>
      <trkpt lat="44.95033" lon="0.67127">
        <ele>162.4</ele>
        <time>2023-04-10T09:48:32Z</time>
      </trkpt>
      <trkpt lat="44.95034" lon="0.67136">
        <ele>162.2</ele>
        <time>2023-04-10T09:48:34Z</time>
      </trkpt>
      <trkpt lat="44.95037" lon="0.67145">
        <ele>162</ele>
        <time>2023-04-10T09:48:36Z</time>
      </trkpt>
      <trkpt lat="44.95042" lon="0.67154">
        <ele>161.6</ele>
        <time>2023-04-10T09:48:38Z</time>
      </trkpt>
      <trkpt lat="44.95045" lon="0.67159">
        <ele>161.3</ele>
        <time>2023-04-10T09:48:39Z</time>
      </trkpt>
      <trkpt lat="44.95048" lon="0.67163">
        <ele>161.1</ele>
        <time>2023-04-10T09:48:40Z</time>
      </trkpt>
      <trkpt lat="44.95056" lon="0.67172">
        <ele>160.6</ele>
        <time>2023-04-10T09:48:42Z</time>
      </trkpt>
      <trkpt lat="44.95063" lon="0.67182">
        <ele>160</ele>
        <time>2023-04-10T09:48:44Z</time>
      </trkpt>
      <trkpt lat="44.95067" lon="0.67187">
        <ele>159.7</ele>
        <time>2023-04-10T09:48:45Z</time>
      </trkpt>
      <trkpt lat="44.95071" lon="0.67193">
        <ele>159.4</ele>
        <time>2023-04-10T09:48:46Z</time>
      </trkpt>
      <trkpt lat="44.9508" lon="0.67207">
        <ele>158.9</ele>
        <time>2023-04-10T09:48:48Z</time>
      </trkpt>
      <trkpt lat="44.95089" lon="0.67219">
        <ele>158.3</ele>
        <time>2023-04-10T09:48:50Z</time>
      </trkpt>
      <trkpt lat="44.95099" lon="0.67232">
        <ele>157.7</ele>
        <time>2023-04-10T09:48:52Z</time>
      </trkpt>
      <trkpt lat="44.95108" lon="0.67246">
        <ele>157.1</ele>
        <time>2023-04-10T09:48:54Z</time>
      </trkpt>
      <trkpt lat="44.95113" lon="0.67252">
        <ele>156.9</ele>
        <time>2023-04-10T09:48:55Z</time>
      </trkpt>
      <trkpt lat="44.95118" lon="0.67259">
        <ele>156.8</ele>
        <time>2023-04-10T09:48:56Z</time>
      </trkpt>
      <trkpt lat="44.95121" lon="0.67267">
        <ele>156.7</ele>
        <time>2023-04-10T09:48:57Z</time>
      </trkpt>
      <trkpt lat="44.95124" lon="0.67275">
        <ele>156.6</ele>
        <time>2023-04-10T09:48:58Z</time>
      </trkpt>
      <trkpt lat="44.9513" lon="0.6729">
        <ele>156.6</ele>
        <time>2023-04-10T09:49:00Z</time>
      </trkpt>
      <trkpt lat="44.95134" lon="0.67302">
        <ele>156.8</ele>
        <time>2023-04-10T09:49:02Z</time>
      </trkpt>
      <trkpt lat="44.95136" lon="0.67307">
        <ele>156.9</ele>
        <time>2023-04-10T09:49:03Z</time>
      </trkpt>
      <trkpt lat="44.95139" lon="0.67312">
        <ele>157</ele>
        <time>2023-04-10T09:49:04Z</time>
      </trkpt>
      <trkpt lat="44.95143" lon="0.67322">
        <ele>157.2</ele>
        <time>2023-04-10T09:49:06Z</time>
      </trkpt>
      <trkpt lat="44.95149" lon="0.67331">
        <ele>157.5</ele>
        <time>2023-04-10T09:49:08Z</time>
      </trkpt>
      <trkpt lat="44.95153" lon="0.67342">
        <ele>157.8</ele>
        <time>2023-04-10T09:49:10Z</time>
      </trkpt>
      <trkpt lat="44.95158" lon="0.67352">
        <ele>158</ele>
        <time>2023-04-10T09:49:12Z</time>
      </trkpt>
      <trkpt lat="44.95162" lon="0.67362">
        <ele>158.2</ele>
        <time>2023-04-10T09:49:14Z</time>
      </trkpt>
      <trkpt lat="44.95167" lon="0.67372">
        <ele>158.4</ele>
        <time>2023-04-10T09:49:16Z</time>
      </trkpt>
      <trkpt lat="44.95172" lon="0.67382">
        <ele>158.6</ele>
        <time>2023-04-10T09:49:18Z</time>
      </trkpt>
      <trkpt lat="44.95173" lon="0.67387">
        <ele>158.7</ele>
        <time>2023-04-10T09:49:19Z</time>
      </trkpt>
      <trkpt lat="44.95175" lon="0.67393">
        <ele>158.8</ele>
        <time>2023-04-10T09:49:20Z</time>
      </trkpt>
      <trkpt lat="44.95177" lon="0.67404">
        <ele>159</ele>
        <time>2023-04-10T09:49:22Z</time>
      </trkpt>
      <trkpt lat="44.95178" lon="0.67413">
        <ele>159.3</ele>
        <time>2023-04-10T09:49:24Z</time>
      </trkpt>
      <trkpt lat="44.95177" lon="0.67421">
        <ele>159.6</ele>
        <time>2023-04-10T09:49:26Z</time>
      </trkpt>
      <trkpt lat="44.95176" lon="0.67427">
        <ele>159.8</ele>
        <time>2023-04-10T09:49:28Z</time>
      </trkpt>
      <trkpt lat="44.95175" lon="0.6743">
        <ele>159.9</ele>
        <time>2023-04-10T09:49:29Z</time>
      </trkpt>
      <trkpt lat="44.95174" lon="0.67433">
        <ele>160</ele>
        <time>2023-04-10T09:49:30Z</time>
      </trkpt>
      <trkpt lat="44.95171" lon="0.6744">
        <ele>160.2</ele>
        <time>2023-04-10T09:49:32Z</time>
      </trkpt>
      <trkpt lat="44.95168" lon="0.67447">
        <ele>160.5</ele>
        <time>2023-04-10T09:49:34Z</time>
      </trkpt>
      <trkpt lat="44.95166" lon="0.6745">
        <ele>160.6</ele>
        <time>2023-04-10T09:49:35Z</time>
      </trkpt>
      <trkpt lat="44.95165" lon="0.67453">
        <ele>160.7</ele>
        <time>2023-04-10T09:49:36Z</time>
      </trkpt>
      <trkpt lat="44.95162" lon="0.6746">
        <ele>161</ele>
        <time>2023-04-10T09:49:38Z</time>
      </trkpt>
      <trkpt lat="44.95159" lon="0.67467">
        <ele>161.2</ele>
        <time>2023-04-10T09:49:40Z</time>
      </trkpt>
      <trkpt lat="44.95156" lon="0.67473">
        <ele>161.4</ele>
        <time>2023-04-10T09:49:42Z</time>
      </trkpt>
      <trkpt lat="44.95154" lon="0.67479">
        <ele>161.6</ele>
        <time>2023-04-10T09:49:44Z</time>
      </trkpt>
      <trkpt lat="44.95151" lon="0.67485">
        <ele>161.8</ele>
        <time>2023-04-10T09:49:46Z</time>
      </trkpt>
      <trkpt lat="44.95149" lon="0.67492">
        <ele>162</ele>
        <time>2023-04-10T09:49:48Z</time>
      </trkpt>
      <trkpt lat="44.95148" lon="0.67496">
        <ele>162</ele>
        <time>2023-04-10T09:49:49Z</time>
      </trkpt>
      <trkpt lat="44.95146" lon="0.67499">
        <ele>162.1</ele>
        <time>2023-04-10T09:49:50Z</time>
      </trkpt>
      <trkpt lat="44.95143" lon="0.67506">
        <ele>162.3</ele>
        <time>2023-04-10T09:49:52Z</time>
      </trkpt>
      <trkpt lat="44.9514" lon="0.67513">
        <ele>162.4</ele>
        <time>2023-04-10T09:49:54Z</time>
      </trkpt>
      <trkpt lat="44.95138" lon="0.67517">
        <ele>162.5</ele>
        <time>2023-04-10T09:49:55Z</time>
      </trkpt>
      <trkpt lat="44.95137" lon="0.67521">
        <ele>162.6</ele>
        <time>2023-04-10T09:49:56Z</time>
      </trkpt>
      <trkpt lat="44.95134" lon="0.67529">
        <ele>162.7</ele>
        <time>2023-04-10T09:49:58Z</time>
      </trkpt>
      <trkpt lat="44.95131" lon="0.67537">
        <ele>162.8</ele>
        <time>2023-04-10T09:50:00Z</time>
      </trkpt>
      <trkpt lat="44.95128" lon="0.67545">
        <ele>162.9</ele>
        <time>2023-04-10T09:50:02Z</time>
      </trkpt>
      <trkpt lat="44.95124" lon="0.67553">
        <ele>162.9</ele>
        <time>2023-04-10T09:50:04Z</time>
      </trkpt>
      <trkpt lat="44.95119" lon="0.67561">
        <ele>162.9</ele>
        <time>2023-04-10T09:50:06Z</time>
      </trkpt>
      <trkpt lat="44.95116" lon="0.67565">
        <ele>162.9</ele>
        <time>2023-04-10T09:50:07Z</time>
      </trkpt>
      <trkpt lat="44.95113" lon="0.67568">
        <ele>162.8</ele>
        <time>2023-04-10T09:50:08Z</time>
      </trkpt>
      <trkpt lat="44.95105" lon="0.67572">
        <ele>162.7</ele>
        <time>2023-04-10T09:50:10Z</time>
      </trkpt>
      <trkpt lat="44.95102" lon="0.67574">
        <ele>162.6</ele>
        <time>2023-04-10T09:50:11Z</time>
      </trkpt>
      <trkpt lat="44.95098" lon="0.67577">
        <ele>162.5</ele>
        <time>2023-04-10T09:50:12Z</time>
      </trkpt>
      <trkpt lat="44.95089" lon="0.67582">
        <ele>162.2</ele>
        <time>2023-04-10T09:50:14Z</time>
      </trkpt>
      <trkpt lat="44.9508" lon="0.67586">
        <ele>161.9</ele>
        <time>2023-04-10T09:50:16Z</time>
      </trkpt>
      <trkpt lat="44.95075" lon="0.67588">
        <ele>161.8</ele>
        <time>2023-04-10T09:50:17Z</time>
      </trkpt>
      <trkpt lat="44.95071" lon="0.67591">
        <ele>161.6</ele>
        <time>2023-04-10T09:50:18Z</time>
      </trkpt>
      <trkpt lat="44.95062" lon="0.67597">
        <ele>161.4</ele>
        <time>2023-04-10T09:50:20Z</time>
      </trkpt>
      <trkpt lat="44.95053" lon="0.67602">
        <ele>161.1</ele>
        <time>2023-04-10T09:50:22Z</time>
      </trkpt>
      <trkpt lat="44.95044" lon="0.67606">
        <ele>161</ele>
        <time>2023-04-10T09:50:24Z</time>
      </trkpt>
      <trkpt lat="44.95036" lon="0.67611">
        <ele>160.9</ele>
        <time>2023-04-10T09:50:26Z</time>
      </trkpt>
      <trkpt lat="44.95028" lon="0.67616">
        <ele>160.8</ele>
        <time>2023-04-10T09:50:28Z</time>
      </trkpt>
      <trkpt lat="44.95024" lon="0.67619">
        <ele>160.7</ele>
        <time>2023-04-10T09:50:29Z</time>
      </trkpt>
      <trkpt lat="44.95021" lon="0.67622">
        <ele>160.7</ele>
        <time>2023-04-10T09:50:30Z</time>
      </trkpt>
      <trkpt lat="44.95013" lon="0.6763">
        <ele>160.6</ele>
        <time>2023-04-10T09:50:32Z</time>
      </trkpt>
      <trkpt lat="44.95009" lon="0.67634">
        <ele>160.7</ele>
        <time>2023-04-10T09:50:33Z</time>
      </trkpt>
      <trkpt lat="44.95006" lon="0.67639">
        <ele>160.7</ele>
        <time>2023-04-10T09:50:34Z</time>
      </trkpt>
      <trkpt lat="44.95" lon="0.67648">
        <ele>160.8</ele>
        <time>2023-04-10T09:50:36Z</time>
      </trkpt>
      <trkpt lat="44.94995" lon="0.67657">
        <ele>160.9</ele>
        <time>2023-04-10T09:50:38Z</time>
      </trkpt>
      <trkpt lat="44.94991" lon="0.67664">
        <ele>161</ele>
        <time>2023-04-10T09:50:40Z</time>
      </trkpt>
      <trkpt lat="44.94987" lon="0.67673">
        <ele>161.2</ele>
        <time>2023-04-10T09:50:42Z</time>
      </trkpt>
      <trkpt lat="44.94983" lon="0.67682">
        <ele>161.5</ele>
        <time>2023-04-10T09:50:44Z</time>
      </trkpt>
      <trkpt lat="44.94978" lon="0.6769">
        <ele>161.7</ele>
        <time>2023-04-10T09:50:46Z</time>
      </trkpt>
      <trkpt lat="44.94975" lon="0.67699">
        <ele>162</ele>
        <time>2023-04-10T09:50:48Z</time>
      </trkpt>
      <trkpt lat="44.94972" lon="0.67703">
        <ele>162.1</ele>
        <time>2023-04-10T09:50:49Z</time>
      </trkpt>
      <trkpt lat="44.9497" lon="0.67707">
        <ele>162.2</ele>
        <time>2023-04-10T09:50:50Z</time>
      </trkpt>
      <trkpt lat="44.94966" lon="0.67717">
        <ele>162.5</ele>
        <time>2023-04-10T09:50:52Z</time>
      </trkpt>
      <trkpt lat="44.94962" lon="0.67726">
        <ele>162.8</ele>
        <time>2023-04-10T09:50:54Z</time>
      </trkpt>
      <trkpt lat="44.94959" lon="0.67734">
        <ele>163.1</ele>
        <time>2023-04-10T09:50:56Z</time>
      </trkpt>
      <trkpt lat="44.94955" lon="0.67742">
        <ele>163.5</ele>
        <time>2023-04-10T09:50:58Z</time>
      </trkpt>
      <trkpt lat="44.94953" lon="0.67746">
        <ele>163.6</ele>
        <time>2023-04-10T09:50:59Z</time>
      </trkpt>
      <trkpt lat="44.94952" lon="0.6775">
        <ele>163.8</ele>
        <time>2023-04-10T09:51:00Z</time>
      </trkpt>
      <trkpt lat="44.94948" lon="0.67758">
        <ele>164.1</ele>
        <time>2023-04-10T09:51:02Z</time>
      </trkpt>
      <trkpt lat="44.94944" lon="0.67766">
        <ele>164.4</ele>
        <time>2023-04-10T09:51:04Z</time>
      </trkpt>
      <trkpt lat="44.94942" lon="0.67769">
        <ele>164.5</ele>
        <time>2023-04-10T09:51:05Z</time>
      </trkpt>
      <trkpt lat="44.9494" lon="0.67773">
        <ele>164.6</ele>
        <time>2023-04-10T09:51:06Z</time>
      </trkpt>
      <trkpt lat="44.94937" lon="0.67781">
        <ele>164.8</ele>
        <time>2023-04-10T09:51:08Z</time>
      </trkpt>
      <trkpt lat="44.94934" lon="0.67787">
        <ele>164.9</ele>
        <time>2023-04-10T09:51:10Z</time>
      </trkpt>
      <trkpt lat="44.94932" lon="0.67788">
        <ele>164.9</ele>
        <time>2023-04-10T09:51:11Z</time>
      </trkpt>
      <trkpt lat="44.94931" lon="0.67789">
        <ele>165</ele>
        <time>2023-04-10T09:51:12Z</time>
      </trkpt>
      <trkpt lat="44.94928" lon="0.67789">
        <ele>165</ele>
        <time>2023-04-10T09:51:14Z</time>
      </trkpt>
      <trkpt lat="44.94928" lon="0.6779">
        <ele>164.9</ele>
        <time>2023-04-10T09:51:15Z</time>
      </trkpt>
      <trkpt lat="44.9493" lon="0.67786">
        <ele>164.7</ele>
        <time>2023-04-10T09:55:17Z</time>
      </trkpt>
      <trkpt lat="44.9493" lon="0.67783">
        <ele>164.5</ele>
        <time>2023-04-10T09:55:18Z</time>
      </trkpt>
      <trkpt lat="44.94933" lon="0.67772">
        <ele>163.8</ele>
        <time>2023-04-10T09:55:20Z</time>
      </trkpt>
      <trkpt lat="44.94935" lon="0.67766">
        <ele>163.4</ele>
        <time>2023-04-10T09:55:21Z</time>
      </trkpt>
      <trkpt lat="44.94937" lon="0.67759">
        <ele>162.9</ele>
        <time>2023-04-10T09:55:22Z</time>
      </trkpt>
      <trkpt lat="44.94943" lon="0.67747">
        <ele>161.9</ele>
        <time>2023-04-10T09:55:24Z</time>
      </trkpt>
      <trkpt lat="44.94946" lon="0.67739">
        <ele>161.2</ele>
        <time>2023-04-10T09:55:25Z</time>
      </trkpt>
      <trkpt lat="44.9495" lon="0.67731">
        <ele>160.5</ele>
        <time>2023-04-10T09:55:26Z</time>
      </trkpt>
      <trkpt lat="44.94953" lon="0.67722">
        <ele>159.7</ele>
        <time>2023-04-10T09:55:27Z</time>
      </trkpt>
      <trkpt lat="44.94955" lon="0.67712">
        <ele>158.9</ele>
        <time>2023-04-10T09:55:28Z</time>
      </trkpt>
      <trkpt lat="44.9496" lon="0.67688">
        <ele>157.2</ele>
        <time>2023-04-10T09:55:30Z</time>
      </trkpt>
      <trkpt lat="44.94964" lon="0.67662">
        <ele>155.5</ele>
        <time>2023-04-10T09:55:32Z</time>
      </trkpt>
      <trkpt lat="44.94966" lon="0.67637">
        <ele>153.6</ele>
        <time>2023-04-10T09:55:34Z</time>
      </trkpt>
      <trkpt lat="44.94965" lon="0.67612">
        <ele>151.4</ele>
        <time>2023-04-10T09:55:36Z</time>
      </trkpt>
      <trkpt lat="44.9496" lon="0.67589">
        <ele>149.1</ele>
        <time>2023-04-10T09:55:38Z</time>
      </trkpt>
      <trkpt lat="44.94951" lon="0.67565">
        <ele>147.1</ele>
        <time>2023-04-10T09:55:40Z</time>
      </trkpt>
      <trkpt lat="44.94941" lon="0.67548">
        <ele>145.3</ele>
        <time>2023-04-10T09:55:42Z</time>
      </trkpt>
      <trkpt lat="44.94934" lon="0.67544">
        <ele>144.4</ele>
        <time>2023-04-10T09:55:43Z</time>
      </trkpt>
      <trkpt lat="44.94927" lon="0.67542">
        <ele>143.5</ele>
        <time>2023-04-10T09:55:44Z</time>
      </trkpt>
      <trkpt lat="44.94914" lon="0.67543">
        <ele>142.3</ele>
        <time>2023-04-10T09:55:46Z</time>
      </trkpt>
      <trkpt lat="44.94904" lon="0.67547">
        <ele>141.6</ele>
        <time>2023-04-10T09:55:48Z</time>
      </trkpt>
      <trkpt lat="44.94895" lon="0.67553">
        <ele>141.4</ele>
        <time>2023-04-10T09:55:50Z</time>
      </trkpt>
      <trkpt lat="44.9489" lon="0.67556">
        <ele>141.4</ele>
        <time>2023-04-10T09:55:51Z</time>
      </trkpt>
      <trkpt lat="44.94887" lon="0.67559">
        <ele>141.4</ele>
        <time>2023-04-10T09:55:52Z</time>
      </trkpt>
      <trkpt lat="44.9488" lon="0.67564">
        <ele>141.6</ele>
        <time>2023-04-10T09:55:54Z</time>
      </trkpt>
      <trkpt lat="44.94877" lon="0.67566">
        <ele>141.7</ele>
        <time>2023-04-10T09:55:55Z</time>
      </trkpt>
      <trkpt lat="44.94874" lon="0.67569">
        <ele>141.8</ele>
        <time>2023-04-10T09:55:56Z</time>
      </trkpt>
      <trkpt lat="44.94869" lon="0.67573">
        <ele>142</ele>
        <time>2023-04-10T09:55:58Z</time>
      </trkpt>
      <trkpt lat="44.94867" lon="0.67576">
        <ele>142.2</ele>
        <time>2023-04-10T09:55:59Z</time>
      </trkpt>
      <trkpt lat="44.94864" lon="0.67579">
        <ele>142.3</ele>
        <time>2023-04-10T09:56:00Z</time>
      </trkpt>
      <trkpt lat="44.9486" lon="0.67584">
        <ele>142.7</ele>
        <time>2023-04-10T09:56:02Z</time>
      </trkpt>
      <trkpt lat="44.94858" lon="0.67585">
        <ele>142.8</ele>
        <time>2023-04-10T09:56:03Z</time>
      </trkpt>
      <trkpt lat="44.94857" lon="0.67587">
        <ele>142.9</ele>
        <time>2023-04-10T09:56:04Z</time>
      </trkpt>
      <trkpt lat="44.94853" lon="0.67592">
        <ele>143.1</ele>
        <time>2023-04-10T09:56:06Z</time>
      </trkpt>
      <trkpt lat="44.94852" lon="0.67595">
        <ele>143.2</ele>
        <time>2023-04-10T09:56:07Z</time>
      </trkpt>
      <trkpt lat="44.94851" lon="0.67597">
        <ele>143.4</ele>
        <time>2023-04-10T09:56:08Z</time>
      </trkpt>
      <trkpt lat="44.94849" lon="0.676">
        <ele>143.5</ele>
        <time>2023-04-10T09:56:09Z</time>
      </trkpt>
      <trkpt lat="44.94847" lon="0.67604">
        <ele>143.7</ele>
        <time>2023-04-10T09:56:10Z</time>
      </trkpt>
      <trkpt lat="44.94843" lon="0.67611">
        <ele>144</ele>
        <time>2023-04-10T09:56:12Z</time>
      </trkpt>
      <trkpt lat="44.94841" lon="0.67615">
        <ele>144.2</ele>
        <time>2023-04-10T09:56:13Z</time>
      </trkpt>
      <trkpt lat="44.9484" lon="0.67617">
        <ele>144.4</ele>
        <time>2023-04-10T09:56:14Z</time>
      </trkpt>
      <trkpt lat="44.94838" lon="0.6762">
        <ele>144.6</ele>
        <time>2023-04-10T09:56:15Z</time>
      </trkpt>
      <trkpt lat="44.94836" lon="0.67623">
        <ele>144.8</ele>
        <time>2023-04-10T09:56:16Z</time>
      </trkpt>
      <trkpt lat="44.94833" lon="0.67628">
        <ele>145.1</ele>
        <time>2023-04-10T09:56:18Z</time>
      </trkpt>
      <trkpt lat="44.94829" lon="0.67633">
        <ele>145.5</ele>
        <time>2023-04-10T09:56:20Z</time>
      </trkpt>
      <trkpt lat="44.94828" lon="0.67635">
        <ele>145.6</ele>
        <time>2023-04-10T09:56:21Z</time>
      </trkpt>
      <trkpt lat="44.94826" lon="0.67638">
        <ele>145.8</ele>
        <time>2023-04-10T09:56:22Z</time>
      </trkpt>
      <trkpt lat="44.94824" lon="0.6764">
        <ele>145.9</ele>
        <time>2023-04-10T09:56:24Z</time>
      </trkpt>
      <trkpt lat="44.94823" lon="0.67641">
        <ele>146</ele>
        <time>2023-04-10T09:56:26Z</time>
      </trkpt>
      <trkpt lat="44.9482" lon="0.67644">
        <ele>146.2</ele>
        <time>2023-04-10T09:56:28Z</time>
      </trkpt>
      <trkpt lat="44.94818" lon="0.67648">
        <ele>146.4</ele>
        <time>2023-04-10T09:56:30Z</time>
      </trkpt>
      <trkpt lat="44.94814" lon="0.67652">
        <ele>146.6</ele>
        <time>2023-04-10T09:56:32Z</time>
      </trkpt>
      <trkpt lat="44.94812" lon="0.67655">
        <ele>146.8</ele>
        <time>2023-04-10T09:56:34Z</time>
      </trkpt>
      <trkpt lat="44.9481" lon="0.67656">
        <ele>146.9</ele>
        <time>2023-04-10T09:56:35Z</time>
      </trkpt>
      <trkpt lat="44.94809" lon="0.67658">
        <ele>147</ele>
        <time>2023-04-10T09:56:36Z</time>
      </trkpt>
      <trkpt lat="44.94807" lon="0.6766">
        <ele>147.1</ele>
        <time>2023-04-10T09:56:37Z</time>
      </trkpt>
      <trkpt lat="44.94806" lon="0.67663">
        <ele>147.2</ele>
        <time>2023-04-10T09:56:38Z</time>
      </trkpt>
      <trkpt lat="44.94803" lon="0.67666">
        <ele>147.5</ele>
        <time>2023-04-10T09:56:40Z</time>
      </trkpt>
      <trkpt lat="44.94801" lon="0.67667">
        <ele>147.6</ele>
        <time>2023-04-10T09:56:41Z</time>
      </trkpt>
      <trkpt lat="44.948" lon="0.67669">
        <ele>147.7</ele>
        <time>2023-04-10T09:56:42Z</time>
      </trkpt>
      <trkpt lat="44.948" lon="0.67669">
        <ele>147.7</ele>
        <time>2023-04-10T09:56:43Z</time>
      </trkpt>
      <trkpt lat="44.94799" lon="0.67671">
        <ele>147.8</ele>
        <time>2023-04-10T09:56:44Z</time>
      </trkpt>
      <trkpt lat="44.94799" lon="0.67671">
        <ele>147.8</ele>
        <time>2023-04-10T09:56:45Z</time>
      </trkpt>
      <trkpt lat="44.94777" lon="0.67695">
        <ele>149.6</ele>
        <time>2023-04-10T09:57:01Z</time>
      </trkpt>
      <trkpt lat="44.94775" lon="0.67697">
        <ele>149.8</ele>
        <time>2023-04-10T09:57:02Z</time>
      </trkpt>
      <trkpt lat="44.94772" lon="0.67699">
        <ele>150</ele>
        <time>2023-04-10T09:57:04Z</time>
      </trkpt>
      <trkpt lat="44.9477" lon="0.67699">
        <ele>150.1</ele>
        <time>2023-04-10T09:57:05Z</time>
      </trkpt>
      <trkpt lat="44.94769" lon="0.677">
        <ele>150.3</ele>
        <time>2023-04-10T09:57:06Z</time>
      </trkpt>
      <trkpt lat="44.94765" lon="0.67703">
        <ele>150.6</ele>
        <time>2023-04-10T09:57:08Z</time>
      </trkpt>
      <trkpt lat="44.94763" lon="0.67703">
        <ele>150.7</ele>
        <time>2023-04-10T09:57:09Z</time>
      </trkpt>
      <trkpt lat="44.94762" lon="0.67705">
        <ele>150.9</ele>
        <time>2023-04-10T09:57:10Z</time>
      </trkpt>
      <trkpt lat="44.9476" lon="0.67706">
        <ele>151.1</ele>
        <time>2023-04-10T09:57:11Z</time>
      </trkpt>
      <trkpt lat="44.94758" lon="0.67709">
        <ele>151.3</ele>
        <time>2023-04-10T09:57:12Z</time>
      </trkpt>
      <trkpt lat="44.94756" lon="0.67713">
        <ele>151.6</ele>
        <time>2023-04-10T09:57:14Z</time>
      </trkpt>
      <trkpt lat="44.94754" lon="0.67715">
        <ele>151.7</ele>
        <time>2023-04-10T09:57:15Z</time>
      </trkpt>
      <trkpt lat="44.94753" lon="0.67716">
        <ele>151.9</ele>
        <time>2023-04-10T09:57:16Z</time>
      </trkpt>
      <trkpt lat="44.94749" lon="0.67718">
        <ele>152.2</ele>
        <time>2023-04-10T09:57:18Z</time>
      </trkpt>
      <trkpt lat="44.94747" lon="0.67719">
        <ele>152.4</ele>
        <time>2023-04-10T09:57:19Z</time>
      </trkpt>
      <trkpt lat="44.94745" lon="0.67721">
        <ele>152.6</ele>
        <time>2023-04-10T09:57:20Z</time>
      </trkpt>
      <trkpt lat="44.94741" lon="0.67725">
        <ele>153.1</ele>
        <time>2023-04-10T09:57:22Z</time>
      </trkpt>
      <trkpt lat="44.94738" lon="0.67729">
        <ele>153.5</ele>
        <time>2023-04-10T09:57:24Z</time>
      </trkpt>
      <trkpt lat="44.94737" lon="0.67731">
        <ele>153.7</ele>
        <time>2023-04-10T09:57:25Z</time>
      </trkpt>
      <trkpt lat="44.94735" lon="0.67733">
        <ele>153.9</ele>
        <time>2023-04-10T09:57:26Z</time>
      </trkpt>
      <trkpt lat="44.94731" lon="0.67737">
        <ele>154.3</ele>
        <time>2023-04-10T09:57:28Z</time>
      </trkpt>
      <trkpt lat="44.94729" lon="0.67738">
        <ele>154.5</ele>
        <time>2023-04-10T09:57:30Z</time>
      </trkpt>
      <trkpt lat="44.94728" lon="0.67739">
        <ele>154.6</ele>
        <time>2023-04-10T09:57:31Z</time>
      </trkpt>
      <trkpt lat="44.94726" lon="0.6774">
        <ele>154.8</ele>
        <time>2023-04-10T09:57:32Z</time>
      </trkpt>
      <trkpt lat="44.94723" lon="0.67743">
        <ele>155.1</ele>
        <time>2023-04-10T09:57:34Z</time>
      </trkpt>
      <trkpt lat="44.94707" lon="0.67754">
        <ele>156.7</ele>
        <time>2023-04-10T09:57:43Z</time>
      </trkpt>
      <trkpt lat="44.94705" lon="0.67756">
        <ele>156.9</ele>
        <time>2023-04-10T09:57:44Z</time>
      </trkpt>
      <trkpt lat="44.94701" lon="0.67759">
        <ele>157.2</ele>
        <time>2023-04-10T09:57:46Z</time>
      </trkpt>
      <trkpt lat="44.94699" lon="0.6776">
        <ele>157.4</ele>
        <time>2023-04-10T09:57:48Z</time>
      </trkpt>
      <trkpt lat="44.94698" lon="0.6776">
        <ele>157.5</ele>
        <time>2023-04-10T09:57:49Z</time>
      </trkpt>
      <trkpt lat="44.94696" lon="0.6776">
        <ele>157.7</ele>
        <time>2023-04-10T09:57:50Z</time>
      </trkpt>
      <trkpt lat="44.94692" lon="0.67764">
        <ele>158</ele>
        <time>2023-04-10T09:57:52Z</time>
      </trkpt>
      <trkpt lat="44.9469" lon="0.67766">
        <ele>158.2</ele>
        <time>2023-04-10T09:57:53Z</time>
      </trkpt>
      <trkpt lat="44.94686" lon="0.67771">
        <ele>158.5</ele>
        <time>2023-04-10T09:57:54Z</time>
      </trkpt>
      <trkpt lat="44.94681" lon="0.67774">
        <ele>158.8</ele>
        <time>2023-04-10T09:57:56Z</time>
      </trkpt>
      <trkpt lat="44.94677" lon="0.67775">
        <ele>159</ele>
        <time>2023-04-10T09:57:58Z</time>
      </trkpt>
      <trkpt lat="44.94673" lon="0.67776">
        <ele>159.2</ele>
        <time>2023-04-10T09:58:00Z</time>
      </trkpt>
      <trkpt lat="44.94671" lon="0.67777">
        <ele>159.4</ele>
        <time>2023-04-10T09:58:01Z</time>
      </trkpt>
      <trkpt lat="44.94668" lon="0.67777">
        <ele>159.6</ele>
        <time>2023-04-10T09:58:02Z</time>
      </trkpt>
      <trkpt lat="44.94667" lon="0.67778">
        <ele>159.7</ele>
        <time>2023-04-10T09:58:03Z</time>
      </trkpt>
      <trkpt lat="44.94665" lon="0.67779">
        <ele>159.8</ele>
        <time>2023-04-10T09:58:04Z</time>
      </trkpt>
      <trkpt lat="44.94661" lon="0.6778">
        <ele>160.1</ele>
        <time>2023-04-10T09:58:06Z</time>
      </trkpt>
      <trkpt lat="44.94659" lon="0.67781">
        <ele>160.2</ele>
        <time>2023-04-10T09:58:07Z</time>
      </trkpt>
      <trkpt lat="44.94656" lon="0.67782">
        <ele>160.4</ele>
        <time>2023-04-10T09:58:08Z</time>
      </trkpt>
      <trkpt lat="44.94654" lon="0.67782">
        <ele>160.5</ele>
        <time>2023-04-10T09:58:09Z</time>
      </trkpt>
      <trkpt lat="44.94652" lon="0.67784">
        <ele>160.6</ele>
        <time>2023-04-10T09:58:10Z</time>
      </trkpt>
      <trkpt lat="44.94651" lon="0.67784">
        <ele>160.7</ele>
        <time>2023-04-10T09:58:11Z</time>
      </trkpt>
      <trkpt lat="44.94649" lon="0.67783">
        <ele>160.8</ele>
        <time>2023-04-10T09:58:12Z</time>
      </trkpt>
      <trkpt lat="44.94648" lon="0.67782">
        <ele>160.9</ele>
        <time>2023-04-10T09:58:13Z</time>
      </trkpt>
      <trkpt lat="44.94647" lon="0.67782">
        <ele>160.9</ele>
        <time>2023-04-10T09:58:14Z</time>
      </trkpt>
      <trkpt lat="44.94645" lon="0.67781">
        <ele>161</ele>
        <time>2023-04-10T09:58:15Z</time>
      </trkpt>
      <trkpt lat="44.94644" lon="0.67781">
        <ele>161.1</ele>
        <time>2023-04-10T09:58:16Z</time>
      </trkpt>
      <trkpt lat="44.9464" lon="0.67782">
        <ele>161.3</ele>
        <time>2023-04-10T09:58:18Z</time>
      </trkpt>
      <trkpt lat="44.94637" lon="0.67783">
        <ele>161.4</ele>
        <time>2023-04-10T09:58:19Z</time>
      </trkpt>
      <trkpt lat="44.94635" lon="0.67783">
        <ele>161.6</ele>
        <time>2023-04-10T09:58:20Z</time>
      </trkpt>
      <trkpt lat="44.94631" lon="0.67783">
        <ele>161.8</ele>
        <time>2023-04-10T09:58:22Z</time>
      </trkpt>
      <trkpt lat="44.94626" lon="0.67783">
        <ele>162</ele>
        <time>2023-04-10T09:58:24Z</time>
      </trkpt>
      <trkpt lat="44.94621" lon="0.67784">
        <ele>162.2</ele>
        <time>2023-04-10T09:58:26Z</time>
      </trkpt>
      <trkpt lat="44.94619" lon="0.67784">
        <ele>162.3</ele>
        <time>2023-04-10T09:58:27Z</time>
      </trkpt>
      <trkpt lat="44.94616" lon="0.67785">
        <ele>162.5</ele>
        <time>2023-04-10T09:58:28Z</time>
      </trkpt>
      <trkpt lat="44.94611" lon="0.67787">
        <ele>162.7</ele>
        <time>2023-04-10T09:58:30Z</time>
      </trkpt>
      <trkpt lat="44.94608" lon="0.67788">
        <ele>162.8</ele>
        <time>2023-04-10T09:58:31Z</time>
      </trkpt>
      <trkpt lat="44.94606" lon="0.67788">
        <ele>162.9</ele>
        <time>2023-04-10T09:58:32Z</time>
      </trkpt>
      <trkpt lat="44.94601" lon="0.67788">
        <ele>163.2</ele>
        <time>2023-04-10T09:58:34Z</time>
      </trkpt>
      <trkpt lat="44.94595" lon="0.67788">
        <ele>163.5</ele>
        <time>2023-04-10T09:58:36Z</time>
      </trkpt>
      <trkpt lat="44.94593" lon="0.67787">
        <ele>163.5</ele>
        <time>2023-04-10T09:58:37Z</time>
      </trkpt>
      <trkpt lat="44.94591" lon="0.67787">
        <ele>163.7</ele>
        <time>2023-04-10T09:58:38Z</time>
      </trkpt>
      <trkpt lat="44.94586" lon="0.67788">
        <ele>163.9</ele>
        <time>2023-04-10T09:58:40Z</time>
      </trkpt>
      <trkpt lat="44.94581" lon="0.67788">
        <ele>164.1</ele>
        <time>2023-04-10T09:58:42Z</time>
      </trkpt>
      <trkpt lat="44.94576" lon="0.67789">
        <ele>164.3</ele>
        <time>2023-04-10T09:58:44Z</time>
      </trkpt>
      <trkpt lat="44.94574" lon="0.6779">
        <ele>164.4</ele>
        <time>2023-04-10T09:58:45Z</time>
      </trkpt>
      <trkpt lat="44.94572" lon="0.6779">
        <ele>164.5</ele>
        <time>2023-04-10T09:58:46Z</time>
      </trkpt>
      <trkpt lat="44.94568" lon="0.67791">
        <ele>164.7</ele>
        <time>2023-04-10T09:58:48Z</time>
      </trkpt>
      <trkpt lat="44.94563" lon="0.67791">
        <ele>164.9</ele>
        <time>2023-04-10T09:58:50Z</time>
      </trkpt>
      <trkpt lat="44.94559" lon="0.6779">
        <ele>165.1</ele>
        <time>2023-04-10T09:58:52Z</time>
      </trkpt>
      <trkpt lat="44.94557" lon="0.67788">
        <ele>165.2</ele>
        <time>2023-04-10T09:58:53Z</time>
      </trkpt>
      <trkpt lat="44.94555" lon="0.67786">
        <ele>165.2</ele>
        <time>2023-04-10T09:58:54Z</time>
      </trkpt>
      <trkpt lat="44.94553" lon="0.6778">
        <ele>165.3</ele>
        <time>2023-04-10T09:58:56Z</time>
      </trkpt>
      <trkpt lat="44.94554" lon="0.67773">
        <ele>165.5</ele>
        <time>2023-04-10T09:58:58Z</time>
      </trkpt>
      <trkpt lat="44.94555" lon="0.67765">
        <ele>165.6</ele>
        <time>2023-04-10T09:59:00Z</time>
      </trkpt>
      <trkpt lat="44.94555" lon="0.67757">
        <ele>165.7</ele>
        <time>2023-04-10T09:59:02Z</time>
      </trkpt>
      <trkpt lat="44.94555" lon="0.67749">
        <ele>165.8</ele>
        <time>2023-04-10T09:59:04Z</time>
      </trkpt>
      <trkpt lat="44.94555" lon="0.67741">
        <ele>166</ele>
        <time>2023-04-10T09:59:06Z</time>
      </trkpt>
      <trkpt lat="44.94555" lon="0.67733">
        <ele>166.1</ele>
        <time>2023-04-10T09:59:08Z</time>
      </trkpt>
      <trkpt lat="44.94555" lon="0.67726">
        <ele>166.3</ele>
        <time>2023-04-10T09:59:10Z</time>
      </trkpt>
      <trkpt lat="44.94554" lon="0.67718">
        <ele>166.4</ele>
        <time>2023-04-10T09:59:12Z</time>
      </trkpt>
      <trkpt lat="44.94552" lon="0.6771">
        <ele>166.6</ele>
        <time>2023-04-10T09:59:14Z</time>
      </trkpt>
      <trkpt lat="44.94549" lon="0.67703">
        <ele>166.7</ele>
        <time>2023-04-10T09:59:16Z</time>
      </trkpt>
      <trkpt lat="44.94548" lon="0.677">
        <ele>166.8</ele>
        <time>2023-04-10T09:59:17Z</time>
      </trkpt>
      <trkpt lat="44.94546" lon="0.67697">
        <ele>166.8</ele>
        <time>2023-04-10T09:59:18Z</time>
      </trkpt>
      <trkpt lat="44.94542" lon="0.67691">
        <ele>166.9</ele>
        <time>2023-04-10T09:59:20Z</time>
      </trkpt>
      <trkpt lat="44.94537" lon="0.67688">
        <ele>167</ele>
        <time>2023-04-10T09:59:22Z</time>
      </trkpt>
      <trkpt lat="44.94535" lon="0.67687">
        <ele>167</ele>
        <time>2023-04-10T09:59:23Z</time>
      </trkpt>
      <trkpt lat="44.94532" lon="0.67685">
        <ele>167</ele>
        <time>2023-04-10T09:59:24Z</time>
      </trkpt>
      <trkpt lat="44.94527" lon="0.67683">
        <ele>167.1</ele>
        <time>2023-04-10T09:59:26Z</time>
      </trkpt>
      <trkpt lat="44.94521" lon="0.67681">
        <ele>167.1</ele>
        <time>2023-04-10T09:59:28Z</time>
      </trkpt>
      <trkpt lat="44.94516" lon="0.67681">
        <ele>167.2</ele>
        <time>2023-04-10T09:59:30Z</time>
      </trkpt>
      <trkpt lat="44.94511" lon="0.67681">
        <ele>167.3</ele>
        <time>2023-04-10T09:59:32Z</time>
      </trkpt>
      <trkpt lat="44.94506" lon="0.67681">
        <ele>167.3</ele>
        <time>2023-04-10T09:59:34Z</time>
      </trkpt>
      <trkpt lat="44.94502" lon="0.67681">
        <ele>167.4</ele>
        <time>2023-04-10T09:59:36Z</time>
      </trkpt>
      <trkpt lat="44.945" lon="0.67681">
        <ele>167.5</ele>
        <time>2023-04-10T09:59:37Z</time>
      </trkpt>
      <trkpt lat="44.94497" lon="0.6768">
        <ele>167.6</ele>
        <time>2023-04-10T09:59:38Z</time>
      </trkpt>
      <trkpt lat="44.94492" lon="0.67679">
        <ele>167.7</ele>
        <time>2023-04-10T09:59:40Z</time>
      </trkpt>
      <trkpt lat="44.9449" lon="0.67679">
        <ele>167.8</ele>
        <time>2023-04-10T09:59:41Z</time>
      </trkpt>
      <trkpt lat="44.94488" lon="0.67679">
        <ele>167.8</ele>
        <time>2023-04-10T09:59:42Z</time>
      </trkpt>
      <trkpt lat="44.94484" lon="0.67679">
        <ele>168</ele>
        <time>2023-04-10T09:59:44Z</time>
      </trkpt>
      <trkpt lat="44.94479" lon="0.67679">
        <ele>168.2</ele>
        <time>2023-04-10T09:59:46Z</time>
      </trkpt>
      <trkpt lat="44.94473" lon="0.67678">
        <ele>168.4</ele>
        <time>2023-04-10T09:59:48Z</time>
      </trkpt>
      <trkpt lat="44.94468" lon="0.67677">
        <ele>168.6</ele>
        <time>2023-04-10T09:59:50Z</time>
      </trkpt>
      <trkpt lat="44.94464" lon="0.67676">
        <ele>168.9</ele>
        <time>2023-04-10T09:59:52Z</time>
      </trkpt>
      <trkpt lat="44.94459" lon="0.67674">
        <ele>169.2</ele>
        <time>2023-04-10T09:59:54Z</time>
      </trkpt>
      <trkpt lat="44.94455" lon="0.67672">
        <ele>169.5</ele>
        <time>2023-04-10T09:59:56Z</time>
      </trkpt>
      <trkpt lat="44.94451" lon="0.67672">
        <ele>169.7</ele>
        <time>2023-04-10T09:59:58Z</time>
      </trkpt>
      <trkpt lat="44.94448" lon="0.67671">
        <ele>169.9</ele>
        <time>2023-04-10T10:00:00Z</time>
      </trkpt>
      <trkpt lat="44.94446" lon="0.6767">
        <ele>170</ele>
        <time>2023-04-10T10:00:01Z</time>
      </trkpt>
      <trkpt lat="44.94445" lon="0.6767">
        <ele>170.1</ele>
        <time>2023-04-10T10:00:02Z</time>
      </trkpt>
      <trkpt lat="44.94441" lon="0.67669">
        <ele>170.3</ele>
        <time>2023-04-10T10:00:04Z</time>
      </trkpt>
      <trkpt lat="44.94438" lon="0.67668">
        <ele>170.6</ele>
        <time>2023-04-10T10:00:06Z</time>
      </trkpt>
      <trkpt lat="44.94434" lon="0.67668">
        <ele>170.8</ele>
        <time>2023-04-10T10:00:08Z</time>
      </trkpt>
      <trkpt lat="44.94431" lon="0.67668">
        <ele>171.1</ele>
        <time>2023-04-10T10:00:10Z</time>
      </trkpt>
      <trkpt lat="44.94428" lon="0.67668">
        <ele>171.3</ele>
        <time>2023-04-10T10:00:12Z</time>
      </trkpt>
      <trkpt lat="44.94427" lon="0.67667">
        <ele>171.5</ele>
        <time>2023-04-10T10:00:13Z</time>
      </trkpt>
      <trkpt lat="44.94426" lon="0.67667">
        <ele>171.5</ele>
        <time>2023-04-10T10:00:14Z</time>
      </trkpt>
      <trkpt lat="44.94423" lon="0.67667">
        <ele>171.8</ele>
        <time>2023-04-10T10:00:16Z</time>
      </trkpt>
      <trkpt lat="44.94421" lon="0.67667">
        <ele>172</ele>
        <time>2023-04-10T10:00:18Z</time>
      </trkpt>
      <trkpt lat="44.9442" lon="0.67668">
        <ele>172.1</ele>
        <time>2023-04-10T10:00:19Z</time>
      </trkpt>
      <trkpt lat="44.94419" lon="0.67668">
        <ele>172.2</ele>
        <time>2023-04-10T10:00:20Z</time>
      </trkpt>
      <trkpt lat="44.94416" lon="0.67668">
        <ele>172.6</ele>
        <time>2023-04-10T10:00:22Z</time>
      </trkpt>
      <trkpt lat="44.94412" lon="0.67669">
        <ele>172.9</ele>
        <time>2023-04-10T10:00:24Z</time>
      </trkpt>
      <trkpt lat="44.94409" lon="0.6767">
        <ele>173.2</ele>
        <time>2023-04-10T10:00:26Z</time>
      </trkpt>
      <trkpt lat="44.94408" lon="0.67671">
        <ele>173.4</ele>
        <time>2023-04-10T10:00:27Z</time>
      </trkpt>
      <trkpt lat="44.94406" lon="0.67672">
        <ele>173.6</ele>
        <time>2023-04-10T10:00:28Z</time>
      </trkpt>
      <trkpt lat="44.94404" lon="0.67676">
        <ele>173.9</ele>
        <time>2023-04-10T10:00:30Z</time>
      </trkpt>
      <trkpt lat="44.94403" lon="0.6768">
        <ele>174.5</ele>
        <time>2023-04-10T10:00:32Z</time>
      </trkpt>
      <trkpt lat="44.94402" lon="0.67685">
        <ele>174.7</ele>
        <time>2023-04-10T10:00:34Z</time>
      </trkpt>
      <trkpt lat="44.94401" lon="0.67691">
        <ele>174.9</ele>
        <time>2023-04-10T10:00:36Z</time>
      </trkpt>
      <trkpt lat="44.94399" lon="0.67695">
        <ele>175.2</ele>
        <time>2023-04-10T10:00:38Z</time>
      </trkpt>
      <trkpt lat="44.94397" lon="0.67698">
        <ele>175.3</ele>
        <time>2023-04-10T10:00:39Z</time>
      </trkpt>
      <trkpt lat="44.94396" lon="0.677">
        <ele>175.4</ele>
        <time>2023-04-10T10:00:40Z</time>
      </trkpt>
      <trkpt lat="44.94393" lon="0.67703">
        <ele>175.9</ele>
        <time>2023-04-10T10:00:42Z</time>
      </trkpt>
      <trkpt lat="44.9439" lon="0.67705">
        <ele>176.2</ele>
        <time>2023-04-10T10:00:44Z</time>
      </trkpt>
      <trkpt lat="44.94389" lon="0.67707">
        <ele>176.4</ele>
        <time>2023-04-10T10:00:45Z</time>
      </trkpt>
      <trkpt lat="44.94387" lon="0.67709">
        <ele>176.7</ele>
        <time>2023-04-10T10:00:46Z</time>
      </trkpt>
      <trkpt lat="44.94384" lon="0.67712">
        <ele>177</ele>
        <time>2023-04-10T10:00:48Z</time>
      </trkpt>
      <trkpt lat="44.94381" lon="0.67713">
        <ele>177.3</ele>
        <time>2023-04-10T10:00:50Z</time>
      </trkpt>
      <trkpt lat="44.94378" lon="0.67714">
        <ele>177.7</ele>
        <time>2023-04-10T10:00:52Z</time>
      </trkpt>
      <trkpt lat="44.94377" lon="0.67714">
        <ele>177.8</ele>
        <time>2023-04-10T10:00:53Z</time>
      </trkpt>
      <trkpt lat="44.94375" lon="0.67714">
        <ele>178</ele>
        <time>2023-04-10T10:00:54Z</time>
      </trkpt>
      <trkpt lat="44.94372" lon="0.67715">
        <ele>178.3</ele>
        <time>2023-04-10T10:00:56Z</time>
      </trkpt>
      <trkpt lat="44.94369" lon="0.67715">
        <ele>178.6</ele>
        <time>2023-04-10T10:00:58Z</time>
      </trkpt>
      <trkpt lat="44.94365" lon="0.67716">
        <ele>179</ele>
        <time>2023-04-10T10:01:00Z</time>
      </trkpt>
      <trkpt lat="44.94363" lon="0.67715">
        <ele>179.1</ele>
        <time>2023-04-10T10:01:01Z</time>
      </trkpt>
      <trkpt lat="44.94361" lon="0.67715">
        <ele>179.3</ele>
        <time>2023-04-10T10:01:02Z</time>
      </trkpt>
      <trkpt lat="44.94359" lon="0.67715">
        <ele>179.5</ele>
        <time>2023-04-10T10:01:03Z</time>
      </trkpt>
      <trkpt lat="44.94357" lon="0.67716">
        <ele>179.7</ele>
        <time>2023-04-10T10:01:04Z</time>
      </trkpt>
      <trkpt lat="44.94353" lon="0.67716">
        <ele>180</ele>
        <time>2023-04-10T10:01:05Z</time>
      </trkpt>
      <trkpt lat="44.94351" lon="0.67716">
        <ele>180.2</ele>
        <time>2023-04-10T10:01:06Z</time>
      </trkpt>
      <trkpt lat="44.94346" lon="0.67717">
        <ele>180.4</ele>
        <time>2023-04-10T10:01:08Z</time>
      </trkpt>
      <trkpt lat="44.94341" lon="0.6772">
        <ele>180.8</ele>
        <time>2023-04-10T10:01:10Z</time>
      </trkpt>
      <trkpt lat="44.94338" lon="0.6772">
        <ele>180.9</ele>
        <time>2023-04-10T10:01:11Z</time>
      </trkpt>
      <trkpt lat="44.94334" lon="0.67722">
        <ele>181.1</ele>
        <time>2023-04-10T10:01:12Z</time>
      </trkpt>
      <trkpt lat="44.94324" lon="0.67725">
        <ele>181.3</ele>
        <time>2023-04-10T10:01:14Z</time>
      </trkpt>
      <trkpt lat="44.9432" lon="0.67727">
        <ele>181.3</ele>
        <time>2023-04-10T10:01:15Z</time>
      </trkpt>
      <trkpt lat="44.94317" lon="0.6773">
        <ele>181.2</ele>
        <time>2023-04-10T10:01:16Z</time>
      </trkpt>
      <trkpt lat="44.94311" lon="0.67733">
        <ele>181.1</ele>
        <time>2023-04-10T10:01:18Z</time>
      </trkpt>
      <trkpt lat="44.94308" lon="0.67734">
        <ele>180.9</ele>
        <time>2023-04-10T10:01:19Z</time>
      </trkpt>
      <trkpt lat="44.94303" lon="0.67737">
        <ele>180.6</ele>
        <time>2023-04-10T10:01:20Z</time>
      </trkpt>
      <trkpt lat="44.94285" lon="0.67747">
        <ele>179.3</ele>
        <time>2023-04-10T10:01:22Z</time>
      </trkpt>
      <trkpt lat="44.9427" lon="0.67756">
        <ele>178</ele>
        <time>2023-04-10T10:01:23Z</time>
      </trkpt>
      <trkpt lat="44.94256" lon="0.67763">
        <ele>177.3</ele>
        <time>2023-04-10T10:01:24Z</time>
      </trkpt>
      <trkpt lat="44.94246" lon="0.67768">
        <ele>177</ele>
        <time>2023-04-10T10:01:25Z</time>
      </trkpt>
      <trkpt lat="44.94237" lon="0.67772">
        <ele>176.9</ele>
        <time>2023-04-10T10:01:26Z</time>
      </trkpt>
      <trkpt lat="44.94229" lon="0.67775">
        <ele>176.8</ele>
        <time>2023-04-10T10:01:27Z</time>
      </trkpt>
      <trkpt lat="44.94221" lon="0.67776">
        <ele>176.8</ele>
        <time>2023-04-10T10:01:28Z</time>
      </trkpt>
      <trkpt lat="44.94205" lon="0.67777">
        <ele>176.9</ele>
        <time>2023-04-10T10:01:30Z</time>
      </trkpt>
      <trkpt lat="44.94197" lon="0.67779">
        <ele>176.9</ele>
        <time>2023-04-10T10:01:31Z</time>
      </trkpt>
      <trkpt lat="44.9419" lon="0.67782">
        <ele>177.1</ele>
        <time>2023-04-10T10:01:32Z</time>
      </trkpt>
      <trkpt lat="44.94184" lon="0.67784">
        <ele>177.2</ele>
        <time>2023-04-10T10:01:33Z</time>
      </trkpt>
      <trkpt lat="44.94177" lon="0.67788">
        <ele>177.4</ele>
        <time>2023-04-10T10:01:34Z</time>
      </trkpt>
      <trkpt lat="44.94171" lon="0.6779">
        <ele>177.5</ele>
        <time>2023-04-10T10:01:35Z</time>
      </trkpt>
      <trkpt lat="44.94165" lon="0.67792">
        <ele>177.7</ele>
        <time>2023-04-10T10:01:36Z</time>
      </trkpt>
      <trkpt lat="44.9416" lon="0.67791">
        <ele>177.8</ele>
        <time>2023-04-10T10:01:37Z</time>
      </trkpt>
      <trkpt lat="44.94156" lon="0.67787">
        <ele>177.8</ele>
        <time>2023-04-10T10:01:38Z</time>
      </trkpt>
      <trkpt lat="44.94153" lon="0.67784">
        <ele>177.8</ele>
        <time>2023-04-10T10:01:39Z</time>
      </trkpt>
      <trkpt lat="44.94151" lon="0.67781">
        <ele>177.9</ele>
        <time>2023-04-10T10:01:40Z</time>
      </trkpt>
      <trkpt lat="44.94146" lon="0.67773">
        <ele>178</ele>
        <time>2023-04-10T10:01:42Z</time>
      </trkpt>
      <trkpt lat="44.94142" lon="0.67767">
        <ele>178.3</ele>
        <time>2023-04-10T10:01:44Z</time>
      </trkpt>
      <trkpt lat="44.94139" lon="0.67759">
        <ele>178.6</ele>
        <time>2023-04-10T10:01:46Z</time>
      </trkpt>
      <trkpt lat="44.94137" lon="0.67753">
        <ele>178.9</ele>
        <time>2023-04-10T10:01:48Z</time>
      </trkpt>
      <trkpt lat="44.94136" lon="0.6775">
        <ele>179</ele>
        <time>2023-04-10T10:01:49Z</time>
      </trkpt>
      <trkpt lat="44.94136" lon="0.67747">
        <ele>179.2</ele>
        <time>2023-04-10T10:01:50Z</time>
      </trkpt>
      <trkpt lat="44.94134" lon="0.6774">
        <ele>179.5</ele>
        <time>2023-04-10T10:01:52Z</time>
      </trkpt>
      <trkpt lat="44.94133" lon="0.67738">
        <ele>179.6</ele>
        <time>2023-04-10T10:01:53Z</time>
      </trkpt>
      <trkpt lat="44.94133" lon="0.67737">
        <ele>179.7</ele>
        <time>2023-04-10T10:01:54Z</time>
      </trkpt>
      <trkpt lat="44.94135" lon="0.67731">
        <ele>180</ele>
        <time>2023-04-10T10:01:56Z</time>
      </trkpt>
      <trkpt lat="44.94136" lon="0.67728">
        <ele>180.2</ele>
        <time>2023-04-10T10:01:57Z</time>
      </trkpt>
      <trkpt lat="44.94136" lon="0.67725">
        <ele>180.4</ele>
        <time>2023-04-10T10:01:58Z</time>
      </trkpt>
      <trkpt lat="44.94136" lon="0.67722">
        <ele>180.5</ele>
        <time>2023-04-10T10:01:59Z</time>
      </trkpt>
      <trkpt lat="44.94137" lon="0.67719">
        <ele>180.7</ele>
        <time>2023-04-10T10:02:00Z</time>
      </trkpt>
      <trkpt lat="44.94138" lon="0.67718">
        <ele>181.4</ele>
        <time>2023-04-10T10:02:01Z</time>
      </trkpt>
      <trkpt lat="44.94139" lon="0.67715">
        <ele>181.3</ele>
        <time>2023-04-10T10:02:02Z</time>
      </trkpt>
      <trkpt lat="44.9414" lon="0.67711">
        <ele>181.3</ele>
        <time>2023-04-10T10:02:03Z</time>
      </trkpt>
      <trkpt lat="44.94142" lon="0.67709">
        <ele>181.2</ele>
        <time>2023-04-10T10:02:04Z</time>
      </trkpt>
      <trkpt lat="44.94146" lon="0.67707">
        <ele>181.2</ele>
        <time>2023-04-10T10:02:06Z</time>
      </trkpt>
      <trkpt lat="44.9415" lon="0.67706">
        <ele>181.1</ele>
        <time>2023-04-10T10:02:08Z</time>
      </trkpt>
      <trkpt lat="44.94155" lon="0.67705">
        <ele>181</ele>
        <time>2023-04-10T10:02:10Z</time>
      </trkpt>
      <trkpt lat="44.94161" lon="0.67703">
        <ele>180.8</ele>
        <time>2023-04-10T10:02:12Z</time>
      </trkpt>
      <trkpt lat="44.94167" lon="0.67703">
        <ele>180.6</ele>
        <time>2023-04-10T10:02:14Z</time>
      </trkpt>
      <trkpt lat="44.94172" lon="0.67702">
        <ele>180.5</ele>
        <time>2023-04-10T10:02:16Z</time>
      </trkpt>
      <trkpt lat="44.94178" lon="0.67702">
        <ele>180.3</ele>
        <time>2023-04-10T10:02:18Z</time>
      </trkpt>
      <trkpt lat="44.94184" lon="0.67704">
        <ele>180.2</ele>
        <time>2023-04-10T10:02:20Z</time>
      </trkpt>
      <trkpt lat="44.94189" lon="0.67706">
        <ele>180.1</ele>
        <time>2023-04-10T10:02:22Z</time>
      </trkpt>
      <trkpt lat="44.94194" lon="0.67708">
        <ele>180</ele>
        <time>2023-04-10T10:02:24Z</time>
      </trkpt>
      <trkpt lat="44.94197" lon="0.67709">
        <ele>179.9</ele>
        <time>2023-04-10T10:02:25Z</time>
      </trkpt>
      <trkpt lat="44.94199" lon="0.67711">
        <ele>179.9</ele>
        <time>2023-04-10T10:02:26Z</time>
      </trkpt>
      <trkpt lat="44.94203" lon="0.67713">
        <ele>179.8</ele>
        <time>2023-04-10T10:02:28Z</time>
      </trkpt>
      <trkpt lat="44.94206" lon="0.67715">
        <ele>179.8</ele>
        <time>2023-04-10T10:02:30Z</time>
      </trkpt>
      <trkpt lat="44.94211" lon="0.67718">
        <ele>179.7</ele>
        <time>2023-04-10T10:02:32Z</time>
      </trkpt>
      <trkpt lat="44.94213" lon="0.67719">
        <ele>179.7</ele>
        <time>2023-04-10T10:02:33Z</time>
      </trkpt>
      <trkpt lat="44.94216" lon="0.67719">
        <ele>179.7</ele>
        <time>2023-04-10T10:02:34Z</time>
      </trkpt>
      <trkpt lat="44.94218" lon="0.6772">
        <ele>179.7</ele>
        <time>2023-04-10T10:02:35Z</time>
      </trkpt>
      <trkpt lat="44.9422" lon="0.6772">
        <ele>179.7</ele>
        <time>2023-04-10T10:02:36Z</time>
      </trkpt>
      <trkpt lat="44.94224" lon="0.6772">
        <ele>179.7</ele>
        <time>2023-04-10T10:02:38Z</time>
      </trkpt>
      <trkpt lat="44.94227" lon="0.67721">
        <ele>179.7</ele>
        <time>2023-04-10T10:02:39Z</time>
      </trkpt>
      <trkpt lat="44.94229" lon="0.67721">
        <ele>179.8</ele>
        <time>2023-04-10T10:02:40Z</time>
      </trkpt>
      <trkpt lat="44.94235" lon="0.67723">
        <ele>179.8</ele>
        <time>2023-04-10T10:02:42Z</time>
      </trkpt>
      <trkpt lat="44.94244" lon="0.67726">
        <ele>179.9</ele>
        <time>2023-04-10T10:02:44Z</time>
      </trkpt>
      <trkpt lat="44.94249" lon="0.67727">
        <ele>180</ele>
        <time>2023-04-10T10:02:46Z</time>
      </trkpt>
      <trkpt lat="44.94254" lon="0.67728">
        <ele>180</ele>
        <time>2023-04-10T10:02:48Z</time>
      </trkpt>
      <trkpt lat="44.9426" lon="0.67729">
        <ele>180.1</ele>
        <time>2023-04-10T10:02:50Z</time>
      </trkpt>
      <trkpt lat="44.94265" lon="0.67729">
        <ele>180.2</ele>
        <time>2023-04-10T10:02:52Z</time>
      </trkpt>
      <trkpt lat="44.94267" lon="0.67729">
        <ele>180.3</ele>
        <time>2023-04-10T10:02:53Z</time>
      </trkpt>
      <trkpt lat="44.94269" lon="0.67727">
        <ele>180.3</ele>
        <time>2023-04-10T10:02:54Z</time>
      </trkpt>
      <trkpt lat="44.94273" lon="0.67724">
        <ele>180.4</ele>
        <time>2023-04-10T10:02:56Z</time>
      </trkpt>
      <trkpt lat="44.94273" lon="0.67722">
        <ele>180.3</ele>
        <time>2023-04-10T10:02:58Z</time>
      </trkpt>
      <trkpt lat="44.94271" lon="0.67719">
        <ele>181.2</ele>
        <time>2023-04-10T10:03:00Z</time>
      </trkpt>
      <trkpt lat="44.94269" lon="0.67716">
        <ele>181.1</ele>
        <time>2023-04-10T10:03:02Z</time>
      </trkpt>
      <trkpt lat="44.94266" lon="0.67713">
        <ele>181</ele>
        <time>2023-04-10T10:03:04Z</time>
      </trkpt>
      <trkpt lat="44.94264" lon="0.6771">
        <ele>180.9</ele>
        <time>2023-04-10T10:03:06Z</time>
      </trkpt>
      <trkpt lat="44.94262" lon="0.67708">
        <ele>180.8</ele>
        <time>2023-04-10T10:03:07Z</time>
      </trkpt>
      <trkpt lat="44.94261" lon="0.67707">
        <ele>180.8</ele>
        <time>2023-04-10T10:03:08Z</time>
      </trkpt>
      <trkpt lat="44.94259" lon="0.67704">
        <ele>180.7</ele>
        <time>2023-04-10T10:03:10Z</time>
      </trkpt>
      <trkpt lat="44.94255" lon="0.677">
        <ele>181.8</ele>
        <time>2023-04-10T10:03:12Z</time>
      </trkpt>
      <trkpt lat="44.94252" lon="0.67696">
        <ele>181.7</ele>
        <time>2023-04-10T10:03:14Z</time>
      </trkpt>
      <trkpt lat="44.94249" lon="0.67692">
        <ele>181.6</ele>
        <time>2023-04-10T10:03:16Z</time>
      </trkpt>
      <trkpt lat="44.94247" lon="0.67691">
        <ele>181.5</ele>
        <time>2023-04-10T10:03:17Z</time>
      </trkpt>
      <trkpt lat="44.94246" lon="0.67689">
        <ele>181.5</ele>
        <time>2023-04-10T10:03:18Z</time>
      </trkpt>
      <trkpt lat="44.94242" lon="0.67685">
        <ele>182.9</ele>
        <time>2023-04-10T10:03:20Z</time>
      </trkpt>
      <trkpt lat="44.94238" lon="0.67681">
        <ele>182.9</ele>
        <time>2023-04-10T10:03:22Z</time>
      </trkpt>
      <trkpt lat="44.94235" lon="0.67678">
        <ele>182.8</ele>
        <time>2023-04-10T10:03:24Z</time>
      </trkpt>
      <trkpt lat="44.94232" lon="0.67674">
        <ele>182.7</ele>
        <time>2023-04-10T10:03:26Z</time>
      </trkpt>
      <trkpt lat="44.94231" lon="0.67671">
        <ele>182.6</ele>
        <time>2023-04-10T10:03:27Z</time>
      </trkpt>
      <trkpt lat="44.94229" lon="0.67669">
        <ele>182.5</ele>
        <time>2023-04-10T10:03:28Z</time>
      </trkpt>
      <trkpt lat="44.94226" lon="0.67665">
        <ele>184.1</ele>
        <time>2023-04-10T10:03:30Z</time>
      </trkpt>
      <trkpt lat="44.94223" lon="0.67661">
        <ele>184</ele>
        <time>2023-04-10T10:03:32Z</time>
      </trkpt>
      <trkpt lat="44.94221" lon="0.67659">
        <ele>183.9</ele>
        <time>2023-04-10T10:03:33Z</time>
      </trkpt>
      <trkpt lat="44.94219" lon="0.67657">
        <ele>183.7</ele>
        <time>2023-04-10T10:03:34Z</time>
      </trkpt>
      <trkpt lat="44.94215" lon="0.67654">
        <ele>183.6</ele>
        <time>2023-04-10T10:03:36Z</time>
      </trkpt>
      <trkpt lat="44.94214" lon="0.67653">
        <ele>183.5</ele>
        <time>2023-04-10T10:03:37Z</time>
      </trkpt>
      <trkpt lat="44.94213" lon="0.67651">
        <ele>184.7</ele>
        <time>2023-04-10T10:03:38Z</time>
      </trkpt>
      <trkpt lat="44.9421" lon="0.67646">
        <ele>184.6</ele>
        <time>2023-04-10T10:03:40Z</time>
      </trkpt>
      <trkpt lat="44.94207" lon="0.67642">
        <ele>184.4</ele>
        <time>2023-04-10T10:03:42Z</time>
      </trkpt>
      <trkpt lat="44.94205" lon="0.6764">
        <ele>184.3</ele>
        <time>2023-04-10T10:03:43Z</time>
      </trkpt>
      <trkpt lat="44.94204" lon="0.67638">
        <ele>184.2</ele>
        <time>2023-04-10T10:03:44Z</time>
      </trkpt>
      <trkpt lat="44.942" lon="0.67633">
        <ele>185.3</ele>
        <time>2023-04-10T10:03:46Z</time>
      </trkpt>
      <trkpt lat="44.94198" lon="0.67629">
        <ele>185.2</ele>
        <time>2023-04-10T10:03:48Z</time>
      </trkpt>
      <trkpt lat="44.94195" lon="0.67625">
        <ele>185</ele>
        <time>2023-04-10T10:03:50Z</time>
      </trkpt>
      <trkpt lat="44.94192" lon="0.67622">
        <ele>184.9</ele>
        <time>2023-04-10T10:03:52Z</time>
      </trkpt>
      <trkpt lat="44.94189" lon="0.67618">
        <ele>184.8</ele>
        <time>2023-04-10T10:03:54Z</time>
      </trkpt>
      <trkpt lat="44.94186" lon="0.67615">
        <ele>185.9</ele>
        <time>2023-04-10T10:03:56Z</time>
      </trkpt>
      <trkpt lat="44.94185" lon="0.67613">
        <ele>185.8</ele>
        <time>2023-04-10T10:03:57Z</time>
      </trkpt>
      <trkpt lat="44.94184" lon="0.67612">
        <ele>185.3</ele>
        <time>2023-04-10T10:03:58Z</time>
      </trkpt>
      <trkpt lat="44.94181" lon="0.67609">
        <ele>185.2</ele>
        <time>2023-04-10T10:04:00Z</time>
      </trkpt>
      <trkpt lat="44.94178" lon="0.67606">
        <ele>185.1</ele>
        <time>2023-04-10T10:04:02Z</time>
      </trkpt>
      <trkpt lat="44.94175" lon="0.67603">
        <ele>185.1</ele>
        <time>2023-04-10T10:04:04Z</time>
      </trkpt>
      <trkpt lat="44.94173" lon="0.67599">
        <ele>185.8</ele>
        <time>2023-04-10T10:04:06Z</time>
      </trkpt>
      <trkpt lat="44.9417" lon="0.67597">
        <ele>185</ele>
        <time>2023-04-10T10:04:08Z</time>
      </trkpt>
      <trkpt lat="44.94169" lon="0.67594">
        <ele>184.9</ele>
        <time>2023-04-10T10:04:10Z</time>
      </trkpt>
      <trkpt lat="44.94169" lon="0.6759">
        <ele>184.8</ele>
        <time>2023-04-10T10:04:12Z</time>
      </trkpt>
      <trkpt lat="44.94169" lon="0.67589">
        <ele>184.7</ele>
        <time>2023-04-10T10:04:13Z</time>
      </trkpt>
      <trkpt lat="44.94168" lon="0.67587">
        <ele>184.6</ele>
        <time>2023-04-10T10:04:14Z</time>
      </trkpt>
      <trkpt lat="44.94166" lon="0.67582">
        <ele>185.1</ele>
        <time>2023-04-10T10:04:16Z</time>
      </trkpt>
      <trkpt lat="44.94164" lon="0.67577">
        <ele>185</ele>
        <time>2023-04-10T10:04:18Z</time>
      </trkpt>
      <trkpt lat="44.94163" lon="0.67575">
        <ele>184.9</ele>
        <time>2023-04-10T10:04:19Z</time>
      </trkpt>
      <trkpt lat="44.94162" lon="0.67574">
        <ele>184.8</ele>
        <time>2023-04-10T10:04:20Z</time>
      </trkpt>
      <trkpt lat="44.94161" lon="0.6757">
        <ele>184.7</ele>
        <time>2023-04-10T10:04:22Z</time>
      </trkpt>
      <trkpt lat="44.94159" lon="0.67566">
        <ele>184.2</ele>
        <time>2023-04-10T10:04:24Z</time>
      </trkpt>
      <trkpt lat="44.94157" lon="0.67564">
        <ele>184.1</ele>
        <time>2023-04-10T10:04:25Z</time>
      </trkpt>
      <trkpt lat="44.94156" lon="0.67562">
        <ele>184</ele>
        <time>2023-04-10T10:04:26Z</time>
      </trkpt>
      <trkpt lat="44.94154" lon="0.67558">
        <ele>183.9</ele>
        <time>2023-04-10T10:04:28Z</time>
      </trkpt>
      <trkpt lat="44.94151" lon="0.67554">
        <ele>183.8</ele>
        <time>2023-04-10T10:04:30Z</time>
      </trkpt>
      <trkpt lat="44.9415" lon="0.67552">
        <ele>183.7</ele>
        <time>2023-04-10T10:04:31Z</time>
      </trkpt>
      <trkpt lat="44.94149" lon="0.6755">
        <ele>183.6</ele>
        <time>2023-04-10T10:04:32Z</time>
      </trkpt>
      <trkpt lat="44.94148" lon="0.67545">
        <ele>183.9</ele>
        <time>2023-04-10T10:04:34Z</time>
      </trkpt>
      <trkpt lat="44.94146" lon="0.6754">
        <ele>183.3</ele>
        <time>2023-04-10T10:04:36Z</time>
      </trkpt>
      <trkpt lat="44.94144" lon="0.67537">
        <ele>183.2</ele>
        <time>2023-04-10T10:04:38Z</time>
      </trkpt>
      <trkpt lat="44.94141" lon="0.67534">
        <ele>183.1</ele>
        <time>2023-04-10T10:04:40Z</time>
      </trkpt>
      <trkpt lat="44.94139" lon="0.67531">
        <ele>183.4</ele>
        <time>2023-04-10T10:04:42Z</time>
      </trkpt>
      <trkpt lat="44.94138" lon="0.67529">
        <ele>183.4</ele>
        <time>2023-04-10T10:04:43Z</time>
      </trkpt>
      <trkpt lat="44.94137" lon="0.67527">
        <ele>183.3</ele>
        <time>2023-04-10T10:04:44Z</time>
      </trkpt>
      <trkpt lat="44.94134" lon="0.67524">
        <ele>182.8</ele>
        <time>2023-04-10T10:04:46Z</time>
      </trkpt>
      <trkpt lat="44.94131" lon="0.67521">
        <ele>182.7</ele>
        <time>2023-04-10T10:04:48Z</time>
      </trkpt>
      <trkpt lat="44.9413" lon="0.6752">
        <ele>182.7</ele>
        <time>2023-04-10T10:04:49Z</time>
      </trkpt>
      <trkpt lat="44.94129" lon="0.67518">
        <ele>182.6</ele>
        <time>2023-04-10T10:04:50Z</time>
      </trkpt>
      <trkpt lat="44.94127" lon="0.67514">
        <ele>182.9</ele>
        <time>2023-04-10T10:04:52Z</time>
      </trkpt>
      <trkpt lat="44.94126" lon="0.6751">
        <ele>182.8</ele>
        <time>2023-04-10T10:04:54Z</time>
      </trkpt>
      <trkpt lat="44.94125" lon="0.67508">
        <ele>182.7</ele>
        <time>2023-04-10T10:04:55Z</time>
      </trkpt>
      <trkpt lat="44.94125" lon="0.67506">
        <ele>182.6</ele>
        <time>2023-04-10T10:04:56Z</time>
      </trkpt>
      <trkpt lat="44.94124" lon="0.67504">
        <ele>182.5</ele>
        <time>2023-04-10T10:04:57Z</time>
      </trkpt>
      <trkpt lat="44.94122" lon="0.67502">
        <ele>182.1</ele>
        <time>2023-04-10T10:04:58Z</time>
      </trkpt>
      <trkpt lat="44.9412" lon="0.67498">
        <ele>182</ele>
        <time>2023-04-10T10:05:00Z</time>
      </trkpt>
      <trkpt lat="44.94118" lon="0.67494">
        <ele>182</ele>
        <time>2023-04-10T10:05:02Z</time>
      </trkpt>
      <trkpt lat="44.94115" lon="0.67489">
        <ele>181.9</ele>
        <time>2023-04-10T10:05:04Z</time>
      </trkpt>
      <trkpt lat="44.94114" lon="0.67487">
        <ele>181.8</ele>
        <time>2023-04-10T10:05:05Z</time>
      </trkpt>
      <trkpt lat="44.94112" lon="0.67486">
        <ele>181.7</ele>
        <time>2023-04-10T10:05:06Z</time>
      </trkpt>
      <trkpt lat="44.94111" lon="0.67482">
        <ele>181.7</ele>
        <time>2023-04-10T10:05:08Z</time>
      </trkpt>
      <trkpt lat="44.9411" lon="0.67476">
        <ele>181</ele>
        <time>2023-04-10T10:05:10Z</time>
      </trkpt>
      <trkpt lat="44.94109" lon="0.67474">
        <ele>180.9</ele>
        <time>2023-04-10T10:05:11Z</time>
      </trkpt>
      <trkpt lat="44.94108" lon="0.67472">
        <ele>180.8</ele>
        <time>2023-04-10T10:05:12Z</time>
      </trkpt>
      <trkpt lat="44.94106" lon="0.67466">
        <ele>180.7</ele>
        <time>2023-04-10T10:05:14Z</time>
      </trkpt>
      <trkpt lat="44.94104" lon="0.6746">
        <ele>180.3</ele>
        <time>2023-04-10T10:05:16Z</time>
      </trkpt>
      <trkpt lat="44.94102" lon="0.67457">
        <ele>180.2</ele>
        <time>2023-04-10T10:05:17Z</time>
      </trkpt>
      <trkpt lat="44.941" lon="0.67455">
        <ele>180.1</ele>
        <time>2023-04-10T10:05:18Z</time>
      </trkpt>
      <trkpt lat="44.94098" lon="0.67451">
        <ele>179.8</ele>
        <time>2023-04-10T10:05:19Z</time>
      </trkpt>
      <trkpt lat="44.94094" lon="0.67446">
        <ele>179.7</ele>
        <time>2023-04-10T10:05:20Z</time>
      </trkpt>
      <trkpt lat="44.94089" lon="0.67438">
        <ele>179.4</ele>
        <time>2023-04-10T10:05:22Z</time>
      </trkpt>
      <trkpt lat="44.94084" lon="0.67428">
        <ele>179.2</ele>
        <time>2023-04-10T10:05:24Z</time>
      </trkpt>
      <trkpt lat="44.94079" lon="0.67419">
        <ele>178.9</ele>
        <time>2023-04-10T10:05:26Z</time>
      </trkpt>
      <trkpt lat="44.94072" lon="0.67411">
        <ele>178.6</ele>
        <time>2023-04-10T10:05:28Z</time>
      </trkpt>
      <trkpt lat="44.94069" lon="0.67407">
        <ele>178.5</ele>
        <time>2023-04-10T10:05:29Z</time>
      </trkpt>
      <trkpt lat="44.94065" lon="0.67403">
        <ele>178.3</ele>
        <time>2023-04-10T10:05:30Z</time>
      </trkpt>
      <trkpt lat="44.94057" lon="0.67395">
        <ele>178</ele>
        <time>2023-04-10T10:05:32Z</time>
      </trkpt>
      <trkpt lat="44.94051" lon="0.67391">
        <ele>177.7</ele>
        <time>2023-04-10T10:05:34Z</time>
      </trkpt>
      <trkpt lat="44.94039" lon="0.67381">
        <ele>177.3</ele>
        <time>2023-04-10T10:05:36Z</time>
      </trkpt>
      <trkpt lat="44.94029" lon="0.67372">
        <ele>176.9</ele>
        <time>2023-04-10T10:05:38Z</time>
      </trkpt>
      <trkpt lat="44.94018" lon="0.67365">
        <ele>176.5</ele>
        <time>2023-04-10T10:05:40Z</time>
      </trkpt>
      <trkpt lat="44.94006" lon="0.67358">
        <ele>176</ele>
        <time>2023-04-10T10:05:42Z</time>
      </trkpt>
      <trkpt lat="44.93994" lon="0.67352">
        <ele>175.6</ele>
        <time>2023-04-10T10:05:44Z</time>
      </trkpt>
      <trkpt lat="44.93983" lon="0.67347">
        <ele>175.3</ele>
        <time>2023-04-10T10:05:46Z</time>
      </trkpt>
      <trkpt lat="44.93977" lon="0.67345">
        <ele>175</ele>
        <time>2023-04-10T10:05:47Z</time>
      </trkpt>
      <trkpt lat="44.93971" lon="0.67346">
        <ele>174.8</ele>
        <time>2023-04-10T10:05:48Z</time>
      </trkpt>
      <trkpt lat="44.93965" lon="0.67349">
        <ele>174.6</ele>
        <time>2023-04-10T10:05:49Z</time>
      </trkpt>
      <trkpt lat="44.9396" lon="0.67353">
        <ele>174.4</ele>
        <time>2023-04-10T10:05:50Z</time>
      </trkpt>
      <trkpt lat="44.93951" lon="0.67361">
        <ele>174.1</ele>
        <time>2023-04-10T10:05:52Z</time>
      </trkpt>
      <trkpt lat="44.93944" lon="0.67373">
        <ele>173.7</ele>
        <time>2023-04-10T10:05:54Z</time>
      </trkpt>
      <trkpt lat="44.93934" lon="0.67388">
        <ele>173.2</ele>
        <time>2023-04-10T10:05:56Z</time>
      </trkpt>
      <trkpt lat="44.93922" lon="0.67404">
        <ele>172.7</ele>
        <time>2023-04-10T10:05:58Z</time>
      </trkpt>
      <trkpt lat="44.93907" lon="0.67419">
        <ele>172.1</ele>
        <time>2023-04-10T10:06:00Z</time>
      </trkpt>
      <trkpt lat="44.93891" lon="0.67433">
        <ele>171.4</ele>
        <time>2023-04-10T10:06:02Z</time>
      </trkpt>
      <trkpt lat="44.93884" lon="0.6744">
        <ele>171.1</ele>
        <time>2023-04-10T10:06:03Z</time>
      </trkpt>
      <trkpt lat="44.93878" lon="0.67448">
        <ele>170.9</ele>
        <time>2023-04-10T10:06:04Z</time>
      </trkpt>
      <trkpt lat="44.93869" lon="0.67461">
        <ele>170.4</ele>
        <time>2023-04-10T10:06:06Z</time>
      </trkpt>
      <trkpt lat="44.93866" lon="0.67466">
        <ele>170.3</ele>
        <time>2023-04-10T10:06:07Z</time>
      </trkpt>
      <trkpt lat="44.93863" lon="0.67469">
        <ele>170.2</ele>
        <time>2023-04-10T10:06:08Z</time>
      </trkpt>
      <trkpt lat="44.93857" lon="0.67468">
        <ele>169</ele>
        <time>2023-04-10T10:06:10Z</time>
      </trkpt>
      <trkpt lat="44.93852" lon="0.67465">
        <ele>168.6</ele>
        <time>2023-04-10T10:06:12Z</time>
      </trkpt>
      <trkpt lat="44.93851" lon="0.67462">
        <ele>168.5</ele>
        <time>2023-04-10T10:06:13Z</time>
      </trkpt>
      <trkpt lat="44.93852" lon="0.67459">
        <ele>168.4</ele>
        <time>2023-04-10T10:06:14Z</time>
      </trkpt>
      <trkpt lat="44.93849" lon="0.67449">
        <ele>168</ele>
        <time>2023-04-10T10:06:16Z</time>
      </trkpt>
      <trkpt lat="44.93847" lon="0.67443">
        <ele>167.8</ele>
        <time>2023-04-10T10:06:17Z</time>
      </trkpt>
      <trkpt lat="44.93843" lon="0.67436">
        <ele>167.6</ele>
        <time>2023-04-10T10:06:18Z</time>
      </trkpt>
      <trkpt lat="44.93837" lon="0.67422">
        <ele>167.1</ele>
        <time>2023-04-10T10:06:20Z</time>
      </trkpt>
      <trkpt lat="44.93831" lon="0.67406">
        <ele>166.7</ele>
        <time>2023-04-10T10:06:22Z</time>
      </trkpt>
      <trkpt lat="44.93823" lon="0.67392">
        <ele>166.3</ele>
        <time>2023-04-10T10:06:24Z</time>
      </trkpt>
      <trkpt lat="44.93818" lon="0.67375">
        <ele>165.9</ele>
        <time>2023-04-10T10:06:26Z</time>
      </trkpt>
      <trkpt lat="44.93814" lon="0.67358">
        <ele>165.6</ele>
        <time>2023-04-10T10:06:28Z</time>
      </trkpt>
      <trkpt lat="44.9381" lon="0.67341">
        <ele>165.3</ele>
        <time>2023-04-10T10:06:30Z</time>
      </trkpt>
      <trkpt lat="44.93804" lon="0.67325">
        <ele>165.1</ele>
        <time>2023-04-10T10:06:32Z</time>
      </trkpt>
      <trkpt lat="44.93801" lon="0.67316">
        <ele>165</ele>
        <time>2023-04-10T10:06:33Z</time>
      </trkpt>
      <trkpt lat="44.93798" lon="0.67308">
        <ele>164.8</ele>
        <time>2023-04-10T10:06:34Z</time>
      </trkpt>
      <trkpt lat="44.93792" lon="0.67291">
        <ele>164.6</ele>
        <time>2023-04-10T10:06:36Z</time>
      </trkpt>
      <trkpt lat="44.93786" lon="0.67276">
        <ele>164.3</ele>
        <time>2023-04-10T10:06:38Z</time>
      </trkpt>
      <trkpt lat="44.93779" lon="0.67261">
        <ele>164</ele>
        <time>2023-04-10T10:06:40Z</time>
      </trkpt>
      <trkpt lat="44.9377" lon="0.67247">
        <ele>163.6</ele>
        <time>2023-04-10T10:06:42Z</time>
      </trkpt>
      <trkpt lat="44.9376" lon="0.67235">
        <ele>163.1</ele>
        <time>2023-04-10T10:06:44Z</time>
      </trkpt>
      <trkpt lat="44.93755" lon="0.67229">
        <ele>162.9</ele>
        <time>2023-04-10T10:06:45Z</time>
      </trkpt>
      <trkpt lat="44.9375" lon="0.67224">
        <ele>162.8</ele>
        <time>2023-04-10T10:06:46Z</time>
      </trkpt>
      <trkpt lat="44.93745" lon="0.67218">
        <ele>162.6</ele>
        <time>2023-04-10T10:06:47Z</time>
      </trkpt>
      <trkpt lat="44.9374" lon="0.67212">
        <ele>162.3</ele>
        <time>2023-04-10T10:06:48Z</time>
      </trkpt>
      <trkpt lat="44.93729" lon="0.67197">
        <ele>161.7</ele>
        <time>2023-04-10T10:06:50Z</time>
      </trkpt>
      <trkpt lat="44.93719" lon="0.67181">
        <ele>161.1</ele>
        <time>2023-04-10T10:06:52Z</time>
      </trkpt>
      <trkpt lat="44.93711" lon="0.67163">
        <ele>160.5</ele>
        <time>2023-04-10T10:06:54Z</time>
      </trkpt>
      <trkpt lat="44.93708" lon="0.67155">
        <ele>160.2</ele>
        <time>2023-04-10T10:06:55Z</time>
      </trkpt>
      <trkpt lat="44.93703" lon="0.67149">
        <ele>160</ele>
        <time>2023-04-10T10:06:56Z</time>
      </trkpt>
      <trkpt lat="44.93699" lon="0.67143">
        <ele>159.8</ele>
        <time>2023-04-10T10:06:57Z</time>
      </trkpt>
      <trkpt lat="44.93693" lon="0.67138">
        <ele>159.6</ele>
        <time>2023-04-10T10:06:58Z</time>
      </trkpt>
      <trkpt lat="44.93688" lon="0.67133">
        <ele>159.4</ele>
        <time>2023-04-10T10:06:59Z</time>
      </trkpt>
      <trkpt lat="44.9368" lon="0.67128">
        <ele>159.4</ele>
        <time>2023-04-10T10:07:00Z</time>
      </trkpt>
      <trkpt lat="44.93673" lon="0.67124">
        <ele>159.4</ele>
        <time>2023-04-10T10:07:01Z</time>
      </trkpt>
      <trkpt lat="44.93665" lon="0.67123">
        <ele>159.5</ele>
        <time>2023-04-10T10:07:02Z</time>
      </trkpt>
      <trkpt lat="44.93659" lon="0.67122">
        <ele>159.6</ele>
        <time>2023-04-10T10:07:03Z</time>
      </trkpt>
      <trkpt lat="44.93653" lon="0.67122">
        <ele>159.8</ele>
        <time>2023-04-10T10:07:04Z</time>
      </trkpt>
      <trkpt lat="44.93647" lon="0.67122">
        <ele>160</ele>
        <time>2023-04-10T10:07:05Z</time>
      </trkpt>
      <trkpt lat="44.93643" lon="0.67124">
        <ele>160.2</ele>
        <time>2023-04-10T10:07:06Z</time>
      </trkpt>
      <trkpt lat="44.93639" lon="0.67123">
        <ele>160.4</ele>
        <time>2023-04-10T10:07:07Z</time>
      </trkpt>
      <trkpt lat="44.93635" lon="0.67124">
        <ele>160.7</ele>
        <time>2023-04-10T10:07:08Z</time>
      </trkpt>
      <trkpt lat="44.93628" lon="0.67123">
        <ele>161.1</ele>
        <time>2023-04-10T10:07:10Z</time>
      </trkpt>
      <trkpt lat="44.93622" lon="0.67125">
        <ele>161.5</ele>
        <time>2023-04-10T10:07:12Z</time>
      </trkpt>
      <trkpt lat="44.93615" lon="0.67125">
        <ele>161.9</ele>
        <time>2023-04-10T10:07:14Z</time>
      </trkpt>
      <trkpt lat="44.93611" lon="0.67126">
        <ele>162.2</ele>
        <time>2023-04-10T10:07:16Z</time>
      </trkpt>
      <trkpt lat="44.93606" lon="0.67127">
        <ele>162.3</ele>
        <time>2023-04-10T10:07:18Z</time>
      </trkpt>
      <trkpt lat="44.93601" lon="0.6713">
        <ele>162.4</ele>
        <time>2023-04-10T10:07:20Z</time>
      </trkpt>
      <trkpt lat="44.93597" lon="0.67132">
        <ele>162.6</ele>
        <time>2023-04-10T10:07:22Z</time>
      </trkpt>
      <trkpt lat="44.93592" lon="0.67134">
        <ele>162.7</ele>
        <time>2023-04-10T10:07:24Z</time>
      </trkpt>
      <trkpt lat="44.93588" lon="0.67137">
        <ele>162.8</ele>
        <time>2023-04-10T10:07:26Z</time>
      </trkpt>
      <trkpt lat="44.93584" lon="0.67141">
        <ele>162.9</ele>
        <time>2023-04-10T10:07:28Z</time>
      </trkpt>
      <trkpt lat="44.93581" lon="0.67146">
        <ele>163</ele>
        <time>2023-04-10T10:07:30Z</time>
      </trkpt>
      <trkpt lat="44.93576" lon="0.6715">
        <ele>163.1</ele>
        <time>2023-04-10T10:07:32Z</time>
      </trkpt>
      <trkpt lat="44.93575" lon="0.67152">
        <ele>163.2</ele>
        <time>2023-04-10T10:07:33Z</time>
      </trkpt>
      <trkpt lat="44.93573" lon="0.67153">
        <ele>163.2</ele>
        <time>2023-04-10T10:07:34Z</time>
      </trkpt>
      <trkpt lat="44.93571" lon="0.67155">
        <ele>163.2</ele>
        <time>2023-04-10T10:07:35Z</time>
      </trkpt>
      <trkpt lat="44.93569" lon="0.67156">
        <ele>163.2</ele>
        <time>2023-04-10T10:07:36Z</time>
      </trkpt>
      <trkpt lat="44.93564" lon="0.67158">
        <ele>163.3</ele>
        <time>2023-04-10T10:07:38Z</time>
      </trkpt>
      <trkpt lat="44.9356" lon="0.67159">
        <ele>163.4</ele>
        <time>2023-04-10T10:07:40Z</time>
      </trkpt>
      <trkpt lat="44.93557" lon="0.6716">
        <ele>163.4</ele>
        <time>2023-04-10T10:07:42Z</time>
      </trkpt>
      <trkpt lat="44.93554" lon="0.67163">
        <ele>163.4</ele>
        <time>2023-04-10T10:07:44Z</time>
      </trkpt>
      <trkpt lat="44.93549" lon="0.67166">
        <ele>163.5</ele>
        <time>2023-04-10T10:07:46Z</time>
      </trkpt>
      <trkpt lat="44.93545" lon="0.67168">
        <ele>163.5</ele>
        <time>2023-04-10T10:07:48Z</time>
      </trkpt>
      <trkpt lat="44.93543" lon="0.67169">
        <ele>163.6</ele>
        <time>2023-04-10T10:07:49Z</time>
      </trkpt>
      <trkpt lat="44.93541" lon="0.6717">
        <ele>163.6</ele>
        <time>2023-04-10T10:07:50Z</time>
      </trkpt>
      <trkpt lat="44.93537" lon="0.67172">
        <ele>163.6</ele>
        <time>2023-04-10T10:07:52Z</time>
      </trkpt>
      <trkpt lat="44.93532" lon="0.67173">
        <ele>163.7</ele>
        <time>2023-04-10T10:07:54Z</time>
      </trkpt>
      <trkpt lat="44.93529" lon="0.67175">
        <ele>163.8</ele>
        <time>2023-04-10T10:07:56Z</time>
      </trkpt>
      <trkpt lat="44.93525" lon="0.67178">
        <ele>163.8</ele>
        <time>2023-04-10T10:07:58Z</time>
      </trkpt>
      <trkpt lat="44.93522" lon="0.67179">
        <ele>163.9</ele>
        <time>2023-04-10T10:07:59Z</time>
      </trkpt>
      <trkpt lat="44.9352" lon="0.67181">
        <ele>163.9</ele>
        <time>2023-04-10T10:08:00Z</time>
      </trkpt>
      <trkpt lat="44.93515" lon="0.67183">
        <ele>163.9</ele>
        <time>2023-04-10T10:08:02Z</time>
      </trkpt>
      <trkpt lat="44.9351" lon="0.67185">
        <ele>164</ele>
        <time>2023-04-10T10:08:04Z</time>
      </trkpt>
      <trkpt lat="44.93505" lon="0.67186">
        <ele>164</ele>
        <time>2023-04-10T10:08:06Z</time>
      </trkpt>
      <trkpt lat="44.93501" lon="0.67187">
        <ele>164</ele>
        <time>2023-04-10T10:08:08Z</time>
      </trkpt>
      <trkpt lat="44.93496" lon="0.67188">
        <ele>164.1</ele>
        <time>2023-04-10T10:08:10Z</time>
      </trkpt>
      <trkpt lat="44.93492" lon="0.6719">
        <ele>164.1</ele>
        <time>2023-04-10T10:08:12Z</time>
      </trkpt>
      <trkpt lat="44.93489" lon="0.6719">
        <ele>164.1</ele>
        <time>2023-04-10T10:08:13Z</time>
      </trkpt>
      <trkpt lat="44.93487" lon="0.67191">
        <ele>164.2</ele>
        <time>2023-04-10T10:08:14Z</time>
      </trkpt>
      <trkpt lat="44.93483" lon="0.67192">
        <ele>164.3</ele>
        <time>2023-04-10T10:08:16Z</time>
      </trkpt>
      <trkpt lat="44.93478" lon="0.67194">
        <ele>164.3</ele>
        <time>2023-04-10T10:08:18Z</time>
      </trkpt>
      <trkpt lat="44.93474" lon="0.67195">
        <ele>164.4</ele>
        <time>2023-04-10T10:08:20Z</time>
      </trkpt>
      <trkpt lat="44.9347" lon="0.67196">
        <ele>164.5</ele>
        <time>2023-04-10T10:08:22Z</time>
      </trkpt>
      <trkpt lat="44.93465" lon="0.67198">
        <ele>164.5</ele>
        <time>2023-04-10T10:08:24Z</time>
      </trkpt>
      <trkpt lat="44.93461" lon="0.67199">
        <ele>164.6</ele>
        <time>2023-04-10T10:08:26Z</time>
      </trkpt>
      <trkpt lat="44.93456" lon="0.672">
        <ele>164.6</ele>
        <time>2023-04-10T10:08:28Z</time>
      </trkpt>
      <trkpt lat="44.93454" lon="0.672">
        <ele>164.7</ele>
        <time>2023-04-10T10:08:29Z</time>
      </trkpt>
      <trkpt lat="44.93452" lon="0.67201">
        <ele>164.7</ele>
        <time>2023-04-10T10:08:30Z</time>
      </trkpt>
      <trkpt lat="44.93448" lon="0.67201">
        <ele>164.8</ele>
        <time>2023-04-10T10:08:32Z</time>
      </trkpt>
      <trkpt lat="44.93443" lon="0.67202">
        <ele>164.9</ele>
        <time>2023-04-10T10:08:34Z</time>
      </trkpt>
      <trkpt lat="44.9344" lon="0.67203">
        <ele>164.9</ele>
        <time>2023-04-10T10:08:35Z</time>
      </trkpt>
      <trkpt lat="44.93438" lon="0.67203">
        <ele>165</ele>
        <time>2023-04-10T10:08:36Z</time>
      </trkpt>
      <trkpt lat="44.93434" lon="0.67203">
        <ele>165.2</ele>
        <time>2023-04-10T10:08:38Z</time>
      </trkpt>
      <trkpt lat="44.93429" lon="0.67203">
        <ele>165.4</ele>
        <time>2023-04-10T10:08:40Z</time>
      </trkpt>
      <trkpt lat="44.93424" lon="0.67203">
        <ele>165.5</ele>
        <time>2023-04-10T10:08:42Z</time>
      </trkpt>
      <trkpt lat="44.9342" lon="0.67203">
        <ele>165.7</ele>
        <time>2023-04-10T10:08:44Z</time>
      </trkpt>
      <trkpt lat="44.93416" lon="0.67203">
        <ele>165.8</ele>
        <time>2023-04-10T10:08:46Z</time>
      </trkpt>
      <trkpt lat="44.93412" lon="0.67204">
        <ele>165.9</ele>
        <time>2023-04-10T10:08:48Z</time>
      </trkpt>
      <trkpt lat="44.93409" lon="0.67204">
        <ele>166</ele>
        <time>2023-04-10T10:08:49Z</time>
      </trkpt>
      <trkpt lat="44.93407" lon="0.67204">
        <ele>166</ele>
        <time>2023-04-10T10:08:50Z</time>
      </trkpt>
      <trkpt lat="44.93402" lon="0.67204">
        <ele>166.1</ele>
        <time>2023-04-10T10:08:52Z</time>
      </trkpt>
      <trkpt lat="44.93398" lon="0.67205">
        <ele>166.3</ele>
        <time>2023-04-10T10:08:54Z</time>
      </trkpt>
      <trkpt lat="44.93393" lon="0.67207">
        <ele>166.4</ele>
        <time>2023-04-10T10:08:56Z</time>
      </trkpt>
      <trkpt lat="44.93391" lon="0.67207">
        <ele>166.5</ele>
        <time>2023-04-10T10:08:57Z</time>
      </trkpt>
      <trkpt lat="44.93388" lon="0.67208">
        <ele>166.5</ele>
        <time>2023-04-10T10:08:58Z</time>
      </trkpt>
      <trkpt lat="44.93383" lon="0.67209">
        <ele>166.7</ele>
        <time>2023-04-10T10:09:00Z</time>
      </trkpt>
      <trkpt lat="44.93379" lon="0.6721">
        <ele>166.8</ele>
        <time>2023-04-10T10:09:02Z</time>
      </trkpt>
      <trkpt lat="44.93374" lon="0.67211">
        <ele>167</ele>
        <time>2023-04-10T10:09:04Z</time>
      </trkpt>
      <trkpt lat="44.93372" lon="0.67212">
        <ele>167.1</ele>
        <time>2023-04-10T10:09:05Z</time>
      </trkpt>
      <trkpt lat="44.9337" lon="0.67213">
        <ele>167.2</ele>
        <time>2023-04-10T10:09:06Z</time>
      </trkpt>
      <trkpt lat="44.93365" lon="0.67214">
        <ele>167.4</ele>
        <time>2023-04-10T10:09:08Z</time>
      </trkpt>
      <trkpt lat="44.9336" lon="0.67215">
        <ele>167.6</ele>
        <time>2023-04-10T10:09:10Z</time>
      </trkpt>
      <trkpt lat="44.93355" lon="0.67216">
        <ele>167.8</ele>
        <time>2023-04-10T10:09:12Z</time>
      </trkpt>
      <trkpt lat="44.9335" lon="0.67218">
        <ele>168</ele>
        <time>2023-04-10T10:09:14Z</time>
      </trkpt>
      <trkpt lat="44.93345" lon="0.67219">
        <ele>168.2</ele>
        <time>2023-04-10T10:09:16Z</time>
      </trkpt>
      <trkpt lat="44.9334" lon="0.6722">
        <ele>168.4</ele>
        <time>2023-04-10T10:09:18Z</time>
      </trkpt>
      <trkpt lat="44.93336" lon="0.67221">
        <ele>168.5</ele>
        <time>2023-04-10T10:09:20Z</time>
      </trkpt>
      <trkpt lat="44.93332" lon="0.67223">
        <ele>168.7</ele>
        <time>2023-04-10T10:09:22Z</time>
      </trkpt>
      <trkpt lat="44.93327" lon="0.67224">
        <ele>168.8</ele>
        <time>2023-04-10T10:09:24Z</time>
      </trkpt>
      <trkpt lat="44.93323" lon="0.67225">
        <ele>169</ele>
        <time>2023-04-10T10:09:26Z</time>
      </trkpt>
      <trkpt lat="44.93318" lon="0.67227">
        <ele>169.2</ele>
        <time>2023-04-10T10:09:28Z</time>
      </trkpt>
      <trkpt lat="44.93314" lon="0.67229">
        <ele>169.3</ele>
        <time>2023-04-10T10:09:30Z</time>
      </trkpt>
      <trkpt lat="44.93311" lon="0.67234">
        <ele>169.5</ele>
        <time>2023-04-10T10:09:32Z</time>
      </trkpt>
      <trkpt lat="44.93309" lon="0.67236">
        <ele>169.6</ele>
        <time>2023-04-10T10:09:33Z</time>
      </trkpt>
      <trkpt lat="44.93308" lon="0.67239">
        <ele>169.7</ele>
        <time>2023-04-10T10:09:34Z</time>
      </trkpt>
      <trkpt lat="44.93306" lon="0.67245">
        <ele>170</ele>
        <time>2023-04-10T10:09:36Z</time>
      </trkpt>
      <trkpt lat="44.93306" lon="0.6725">
        <ele>170.2</ele>
        <time>2023-04-10T10:09:38Z</time>
      </trkpt>
      <trkpt lat="44.93307" lon="0.67255">
        <ele>170.4</ele>
        <time>2023-04-10T10:09:40Z</time>
      </trkpt>
      <trkpt lat="44.93308" lon="0.67259">
        <ele>170.6</ele>
        <time>2023-04-10T10:09:42Z</time>
      </trkpt>
      <trkpt lat="44.93308" lon="0.67264">
        <ele>170.9</ele>
        <time>2023-04-10T10:09:44Z</time>
      </trkpt>
      <trkpt lat="44.93309" lon="0.67268">
        <ele>171.1</ele>
        <time>2023-04-10T10:09:46Z</time>
      </trkpt>
      <trkpt lat="44.93308" lon="0.67272">
        <ele>171.4</ele>
        <time>2023-04-10T10:09:48Z</time>
      </trkpt>
      <trkpt lat="44.93308" lon="0.67276">
        <ele>171.6</ele>
        <time>2023-04-10T10:09:50Z</time>
      </trkpt>
      <trkpt lat="44.93308" lon="0.67278">
        <ele>171.7</ele>
        <time>2023-04-10T10:09:51Z</time>
      </trkpt>
      <trkpt lat="44.93307" lon="0.67281">
        <ele>171.9</ele>
        <time>2023-04-10T10:09:52Z</time>
      </trkpt>
      <trkpt lat="44.93306" lon="0.67285">
        <ele>172.2</ele>
        <time>2023-04-10T10:09:54Z</time>
      </trkpt>
      <trkpt lat="44.93304" lon="0.67289">
        <ele>172.5</ele>
        <time>2023-04-10T10:09:56Z</time>
      </trkpt>
      <trkpt lat="44.93303" lon="0.6729">
        <ele>172.6</ele>
        <time>2023-04-10T10:09:57Z</time>
      </trkpt>
      <trkpt lat="44.93302" lon="0.67292">
        <ele>172.8</ele>
        <time>2023-04-10T10:09:58Z</time>
      </trkpt>
      <trkpt lat="44.93301" lon="0.67293">
        <ele>172.9</ele>
        <time>2023-04-10T10:09:59Z</time>
      </trkpt>
      <trkpt lat="44.933" lon="0.67295">
        <ele>173.1</ele>
        <time>2023-04-10T10:10:00Z</time>
      </trkpt>
      <trkpt lat="44.93297" lon="0.67296">
        <ele>173.3</ele>
        <time>2023-04-10T10:10:02Z</time>
      </trkpt>
      <trkpt lat="44.93296" lon="0.67298">
        <ele>173.5</ele>
        <time>2023-04-10T10:10:04Z</time>
      </trkpt>
      <trkpt lat="44.93294" lon="0.673">
        <ele>173.7</ele>
        <time>2023-04-10T10:10:06Z</time>
      </trkpt>
      <trkpt lat="44.93292" lon="0.67301">
        <ele>173.9</ele>
        <time>2023-04-10T10:10:07Z</time>
      </trkpt>
      <trkpt lat="44.93291" lon="0.67303">
        <ele>174</ele>
        <time>2023-04-10T10:10:08Z</time>
      </trkpt>
      <trkpt lat="44.93289" lon="0.67306">
        <ele>174.2</ele>
        <time>2023-04-10T10:10:10Z</time>
      </trkpt>
      <trkpt lat="44.93286" lon="0.67308">
        <ele>174.4</ele>
        <time>2023-04-10T10:10:12Z</time>
      </trkpt>
      <trkpt lat="44.93285" lon="0.67309">
        <ele>174.5</ele>
        <time>2023-04-10T10:10:13Z</time>
      </trkpt>
      <trkpt lat="44.93283" lon="0.6731">
        <ele>174.7</ele>
        <time>2023-04-10T10:10:14Z</time>
      </trkpt>
      <trkpt lat="44.9328" lon="0.67313">
        <ele>174.9</ele>
        <time>2023-04-10T10:10:16Z</time>
      </trkpt>
      <trkpt lat="44.93279" lon="0.67314">
        <ele>175</ele>
        <time>2023-04-10T10:10:17Z</time>
      </trkpt>
      <trkpt lat="44.93277" lon="0.67315">
        <ele>175.1</ele>
        <time>2023-04-10T10:10:18Z</time>
      </trkpt>
      <trkpt lat="44.93276" lon="0.67317">
        <ele>175.2</ele>
        <time>2023-04-10T10:10:19Z</time>
      </trkpt>
      <trkpt lat="44.93275" lon="0.67318">
        <ele>175.3</ele>
        <time>2023-04-10T10:10:20Z</time>
      </trkpt>
      <trkpt lat="44.93272" lon="0.67321">
        <ele>175.5</ele>
        <time>2023-04-10T10:10:22Z</time>
      </trkpt>
      <trkpt lat="44.9327" lon="0.67324">
        <ele>175.7</ele>
        <time>2023-04-10T10:10:24Z</time>
      </trkpt>
      <trkpt lat="44.93268" lon="0.67325">
        <ele>175.8</ele>
        <time>2023-04-10T10:10:25Z</time>
      </trkpt>
      <trkpt lat="44.93266" lon="0.67326">
        <ele>175.9</ele>
        <time>2023-04-10T10:10:26Z</time>
      </trkpt>
      <trkpt lat="44.93264" lon="0.67327">
        <ele>176</ele>
        <time>2023-04-10T10:10:27Z</time>
      </trkpt>
      <trkpt lat="44.93262" lon="0.67328">
        <ele>176.1</ele>
        <time>2023-04-10T10:10:28Z</time>
      </trkpt>
      <trkpt lat="44.93261" lon="0.67329">
        <ele>176.3</ele>
        <time>2023-04-10T10:10:30Z</time>
      </trkpt>
      <trkpt lat="44.93261" lon="0.67329">
        <ele>176.3</ele>
        <time>2023-04-10T10:10:31Z</time>
      </trkpt>
      <trkpt lat="44.93257" lon="0.67326">
        <ele>175.8</ele>
        <time>2023-04-10T10:10:39Z</time>
      </trkpt>
      <trkpt lat="44.93255" lon="0.67322">
        <ele>175.3</ele>
        <time>2023-04-10T10:10:40Z</time>
      </trkpt>
      <trkpt lat="44.93252" lon="0.67309">
        <ele>174.2</ele>
        <time>2023-04-10T10:10:42Z</time>
      </trkpt>
      <trkpt lat="44.93247" lon="0.67293">
        <ele>172.7</ele>
        <time>2023-04-10T10:10:44Z</time>
      </trkpt>
      <trkpt lat="44.9324" lon="0.67273">
        <ele>171.1</ele>
        <time>2023-04-10T10:10:46Z</time>
      </trkpt>
      <trkpt lat="44.93232" lon="0.67252">
        <ele>169.6</ele>
        <time>2023-04-10T10:10:48Z</time>
      </trkpt>
      <trkpt lat="44.93225" lon="0.67229">
        <ele>168.4</ele>
        <time>2023-04-10T10:10:50Z</time>
      </trkpt>
      <trkpt lat="44.93218" lon="0.67207">
        <ele>167.5</ele>
        <time>2023-04-10T10:10:52Z</time>
      </trkpt>
      <trkpt lat="44.93213" lon="0.67187">
        <ele>166.8</ele>
        <time>2023-04-10T10:10:54Z</time>
      </trkpt>
      <trkpt lat="44.9321" lon="0.67177">
        <ele>166.5</ele>
        <time>2023-04-10T10:10:55Z</time>
      </trkpt>
      <trkpt lat="44.93207" lon="0.67168">
        <ele>166.3</ele>
        <time>2023-04-10T10:10:56Z</time>
      </trkpt>
      <trkpt lat="44.93202" lon="0.67151">
        <ele>166</ele>
        <time>2023-04-10T10:10:58Z</time>
      </trkpt>
      <trkpt lat="44.93197" lon="0.67136">
        <ele>165.9</ele>
        <time>2023-04-10T10:11:00Z</time>
      </trkpt>
      <trkpt lat="44.93194" lon="0.67123">
        <ele>165.8</ele>
        <time>2023-04-10T10:11:02Z</time>
      </trkpt>
      <trkpt lat="44.93193" lon="0.67118">
        <ele>165.8</ele>
        <time>2023-04-10T10:11:03Z</time>
      </trkpt>
      <trkpt lat="44.93192" lon="0.67113">
        <ele>165.8</ele>
        <time>2023-04-10T10:11:04Z</time>
      </trkpt>
      <trkpt lat="44.93189" lon="0.67102">
        <ele>165.9</ele>
        <time>2023-04-10T10:11:06Z</time>
      </trkpt>
      <trkpt lat="44.93185" lon="0.67093">
        <ele>166</ele>
        <time>2023-04-10T10:11:08Z</time>
      </trkpt>
      <trkpt lat="44.93183" lon="0.67085">
        <ele>166.1</ele>
        <time>2023-04-10T10:11:10Z</time>
      </trkpt>
      <trkpt lat="44.93181" lon="0.67077">
        <ele>166.3</ele>
        <time>2023-04-10T10:11:12Z</time>
      </trkpt>
      <trkpt lat="44.9318" lon="0.67069">
        <ele>166.4</ele>
        <time>2023-04-10T10:11:14Z</time>
      </trkpt>
      <trkpt lat="44.93178" lon="0.67061">
        <ele>166.6</ele>
        <time>2023-04-10T10:11:16Z</time>
      </trkpt>
      <trkpt lat="44.93176" lon="0.67054">
        <ele>166.8</ele>
        <time>2023-04-10T10:11:18Z</time>
      </trkpt>
      <trkpt lat="44.93175" lon="0.6705">
        <ele>166.9</ele>
        <time>2023-04-10T10:11:19Z</time>
      </trkpt>
      <trkpt lat="44.93174" lon="0.67047">
        <ele>167</ele>
        <time>2023-04-10T10:11:20Z</time>
      </trkpt>
      <trkpt lat="44.93171" lon="0.67039">
        <ele>167.2</ele>
        <time>2023-04-10T10:11:22Z</time>
      </trkpt>
      <trkpt lat="44.9317" lon="0.67033">
        <ele>167.5</ele>
        <time>2023-04-10T10:11:24Z</time>
      </trkpt>
      <trkpt lat="44.93168" lon="0.67026">
        <ele>167.7</ele>
        <time>2023-04-10T10:11:26Z</time>
      </trkpt>
      <trkpt lat="44.93167" lon="0.67022">
        <ele>167.9</ele>
        <time>2023-04-10T10:11:27Z</time>
      </trkpt>
      <trkpt lat="44.93167" lon="0.67019">
        <ele>168</ele>
        <time>2023-04-10T10:11:28Z</time>
      </trkpt>
      <trkpt lat="44.93165" lon="0.67013">
        <ele>168.3</ele>
        <time>2023-04-10T10:11:30Z</time>
      </trkpt>
      <trkpt lat="44.93163" lon="0.67007">
        <ele>168.6</ele>
        <time>2023-04-10T10:11:32Z</time>
      </trkpt>
      <trkpt lat="44.93161" lon="0.67">
        <ele>168.9</ele>
        <time>2023-04-10T10:11:34Z</time>
      </trkpt>
      <trkpt lat="44.93159" lon="0.66994">
        <ele>169.2</ele>
        <time>2023-04-10T10:11:36Z</time>
      </trkpt>
      <trkpt lat="44.93157" lon="0.66987">
        <ele>169.5</ele>
        <time>2023-04-10T10:11:38Z</time>
      </trkpt>
      <trkpt lat="44.93156" lon="0.66981">
        <ele>169.8</ele>
        <time>2023-04-10T10:11:40Z</time>
      </trkpt>
      <trkpt lat="44.93154" lon="0.66975">
        <ele>170.1</ele>
        <time>2023-04-10T10:11:42Z</time>
      </trkpt>
      <trkpt lat="44.93153" lon="0.66969">
        <ele>170.3</ele>
        <time>2023-04-10T10:11:44Z</time>
      </trkpt>
      <trkpt lat="44.93152" lon="0.66965">
        <ele>170.4</ele>
        <time>2023-04-10T10:11:45Z</time>
      </trkpt>
      <trkpt lat="44.93151" lon="0.66962">
        <ele>170.5</ele>
        <time>2023-04-10T10:11:46Z</time>
      </trkpt>
      <trkpt lat="44.93149" lon="0.66956">
        <ele>170.7</ele>
        <time>2023-04-10T10:11:48Z</time>
      </trkpt>
      <trkpt lat="44.93148" lon="0.66949">
        <ele>170.9</ele>
        <time>2023-04-10T10:11:50Z</time>
      </trkpt>
      <trkpt lat="44.93146" lon="0.66944">
        <ele>171.2</ele>
        <time>2023-04-10T10:11:52Z</time>
      </trkpt>
      <trkpt lat="44.93144" lon="0.66937">
        <ele>171.4</ele>
        <time>2023-04-10T10:11:54Z</time>
      </trkpt>
      <trkpt lat="44.93143" lon="0.66934">
        <ele>171.5</ele>
        <time>2023-04-10T10:11:55Z</time>
      </trkpt>
      <trkpt lat="44.93142" lon="0.6693">
        <ele>171.6</ele>
        <time>2023-04-10T10:11:56Z</time>
      </trkpt>
      <trkpt lat="44.93141" lon="0.66924">
        <ele>171.8</ele>
        <time>2023-04-10T10:11:58Z</time>
      </trkpt>
      <trkpt lat="44.93139" lon="0.66918">
        <ele>172</ele>
        <time>2023-04-10T10:12:00Z</time>
      </trkpt>
      <trkpt lat="44.93138" lon="0.66911">
        <ele>172.2</ele>
        <time>2023-04-10T10:12:02Z</time>
      </trkpt>
      <trkpt lat="44.93135" lon="0.66905">
        <ele>172.4</ele>
        <time>2023-04-10T10:12:04Z</time>
      </trkpt>
      <trkpt lat="44.93134" lon="0.66898">
        <ele>172.6</ele>
        <time>2023-04-10T10:12:06Z</time>
      </trkpt>
      <trkpt lat="44.93132" lon="0.66892">
        <ele>172.9</ele>
        <time>2023-04-10T10:12:08Z</time>
      </trkpt>
      <trkpt lat="44.93132" lon="0.66889">
        <ele>172.9</ele>
        <time>2023-04-10T10:12:09Z</time>
      </trkpt>
      <trkpt lat="44.93131" lon="0.66886">
        <ele>173</ele>
        <time>2023-04-10T10:12:10Z</time>
      </trkpt>
      <trkpt lat="44.93131" lon="0.66881">
        <ele>173.2</ele>
        <time>2023-04-10T10:12:12Z</time>
      </trkpt>
      <trkpt lat="44.9313" lon="0.66876">
        <ele>173.3</ele>
        <time>2023-04-10T10:12:14Z</time>
      </trkpt>
      <trkpt lat="44.93128" lon="0.66868">
        <ele>173.6</ele>
        <time>2023-04-10T10:12:16Z</time>
      </trkpt>
      <trkpt lat="44.93126" lon="0.66861">
        <ele>173.8</ele>
        <time>2023-04-10T10:12:18Z</time>
      </trkpt>
      <trkpt lat="44.93125" lon="0.66855">
        <ele>173.9</ele>
        <time>2023-04-10T10:12:20Z</time>
      </trkpt>
      <trkpt lat="44.93124" lon="0.66852">
        <ele>173.9</ele>
        <time>2023-04-10T10:12:21Z</time>
      </trkpt>
      <trkpt lat="44.93123" lon="0.66849">
        <ele>173.9</ele>
        <time>2023-04-10T10:12:22Z</time>
      </trkpt>
      <trkpt lat="44.93121" lon="0.66841">
        <ele>173.9</ele>
        <time>2023-04-10T10:12:24Z</time>
      </trkpt>
      <trkpt lat="44.9312" lon="0.66836">
        <ele>173.8</ele>
        <time>2023-04-10T10:12:25Z</time>
      </trkpt>
      <trkpt lat="44.93119" lon="0.6683">
        <ele>173.7</ele>
        <time>2023-04-10T10:12:26Z</time>
      </trkpt>
      <trkpt lat="44.93116" lon="0.66819">
        <ele>173.4</ele>
        <time>2023-04-10T10:12:28Z</time>
      </trkpt>
      <trkpt lat="44.93114" lon="0.66813">
        <ele>173.2</ele>
        <time>2023-04-10T10:12:29Z</time>
      </trkpt>
      <trkpt lat="44.93112" lon="0.66807">
        <ele>173</ele>
        <time>2023-04-10T10:12:30Z</time>
      </trkpt>
      <trkpt lat="44.93108" lon="0.66793">
        <ele>172.4</ele>
        <time>2023-04-10T10:12:32Z</time>
      </trkpt>
      <trkpt lat="44.93104" lon="0.66778">
        <ele>171.7</ele>
        <time>2023-04-10T10:12:34Z</time>
      </trkpt>
      <trkpt lat="44.931" lon="0.66761">
        <ele>171.1</ele>
        <time>2023-04-10T10:12:36Z</time>
      </trkpt>
      <trkpt lat="44.93096" lon="0.66744">
        <ele>170.5</ele>
        <time>2023-04-10T10:12:38Z</time>
      </trkpt>
      <trkpt lat="44.93093" lon="0.66735">
        <ele>170.2</ele>
        <time>2023-04-10T10:12:39Z</time>
      </trkpt>
      <trkpt lat="44.93091" lon="0.66727">
        <ele>170</ele>
        <time>2023-04-10T10:12:40Z</time>
      </trkpt>
      <trkpt lat="44.93086" lon="0.6671">
        <ele>169.6</ele>
        <time>2023-04-10T10:12:42Z</time>
      </trkpt>
      <trkpt lat="44.93082" lon="0.66694">
        <ele>169.3</ele>
        <time>2023-04-10T10:12:44Z</time>
      </trkpt>
      <trkpt lat="44.9308" lon="0.66686">
        <ele>169.2</ele>
        <time>2023-04-10T10:12:45Z</time>
      </trkpt>
      <trkpt lat="44.93078" lon="0.66678">
        <ele>169.2</ele>
        <time>2023-04-10T10:12:46Z</time>
      </trkpt>
      <trkpt lat="44.93073" lon="0.66665">
        <ele>169.1</ele>
        <time>2023-04-10T10:12:48Z</time>
      </trkpt>
      <trkpt lat="44.9307" lon="0.66652">
        <ele>169.1</ele>
        <time>2023-04-10T10:12:50Z</time>
      </trkpt>
      <trkpt lat="44.93069" lon="0.66646">
        <ele>169.1</ele>
        <time>2023-04-10T10:12:51Z</time>
      </trkpt>
      <trkpt lat="44.93067" lon="0.6664">
        <ele>169.1</ele>
        <time>2023-04-10T10:12:52Z</time>
      </trkpt>
      <trkpt lat="44.93064" lon="0.66629">
        <ele>169.2</ele>
        <time>2023-04-10T10:12:54Z</time>
      </trkpt>
      <trkpt lat="44.93059" lon="0.66614">
        <ele>169.3</ele>
        <time>2023-04-10T10:12:56Z</time>
      </trkpt>
      <trkpt lat="44.93057" lon="0.66607">
        <ele>169.4</ele>
        <time>2023-04-10T10:12:57Z</time>
      </trkpt>
      <trkpt lat="44.93056" lon="0.66601">
        <ele>169.4</ele>
        <time>2023-04-10T10:12:58Z</time>
      </trkpt>
      <trkpt lat="44.93053" lon="0.66589">
        <ele>169.6</ele>
        <time>2023-04-10T10:13:00Z</time>
      </trkpt>
      <trkpt lat="44.93052" lon="0.66583">
        <ele>169.7</ele>
        <time>2023-04-10T10:13:01Z</time>
      </trkpt>
      <trkpt lat="44.9305" lon="0.66577">
        <ele>169.8</ele>
        <time>2023-04-10T10:13:02Z</time>
      </trkpt>
      <trkpt lat="44.93049" lon="0.66571">
        <ele>169.9</ele>
        <time>2023-04-10T10:13:03Z</time>
      </trkpt>
      <trkpt lat="44.93047" lon="0.66566">
        <ele>170</ele>
        <time>2023-04-10T10:13:04Z</time>
      </trkpt>
      <trkpt lat="44.93045" lon="0.66556">
        <ele>170.2</ele>
        <time>2023-04-10T10:13:06Z</time>
      </trkpt>
      <trkpt lat="44.93042" lon="0.66546">
        <ele>170.4</ele>
        <time>2023-04-10T10:13:08Z</time>
      </trkpt>
      <trkpt lat="44.93039" lon="0.66537">
        <ele>170.7</ele>
        <time>2023-04-10T10:13:10Z</time>
      </trkpt>
      <trkpt lat="44.93037" lon="0.6653">
        <ele>171</ele>
        <time>2023-04-10T10:13:12Z</time>
      </trkpt>
      <trkpt lat="44.93035" lon="0.66524">
        <ele>171.3</ele>
        <time>2023-04-10T10:13:14Z</time>
      </trkpt>
      <trkpt lat="44.93035" lon="0.66521">
        <ele>171.5</ele>
        <time>2023-04-10T10:13:15Z</time>
      </trkpt>
      <trkpt lat="44.93034" lon="0.66518">
        <ele>171.6</ele>
        <time>2023-04-10T10:13:16Z</time>
      </trkpt>
      <trkpt lat="44.93032" lon="0.66511">
        <ele>171.9</ele>
        <time>2023-04-10T10:13:18Z</time>
      </trkpt>
      <trkpt lat="44.9303" lon="0.66505">
        <ele>172.2</ele>
        <time>2023-04-10T10:13:20Z</time>
      </trkpt>
      <trkpt lat="44.93029" lon="0.66503">
        <ele>172.3</ele>
        <time>2023-04-10T10:13:21Z</time>
      </trkpt>
      <trkpt lat="44.93026" lon="0.66501">
        <ele>172.5</ele>
        <time>2023-04-10T10:13:22Z</time>
      </trkpt>
      <trkpt lat="44.93024" lon="0.665">
        <ele>172.8</ele>
        <time>2023-04-10T10:13:23Z</time>
      </trkpt>
      <trkpt lat="44.93022" lon="0.665">
        <ele>173</ele>
        <time>2023-04-10T10:13:24Z</time>
      </trkpt>
      <trkpt lat="44.93018" lon="0.66501">
        <ele>173.2</ele>
        <time>2023-04-10T10:13:26Z</time>
      </trkpt>
      <trkpt lat="44.93014" lon="0.66504">
        <ele>173.8</ele>
        <time>2023-04-10T10:13:28Z</time>
      </trkpt>
      <trkpt lat="44.93009" lon="0.66506">
        <ele>174.1</ele>
        <time>2023-04-10T10:13:30Z</time>
      </trkpt>
      <trkpt lat="44.93008" lon="0.66508">
        <ele>174.3</ele>
        <time>2023-04-10T10:13:31Z</time>
      </trkpt>
      <trkpt lat="44.93007" lon="0.66511">
        <ele>174.5</ele>
        <time>2023-04-10T10:13:32Z</time>
      </trkpt>
      <trkpt lat="44.93005" lon="0.66516">
        <ele>174.7</ele>
        <time>2023-04-10T10:13:34Z</time>
      </trkpt>
      <trkpt lat="44.93004" lon="0.66523">
        <ele>174.7</ele>
        <time>2023-04-10T10:13:36Z</time>
      </trkpt>
      <trkpt lat="44.93002" lon="0.66529">
        <ele>174.6</ele>
        <time>2023-04-10T10:13:38Z</time>
      </trkpt>
      <trkpt lat="44.92999" lon="0.66535">
        <ele>174.5</ele>
        <time>2023-04-10T10:13:40Z</time>
      </trkpt>
      <trkpt lat="44.92997" lon="0.66538">
        <ele>174.5</ele>
        <time>2023-04-10T10:13:41Z</time>
      </trkpt>
      <trkpt lat="44.92995" lon="0.66541">
        <ele>174.5</ele>
        <time>2023-04-10T10:13:42Z</time>
      </trkpt>
      <trkpt lat="44.92992" lon="0.66547">
        <ele>174.4</ele>
        <time>2023-04-10T10:13:44Z</time>
      </trkpt>
      <trkpt lat="44.9299" lon="0.6655">
        <ele>174.3</ele>
        <time>2023-04-10T10:13:45Z</time>
      </trkpt>
      <trkpt lat="44.92988" lon="0.66554">
        <ele>174.3</ele>
        <time>2023-04-10T10:13:46Z</time>
      </trkpt>
      <trkpt lat="44.92986" lon="0.66558">
        <ele>174.2</ele>
        <time>2023-04-10T10:13:47Z</time>
      </trkpt>
      <trkpt lat="44.92983" lon="0.66561">
        <ele>174.2</ele>
        <time>2023-04-10T10:13:48Z</time>
      </trkpt>
      <trkpt lat="44.92981" lon="0.66566">
        <ele>174.2</ele>
        <time>2023-04-10T10:13:49Z</time>
      </trkpt>
      <trkpt lat="44.9298" lon="0.66571">
        <ele>174.1</ele>
        <time>2023-04-10T10:13:50Z</time>
      </trkpt>
      <trkpt lat="44.92977" lon="0.6658">
        <ele>174.1</ele>
        <time>2023-04-10T10:13:52Z</time>
      </trkpt>
      <trkpt lat="44.92976" lon="0.66584">
        <ele>174</ele>
        <time>2023-04-10T10:13:53Z</time>
      </trkpt>
      <trkpt lat="44.92975" lon="0.66589">
        <ele>174</ele>
        <time>2023-04-10T10:13:54Z</time>
      </trkpt>
      <trkpt lat="44.92972" lon="0.66598">
        <ele>174</ele>
        <time>2023-04-10T10:13:56Z</time>
      </trkpt>
      <trkpt lat="44.92971" lon="0.66602">
        <ele>174</ele>
        <time>2023-04-10T10:13:57Z</time>
      </trkpt>
      <trkpt lat="44.9297" lon="0.66607">
        <ele>174</ele>
        <time>2023-04-10T10:13:58Z</time>
      </trkpt>
      <trkpt lat="44.92969" lon="0.66615">
        <ele>174</ele>
        <time>2023-04-10T10:14:00Z</time>
      </trkpt>
      <trkpt lat="44.92968" lon="0.6662">
        <ele>174</ele>
        <time>2023-04-10T10:14:01Z</time>
      </trkpt>
      <trkpt lat="44.92968" lon="0.66625">
        <ele>174</ele>
        <time>2023-04-10T10:14:02Z</time>
      </trkpt>
      <trkpt lat="44.92965" lon="0.66634">
        <ele>174</ele>
        <time>2023-04-10T10:14:04Z</time>
      </trkpt>
      <trkpt lat="44.92964" lon="0.66639">
        <ele>174.1</ele>
        <time>2023-04-10T10:14:05Z</time>
      </trkpt>
      <trkpt lat="44.92962" lon="0.66643">
        <ele>174.1</ele>
        <time>2023-04-10T10:14:06Z</time>
      </trkpt>
      <trkpt lat="44.9296" lon="0.66652">
        <ele>174.1</ele>
        <time>2023-04-10T10:14:08Z</time>
      </trkpt>
      <trkpt lat="44.92959" lon="0.66657">
        <ele>174.2</ele>
        <time>2023-04-10T10:14:09Z</time>
      </trkpt>
      <trkpt lat="44.92959" lon="0.66661">
        <ele>174.2</ele>
        <time>2023-04-10T10:14:10Z</time>
      </trkpt>
      <trkpt lat="44.92959" lon="0.66671">
        <ele>174.3</ele>
        <time>2023-04-10T10:14:12Z</time>
      </trkpt>
      <trkpt lat="44.92957" lon="0.66676">
        <ele>174.3</ele>
        <time>2023-04-10T10:14:13Z</time>
      </trkpt>
      <trkpt lat="44.92955" lon="0.6668">
        <ele>174.3</ele>
        <time>2023-04-10T10:14:14Z</time>
      </trkpt>
      <trkpt lat="44.9295" lon="0.66689">
        <ele>174.4</ele>
        <time>2023-04-10T10:14:16Z</time>
      </trkpt>
      <trkpt lat="44.92948" lon="0.66697">
        <ele>174.5</ele>
        <time>2023-04-10T10:14:18Z</time>
      </trkpt>
      <trkpt lat="44.92947" lon="0.66707">
        <ele>174.6</ele>
        <time>2023-04-10T10:14:20Z</time>
      </trkpt>
      <trkpt lat="44.92945" lon="0.66716">
        <ele>174.7</ele>
        <time>2023-04-10T10:14:22Z</time>
      </trkpt>
      <trkpt lat="44.92943" lon="0.66725">
        <ele>174.8</ele>
        <time>2023-04-10T10:14:24Z</time>
      </trkpt>
      <trkpt lat="44.92941" lon="0.66729">
        <ele>174.9</ele>
        <time>2023-04-10T10:14:25Z</time>
      </trkpt>
      <trkpt lat="44.9294" lon="0.66734">
        <ele>174.9</ele>
        <time>2023-04-10T10:14:26Z</time>
      </trkpt>
      <trkpt lat="44.92939" lon="0.66742">
        <ele>175</ele>
        <time>2023-04-10T10:14:28Z</time>
      </trkpt>
      <trkpt lat="44.92937" lon="0.66751">
        <ele>175.2</ele>
        <time>2023-04-10T10:14:30Z</time>
      </trkpt>
      <trkpt lat="44.92935" lon="0.66755">
        <ele>175.2</ele>
        <time>2023-04-10T10:14:31Z</time>
      </trkpt>
      <trkpt lat="44.92934" lon="0.66759">
        <ele>175.3</ele>
        <time>2023-04-10T10:14:32Z</time>
      </trkpt>
      <trkpt lat="44.92932" lon="0.66768">
        <ele>175.4</ele>
        <time>2023-04-10T10:14:34Z</time>
      </trkpt>
      <trkpt lat="44.9293" lon="0.66777">
        <ele>175.5</ele>
        <time>2023-04-10T10:14:36Z</time>
      </trkpt>
      <trkpt lat="44.92929" lon="0.66785">
        <ele>175.7</ele>
        <time>2023-04-10T10:14:38Z</time>
      </trkpt>
      <trkpt lat="44.92926" lon="0.66793">
        <ele>175.9</ele>
        <time>2023-04-10T10:14:40Z</time>
      </trkpt>
      <trkpt lat="44.92926" lon="0.66798">
        <ele>176</ele>
        <time>2023-04-10T10:14:41Z</time>
      </trkpt>
      <trkpt lat="44.92925" lon="0.66801">
        <ele>176.1</ele>
        <time>2023-04-10T10:14:42Z</time>
      </trkpt>
      <trkpt lat="44.92922" lon="0.66807">
        <ele>176.3</ele>
        <time>2023-04-10T10:14:44Z</time>
      </trkpt>
      <trkpt lat="44.92922" lon="0.66811">
        <ele>176.4</ele>
        <time>2023-04-10T10:14:45Z</time>
      </trkpt>
      <trkpt lat="44.92921" lon="0.66815">
        <ele>176.5</ele>
        <time>2023-04-10T10:14:46Z</time>
      </trkpt>
      <trkpt lat="44.92918" lon="0.66822">
        <ele>176.7</ele>
        <time>2023-04-10T10:14:48Z</time>
      </trkpt>
      <trkpt lat="44.92916" lon="0.66828">
        <ele>176.9</ele>
        <time>2023-04-10T10:14:50Z</time>
      </trkpt>
      <trkpt lat="44.92913" lon="0.66834">
        <ele>177.1</ele>
        <time>2023-04-10T10:14:52Z</time>
      </trkpt>
      <trkpt lat="44.9291" lon="0.6684">
        <ele>177.3</ele>
        <time>2023-04-10T10:14:54Z</time>
      </trkpt>
      <trkpt lat="44.92907" lon="0.66847">
        <ele>177.5</ele>
        <time>2023-04-10T10:14:56Z</time>
      </trkpt>
      <trkpt lat="44.92905" lon="0.6685">
        <ele>177.6</ele>
        <time>2023-04-10T10:14:57Z</time>
      </trkpt>
      <trkpt lat="44.92904" lon="0.66853">
        <ele>177.7</ele>
        <time>2023-04-10T10:14:58Z</time>
      </trkpt>
      <trkpt lat="44.92903" lon="0.66857">
        <ele>177.8</ele>
        <time>2023-04-10T10:14:59Z</time>
      </trkpt>
      <trkpt lat="44.92902" lon="0.6686">
        <ele>177.9</ele>
        <time>2023-04-10T10:15:00Z</time>
      </trkpt>
      <trkpt lat="44.929" lon="0.66867">
        <ele>178.1</ele>
        <time>2023-04-10T10:15:02Z</time>
      </trkpt>
      <trkpt lat="44.92899" lon="0.6687">
        <ele>178.2</ele>
        <time>2023-04-10T10:15:03Z</time>
      </trkpt>
      <trkpt lat="44.92898" lon="0.66873">
        <ele>178.3</ele>
        <time>2023-04-10T10:15:04Z</time>
      </trkpt>
      <trkpt lat="44.92896" lon="0.6688">
        <ele>178.5</ele>
        <time>2023-04-10T10:15:06Z</time>
      </trkpt>
      <trkpt lat="44.92894" lon="0.66887">
        <ele>178.7</ele>
        <time>2023-04-10T10:15:08Z</time>
      </trkpt>
      <trkpt lat="44.92892" lon="0.66894">
        <ele>178.9</ele>
        <time>2023-04-10T10:15:10Z</time>
      </trkpt>
      <trkpt lat="44.92891" lon="0.669">
        <ele>179.1</ele>
        <time>2023-04-10T10:15:12Z</time>
      </trkpt>
      <trkpt lat="44.9289" lon="0.66905">
        <ele>179.3</ele>
        <time>2023-04-10T10:15:14Z</time>
      </trkpt>
      <trkpt lat="44.92888" lon="0.66908">
        <ele>179.4</ele>
        <time>2023-04-10T10:15:15Z</time>
      </trkpt>
      <trkpt lat="44.92887" lon="0.66911">
        <ele>179.5</ele>
        <time>2023-04-10T10:15:16Z</time>
      </trkpt>
      <trkpt lat="44.92885" lon="0.66914">
        <ele>179.6</ele>
        <time>2023-04-10T10:15:17Z</time>
      </trkpt>
      <trkpt lat="44.92884" lon="0.66917">
        <ele>179.7</ele>
        <time>2023-04-10T10:15:18Z</time>
      </trkpt>
      <trkpt lat="44.92883" lon="0.66923">
        <ele>180</ele>
        <time>2023-04-10T10:15:20Z</time>
      </trkpt>
      <trkpt lat="44.92881" lon="0.66929">
        <ele>180.2</ele>
        <time>2023-04-10T10:15:22Z</time>
      </trkpt>
      <trkpt lat="44.9288" lon="0.66932">
        <ele>180.3</ele>
        <time>2023-04-10T10:15:23Z</time>
      </trkpt>
      <trkpt lat="44.92879" lon="0.66935">
        <ele>180.4</ele>
        <time>2023-04-10T10:15:24Z</time>
      </trkpt>
      <trkpt lat="44.92878" lon="0.66941">
        <ele>180.7</ele>
        <time>2023-04-10T10:15:26Z</time>
      </trkpt>
      <trkpt lat="44.92877" lon="0.66944">
        <ele>180.8</ele>
        <time>2023-04-10T10:15:27Z</time>
      </trkpt>
      <trkpt lat="44.92877" lon="0.66947">
        <ele>180.9</ele>
        <time>2023-04-10T10:15:28Z</time>
      </trkpt>
      <trkpt lat="44.92876" lon="0.66953">
        <ele>181.1</ele>
        <time>2023-04-10T10:15:30Z</time>
      </trkpt>
      <trkpt lat="44.92874" lon="0.66959">
        <ele>181.4</ele>
        <time>2023-04-10T10:15:32Z</time>
      </trkpt>
      <trkpt lat="44.92874" lon="0.66964">
        <ele>181.6</ele>
        <time>2023-04-10T10:15:34Z</time>
      </trkpt>
      <trkpt lat="44.92873" lon="0.6697">
        <ele>181.8</ele>
        <time>2023-04-10T10:15:36Z</time>
      </trkpt>
      <trkpt lat="44.92872" lon="0.66976">
        <ele>182.1</ele>
        <time>2023-04-10T10:15:38Z</time>
      </trkpt>
      <trkpt lat="44.9287" lon="0.66979">
        <ele>182.2</ele>
        <time>2023-04-10T10:15:39Z</time>
      </trkpt>
      <trkpt lat="44.92869" lon="0.66982">
        <ele>182.3</ele>
        <time>2023-04-10T10:15:40Z</time>
      </trkpt>
      <trkpt lat="44.92867" lon="0.66989">
        <ele>182.6</ele>
        <time>2023-04-10T10:15:42Z</time>
      </trkpt>
      <trkpt lat="44.92866" lon="0.66992">
        <ele>182.7</ele>
        <time>2023-04-10T10:15:43Z</time>
      </trkpt>
      <trkpt lat="44.92866" lon="0.66995">
        <ele>182.8</ele>
        <time>2023-04-10T10:15:44Z</time>
      </trkpt>
      <trkpt lat="44.92864" lon="0.67">
        <ele>183</ele>
        <time>2023-04-10T10:15:46Z</time>
      </trkpt>
      <trkpt lat="44.92863" lon="0.67003">
        <ele>183.1</ele>
        <time>2023-04-10T10:15:47Z</time>
      </trkpt>
      <trkpt lat="44.92862" lon="0.67006">
        <ele>183.2</ele>
        <time>2023-04-10T10:15:48Z</time>
      </trkpt>
      <trkpt lat="44.9286" lon="0.67012">
        <ele>183.4</ele>
        <time>2023-04-10T10:15:50Z</time>
      </trkpt>
      <trkpt lat="44.9286" lon="0.67018">
        <ele>183.6</ele>
        <time>2023-04-10T10:15:52Z</time>
      </trkpt>
      <trkpt lat="44.92857" lon="0.67024">
        <ele>183.8</ele>
        <time>2023-04-10T10:15:54Z</time>
      </trkpt>
      <trkpt lat="44.92856" lon="0.6703">
        <ele>184</ele>
        <time>2023-04-10T10:15:56Z</time>
      </trkpt>
      <trkpt lat="44.92854" lon="0.67036">
        <ele>184.2</ele>
        <time>2023-04-10T10:15:58Z</time>
      </trkpt>
      <trkpt lat="44.92852" lon="0.67043">
        <ele>184.3</ele>
        <time>2023-04-10T10:16:00Z</time>
      </trkpt>
      <trkpt lat="44.92851" lon="0.67049">
        <ele>184.4</ele>
        <time>2023-04-10T10:16:02Z</time>
      </trkpt>
      <trkpt lat="44.9285" lon="0.67052">
        <ele>184.5</ele>
        <time>2023-04-10T10:16:03Z</time>
      </trkpt>
      <trkpt lat="44.92849" lon="0.67055">
        <ele>184.5</ele>
        <time>2023-04-10T10:16:04Z</time>
      </trkpt>
      <trkpt lat="44.92846" lon="0.67062">
        <ele>184.6</ele>
        <time>2023-04-10T10:16:06Z</time>
      </trkpt>
      <trkpt lat="44.92845" lon="0.6707">
        <ele>184.6</ele>
        <time>2023-04-10T10:16:08Z</time>
      </trkpt>
      <trkpt lat="44.92844" lon="0.67079">
        <ele>184.5</ele>
        <time>2023-04-10T10:16:10Z</time>
      </trkpt>
      <trkpt lat="44.92843" lon="0.67089">
        <ele>184.4</ele>
        <time>2023-04-10T10:16:12Z</time>
      </trkpt>
      <trkpt lat="44.92843" lon="0.67095">
        <ele>184.3</ele>
        <time>2023-04-10T10:16:13Z</time>
      </trkpt>
      <trkpt lat="44.92843" lon="0.67101">
        <ele>184.2</ele>
        <time>2023-04-10T10:16:14Z</time>
      </trkpt>
      <trkpt lat="44.92844" lon="0.67114">
        <ele>183.8</ele>
        <time>2023-04-10T10:16:16Z</time>
      </trkpt>
      <trkpt lat="44.92843" lon="0.67119">
        <ele>183.6</ele>
        <time>2023-04-10T10:16:17Z</time>
      </trkpt>
      <trkpt lat="44.92842" lon="0.67126">
        <ele>183.3</ele>
        <time>2023-04-10T10:16:18Z</time>
      </trkpt>
      <trkpt lat="44.9284" lon="0.67134">
        <ele>183</ele>
        <time>2023-04-10T10:16:19Z</time>
      </trkpt>
      <trkpt lat="44.92838" lon="0.67141">
        <ele>182.7</ele>
        <time>2023-04-10T10:16:20Z</time>
      </trkpt>
      <trkpt lat="44.92837" lon="0.67149">
        <ele>182.4</ele>
        <time>2023-04-10T10:16:21Z</time>
      </trkpt>
      <trkpt lat="44.92835" lon="0.67157">
        <ele>182</ele>
        <time>2023-04-10T10:16:22Z</time>
      </trkpt>
      <trkpt lat="44.92834" lon="0.67165">
        <ele>181.6</ele>
        <time>2023-04-10T10:16:23Z</time>
      </trkpt>
      <trkpt lat="44.92833" lon="0.67174">
        <ele>181.2</ele>
        <time>2023-04-10T10:16:24Z</time>
      </trkpt>
      <trkpt lat="44.92831" lon="0.67183">
        <ele>180.7</ele>
        <time>2023-04-10T10:16:25Z</time>
      </trkpt>
      <trkpt lat="44.92829" lon="0.67192">
        <ele>180.3</ele>
        <time>2023-04-10T10:16:26Z</time>
      </trkpt>
      <trkpt lat="44.92825" lon="0.6721">
        <ele>179.4</ele>
        <time>2023-04-10T10:16:28Z</time>
      </trkpt>
      <trkpt lat="44.92823" lon="0.6722">
        <ele>178.9</ele>
        <time>2023-04-10T10:16:29Z</time>
      </trkpt>
      <trkpt lat="44.92821" lon="0.6723">
        <ele>178.3</ele>
        <time>2023-04-10T10:16:30Z</time>
      </trkpt>
      <trkpt lat="44.92816" lon="0.6725">
        <ele>177.3</ele>
        <time>2023-04-10T10:16:32Z</time>
      </trkpt>
      <trkpt lat="44.9281" lon="0.67271">
        <ele>176.2</ele>
        <time>2023-04-10T10:16:34Z</time>
      </trkpt>
      <trkpt lat="44.92805" lon="0.67295">
        <ele>174.6</ele>
        <time>2023-04-10T10:16:36Z</time>
      </trkpt>
      <trkpt lat="44.92803" lon="0.67308">
        <ele>173.6</ele>
        <time>2023-04-10T10:16:37Z</time>
      </trkpt>
      <trkpt lat="44.92802" lon="0.67322">
        <ele>172.6</ele>
        <time>2023-04-10T10:16:38Z</time>
      </trkpt>
      <trkpt lat="44.92801" lon="0.67349">
        <ele>170.5</ele>
        <time>2023-04-10T10:16:40Z</time>
      </trkpt>
      <trkpt lat="44.928" lon="0.67363">
        <ele>169.5</ele>
        <time>2023-04-10T10:16:41Z</time>
      </trkpt>
      <trkpt lat="44.92799" lon="0.67377">
        <ele>168.5</ele>
        <time>2023-04-10T10:16:42Z</time>
      </trkpt>
      <trkpt lat="44.92798" lon="0.67391">
        <ele>167.5</ele>
        <time>2023-04-10T10:16:43Z</time>
      </trkpt>
      <trkpt lat="44.92795" lon="0.67404">
        <ele>166.5</ele>
        <time>2023-04-10T10:16:44Z</time>
      </trkpt>
      <trkpt lat="44.92791" lon="0.67416">
        <ele>165.7</ele>
        <time>2023-04-10T10:16:45Z</time>
      </trkpt>
      <trkpt lat="44.92788" lon="0.67428">
        <ele>164.8</ele>
        <time>2023-04-10T10:16:46Z</time>
      </trkpt>
      <trkpt lat="44.92783" lon="0.67454">
        <ele>163.1</ele>
        <time>2023-04-10T10:16:48Z</time>
      </trkpt>
      <trkpt lat="44.92775" lon="0.67476">
        <ele>161.5</ele>
        <time>2023-04-10T10:16:50Z</time>
      </trkpt>
      <trkpt lat="44.9277" lon="0.67502">
        <ele>159.8</ele>
        <time>2023-04-10T10:16:52Z</time>
      </trkpt>
      <trkpt lat="44.92766" lon="0.67526">
        <ele>158.4</ele>
        <time>2023-04-10T10:16:54Z</time>
      </trkpt>
      <trkpt lat="44.92766" lon="0.67536">
        <ele>157.9</ele>
        <time>2023-04-10T10:16:55Z</time>
      </trkpt>
      <trkpt lat="44.92765" lon="0.67544">
        <ele>157.4</ele>
        <time>2023-04-10T10:16:56Z</time>
      </trkpt>
      <trkpt lat="44.92764" lon="0.6755">
        <ele>157.1</ele>
        <time>2023-04-10T10:16:57Z</time>
      </trkpt>
      <trkpt lat="44.92761" lon="0.67554">
        <ele>156.8</ele>
        <time>2023-04-10T10:16:58Z</time>
      </trkpt>
      <trkpt lat="44.92754" lon="0.67561">
        <ele>156.4</ele>
        <time>2023-04-10T10:17:00Z</time>
      </trkpt>
      <trkpt lat="44.92751" lon="0.67565">
        <ele>156.3</ele>
        <time>2023-04-10T10:17:01Z</time>
      </trkpt>
      <trkpt lat="44.92747" lon="0.6757">
        <ele>156.1</ele>
        <time>2023-04-10T10:17:02Z</time>
      </trkpt>
      <trkpt lat="44.92743" lon="0.67574">
        <ele>156</ele>
        <time>2023-04-10T10:17:03Z</time>
      </trkpt>
      <trkpt lat="44.9274" lon="0.67578">
        <ele>155.8</ele>
        <time>2023-04-10T10:17:04Z</time>
      </trkpt>
      <trkpt lat="44.92732" lon="0.67588">
        <ele>155.6</ele>
        <time>2023-04-10T10:17:06Z</time>
      </trkpt>
      <trkpt lat="44.92728" lon="0.67592">
        <ele>155.5</ele>
        <time>2023-04-10T10:17:07Z</time>
      </trkpt>
      <trkpt lat="44.92724" lon="0.67596">
        <ele>155.4</ele>
        <time>2023-04-10T10:17:08Z</time>
      </trkpt>
      <trkpt lat="44.92715" lon="0.67604">
        <ele>155.3</ele>
        <time>2023-04-10T10:17:10Z</time>
      </trkpt>
      <trkpt lat="44.92707" lon="0.67611">
        <ele>155.2</ele>
        <time>2023-04-10T10:17:12Z</time>
      </trkpt>
      <trkpt lat="44.92698" lon="0.67617">
        <ele>155.1</ele>
        <time>2023-04-10T10:17:14Z</time>
      </trkpt>
      <trkpt lat="44.92689" lon="0.67624">
        <ele>155.1</ele>
        <time>2023-04-10T10:17:16Z</time>
      </trkpt>
      <trkpt lat="44.92681" lon="0.67631">
        <ele>155.1</ele>
        <time>2023-04-10T10:17:18Z</time>
      </trkpt>
      <trkpt lat="44.92676" lon="0.67634">
        <ele>155.1</ele>
        <time>2023-04-10T10:17:19Z</time>
      </trkpt>
      <trkpt lat="44.92672" lon="0.67636">
        <ele>155.1</ele>
        <time>2023-04-10T10:17:20Z</time>
      </trkpt>
      <trkpt lat="44.92664" lon="0.67641">
        <ele>155.1</ele>
        <time>2023-04-10T10:17:22Z</time>
      </trkpt>
      <trkpt lat="44.9266" lon="0.67643">
        <ele>155.1</ele>
        <time>2023-04-10T10:17:23Z</time>
      </trkpt>
      <trkpt lat="44.92655" lon="0.67646">
        <ele>155.2</ele>
        <time>2023-04-10T10:17:24Z</time>
      </trkpt>
      <trkpt lat="44.92645" lon="0.67651">
        <ele>155.3</ele>
        <time>2023-04-10T10:17:26Z</time>
      </trkpt>
      <trkpt lat="44.92637" lon="0.67655">
        <ele>155.4</ele>
        <time>2023-04-10T10:17:28Z</time>
      </trkpt>
      <trkpt lat="44.92629" lon="0.67658">
        <ele>155.6</ele>
        <time>2023-04-10T10:17:30Z</time>
      </trkpt>
      <trkpt lat="44.92624" lon="0.6766">
        <ele>155.7</ele>
        <time>2023-04-10T10:17:31Z</time>
      </trkpt>
      <trkpt lat="44.92619" lon="0.67661">
        <ele>155.8</ele>
        <time>2023-04-10T10:17:32Z</time>
      </trkpt>
      <trkpt lat="44.92616" lon="0.67666">
        <ele>156</ele>
        <time>2023-04-10T10:17:33Z</time>
      </trkpt>
      <trkpt lat="44.92615" lon="0.67671">
        <ele>156.1</ele>
        <time>2023-04-10T10:17:34Z</time>
      </trkpt>
      <trkpt lat="44.92614" lon="0.67677">
        <ele>156.3</ele>
        <time>2023-04-10T10:17:35Z</time>
      </trkpt>
      <trkpt lat="44.92614" lon="0.67683">
        <ele>156.3</ele>
        <time>2023-04-10T10:17:36Z</time>
      </trkpt>
      <trkpt lat="44.92614" lon="0.67698">
        <ele>156.1</ele>
        <time>2023-04-10T10:17:38Z</time>
      </trkpt>
      <trkpt lat="44.92614" lon="0.67714">
        <ele>155.9</ele>
        <time>2023-04-10T10:17:40Z</time>
      </trkpt>
      <trkpt lat="44.92615" lon="0.67729">
        <ele>155.7</ele>
        <time>2023-04-10T10:17:42Z</time>
      </trkpt>
      <trkpt lat="44.92616" lon="0.67736">
        <ele>155.6</ele>
        <time>2023-04-10T10:17:43Z</time>
      </trkpt>
      <trkpt lat="44.92618" lon="0.67743">
        <ele>155.4</ele>
        <time>2023-04-10T10:17:44Z</time>
      </trkpt>
      <trkpt lat="44.92622" lon="0.67758">
        <ele>154.9</ele>
        <time>2023-04-10T10:17:46Z</time>
      </trkpt>
      <trkpt lat="44.92625" lon="0.67776">
        <ele>154.2</ele>
        <time>2023-04-10T10:17:48Z</time>
      </trkpt>
      <trkpt lat="44.92628" lon="0.67795">
        <ele>153.4</ele>
        <time>2023-04-10T10:17:50Z</time>
      </trkpt>
      <trkpt lat="44.92632" lon="0.67815">
        <ele>152.6</ele>
        <time>2023-04-10T10:17:52Z</time>
      </trkpt>
      <trkpt lat="44.92634" lon="0.67824">
        <ele>152.1</ele>
        <time>2023-04-10T10:17:53Z</time>
      </trkpt>
      <trkpt lat="44.92636" lon="0.67835">
        <ele>151.6</ele>
        <time>2023-04-10T10:17:54Z</time>
      </trkpt>
      <trkpt lat="44.92638" lon="0.67846">
        <ele>151.1</ele>
        <time>2023-04-10T10:17:55Z</time>
      </trkpt>
      <trkpt lat="44.9264" lon="0.67856">
        <ele>150.5</ele>
        <time>2023-04-10T10:17:56Z</time>
      </trkpt>
      <trkpt lat="44.92642" lon="0.67866">
        <ele>149.9</ele>
        <time>2023-04-10T10:17:57Z</time>
      </trkpt>
      <trkpt lat="44.92641" lon="0.67875">
        <ele>149.1</ele>
        <time>2023-04-10T10:17:58Z</time>
      </trkpt>
      <trkpt lat="44.92639" lon="0.67883">
        <ele>148.2</ele>
        <time>2023-04-10T10:17:59Z</time>
      </trkpt>
      <trkpt lat="44.92635" lon="0.67889">
        <ele>147.3</ele>
        <time>2023-04-10T10:18:00Z</time>
      </trkpt>
      <trkpt lat="44.92626" lon="0.67903">
        <ele>145.2</ele>
        <time>2023-04-10T10:18:02Z</time>
      </trkpt>
      <trkpt lat="44.92614" lon="0.67916">
        <ele>143.1</ele>
        <time>2023-04-10T10:18:04Z</time>
      </trkpt>
      <trkpt lat="44.9261" lon="0.67923">
        <ele>142.3</ele>
        <time>2023-04-10T10:18:05Z</time>
      </trkpt>
      <trkpt lat="44.92606" lon="0.6793">
        <ele>141.4</ele>
        <time>2023-04-10T10:18:06Z</time>
      </trkpt>
      <trkpt lat="44.92601" lon="0.67936">
        <ele>140.5</ele>
        <time>2023-04-10T10:18:07Z</time>
      </trkpt>
      <trkpt lat="44.92596" lon="0.67944">
        <ele>139.4</ele>
        <time>2023-04-10T10:18:08Z</time>
      </trkpt>
      <trkpt lat="44.92591" lon="0.67953">
        <ele>138.3</ele>
        <time>2023-04-10T10:18:09Z</time>
      </trkpt>
      <trkpt lat="44.92587" lon="0.67963">
        <ele>136.9</ele>
        <time>2023-04-10T10:18:10Z</time>
      </trkpt>
      <trkpt lat="44.9258" lon="0.67982">
        <ele>134.4</ele>
        <time>2023-04-10T10:18:12Z</time>
      </trkpt>
      <trkpt lat="44.92576" lon="0.67989">
        <ele>133.3</ele>
        <time>2023-04-10T10:18:13Z</time>
      </trkpt>
      <trkpt lat="44.92573" lon="0.67999">
        <ele>132.1</ele>
        <time>2023-04-10T10:18:14Z</time>
      </trkpt>
      <trkpt lat="44.92571" lon="0.68021">
        <ele>129.2</ele>
        <time>2023-04-10T10:18:16Z</time>
      </trkpt>
      <trkpt lat="44.92572" lon="0.6805">
        <ele>125.4</ele>
        <time>2023-04-10T10:18:18Z</time>
      </trkpt>
      <trkpt lat="44.92575" lon="0.68063">
        <ele>123.9</ele>
        <time>2023-04-10T10:18:19Z</time>
      </trkpt>
      <trkpt lat="44.92577" lon="0.68077">
        <ele>122.6</ele>
        <time>2023-04-10T10:18:20Z</time>
      </trkpt>
      <trkpt lat="44.92582" lon="0.68104">
        <ele>120.4</ele>
        <time>2023-04-10T10:18:22Z</time>
      </trkpt>
      <trkpt lat="44.92582" lon="0.68118">
        <ele>119.5</ele>
        <time>2023-04-10T10:18:23Z</time>
      </trkpt>
      <trkpt lat="44.9258" lon="0.6813">
        <ele>118.9</ele>
        <time>2023-04-10T10:18:24Z</time>
      </trkpt>
      <trkpt lat="44.92573" lon="0.68149">
        <ele>118.8</ele>
        <time>2023-04-10T10:18:26Z</time>
      </trkpt>
      <trkpt lat="44.92567" lon="0.68164">
        <ele>119</ele>
        <time>2023-04-10T10:18:28Z</time>
      </trkpt>
      <trkpt lat="44.92562" lon="0.68176">
        <ele>119.4</ele>
        <time>2023-04-10T10:18:30Z</time>
      </trkpt>
      <trkpt lat="44.9256" lon="0.68181">
        <ele>119.5</ele>
        <time>2023-04-10T10:18:31Z</time>
      </trkpt>
      <trkpt lat="44.92558" lon="0.68185">
        <ele>119.7</ele>
        <time>2023-04-10T10:18:32Z</time>
      </trkpt>
      <trkpt lat="44.92554" lon="0.68192">
        <ele>120</ele>
        <time>2023-04-10T10:18:34Z</time>
      </trkpt>
      <trkpt lat="44.92551" lon="0.68197">
        <ele>120.4</ele>
        <time>2023-04-10T10:18:36Z</time>
      </trkpt>
      <trkpt lat="44.92549" lon="0.68202">
        <ele>120.7</ele>
        <time>2023-04-10T10:18:38Z</time>
      </trkpt>
      <trkpt lat="44.92547" lon="0.68203">
        <ele>120.9</ele>
        <time>2023-04-10T10:18:39Z</time>
      </trkpt>
      <trkpt lat="44.92546" lon="0.68205">
        <ele>121</ele>
        <time>2023-04-10T10:18:40Z</time>
      </trkpt>
      <trkpt lat="44.92545" lon="0.68207">
        <ele>121.3</ele>
        <time>2023-04-10T10:18:41Z</time>
      </trkpt>
      <trkpt lat="44.92544" lon="0.6821">
        <ele>121.5</ele>
        <time>2023-04-10T10:18:42Z</time>
      </trkpt>
      <trkpt lat="44.92543" lon="0.68212">
        <ele>121.7</ele>
        <time>2023-04-10T10:18:43Z</time>
      </trkpt>
      <trkpt lat="44.92543" lon="0.68215">
        <ele>121.9</ele>
        <time>2023-04-10T10:18:44Z</time>
      </trkpt>
      <trkpt lat="44.92542" lon="0.68218">
        <ele>122.2</ele>
        <time>2023-04-10T10:18:45Z</time>
      </trkpt>
      <trkpt lat="44.92541" lon="0.6822">
        <ele>122.5</ele>
        <time>2023-04-10T10:18:46Z</time>
      </trkpt>
      <trkpt lat="44.92539" lon="0.68225">
        <ele>123</ele>
        <time>2023-04-10T10:18:48Z</time>
      </trkpt>
      <trkpt lat="44.92538" lon="0.68229">
        <ele>123.5</ele>
        <time>2023-04-10T10:18:50Z</time>
      </trkpt>
      <trkpt lat="44.92537" lon="0.68233">
        <ele>124</ele>
        <time>2023-04-10T10:18:52Z</time>
      </trkpt>
      <trkpt lat="44.92538" lon="0.68236">
        <ele>124.4</ele>
        <time>2023-04-10T10:18:54Z</time>
      </trkpt>
      <trkpt lat="44.92538" lon="0.68237">
        <ele>124.6</ele>
        <time>2023-04-10T10:18:56Z</time>
      </trkpt>
    </trkseg>
  </trk>
</gpx>